<?xml version='1.0' encoding='UTF-8'?><gpx version="1.1" creator="JPX - https://github.com/jenetics/jpx" xmlns="http://www.topografix.com/GPX/1/1"><trk><trkseg><trkpt lat="43.9077012" lon="11.7906124"><ele>552.0</ele><time>2026-04-06T12:36:52.137Z</time></trkpt><trkpt lat="43.9076276" lon="11.7906126"><ele>552.0</ele><time>2026-04-06T12:36:53.135Z</time></trkpt><trkpt lat="43.9075423" lon="11.7906178"><ele>552.0</ele><time>2026-04-06T12:36:54.145Z</time></trkpt><trkpt lat="43.9074544" lon="11.7906112"><ele>552.0</ele><time>2026-04-06T12:36:55.154Z</time></trkpt><trkpt lat="43.907363" lon="11.7906242"><ele>552.0</ele><time>2026-04-06T12:36:56.145Z</time></trkpt><trkpt lat="43.9072808" lon="11.7906359"><ele>552.0</ele><time>2026-04-06T12:36:57.152Z</time></trkpt><trkpt lat="43.9071945" lon="11.7906477"><ele>549.6</ele><time>2026-04-06T12:36:58.163Z</time></trkpt><trkpt lat="43.9071084" lon="11.7906427"><ele>547.2</ele><time>2026-04-06T12:36:59.156Z</time></trkpt><trkpt lat="43.9070218" lon="11.7905996"><ele>544.8</ele><time>2026-04-06T12:37:00.162Z</time></trkpt><trkpt lat="43.9069361" lon="11.790528"><ele>542.4</ele><time>2026-04-06T12:37:01.139Z</time></trkpt><trkpt lat="43.9068512" lon="11.7904259"><ele>540.0</ele><time>2026-04-06T12:37:02.153Z</time></trkpt><trkpt lat="43.9067657" lon="11.7903287"><ele>537.2</ele><time>2026-04-06T12:37:03.148Z</time></trkpt><trkpt lat="43.9066818" lon="11.7902467"><ele>534.4</ele><time>2026-04-06T12:37:04.139Z</time></trkpt><trkpt lat="43.9065742" lon="11.7901992"><ele>531.6</ele><time>2026-04-06T12:37:05.153Z</time></trkpt><trkpt lat="43.9064605" lon="11.7901728"><ele>528.8</ele><time>2026-04-06T12:37:06.145Z</time></trkpt><trkpt lat="43.9063579" lon="11.7901537"><ele>526.0</ele><time>2026-04-06T12:37:07.146Z</time></trkpt><trkpt lat="43.9062569" lon="11.7901371"><ele>527.8</ele><time>2026-04-06T12:37:08.159Z</time></trkpt><trkpt lat="43.9061593" lon="11.7901137"><ele>529.6</ele><time>2026-04-06T12:37:09.156Z</time></trkpt><trkpt lat="43.9060704" lon="11.7900992"><ele>531.4</ele><time>2026-04-06T12:37:10.155Z</time></trkpt><trkpt lat="43.9059868" lon="11.7900711"><ele>533.2</ele><time>2026-04-06T12:37:11.147Z</time></trkpt><trkpt lat="43.9059093" lon="11.7899909"><ele>535.0</ele><time>2026-04-06T12:37:12.16Z</time></trkpt><trkpt lat="43.9058534" lon="11.7898905"><ele>535.0</ele><time>2026-04-06T12:37:13.137Z</time></trkpt><trkpt lat="43.9058125" lon="11.7897562"><ele>535.0</ele><time>2026-04-06T12:37:14.153Z</time></trkpt><trkpt lat="43.9057743" lon="11.7895797"><ele>535.0</ele><time>2026-04-06T12:37:15.138Z</time></trkpt><trkpt lat="43.9057426" lon="11.789388"><ele>535.0</ele><time>2026-04-06T12:37:16.149Z</time></trkpt><trkpt lat="43.9057159" lon="11.7892054"><ele>541.0</ele><time>2026-04-06T12:37:17.154Z</time></trkpt><trkpt lat="43.9056817" lon="11.7890169"><ele>547.0</ele><time>2026-04-06T12:37:18.149Z</time></trkpt><trkpt lat="43.9056395" lon="11.7888161"><ele>553.0</ele><time>2026-04-06T12:37:19.136Z</time></trkpt><trkpt lat="43.9055879" lon="11.788629"><ele>559.0</ele><time>2026-04-06T12:37:20.142Z</time></trkpt><trkpt lat="43.9055273" lon="11.7884524"><ele>566.0</ele><time>2026-04-06T12:37:21.144Z</time></trkpt><trkpt lat="43.9054474" lon="11.7882791"><ele>573.0</ele><time>2026-04-06T12:37:22.152Z</time></trkpt><trkpt lat="43.9053431" lon="11.7881306"><ele>580.0</ele><time>2026-04-06T12:37:23.148Z</time></trkpt><trkpt lat="43.90521" lon="11.788002"><ele>563.6666666666667</ele><time>2026-04-06T12:37:24.134Z</time></trkpt><trkpt lat="43.9050634" lon="11.7879039"><ele>547.3333333333334</ele><time>2026-04-06T12:37:25.135Z</time></trkpt><trkpt lat="43.904918" lon="11.7878286"><ele>531.0</ele><time>2026-04-06T12:37:26.135Z</time></trkpt><trkpt lat="43.9047701" lon="11.7877744"><ele>531.0</ele><time>2026-04-06T12:37:27.168Z</time></trkpt><trkpt lat="43.9046284" lon="11.7877276"><ele>531.0</ele><time>2026-04-06T12:37:28.153Z</time></trkpt><trkpt lat="43.9044951" lon="11.7876721"><ele>531.0</ele><time>2026-04-06T12:37:29.147Z</time></trkpt><trkpt lat="43.9043744" lon="11.7876026"><ele>531.0</ele><time>2026-04-06T12:37:30.151Z</time></trkpt><trkpt lat="43.9042545" lon="11.7875245"><ele>532.0</ele><time>2026-04-06T12:37:31.15Z</time></trkpt><trkpt lat="43.9041448" lon="11.7874286"><ele>533.0</ele><time>2026-04-06T12:37:32.155Z</time></trkpt><trkpt lat="43.9040524" lon="11.7873217"><ele>534.0</ele><time>2026-04-06T12:37:33.154Z</time></trkpt><trkpt lat="43.9040122" lon="11.7871749"><ele>535.0</ele><time>2026-04-06T12:37:34.166Z</time></trkpt><trkpt lat="43.9040279" lon="11.7869982"><ele>535.25</ele><time>2026-04-06T12:37:35.147Z</time></trkpt><trkpt lat="43.9040895" lon="11.7868227"><ele>535.5</ele><time>2026-04-06T12:37:36.153Z</time></trkpt><trkpt lat="43.9041571" lon="11.786655"><ele>535.75</ele><time>2026-04-06T12:37:37.152Z</time></trkpt><trkpt lat="43.9042366" lon="11.7864965"><ele>536.0</ele><time>2026-04-06T12:37:38.144Z</time></trkpt><trkpt lat="43.9042989" lon="11.7863224"><ele>543.5</ele><time>2026-04-06T12:37:39.142Z</time></trkpt><trkpt lat="43.9043431" lon="11.7861478"><ele>551.0</ele><time>2026-04-06T12:37:40.154Z</time></trkpt><trkpt lat="43.9043833" lon="11.7859794"><ele>558.5</ele><time>2026-04-06T12:37:41.155Z</time></trkpt><trkpt lat="43.9044187" lon="11.7858009"><ele>566.0</ele><time>2026-04-06T12:37:42.144Z</time></trkpt><trkpt lat="43.9044469" lon="11.7856206"><ele>566.2</ele><time>2026-04-06T12:37:43.159Z</time></trkpt><trkpt lat="43.9044721" lon="11.7854468"><ele>566.4000000000001</ele><time>2026-04-06T12:37:44.143Z</time></trkpt><trkpt lat="43.9044914" lon="11.7852947"><ele>566.6</ele><time>2026-04-06T12:37:45.151Z</time></trkpt><trkpt lat="43.9044988" lon="11.7851589"><ele>566.8000000000001</ele><time>2026-04-06T12:37:46.151Z</time></trkpt><trkpt lat="43.9044938" lon="11.7850372"><ele>567.0</ele><time>2026-04-06T12:37:47.151Z</time></trkpt><trkpt lat="43.9044557" lon="11.7849455"><ele>566.6</ele><time>2026-04-06T12:37:48.154Z</time></trkpt><trkpt lat="43.9043811" lon="11.7848616"><ele>566.2</ele><time>2026-04-06T12:37:49.149Z</time></trkpt><trkpt lat="43.9042954" lon="11.7847858"><ele>565.8</ele><time>2026-04-06T12:37:50.156Z</time></trkpt><trkpt lat="43.9042029" lon="11.7847178"><ele>565.4</ele><time>2026-04-06T12:37:51.155Z</time></trkpt><trkpt lat="43.9041058" lon="11.7846574"><ele>565.0</ele><time>2026-04-06T12:37:52.159Z</time></trkpt><trkpt lat="43.9040058" lon="11.7845949"><ele>558.8</ele><time>2026-04-06T12:37:53.158Z</time></trkpt><trkpt lat="43.9039027" lon="11.7845435"><ele>552.6</ele><time>2026-04-06T12:37:54.152Z</time></trkpt><trkpt lat="43.903799" lon="11.7845059"><ele>546.4</ele><time>2026-04-06T12:37:55.146Z</time></trkpt><trkpt lat="43.9037003" lon="11.7844982"><ele>540.2</ele><time>2026-04-06T12:37:56.152Z</time></trkpt><trkpt lat="43.9035946" lon="11.7845188"><ele>534.0</ele><time>2026-04-06T12:37:57.153Z</time></trkpt><trkpt lat="43.9034885" lon="11.7845831"><ele>534.2</ele><time>2026-04-06T12:37:58.157Z</time></trkpt><trkpt lat="43.9033803" lon="11.7846493"><ele>534.4</ele><time>2026-04-06T12:37:59.163Z</time></trkpt><trkpt lat="43.9032738" lon="11.7847095"><ele>534.6</ele><time>2026-04-06T12:38:00.15Z</time></trkpt><trkpt lat="43.9031741" lon="11.7847434"><ele>534.8</ele><time>2026-04-06T12:38:01.157Z</time></trkpt><trkpt lat="43.9030777" lon="11.7847449"><ele>535.0</ele><time>2026-04-06T12:38:02.15Z</time></trkpt><trkpt lat="43.9029763" lon="11.7846829"><ele>535.0</ele><time>2026-04-06T12:38:03.157Z</time></trkpt><trkpt lat="43.9028749" lon="11.7845788"><ele>535.0</ele><time>2026-04-06T12:38:04.145Z</time></trkpt><trkpt lat="43.9027527" lon="11.7844716"><ele>535.0</ele><time>2026-04-06T12:38:05.156Z</time></trkpt><trkpt lat="43.9026447" lon="11.784386"><ele>535.0</ele><time>2026-04-06T12:38:06.146Z</time></trkpt><trkpt lat="43.9025525" lon="11.7843057"><ele>541.0</ele><time>2026-04-06T12:38:07.155Z</time></trkpt><trkpt lat="43.9024377" lon="11.7842761"><ele>547.0</ele><time>2026-04-06T12:38:08.151Z</time></trkpt><trkpt lat="43.9023258" lon="11.7842989"><ele>553.0</ele><time>2026-04-06T12:38:09.148Z</time></trkpt><trkpt lat="43.9022283" lon="11.7843281"><ele>559.0</ele><time>2026-04-06T12:38:10.163Z</time></trkpt><trkpt lat="43.9021368" lon="11.7843177"><ele>565.0</ele><time>2026-04-06T12:38:11.155Z</time></trkpt><trkpt lat="43.902048" lon="11.7842722"><ele>565.0</ele><time>2026-04-06T12:38:12.17Z</time></trkpt><trkpt lat="43.9019605" lon="11.7841807"><ele>565.0</ele><time>2026-04-06T12:38:13.155Z</time></trkpt><trkpt lat="43.9018968" lon="11.784041"><ele>565.0</ele><time>2026-04-06T12:38:14.152Z</time></trkpt><trkpt lat="43.901837" lon="11.7838583"><ele>565.0</ele><time>2026-04-06T12:38:15.149Z</time></trkpt><trkpt lat="43.9017563" lon="11.7836554"><ele>565.0</ele><time>2026-04-06T12:38:16.145Z</time></trkpt><trkpt lat="43.9016766" lon="11.7834332"><ele>565.0</ele><time>2026-04-06T12:38:17.149Z</time></trkpt><trkpt lat="43.9016021" lon="11.7832226"><ele>565.0</ele><time>2026-04-06T12:38:18.154Z</time></trkpt><trkpt lat="43.9015281" lon="11.7830208"><ele>565.0</ele><time>2026-04-06T12:38:19.149Z</time></trkpt><trkpt lat="43.9014592" lon="11.7828292"><ele>565.0</ele><time>2026-04-06T12:38:20.15Z</time></trkpt><trkpt lat="43.9013947" lon="11.7826632"><ele>565.0</ele><time>2026-04-06T12:38:21.153Z</time></trkpt><trkpt lat="43.9013301" lon="11.7825145"><ele>565.0</ele><time>2026-04-06T12:38:22.134Z</time></trkpt><trkpt lat="43.9012452" lon="11.7824074"><ele>564.4</ele><time>2026-04-06T12:38:23.157Z</time></trkpt><trkpt lat="43.9011359" lon="11.7823577"><ele>563.8</ele><time>2026-04-06T12:38:24.164Z</time></trkpt><trkpt lat="43.9010402" lon="11.7823211"><ele>563.2</ele><time>2026-04-06T12:38:25.151Z</time></trkpt><trkpt lat="43.9009449" lon="11.7822702"><ele>562.6</ele><time>2026-04-06T12:38:26.154Z</time></trkpt><trkpt lat="43.9008611" lon="11.7821766"><ele>562.0</ele><time>2026-04-06T12:38:27.154Z</time></trkpt><trkpt lat="43.9008044" lon="11.7820399"><ele>562.0</ele><time>2026-04-06T12:38:28.147Z</time></trkpt><trkpt lat="43.9007847" lon="11.7818657"><ele>562.0</ele><time>2026-04-06T12:38:29.151Z</time></trkpt><trkpt lat="43.9007471" lon="11.7815445"><ele>562.0</ele><time>2026-04-06T12:38:31.164Z</time></trkpt><trkpt lat="43.9006919" lon="11.7814174"><ele>566.25</ele><time>2026-04-06T12:38:32.154Z</time></trkpt><trkpt lat="43.9005873" lon="11.78131"><ele>570.5</ele><time>2026-04-06T12:38:33.154Z</time></trkpt><trkpt lat="43.9004603" lon="11.7812984"><ele>574.75</ele><time>2026-04-06T12:38:34.157Z</time></trkpt><trkpt lat="43.9003307" lon="11.7812876"><ele>579.0</ele><time>2026-04-06T12:38:35.15Z</time></trkpt><trkpt lat="43.9002086" lon="11.7812846"><ele>579.0</ele><time>2026-04-06T12:38:36.149Z</time></trkpt><trkpt lat="43.9000897" lon="11.7812859"><ele>579.0</ele><time>2026-04-06T12:38:37.156Z</time></trkpt><trkpt lat="43.899991" lon="11.7812839"><ele>579.0</ele><time>2026-04-06T12:38:38.14Z</time></trkpt><trkpt lat="43.8998822" lon="11.7812447"><ele>579.0</ele><time>2026-04-06T12:38:39.143Z</time></trkpt><trkpt lat="43.8997838" lon="11.7811615"><ele>579.0</ele><time>2026-04-06T12:38:40.148Z</time></trkpt><trkpt lat="43.899683" lon="11.78107"><ele>583.0</ele><time>2026-04-06T12:38:41.149Z</time></trkpt><trkpt lat="43.8995874" lon="11.7809954"><ele>587.0</ele><time>2026-04-06T12:38:42.151Z</time></trkpt><trkpt lat="43.8994975" lon="11.7809269"><ele>591.0</ele><time>2026-04-06T12:38:43.143Z</time></trkpt><trkpt lat="43.8994138" lon="11.7808536"><ele>595.0</ele><time>2026-04-06T12:38:44.15Z</time></trkpt><trkpt lat="43.8993533" lon="11.7807524"><ele>599.0</ele><time>2026-04-06T12:38:45.155Z</time></trkpt><trkpt lat="43.8993419" lon="11.7805879"><ele>599.0</ele><time>2026-04-06T12:38:46.152Z</time></trkpt><trkpt lat="43.8993437" lon="11.7803924"><ele>599.0</ele><time>2026-04-06T12:38:47.172Z</time></trkpt><trkpt lat="43.8993387" lon="11.7801796"><ele>599.0</ele><time>2026-04-06T12:38:48.15Z</time></trkpt><trkpt lat="43.8993302" lon="11.7799789"><ele>599.0</ele><time>2026-04-06T12:38:49.153Z</time></trkpt><trkpt lat="43.8993082" lon="11.7798038"><ele>596.5</ele><time>2026-04-06T12:38:50.155Z</time></trkpt><trkpt lat="43.8992696" lon="11.7796349"><ele>594.0</ele><time>2026-04-06T12:38:51.152Z</time></trkpt><trkpt lat="43.8991745" lon="11.7795091"><ele>591.5</ele><time>2026-04-06T12:38:52.157Z</time></trkpt><trkpt lat="43.8990429" lon="11.7794214"><ele>589.0</ele><time>2026-04-06T12:38:53.135Z</time></trkpt><trkpt lat="43.8989027" lon="11.779344"><ele>602.6666666666667</ele><time>2026-04-06T12:38:54.168Z</time></trkpt><trkpt lat="43.8987589" lon="11.7792721"><ele>616.3333333333334</ele><time>2026-04-06T12:38:55.148Z</time></trkpt><trkpt lat="43.8986085" lon="11.7791985"><ele>630.0</ele><time>2026-04-06T12:38:56.154Z</time></trkpt><trkpt lat="43.8984707" lon="11.7791257"><ele>620.75</ele><time>2026-04-06T12:38:57.156Z</time></trkpt><trkpt lat="43.8983408" lon="11.7790542"><ele>611.5</ele><time>2026-04-06T12:38:58.152Z</time></trkpt><trkpt lat="43.8982267" lon="11.7789882"><ele>602.25</ele><time>2026-04-06T12:38:59.154Z</time></trkpt><trkpt lat="43.8981352" lon="11.7789056"><ele>593.0</ele><time>2026-04-06T12:39:00.16Z</time></trkpt><trkpt lat="43.8980714" lon="11.7787977"><ele>593.0</ele><time>2026-04-06T12:39:01.152Z</time></trkpt><trkpt lat="43.8980243" lon="11.778649"><ele>593.0</ele><time>2026-04-06T12:39:02.16Z</time></trkpt><trkpt lat="43.8979892" lon="11.7784936"><ele>593.0</ele><time>2026-04-06T12:39:03.139Z</time></trkpt><trkpt lat="43.8979554" lon="11.7783307"><ele>593.0</ele><time>2026-04-06T12:39:04.15Z</time></trkpt><trkpt lat="43.8979028" lon="11.7781687"><ele>603.5</ele><time>2026-04-06T12:39:05.152Z</time></trkpt><trkpt lat="43.8978252" lon="11.7780163"><ele>614.0</ele><time>2026-04-06T12:39:06.174Z</time></trkpt><trkpt lat="43.8977185" lon="11.777883"><ele>624.5</ele><time>2026-04-06T12:39:07.136Z</time></trkpt><trkpt lat="43.897612" lon="11.7777719"><ele>635.0</ele><time>2026-04-06T12:39:08.159Z</time></trkpt><trkpt lat="43.8974797" lon="11.7776825"><ele>636.75</ele><time>2026-04-06T12:39:09.154Z</time></trkpt><trkpt lat="43.8973334" lon="11.7776401"><ele>638.5</ele><time>2026-04-06T12:39:10.133Z</time></trkpt><trkpt lat="43.8971866" lon="11.7776558"><ele>640.25</ele><time>2026-04-06T12:39:11.144Z</time></trkpt><trkpt lat="43.8970597" lon="11.7776765"><ele>642.0</ele><time>2026-04-06T12:39:12.152Z</time></trkpt><trkpt lat="43.8969566" lon="11.7776722"><ele>642.0</ele><time>2026-04-06T12:39:13.145Z</time></trkpt><trkpt lat="43.8968901" lon="11.7776361"><ele>642.0</ele><time>2026-04-06T12:39:14.159Z</time></trkpt><trkpt lat="43.8968387" lon="11.7774972"><ele>642.0</ele><time>2026-04-06T12:39:16.135Z</time></trkpt><trkpt lat="43.8968837" lon="11.7773981"><ele>642.0</ele><time>2026-04-06T12:39:17.137Z</time></trkpt><trkpt lat="43.8969537" lon="11.7773458"><ele>642.0</ele><time>2026-04-06T12:39:18.143Z</time></trkpt><trkpt lat="43.8970347" lon="11.7773446"><ele>642.0</ele><time>2026-04-06T12:39:19.158Z</time></trkpt><trkpt lat="43.8971147" lon="11.7774225"><ele>642.0</ele><time>2026-04-06T12:39:20.15Z</time></trkpt><trkpt lat="43.8972185" lon="11.7775102"><ele>642.0</ele><time>2026-04-06T12:39:21.158Z</time></trkpt><trkpt lat="43.8973457" lon="11.7775591"><ele>642.0</ele><time>2026-04-06T12:39:22.148Z</time></trkpt><trkpt lat="43.8974796" lon="11.777588"><ele>642.0</ele><time>2026-04-06T12:39:23.138Z</time></trkpt><trkpt lat="43.8976128" lon="11.7776293"><ele>640.25</ele><time>2026-04-06T12:39:24.136Z</time></trkpt><trkpt lat="43.8977321" lon="11.7777304"><ele>638.5</ele><time>2026-04-06T12:39:25.156Z</time></trkpt><trkpt lat="43.8978311" lon="11.7778768"><ele>636.75</ele><time>2026-04-06T12:39:26.133Z</time></trkpt><trkpt lat="43.8979278" lon="11.778049"><ele>635.0</ele><time>2026-04-06T12:39:27.157Z</time></trkpt><trkpt lat="43.8980244" lon="11.7782194"><ele>635.0</ele><time>2026-04-06T12:39:28.149Z</time></trkpt><trkpt lat="43.898107" lon="11.7783831"><ele>635.0</ele><time>2026-04-06T12:39:29.14Z</time></trkpt><trkpt lat="43.898185" lon="11.7785206"><ele>635.0</ele><time>2026-04-06T12:39:30.153Z</time></trkpt><trkpt lat="43.8982783" lon="11.778628"><ele>635.0</ele><time>2026-04-06T12:39:31.158Z</time></trkpt><trkpt lat="43.8983852" lon="11.7786718"><ele>633.75</ele><time>2026-04-06T12:39:32.142Z</time></trkpt><trkpt lat="43.8985088" lon="11.7786464"><ele>632.5</ele><time>2026-04-06T12:39:33.159Z</time></trkpt><trkpt lat="43.8986174" lon="11.7785918"><ele>631.25</ele><time>2026-04-06T12:39:34.148Z</time></trkpt><trkpt lat="43.8987162" lon="11.7785282"><ele>630.0</ele><time>2026-04-06T12:39:35.15Z</time></trkpt><trkpt lat="43.8988192" lon="11.7784955"><ele>630.0</ele><time>2026-04-06T12:39:36.156Z</time></trkpt><trkpt lat="43.8989228" lon="11.7785414"><ele>630.0</ele><time>2026-04-06T12:39:37.162Z</time></trkpt><trkpt lat="43.8990149" lon="11.7786942"><ele>630.0</ele><time>2026-04-06T12:39:38.141Z</time></trkpt><trkpt lat="43.899101" lon="11.7788391"><ele>630.0</ele><time>2026-04-06T12:39:39.163Z</time></trkpt><trkpt lat="43.8992071" lon="11.7789341"><ele>638.0</ele><time>2026-04-06T12:39:40.162Z</time></trkpt><trkpt lat="43.8993458" lon="11.778948"><ele>646.0</ele><time>2026-04-06T12:39:41.149Z</time></trkpt><trkpt lat="43.8994863" lon="11.7789474"><ele>654.0</ele><time>2026-04-06T12:39:42.145Z</time></trkpt><trkpt lat="43.8996143" lon="11.778981"><ele>662.0</ele><time>2026-04-06T12:39:43.152Z</time></trkpt><trkpt lat="43.8997338" lon="11.7790902"><ele>662.0</ele><time>2026-04-06T12:39:44.157Z</time></trkpt><trkpt lat="43.8998348" lon="11.7792439"><ele>662.0</ele><time>2026-04-06T12:39:45.164Z</time></trkpt><trkpt lat="43.8999309" lon="11.7794127"><ele>662.0</ele><time>2026-04-06T12:39:46.136Z</time></trkpt><trkpt lat="43.9000218" lon="11.7796002"><ele>655.75</ele><time>2026-04-06T12:39:47.144Z</time></trkpt><trkpt lat="43.9000994" lon="11.779762"><ele>649.5</ele><time>2026-04-06T12:39:48.156Z</time></trkpt><trkpt lat="43.900186" lon="11.7798988"><ele>643.25</ele><time>2026-04-06T12:39:49.157Z</time></trkpt><trkpt lat="43.9002785" lon="11.7799668"><ele>637.0</ele><time>2026-04-06T12:39:50.163Z</time></trkpt><trkpt lat="43.9004042" lon="11.7799484"><ele>637.0</ele><time>2026-04-06T12:39:51.154Z</time></trkpt><trkpt lat="43.9005408" lon="11.7798794"><ele>637.0</ele><time>2026-04-06T12:39:52.153Z</time></trkpt><trkpt lat="43.9006949" lon="11.7797807"><ele>637.0</ele><time>2026-04-06T12:39:53.139Z</time></trkpt><trkpt lat="43.9008577" lon="11.7796621"><ele>642.3333333333334</ele><time>2026-04-06T12:39:54.153Z</time></trkpt><trkpt lat="43.9010234" lon="11.7795449"><ele>647.6666666666666</ele><time>2026-04-06T12:39:55.143Z</time></trkpt><trkpt lat="43.9011777" lon="11.7794381"><ele>653.0</ele><time>2026-04-06T12:39:56.156Z</time></trkpt><trkpt lat="43.9013018" lon="11.7793396"><ele>657.2</ele><time>2026-04-06T12:39:57.155Z</time></trkpt><trkpt lat="43.9014086" lon="11.7792614"><ele>661.4</ele><time>2026-04-06T12:39:58.152Z</time></trkpt><trkpt lat="43.901496" lon="11.7792012"><ele>665.6</ele><time>2026-04-06T12:39:59.151Z</time></trkpt><trkpt lat="43.9015863" lon="11.7791836"><ele>669.8000000000001</ele><time>2026-04-06T12:40:00.157Z</time></trkpt><trkpt lat="43.9016876" lon="11.7792101"><ele>674.0</ele><time>2026-04-06T12:40:01.146Z</time></trkpt><trkpt lat="43.9017815" lon="11.7793489"><ele>679.6666666666666</ele><time>2026-04-06T12:40:02.165Z</time></trkpt><trkpt lat="43.901824" lon="11.7795805"><ele>685.3333333333334</ele><time>2026-04-06T12:40:03.15Z</time></trkpt><trkpt lat="43.9018647" lon="11.779804"><ele>691.0</ele><time>2026-04-06T12:40:04.158Z</time></trkpt><trkpt lat="43.9019198" lon="11.7800467"><ele>684.3333333333334</ele><time>2026-04-06T12:40:05.136Z</time></trkpt><trkpt lat="43.9019772" lon="11.7803019"><ele>677.6666666666666</ele><time>2026-04-06T12:40:06.144Z</time></trkpt><trkpt lat="43.902018" lon="11.7805153"><ele>671.0</ele><time>2026-04-06T12:40:07.151Z</time></trkpt><trkpt lat="43.9020506" lon="11.7806746"><ele>671.0</ele><time>2026-04-06T12:40:08.157Z</time></trkpt><trkpt lat="43.9020873" lon="11.7807975"><ele>671.0</ele><time>2026-04-06T12:40:09.166Z</time></trkpt><trkpt lat="43.9021397" lon="11.7808876"><ele>671.0</ele><time>2026-04-06T12:40:10.163Z</time></trkpt><trkpt lat="43.9022204" lon="11.7809433"><ele>671.0</ele><time>2026-04-06T12:40:11.158Z</time></trkpt><trkpt lat="43.9022963" lon="11.7808997"><ele>671.0</ele><time>2026-04-06T12:40:12.155Z</time></trkpt><trkpt lat="43.9023599" lon="11.7808189"><ele>671.0</ele><time>2026-04-06T12:40:13.154Z</time></trkpt><trkpt lat="43.9023591" lon="11.7806953"><ele>671.0</ele><time>2026-04-06T12:40:14.15Z</time></trkpt><trkpt lat="43.9023083" lon="11.7805712"><ele>671.0</ele><time>2026-04-06T12:40:15.149Z</time></trkpt><trkpt lat="43.9022297" lon="11.7804097"><ele>671.0</ele><time>2026-04-06T12:40:16.154Z</time></trkpt><trkpt lat="43.9021381" lon="11.7802387"><ele>671.0</ele><time>2026-04-06T12:40:17.171Z</time></trkpt><trkpt lat="43.9020545" lon="11.780069"><ele>676.0</ele><time>2026-04-06T12:40:18.154Z</time></trkpt><trkpt lat="43.9019995" lon="11.779881"><ele>681.0</ele><time>2026-04-06T12:40:19.159Z</time></trkpt><trkpt lat="43.9019517" lon="11.7796827"><ele>686.0</ele><time>2026-04-06T12:40:20.163Z</time></trkpt><trkpt lat="43.901917" lon="11.779495"><ele>691.0</ele><time>2026-04-06T12:40:21.16Z</time></trkpt><trkpt lat="43.9018916" lon="11.7793194"><ele>686.75</ele><time>2026-04-06T12:40:22.155Z</time></trkpt><trkpt lat="43.9018498" lon="11.7791672"><ele>682.5</ele><time>2026-04-06T12:40:23.152Z</time></trkpt><trkpt lat="43.9017944" lon="11.7790237"><ele>678.25</ele><time>2026-04-06T12:40:24.167Z</time></trkpt><trkpt lat="43.9016847" lon="11.7789211"><ele>674.0</ele><time>2026-04-06T12:40:25.154Z</time></trkpt><trkpt lat="43.9015464" lon="11.7788985"><ele>674.0</ele><time>2026-04-06T12:40:26.155Z</time></trkpt><trkpt lat="43.9014016" lon="11.7789107"><ele>674.0</ele><time>2026-04-06T12:40:27.154Z</time></trkpt><trkpt lat="43.9012397" lon="11.7789556"><ele>674.0</ele><time>2026-04-06T12:40:28.16Z</time></trkpt><trkpt lat="43.9010722" lon="11.7790262"><ele>673.3333333333333</ele><time>2026-04-06T12:40:29.163Z</time></trkpt><trkpt lat="43.9009117" lon="11.7790916"><ele>672.6666666666666</ele><time>2026-04-06T12:40:30.152Z</time></trkpt><trkpt lat="43.9007632" lon="11.7791548"><ele>672.0</ele><time>2026-04-06T12:40:31.148Z</time></trkpt><trkpt lat="43.9006347" lon="11.7791982"><ele>672.0</ele><time>2026-04-06T12:40:32.149Z</time></trkpt><trkpt lat="43.9005179" lon="11.7792392"><ele>672.0</ele><time>2026-04-06T12:40:33.162Z</time></trkpt><trkpt lat="43.9004107" lon="11.7792355"><ele>672.0</ele><time>2026-04-06T12:40:34.165Z</time></trkpt><trkpt lat="43.9003205" lon="11.7791345"><ele>672.0</ele><time>2026-04-06T12:40:35.155Z</time></trkpt><trkpt lat="43.9002374" lon="11.7789809"><ele>672.0</ele><time>2026-04-06T12:40:36.162Z</time></trkpt><trkpt lat="43.90016" lon="11.7788231"><ele>672.0</ele><time>2026-04-06T12:40:37.149Z</time></trkpt><trkpt lat="43.9000902" lon="11.7786794"><ele>672.0</ele><time>2026-04-06T12:40:38.145Z</time></trkpt><trkpt lat="43.9000007" lon="11.7785309"><ele>672.0</ele><time>2026-04-06T12:40:39.159Z</time></trkpt><trkpt lat="43.8998984" lon="11.7784202"><ele>679.5</ele><time>2026-04-06T12:40:40.154Z</time></trkpt><trkpt lat="43.8997872" lon="11.7783222"><ele>687.0</ele><time>2026-04-06T12:40:41.164Z</time></trkpt><trkpt lat="43.8996976" lon="11.7782014"><ele>694.5</ele><time>2026-04-06T12:40:42.155Z</time></trkpt><trkpt lat="43.8996262" lon="11.7780372"><ele>702.0</ele><time>2026-04-06T12:40:43.161Z</time></trkpt><trkpt lat="43.8995683" lon="11.7778825"><ele>702.0</ele><time>2026-04-06T12:40:44.139Z</time></trkpt><trkpt lat="43.8995147" lon="11.7777409"><ele>702.0</ele><time>2026-04-06T12:40:45.15Z</time></trkpt><trkpt lat="43.8994412" lon="11.7776711"><ele>702.0</ele><time>2026-04-06T12:40:46.155Z</time></trkpt><trkpt lat="43.8993583" lon="11.7776134"><ele>702.0</ele><time>2026-04-06T12:40:47.166Z</time></trkpt><trkpt lat="43.8992576" lon="11.7775561"><ele>702.0</ele><time>2026-04-06T12:40:48.16Z</time></trkpt><trkpt lat="43.899146" lon="11.7774987"><ele>704.5</ele><time>2026-04-06T12:40:49.165Z</time></trkpt><trkpt lat="43.8990438" lon="11.7774116"><ele>707.0</ele><time>2026-04-06T12:40:50.158Z</time></trkpt><trkpt lat="43.8989545" lon="11.7772947"><ele>709.5</ele><time>2026-04-06T12:40:51.156Z</time></trkpt><trkpt lat="43.8988826" lon="11.777144"><ele>712.0</ele><time>2026-04-06T12:40:52.159Z</time></trkpt><trkpt lat="43.8987781" lon="11.7769863"><ele>713.3333333333334</ele><time>2026-04-06T12:40:53.175Z</time></trkpt><trkpt lat="43.8986438" lon="11.7768322"><ele>714.6666666666666</ele><time>2026-04-06T12:40:54.162Z</time></trkpt><trkpt lat="43.8984983" lon="11.7766818"><ele>716.0</ele><time>2026-04-06T12:40:55.147Z</time></trkpt><trkpt lat="43.8983521" lon="11.7765335"><ele>716.0</ele><time>2026-04-06T12:40:56.157Z</time></trkpt><trkpt lat="43.8982067" lon="11.7763818"><ele>716.0</ele><time>2026-04-06T12:40:57.163Z</time></trkpt><trkpt lat="43.8980612" lon="11.7762368"><ele>716.0</ele><time>2026-04-06T12:40:58.157Z</time></trkpt><trkpt lat="43.8979291" lon="11.7760995"><ele>718.0</ele><time>2026-04-06T12:40:59.15Z</time></trkpt><trkpt lat="43.8978003" lon="11.7759833"><ele>720.0</ele><time>2026-04-06T12:41:00.157Z</time></trkpt><trkpt lat="43.8976591" lon="11.7758933"><ele>722.0</ele><time>2026-04-06T12:41:01.154Z</time></trkpt><trkpt lat="43.8975029" lon="11.7758367"><ele>722.0</ele><time>2026-04-06T12:41:02.157Z</time></trkpt><trkpt lat="43.8973507" lon="11.7758055"><ele>722.0</ele><time>2026-04-06T12:41:03.147Z</time></trkpt><trkpt lat="43.8972112" lon="11.7757983"><ele>722.0</ele><time>2026-04-06T12:41:04.152Z</time></trkpt><trkpt lat="43.897094" lon="11.7757457"><ele>722.0</ele><time>2026-04-06T12:41:05.153Z</time></trkpt><trkpt lat="43.8970073" lon="11.7756381"><ele>722.0</ele><time>2026-04-06T12:41:06.154Z</time></trkpt><trkpt lat="43.8969619" lon="11.7754813"><ele>722.0</ele><time>2026-04-06T12:41:07.152Z</time></trkpt><trkpt lat="43.8969348" lon="11.7753115"><ele>722.0</ele><time>2026-04-06T12:41:08.155Z</time></trkpt><trkpt lat="43.8968793" lon="11.7751637"><ele>722.0</ele><time>2026-04-06T12:41:09.149Z</time></trkpt><trkpt lat="43.8967726" lon="11.7750271"><ele>725.25</ele><time>2026-04-06T12:41:10.148Z</time></trkpt><trkpt lat="43.896646" lon="11.7749062"><ele>728.5</ele><time>2026-04-06T12:41:11.15Z</time></trkpt><trkpt lat="43.8965198" lon="11.7748047"><ele>731.75</ele><time>2026-04-06T12:41:12.154Z</time></trkpt><trkpt lat="43.8963927" lon="11.7747328"><ele>735.0</ele><time>2026-04-06T12:41:13.152Z</time></trkpt><trkpt lat="43.896263" lon="11.774712"><ele>735.0</ele><time>2026-04-06T12:41:14.161Z</time></trkpt><trkpt lat="43.8961307" lon="11.7747358"><ele>735.0</ele><time>2026-04-06T12:41:15.155Z</time></trkpt><trkpt lat="43.8960065" lon="11.7748349"><ele>735.0</ele><time>2026-04-06T12:41:16.158Z</time></trkpt><trkpt lat="43.8958863" lon="11.7750253"><ele>726.0</ele><time>2026-04-06T12:41:17.163Z</time></trkpt><trkpt lat="43.8957672" lon="11.7751884"><ele>717.0</ele><time>2026-04-06T12:41:18.152Z</time></trkpt><trkpt lat="43.8956484" lon="11.7753588"><ele>708.0</ele><time>2026-04-06T12:41:19.151Z</time></trkpt><trkpt lat="43.8955514" lon="11.7755059"><ele>708.0</ele><time>2026-04-06T12:41:20.146Z</time></trkpt><trkpt lat="43.8954645" lon="11.7756208"><ele>708.0</ele><time>2026-04-06T12:41:21.157Z</time></trkpt><trkpt lat="43.8953935" lon="11.7757156"><ele>708.0</ele><time>2026-04-06T12:41:22.148Z</time></trkpt><trkpt lat="43.8953205" lon="11.7757362"><ele>708.0</ele><time>2026-04-06T12:41:23.16Z</time></trkpt><trkpt lat="43.8952497" lon="11.7756592"><ele>708.0</ele><time>2026-04-06T12:41:24.153Z</time></trkpt><trkpt lat="43.8951908" lon="11.7755338"><ele>708.0</ele><time>2026-04-06T12:41:25.155Z</time></trkpt><trkpt lat="43.8951496" lon="11.7753556"><ele>708.0</ele><time>2026-04-06T12:41:26.171Z</time></trkpt><trkpt lat="43.8951154" lon="11.7751736"><ele>708.0</ele><time>2026-04-06T12:41:27.157Z</time></trkpt><trkpt lat="43.8950798" lon="11.7749771"><ele>708.0</ele><time>2026-04-06T12:41:28.148Z</time></trkpt><trkpt lat="43.8950555" lon="11.7747877"><ele>714.0</ele><time>2026-04-06T12:41:29.155Z</time></trkpt><trkpt lat="43.8950411" lon="11.7745825"><ele>720.0</ele><time>2026-04-06T12:41:30.158Z</time></trkpt><trkpt lat="43.8950412" lon="11.7743977"><ele>726.0</ele><time>2026-04-06T12:41:31.156Z</time></trkpt><trkpt lat="43.8950405" lon="11.7742388"><ele>732.0</ele><time>2026-04-06T12:41:32.142Z</time></trkpt><trkpt lat="43.895009" lon="11.7740974"><ele>737.75</ele><time>2026-04-06T12:41:33.15Z</time></trkpt><trkpt lat="43.8949343" lon="11.7739932"><ele>743.5</ele><time>2026-04-06T12:41:34.154Z</time></trkpt><trkpt lat="43.8948206" lon="11.7739342"><ele>749.25</ele><time>2026-04-06T12:41:35.148Z</time></trkpt><trkpt lat="43.8947124" lon="11.7738931"><ele>755.0</ele><time>2026-04-06T12:41:36.16Z</time></trkpt><trkpt lat="43.8946023" lon="11.7738617"><ele>755.0</ele><time>2026-04-06T12:41:37.165Z</time></trkpt><trkpt lat="43.8945171" lon="11.7737773"><ele>755.0</ele><time>2026-04-06T12:41:38.153Z</time></trkpt><trkpt lat="43.8944555" lon="11.7736353"><ele>755.0</ele><time>2026-04-06T12:41:39.154Z</time></trkpt><trkpt lat="43.8944242" lon="11.7734619"><ele>755.0</ele><time>2026-04-06T12:41:40.148Z</time></trkpt><trkpt lat="43.8944053" lon="11.7732887"><ele>758.4</ele><time>2026-04-06T12:41:41.156Z</time></trkpt><trkpt lat="43.8944005" lon="11.7731115"><ele>761.8</ele><time>2026-04-06T12:41:42.156Z</time></trkpt><trkpt lat="43.8943883" lon="11.7729576"><ele>765.2</ele><time>2026-04-06T12:41:43.144Z</time></trkpt><trkpt lat="43.894369" lon="11.7728398"><ele>768.6</ele><time>2026-04-06T12:41:44.161Z</time></trkpt><trkpt lat="43.8943338" lon="11.7727335"><ele>772.0</ele><time>2026-04-06T12:41:45.152Z</time></trkpt><trkpt lat="43.8942519" lon="11.7726599"><ele>772.0</ele><time>2026-04-06T12:41:46.152Z</time></trkpt><trkpt lat="43.8941572" lon="11.7726465"><ele>772.0</ele><time>2026-04-06T12:41:47.15Z</time></trkpt><trkpt lat="43.8940689" lon="11.7727017"><ele>772.0</ele><time>2026-04-06T12:41:48.147Z</time></trkpt><trkpt lat="43.8940063" lon="11.7728037"><ele>772.0</ele><time>2026-04-06T12:41:49.141Z</time></trkpt><trkpt lat="43.8939466" lon="11.7729486"><ele>772.0</ele><time>2026-04-06T12:41:50.151Z</time></trkpt><trkpt lat="43.893871" lon="11.7730992"><ele>767.25</ele><time>2026-04-06T12:41:51.133Z</time></trkpt><trkpt lat="43.8937771" lon="11.7732454"><ele>762.5</ele><time>2026-04-06T12:41:52.15Z</time></trkpt><trkpt lat="43.8936603" lon="11.7733984"><ele>757.75</ele><time>2026-04-06T12:41:53.157Z</time></trkpt><trkpt lat="43.8935631" lon="11.7735302"><ele>753.0</ele><time>2026-04-06T12:41:54.146Z</time></trkpt><trkpt lat="43.8935018" lon="11.77367"><ele>748.25</ele><time>2026-04-06T12:41:55.157Z</time></trkpt><trkpt lat="43.8934937" lon="11.7738312"><ele>743.5</ele><time>2026-04-06T12:41:56.162Z</time></trkpt><trkpt lat="43.8935371" lon="11.774"><ele>738.75</ele><time>2026-04-06T12:41:57.16Z</time></trkpt><trkpt lat="43.8935461" lon="11.7741623"><ele>734.0</ele><time>2026-04-06T12:41:58.151Z</time></trkpt><trkpt lat="43.8935395" lon="11.7743406"><ele>729.5</ele><time>2026-04-06T12:41:59.137Z</time></trkpt><trkpt lat="43.8935078" lon="11.774518"><ele>725.0</ele><time>2026-04-06T12:42:00.149Z</time></trkpt><trkpt lat="43.8934645" lon="11.7746957"><ele>720.5</ele><time>2026-04-06T12:42:01.145Z</time></trkpt><trkpt lat="43.8934334" lon="11.7748696"><ele>716.0</ele><time>2026-04-06T12:42:02.17Z</time></trkpt><trkpt lat="43.8934052" lon="11.7750287"><ele>723.1999999999999</ele><time>2026-04-06T12:42:03.16Z</time></trkpt><trkpt lat="43.8933722" lon="11.7751929"><ele>730.4</ele><time>2026-04-06T12:42:04.152Z</time></trkpt><trkpt lat="43.8933384" lon="11.775341"><ele>737.6</ele><time>2026-04-06T12:42:05.146Z</time></trkpt><trkpt lat="43.8933067" lon="11.7754604"><ele>744.8</ele><time>2026-04-06T12:42:06.155Z</time></trkpt><trkpt lat="43.8932733" lon="11.7755528"><ele>752.0</ele><time>2026-04-06T12:42:07.164Z</time></trkpt><trkpt lat="43.8932142" lon="11.7756023"><ele>752.0</ele><time>2026-04-06T12:42:08.164Z</time></trkpt><trkpt lat="43.8931209" lon="11.7755979"><ele>752.0</ele><time>2026-04-06T12:42:09.167Z</time></trkpt><trkpt lat="43.8930206" lon="11.7755126"><ele>752.0</ele><time>2026-04-06T12:42:10.158Z</time></trkpt><trkpt lat="43.8929409" lon="11.7753996"><ele>752.0</ele><time>2026-04-06T12:42:11.156Z</time></trkpt><trkpt lat="43.8928939" lon="11.7752504"><ele>752.0</ele><time>2026-04-06T12:42:12.158Z</time></trkpt><trkpt lat="43.8928629" lon="11.775082"><ele>756.5</ele><time>2026-04-06T12:42:13.152Z</time></trkpt><trkpt lat="43.8928212" lon="11.774921"><ele>761.0</ele><time>2026-04-06T12:42:14.169Z</time></trkpt><trkpt lat="43.8927506" lon="11.7747682"><ele>765.5</ele><time>2026-04-06T12:42:15.162Z</time></trkpt><trkpt lat="43.8926338" lon="11.7746522"><ele>770.0</ele><time>2026-04-06T12:42:16.156Z</time></trkpt><trkpt lat="43.8925089" lon="11.7745555"><ele>770.0</ele><time>2026-04-06T12:42:17.151Z</time></trkpt><trkpt lat="43.8923933" lon="11.7744665"><ele>770.0</ele><time>2026-04-06T12:42:18.155Z</time></trkpt><trkpt lat="43.8923091" lon="11.7744102"><ele>770.0</ele><time>2026-04-06T12:42:19.164Z</time></trkpt><trkpt lat="43.8922365" lon="11.7743805"><ele>770.0</ele><time>2026-04-06T12:42:21.164Z</time></trkpt><trkpt lat="43.8921719" lon="11.7743902"><ele>770.0</ele><time>2026-04-06T12:42:39.161Z</time></trkpt><trkpt lat="43.8920933" lon="11.7742646"><ele>776.0</ele><time>2026-04-06T12:42:42.16Z</time></trkpt><trkpt lat="43.8920512" lon="11.7741846"><ele>782.0</ele><time>2026-04-06T12:42:43.148Z</time></trkpt><trkpt lat="43.8919919" lon="11.7740859"><ele>788.0</ele><time>2026-04-06T12:42:44.172Z</time></trkpt><trkpt lat="43.8919365" lon="11.7739463"><ele>794.0</ele><time>2026-04-06T12:42:45.149Z</time></trkpt><trkpt lat="43.8918757" lon="11.7737787"><ele>800.0</ele><time>2026-04-06T12:42:46.149Z</time></trkpt><trkpt lat="43.8918131" lon="11.7735841"><ele>798.0</ele><time>2026-04-06T12:42:47.146Z</time></trkpt><trkpt lat="43.8917486" lon="11.7733831"><ele>796.0</ele><time>2026-04-06T12:42:48.154Z</time></trkpt><trkpt lat="43.8916858" lon="11.7731993"><ele>794.0</ele><time>2026-04-06T12:42:49.163Z</time></trkpt><trkpt lat="43.8916379" lon="11.7730297"><ele>792.0</ele><time>2026-04-06T12:42:50.154Z</time></trkpt><trkpt lat="43.8915952" lon="11.7728752"><ele>792.0</ele><time>2026-04-06T12:42:51.155Z</time></trkpt><trkpt lat="43.8915679" lon="11.7727336"><ele>792.0</ele><time>2026-04-06T12:42:52.141Z</time></trkpt><trkpt lat="43.8915345" lon="11.7726117"><ele>792.0</ele><time>2026-04-06T12:42:53.152Z</time></trkpt><trkpt lat="43.891478" lon="11.7725055"><ele>792.0</ele><time>2026-04-06T12:42:54.155Z</time></trkpt><trkpt lat="43.8913845" lon="11.7724418"><ele>792.0</ele><time>2026-04-06T12:42:55.144Z</time></trkpt><trkpt lat="43.8912706" lon="11.7724286"><ele>796.5</ele><time>2026-04-06T12:42:56.156Z</time></trkpt><trkpt lat="43.8911514" lon="11.7724651"><ele>801.0</ele><time>2026-04-06T12:42:57.144Z</time></trkpt><trkpt lat="43.8910217" lon="11.7725312"><ele>805.5</ele><time>2026-04-06T12:42:58.164Z</time></trkpt><trkpt lat="43.8908824" lon="11.7726317"><ele>810.0</ele><time>2026-04-06T12:42:59.154Z</time></trkpt><trkpt lat="43.8907326" lon="11.7727346"><ele>800.5</ele><time>2026-04-06T12:43:00.155Z</time></trkpt><trkpt lat="43.8905979" lon="11.7728123"><ele>791.0</ele><time>2026-04-06T12:43:01.155Z</time></trkpt><trkpt lat="43.8904943" lon="11.7728842"><ele>781.5</ele><time>2026-04-06T12:43:02.156Z</time></trkpt><trkpt lat="43.8904019" lon="11.7729423"><ele>772.0</ele><time>2026-04-06T12:43:03.162Z</time></trkpt><trkpt lat="43.8903017" lon="11.7729566"><ele>772.0</ele><time>2026-04-06T12:43:04.156Z</time></trkpt><trkpt lat="43.8902144" lon="11.7728727"><ele>772.0</ele><time>2026-04-06T12:43:05.157Z</time></trkpt><trkpt lat="43.8901395" lon="11.7727443"><ele>772.0</ele><time>2026-04-06T12:43:06.15Z</time></trkpt><trkpt lat="43.8901079" lon="11.7725823"><ele>772.0</ele><time>2026-04-06T12:43:07.147Z</time></trkpt><trkpt lat="43.8900881" lon="11.7724382"><ele>779.8</ele><time>2026-04-06T12:43:08.155Z</time></trkpt><trkpt lat="43.8900657" lon="11.772314"><ele>787.6</ele><time>2026-04-06T12:43:09.153Z</time></trkpt><trkpt lat="43.8900072" lon="11.7722325"><ele>795.4</ele><time>2026-04-06T12:43:10.143Z</time></trkpt><trkpt lat="43.8899036" lon="11.7722399"><ele>803.1999999999999</ele><time>2026-04-06T12:43:11.16Z</time></trkpt><trkpt lat="43.8898012" lon="11.7722889"><ele>811.0</ele><time>2026-04-06T12:43:12.153Z</time></trkpt><trkpt lat="43.8896933" lon="11.7723891"><ele>811.0</ele><time>2026-04-06T12:43:13.152Z</time></trkpt><trkpt lat="43.889581" lon="11.7725073"><ele>811.0</ele><time>2026-04-06T12:43:14.162Z</time></trkpt><trkpt lat="43.8894563" lon="11.7726362"><ele>811.0</ele><time>2026-04-06T12:43:15.146Z</time></trkpt><trkpt lat="43.8893524" lon="11.7727459"><ele>811.0</ele><time>2026-04-06T12:43:16.154Z</time></trkpt><trkpt lat="43.8892587" lon="11.7728391"><ele>807.4</ele><time>2026-04-06T12:43:17.155Z</time></trkpt><trkpt lat="43.8891609" lon="11.7729247"><ele>803.8</ele><time>2026-04-06T12:43:18.159Z</time></trkpt><trkpt lat="43.8890586" lon="11.7729748"><ele>800.1999999999999</ele><time>2026-04-06T12:43:19.151Z</time></trkpt><trkpt lat="43.8889696" lon="11.7729475"><ele>796.5999999999999</ele><time>2026-04-06T12:43:20.153Z</time></trkpt><trkpt lat="43.8888835" lon="11.7728515"><ele>793.0</ele><time>2026-04-06T12:43:21.153Z</time></trkpt><trkpt lat="43.8888225" lon="11.772705"><ele>799.5</ele><time>2026-04-06T12:43:22.161Z</time></trkpt><trkpt lat="43.8888002" lon="11.7725361"><ele>806.0</ele><time>2026-04-06T12:43:23.152Z</time></trkpt><trkpt lat="43.8888143" lon="11.7723707"><ele>812.5</ele><time>2026-04-06T12:43:24.157Z</time></trkpt><trkpt lat="43.8888707" lon="11.7722151"><ele>819.0</ele><time>2026-04-06T12:43:25.151Z</time></trkpt><trkpt lat="43.8889269" lon="11.7720608"><ele>819.0</ele><time>2026-04-06T12:43:26.148Z</time></trkpt><trkpt lat="43.8889863" lon="11.7718832"><ele>819.0</ele><time>2026-04-06T12:43:27.155Z</time></trkpt><trkpt lat="43.8890302" lon="11.7717057"><ele>819.0</ele><time>2026-04-06T12:43:28.16Z</time></trkpt><trkpt lat="43.8890373" lon="11.7715281"><ele>819.0</ele><time>2026-04-06T12:43:29.171Z</time></trkpt><trkpt lat="43.8889925" lon="11.771355"><ele>824.0</ele><time>2026-04-06T12:43:30.147Z</time></trkpt><trkpt lat="43.8889107" lon="11.7712038"><ele>829.0</ele><time>2026-04-06T12:43:31.17Z</time></trkpt><trkpt lat="43.8888242" lon="11.7710805"><ele>834.0</ele><time>2026-04-06T12:43:32.157Z</time></trkpt><trkpt lat="43.8887699" lon="11.7709311"><ele>839.0</ele><time>2026-04-06T12:43:33.161Z</time></trkpt><trkpt lat="43.888749" lon="11.7707935"><ele>840.75</ele><time>2026-04-06T12:43:34.159Z</time></trkpt><trkpt lat="43.8887778" lon="11.7706516"><ele>842.5</ele><time>2026-04-06T12:43:35.147Z</time></trkpt><trkpt lat="43.8888517" lon="11.7705317"><ele>844.25</ele><time>2026-04-06T12:43:36.161Z</time></trkpt><trkpt lat="43.8889501" lon="11.7703936"><ele>846.0</ele><time>2026-04-06T12:43:37.144Z</time></trkpt><trkpt lat="43.8890501" lon="11.770263"><ele>843.75</ele><time>2026-04-06T12:43:38.155Z</time></trkpt><trkpt lat="43.889141" lon="11.7701258"><ele>841.5</ele><time>2026-04-06T12:43:39.156Z</time></trkpt><trkpt lat="43.8892344" lon="11.7700103"><ele>839.25</ele><time>2026-04-06T12:43:40.147Z</time></trkpt><trkpt lat="43.8893341" lon="11.769903"><ele>837.0</ele><time>2026-04-06T12:43:41.156Z</time></trkpt><trkpt lat="43.8894312" lon="11.7698299"><ele>843.2</ele><time>2026-04-06T12:43:42.154Z</time></trkpt><trkpt lat="43.8895242" lon="11.7697969"><ele>849.4000000000001</ele><time>2026-04-06T12:43:43.157Z</time></trkpt><trkpt lat="43.8896214" lon="11.7697496"><ele>855.5999999999999</ele><time>2026-04-06T12:43:44.164Z</time></trkpt><trkpt lat="43.8896969" lon="11.7696479"><ele>861.8</ele><time>2026-04-06T12:43:45.142Z</time></trkpt><trkpt lat="43.8897342" lon="11.7695189"><ele>868.0</ele><time>2026-04-06T12:43:46.157Z</time></trkpt><trkpt lat="43.8897241" lon="11.7693664"><ele>866.5999999999999</ele><time>2026-04-06T12:43:47.142Z</time></trkpt><trkpt lat="43.8897054" lon="11.7692293"><ele>865.1999999999999</ele><time>2026-04-06T12:43:48.15Z</time></trkpt><trkpt lat="43.8897106" lon="11.7690737"><ele>863.8</ele><time>2026-04-06T12:43:49.163Z</time></trkpt><trkpt lat="43.8897679" lon="11.7689494"><ele>862.4</ele><time>2026-04-06T12:43:50.162Z</time></trkpt><trkpt lat="43.889864" lon="11.7688623"><ele>861.0</ele><time>2026-04-06T12:43:51.151Z</time></trkpt><trkpt lat="43.8899912" lon="11.7688142"><ele>868.5999999999999</ele><time>2026-04-06T12:43:52.169Z</time></trkpt><trkpt lat="43.890107" lon="11.768777"><ele>876.1999999999999</ele><time>2026-04-06T12:43:53.149Z</time></trkpt><trkpt lat="43.8901995" lon="11.7687121"><ele>883.8000000000001</ele><time>2026-04-06T12:43:54.167Z</time></trkpt><trkpt lat="43.8902652" lon="11.7686299"><ele>891.4000000000001</ele><time>2026-04-06T12:43:55.149Z</time></trkpt><trkpt lat="43.8902908" lon="11.7684904"><ele>899.0</ele><time>2026-04-06T12:43:56.14Z</time></trkpt><trkpt lat="43.8902723" lon="11.7683264"><ele>899.0</ele><time>2026-04-06T12:43:57.151Z</time></trkpt><trkpt lat="43.8902148" lon="11.7681734"><ele>899.0</ele><time>2026-04-06T12:43:58.137Z</time></trkpt><trkpt lat="43.8901297" lon="11.7679983"><ele>899.0</ele><time>2026-04-06T12:43:59.16Z</time></trkpt><trkpt lat="43.8900371" lon="11.767815"><ele>899.0</ele><time>2026-04-06T12:44:00.156Z</time></trkpt><trkpt lat="43.8899518" lon="11.7676489"><ele>890.5</ele><time>2026-04-06T12:44:01.157Z</time></trkpt><trkpt lat="43.8898841" lon="11.7674934"><ele>882.0</ele><time>2026-04-06T12:44:02.162Z</time></trkpt><trkpt lat="43.8898348" lon="11.7673518"><ele>873.5</ele><time>2026-04-06T12:44:03.153Z</time></trkpt><trkpt lat="43.8898694" lon="11.7671757"><ele>865.0</ele><time>2026-04-06T12:44:04.153Z</time></trkpt><trkpt lat="43.8899356" lon="11.7670173"><ele>865.0</ele><time>2026-04-06T12:44:05.16Z</time></trkpt><trkpt lat="43.8900261" lon="11.7669002"><ele>865.0</ele><time>2026-04-06T12:44:06.147Z</time></trkpt><trkpt lat="43.8901077" lon="11.7667834"><ele>865.0</ele><time>2026-04-06T12:44:07.148Z</time></trkpt><trkpt lat="43.8901369" lon="11.7666335"><ele>865.0</ele><time>2026-04-06T12:44:08.152Z</time></trkpt><trkpt lat="43.8901271" lon="11.766452"><ele>866.5</ele><time>2026-04-06T12:44:09.154Z</time></trkpt><trkpt lat="43.8900885" lon="11.7662926"><ele>868.0</ele><time>2026-04-06T12:44:10.15Z</time></trkpt><trkpt lat="43.8900308" lon="11.7661463"><ele>869.5</ele><time>2026-04-06T12:44:11.147Z</time></trkpt><trkpt lat="43.8899489" lon="11.766019"><ele>871.0</ele><time>2026-04-06T12:44:12.157Z</time></trkpt><trkpt lat="43.8898439" lon="11.7659456"><ele>871.0</ele><time>2026-04-06T12:44:13.163Z</time></trkpt><trkpt lat="43.8897162" lon="11.7659271"><ele>871.0</ele><time>2026-04-06T12:44:14.153Z</time></trkpt><trkpt lat="43.8896007" lon="11.7659828"><ele>871.0</ele><time>2026-04-06T12:44:15.167Z</time></trkpt><trkpt lat="43.8894876" lon="11.7660936"><ele>871.0</ele><time>2026-04-06T12:44:16.144Z</time></trkpt><trkpt lat="43.8893855" lon="11.7662242"><ele>871.0</ele><time>2026-04-06T12:44:17.144Z</time></trkpt><trkpt lat="43.8892783" lon="11.7663226"><ele>871.0</ele><time>2026-04-06T12:44:18.163Z</time></trkpt><trkpt lat="43.889176" lon="11.7663794"><ele>871.0</ele><time>2026-04-06T12:44:19.158Z</time></trkpt><trkpt lat="43.8890615" lon="11.7663835"><ele>871.0</ele><time>2026-04-06T12:44:20.163Z</time></trkpt><trkpt lat="43.8889395" lon="11.7663576"><ele>869.75</ele><time>2026-04-06T12:44:21.164Z</time></trkpt><trkpt lat="43.8888381" lon="11.7662684"><ele>868.5</ele><time>2026-04-06T12:44:22.157Z</time></trkpt><trkpt lat="43.888774" lon="11.7661032"><ele>867.25</ele><time>2026-04-06T12:44:23.155Z</time></trkpt><trkpt lat="43.8887549" lon="11.7659106"><ele>866.0</ele><time>2026-04-06T12:44:24.154Z</time></trkpt><trkpt lat="43.8887464" lon="11.7657051"><ele>872.6666666666667</ele><time>2026-04-06T12:44:25.143Z</time></trkpt><trkpt lat="43.8887443" lon="11.7654839"><ele>879.3333333333333</ele><time>2026-04-06T12:44:26.148Z</time></trkpt><trkpt lat="43.8887452" lon="11.7652692"><ele>886.0</ele><time>2026-04-06T12:44:27.143Z</time></trkpt><trkpt lat="43.8887663" lon="11.7650502"><ele>890.3333333333333</ele><time>2026-04-06T12:44:28.157Z</time></trkpt><trkpt lat="43.8888082" lon="11.7648219"><ele>894.6666666666667</ele><time>2026-04-06T12:44:29.164Z</time></trkpt><trkpt lat="43.8888671" lon="11.7646104"><ele>899.0</ele><time>2026-04-06T12:44:30.151Z</time></trkpt><trkpt lat="43.8889203" lon="11.764415"><ele>901.0</ele><time>2026-04-06T12:44:31.153Z</time></trkpt><trkpt lat="43.8889513" lon="11.7642386"><ele>903.0000000000001</ele><time>2026-04-06T12:44:32.161Z</time></trkpt><trkpt lat="43.8889597" lon="11.7640713"><ele>905.0000000000001</ele><time>2026-04-06T12:44:33.148Z</time></trkpt><trkpt lat="43.8889486" lon="11.7639148"><ele>907.0</ele><time>2026-04-06T12:44:34.164Z</time></trkpt><trkpt lat="43.8889062" lon="11.7638158"><ele>909.0</ele><time>2026-04-06T12:44:35.15Z</time></trkpt><trkpt lat="43.8888353" lon="11.7637327"><ele>909.0</ele><time>2026-04-06T12:44:36.154Z</time></trkpt><trkpt lat="43.8887445" lon="11.7637046"><ele>909.0</ele><time>2026-04-06T12:44:37.153Z</time></trkpt><trkpt lat="43.8886235" lon="11.7637419"><ele>909.0</ele><time>2026-04-06T12:44:38.153Z</time></trkpt><trkpt lat="43.8884865" lon="11.7638149"><ele>909.0</ele><time>2026-04-06T12:44:39.152Z</time></trkpt><trkpt lat="43.8883505" lon="11.7638867"><ele>905.25</ele><time>2026-04-06T12:44:40.158Z</time></trkpt><trkpt lat="43.8882117" lon="11.7639484"><ele>901.5</ele><time>2026-04-06T12:44:41.153Z</time></trkpt><trkpt lat="43.8880889" lon="11.7639924"><ele>897.75</ele><time>2026-04-06T12:44:42.16Z</time></trkpt><trkpt lat="43.8879828" lon="11.76401"><ele>894.0</ele><time>2026-04-06T12:44:43.155Z</time></trkpt><trkpt lat="43.8878839" lon="11.7639676"><ele>894.0</ele><time>2026-04-06T12:44:44.159Z</time></trkpt><trkpt lat="43.8877849" lon="11.7638491"><ele>894.0</ele><time>2026-04-06T12:44:45.155Z</time></trkpt><trkpt lat="43.8876883" lon="11.7636978"><ele>894.0</ele><time>2026-04-06T12:44:46.16Z</time></trkpt><trkpt lat="43.8875868" lon="11.7635289"><ele>894.0</ele><time>2026-04-06T12:44:47.153Z</time></trkpt><trkpt lat="43.8874951" lon="11.7633658"><ele>898.6666666666667</ele><time>2026-04-06T12:44:48.152Z</time></trkpt><trkpt lat="43.8874206" lon="11.7631815"><ele>903.3333333333334</ele><time>2026-04-06T12:44:49.161Z</time></trkpt><trkpt lat="43.8873536" lon="11.762984"><ele>908.0</ele><time>2026-04-06T12:44:50.163Z</time></trkpt><trkpt lat="43.8873214" lon="11.7627587"><ele>913.25</ele><time>2026-04-06T12:44:51.16Z</time></trkpt><trkpt lat="43.8872987" lon="11.7625328"><ele>918.5</ele><time>2026-04-06T12:44:52.152Z</time></trkpt><trkpt lat="43.8872769" lon="11.7623353"><ele>923.75</ele><time>2026-04-06T12:44:53.17Z</time></trkpt><trkpt lat="43.8872486" lon="11.7621526"><ele>929.0</ele><time>2026-04-06T12:44:54.143Z</time></trkpt><trkpt lat="43.8872009" lon="11.7620148"><ele>929.0</ele><time>2026-04-06T12:44:55.153Z</time></trkpt><trkpt lat="43.8871142" lon="11.7619086"><ele>929.0</ele><time>2026-04-06T12:44:56.155Z</time></trkpt><trkpt lat="43.8869946" lon="11.7618649"><ele>929.0</ele><time>2026-04-06T12:44:57.16Z</time></trkpt><trkpt lat="43.886865" lon="11.7618549"><ele>929.0</ele><time>2026-04-06T12:44:58.141Z</time></trkpt><trkpt lat="43.8867214" lon="11.7618727"><ele>920.3333333333334</ele><time>2026-04-06T12:44:59.163Z</time></trkpt><trkpt lat="43.8865652" lon="11.7618914"><ele>911.6666666666667</ele><time>2026-04-06T12:45:00.15Z</time></trkpt><trkpt lat="43.886408" lon="11.7619051"><ele>903.0</ele><time>2026-04-06T12:45:01.153Z</time></trkpt><trkpt lat="43.8862498" lon="11.761926"><ele>903.0</ele><time>2026-04-06T12:45:02.159Z</time></trkpt><trkpt lat="43.8860742" lon="11.7619076"><ele>903.0</ele><time>2026-04-06T12:45:03.152Z</time></trkpt><trkpt lat="43.8859014" lon="11.7618468"><ele>903.0</ele><time>2026-04-06T12:45:04.163Z</time></trkpt><trkpt lat="43.8857424" lon="11.7618065"><ele>909.8</ele><time>2026-04-06T12:45:05.157Z</time></trkpt><trkpt lat="43.8856049" lon="11.7617779"><ele>916.5999999999999</ele><time>2026-04-06T12:45:06.177Z</time></trkpt><trkpt lat="43.8854808" lon="11.7617536"><ele>923.4000000000001</ele><time>2026-04-06T12:45:07.141Z</time></trkpt><trkpt lat="43.8853788" lon="11.7617203"><ele>930.2</ele><time>2026-04-06T12:45:08.155Z</time></trkpt><trkpt lat="43.8853168" lon="11.7616544"><ele>937.0</ele><time>2026-04-06T12:45:09.17Z</time></trkpt><trkpt lat="43.8852899" lon="11.7615306"><ele>937.0</ele><time>2026-04-06T12:45:10.155Z</time></trkpt><trkpt lat="43.885273" lon="11.7613897"><ele>937.0</ele><time>2026-04-06T12:45:11.171Z</time></trkpt><trkpt lat="43.8852645" lon="11.7612217"><ele>937.0</ele><time>2026-04-06T12:45:12.153Z</time></trkpt><trkpt lat="43.8852727" lon="11.7610648"><ele>937.0</ele><time>2026-04-06T12:45:13.159Z</time></trkpt><trkpt lat="43.8852927" lon="11.7609322"><ele>937.0</ele><time>2026-04-06T12:45:14.144Z</time></trkpt><trkpt lat="43.8853504" lon="11.7607887"><ele>940.25</ele><time>2026-04-06T12:45:15.156Z</time></trkpt><trkpt lat="43.8854403" lon="11.7606601"><ele>943.5</ele><time>2026-04-06T12:45:16.15Z</time></trkpt><trkpt lat="43.8855331" lon="11.7605195"><ele>946.75</ele><time>2026-04-06T12:45:17.162Z</time></trkpt><trkpt lat="43.8856035" lon="11.760348"><ele>950.0</ele><time>2026-04-06T12:45:18.156Z</time></trkpt><trkpt lat="43.8856416" lon="11.7601492"><ele>950.0</ele><time>2026-04-06T12:45:19.164Z</time></trkpt><trkpt lat="43.88567" lon="11.7599516"><ele>950.0</ele><time>2026-04-06T12:45:20.159Z</time></trkpt><trkpt lat="43.8856727" lon="11.7597634"><ele>950.0</ele><time>2026-04-06T12:45:21.164Z</time></trkpt><trkpt lat="43.8856469" lon="11.7595597"><ele>950.0</ele><time>2026-04-06T12:45:22.163Z</time></trkpt><trkpt lat="43.8856217" lon="11.7593425"><ele>949.6</ele><time>2026-04-06T12:45:23.16Z</time></trkpt><trkpt lat="43.8856219" lon="11.7591285"><ele>949.2</ele><time>2026-04-06T12:45:24.169Z</time></trkpt><trkpt lat="43.8856339" lon="11.7589685"><ele>948.8</ele><time>2026-04-06T12:45:25.168Z</time></trkpt><trkpt lat="43.8856331" lon="11.7588533"><ele>948.4</ele><time>2026-04-06T12:45:26.157Z</time></trkpt><trkpt lat="43.8856279" lon="11.7587638"><ele>948.0</ele><time>2026-04-06T12:45:33.153Z</time></trkpt><trkpt lat="43.8855981" lon="11.758655"><ele>948.0</ele><time>2026-04-06T12:45:39.158Z</time></trkpt><trkpt lat="43.8855714" lon="11.7585571"><ele>948.0</ele><time>2026-04-06T12:45:40.15Z</time></trkpt><trkpt lat="43.8855341" lon="11.7584397"><ele>948.0</ele><time>2026-04-06T12:45:41.163Z</time></trkpt><trkpt lat="43.8854959" lon="11.7583219"><ele>948.0</ele><time>2026-04-06T12:45:42.162Z</time></trkpt><trkpt lat="43.8854409" lon="11.7581822"><ele>948.0</ele><time>2026-04-06T12:45:43.159Z</time></trkpt><trkpt lat="43.8853676" lon="11.7580268"><ele>947.75</ele><time>2026-04-06T12:45:44.143Z</time></trkpt><trkpt lat="43.8853008" lon="11.7578653"><ele>947.5</ele><time>2026-04-06T12:45:45.153Z</time></trkpt><trkpt lat="43.8852296" lon="11.7577148"><ele>947.25</ele><time>2026-04-06T12:45:46.158Z</time></trkpt><trkpt lat="43.8851494" lon="11.757549"><ele>947.0</ele><time>2026-04-06T12:45:47.161Z</time></trkpt><trkpt lat="43.8850717" lon="11.7573891"><ele>948.75</ele><time>2026-04-06T12:45:48.158Z</time></trkpt><trkpt lat="43.8849966" lon="11.7572384"><ele>950.5</ele><time>2026-04-06T12:45:49.16Z</time></trkpt><trkpt lat="43.8849242" lon="11.7570978"><ele>952.25</ele><time>2026-04-06T12:45:50.174Z</time></trkpt><trkpt lat="43.8848406" lon="11.7569615"><ele>954.0</ele><time>2026-04-06T12:45:51.161Z</time></trkpt><trkpt lat="43.8847401" lon="11.7568462"><ele>956.6</ele><time>2026-04-06T12:45:52.158Z</time></trkpt><trkpt lat="43.8846278" lon="11.7567578"><ele>959.2</ele><time>2026-04-06T12:45:53.164Z</time></trkpt><trkpt lat="43.8845342" lon="11.7566788"><ele>961.8000000000001</ele><time>2026-04-06T12:45:54.169Z</time></trkpt><trkpt lat="43.884462" lon="11.7566071"><ele>964.4000000000001</ele><time>2026-04-06T12:45:55.171Z</time></trkpt><trkpt lat="43.8844199" lon="11.7565218"><ele>967.0</ele><time>2026-04-06T12:45:56.177Z</time></trkpt><trkpt lat="43.8844114" lon="11.7564305"><ele>967.0</ele><time>2026-04-06T12:45:57.163Z</time></trkpt><trkpt lat="43.8844354" lon="11.7563361"><ele>967.0</ele><time>2026-04-06T12:45:58.158Z</time></trkpt><trkpt lat="43.8845015" lon="11.7562903"><ele>967.0</ele><time>2026-04-06T12:45:59.163Z</time></trkpt><trkpt lat="43.8845815" lon="11.7563297"><ele>967.0</ele><time>2026-04-06T12:46:00.171Z</time></trkpt><trkpt lat="43.8846647" lon="11.7564126"><ele>967.0</ele><time>2026-04-06T12:46:01.152Z</time></trkpt><trkpt lat="43.884741" lon="11.7565349"><ele>967.0</ele><time>2026-04-06T12:46:02.154Z</time></trkpt><trkpt lat="43.8848282" lon="11.756677"><ele>967.0</ele><time>2026-04-06T12:46:03.16Z</time></trkpt><trkpt lat="43.8849201" lon="11.7568219"><ele>967.0</ele><time>2026-04-06T12:46:04.17Z</time></trkpt><trkpt lat="43.8850186" lon="11.7570027"><ele>967.0</ele><time>2026-04-06T12:46:05.161Z</time></trkpt><trkpt lat="43.8851197" lon="11.7571751"><ele>964.5</ele><time>2026-04-06T12:46:06.151Z</time></trkpt><trkpt lat="43.8852189" lon="11.7573392"><ele>962.0</ele><time>2026-04-06T12:46:07.156Z</time></trkpt><trkpt lat="43.8853037" lon="11.7574743"><ele>959.5</ele><time>2026-04-06T12:46:08.155Z</time></trkpt><trkpt lat="43.885379" lon="11.7576031"><ele>957.0</ele><time>2026-04-06T12:46:09.18Z</time></trkpt><trkpt lat="43.8854507" lon="11.7576883"><ele>957.0</ele><time>2026-04-06T12:46:10.175Z</time></trkpt><trkpt lat="43.8855207" lon="11.7577149"><ele>957.0</ele><time>2026-04-06T12:46:11.147Z</time></trkpt><trkpt lat="43.88559" lon="11.7576924"><ele>957.0</ele><time>2026-04-06T12:46:12.153Z</time></trkpt><trkpt lat="43.8856444" lon="11.7576462"><ele>957.0</ele><time>2026-04-06T12:46:13.167Z</time></trkpt><trkpt lat="43.8856699" lon="11.757545"><ele>957.0</ele><time>2026-04-06T12:46:14.185Z</time></trkpt><trkpt lat="43.8856462" lon="11.7574383"><ele>957.0</ele><time>2026-04-06T12:46:15.145Z</time></trkpt><trkpt lat="43.8855801" lon="11.7573113"><ele>957.0</ele><time>2026-04-06T12:46:16.17Z</time></trkpt><trkpt lat="43.8855007" lon="11.7571794"><ele>957.0</ele><time>2026-04-06T12:46:17.164Z</time></trkpt><trkpt lat="43.885414" lon="11.7570454"><ele>957.0</ele><time>2026-04-06T12:46:18.159Z</time></trkpt><trkpt lat="43.8853262" lon="11.7568991"><ele>957.0</ele><time>2026-04-06T12:46:19.168Z</time></trkpt><trkpt lat="43.8852303" lon="11.756748"><ele>958.0</ele><time>2026-04-06T12:46:20.164Z</time></trkpt><trkpt lat="43.8851338" lon="11.7566018"><ele>959.0</ele><time>2026-04-06T12:46:21.158Z</time></trkpt><trkpt lat="43.885067" lon="11.7564431"><ele>960.0</ele><time>2026-04-06T12:46:22.159Z</time></trkpt><trkpt lat="43.8850194" lon="11.7562554"><ele>961.0</ele><time>2026-04-06T12:46:23.152Z</time></trkpt><trkpt lat="43.8850079" lon="11.756066"><ele>963.0</ele><time>2026-04-06T12:46:24.168Z</time></trkpt><trkpt lat="43.8850052" lon="11.7558997"><ele>965.0</ele><time>2026-04-06T12:46:25.159Z</time></trkpt><trkpt lat="43.8849963" lon="11.7557616"><ele>967.0</ele><time>2026-04-06T12:46:26.152Z</time></trkpt><trkpt lat="43.8849322" lon="11.7556495"><ele>969.0</ele><time>2026-04-06T12:46:27.165Z</time></trkpt><trkpt lat="43.8848136" lon="11.7555779"><ele>969.0</ele><time>2026-04-06T12:46:28.163Z</time></trkpt><trkpt lat="43.8846795" lon="11.7555277"><ele>969.0</ele><time>2026-04-06T12:46:29.152Z</time></trkpt><trkpt lat="43.8845443" lon="11.7554705"><ele>969.0</ele><time>2026-04-06T12:46:30.16Z</time></trkpt><trkpt lat="43.8844147" lon="11.7553915"><ele>969.0</ele><time>2026-04-06T12:46:31.162Z</time></trkpt><trkpt lat="43.8843248" lon="11.7552512"><ele>971.75</ele><time>2026-04-06T12:46:32.151Z</time></trkpt><trkpt lat="43.8842733" lon="11.7550885"><ele>974.5</ele><time>2026-04-06T12:46:33.171Z</time></trkpt><trkpt lat="43.8842363" lon="11.7549237"><ele>977.25</ele><time>2026-04-06T12:46:34.154Z</time></trkpt><trkpt lat="43.8841668" lon="11.7547883"><ele>980.0</ele><time>2026-04-06T12:46:35.154Z</time></trkpt><trkpt lat="43.8840413" lon="11.7546529"><ele>980.0</ele><time>2026-04-06T12:46:36.162Z</time></trkpt><trkpt lat="43.8839054" lon="11.7545041"><ele>980.0</ele><time>2026-04-06T12:46:37.151Z</time></trkpt><trkpt lat="43.8837846" lon="11.754358"><ele>980.0</ele><time>2026-04-06T12:46:38.154Z</time></trkpt><trkpt lat="43.8836751" lon="11.7541994"><ele>979.5</ele><time>2026-04-06T12:46:39.161Z</time></trkpt><trkpt lat="43.8835991" lon="11.7540474"><ele>979.0</ele><time>2026-04-06T12:46:40.148Z</time></trkpt><trkpt lat="43.8835393" lon="11.7538655"><ele>978.5</ele><time>2026-04-06T12:46:41.163Z</time></trkpt><trkpt lat="43.8835042" lon="11.7536801"><ele>978.0</ele><time>2026-04-06T12:46:42.15Z</time></trkpt><trkpt lat="43.8835059" lon="11.7535065"><ele>977.5999999999999</ele><time>2026-04-06T12:46:43.167Z</time></trkpt><trkpt lat="43.8835555" lon="11.7533752"><ele>977.1999999999999</ele><time>2026-04-06T12:46:44.163Z</time></trkpt><trkpt lat="43.883592" lon="11.753258"><ele>976.8</ele><time>2026-04-06T12:46:45.155Z</time></trkpt><trkpt lat="43.883584" lon="11.7531499"><ele>976.4</ele><time>2026-04-06T12:46:46.175Z</time></trkpt><trkpt lat="43.8835077" lon="11.7530444"><ele>976.0</ele><time>2026-04-06T12:46:47.164Z</time></trkpt><trkpt lat="43.8834068" lon="11.7529609"><ele>983.5</ele><time>2026-04-06T12:46:48.161Z</time></trkpt><trkpt lat="43.8832782" lon="11.7529051"><ele>991.0</ele><time>2026-04-06T12:46:49.159Z</time></trkpt><trkpt lat="43.8831397" lon="11.7529021"><ele>998.5</ele><time>2026-04-06T12:46:50.16Z</time></trkpt><trkpt lat="43.8830115" lon="11.7528718"><ele>1006.0</ele><time>2026-04-06T12:46:51.139Z</time></trkpt><trkpt lat="43.8828812" lon="11.7528284"><ele>1006.0</ele><time>2026-04-06T12:46:52.163Z</time></trkpt><trkpt lat="43.8827674" lon="11.7527398"><ele>1006.0</ele><time>2026-04-06T12:46:53.161Z</time></trkpt><trkpt lat="43.8826779" lon="11.752583"><ele>1006.0</ele><time>2026-04-06T12:46:54.158Z</time></trkpt><trkpt lat="43.8825939" lon="11.7524345"><ele>1006.0</ele><time>2026-04-06T12:46:55.154Z</time></trkpt><trkpt lat="43.8824958" lon="11.7523544"><ele>1006.5999999999999</ele><time>2026-04-06T12:46:56.157Z</time></trkpt><trkpt lat="43.8824025" lon="11.7523309"><ele>1007.1999999999999</ele><time>2026-04-06T12:46:57.164Z</time></trkpt><trkpt lat="43.8822903" lon="11.7523836"><ele>1007.8000000000001</ele><time>2026-04-06T12:46:58.167Z</time></trkpt><trkpt lat="43.8821878" lon="11.7524503"><ele>1008.4000000000001</ele><time>2026-04-06T12:46:59.171Z</time></trkpt><trkpt lat="43.8820902" lon="11.752516"><ele>1009.0</ele><time>2026-04-06T12:47:00.155Z</time></trkpt><trkpt lat="43.8819772" lon="11.7525393"><ele>1009.0</ele><time>2026-04-06T12:47:01.171Z</time></trkpt><trkpt lat="43.8818332" lon="11.7525004"><ele>1009.0</ele><time>2026-04-06T12:47:02.154Z</time></trkpt><trkpt lat="43.8816975" lon="11.7524058"><ele>1009.0</ele><time>2026-04-06T12:47:03.155Z</time></trkpt><trkpt lat="43.8815488" lon="11.7523016"><ele>1011.0</ele><time>2026-04-06T12:47:04.144Z</time></trkpt><trkpt lat="43.8813996" lon="11.7522161"><ele>1013.0</ele><time>2026-04-06T12:47:05.158Z</time></trkpt><trkpt lat="43.8812536" lon="11.7521597"><ele>1015.0</ele><time>2026-04-06T12:47:06.158Z</time></trkpt><trkpt lat="43.8811144" lon="11.7521147"><ele>1015.0</ele><time>2026-04-06T12:47:07.16Z</time></trkpt><trkpt lat="43.8809876" lon="11.7520625"><ele>1015.0</ele><time>2026-04-06T12:47:08.166Z</time></trkpt><trkpt lat="43.8808604" lon="11.7520386"><ele>1015.0</ele><time>2026-04-06T12:47:09.148Z</time></trkpt><trkpt lat="43.8807396" lon="11.7520609"><ele>1015.0</ele><time>2026-04-06T12:47:10.162Z</time></trkpt><trkpt lat="43.8806241" lon="11.7521283"><ele>1014.8333333333333</ele><time>2026-04-06T12:47:11.148Z</time></trkpt><trkpt lat="43.8805369" lon="11.7521944"><ele>1014.6666666666666</ele><time>2026-04-06T12:47:12.148Z</time></trkpt><trkpt lat="43.8804541" lon="11.7522757"><ele>1014.5</ele><time>2026-04-06T12:47:13.141Z</time></trkpt><trkpt lat="43.8803763" lon="11.7523178"><ele>1014.3333333333333</ele><time>2026-04-06T12:47:14.144Z</time></trkpt><trkpt lat="43.8803012" lon="11.7523093"><ele>1014.1666666666666</ele><time>2026-04-06T12:47:15.141Z</time></trkpt><trkpt lat="43.8802244" lon="11.7522558"><ele>1014.0</ele><time>2026-04-06T12:47:16.141Z</time></trkpt><trkpt lat="43.8801518" lon="11.7521673"><ele>1015.0</ele><time>2026-04-06T12:47:17.141Z</time></trkpt><trkpt lat="43.8800868" lon="11.7520643"><ele>1016.0000000000001</ele><time>2026-04-06T12:47:18.154Z</time></trkpt><trkpt lat="43.8800389" lon="11.7519409"><ele>1017.0000000000001</ele><time>2026-04-06T12:47:19.146Z</time></trkpt><trkpt lat="43.8799818" lon="11.7517916"><ele>1018.0</ele><time>2026-04-06T12:47:20.154Z</time></trkpt><trkpt lat="43.8799196" lon="11.7516486"><ele>1019.0</ele><time>2026-04-06T12:47:21.146Z</time></trkpt><trkpt lat="43.8798635" lon="11.7514997"><ele>1026.25</ele><time>2026-04-06T12:47:22.15Z</time></trkpt><trkpt lat="43.8798123" lon="11.7513144"><ele>1033.5</ele><time>2026-04-06T12:47:23.143Z</time></trkpt><trkpt lat="43.8797526" lon="11.751138"><ele>1040.75</ele><time>2026-04-06T12:47:24.151Z</time></trkpt><trkpt lat="43.879674" lon="11.7509755"><ele>1048.0</ele><time>2026-04-06T12:47:25.155Z</time></trkpt><trkpt lat="43.8795845" lon="11.7508146"><ele>1054.25</ele><time>2026-04-06T12:47:26.153Z</time></trkpt><trkpt lat="43.8795008" lon="11.7506606"><ele>1060.5</ele><time>2026-04-06T12:47:27.154Z</time></trkpt><trkpt lat="43.8794229" lon="11.7505066"><ele>1066.75</ele><time>2026-04-06T12:47:28.152Z</time></trkpt><trkpt lat="43.8793643" lon="11.7503335"><ele>1073.0</ele><time>2026-04-06T12:47:29.16Z</time></trkpt><trkpt lat="43.8793453" lon="11.7501415"><ele>1077.25</ele><time>2026-04-06T12:47:30.153Z</time></trkpt><trkpt lat="43.8793432" lon="11.7499497"><ele>1081.5</ele><time>2026-04-06T12:47:31.139Z</time></trkpt><trkpt lat="43.8793328" lon="11.7497597"><ele>1085.75</ele><time>2026-04-06T12:47:32.154Z</time></trkpt><trkpt lat="43.8793217" lon="11.7495694"><ele>1090.0</ele><time>2026-04-06T12:47:33.148Z</time></trkpt><trkpt lat="43.8792971" lon="11.7494092"><ele>1088.3333333333333</ele><time>2026-04-06T12:47:34.151Z</time></trkpt><trkpt lat="43.8791629" lon="11.749318"><ele>1086.6666666666667</ele><time>2026-04-06T12:47:35.152Z</time></trkpt><trkpt lat="43.8789746" lon="11.7492823"><ele>1085.0</ele><time>2026-04-06T12:47:36.153Z</time></trkpt><trkpt lat="43.8787971" lon="11.7492539"><ele>1085.0</ele><time>2026-04-06T12:47:37.162Z</time></trkpt><trkpt lat="43.8786413" lon="11.749198"><ele>1085.0</ele><time>2026-04-06T12:47:38.147Z</time></trkpt><trkpt lat="43.8784804" lon="11.7491332"><ele>1085.0</ele><time>2026-04-06T12:47:39.143Z</time></trkpt><trkpt lat="43.8783449" lon="11.7490311"><ele>1079.5</ele><time>2026-04-06T12:47:40.152Z</time></trkpt><trkpt lat="43.8782349" lon="11.7489185"><ele>1074.0</ele><time>2026-04-06T12:47:41.15Z</time></trkpt><trkpt lat="43.8781469" lon="11.7487873"><ele>1068.5</ele><time>2026-04-06T12:47:42.152Z</time></trkpt><trkpt lat="43.8780556" lon="11.748689"><ele>1063.0</ele><time>2026-04-06T12:47:43.159Z</time></trkpt><trkpt lat="43.8779603" lon="11.7486312"><ele>1063.0</ele><time>2026-04-06T12:47:44.159Z</time></trkpt><trkpt lat="43.87786" lon="11.7486113"><ele>1063.0</ele><time>2026-04-06T12:47:45.169Z</time></trkpt><trkpt lat="43.8777712" lon="11.7486488"><ele>1063.0</ele><time>2026-04-06T12:47:46.144Z</time></trkpt><trkpt lat="43.8776846" lon="11.7487546"><ele>1063.0</ele><time>2026-04-06T12:47:47.162Z</time></trkpt><trkpt lat="43.8776221" lon="11.7489221"><ele>1063.0</ele><time>2026-04-06T12:47:48.156Z</time></trkpt><trkpt lat="43.8775679" lon="11.749099"><ele>1065.0</ele><time>2026-04-06T12:47:49.141Z</time></trkpt><trkpt lat="43.8775221" lon="11.7492319"><ele>1067.0</ele><time>2026-04-06T12:47:50.15Z</time></trkpt><trkpt lat="43.8774698" lon="11.7493057"><ele>1069.0</ele><time>2026-04-06T12:47:51.148Z</time></trkpt><trkpt lat="43.8773946" lon="11.7493467"><ele>1071.0</ele><time>2026-04-06T12:47:52.153Z</time></trkpt><trkpt lat="43.8773076" lon="11.7493412"><ele>1073.0</ele><time>2026-04-06T12:47:53.151Z</time></trkpt><trkpt lat="43.8772068" lon="11.7492908"><ele>1073.0</ele><time>2026-04-06T12:47:54.143Z</time></trkpt><trkpt lat="43.8771143" lon="11.7491875"><ele>1073.0</ele><time>2026-04-06T12:47:55.154Z</time></trkpt><trkpt lat="43.8770198" lon="11.7490546"><ele>1073.0</ele><time>2026-04-06T12:47:56.149Z</time></trkpt><trkpt lat="43.8769295" lon="11.7489301"><ele>1073.0</ele><time>2026-04-06T12:47:57.164Z</time></trkpt><trkpt lat="43.8768326" lon="11.7488404"><ele>1074.75</ele><time>2026-04-06T12:47:58.151Z</time></trkpt><trkpt lat="43.8767354" lon="11.7487964"><ele>1076.5</ele><time>2026-04-06T12:47:59.154Z</time></trkpt><trkpt lat="43.8766316" lon="11.7487796"><ele>1078.25</ele><time>2026-04-06T12:48:00.148Z</time></trkpt><trkpt lat="43.8765152" lon="11.748837"><ele>1080.0</ele><time>2026-04-06T12:48:01.155Z</time></trkpt><trkpt lat="43.8763998" lon="11.7489069"><ele>1080.0</ele><time>2026-04-06T12:48:02.156Z</time></trkpt><trkpt lat="43.8762759" lon="11.7489865"><ele>1080.0</ele><time>2026-04-06T12:48:03.167Z</time></trkpt><trkpt lat="43.8761468" lon="11.7490821"><ele>1080.0</ele><time>2026-04-06T12:48:04.15Z</time></trkpt><trkpt lat="43.8760182" lon="11.7491666"><ele>1080.0</ele><time>2026-04-06T12:48:05.152Z</time></trkpt><trkpt lat="43.8759133" lon="11.7492393"><ele>1085.0</ele><time>2026-04-06T12:48:06.136Z</time></trkpt><trkpt lat="43.8758134" lon="11.7492828"><ele>1090.0</ele><time>2026-04-06T12:48:07.168Z</time></trkpt><trkpt lat="43.8757109" lon="11.7492831"><ele>1095.0</ele><time>2026-04-06T12:48:08.14Z</time></trkpt><trkpt lat="43.8755938" lon="11.7492779"><ele>1100.0</ele><time>2026-04-06T12:48:09.153Z</time></trkpt><trkpt lat="43.875468" lon="11.749289"><ele>1100.0</ele><time>2026-04-06T12:48:10.152Z</time></trkpt><trkpt lat="43.875354" lon="11.7493553"><ele>1100.0</ele><time>2026-04-06T12:48:11.154Z</time></trkpt><trkpt lat="43.8752625" lon="11.7494743"><ele>1100.0</ele><time>2026-04-06T12:48:12.162Z</time></trkpt><trkpt lat="43.8751949" lon="11.7496392"><ele>1100.0</ele><time>2026-04-06T12:48:13.137Z</time></trkpt><trkpt lat="43.8751441" lon="11.7498455"><ele>1097.5</ele><time>2026-04-06T12:48:14.147Z</time></trkpt><trkpt lat="43.8750753" lon="11.75002"><ele>1095.0</ele><time>2026-04-06T12:48:15.151Z</time></trkpt><trkpt lat="43.875013" lon="11.7501716"><ele>1092.5</ele><time>2026-04-06T12:48:16.155Z</time></trkpt><trkpt lat="43.8749481" lon="11.7502717"><ele>1090.0</ele><time>2026-04-06T12:48:17.148Z</time></trkpt><trkpt lat="43.8748591" lon="11.7503523"><ele>1081.5</ele><time>2026-04-06T12:48:18.16Z</time></trkpt><trkpt lat="43.8747369" lon="11.7504094"><ele>1073.0</ele><time>2026-04-06T12:48:19.155Z</time></trkpt><trkpt lat="43.8746088" lon="11.7504512"><ele>1064.5</ele><time>2026-04-06T12:48:20.152Z</time></trkpt><trkpt lat="43.8744901" lon="11.7504647"><ele>1056.0</ele><time>2026-04-06T12:48:21.156Z</time></trkpt><trkpt lat="43.8743861" lon="11.7504811"><ele>1058.8</ele><time>2026-04-06T12:48:22.153Z</time></trkpt><trkpt lat="43.8742677" lon="11.750491"><ele>1061.6</ele><time>2026-04-06T12:48:23.158Z</time></trkpt><trkpt lat="43.87417" lon="11.7504855"><ele>1064.4</ele><time>2026-04-06T12:48:24.153Z</time></trkpt><trkpt lat="43.8740741" lon="11.7504256"><ele>1067.2</ele><time>2026-04-06T12:48:25.154Z</time></trkpt><trkpt lat="43.8739799" lon="11.7503313"><ele>1070.0</ele><time>2026-04-06T12:48:26.149Z</time></trkpt><trkpt lat="43.8738894" lon="11.7501964"><ele>1076.5</ele><time>2026-04-06T12:48:27.159Z</time></trkpt><trkpt lat="43.8738082" lon="11.7500514"><ele>1083.0</ele><time>2026-04-06T12:48:28.154Z</time></trkpt><trkpt lat="43.8737113" lon="11.749913"><ele>1089.5</ele><time>2026-04-06T12:48:29.142Z</time></trkpt><trkpt lat="43.8736009" lon="11.7497933"><ele>1096.0</ele><time>2026-04-06T12:48:30.148Z</time></trkpt><trkpt lat="43.8734836" lon="11.7496732"><ele>1093.3333333333333</ele><time>2026-04-06T12:48:31.148Z</time></trkpt><trkpt lat="43.873382" lon="11.7495377"><ele>1090.6666666666667</ele><time>2026-04-06T12:48:32.158Z</time></trkpt><trkpt lat="43.8732895" lon="11.7493569"><ele>1088.0</ele><time>2026-04-06T12:48:33.143Z</time></trkpt><trkpt lat="43.8732097" lon="11.7491506"><ele>1088.0</ele><time>2026-04-06T12:48:34.156Z</time></trkpt><trkpt lat="43.8731309" lon="11.7489342"><ele>1088.0</ele><time>2026-04-06T12:48:35.157Z</time></trkpt><trkpt lat="43.8730553" lon="11.7487176"><ele>1088.0</ele><time>2026-04-06T12:48:36.152Z</time></trkpt><trkpt lat="43.8729862" lon="11.7484896"><ele>1091.6666666666667</ele><time>2026-04-06T12:48:37.165Z</time></trkpt><trkpt lat="43.8729094" lon="11.7482777"><ele>1095.3333333333333</ele><time>2026-04-06T12:48:38.159Z</time></trkpt><trkpt lat="43.8728404" lon="11.7480856"><ele>1099.0</ele><time>2026-04-06T12:48:39.148Z</time></trkpt><trkpt lat="43.8727829" lon="11.7479073"><ele>1099.0</ele><time>2026-04-06T12:48:40.151Z</time></trkpt><trkpt lat="43.8727292" lon="11.747739"><ele>1099.0</ele><time>2026-04-06T12:48:41.151Z</time></trkpt><trkpt lat="43.872677" lon="11.7475867"><ele>1099.0</ele><time>2026-04-06T12:48:42.165Z</time></trkpt><trkpt lat="43.8726238" lon="11.7474413"><ele>1099.0</ele><time>2026-04-06T12:48:43.151Z</time></trkpt><trkpt lat="43.8725815" lon="11.7472955"><ele>1096.6000000000001</ele><time>2026-04-06T12:48:44.16Z</time></trkpt><trkpt lat="43.8725434" lon="11.7471425"><ele>1094.2</ele><time>2026-04-06T12:48:45.163Z</time></trkpt><trkpt lat="43.8725327" lon="11.7470047"><ele>1091.8000000000002</ele><time>2026-04-06T12:48:46.157Z</time></trkpt><trkpt lat="43.8725459" lon="11.7468676"><ele>1089.4</ele><time>2026-04-06T12:48:47.153Z</time></trkpt><trkpt lat="43.8725601" lon="11.7467446"><ele>1087.0</ele><time>2026-04-06T12:48:48.166Z</time></trkpt><trkpt lat="43.8725769" lon="11.7466468"><ele>1087.0</ele><time>2026-04-06T12:48:49.144Z</time></trkpt><trkpt lat="43.8726037" lon="11.7465133"><ele>1087.0</ele><time>2026-04-06T12:48:51.167Z</time></trkpt><trkpt lat="43.8726176" lon="11.7464181"><ele>1087.0</ele><time>2026-04-06T12:48:55.148Z</time></trkpt><trkpt lat="43.8726168" lon="11.7463267"><ele>1087.0</ele><time>2026-04-06T12:49:32.162Z</time></trkpt><trkpt lat="43.8726233" lon="11.746231"><ele>1087.0</ele><time>2026-04-06T12:49:33.152Z</time></trkpt><trkpt lat="43.8726389" lon="11.7460375"><ele>1087.0</ele><time>2026-04-06T12:49:35.151Z</time></trkpt><trkpt lat="43.8726201" lon="11.7459179"><ele>1088.5</ele><time>2026-04-06T12:49:36.159Z</time></trkpt><trkpt lat="43.8725778" lon="11.7458023"><ele>1090.0</ele><time>2026-04-06T12:49:37.157Z</time></trkpt><trkpt lat="43.8725381" lon="11.7457112"><ele>1091.5</ele><time>2026-04-06T12:49:38.168Z</time></trkpt><trkpt lat="43.8724945" lon="11.7456243"><ele>1093.0</ele><time>2026-04-06T12:49:39.145Z</time></trkpt><trkpt lat="43.8724451" lon="11.7455318"><ele>1094.5</ele><time>2026-04-06T12:49:40.155Z</time></trkpt><trkpt lat="43.8724106" lon="11.7454477"><ele>1096.0</ele><time>2026-04-06T12:49:41.173Z</time></trkpt><trkpt lat="43.8723781" lon="11.7453629"><ele>1096.0</ele><time>2026-04-06T12:49:42.164Z</time></trkpt><trkpt lat="43.8723433" lon="11.7452712"><ele>1096.0</ele><time>2026-04-06T12:49:43.142Z</time></trkpt><trkpt lat="43.8723427" lon="11.74516"><ele>1096.0</ele><time>2026-04-06T12:49:44.159Z</time></trkpt><trkpt lat="43.8723673" lon="11.7450489"><ele>1096.0</ele><time>2026-04-06T12:49:45.136Z</time></trkpt><trkpt lat="43.8723948" lon="11.7449327"><ele>1096.0</ele><time>2026-04-06T12:49:46.14Z</time></trkpt><trkpt lat="43.8724315" lon="11.7448075"><ele>1096.0</ele><time>2026-04-06T12:49:47.155Z</time></trkpt><trkpt lat="43.8724754" lon="11.7446708"><ele>1096.3999999999999</ele><time>2026-04-06T12:49:48.145Z</time></trkpt><trkpt lat="43.8725203" lon="11.7445324"><ele>1096.8</ele><time>2026-04-06T12:49:49.149Z</time></trkpt><trkpt lat="43.8725423" lon="11.744383"><ele>1097.1999999999998</ele><time>2026-04-06T12:49:50.161Z</time></trkpt><trkpt lat="43.8725519" lon="11.7442423"><ele>1097.6</ele><time>2026-04-06T12:49:51.14Z</time></trkpt><trkpt lat="43.8725321" lon="11.7440789"><ele>1098.0</ele><time>2026-04-06T12:49:52.153Z</time></trkpt><trkpt lat="43.8724917" lon="11.7439093"><ele>1099.8</ele><time>2026-04-06T12:49:53.147Z</time></trkpt><trkpt lat="43.872449" lon="11.7437498"><ele>1101.6</ele><time>2026-04-06T12:49:54.166Z</time></trkpt><trkpt lat="43.8724052" lon="11.7436178"><ele>1103.4</ele><time>2026-04-06T12:49:55.158Z</time></trkpt><trkpt lat="43.8723799" lon="11.7435082"><ele>1105.2</ele><time>2026-04-06T12:49:56.149Z</time></trkpt><trkpt lat="43.8723389" lon="11.7433931"><ele>1107.0</ele><time>2026-04-06T12:49:57.17Z</time></trkpt><trkpt lat="43.8722991" lon="11.7432973"><ele>1108.8333333333333</ele><time>2026-04-06T12:49:58.156Z</time></trkpt><trkpt lat="43.8722552" lon="11.7432101"><ele>1110.6666666666667</ele><time>2026-04-06T12:49:59.144Z</time></trkpt><trkpt lat="43.8722153" lon="11.7431381"><ele>1112.5</ele><time>2026-04-06T12:50:00.16Z</time></trkpt><trkpt lat="43.8721332" lon="11.7430368"><ele>1114.3333333333335</ele><time>2026-04-06T12:50:02.157Z</time></trkpt><trkpt lat="43.8720727" lon="11.7429998"><ele>1116.1666666666667</ele><time>2026-04-06T12:50:03.151Z</time></trkpt><trkpt lat="43.8719714" lon="11.7428915"><ele>1118.0</ele><time>2026-04-06T12:50:05.157Z</time></trkpt><trkpt lat="43.871905" lon="11.7428177"><ele>1118.0</ele><time>2026-04-06T12:50:06.155Z</time></trkpt><trkpt lat="43.8718393" lon="11.7427274"><ele>1118.0</ele><time>2026-04-06T12:50:07.151Z</time></trkpt><trkpt lat="43.8717847" lon="11.7426449"><ele>1118.0</ele><time>2026-04-06T12:50:08.151Z</time></trkpt><trkpt lat="43.8717274" lon="11.7425625"><ele>1118.0</ele><time>2026-04-06T12:50:09.151Z</time></trkpt><trkpt lat="43.8716798" lon="11.7424702"><ele>1118.0</ele><time>2026-04-06T12:50:10.162Z</time></trkpt><trkpt lat="43.8716369" lon="11.742377"><ele>1118.0</ele><time>2026-04-06T12:50:11.158Z</time></trkpt><trkpt lat="43.8716082" lon="11.7422711"><ele>1119.5</ele><time>2026-04-06T12:50:12.163Z</time></trkpt><trkpt lat="43.871591" lon="11.7421664"><ele>1121.0</ele><time>2026-04-06T12:50:13.151Z</time></trkpt><trkpt lat="43.8715726" lon="11.7420543"><ele>1122.5</ele><time>2026-04-06T12:50:14.151Z</time></trkpt><trkpt lat="43.8715578" lon="11.7419484"><ele>1124.0</ele><time>2026-04-06T12:50:15.15Z</time></trkpt><trkpt lat="43.8715393" lon="11.741846"><ele>1125.5</ele><time>2026-04-06T12:50:16.153Z</time></trkpt><trkpt lat="43.8715132" lon="11.7417422"><ele>1127.0</ele><time>2026-04-06T12:50:17.153Z</time></trkpt><trkpt lat="43.8714896" lon="11.7416455"><ele>1127.0</ele><time>2026-04-06T12:50:18.165Z</time></trkpt><trkpt lat="43.8714577" lon="11.7415279"><ele>1127.0</ele><time>2026-04-06T12:50:19.14Z</time></trkpt><trkpt lat="43.8714338" lon="11.7414076"><ele>1127.0</ele><time>2026-04-06T12:50:20.176Z</time></trkpt><trkpt lat="43.871404" lon="11.7412583"><ele>1127.0</ele><time>2026-04-06T12:50:21.157Z</time></trkpt><trkpt lat="43.8713763" lon="11.7411261"><ele>1127.0</ele><time>2026-04-06T12:50:22.154Z</time></trkpt><trkpt lat="43.8713367" lon="11.7409818"><ele>1129.0</ele><time>2026-04-06T12:50:23.163Z</time></trkpt><trkpt lat="43.8712929" lon="11.7408167"><ele>1131.0</ele><time>2026-04-06T12:50:24.152Z</time></trkpt><trkpt lat="43.8712446" lon="11.7406515"><ele>1133.0</ele><time>2026-04-06T12:50:25.153Z</time></trkpt><trkpt lat="43.8712052" lon="11.7405124"><ele>1135.0</ele><time>2026-04-06T12:50:26.152Z</time></trkpt><trkpt lat="43.8711907" lon="11.7403578"><ele>1135.0</ele><time>2026-04-06T12:50:27.173Z</time></trkpt><trkpt lat="43.8711785" lon="11.7402175"><ele>1135.0</ele><time>2026-04-06T12:50:28.154Z</time></trkpt><trkpt lat="43.8712074" lon="11.7400921"><ele>1135.0</ele><time>2026-04-06T12:50:29.14Z</time></trkpt><trkpt lat="43.8712772" lon="11.7399662"><ele>1135.0</ele><time>2026-04-06T12:50:30.142Z</time></trkpt><trkpt lat="43.8713895" lon="11.7398502"><ele>1135.6666666666665</ele><time>2026-04-06T12:50:31.16Z</time></trkpt><trkpt lat="43.871531" lon="11.7397524"><ele>1136.3333333333333</ele><time>2026-04-06T12:50:32.167Z</time></trkpt><trkpt lat="43.8716829" lon="11.7396933"><ele>1137.0</ele><time>2026-04-06T12:50:33.145Z</time></trkpt><trkpt lat="43.8718204" lon="11.7396342"><ele>1141.0</ele><time>2026-04-06T12:50:34.153Z</time></trkpt><trkpt lat="43.871919" lon="11.7395669"><ele>1145.0</ele><time>2026-04-06T12:50:35.15Z</time></trkpt><trkpt lat="43.871981" lon="11.7395171"><ele>1149.0</ele><time>2026-04-06T12:50:36.16Z</time></trkpt><trkpt lat="43.8720558" lon="11.7393037"><ele>1153.0</ele><time>2026-04-06T12:50:38.152Z</time></trkpt><trkpt lat="43.872106" lon="11.7391125"><ele>1153.0</ele><time>2026-04-06T12:50:39.153Z</time></trkpt><trkpt lat="43.8721709" lon="11.7389728"><ele>1153.0</ele><time>2026-04-06T12:50:40.15Z</time></trkpt><trkpt lat="43.8722407" lon="11.7388276"><ele>1153.0</ele><time>2026-04-06T12:50:41.151Z</time></trkpt><trkpt lat="43.8723068" lon="11.7386971"><ele>1153.0</ele><time>2026-04-06T12:50:42.154Z</time></trkpt><trkpt lat="43.8723597" lon="11.7386023"><ele>1153.0</ele><time>2026-04-06T12:50:43.144Z</time></trkpt><trkpt lat="43.8723943" lon="11.738494"><ele>1153.142857142857</ele><time>2026-04-06T12:50:44.153Z</time></trkpt><trkpt lat="43.8724301" lon="11.7383916"><ele>1153.2857142857144</ele><time>2026-04-06T12:50:45.137Z</time></trkpt><trkpt lat="43.872449" lon="11.7383043"><ele>1153.4285714285716</ele><time>2026-04-06T12:50:46.149Z</time></trkpt><trkpt lat="43.8724163" lon="11.7382257"><ele>1153.5714285714287</ele><time>2026-04-06T12:50:47.153Z</time></trkpt><trkpt lat="43.872357" lon="11.7381749"><ele>1153.7142857142858</ele><time>2026-04-06T12:50:48.153Z</time></trkpt><trkpt lat="43.8722854" lon="11.7381332"><ele>1153.857142857143</ele><time>2026-04-06T12:50:49.151Z</time></trkpt><trkpt lat="43.8722109" lon="11.7381354"><ele>1154.0</ele><time>2026-04-06T12:50:50.132Z</time></trkpt><trkpt lat="43.8721217" lon="11.7381694"><ele>1154.0</ele><time>2026-04-06T12:50:51.152Z</time></trkpt><trkpt lat="43.872029" lon="11.7382462"><ele>1154.0</ele><time>2026-04-06T12:50:52.134Z</time></trkpt><trkpt lat="43.8719265" lon="11.7383638"><ele>1154.0</ele><time>2026-04-06T12:50:53.147Z</time></trkpt><trkpt lat="43.8718397" lon="11.7385053"><ele>1154.0</ele><time>2026-04-06T12:50:54.139Z</time></trkpt><trkpt lat="43.8717345" lon="11.7386735"><ele>1149.3333333333335</ele><time>2026-04-06T12:50:55.144Z</time></trkpt><trkpt lat="43.8715999" lon="11.7388378"><ele>1144.6666666666667</ele><time>2026-04-06T12:50:56.15Z</time></trkpt><trkpt lat="43.8714811" lon="11.7389727"><ele>1140.0</ele><time>2026-04-06T12:50:57.154Z</time></trkpt><trkpt lat="43.8713824" lon="11.7390942"><ele>1140.0</ele><time>2026-04-06T12:50:58.164Z</time></trkpt><trkpt lat="43.8712855" lon="11.7391904"><ele>1140.0</ele><time>2026-04-06T12:50:59.151Z</time></trkpt><trkpt lat="43.8711837" lon="11.7392653"><ele>1140.0</ele><time>2026-04-06T12:51:00.137Z</time></trkpt><trkpt lat="43.871069" lon="11.7393212"><ele>1140.0</ele><time>2026-04-06T12:51:01.139Z</time></trkpt><trkpt lat="43.8709493" lon="11.7393338"><ele>1143.0</ele><time>2026-04-06T12:51:02.154Z</time></trkpt><trkpt lat="43.8708292" lon="11.7393023"><ele>1146.0</ele><time>2026-04-06T12:51:03.15Z</time></trkpt><trkpt lat="43.8707288" lon="11.739256"><ele>1149.0</ele><time>2026-04-06T12:51:04.17Z</time></trkpt><trkpt lat="43.8706353" lon="11.739199"><ele>1152.0</ele><time>2026-04-06T12:51:05.151Z</time></trkpt><trkpt lat="43.870554" lon="11.7391585"><ele>1155.0</ele><time>2026-04-06T12:51:06.156Z</time></trkpt><trkpt lat="43.8704663" lon="11.7391162"><ele>1155.0</ele><time>2026-04-06T12:51:08.155Z</time></trkpt><trkpt lat="43.8704032" lon="11.7390901"><ele>1155.0</ele><time>2026-04-06T12:51:10.168Z</time></trkpt><trkpt lat="43.8704635" lon="11.73905"><ele>1155.0</ele><time>2026-04-06T12:51:37.136Z</time></trkpt><trkpt lat="43.8704162" lon="11.7391089"><ele>1155.0</ele><time>2026-04-06T12:52:38.146Z</time></trkpt><trkpt lat="43.8703476" lon="11.7390306"><ele>1155.0</ele><time>2026-04-06T12:53:23.142Z</time></trkpt><trkpt lat="43.870308" lon="11.7391239"><ele>1155.0</ele><time>2026-04-06T12:53:34.15Z</time></trkpt><trkpt lat="43.8702759" lon="11.7392466"><ele>1155.0</ele><time>2026-04-06T12:53:36.155Z</time></trkpt><trkpt lat="43.8702789" lon="11.7393465"><ele>1155.0</ele><time>2026-04-06T12:53:37.131Z</time></trkpt><trkpt lat="43.8703011" lon="11.7394435"><ele>1155.0</ele><time>2026-04-06T12:53:38.152Z</time></trkpt><trkpt lat="43.8703393" lon="11.7395356"><ele>1155.0</ele><time>2026-04-06T12:53:39.151Z</time></trkpt><trkpt lat="43.8703764" lon="11.7396464"><ele>1155.0</ele><time>2026-04-06T12:53:40.14Z</time></trkpt><trkpt lat="43.8704162" lon="11.7397621"><ele>1155.0</ele><time>2026-04-06T12:53:41.15Z</time></trkpt><trkpt lat="43.8704504" lon="11.7398739"><ele>1149.8</ele><time>2026-04-06T12:53:42.143Z</time></trkpt><trkpt lat="43.8704595" lon="11.7399753"><ele>1144.6</ele><time>2026-04-06T12:53:43.143Z</time></trkpt><trkpt lat="43.8704503" lon="11.7400941"><ele>1139.4</ele><time>2026-04-06T12:53:44.15Z</time></trkpt><trkpt lat="43.8704218" lon="11.7402096"><ele>1134.2</ele><time>2026-04-06T12:53:45.136Z</time></trkpt><trkpt lat="43.8703906" lon="11.7403363"><ele>1129.0</ele><time>2026-04-06T12:53:46.14Z</time></trkpt><trkpt lat="43.8703746" lon="11.7404807"><ele>1127.75</ele><time>2026-04-06T12:53:47.145Z</time></trkpt><trkpt lat="43.870379" lon="11.7406396"><ele>1126.5</ele><time>2026-04-06T12:53:48.154Z</time></trkpt><trkpt lat="43.8703949" lon="11.7408126"><ele>1125.25</ele><time>2026-04-06T12:53:49.137Z</time></trkpt><trkpt lat="43.8704191" lon="11.7409743"><ele>1124.0</ele><time>2026-04-06T12:53:50.155Z</time></trkpt><trkpt lat="43.8704411" lon="11.7411463"><ele>1123.75</ele><time>2026-04-06T12:53:51.161Z</time></trkpt><trkpt lat="43.8704477" lon="11.7413208"><ele>1123.5</ele><time>2026-04-06T12:53:52.149Z</time></trkpt><trkpt lat="43.8704305" lon="11.7414849"><ele>1123.25</ele><time>2026-04-06T12:53:53.147Z</time></trkpt><trkpt lat="43.8703881" lon="11.7416122"><ele>1123.0</ele><time>2026-04-06T12:53:54.152Z</time></trkpt><trkpt lat="43.8703272" lon="11.7417311"><ele>1123.0</ele><time>2026-04-06T12:53:55.147Z</time></trkpt><trkpt lat="43.8702687" lon="11.741813"><ele>1123.0</ele><time>2026-04-06T12:53:56.158Z</time></trkpt><trkpt lat="43.870192" lon="11.7418627"><ele>1123.0</ele><time>2026-04-06T12:53:57.147Z</time></trkpt><trkpt lat="43.8700912" lon="11.7418884"><ele>1123.0</ele><time>2026-04-06T12:53:58.149Z</time></trkpt><trkpt lat="43.8699801" lon="11.7418591"><ele>1123.0</ele><time>2026-04-06T12:53:59.161Z</time></trkpt><trkpt lat="43.8698664" lon="11.741745"><ele>1136.3333333333333</ele><time>2026-04-06T12:54:00.148Z</time></trkpt><trkpt lat="43.8697612" lon="11.7415737"><ele>1149.6666666666667</ele><time>2026-04-06T12:54:01.158Z</time></trkpt><trkpt lat="43.8696388" lon="11.7413755"><ele>1163.0</ele><time>2026-04-06T12:54:02.146Z</time></trkpt><trkpt lat="43.8695217" lon="11.7411892"><ele>1170.0</ele><time>2026-04-06T12:54:03.157Z</time></trkpt><trkpt lat="43.8694038" lon="11.7410048"><ele>1177.0</ele><time>2026-04-06T12:54:04.156Z</time></trkpt><trkpt lat="43.869273" lon="11.7408349"><ele>1184.0</ele><time>2026-04-06T12:54:05.152Z</time></trkpt><trkpt lat="43.86914" lon="11.7407123"><ele>1184.0</ele><time>2026-04-06T12:54:06.157Z</time></trkpt><trkpt lat="43.8690267" lon="11.7406003"><ele>1184.0</ele><time>2026-04-06T12:54:07.148Z</time></trkpt><trkpt lat="43.8689223" lon="11.7404944"><ele>1184.0</ele><time>2026-04-06T12:54:08.149Z</time></trkpt><trkpt lat="43.8688271" lon="11.7404087"><ele>1184.0</ele><time>2026-04-06T12:54:09.149Z</time></trkpt><trkpt lat="43.8687279" lon="11.7403319"><ele>1184.0</ele><time>2026-04-06T12:54:10.156Z</time></trkpt><trkpt lat="43.868632" lon="11.7402664"><ele>1184.0</ele><time>2026-04-06T12:54:11.156Z</time></trkpt><trkpt lat="43.8685512" lon="11.7402314"><ele>1184.0</ele><time>2026-04-06T12:54:12.153Z</time></trkpt><trkpt lat="43.8684815" lon="11.7402425"><ele>1184.0</ele><time>2026-04-06T12:54:13.143Z</time></trkpt><trkpt lat="43.8684213" lon="11.7403086"><ele>1184.0</ele><time>2026-04-06T12:54:14.14Z</time></trkpt><trkpt lat="43.8683786" lon="11.7404187"><ele>1184.0</ele><time>2026-04-06T12:54:15.151Z</time></trkpt><trkpt lat="43.868367" lon="11.7405593"><ele>1185.3333333333335</ele><time>2026-04-06T12:54:16.147Z</time></trkpt><trkpt lat="43.8683611" lon="11.7406867"><ele>1186.6666666666667</ele><time>2026-04-06T12:54:17.148Z</time></trkpt><trkpt lat="43.8683556" lon="11.7408355"><ele>1188.0</ele><time>2026-04-06T12:54:18.148Z</time></trkpt><trkpt lat="43.8683427" lon="11.7409655"><ele>1189.3333333333333</ele><time>2026-04-06T12:54:19.156Z</time></trkpt><trkpt lat="43.8683141" lon="11.7410639"><ele>1190.6666666666665</ele><time>2026-04-06T12:54:20.159Z</time></trkpt><trkpt lat="43.868252" lon="11.7411257"><ele>1192.0</ele><time>2026-04-06T12:54:21.16Z</time></trkpt><trkpt lat="43.868172" lon="11.7411602"><ele>1185.75</ele><time>2026-04-06T12:54:22.158Z</time></trkpt><trkpt lat="43.8680691" lon="11.7411691"><ele>1179.5</ele><time>2026-04-06T12:54:23.159Z</time></trkpt><trkpt lat="43.8679451" lon="11.7411789"><ele>1173.25</ele><time>2026-04-06T12:54:24.158Z</time></trkpt><trkpt lat="43.8677954" lon="11.7412126"><ele>1167.0</ele><time>2026-04-06T12:54:25.144Z</time></trkpt><trkpt lat="43.8676224" lon="11.7412706"><ele>1176.0</ele><time>2026-04-06T12:54:26.155Z</time></trkpt><trkpt lat="43.867473" lon="11.7413621"><ele>1185.0</ele><time>2026-04-06T12:54:27.132Z</time></trkpt><trkpt lat="43.8673322" lon="11.7414696"><ele>1194.0</ele><time>2026-04-06T12:54:28.149Z</time></trkpt><trkpt lat="43.8672046" lon="11.7415997"><ele>1194.0</ele><time>2026-04-06T12:54:29.131Z</time></trkpt><trkpt lat="43.8670924" lon="11.7416961"><ele>1194.0</ele><time>2026-04-06T12:54:30.154Z</time></trkpt><trkpt lat="43.8669897" lon="11.7417909"><ele>1194.0</ele><time>2026-04-06T12:54:31.146Z</time></trkpt><trkpt lat="43.8669008" lon="11.7418638"><ele>1194.0</ele><time>2026-04-06T12:54:32.164Z</time></trkpt><trkpt lat="43.8668203" lon="11.7419024"><ele>1194.0</ele><time>2026-04-06T12:54:33.148Z</time></trkpt><trkpt lat="43.8667032" lon="11.7418904"><ele>1196.8</ele><time>2026-04-06T12:54:35.155Z</time></trkpt><trkpt lat="43.8666566" lon="11.7417444"><ele>1199.6000000000001</ele><time>2026-04-06T12:54:37.157Z</time></trkpt><trkpt lat="43.8666715" lon="11.7416051"><ele>1202.4</ele><time>2026-04-06T12:54:38.142Z</time></trkpt><trkpt lat="43.8666837" lon="11.7414879"><ele>1205.2</ele><time>2026-04-06T12:54:39.142Z</time></trkpt><trkpt lat="43.8666839" lon="11.7413654"><ele>1208.0</ele><time>2026-04-06T12:54:40.151Z</time></trkpt><trkpt lat="43.8666627" lon="11.7412425"><ele>1208.0</ele><time>2026-04-06T12:54:41.149Z</time></trkpt><trkpt lat="43.8666234" lon="11.7411554"><ele>1208.0</ele><time>2026-04-06T12:54:42.138Z</time></trkpt><trkpt lat="43.8665509" lon="11.7411253"><ele>1208.0</ele><time>2026-04-06T12:54:43.155Z</time></trkpt><trkpt lat="43.8664543" lon="11.741137"><ele>1208.0</ele><time>2026-04-06T12:54:44.149Z</time></trkpt><trkpt lat="43.8663563" lon="11.7411855"><ele>1208.0</ele><time>2026-04-06T12:54:45.156Z</time></trkpt><trkpt lat="43.8662607" lon="11.7412763"><ele>1208.0</ele><time>2026-04-06T12:54:46.153Z</time></trkpt><trkpt lat="43.8661845" lon="11.7413862"><ele>1208.0</ele><time>2026-04-06T12:54:47.159Z</time></trkpt><trkpt lat="43.8661112" lon="11.7414792"><ele>1208.0</ele><time>2026-04-06T12:54:48.143Z</time></trkpt><trkpt lat="43.8660532" lon="11.7415539"><ele>1208.0</ele><time>2026-04-06T12:54:49.158Z</time></trkpt><trkpt lat="43.8659873" lon="11.7415454"><ele>1208.0</ele><time>2026-04-06T12:54:50.148Z</time></trkpt><trkpt lat="43.8659231" lon="11.7414068"><ele>1208.0</ele><time>2026-04-06T12:54:52.167Z</time></trkpt><trkpt lat="43.865977" lon="11.7412517"><ele>1208.0</ele><time>2026-04-06T12:54:54.151Z</time></trkpt><trkpt lat="43.8660641" lon="11.7411543"><ele>1208.0</ele><time>2026-04-06T12:54:55.146Z</time></trkpt><trkpt lat="43.8661558" lon="11.7410831"><ele>1208.0</ele><time>2026-04-06T12:54:56.156Z</time></trkpt><trkpt lat="43.8662414" lon="11.7409891"><ele>1212.5</ele><time>2026-04-06T12:54:57.148Z</time></trkpt><trkpt lat="43.8663302" lon="11.740866"><ele>1217.0</ele><time>2026-04-06T12:54:58.141Z</time></trkpt><trkpt lat="43.8664204" lon="11.7407157"><ele>1221.5</ele><time>2026-04-06T12:54:59.147Z</time></trkpt><trkpt lat="43.8664987" lon="11.7405671"><ele>1226.0</ele><time>2026-04-06T12:55:00.159Z</time></trkpt><trkpt lat="43.8665734" lon="11.7404788"><ele>1226.0</ele><time>2026-04-06T12:55:01.149Z</time></trkpt><trkpt lat="43.8666405" lon="11.7403893"><ele>1226.0</ele><time>2026-04-06T12:55:02.153Z</time></trkpt><trkpt lat="43.8667131" lon="11.7403671"><ele>1226.0</ele><time>2026-04-06T12:55:03.148Z</time></trkpt><trkpt lat="43.8668115" lon="11.7404697"><ele>1226.0</ele><time>2026-04-06T12:55:04.164Z</time></trkpt><trkpt lat="43.8669118" lon="11.7405723"><ele>1226.0</ele><time>2026-04-06T12:55:05.151Z</time></trkpt><trkpt lat="43.8670111" lon="11.7406947"><ele>1225.6</ele><time>2026-04-06T12:55:06.152Z</time></trkpt><trkpt lat="43.8671096" lon="11.7408192"><ele>1225.1999999999998</ele><time>2026-04-06T12:55:07.146Z</time></trkpt><trkpt lat="43.8671855" lon="11.7409118"><ele>1224.8000000000002</ele><time>2026-04-06T12:55:08.153Z</time></trkpt><trkpt lat="43.8672681" lon="11.7409638"><ele>1224.4</ele><time>2026-04-06T12:55:09.161Z</time></trkpt><trkpt lat="43.8673473" lon="11.7409629"><ele>1224.0</ele><time>2026-04-06T12:55:10.151Z</time></trkpt><trkpt lat="43.867414" lon="11.7409205"><ele>1224.0</ele><time>2026-04-06T12:55:11.163Z</time></trkpt><trkpt lat="43.8674014" lon="11.7407424"><ele>1224.0</ele><time>2026-04-06T12:55:13.139Z</time></trkpt><trkpt lat="43.8673264" lon="11.7406029"><ele>1224.0</ele><time>2026-04-06T12:55:14.151Z</time></trkpt><trkpt lat="43.8672593" lon="11.7404716"><ele>1224.0</ele><time>2026-04-06T12:55:15.157Z</time></trkpt><trkpt lat="43.8671868" lon="11.7403455"><ele>1229.5</ele><time>2026-04-06T12:55:16.153Z</time></trkpt><trkpt lat="43.8671145" lon="11.7402081"><ele>1235.0</ele><time>2026-04-06T12:55:17.162Z</time></trkpt><trkpt lat="43.8670371" lon="11.7400818"><ele>1240.5</ele><time>2026-04-06T12:55:18.147Z</time></trkpt><trkpt lat="43.86697" lon="11.7399624"><ele>1246.0</ele><time>2026-04-06T12:55:19.154Z</time></trkpt><trkpt lat="43.8669002" lon="11.7398487"><ele>1246.0</ele><time>2026-04-06T12:55:20.157Z</time></trkpt><trkpt lat="43.8668229" lon="11.739784"><ele>1246.0</ele><time>2026-04-06T12:55:21.155Z</time></trkpt><trkpt lat="43.8667388" lon="11.7397686"><ele>1246.0</ele><time>2026-04-06T12:55:22.156Z</time></trkpt><trkpt lat="43.8666451" lon="11.7397882"><ele>1246.0</ele><time>2026-04-06T12:55:23.171Z</time></trkpt><trkpt lat="43.866548" lon="11.7398372"><ele>1246.0</ele><time>2026-04-06T12:55:24.139Z</time></trkpt><trkpt lat="43.8664513" lon="11.7398859"><ele>1246.25</ele><time>2026-04-06T12:55:25.157Z</time></trkpt><trkpt lat="43.8663385" lon="11.7399492"><ele>1246.5</ele><time>2026-04-06T12:55:26.16Z</time></trkpt><trkpt lat="43.8662255" lon="11.7400158"><ele>1246.75</ele><time>2026-04-06T12:55:27.161Z</time></trkpt><trkpt lat="43.8661283" lon="11.7400936"><ele>1247.0</ele><time>2026-04-06T12:55:28.156Z</time></trkpt><trkpt lat="43.8660745" lon="11.7402089"><ele>1245.8</ele><time>2026-04-06T12:55:29.15Z</time></trkpt><trkpt lat="43.8660308" lon="11.7403607"><ele>1244.6</ele><time>2026-04-06T12:55:30.16Z</time></trkpt><trkpt lat="43.8659796" lon="11.7404805"><ele>1243.3999999999999</ele><time>2026-04-06T12:55:31.153Z</time></trkpt><trkpt lat="43.8659179" lon="11.7405956"><ele>1242.2</ele><time>2026-04-06T12:55:32.153Z</time></trkpt><trkpt lat="43.8658193" lon="11.7406743"><ele>1241.0</ele><time>2026-04-06T12:55:33.159Z</time></trkpt><trkpt lat="43.8657136" lon="11.7407477"><ele>1241.0</ele><time>2026-04-06T12:55:34.144Z</time></trkpt><trkpt lat="43.8655992" lon="11.7407772"><ele>1241.0</ele><time>2026-04-06T12:55:35.156Z</time></trkpt><trkpt lat="43.8654698" lon="11.740825"><ele>1241.0</ele><time>2026-04-06T12:55:36.157Z</time></trkpt><trkpt lat="43.8653242" lon="11.7408529"><ele>1241.0</ele><time>2026-04-06T12:55:37.166Z</time></trkpt><trkpt lat="43.8651735" lon="11.7408873"><ele>1243.5</ele><time>2026-04-06T12:55:38.153Z</time></trkpt><trkpt lat="43.8650374" lon="11.7409347"><ele>1246.0</ele><time>2026-04-06T12:55:39.157Z</time></trkpt><trkpt lat="43.8649095" lon="11.7410082"><ele>1248.5</ele><time>2026-04-06T12:55:40.154Z</time></trkpt><trkpt lat="43.8647991" lon="11.7410787"><ele>1251.0</ele><time>2026-04-06T12:55:41.156Z</time></trkpt><trkpt lat="43.8647083" lon="11.7411606"><ele>1251.0</ele><time>2026-04-06T12:55:42.144Z</time></trkpt><trkpt lat="43.86464" lon="11.7412645"><ele>1251.0</ele><time>2026-04-06T12:55:43.152Z</time></trkpt><trkpt lat="43.8646009" lon="11.741384"><ele>1251.0</ele><time>2026-04-06T12:55:44.152Z</time></trkpt><trkpt lat="43.8645796" lon="11.7414918"><ele>1251.0</ele><time>2026-04-06T12:55:45.166Z</time></trkpt><trkpt lat="43.8646037" lon="11.7416144"><ele>1251.0</ele><time>2026-04-06T12:55:46.147Z</time></trkpt><trkpt lat="43.8646403" lon="11.7417736"><ele>1250.25</ele><time>2026-04-06T12:55:47.158Z</time></trkpt><trkpt lat="43.8646657" lon="11.741911"><ele>1249.5</ele><time>2026-04-06T12:55:48.151Z</time></trkpt><trkpt lat="43.8646785" lon="11.7420532"><ele>1248.75</ele><time>2026-04-06T12:55:49.153Z</time></trkpt><trkpt lat="43.864652" lon="11.7422192"><ele>1248.0</ele><time>2026-04-06T12:55:50.158Z</time></trkpt><trkpt lat="43.8645994" lon="11.7423974"><ele>1248.0</ele><time>2026-04-06T12:55:51.156Z</time></trkpt><trkpt lat="43.8645173" lon="11.7425882"><ele>1248.0</ele><time>2026-04-06T12:55:52.15Z</time></trkpt><trkpt lat="43.8644306" lon="11.7427533"><ele>1248.0</ele><time>2026-04-06T12:55:53.148Z</time></trkpt><trkpt lat="43.8643316" lon="11.7429048"><ele>1252.5</ele><time>2026-04-06T12:55:54.166Z</time></trkpt><trkpt lat="43.8642222" lon="11.7430279"><ele>1257.0</ele><time>2026-04-06T12:55:55.16Z</time></trkpt><trkpt lat="43.8640981" lon="11.7431442"><ele>1261.5</ele><time>2026-04-06T12:55:56.153Z</time></trkpt><trkpt lat="43.8639743" lon="11.7432425"><ele>1266.0</ele><time>2026-04-06T12:55:57.158Z</time></trkpt><trkpt lat="43.8638155" lon="11.7433365"><ele>1266.0</ele><time>2026-04-06T12:55:58.156Z</time></trkpt><trkpt lat="43.8636422" lon="11.7434171"><ele>1266.0</ele><time>2026-04-06T12:55:59.16Z</time></trkpt><trkpt lat="43.8634694" lon="11.7434965"><ele>1266.0</ele><time>2026-04-06T12:56:00.143Z</time></trkpt><trkpt lat="43.8632936" lon="11.7435794"><ele>1263.0</ele><time>2026-04-06T12:56:01.163Z</time></trkpt><trkpt lat="43.8631139" lon="11.7436597"><ele>1260.0</ele><time>2026-04-06T12:56:02.159Z</time></trkpt><trkpt lat="43.862927" lon="11.7437511"><ele>1257.0</ele><time>2026-04-06T12:56:03.159Z</time></trkpt><trkpt lat="43.8627452" lon="11.7438419"><ele>1266.0</ele><time>2026-04-06T12:56:04.155Z</time></trkpt><trkpt lat="43.8625835" lon="11.7439427"><ele>1275.0</ele><time>2026-04-06T12:56:05.151Z</time></trkpt><trkpt lat="43.8624521" lon="11.7440539"><ele>1284.0</ele><time>2026-04-06T12:56:06.155Z</time></trkpt><trkpt lat="43.8623372" lon="11.7441632"><ele>1284.0</ele><time>2026-04-06T12:56:07.156Z</time></trkpt><trkpt lat="43.8622241" lon="11.7442534"><ele>1284.0</ele><time>2026-04-06T12:56:08.151Z</time></trkpt><trkpt lat="43.8621289" lon="11.7443329"><ele>1284.0</ele><time>2026-04-06T12:56:09.154Z</time></trkpt><trkpt lat="43.8620313" lon="11.7443809"><ele>1284.0</ele><time>2026-04-06T12:56:10.157Z</time></trkpt><trkpt lat="43.8619211" lon="11.7443999"><ele>1284.0</ele><time>2026-04-06T12:56:11.16Z</time></trkpt><trkpt lat="43.8617911" lon="11.7443781"><ele>1284.0</ele><time>2026-04-06T12:56:12.152Z</time></trkpt><trkpt lat="43.8616673" lon="11.7443535"><ele>1284.0</ele><time>2026-04-06T12:56:13.159Z</time></trkpt><trkpt lat="43.8615364" lon="11.7443183"><ele>1284.0</ele><time>2026-04-06T12:56:14.162Z</time></trkpt><trkpt lat="43.8614006" lon="11.7442875"><ele>1288.5</ele><time>2026-04-06T12:56:15.154Z</time></trkpt><trkpt lat="43.8612422" lon="11.7442641"><ele>1293.0</ele><time>2026-04-06T12:56:16.156Z</time></trkpt><trkpt lat="43.8611016" lon="11.7442483"><ele>1297.5</ele><time>2026-04-06T12:56:17.154Z</time></trkpt><trkpt lat="43.860971" lon="11.7442521"><ele>1302.0</ele><time>2026-04-06T12:56:18.161Z</time></trkpt><trkpt lat="43.8608303" lon="11.7442695"><ele>1302.1999999999998</ele><time>2026-04-06T12:56:19.151Z</time></trkpt><trkpt lat="43.8607059" lon="11.7442871"><ele>1302.4</ele><time>2026-04-06T12:56:20.145Z</time></trkpt><trkpt lat="43.8605878" lon="11.7442943"><ele>1302.6</ele><time>2026-04-06T12:56:21.142Z</time></trkpt><trkpt lat="43.8604828" lon="11.7442874"><ele>1302.8000000000002</ele><time>2026-04-06T12:56:22.146Z</time></trkpt><trkpt lat="43.8603863" lon="11.7442803"><ele>1303.0</ele><time>2026-04-06T12:56:23.144Z</time></trkpt><trkpt lat="43.8603078" lon="11.7442718"><ele>1303.0</ele><time>2026-04-06T12:56:24.144Z</time></trkpt><trkpt lat="43.8601962" lon="11.7442855"><ele>1303.0</ele><time>2026-04-06T12:56:26.142Z</time></trkpt><trkpt lat="43.8601157" lon="11.7443058"><ele>1303.0</ele><time>2026-04-06T12:56:28.141Z</time></trkpt><trkpt lat="43.8600382" lon="11.7443205"><ele>1303.0</ele><time>2026-04-06T12:56:30.151Z</time></trkpt><trkpt lat="43.8599626" lon="11.7443506"><ele>1303.0</ele><time>2026-04-06T12:56:34.144Z</time></trkpt><trkpt lat="43.8598936" lon="11.7443764"><ele>1303.0</ele><time>2026-04-06T12:56:38.16Z</time></trkpt><trkpt lat="43.8598054" lon="11.7444099"><ele>1302.2857142857142</ele><time>2026-04-06T12:56:41.159Z</time></trkpt><trkpt lat="43.85973" lon="11.7444364"><ele>1301.5714285714284</ele><time>2026-04-06T12:56:44.148Z</time></trkpt><trkpt lat="43.8596505" lon="11.7444455"><ele>1300.8571428571427</ele><time>2026-04-06T12:56:48.161Z</time></trkpt><trkpt lat="43.8595901" lon="11.7444739"><ele>1300.142857142857</ele><time>2026-04-06T12:56:51.149Z</time></trkpt><trkpt lat="43.8595218" lon="11.7444982"><ele>1299.4285714285713</ele><time>2026-04-06T12:56:55.165Z</time></trkpt><trkpt lat="43.8594509" lon="11.7445006"><ele>1298.7142857142856</ele><time>2026-04-06T12:56:58.147Z</time></trkpt><trkpt lat="43.8593772" lon="11.7444437"><ele>1298.0</ele><time>2026-04-06T12:57:01.155Z</time></trkpt><trkpt lat="43.8593748" lon="11.7443305"><ele>1298.0</ele><time>2026-04-06T12:57:04.152Z</time></trkpt><trkpt lat="43.8594409" lon="11.7442908"><ele>1298.0</ele><time>2026-04-06T12:57:08.16Z</time></trkpt><trkpt lat="43.8594946" lon="11.7443512"><ele>1298.0</ele><time>2026-04-06T12:57:12.158Z</time></trkpt><trkpt lat="43.8595056" lon="11.7444587"><ele>1298.0</ele><time>2026-04-06T12:57:52.16Z</time></trkpt><trkpt lat="43.8594642" lon="11.7445345"><ele>1298.0</ele><time>2026-04-06T12:57:54.163Z</time></trkpt><trkpt lat="43.8593477" lon="11.7446155"><ele>1298.0</ele><time>2026-04-06T12:57:56.161Z</time></trkpt><trkpt lat="43.8592562" lon="11.7446569"><ele>1297.0</ele><time>2026-04-06T12:57:57.149Z</time></trkpt><trkpt lat="43.8591639" lon="11.7447075"><ele>1296.0</ele><time>2026-04-06T12:57:58.162Z</time></trkpt><trkpt lat="43.8590669" lon="11.744772"><ele>1295.0</ele><time>2026-04-06T12:57:59.153Z</time></trkpt><trkpt lat="43.8589788" lon="11.7448504"><ele>1294.0</ele><time>2026-04-06T12:58:00.154Z</time></trkpt><trkpt lat="43.8588803" lon="11.7449441"><ele>1293.0</ele><time>2026-04-06T12:58:01.154Z</time></trkpt><trkpt lat="43.8587789" lon="11.7450496"><ele>1293.0</ele><time>2026-04-06T12:58:02.158Z</time></trkpt><trkpt lat="43.858674" lon="11.7451608"><ele>1293.0</ele><time>2026-04-06T12:58:03.154Z</time></trkpt><trkpt lat="43.8585484" lon="11.7452747"><ele>1293.0</ele><time>2026-04-06T12:58:04.155Z</time></trkpt><trkpt lat="43.858415" lon="11.7453779"><ele>1293.0</ele><time>2026-04-06T12:58:05.15Z</time></trkpt><trkpt lat="43.8582788" lon="11.745477"><ele>1295.5</ele><time>2026-04-06T12:58:06.142Z</time></trkpt><trkpt lat="43.858151" lon="11.745576"><ele>1298.0</ele><time>2026-04-06T12:58:07.156Z</time></trkpt><trkpt lat="43.8580247" lon="11.7456822"><ele>1300.5</ele><time>2026-04-06T12:58:08.15Z</time></trkpt><trkpt lat="43.8579006" lon="11.7457913"><ele>1303.0</ele><time>2026-04-06T12:58:09.164Z</time></trkpt><trkpt lat="43.8577795" lon="11.7458933"><ele>1303.0</ele><time>2026-04-06T12:58:10.156Z</time></trkpt><trkpt lat="43.8576648" lon="11.7460104"><ele>1303.0</ele><time>2026-04-06T12:58:11.161Z</time></trkpt><trkpt lat="43.8575471" lon="11.7461211"><ele>1303.0</ele><time>2026-04-06T12:58:12.144Z</time></trkpt><trkpt lat="43.8574415" lon="11.7462264"><ele>1303.0</ele><time>2026-04-06T12:58:13.147Z</time></trkpt><trkpt lat="43.8573347" lon="11.7463289"><ele>1301.2</ele><time>2026-04-06T12:58:14.162Z</time></trkpt><trkpt lat="43.857255" lon="11.7464244"><ele>1299.4</ele><time>2026-04-06T12:58:15.155Z</time></trkpt><trkpt lat="43.8572012" lon="11.7465227"><ele>1297.6000000000001</ele><time>2026-04-06T12:58:16.153Z</time></trkpt><trkpt lat="43.8571753" lon="11.7466173"><ele>1295.8000000000002</ele><time>2026-04-06T12:58:17.16Z</time></trkpt><trkpt lat="43.8571905" lon="11.7467325"><ele>1294.0</ele><time>2026-04-06T12:58:18.152Z</time></trkpt><trkpt lat="43.8572318" lon="11.7468578"><ele>1293.4</ele><time>2026-04-06T12:58:19.155Z</time></trkpt><trkpt lat="43.8572884" lon="11.7469696"><ele>1292.8000000000002</ele><time>2026-04-06T12:58:20.15Z</time></trkpt><trkpt lat="43.8573425" lon="11.7470735"><ele>1292.1999999999998</ele><time>2026-04-06T12:58:21.157Z</time></trkpt><trkpt lat="43.8573829" lon="11.747209"><ele>1291.6</ele><time>2026-04-06T12:58:22.156Z</time></trkpt><trkpt lat="43.8574166" lon="11.7473591"><ele>1291.0</ele><time>2026-04-06T12:58:23.158Z</time></trkpt><trkpt lat="43.8574006" lon="11.7475267"><ele>1291.0</ele><time>2026-04-06T12:58:24.163Z</time></trkpt><trkpt lat="43.8573189" lon="11.7476644"><ele>1291.0</ele><time>2026-04-06T12:58:25.155Z</time></trkpt><trkpt lat="43.857216" lon="11.7477717"><ele>1291.0</ele><time>2026-04-06T12:58:26.147Z</time></trkpt><trkpt lat="43.8571156" lon="11.7478421"><ele>1291.0</ele><time>2026-04-06T12:58:27.155Z</time></trkpt><trkpt lat="43.8570052" lon="11.7479048"><ele>1294.5</ele><time>2026-04-06T12:58:28.146Z</time></trkpt><trkpt lat="43.8568947" lon="11.7479815"><ele>1298.0</ele><time>2026-04-06T12:58:29.162Z</time></trkpt><trkpt lat="43.8567778" lon="11.7481011"><ele>1301.5</ele><time>2026-04-06T12:58:30.147Z</time></trkpt><trkpt lat="43.8566856" lon="11.7482535"><ele>1305.0</ele><time>2026-04-06T12:58:31.137Z</time></trkpt><trkpt lat="43.8566247" lon="11.748445"><ele>1293.6666666666667</ele><time>2026-04-06T12:58:32.156Z</time></trkpt><trkpt lat="43.8565931" lon="11.7486599"><ele>1282.3333333333335</ele><time>2026-04-06T12:58:33.141Z</time></trkpt><trkpt lat="43.8565682" lon="11.7488665"><ele>1271.0</ele><time>2026-04-06T12:58:34.145Z</time></trkpt><trkpt lat="43.8565723" lon="11.7490729"><ele>1271.0</ele><time>2026-04-06T12:58:35.17Z</time></trkpt><trkpt lat="43.8565794" lon="11.7492848"><ele>1271.0</ele><time>2026-04-06T12:58:36.164Z</time></trkpt><trkpt lat="43.8565692" lon="11.7494829"><ele>1271.0</ele><time>2026-04-06T12:58:37.143Z</time></trkpt><trkpt lat="43.8565491" lon="11.7496819"><ele>1271.0</ele><time>2026-04-06T12:58:38.163Z</time></trkpt><trkpt lat="43.8565313" lon="11.7498667"><ele>1271.0</ele><time>2026-04-06T12:58:39.169Z</time></trkpt><trkpt lat="43.8565228" lon="11.7500451"><ele>1271.0</ele><time>2026-04-06T12:58:40.152Z</time></trkpt><trkpt lat="43.8565078" lon="11.7501979"><ele>1271.0</ele><time>2026-04-06T12:58:41.157Z</time></trkpt><trkpt lat="43.8564576" lon="11.7503306"><ele>1271.0</ele><time>2026-04-06T12:58:42.154Z</time></trkpt><trkpt lat="43.8563736" lon="11.750405"><ele>1271.0</ele><time>2026-04-06T12:58:43.149Z</time></trkpt><trkpt lat="43.8562691" lon="11.75043"><ele>1272.0</ele><time>2026-04-06T12:58:44.146Z</time></trkpt><trkpt lat="43.856157" lon="11.7504317"><ele>1273.0</ele><time>2026-04-06T12:58:45.151Z</time></trkpt><trkpt lat="43.8560283" lon="11.750387"><ele>1274.0</ele><time>2026-04-06T12:58:46.141Z</time></trkpt><trkpt lat="43.855903" lon="11.7503428"><ele>1275.0</ele><time>2026-04-06T12:58:47.147Z</time></trkpt><trkpt lat="43.8557659" lon="11.7503071"><ele>1275.0</ele><time>2026-04-06T12:58:48.151Z</time></trkpt><trkpt lat="43.855643" lon="11.7503064"><ele>1275.0</ele><time>2026-04-06T12:58:49.151Z</time></trkpt><trkpt lat="43.8555272" lon="11.750335"><ele>1275.0</ele><time>2026-04-06T12:58:50.161Z</time></trkpt><trkpt lat="43.8554057" lon="11.7503976"><ele>1275.0</ele><time>2026-04-06T12:58:51.138Z</time></trkpt><trkpt lat="43.8552938" lon="11.7504932"><ele>1275.0</ele><time>2026-04-06T12:58:52.15Z</time></trkpt><trkpt lat="43.8551772" lon="11.7506134"><ele>1275.0</ele><time>2026-04-06T12:58:53.159Z</time></trkpt><trkpt lat="43.8550562" lon="11.750745"><ele>1275.0</ele><time>2026-04-06T12:58:54.151Z</time></trkpt><trkpt lat="43.8549422" lon="11.7509024"><ele>1274.5</ele><time>2026-04-06T12:58:55.162Z</time></trkpt><trkpt lat="43.8548323" lon="11.7510573"><ele>1274.0</ele><time>2026-04-06T12:58:56.15Z</time></trkpt><trkpt lat="43.854739" lon="11.7512103"><ele>1273.5</ele><time>2026-04-06T12:58:57.154Z</time></trkpt><trkpt lat="43.8546478" lon="11.7513376"><ele>1273.0</ele><time>2026-04-06T12:58:58.139Z</time></trkpt><trkpt lat="43.854547" lon="11.7514525"><ele>1273.0</ele><time>2026-04-06T12:58:59.157Z</time></trkpt><trkpt lat="43.8544363" lon="11.7515185"><ele>1273.0</ele><time>2026-04-06T12:59:00.15Z</time></trkpt><trkpt lat="43.8543149" lon="11.7515322"><ele>1273.0</ele><time>2026-04-06T12:59:01.154Z</time></trkpt><trkpt lat="43.8541992" lon="11.7515334"><ele>1273.0</ele><time>2026-04-06T12:59:02.152Z</time></trkpt><trkpt lat="43.8540897" lon="11.7515678"><ele>1267.5</ele><time>2026-04-06T12:59:03.149Z</time></trkpt><trkpt lat="43.8539936" lon="11.7516585"><ele>1262.0</ele><time>2026-04-06T12:59:04.154Z</time></trkpt><trkpt lat="43.8539159" lon="11.7517993"><ele>1256.5</ele><time>2026-04-06T12:59:05.144Z</time></trkpt><trkpt lat="43.8538444" lon="11.7519516"><ele>1251.0</ele><time>2026-04-06T12:59:06.156Z</time></trkpt><trkpt lat="43.8537944" lon="11.7521239"><ele>1251.0</ele><time>2026-04-06T12:59:07.156Z</time></trkpt><trkpt lat="43.8537772" lon="11.7523099"><ele>1251.0</ele><time>2026-04-06T12:59:08.153Z</time></trkpt><trkpt lat="43.8537716" lon="11.7524893"><ele>1251.0</ele><time>2026-04-06T12:59:09.156Z</time></trkpt><trkpt lat="43.8537695" lon="11.7526646"><ele>1251.0</ele><time>2026-04-06T12:59:10.144Z</time></trkpt><trkpt lat="43.8537612" lon="11.7528209"><ele>1253.6666666666667</ele><time>2026-04-06T12:59:11.155Z</time></trkpt><trkpt lat="43.8537546" lon="11.7529398"><ele>1256.3333333333333</ele><time>2026-04-06T12:59:12.174Z</time></trkpt><trkpt lat="43.8537368" lon="11.7530236"><ele>1259.0</ele><time>2026-04-06T12:59:13.146Z</time></trkpt><trkpt lat="43.8536499" lon="11.7530367"><ele>1261.6666666666665</ele><time>2026-04-06T12:59:15.146Z</time></trkpt><trkpt lat="43.8536188" lon="11.7529032"><ele>1264.3333333333333</ele><time>2026-04-06T12:59:17.156Z</time></trkpt><trkpt lat="43.8536367" lon="11.7528103"><ele>1267.0</ele><time>2026-04-06T12:59:18.142Z</time></trkpt><trkpt lat="43.8536687" lon="11.7527082"><ele>1263.8</ele><time>2026-04-06T12:59:19.15Z</time></trkpt><trkpt lat="43.853705" lon="11.7525834"><ele>1260.6</ele><time>2026-04-06T12:59:20.151Z</time></trkpt><trkpt lat="43.853725" lon="11.7524562"><ele>1257.3999999999999</ele><time>2026-04-06T12:59:21.135Z</time></trkpt><trkpt lat="43.8537248" lon="11.7523054"><ele>1254.2</ele><time>2026-04-06T12:59:22.155Z</time></trkpt><trkpt lat="43.8537171" lon="11.7521556"><ele>1251.0</ele><time>2026-04-06T12:59:23.147Z</time></trkpt><trkpt lat="43.8537042" lon="11.7519908"><ele>1247.25</ele><time>2026-04-06T12:59:24.155Z</time></trkpt><trkpt lat="43.8537187" lon="11.7518151"><ele>1243.5</ele><time>2026-04-06T12:59:25.151Z</time></trkpt><trkpt lat="43.8537582" lon="11.7516335"><ele>1239.75</ele><time>2026-04-06T12:59:26.163Z</time></trkpt><trkpt lat="43.8538102" lon="11.7514685"><ele>1236.0</ele><time>2026-04-06T12:59:27.158Z</time></trkpt><trkpt lat="43.8538897" lon="11.7513458"><ele>1236.0</ele><time>2026-04-06T12:59:28.143Z</time></trkpt><trkpt lat="43.8539942" lon="11.7512863"><ele>1236.0</ele><time>2026-04-06T12:59:29.172Z</time></trkpt><trkpt lat="43.8541036" lon="11.7512531"><ele>1236.0</ele><time>2026-04-06T12:59:30.149Z</time></trkpt><trkpt lat="43.854209" lon="11.751234"><ele>1236.0</ele><time>2026-04-06T12:59:31.148Z</time></trkpt><trkpt lat="43.8543145" lon="11.7511962"><ele>1236.0</ele><time>2026-04-06T12:59:32.145Z</time></trkpt><trkpt lat="43.8544125" lon="11.751105"><ele>1237.5</ele><time>2026-04-06T12:59:33.153Z</time></trkpt><trkpt lat="43.8544844" lon="11.7509605"><ele>1239.0</ele><time>2026-04-06T12:59:34.142Z</time></trkpt><trkpt lat="43.8545267" lon="11.750775"><ele>1240.5</ele><time>2026-04-06T12:59:35.152Z</time></trkpt><trkpt lat="43.8545552" lon="11.7506226"><ele>1242.0</ele><time>2026-04-06T12:59:36.143Z</time></trkpt><trkpt lat="43.8545877" lon="11.7504396"><ele>1242.0</ele><time>2026-04-06T12:59:37.153Z</time></trkpt><trkpt lat="43.8546095" lon="11.750271"><ele>1242.0</ele><time>2026-04-06T12:59:38.139Z</time></trkpt><trkpt lat="43.8546758" lon="11.7501411"><ele>1242.0</ele><time>2026-04-06T12:59:39.156Z</time></trkpt><trkpt lat="43.8547627" lon="11.7500591"><ele>1242.0</ele><time>2026-04-06T12:59:40.137Z</time></trkpt><trkpt lat="43.8548563" lon="11.7499518"><ele>1237.0</ele><time>2026-04-06T12:59:41.17Z</time></trkpt><trkpt lat="43.8549303" lon="11.7498234"><ele>1232.0</ele><time>2026-04-06T12:59:42.144Z</time></trkpt><trkpt lat="43.854993" lon="11.749681"><ele>1227.0</ele><time>2026-04-06T12:59:43.159Z</time></trkpt><trkpt lat="43.8550525" lon="11.7495277"><ele>1222.0</ele><time>2026-04-06T12:59:44.155Z</time></trkpt><trkpt lat="43.8551139" lon="11.7494213"><ele>1222.8</ele><time>2026-04-06T12:59:45.14Z</time></trkpt><trkpt lat="43.8552074" lon="11.7493779"><ele>1223.6</ele><time>2026-04-06T12:59:46.163Z</time></trkpt><trkpt lat="43.8553294" lon="11.7493992"><ele>1224.3999999999999</ele><time>2026-04-06T12:59:47.146Z</time></trkpt><trkpt lat="43.8554472" lon="11.7494179"><ele>1225.2</ele><time>2026-04-06T12:59:48.141Z</time></trkpt><trkpt lat="43.8555533" lon="11.749409"><ele>1226.0</ele><time>2026-04-06T12:59:49.155Z</time></trkpt><trkpt lat="43.8556403" lon="11.7493597"><ele>1226.0</ele><time>2026-04-06T12:59:50.146Z</time></trkpt><trkpt lat="43.8556839" lon="11.7492851"><ele>1226.0</ele><time>2026-04-06T12:59:51.156Z</time></trkpt><trkpt lat="43.8557089" lon="11.7491759"><ele>1226.0</ele><time>2026-04-06T12:59:52.151Z</time></trkpt><trkpt lat="43.8556721" lon="11.7490391"><ele>1226.0</ele><time>2026-04-06T12:59:53.154Z</time></trkpt><trkpt lat="43.8556021" lon="11.7489128"><ele>1226.0</ele><time>2026-04-06T12:59:54.139Z</time></trkpt><trkpt lat="43.8555361" lon="11.7487899"><ele>1226.0</ele><time>2026-04-06T12:59:55.146Z</time></trkpt><trkpt lat="43.8555118" lon="11.748633"><ele>1226.0</ele><time>2026-04-06T12:59:56.151Z</time></trkpt><trkpt lat="43.8555042" lon="11.7484944"><ele>1226.0</ele><time>2026-04-06T12:59:57.16Z</time></trkpt><trkpt lat="43.8555383" lon="11.7483463"><ele>1226.0</ele><time>2026-04-06T12:59:58.143Z</time></trkpt><trkpt lat="43.8555835" lon="11.7482217"><ele>1226.0</ele><time>2026-04-06T12:59:59.167Z</time></trkpt><trkpt lat="43.8556232" lon="11.7480724"><ele>1225.6</ele><time>2026-04-06T13:00:00.15Z</time></trkpt><trkpt lat="43.8556146" lon="11.7479802"><ele>1225.1999999999998</ele><time>2026-04-06T13:00:01.155Z</time></trkpt><trkpt lat="43.855537" lon="11.7479109"><ele>1224.8000000000002</ele><time>2026-04-06T13:00:02.135Z</time></trkpt><trkpt lat="43.8553969" lon="11.7478878"><ele>1224.4</ele><time>2026-04-06T13:00:03.15Z</time></trkpt><trkpt lat="43.8552501" lon="11.7479026"><ele>1224.0</ele><time>2026-04-06T13:00:04.159Z</time></trkpt><trkpt lat="43.8551228" lon="11.7479493"><ele>1217.25</ele><time>2026-04-06T13:00:05.149Z</time></trkpt><trkpt lat="43.8549966" lon="11.7480078"><ele>1210.5</ele><time>2026-04-06T13:00:06.161Z</time></trkpt><trkpt lat="43.8549012" lon="11.7480307"><ele>1203.75</ele><time>2026-04-06T13:00:07.147Z</time></trkpt><trkpt lat="43.8547828" lon="11.748008"><ele>1197.0</ele><time>2026-04-06T13:00:08.157Z</time></trkpt><trkpt lat="43.8546786" lon="11.747957"><ele>1197.0</ele><time>2026-04-06T13:00:09.151Z</time></trkpt><trkpt lat="43.8546606" lon="11.7477852"><ele>1197.0</ele><time>2026-04-06T13:00:10.162Z</time></trkpt><trkpt lat="43.8547366" lon="11.7475697"><ele>1197.0</ele><time>2026-04-06T13:00:11.161Z</time></trkpt><trkpt lat="43.8548294" lon="11.7473519"><ele>1197.6666666666667</ele><time>2026-04-06T13:00:12.15Z</time></trkpt><trkpt lat="43.854911" lon="11.7471576"><ele>1198.3333333333335</ele><time>2026-04-06T13:00:13.151Z</time></trkpt><trkpt lat="43.8549844" lon="11.746953"><ele>1199.0</ele><time>2026-04-06T13:00:14.139Z</time></trkpt><trkpt lat="43.8550644" lon="11.7467429"><ele>1209.6666666666667</ele><time>2026-04-06T13:00:15.153Z</time></trkpt><trkpt lat="43.8551353" lon="11.7465392"><ele>1220.3333333333333</ele><time>2026-04-06T13:00:16.16Z</time></trkpt><trkpt lat="43.855206" lon="11.7463308"><ele>1231.0</ele><time>2026-04-06T13:00:17.14Z</time></trkpt><trkpt lat="43.8552801" lon="11.7461109"><ele>1223.3333333333333</ele><time>2026-04-06T13:00:18.147Z</time></trkpt><trkpt lat="43.8553598" lon="11.7459074"><ele>1215.6666666666667</ele><time>2026-04-06T13:00:19.139Z</time></trkpt><trkpt lat="43.8554567" lon="11.7457029"><ele>1208.0</ele><time>2026-04-06T13:00:20.156Z</time></trkpt><trkpt lat="43.8555514" lon="11.7455098"><ele>1208.0</ele><time>2026-04-06T13:00:21.154Z</time></trkpt><trkpt lat="43.8556514" lon="11.7453213"><ele>1208.0</ele><time>2026-04-06T13:00:22.149Z</time></trkpt><trkpt lat="43.8557394" lon="11.7451393"><ele>1208.0</ele><time>2026-04-06T13:00:23.158Z</time></trkpt><trkpt lat="43.8558141" lon="11.7449694"><ele>1202.0</ele><time>2026-04-06T13:00:24.153Z</time></trkpt><trkpt lat="43.8558765" lon="11.7448075"><ele>1196.0</ele><time>2026-04-06T13:00:25.137Z</time></trkpt><trkpt lat="43.8559092" lon="11.7446435"><ele>1190.0</ele><time>2026-04-06T13:00:26.154Z</time></trkpt><trkpt lat="43.855904" lon="11.7444925"><ele>1184.0</ele><time>2026-04-06T13:00:27.153Z</time></trkpt><trkpt lat="43.8558573" lon="11.7443441"><ele>1182.25</ele><time>2026-04-06T13:00:28.133Z</time></trkpt><trkpt lat="43.8557987" lon="11.7442087"><ele>1180.5</ele><time>2026-04-06T13:00:29.14Z</time></trkpt><trkpt lat="43.8557211" lon="11.7440715"><ele>1178.75</ele><time>2026-04-06T13:00:30.137Z</time></trkpt><trkpt lat="43.8556213" lon="11.7439496"><ele>1177.0</ele><time>2026-04-06T13:00:31.15Z</time></trkpt><trkpt lat="43.8555107" lon="11.7438645"><ele>1177.0</ele><time>2026-04-06T13:00:32.159Z</time></trkpt><trkpt lat="43.8554004" lon="11.7438244"><ele>1177.0</ele><time>2026-04-06T13:00:33.152Z</time></trkpt><trkpt lat="43.8553077" lon="11.7437629"><ele>1177.0</ele><time>2026-04-06T13:00:34.144Z</time></trkpt><trkpt lat="43.8552316" lon="11.7436827"><ele>1177.0</ele><time>2026-04-06T13:00:35.152Z</time></trkpt><trkpt lat="43.8551773" lon="11.7435616"><ele>1177.0</ele><time>2026-04-06T13:00:36.166Z</time></trkpt><trkpt lat="43.8551417" lon="11.7433689"><ele>1173.5</ele><time>2026-04-06T13:00:37.156Z</time></trkpt><trkpt lat="43.8551114" lon="11.7431799"><ele>1170.0</ele><time>2026-04-06T13:00:38.159Z</time></trkpt><trkpt lat="43.8550747" lon="11.7430095"><ele>1166.5</ele><time>2026-04-06T13:00:39.152Z</time></trkpt><trkpt lat="43.8550366" lon="11.7428708"><ele>1163.0</ele><time>2026-04-06T13:00:40.156Z</time></trkpt><trkpt lat="43.8549823" lon="11.7427693"><ele>1163.0</ele><time>2026-04-06T13:00:41.151Z</time></trkpt><trkpt lat="43.854921" lon="11.7427058"><ele>1163.0</ele><time>2026-04-06T13:00:42.15Z</time></trkpt><trkpt lat="43.8548278" lon="11.7427532"><ele>1163.0</ele><time>2026-04-06T13:00:43.155Z</time></trkpt><trkpt lat="43.8547438" lon="11.7428497"><ele>1163.0</ele><time>2026-04-06T13:00:44.151Z</time></trkpt><trkpt lat="43.8546609" lon="11.7429966"><ele>1163.0</ele><time>2026-04-06T13:00:45.161Z</time></trkpt><trkpt lat="43.8546196" lon="11.7431859"><ele>1163.0</ele><time>2026-04-06T13:00:46.156Z</time></trkpt><trkpt lat="43.8545893" lon="11.7433778"><ele>1163.0</ele><time>2026-04-06T13:00:47.151Z</time></trkpt><trkpt lat="43.8545846" lon="11.7435835"><ele>1163.0</ele><time>2026-04-06T13:00:48.157Z</time></trkpt><trkpt lat="43.8546318" lon="11.7437725"><ele>1163.0</ele><time>2026-04-06T13:00:49.157Z</time></trkpt><trkpt lat="43.8547323" lon="11.7439468"><ele>1160.25</ele><time>2026-04-06T13:00:50.152Z</time></trkpt><trkpt lat="43.854854" lon="11.7440709"><ele>1157.5</ele><time>2026-04-06T13:00:51.163Z</time></trkpt><trkpt lat="43.8549876" lon="11.7441518"><ele>1154.75</ele><time>2026-04-06T13:00:52.147Z</time></trkpt><trkpt lat="43.8551129" lon="11.7442124"><ele>1152.0</ele><time>2026-04-06T13:00:53.156Z</time></trkpt><trkpt lat="43.8552241" lon="11.7442922"><ele>1158.4</ele><time>2026-04-06T13:00:54.16Z</time></trkpt><trkpt lat="43.8553069" lon="11.7443892"><ele>1164.8000000000002</ele><time>2026-04-06T13:00:55.165Z</time></trkpt><trkpt lat="43.8553615" lon="11.7445087"><ele>1171.2</ele><time>2026-04-06T13:00:56.162Z</time></trkpt><trkpt lat="43.8553453" lon="11.7446609"><ele>1177.6000000000001</ele><time>2026-04-06T13:00:57.145Z</time></trkpt><trkpt lat="43.8552814" lon="11.7448024"><ele>1184.0</ele><time>2026-04-06T13:00:58.146Z</time></trkpt><trkpt lat="43.8552056" lon="11.7449453"><ele>1180.25</ele><time>2026-04-06T13:00:59.152Z</time></trkpt><trkpt lat="43.8551031" lon="11.7450542"><ele>1176.5</ele><time>2026-04-06T13:01:00.153Z</time></trkpt><trkpt lat="43.8549809" lon="11.745181"><ele>1172.75</ele><time>2026-04-06T13:01:01.164Z</time></trkpt><trkpt lat="43.8548512" lon="11.7453258"><ele>1169.0</ele><time>2026-04-06T13:01:02.143Z</time></trkpt><trkpt lat="43.8547346" lon="11.7454828"><ele>1169.0</ele><time>2026-04-06T13:01:03.162Z</time></trkpt><trkpt lat="43.8546184" lon="11.7456624"><ele>1169.0</ele><time>2026-04-06T13:01:04.154Z</time></trkpt><trkpt lat="43.8544982" lon="11.7458448"><ele>1169.0</ele><time>2026-04-06T13:01:05.161Z</time></trkpt><trkpt lat="43.8543953" lon="11.7460351"><ele>1174.3333333333335</ele><time>2026-04-06T13:01:06.148Z</time></trkpt><trkpt lat="43.854307" lon="11.7462213"><ele>1179.6666666666667</ele><time>2026-04-06T13:01:07.158Z</time></trkpt><trkpt lat="43.8542148" lon="11.746402"><ele>1185.0</ele><time>2026-04-06T13:01:08.152Z</time></trkpt><trkpt lat="43.8541248" lon="11.7465855"><ele>1177.6666666666667</ele><time>2026-04-06T13:01:09.157Z</time></trkpt><trkpt lat="43.8540377" lon="11.7467749"><ele>1170.3333333333335</ele><time>2026-04-06T13:01:10.139Z</time></trkpt><trkpt lat="43.8539562" lon="11.7469546"><ele>1163.0</ele><time>2026-04-06T13:01:11.148Z</time></trkpt><trkpt lat="43.8538714" lon="11.7471365"><ele>1163.0</ele><time>2026-04-06T13:01:12.151Z</time></trkpt><trkpt lat="43.853797" lon="11.7473028"><ele>1163.0</ele><time>2026-04-06T13:01:13.148Z</time></trkpt><trkpt lat="43.8537405" lon="11.7474376"><ele>1163.0</ele><time>2026-04-06T13:01:14.147Z</time></trkpt><trkpt lat="43.8536805" lon="11.7475472"><ele>1163.0</ele><time>2026-04-06T13:01:15.144Z</time></trkpt><trkpt lat="43.8536211" lon="11.7476364"><ele>1163.0</ele><time>2026-04-06T13:01:16.155Z</time></trkpt><trkpt lat="43.8535452" lon="11.7477087"><ele>1163.0</ele><time>2026-04-06T13:01:17.15Z</time></trkpt><trkpt lat="43.8534779" lon="11.7477094"><ele>1163.0</ele><time>2026-04-06T13:01:18.149Z</time></trkpt><trkpt lat="43.8534324" lon="11.7476198"><ele>1163.0</ele><time>2026-04-06T13:01:19.141Z</time></trkpt><trkpt lat="43.8534161" lon="11.7475076"><ele>1163.0</ele><time>2026-04-06T13:01:20.138Z</time></trkpt><trkpt lat="43.8534903" lon="11.7473636"><ele>1163.0</ele><time>2026-04-06T13:01:22.144Z</time></trkpt><trkpt lat="43.8535964" lon="11.7472659"><ele>1163.0</ele><time>2026-04-06T13:01:23.148Z</time></trkpt><trkpt lat="43.8537017" lon="11.7471271"><ele>1163.0</ele><time>2026-04-06T13:01:24.141Z</time></trkpt><trkpt lat="43.853785" lon="11.746939"><ele>1163.0</ele><time>2026-04-06T13:01:25.151Z</time></trkpt><trkpt lat="43.8538555" lon="11.7467153"><ele>1156.0</ele><time>2026-04-06T13:01:26.154Z</time></trkpt><trkpt lat="43.8539354" lon="11.7465009"><ele>1149.0</ele><time>2026-04-06T13:01:27.149Z</time></trkpt><trkpt lat="43.8540129" lon="11.7462978"><ele>1142.0</ele><time>2026-04-06T13:01:28.163Z</time></trkpt><trkpt lat="43.8540875" lon="11.7461071"><ele>1138.25</ele><time>2026-04-06T13:01:29.151Z</time></trkpt><trkpt lat="43.854163" lon="11.7459358"><ele>1134.5</ele><time>2026-04-06T13:01:30.151Z</time></trkpt><trkpt lat="43.8542313" lon="11.7457722"><ele>1130.75</ele><time>2026-04-06T13:01:31.149Z</time></trkpt><trkpt lat="43.854294" lon="11.7456104"><ele>1127.0</ele><time>2026-04-06T13:01:32.142Z</time></trkpt><trkpt lat="43.8543529" lon="11.7454635"><ele>1126.4</ele><time>2026-04-06T13:01:33.15Z</time></trkpt><trkpt lat="43.8544036" lon="11.7453279"><ele>1125.8000000000002</ele><time>2026-04-06T13:01:34.134Z</time></trkpt><trkpt lat="43.8544317" lon="11.7451902"><ele>1125.2</ele><time>2026-04-06T13:01:35.138Z</time></trkpt><trkpt lat="43.8544484" lon="11.7450463"><ele>1124.6000000000001</ele><time>2026-04-06T13:01:36.149Z</time></trkpt><trkpt lat="43.8543785" lon="11.7449215"><ele>1124.0</ele><time>2026-04-06T13:01:37.153Z</time></trkpt><trkpt lat="43.8542672" lon="11.744834"><ele>1124.0</ele><time>2026-04-06T13:01:38.144Z</time></trkpt><trkpt lat="43.8541617" lon="11.7447762"><ele>1124.0</ele><time>2026-04-06T13:01:39.146Z</time></trkpt><trkpt lat="43.8540613" lon="11.7447483"><ele>1124.0</ele><time>2026-04-06T13:01:40.152Z</time></trkpt><trkpt lat="43.8539589" lon="11.7447605"><ele>1124.0</ele><time>2026-04-06T13:01:41.153Z</time></trkpt><trkpt lat="43.8538532" lon="11.7448015"><ele>1124.0</ele><time>2026-04-06T13:01:42.165Z</time></trkpt><trkpt lat="43.8537472" lon="11.7448614"><ele>1124.0</ele><time>2026-04-06T13:01:43.15Z</time></trkpt><trkpt lat="43.8536354" lon="11.7449201"><ele>1124.0</ele><time>2026-04-06T13:01:44.158Z</time></trkpt><trkpt lat="43.8535382" lon="11.7450187"><ele>1124.0</ele><time>2026-04-06T13:01:45.157Z</time></trkpt><trkpt lat="43.8534623" lon="11.7451397"><ele>1124.0</ele><time>2026-04-06T13:01:46.152Z</time></trkpt><trkpt lat="43.8533813" lon="11.745255"><ele>1120.8</ele><time>2026-04-06T13:01:47.143Z</time></trkpt><trkpt lat="43.8532945" lon="11.7453396"><ele>1117.6000000000001</ele><time>2026-04-06T13:01:48.151Z</time></trkpt><trkpt lat="43.8531982" lon="11.7453319"><ele>1114.4</ele><time>2026-04-06T13:01:49.151Z</time></trkpt><trkpt lat="43.8531154" lon="11.7452477"><ele>1111.2</ele><time>2026-04-06T13:01:50.155Z</time></trkpt><trkpt lat="43.8530513" lon="11.7451307"><ele>1108.0</ele><time>2026-04-06T13:01:51.154Z</time></trkpt><trkpt lat="43.8529946" lon="11.7449834"><ele>1108.0</ele><time>2026-04-06T13:01:52.153Z</time></trkpt><trkpt lat="43.8529429" lon="11.7448615"><ele>1108.0</ele><time>2026-04-06T13:01:53.145Z</time></trkpt><trkpt lat="43.8528542" lon="11.7447738"><ele>1108.0</ele><time>2026-04-06T13:01:54.164Z</time></trkpt><trkpt lat="43.852748" lon="11.7446921"><ele>1108.0</ele><time>2026-04-06T13:01:55.144Z</time></trkpt><trkpt lat="43.852613" lon="11.7446625"><ele>1105.75</ele><time>2026-04-06T13:01:56.148Z</time></trkpt><trkpt lat="43.8524837" lon="11.74469"><ele>1103.5</ele><time>2026-04-06T13:01:57.15Z</time></trkpt><trkpt lat="43.8523628" lon="11.7447578"><ele>1101.25</ele><time>2026-04-06T13:01:58.156Z</time></trkpt><trkpt lat="43.8522515" lon="11.7448453"><ele>1099.0</ele><time>2026-04-06T13:01:59.158Z</time></trkpt><trkpt lat="43.8521573" lon="11.7449775"><ele>1099.0</ele><time>2026-04-06T13:02:00.153Z</time></trkpt><trkpt lat="43.8521299" lon="11.7451743"><ele>1099.0</ele><time>2026-04-06T13:02:01.163Z</time></trkpt><trkpt lat="43.8521419" lon="11.7453966"><ele>1099.0</ele><time>2026-04-06T13:02:02.154Z</time></trkpt><trkpt lat="43.8521773" lon="11.7455744"><ele>1099.0</ele><time>2026-04-06T13:02:03.154Z</time></trkpt><trkpt lat="43.8522299" lon="11.7457514"><ele>1098.25</ele><time>2026-04-06T13:02:04.145Z</time></trkpt><trkpt lat="43.852303" lon="11.7458934"><ele>1097.5</ele><time>2026-04-06T13:02:05.154Z</time></trkpt><trkpt lat="43.8524071" lon="11.745998"><ele>1096.75</ele><time>2026-04-06T13:02:06.154Z</time></trkpt><trkpt lat="43.8525357" lon="11.7460097"><ele>1096.0</ele><time>2026-04-06T13:02:07.155Z</time></trkpt><trkpt lat="43.8526674" lon="11.7459591"><ele>1096.0</ele><time>2026-04-06T13:02:08.16Z</time></trkpt><trkpt lat="43.8528216" lon="11.7459052"><ele>1096.0</ele><time>2026-04-06T13:02:09.152Z</time></trkpt><trkpt lat="43.8529563" lon="11.7458593"><ele>1096.0</ele><time>2026-04-06T13:02:10.157Z</time></trkpt><trkpt lat="43.8531052" lon="11.7458247"><ele>1096.0</ele><time>2026-04-06T13:02:11.143Z</time></trkpt><trkpt lat="43.8532099" lon="11.7458363"><ele>1096.0</ele><time>2026-04-06T13:02:12.164Z</time></trkpt><trkpt lat="43.8532844" lon="11.745888"><ele>1096.0</ele><time>2026-04-06T13:02:13.151Z</time></trkpt><trkpt lat="43.8533353" lon="11.7459772"><ele>1096.0</ele><time>2026-04-06T13:02:14.135Z</time></trkpt><trkpt lat="43.8533454" lon="11.746064"><ele>1096.0</ele><time>2026-04-06T13:02:15.143Z</time></trkpt><trkpt lat="43.8533367" lon="11.7461613"><ele>1096.0</ele><time>2026-04-06T13:02:16.148Z</time></trkpt><trkpt lat="43.8532453" lon="11.7462859"><ele>1096.0</ele><time>2026-04-06T13:02:17.156Z</time></trkpt><trkpt lat="43.8531266" lon="11.7464219"><ele>1099.0</ele><time>2026-04-06T13:02:18.146Z</time></trkpt><trkpt lat="43.8530004" lon="11.7465693"><ele>1102.0</ele><time>2026-04-06T13:02:19.147Z</time></trkpt><trkpt lat="43.8528591" lon="11.7467362"><ele>1105.0</ele><time>2026-04-06T13:02:20.153Z</time></trkpt><trkpt lat="43.85273" lon="11.7468902"><ele>1100.6666666666665</ele><time>2026-04-06T13:02:21.147Z</time></trkpt><trkpt lat="43.8525973" lon="11.7470263"><ele>1096.3333333333333</ele><time>2026-04-06T13:02:22.151Z</time></trkpt><trkpt lat="43.8524577" lon="11.7471498"><ele>1092.0</ele><time>2026-04-06T13:02:23.146Z</time></trkpt><trkpt lat="43.8523227" lon="11.7472505"><ele>1092.0</ele><time>2026-04-06T13:02:24.139Z</time></trkpt><trkpt lat="43.8521973" lon="11.7473323"><ele>1092.0</ele><time>2026-04-06T13:02:25.154Z</time></trkpt><trkpt lat="43.8520671" lon="11.7474434"><ele>1092.0</ele><time>2026-04-06T13:02:26.154Z</time></trkpt><trkpt lat="43.8519528" lon="11.7475829"><ele>1092.0</ele><time>2026-04-06T13:02:27.153Z</time></trkpt><trkpt lat="43.8518693" lon="11.7477593"><ele>1087.25</ele><time>2026-04-06T13:02:28.156Z</time></trkpt><trkpt lat="43.8517872" lon="11.7479496"><ele>1082.5</ele><time>2026-04-06T13:02:29.143Z</time></trkpt><trkpt lat="43.8517085" lon="11.7481055"><ele>1077.75</ele><time>2026-04-06T13:02:30.149Z</time></trkpt><trkpt lat="43.8516089" lon="11.7482249"><ele>1073.0</ele><time>2026-04-06T13:02:31.148Z</time></trkpt><trkpt lat="43.8514932" lon="11.7482905"><ele>1073.0</ele><time>2026-04-06T13:02:32.144Z</time></trkpt><trkpt lat="43.8513862" lon="11.7483319"><ele>1073.0</ele><time>2026-04-06T13:02:33.132Z</time></trkpt><trkpt lat="43.8512978" lon="11.7483603"><ele>1073.0</ele><time>2026-04-06T13:02:34.134Z</time></trkpt><trkpt lat="43.8512203" lon="11.7484284"><ele>1073.0</ele><time>2026-04-06T13:02:35.14Z</time></trkpt><trkpt lat="43.8511924" lon="11.7485368"><ele>1073.0</ele><time>2026-04-06T13:02:36.145Z</time></trkpt><trkpt lat="43.8512321" lon="11.7486721"><ele>1073.6</ele><time>2026-04-06T13:02:37.142Z</time></trkpt><trkpt lat="43.8513045" lon="11.748806"><ele>1074.1999999999998</ele><time>2026-04-06T13:02:38.151Z</time></trkpt><trkpt lat="43.8513924" lon="11.7489144"><ele>1074.8</ele><time>2026-04-06T13:02:39.141Z</time></trkpt><trkpt lat="43.8514796" lon="11.7490022"><ele>1075.3999999999999</ele><time>2026-04-06T13:02:40.146Z</time></trkpt><trkpt lat="43.8515461" lon="11.7491093"><ele>1076.0</ele><time>2026-04-06T13:02:41.14Z</time></trkpt><trkpt lat="43.8515761" lon="11.749245"><ele>1076.0</ele><time>2026-04-06T13:02:42.144Z</time></trkpt><trkpt lat="43.8515494" lon="11.7493633"><ele>1076.0</ele><time>2026-04-06T13:02:43.146Z</time></trkpt><trkpt lat="43.8514786" lon="11.7494496"><ele>1076.0</ele><time>2026-04-06T13:02:44.147Z</time></trkpt><trkpt lat="43.8513641" lon="11.7495385"><ele>1076.0</ele><time>2026-04-06T13:02:45.145Z</time></trkpt><trkpt lat="43.851262" lon="11.7496608"><ele>1079.75</ele><time>2026-04-06T13:02:46.156Z</time></trkpt><trkpt lat="43.8511878" lon="11.7498279"><ele>1083.5</ele><time>2026-04-06T13:02:47.158Z</time></trkpt><trkpt lat="43.8510896" lon="11.7499666"><ele>1087.25</ele><time>2026-04-06T13:02:48.133Z</time></trkpt><trkpt lat="43.8509666" lon="11.7500498"><ele>1091.0</ele><time>2026-04-06T13:02:49.133Z</time></trkpt><trkpt lat="43.8508019" lon="11.7501175"><ele>1091.6666666666667</ele><time>2026-04-06T13:02:50.15Z</time></trkpt><trkpt lat="43.8506525" lon="11.750184"><ele>1092.3333333333333</ele><time>2026-04-06T13:02:51.134Z</time></trkpt><trkpt lat="43.8504969" lon="11.7502575"><ele>1093.0</ele><time>2026-04-06T13:02:52.159Z</time></trkpt><trkpt lat="43.8503524" lon="11.7503128"><ele>1093.0</ele><time>2026-04-06T13:02:53.15Z</time></trkpt><trkpt lat="43.8502008" lon="11.75036"><ele>1093.0</ele><time>2026-04-06T13:02:54.153Z</time></trkpt><trkpt lat="43.8500544" lon="11.7504394"><ele>1093.0</ele><time>2026-04-06T13:02:55.149Z</time></trkpt><trkpt lat="43.8499111" lon="11.7505646"><ele>1087.75</ele><time>2026-04-06T13:02:56.147Z</time></trkpt><trkpt lat="43.8497895" lon="11.7507086"><ele>1082.5</ele><time>2026-04-06T13:02:57.147Z</time></trkpt><trkpt lat="43.8496951" lon="11.7508654"><ele>1077.25</ele><time>2026-04-06T13:02:58.153Z</time></trkpt><trkpt lat="43.8496235" lon="11.7510299"><ele>1072.0</ele><time>2026-04-06T13:02:59.149Z</time></trkpt><trkpt lat="43.8495798" lon="11.7512195"><ele>1072.0</ele><time>2026-04-06T13:03:00.15Z</time></trkpt><trkpt lat="43.8495695" lon="11.7514154"><ele>1072.0</ele><time>2026-04-06T13:03:01.153Z</time></trkpt><trkpt lat="43.8495677" lon="11.7515908"><ele>1072.0</ele><time>2026-04-06T13:03:02.147Z</time></trkpt><trkpt lat="43.8495638" lon="11.751762"><ele>1072.0</ele><time>2026-04-06T13:03:03.161Z</time></trkpt><trkpt lat="43.8495239" lon="11.7519233"><ele>1076.5</ele><time>2026-04-06T13:03:04.152Z</time></trkpt><trkpt lat="43.8494375" lon="11.7520354"><ele>1081.0</ele><time>2026-04-06T13:03:05.163Z</time></trkpt><trkpt lat="43.8492959" lon="11.7520888"><ele>1085.5</ele><time>2026-04-06T13:03:06.156Z</time></trkpt><trkpt lat="43.8491573" lon="11.7520768"><ele>1090.0</ele><time>2026-04-06T13:03:07.159Z</time></trkpt><trkpt lat="43.8490289" lon="11.7520844"><ele>1079.75</ele><time>2026-04-06T13:03:08.157Z</time></trkpt><trkpt lat="43.8489097" lon="11.7521278"><ele>1069.5</ele><time>2026-04-06T13:03:09.145Z</time></trkpt><trkpt lat="43.8488063" lon="11.7521893"><ele>1059.25</ele><time>2026-04-06T13:03:10.153Z</time></trkpt><trkpt lat="43.8486994" lon="11.7522778"><ele>1049.0</ele><time>2026-04-06T13:03:11.156Z</time></trkpt><trkpt lat="43.848631" lon="11.7524113"><ele>1049.0</ele><time>2026-04-06T13:03:12.156Z</time></trkpt><trkpt lat="43.8485861" lon="11.7525668"><ele>1049.0</ele><time>2026-04-06T13:03:13.143Z</time></trkpt><trkpt lat="43.8485468" lon="11.752727"><ele>1049.0</ele><time>2026-04-06T13:03:14.152Z</time></trkpt><trkpt lat="43.8484862" lon="11.7528623"><ele>1049.0</ele><time>2026-04-06T13:03:15.156Z</time></trkpt><trkpt lat="43.8484141" lon="11.7529662"><ele>1048.6000000000001</ele><time>2026-04-06T13:03:16.15Z</time></trkpt><trkpt lat="43.8483225" lon="11.7530196"><ele>1048.2</ele><time>2026-04-06T13:03:17.147Z</time></trkpt><trkpt lat="43.8482117" lon="11.7530316"><ele>1047.8000000000002</ele><time>2026-04-06T13:03:18.145Z</time></trkpt><trkpt lat="43.8481176" lon="11.7530045"><ele>1047.4</ele><time>2026-04-06T13:03:19.159Z</time></trkpt><trkpt lat="43.8480336" lon="11.7528828"><ele>1047.0</ele><time>2026-04-06T13:03:20.155Z</time></trkpt><trkpt lat="43.8479646" lon="11.7526999"><ele>1040.6666666666667</ele><time>2026-04-06T13:03:21.16Z</time></trkpt><trkpt lat="43.8478998" lon="11.752507"><ele>1034.3333333333335</ele><time>2026-04-06T13:03:22.153Z</time></trkpt><trkpt lat="43.8478498" lon="11.7523161"><ele>1028.0</ele><time>2026-04-06T13:03:23.151Z</time></trkpt><trkpt lat="43.8478" lon="11.7521168"><ele>1028.0</ele><time>2026-04-06T13:03:24.154Z</time></trkpt><trkpt lat="43.8477339" lon="11.7519269"><ele>1028.0</ele><time>2026-04-06T13:03:25.142Z</time></trkpt><trkpt lat="43.8476474" lon="11.7517591"><ele>1028.0</ele><time>2026-04-06T13:03:26.152Z</time></trkpt><trkpt lat="43.8475309" lon="11.7516273"><ele>1023.6666666666667</ele><time>2026-04-06T13:03:27.151Z</time></trkpt><trkpt lat="43.8473796" lon="11.7515593"><ele>1019.3333333333333</ele><time>2026-04-06T13:03:28.146Z</time></trkpt><trkpt lat="43.8472188" lon="11.7515178"><ele>1015.0</ele><time>2026-04-06T13:03:29.148Z</time></trkpt><trkpt lat="43.8470628" lon="11.7514803"><ele>1015.0</ele><time>2026-04-06T13:03:30.149Z</time></trkpt><trkpt lat="43.8469316" lon="11.7514031"><ele>1015.0</ele><time>2026-04-06T13:03:31.146Z</time></trkpt><trkpt lat="43.8468056" lon="11.7513288"><ele>1015.0</ele><time>2026-04-06T13:03:32.142Z</time></trkpt><trkpt lat="43.8466978" lon="11.7512642"><ele>1015.0</ele><time>2026-04-06T13:03:33.137Z</time></trkpt><trkpt lat="43.8466003" lon="11.7512454"><ele>1016.0</ele><time>2026-04-06T13:03:34.141Z</time></trkpt><trkpt lat="43.8464783" lon="11.7512417"><ele>1017.0</ele><time>2026-04-06T13:03:35.143Z</time></trkpt><trkpt lat="43.8463663" lon="11.7512915"><ele>1018.0</ele><time>2026-04-06T13:03:36.146Z</time></trkpt><trkpt lat="43.8462746" lon="11.7513562"><ele>1019.0</ele><time>2026-04-06T13:03:37.15Z</time></trkpt><trkpt lat="43.8461935" lon="11.7514122"><ele>1020.0</ele><time>2026-04-06T13:03:38.138Z</time></trkpt><trkpt lat="43.8461048" lon="11.7514666"><ele>1020.0</ele><time>2026-04-06T13:03:39.162Z</time></trkpt><trkpt lat="43.846017" lon="11.751478"><ele>1020.0</ele><time>2026-04-06T13:03:40.153Z</time></trkpt><trkpt lat="43.8459409" lon="11.7514196"><ele>1020.0</ele><time>2026-04-06T13:03:41.152Z</time></trkpt><trkpt lat="43.8458832" lon="11.7512967"><ele>1020.0</ele><time>2026-04-06T13:03:42.149Z</time></trkpt><trkpt lat="43.8458659" lon="11.7511116"><ele>1020.0</ele><time>2026-04-06T13:03:43.137Z</time></trkpt><trkpt lat="43.8458466" lon="11.750915"><ele>1015.3333333333333</ele><time>2026-04-06T13:03:44.142Z</time></trkpt><trkpt lat="43.8458231" lon="11.7506946"><ele>1010.6666666666666</ele><time>2026-04-06T13:03:45.152Z</time></trkpt><trkpt lat="43.8457899" lon="11.7504787"><ele>1006.0</ele><time>2026-04-06T13:03:46.139Z</time></trkpt><trkpt lat="43.8457573" lon="11.7502772"><ele>1002.0</ele><time>2026-04-06T13:03:47.164Z</time></trkpt><trkpt lat="43.8457246" lon="11.7500699"><ele>998.0</ele><time>2026-04-06T13:03:48.155Z</time></trkpt><trkpt lat="43.8457142" lon="11.7498763"><ele>994.0</ele><time>2026-04-06T13:03:49.152Z</time></trkpt><trkpt lat="43.8456882" lon="11.7497263"><ele>990.0</ele><time>2026-04-06T13:03:50.152Z</time></trkpt><trkpt lat="43.8456063" lon="11.749638"><ele>990.0</ele><time>2026-04-06T13:03:51.152Z</time></trkpt><trkpt lat="43.8455155" lon="11.7495836"><ele>990.0</ele><time>2026-04-06T13:03:52.151Z</time></trkpt><trkpt lat="43.845404" lon="11.7495973"><ele>990.0</ele><time>2026-04-06T13:03:53.146Z</time></trkpt><trkpt lat="43.8452719" lon="11.749697"><ele>990.0</ele><time>2026-04-06T13:03:54.15Z</time></trkpt><trkpt lat="43.8451638" lon="11.7498133"><ele>989.75</ele><time>2026-04-06T13:03:55.163Z</time></trkpt><trkpt lat="43.8450796" lon="11.7499512"><ele>989.5</ele><time>2026-04-06T13:03:56.151Z</time></trkpt><trkpt lat="43.8450062" lon="11.750073"><ele>989.25</ele><time>2026-04-06T13:03:57.138Z</time></trkpt><trkpt lat="43.8449338" lon="11.7501918"><ele>989.0</ele><time>2026-04-06T13:03:58.138Z</time></trkpt><trkpt lat="43.8448535" lon="11.7502876"><ele>989.0</ele><time>2026-04-06T13:03:59.143Z</time></trkpt><trkpt lat="43.8447596" lon="11.7503389"><ele>989.0000000000001</ele><time>2026-04-06T13:04:00.152Z</time></trkpt><trkpt lat="43.8446634" lon="11.7503084"><ele>989.0000000000001</ele><time>2026-04-06T13:04:01.148Z</time></trkpt><trkpt lat="43.8445859" lon="11.7502301"><ele>989.0</ele><time>2026-04-06T13:04:02.156Z</time></trkpt><trkpt lat="43.8445244" lon="11.7501227"><ele>989.0</ele><time>2026-04-06T13:04:03.153Z</time></trkpt><trkpt lat="43.8445323" lon="11.749996"><ele>989.0</ele><time>2026-04-06T13:04:04.144Z</time></trkpt><trkpt lat="43.8446033" lon="11.7498332"><ele>989.0</ele><time>2026-04-06T13:04:05.164Z</time></trkpt><trkpt lat="43.8446691" lon="11.7497113"><ele>989.0</ele><time>2026-04-06T13:04:06.152Z</time></trkpt><trkpt lat="43.8447107" lon="11.7495805"><ele>989.0</ele><time>2026-04-06T13:04:07.153Z</time></trkpt><trkpt lat="43.8447034" lon="11.74942"><ele>985.25</ele><time>2026-04-06T13:04:08.134Z</time></trkpt><trkpt lat="43.8446283" lon="11.7492973"><ele>981.5</ele><time>2026-04-06T13:04:09.146Z</time></trkpt><trkpt lat="43.8445334" lon="11.7492131"><ele>977.75</ele><time>2026-04-06T13:04:10.154Z</time></trkpt><trkpt lat="43.8444373" lon="11.7491347"><ele>974.0</ele><time>2026-04-06T13:04:11.15Z</time></trkpt><trkpt lat="43.8443358" lon="11.7490442"><ele>976.25</ele><time>2026-04-06T13:04:12.149Z</time></trkpt><trkpt lat="43.8442788" lon="11.7488802"><ele>978.5</ele><time>2026-04-06T13:04:13.148Z</time></trkpt><trkpt lat="43.8442438" lon="11.7487274"><ele>980.75</ele><time>2026-04-06T13:04:14.15Z</time></trkpt><trkpt lat="43.8441756" lon="11.7485921"><ele>983.0</ele><time>2026-04-06T13:04:15.154Z</time></trkpt><trkpt lat="43.8440881" lon="11.7484956"><ele>983.0</ele><time>2026-04-06T13:04:16.154Z</time></trkpt><trkpt lat="43.8440062" lon="11.7484201"><ele>983.0</ele><time>2026-04-06T13:04:17.143Z</time></trkpt><trkpt lat="43.8439084" lon="11.7483663"><ele>983.0</ele><time>2026-04-06T13:04:18.149Z</time></trkpt><trkpt lat="43.8437699" lon="11.7484507"><ele>983.0</ele><time>2026-04-06T13:04:19.161Z</time></trkpt><trkpt lat="43.8436407" lon="11.7485975"><ele>983.0</ele><time>2026-04-06T13:04:20.147Z</time></trkpt><trkpt lat="43.843506" lon="11.7487599"><ele>983.0</ele><time>2026-04-06T13:04:21.157Z</time></trkpt><trkpt lat="43.8433825" lon="11.7488904"><ele>983.0</ele><time>2026-04-06T13:04:22.153Z</time></trkpt><trkpt lat="43.8432595" lon="11.7489931"><ele>983.5</ele><time>2026-04-06T13:04:23.137Z</time></trkpt><trkpt lat="43.8431148" lon="11.7490682"><ele>984.0</ele><time>2026-04-06T13:04:24.153Z</time></trkpt><trkpt lat="43.8429906" lon="11.7490708"><ele>984.5</ele><time>2026-04-06T13:04:25.158Z</time></trkpt><trkpt lat="43.8428825" lon="11.7489863"><ele>985.0</ele><time>2026-04-06T13:04:26.14Z</time></trkpt><trkpt lat="43.8428198" lon="11.7487953"><ele>985.0</ele><time>2026-04-06T13:04:27.143Z</time></trkpt><trkpt lat="43.8427883" lon="11.7486103"><ele>985.0</ele><time>2026-04-06T13:04:28.146Z</time></trkpt><trkpt lat="43.8427906" lon="11.7484674"><ele>985.0</ele><time>2026-04-06T13:04:29.141Z</time></trkpt><trkpt lat="43.8428089" lon="11.7483191"><ele>985.0</ele><time>2026-04-06T13:04:30.148Z</time></trkpt><trkpt lat="43.8428449" lon="11.7481388"><ele>978.75</ele><time>2026-04-06T13:04:31.155Z</time></trkpt><trkpt lat="43.842894" lon="11.7479446"><ele>972.5</ele><time>2026-04-06T13:04:32.152Z</time></trkpt><trkpt lat="43.8429667" lon="11.747767"><ele>966.25</ele><time>2026-04-06T13:04:33.16Z</time></trkpt><trkpt lat="43.8430538" lon="11.7476136"><ele>960.0</ele><time>2026-04-06T13:04:34.147Z</time></trkpt><trkpt lat="43.8431642" lon="11.7474929"><ele>957.25</ele><time>2026-04-06T13:04:35.154Z</time></trkpt><trkpt lat="43.8433071" lon="11.7474523"><ele>954.5</ele><time>2026-04-06T13:04:36.145Z</time></trkpt><trkpt lat="43.843449" lon="11.747479"><ele>951.75</ele><time>2026-04-06T13:04:37.153Z</time></trkpt><trkpt lat="43.8435754" lon="11.7475317"><ele>949.0</ele><time>2026-04-06T13:04:38.14Z</time></trkpt><trkpt lat="43.8436938" lon="11.7475828"><ele>947.4000000000001</ele><time>2026-04-06T13:04:39.142Z</time></trkpt><trkpt lat="43.8437944" lon="11.7476162"><ele>945.8000000000001</ele><time>2026-04-06T13:04:40.147Z</time></trkpt><trkpt lat="43.8438952" lon="11.7476102"><ele>944.1999999999999</ele><time>2026-04-06T13:04:41.148Z</time></trkpt><trkpt lat="43.8439802" lon="11.7475284"><ele>942.5999999999999</ele><time>2026-04-06T13:04:42.149Z</time></trkpt><trkpt lat="43.8440097" lon="11.747399"><ele>941.0</ele><time>2026-04-06T13:04:43.154Z</time></trkpt><trkpt lat="43.8439816" lon="11.7472665"><ele>941.0</ele><time>2026-04-06T13:04:44.157Z</time></trkpt><trkpt lat="43.8439048" lon="11.7471885"><ele>941.0</ele><time>2026-04-06T13:04:45.155Z</time></trkpt><trkpt lat="43.8437985" lon="11.7471476"><ele>941.0</ele><time>2026-04-06T13:04:46.154Z</time></trkpt><trkpt lat="43.8436487" lon="11.7471422"><ele>941.0</ele><time>2026-04-06T13:04:47.153Z</time></trkpt><trkpt lat="43.8435143" lon="11.747133"><ele>943.0</ele><time>2026-04-06T13:04:48.158Z</time></trkpt><trkpt lat="43.8433733" lon="11.7471045"><ele>945.0</ele><time>2026-04-06T13:04:49.142Z</time></trkpt><trkpt lat="43.8432357" lon="11.7471032"><ele>947.0</ele><time>2026-04-06T13:04:50.154Z</time></trkpt><trkpt lat="43.8431175" lon="11.747154"><ele>949.0</ele><time>2026-04-06T13:04:51.151Z</time></trkpt><trkpt lat="43.8430248" lon="11.7472766"><ele>949.0</ele><time>2026-04-06T13:04:52.143Z</time></trkpt><trkpt lat="43.8429398" lon="11.7474341"><ele>949.0</ele><time>2026-04-06T13:04:53.154Z</time></trkpt><trkpt lat="43.8428729" lon="11.7476095"><ele>949.0</ele><time>2026-04-06T13:04:54.15Z</time></trkpt><trkpt lat="43.8428049" lon="11.7477499"><ele>949.0</ele><time>2026-04-06T13:04:55.157Z</time></trkpt><trkpt lat="43.8427157" lon="11.747864"><ele>951.75</ele><time>2026-04-06T13:04:56.147Z</time></trkpt><trkpt lat="43.8426088" lon="11.747962"><ele>954.5</ele><time>2026-04-06T13:04:57.148Z</time></trkpt><trkpt lat="43.8425025" lon="11.748026"><ele>957.25</ele><time>2026-04-06T13:04:58.15Z</time></trkpt><trkpt lat="43.8423798" lon="11.7480921"><ele>960.0</ele><time>2026-04-06T13:04:59.143Z</time></trkpt><trkpt lat="43.8422397" lon="11.7481597"><ele>960.0</ele><time>2026-04-06T13:05:00.149Z</time></trkpt><trkpt lat="43.8420979" lon="11.7481572"><ele>960.0</ele><time>2026-04-06T13:05:01.154Z</time></trkpt><trkpt lat="43.8419395" lon="11.7481016"><ele>960.0</ele><time>2026-04-06T13:05:02.153Z</time></trkpt><trkpt lat="43.84178" lon="11.7480044"><ele>961.3333333333333</ele><time>2026-04-06T13:05:03.15Z</time></trkpt><trkpt lat="43.8416439" lon="11.7479326"><ele>962.6666666666666</ele><time>2026-04-06T13:05:04.162Z</time></trkpt><trkpt lat="43.8414995" lon="11.7479055"><ele>964.0</ele><time>2026-04-06T13:05:05.153Z</time></trkpt><trkpt lat="43.8413373" lon="11.747928"><ele>964.0</ele><time>2026-04-06T13:05:06.147Z</time></trkpt><trkpt lat="43.8411805" lon="11.7479743"><ele>964.0</ele><time>2026-04-06T13:05:07.156Z</time></trkpt><trkpt lat="43.8410215" lon="11.7480029"><ele>964.0</ele><time>2026-04-06T13:05:08.156Z</time></trkpt><trkpt lat="43.8408597" lon="11.7480318"><ele>961.0</ele><time>2026-04-06T13:05:09.147Z</time></trkpt><trkpt lat="43.8407023" lon="11.7480416"><ele>958.0</ele><time>2026-04-06T13:05:10.154Z</time></trkpt><trkpt lat="43.8405526" lon="11.7480674"><ele>955.0</ele><time>2026-04-06T13:05:11.157Z</time></trkpt><trkpt lat="43.8404274" lon="11.7481403"><ele>952.0</ele><time>2026-04-06T13:05:12.155Z</time></trkpt><trkpt lat="43.8403031" lon="11.7482448"><ele>952.0</ele><time>2026-04-06T13:05:13.147Z</time></trkpt><trkpt lat="43.84018" lon="11.7483591"><ele>952.0</ele><time>2026-04-06T13:05:14.145Z</time></trkpt><trkpt lat="43.8401006" lon="11.748521"><ele>952.0</ele><time>2026-04-06T13:05:15.156Z</time></trkpt><trkpt lat="43.8400174" lon="11.7486666"><ele>952.0</ele><time>2026-04-06T13:05:16.153Z</time></trkpt><trkpt lat="43.8399285" lon="11.7488055"><ele>949.75</ele><time>2026-04-06T13:05:17.147Z</time></trkpt><trkpt lat="43.8398222" lon="11.7489307"><ele>947.5</ele><time>2026-04-06T13:05:18.15Z</time></trkpt><trkpt lat="43.8396908" lon="11.7489983"><ele>945.25</ele><time>2026-04-06T13:05:19.154Z</time></trkpt><trkpt lat="43.839542" lon="11.7490096"><ele>943.0</ele><time>2026-04-06T13:05:20.151Z</time></trkpt><trkpt lat="43.8393941" lon="11.749018"><ele>939.25</ele><time>2026-04-06T13:05:21.138Z</time></trkpt><trkpt lat="43.8392519" lon="11.7490047"><ele>935.5</ele><time>2026-04-06T13:05:22.162Z</time></trkpt><trkpt lat="43.8391042" lon="11.7490114"><ele>931.75</ele><time>2026-04-06T13:05:23.161Z</time></trkpt><trkpt lat="43.8389489" lon="11.7490239"><ele>928.0</ele><time>2026-04-06T13:05:24.154Z</time></trkpt><trkpt lat="43.8388051" lon="11.7490385"><ele>928.0</ele><time>2026-04-06T13:05:25.162Z</time></trkpt><trkpt lat="43.8386697" lon="11.7490299"><ele>928.0</ele><time>2026-04-06T13:05:26.154Z</time></trkpt><trkpt lat="43.8385407" lon="11.7489863"><ele>928.0</ele><time>2026-04-06T13:05:27.147Z</time></trkpt><trkpt lat="43.8384076" lon="11.7488835"><ele>928.0</ele><time>2026-04-06T13:05:28.141Z</time></trkpt><trkpt lat="43.8382876" lon="11.7487428"><ele>929.5</ele><time>2026-04-06T13:05:29.15Z</time></trkpt><trkpt lat="43.8381896" lon="11.7485812"><ele>931.0</ele><time>2026-04-06T13:05:30.147Z</time></trkpt><trkpt lat="43.8380912" lon="11.748452"><ele>932.5</ele><time>2026-04-06T13:05:31.152Z</time></trkpt><trkpt lat="43.8379715" lon="11.7483717"><ele>934.0</ele><time>2026-04-06T13:05:32.145Z</time></trkpt><trkpt lat="43.8378509" lon="11.7483386"><ele>933.5</ele><time>2026-04-06T13:05:33.158Z</time></trkpt><trkpt lat="43.8377273" lon="11.7483781"><ele>933.0</ele><time>2026-04-06T13:05:34.144Z</time></trkpt><trkpt lat="43.8376134" lon="11.7484836"><ele>932.5</ele><time>2026-04-06T13:05:35.157Z</time></trkpt><trkpt lat="43.8375069" lon="11.7486042"><ele>932.0</ele><time>2026-04-06T13:05:36.156Z</time></trkpt><trkpt lat="43.8373758" lon="11.7487201"><ele>932.0</ele><time>2026-04-06T13:05:37.146Z</time></trkpt><trkpt lat="43.8372323" lon="11.7488078"><ele>932.0</ele><time>2026-04-06T13:05:38.14Z</time></trkpt><trkpt lat="43.8370924" lon="11.748897"><ele>932.0</ele><time>2026-04-06T13:05:39.134Z</time></trkpt><trkpt lat="43.8369592" lon="11.748989"><ele>932.0</ele><time>2026-04-06T13:05:40.156Z</time></trkpt><trkpt lat="43.836841" lon="11.7491093"><ele>932.0</ele><time>2026-04-06T13:05:41.161Z</time></trkpt><trkpt lat="43.8367456" lon="11.7492492"><ele>932.0</ele><time>2026-04-06T13:05:42.146Z</time></trkpt><trkpt lat="43.8366482" lon="11.7493679"><ele>932.0</ele><time>2026-04-06T13:05:43.167Z</time></trkpt><trkpt lat="43.8365478" lon="11.7494443"><ele>934.5</ele><time>2026-04-06T13:05:44.149Z</time></trkpt><trkpt lat="43.8364379" lon="11.7494815"><ele>937.0</ele><time>2026-04-06T13:05:45.149Z</time></trkpt><trkpt lat="43.836319" lon="11.7494957"><ele>939.5</ele><time>2026-04-06T13:05:46.149Z</time></trkpt><trkpt lat="43.8361937" lon="11.7494719"><ele>942.0</ele><time>2026-04-06T13:05:47.151Z</time></trkpt><trkpt lat="43.8360867" lon="11.7494612"><ele>942.0</ele><time>2026-04-06T13:05:48.141Z</time></trkpt><trkpt lat="43.8359937" lon="11.7494433"><ele>942.0</ele><time>2026-04-06T13:05:49.16Z</time></trkpt><trkpt lat="43.8359209" lon="11.7494413"><ele>942.0</ele><time>2026-04-06T13:05:50.157Z</time></trkpt><trkpt lat="43.8358552" lon="11.749472"><ele>942.0</ele><time>2026-04-06T13:05:51.145Z</time></trkpt><trkpt lat="43.8358039" lon="11.7495306"><ele>942.0</ele><time>2026-04-06T13:05:52.171Z</time></trkpt><trkpt lat="43.8357151" lon="11.7496515"><ele>942.0</ele><time>2026-04-06T13:05:54.151Z</time></trkpt><trkpt lat="43.8356775" lon="11.7497311"><ele>937.3333333333334</ele><time>2026-04-06T13:05:55.157Z</time></trkpt><trkpt lat="43.835635" lon="11.7498242"><ele>932.6666666666667</ele><time>2026-04-06T13:05:56.155Z</time></trkpt><trkpt lat="43.8355725" lon="11.7499239"><ele>928.0</ele><time>2026-04-06T13:05:57.171Z</time></trkpt><trkpt lat="43.8355255" lon="11.7500258"><ele>923.3333333333334</ele><time>2026-04-06T13:05:58.142Z</time></trkpt><trkpt lat="43.8354814" lon="11.7501355"><ele>918.6666666666667</ele><time>2026-04-06T13:05:59.163Z</time></trkpt><trkpt lat="43.8354585" lon="11.750242"><ele>914.0</ele><time>2026-04-06T13:06:00.152Z</time></trkpt><trkpt lat="43.835465" lon="11.7503643"><ele>913.25</ele><time>2026-04-06T13:06:01.159Z</time></trkpt><trkpt lat="43.8354936" lon="11.7505152"><ele>912.5</ele><time>2026-04-06T13:06:02.157Z</time></trkpt><trkpt lat="43.8355352" lon="11.7506953"><ele>911.75</ele><time>2026-04-06T13:06:03.155Z</time></trkpt><trkpt lat="43.8355555" lon="11.7508775"><ele>911.0</ele><time>2026-04-06T13:06:04.163Z</time></trkpt><trkpt lat="43.8355628" lon="11.7510589"><ele>904.75</ele><time>2026-04-06T13:06:05.153Z</time></trkpt><trkpt lat="43.8355801" lon="11.7512302"><ele>898.5</ele><time>2026-04-06T13:06:06.16Z</time></trkpt><trkpt lat="43.8356167" lon="11.7513952"><ele>892.25</ele><time>2026-04-06T13:06:07.156Z</time></trkpt><trkpt lat="43.8357011" lon="11.7515345"><ele>886.0</ele><time>2026-04-06T13:06:08.162Z</time></trkpt><trkpt lat="43.8357958" lon="11.7516265"><ele>886.0</ele><time>2026-04-06T13:06:09.151Z</time></trkpt><trkpt lat="43.8358892" lon="11.7517076"><ele>886.0</ele><time>2026-04-06T13:06:10.153Z</time></trkpt><trkpt lat="43.8359912" lon="11.7518058"><ele>886.0</ele><time>2026-04-06T13:06:11.166Z</time></trkpt><trkpt lat="43.8360752" lon="11.7519631"><ele>886.0</ele><time>2026-04-06T13:06:12.147Z</time></trkpt><trkpt lat="43.8361209" lon="11.752156"><ele>887.0</ele><time>2026-04-06T13:06:13.161Z</time></trkpt><trkpt lat="43.8361532" lon="11.7523568"><ele>888.0</ele><time>2026-04-06T13:06:14.166Z</time></trkpt><trkpt lat="43.8361681" lon="11.752526"><ele>889.0</ele><time>2026-04-06T13:06:15.151Z</time></trkpt><trkpt lat="43.8362071" lon="11.7526733"><ele>890.0</ele><time>2026-04-06T13:06:16.144Z</time></trkpt><trkpt lat="43.8362942" lon="11.7528031"><ele>890.0</ele><time>2026-04-06T13:06:17.141Z</time></trkpt><trkpt lat="43.8363818" lon="11.752939"><ele>890.0</ele><time>2026-04-06T13:06:18.155Z</time></trkpt><trkpt lat="43.8364802" lon="11.7530776"><ele>890.0</ele><time>2026-04-06T13:06:19.148Z</time></trkpt><trkpt lat="43.8365783" lon="11.753211"><ele>890.0</ele><time>2026-04-06T13:06:20.153Z</time></trkpt><trkpt lat="43.8366624" lon="11.7533377"><ele>890.0</ele><time>2026-04-06T13:06:21.156Z</time></trkpt><trkpt lat="43.8367353" lon="11.753464"><ele>890.0</ele><time>2026-04-06T13:06:22.152Z</time></trkpt><trkpt lat="43.836782" lon="11.7536111"><ele>890.0</ele><time>2026-04-06T13:06:23.153Z</time></trkpt><trkpt lat="43.8368225" lon="11.7537629"><ele>890.0</ele><time>2026-04-06T13:06:24.16Z</time></trkpt><trkpt lat="43.8368317" lon="11.7539385"><ele>887.0</ele><time>2026-04-06T13:06:25.146Z</time></trkpt><trkpt lat="43.8368195" lon="11.7541228"><ele>884.0</ele><time>2026-04-06T13:06:26.136Z</time></trkpt><trkpt lat="43.8367785" lon="11.7543076"><ele>881.0</ele><time>2026-04-06T13:06:27.145Z</time></trkpt><trkpt lat="43.8367513" lon="11.7545074"><ele>878.0</ele><time>2026-04-06T13:06:28.15Z</time></trkpt><trkpt lat="43.8367316" lon="11.7547263"><ele>876.3333333333334</ele><time>2026-04-06T13:06:29.146Z</time></trkpt><trkpt lat="43.8367189" lon="11.7549645"><ele>874.6666666666667</ele><time>2026-04-06T13:06:30.158Z</time></trkpt><trkpt lat="43.83672" lon="11.7551964"><ele>873.0</ele><time>2026-04-06T13:06:31.149Z</time></trkpt><trkpt lat="43.8367306" lon="11.7554386"><ele>871.75</ele><time>2026-04-06T13:06:32.15Z</time></trkpt><trkpt lat="43.8367326" lon="11.7556539"><ele>870.5</ele><time>2026-04-06T13:06:33.154Z</time></trkpt><trkpt lat="43.8367225" lon="11.7558586"><ele>869.25</ele><time>2026-04-06T13:06:34.135Z</time></trkpt><trkpt lat="43.8367154" lon="11.7560382"><ele>868.0</ele><time>2026-04-06T13:06:35.149Z</time></trkpt><trkpt lat="43.8367125" lon="11.75618"><ele>864.25</ele><time>2026-04-06T13:06:36.158Z</time></trkpt><trkpt lat="43.8367329" lon="11.7563364"><ele>860.5</ele><time>2026-04-06T13:06:37.15Z</time></trkpt><trkpt lat="43.8368083" lon="11.7564628"><ele>856.75</ele><time>2026-04-06T13:06:38.174Z</time></trkpt><trkpt lat="43.8369276" lon="11.7565668"><ele>853.0</ele><time>2026-04-06T13:06:39.155Z</time></trkpt><trkpt lat="43.8370503" lon="11.7566785"><ele>859.0</ele><time>2026-04-06T13:06:40.147Z</time></trkpt><trkpt lat="43.8371527" lon="11.7568368"><ele>865.0</ele><time>2026-04-06T13:06:41.157Z</time></trkpt><trkpt lat="43.8372289" lon="11.7570232"><ele>871.0</ele><time>2026-04-06T13:06:42.145Z</time></trkpt><trkpt lat="43.8372925" lon="11.7572053"><ele>871.0</ele><time>2026-04-06T13:06:43.157Z</time></trkpt><trkpt lat="43.8373619" lon="11.757373"><ele>871.0</ele><time>2026-04-06T13:06:44.157Z</time></trkpt><trkpt lat="43.8374293" lon="11.7575314"><ele>871.0</ele><time>2026-04-06T13:06:45.15Z</time></trkpt><trkpt lat="43.8374821" lon="11.7576976"><ele>871.0</ele><time>2026-04-06T13:06:46.152Z</time></trkpt><trkpt lat="43.8375145" lon="11.7578878"><ele>868.25</ele><time>2026-04-06T13:06:47.143Z</time></trkpt><trkpt lat="43.8375456" lon="11.7580645"><ele>865.5</ele><time>2026-04-06T13:06:48.153Z</time></trkpt><trkpt lat="43.837566" lon="11.7582372"><ele>862.75</ele><time>2026-04-06T13:06:49.153Z</time></trkpt><trkpt lat="43.8375639" lon="11.7584188"><ele>860.0</ele><time>2026-04-06T13:06:50.15Z</time></trkpt><trkpt lat="43.8375439" lon="11.7586025"><ele>859.25</ele><time>2026-04-06T13:06:51.153Z</time></trkpt><trkpt lat="43.8375016" lon="11.7587849"><ele>858.5</ele><time>2026-04-06T13:06:52.155Z</time></trkpt><trkpt lat="43.8374649" lon="11.7589563"><ele>857.75</ele><time>2026-04-06T13:06:53.145Z</time></trkpt><trkpt lat="43.837433" lon="11.7591183"><ele>857.0</ele><time>2026-04-06T13:06:54.155Z</time></trkpt><trkpt lat="43.837431" lon="11.7592636"><ele>856.8</ele><time>2026-04-06T13:06:55.14Z</time></trkpt><trkpt lat="43.8374399" lon="11.7594109"><ele>856.6</ele><time>2026-04-06T13:06:56.152Z</time></trkpt><trkpt lat="43.8374861" lon="11.7595486"><ele>856.3999999999999</ele><time>2026-04-06T13:06:57.142Z</time></trkpt><trkpt lat="43.8375571" lon="11.7596631"><ele>856.1999999999999</ele><time>2026-04-06T13:06:58.152Z</time></trkpt><trkpt lat="43.8376234" lon="11.7597762"><ele>856.0</ele><time>2026-04-06T13:06:59.159Z</time></trkpt><trkpt lat="43.837669" lon="11.7598819"><ele>857.6666666666666</ele><time>2026-04-06T13:07:00.15Z</time></trkpt><trkpt lat="43.8376947" lon="11.7599889"><ele>859.3333333333333</ele><time>2026-04-06T13:07:01.15Z</time></trkpt><trkpt lat="43.8377094" lon="11.760107"><ele>861.0</ele><time>2026-04-06T13:07:02.152Z</time></trkpt><trkpt lat="43.8376981" lon="11.7602208"><ele>862.6666666666667</ele><time>2026-04-06T13:07:03.149Z</time></trkpt><trkpt lat="43.837674" lon="11.7603431"><ele>864.3333333333334</ele><time>2026-04-06T13:07:04.151Z</time></trkpt><trkpt lat="43.8376423" lon="11.7604782"><ele>866.0</ele><time>2026-04-06T13:07:05.145Z</time></trkpt><trkpt lat="43.8375974" lon="11.7606001"><ele>866.0</ele><time>2026-04-06T13:07:06.159Z</time></trkpt><trkpt lat="43.8375332" lon="11.7606918"><ele>865.9999999999999</ele><time>2026-04-06T13:07:07.158Z</time></trkpt><trkpt lat="43.8374209" lon="11.7607389"><ele>865.9999999999999</ele><time>2026-04-06T13:07:08.149Z</time></trkpt><trkpt lat="43.8373077" lon="11.760719"><ele>866.0</ele><time>2026-04-06T13:07:09.148Z</time></trkpt><trkpt lat="43.8372011" lon="11.7606441"><ele>866.0</ele><time>2026-04-06T13:07:10.145Z</time></trkpt><trkpt lat="43.8370974" lon="11.7605123"><ele>866.0</ele><time>2026-04-06T13:07:11.144Z</time></trkpt><trkpt lat="43.8369833" lon="11.7603327"><ele>866.0</ele><time>2026-04-06T13:07:12.153Z</time></trkpt><trkpt lat="43.8368596" lon="11.7601562"><ele>866.0</ele><time>2026-04-06T13:07:13.146Z</time></trkpt><trkpt lat="43.8367465" lon="11.7599624"><ele>865.6666666666667</ele><time>2026-04-06T13:07:14.152Z</time></trkpt><trkpt lat="43.8366262" lon="11.7597947"><ele>865.3333333333333</ele><time>2026-04-06T13:07:15.146Z</time></trkpt><trkpt lat="43.836519" lon="11.7596295"><ele>865.0</ele><time>2026-04-06T13:07:16.152Z</time></trkpt><trkpt lat="43.8364275" lon="11.7594602"><ele>859.6666666666666</ele><time>2026-04-06T13:07:17.151Z</time></trkpt><trkpt lat="43.836362" lon="11.7592738"><ele>854.3333333333333</ele><time>2026-04-06T13:07:18.16Z</time></trkpt><trkpt lat="43.8363135" lon="11.7590548"><ele>849.0</ele><time>2026-04-06T13:07:19.164Z</time></trkpt><trkpt lat="43.8362713" lon="11.7588295"><ele>849.0</ele><time>2026-04-06T13:07:20.143Z</time></trkpt><trkpt lat="43.8362633" lon="11.7586204"><ele>849.0</ele><time>2026-04-06T13:07:21.138Z</time></trkpt><trkpt lat="43.8362564" lon="11.7584296"><ele>849.0</ele><time>2026-04-06T13:07:22.154Z</time></trkpt><trkpt lat="43.8362393" lon="11.7582631"><ele>849.0</ele><time>2026-04-06T13:07:23.149Z</time></trkpt><trkpt lat="43.8361842" lon="11.7581264"><ele>850.5</ele><time>2026-04-06T13:07:24.155Z</time></trkpt><trkpt lat="43.8360903" lon="11.7580232"><ele>852.0</ele><time>2026-04-06T13:07:25.15Z</time></trkpt><trkpt lat="43.8359591" lon="11.7579368"><ele>853.5</ele><time>2026-04-06T13:07:26.149Z</time></trkpt><trkpt lat="43.8358184" lon="11.7578843"><ele>855.0</ele><time>2026-04-06T13:07:27.158Z</time></trkpt><trkpt lat="43.8356676" lon="11.7578954"><ele>855.0</ele><time>2026-04-06T13:07:28.155Z</time></trkpt><trkpt lat="43.8355245" lon="11.7579333"><ele>855.0</ele><time>2026-04-06T13:07:29.139Z</time></trkpt><trkpt lat="43.8353866" lon="11.7579765"><ele>855.0</ele><time>2026-04-06T13:07:30.154Z</time></trkpt><trkpt lat="43.8352508" lon="11.7580032"><ele>855.0</ele><time>2026-04-06T13:07:31.156Z</time></trkpt><trkpt lat="43.835145" lon="11.7579754"><ele>858.25</ele><time>2026-04-06T13:07:32.14Z</time></trkpt><trkpt lat="43.835031" lon="11.757888"><ele>861.5</ele><time>2026-04-06T13:07:33.153Z</time></trkpt><trkpt lat="43.8349682" lon="11.7577262"><ele>864.75</ele><time>2026-04-06T13:07:34.147Z</time></trkpt><trkpt lat="43.8349353" lon="11.7575066"><ele>868.0</ele><time>2026-04-06T13:07:35.157Z</time></trkpt><trkpt lat="43.8349012" lon="11.7573008"><ele>861.0</ele><time>2026-04-06T13:07:36.15Z</time></trkpt><trkpt lat="43.8348733" lon="11.757099"><ele>854.0</ele><time>2026-04-06T13:07:37.153Z</time></trkpt><trkpt lat="43.8348369" lon="11.7568973"><ele>847.0</ele><time>2026-04-06T13:07:38.158Z</time></trkpt><trkpt lat="43.834777" lon="11.7567074"><ele>840.0</ele><time>2026-04-06T13:07:39.154Z</time></trkpt><trkpt lat="43.8346902" lon="11.7565186"><ele>834.0</ele><time>2026-04-06T13:07:40.155Z</time></trkpt><trkpt lat="43.8345843" lon="11.7563441"><ele>828.0</ele><time>2026-04-06T13:07:41.154Z</time></trkpt><trkpt lat="43.8344786" lon="11.7561813"><ele>822.0</ele><time>2026-04-06T13:07:42.138Z</time></trkpt><trkpt lat="43.834395" lon="11.7560174"><ele>819.0</ele><time>2026-04-06T13:07:43.156Z</time></trkpt><trkpt lat="43.8343332" lon="11.7558348"><ele>816.0</ele><time>2026-04-06T13:07:44.161Z</time></trkpt><trkpt lat="43.8343014" lon="11.7556383"><ele>813.0</ele><time>2026-04-06T13:07:45.156Z</time></trkpt><trkpt lat="43.8343124" lon="11.7554425"><ele>810.0</ele><time>2026-04-06T13:07:46.159Z</time></trkpt><trkpt lat="43.8342931" lon="11.7552607"><ele>814.5</ele><time>2026-04-06T13:07:47.152Z</time></trkpt><trkpt lat="43.8342147" lon="11.7551165"><ele>819.0</ele><time>2026-04-06T13:07:48.154Z</time></trkpt><trkpt lat="43.8341214" lon="11.7550307"><ele>823.5</ele><time>2026-04-06T13:07:49.144Z</time></trkpt><trkpt lat="43.8340074" lon="11.7549223"><ele>828.0</ele><time>2026-04-06T13:07:50.151Z</time></trkpt><trkpt lat="43.833909" lon="11.7548007"><ele>828.0</ele><time>2026-04-06T13:07:51.147Z</time></trkpt><trkpt lat="43.8338215" lon="11.7546517"><ele>828.0</ele><time>2026-04-06T13:07:52.153Z</time></trkpt><trkpt lat="43.8337653" lon="11.754492"><ele>828.0</ele><time>2026-04-06T13:07:53.145Z</time></trkpt><trkpt lat="43.8338077" lon="11.7542524"><ele>828.0</ele><time>2026-04-06T13:07:54.151Z</time></trkpt><trkpt lat="43.8338659" lon="11.7540036"><ele>821.5</ele><time>2026-04-06T13:07:55.149Z</time></trkpt><trkpt lat="43.8339052" lon="11.7538082"><ele>815.0</ele><time>2026-04-06T13:07:56.172Z</time></trkpt><trkpt lat="43.8339139" lon="11.7536323"><ele>808.5</ele><time>2026-04-06T13:07:57.156Z</time></trkpt><trkpt lat="43.8338785" lon="11.7534636"><ele>802.0</ele><time>2026-04-06T13:07:58.147Z</time></trkpt><trkpt lat="43.8337839" lon="11.7532972"><ele>795.3333333333333</ele><time>2026-04-06T13:07:59.163Z</time></trkpt><trkpt lat="43.833651" lon="11.7531539"><ele>788.6666666666667</ele><time>2026-04-06T13:08:00.147Z</time></trkpt><trkpt lat="43.8335242" lon="11.7530469"><ele>782.0</ele><time>2026-04-06T13:08:01.154Z</time></trkpt><trkpt lat="43.8333941" lon="11.7529532"><ele>786.25</ele><time>2026-04-06T13:08:02.147Z</time></trkpt><trkpt lat="43.8332768" lon="11.7528501"><ele>790.5</ele><time>2026-04-06T13:08:03.146Z</time></trkpt><trkpt lat="43.8331808" lon="11.7527114"><ele>794.75</ele><time>2026-04-06T13:08:04.152Z</time></trkpt><trkpt lat="43.8331227" lon="11.7525306"><ele>799.0</ele><time>2026-04-06T13:08:05.147Z</time></trkpt><trkpt lat="43.8331015" lon="11.7523218"><ele>799.0</ele><time>2026-04-06T13:08:06.141Z</time></trkpt><trkpt lat="43.8331012" lon="11.7521267"><ele>799.0</ele><time>2026-04-06T13:08:07.14Z</time></trkpt><trkpt lat="43.8330838" lon="11.7519311"><ele>799.0</ele><time>2026-04-06T13:08:08.151Z</time></trkpt><trkpt lat="43.8330087" lon="11.7517445"><ele>799.0</ele><time>2026-04-06T13:08:09.156Z</time></trkpt><trkpt lat="43.8329162" lon="11.7515683"><ele>802.5</ele><time>2026-04-06T13:08:10.148Z</time></trkpt><trkpt lat="43.8328419" lon="11.7513824"><ele>806.0</ele><time>2026-04-06T13:08:11.15Z</time></trkpt><trkpt lat="43.8327689" lon="11.7512022"><ele>809.5</ele><time>2026-04-06T13:08:12.156Z</time></trkpt><trkpt lat="43.8326887" lon="11.7510411"><ele>813.0</ele><time>2026-04-06T13:08:13.144Z</time></trkpt><trkpt lat="43.8326164" lon="11.7508991"><ele>813.0</ele><time>2026-04-06T13:08:14.157Z</time></trkpt><trkpt lat="43.8325696" lon="11.750723"><ele>813.0</ele><time>2026-04-06T13:08:15.15Z</time></trkpt><trkpt lat="43.8325556" lon="11.7504984"><ele>813.0</ele><time>2026-04-06T13:08:16.14Z</time></trkpt><trkpt lat="43.8325897" lon="11.7502599"><ele>806.3333333333333</ele><time>2026-04-06T13:08:17.147Z</time></trkpt><trkpt lat="43.8326277" lon="11.7500303"><ele>799.6666666666666</ele><time>2026-04-06T13:08:18.15Z</time></trkpt><trkpt lat="43.8326588" lon="11.7497991"><ele>793.0</ele><time>2026-04-06T13:08:19.16Z</time></trkpt><trkpt lat="43.8326616" lon="11.7495857"><ele>790.0</ele><time>2026-04-06T13:08:20.145Z</time></trkpt><trkpt lat="43.8326362" lon="11.7493671"><ele>787.0</ele><time>2026-04-06T13:08:21.155Z</time></trkpt><trkpt lat="43.8326304" lon="11.7491681"><ele>784.0</ele><time>2026-04-06T13:08:22.144Z</time></trkpt><trkpt lat="43.8326388" lon="11.7489704"><ele>781.0</ele><time>2026-04-06T13:08:23.161Z</time></trkpt><trkpt lat="43.8326297" lon="11.7488076"><ele>781.0</ele><time>2026-04-06T13:08:24.156Z</time></trkpt><trkpt lat="43.8325852" lon="11.7486833"><ele>781.0</ele><time>2026-04-06T13:08:25.155Z</time></trkpt><trkpt lat="43.8324746" lon="11.7485899"><ele>781.0</ele><time>2026-04-06T13:08:26.154Z</time></trkpt><trkpt lat="43.8323479" lon="11.7485454"><ele>781.0</ele><time>2026-04-06T13:08:27.168Z</time></trkpt><trkpt lat="43.8322163" lon="11.748604"><ele>781.0</ele><time>2026-04-06T13:08:28.154Z</time></trkpt><trkpt lat="43.83209" lon="11.7487239"><ele>781.0</ele><time>2026-04-06T13:08:29.157Z</time></trkpt><trkpt lat="43.8319729" lon="11.7488639"><ele>781.0</ele><time>2026-04-06T13:08:30.165Z</time></trkpt><trkpt lat="43.8318622" lon="11.7489559"><ele>781.0</ele><time>2026-04-06T13:08:31.161Z</time></trkpt><trkpt lat="43.8317408" lon="11.7489879"><ele>781.0</ele><time>2026-04-06T13:08:32.159Z</time></trkpt><trkpt lat="43.8316023" lon="11.7489713"><ele>781.0</ele><time>2026-04-06T13:08:33.151Z</time></trkpt><trkpt lat="43.8314327" lon="11.7489009"><ele>781.0</ele><time>2026-04-06T13:08:34.143Z</time></trkpt><trkpt lat="43.8312866" lon="11.7487808"><ele>781.0</ele><time>2026-04-06T13:08:35.162Z</time></trkpt><trkpt lat="43.8311431" lon="11.7486786"><ele>781.0</ele><time>2026-04-06T13:08:36.143Z</time></trkpt><trkpt lat="43.8309873" lon="11.7485869"><ele>781.0</ele><time>2026-04-06T13:08:37.155Z</time></trkpt><trkpt lat="43.8308446" lon="11.7485077"><ele>774.3333333333333</ele><time>2026-04-06T13:08:38.141Z</time></trkpt><trkpt lat="43.8306995" lon="11.7483844"><ele>767.6666666666666</ele><time>2026-04-06T13:08:39.156Z</time></trkpt><trkpt lat="43.8305594" lon="11.7482233"><ele>761.0</ele><time>2026-04-06T13:08:40.153Z</time></trkpt><trkpt lat="43.830421" lon="11.7480511"><ele>761.0</ele><time>2026-04-06T13:08:41.153Z</time></trkpt><trkpt lat="43.8302887" lon="11.7478654"><ele>761.0</ele><time>2026-04-06T13:08:42.138Z</time></trkpt><trkpt lat="43.8301612" lon="11.747671"><ele>761.0</ele><time>2026-04-06T13:08:43.148Z</time></trkpt><trkpt lat="43.8300507" lon="11.7474812"><ele>761.75</ele><time>2026-04-06T13:08:44.15Z</time></trkpt><trkpt lat="43.8299445" lon="11.7473163"><ele>762.5</ele><time>2026-04-06T13:08:45.153Z</time></trkpt><trkpt lat="43.8298362" lon="11.747188"><ele>763.25</ele><time>2026-04-06T13:08:46.164Z</time></trkpt><trkpt lat="43.8297249" lon="11.7470858"><ele>764.0</ele><time>2026-04-06T13:08:47.146Z</time></trkpt><trkpt lat="43.8295865" lon="11.7470067"><ele>764.0</ele><time>2026-04-06T13:08:48.156Z</time></trkpt><trkpt lat="43.8294393" lon="11.7469467"><ele>764.0</ele><time>2026-04-06T13:08:49.148Z</time></trkpt><trkpt lat="43.8292855" lon="11.7468681"><ele>764.0</ele><time>2026-04-06T13:08:50.147Z</time></trkpt><trkpt lat="43.8291358" lon="11.7467672"><ele>759.0</ele><time>2026-04-06T13:08:51.157Z</time></trkpt><trkpt lat="43.8289945" lon="11.7466408"><ele>754.0</ele><time>2026-04-06T13:08:52.153Z</time></trkpt><trkpt lat="43.8288698" lon="11.7465211"><ele>749.0</ele><time>2026-04-06T13:08:53.142Z</time></trkpt><trkpt lat="43.8287367" lon="11.7464143"><ele>749.0</ele><time>2026-04-06T13:08:54.155Z</time></trkpt><trkpt lat="43.8285764" lon="11.7463463"><ele>749.0</ele><time>2026-04-06T13:08:55.149Z</time></trkpt><trkpt lat="43.8284212" lon="11.7463209"><ele>749.0</ele><time>2026-04-06T13:08:56.16Z</time></trkpt><trkpt lat="43.8282727" lon="11.7462762"><ele>756.0</ele><time>2026-04-06T13:08:57.15Z</time></trkpt><trkpt lat="43.8281354" lon="11.7461906"><ele>763.0</ele><time>2026-04-06T13:08:58.15Z</time></trkpt><trkpt lat="43.8279938" lon="11.7460687"><ele>770.0</ele><time>2026-04-06T13:08:59.153Z</time></trkpt><trkpt lat="43.8278592" lon="11.7458853"><ele>764.0</ele><time>2026-04-06T13:09:00.154Z</time></trkpt><trkpt lat="43.827724" lon="11.7457068"><ele>758.0</ele><time>2026-04-06T13:09:01.138Z</time></trkpt><trkpt lat="43.8275876" lon="11.7455302"><ele>752.0</ele><time>2026-04-06T13:09:02.148Z</time></trkpt><trkpt lat="43.8274606" lon="11.7453699"><ele>752.0</ele><time>2026-04-06T13:09:03.153Z</time></trkpt><trkpt lat="43.8273502" lon="11.7452299"><ele>752.0</ele><time>2026-04-06T13:09:04.16Z</time></trkpt><trkpt lat="43.8272706" lon="11.7450795"><ele>752.0</ele><time>2026-04-06T13:09:05.141Z</time></trkpt><trkpt lat="43.8272222" lon="11.7449066"><ele>752.0</ele><time>2026-04-06T13:09:06.152Z</time></trkpt><trkpt lat="43.8272" lon="11.7447172"><ele>744.5</ele><time>2026-04-06T13:09:07.151Z</time></trkpt><trkpt lat="43.8271942" lon="11.7445298"><ele>737.0</ele><time>2026-04-06T13:09:08.158Z</time></trkpt><trkpt lat="43.8271707" lon="11.7443718"><ele>729.5</ele><time>2026-04-06T13:09:09.168Z</time></trkpt><trkpt lat="43.8270947" lon="11.7442691"><ele>722.0</ele><time>2026-04-06T13:09:10.154Z</time></trkpt><trkpt lat="43.8269708" lon="11.7441962"><ele>721.3333333333333</ele><time>2026-04-06T13:09:11.161Z</time></trkpt><trkpt lat="43.8268216" lon="11.7441467"><ele>720.6666666666666</ele><time>2026-04-06T13:09:12.138Z</time></trkpt><trkpt lat="43.8266676" lon="11.7441212"><ele>720.0</ele><time>2026-04-06T13:09:13.151Z</time></trkpt><trkpt lat="43.8265134" lon="11.7440909"><ele>720.0</ele><time>2026-04-06T13:09:14.146Z</time></trkpt><trkpt lat="43.8263595" lon="11.7440593"><ele>720.0</ele><time>2026-04-06T13:09:15.156Z</time></trkpt><trkpt lat="43.8262188" lon="11.7440662"><ele>720.0</ele><time>2026-04-06T13:09:16.155Z</time></trkpt><trkpt lat="43.8260777" lon="11.7441067"><ele>720.0</ele><time>2026-04-06T13:09:17.156Z</time></trkpt><trkpt lat="43.8259318" lon="11.7442101"><ele>718.0</ele><time>2026-04-06T13:09:18.155Z</time></trkpt><trkpt lat="43.8257783" lon="11.7443137"><ele>716.0</ele><time>2026-04-06T13:09:19.162Z</time></trkpt><trkpt lat="43.8256094" lon="11.7443821"><ele>714.0</ele><time>2026-04-06T13:09:20.151Z</time></trkpt><trkpt lat="43.8254439" lon="11.7444032"><ele>714.0</ele><time>2026-04-06T13:09:21.157Z</time></trkpt><trkpt lat="43.8252707" lon="11.7443719"><ele>714.0</ele><time>2026-04-06T13:09:22.144Z</time></trkpt><trkpt lat="43.8251123" lon="11.7443461"><ele>714.0</ele><time>2026-04-06T13:09:23.15Z</time></trkpt><trkpt lat="43.8249557" lon="11.744313"><ele>710.6666666666666</ele><time>2026-04-06T13:09:24.151Z</time></trkpt><trkpt lat="43.8247974" lon="11.7443283"><ele>707.3333333333333</ele><time>2026-04-06T13:09:25.161Z</time></trkpt><trkpt lat="43.8246388" lon="11.7443773"><ele>704.0</ele><time>2026-04-06T13:09:26.156Z</time></trkpt><trkpt lat="43.8244674" lon="11.7444606"><ele>710.0</ele><time>2026-04-06T13:09:27.154Z</time></trkpt><trkpt lat="43.8243046" lon="11.744547"><ele>716.0</ele><time>2026-04-06T13:09:28.158Z</time></trkpt><trkpt lat="43.8241539" lon="11.74462"><ele>722.0</ele><time>2026-04-06T13:09:29.153Z</time></trkpt><trkpt lat="43.8239941" lon="11.7446506"><ele>722.0</ele><time>2026-04-06T13:09:30.157Z</time></trkpt><trkpt lat="43.8238423" lon="11.7446293"><ele>722.0</ele><time>2026-04-06T13:09:31.149Z</time></trkpt><trkpt lat="43.8236926" lon="11.7445429"><ele>722.0</ele><time>2026-04-06T13:09:32.147Z</time></trkpt><trkpt lat="43.823565" lon="11.7443958"><ele>713.3333333333333</ele><time>2026-04-06T13:09:33.157Z</time></trkpt><trkpt lat="43.8234672" lon="11.7442414"><ele>704.6666666666666</ele><time>2026-04-06T13:09:34.145Z</time></trkpt><trkpt lat="43.8234192" lon="11.7440342"><ele>696.0</ele><time>2026-04-06T13:09:35.151Z</time></trkpt><trkpt lat="43.8234198" lon="11.7438033"><ele>696.0</ele><time>2026-04-06T13:09:36.152Z</time></trkpt><trkpt lat="43.8234297" lon="11.7436133"><ele>696.0</ele><time>2026-04-06T13:09:37.159Z</time></trkpt><trkpt lat="43.8233873" lon="11.7434428"><ele>696.0</ele><time>2026-04-06T13:09:38.166Z</time></trkpt><trkpt lat="43.8232683" lon="11.7433027"><ele>696.0</ele><time>2026-04-06T13:09:39.157Z</time></trkpt><trkpt lat="43.8231041" lon="11.7432274"><ele>694.0</ele><time>2026-04-06T13:09:40.15Z</time></trkpt><trkpt lat="43.8229349" lon="11.7431579"><ele>692.0</ele><time>2026-04-06T13:09:41.139Z</time></trkpt><trkpt lat="43.8227516" lon="11.7430909"><ele>690.0</ele><time>2026-04-06T13:09:42.144Z</time></trkpt><trkpt lat="43.822576" lon="11.743015"><ele>690.0</ele><time>2026-04-06T13:09:43.157Z</time></trkpt><trkpt lat="43.8224074" lon="11.7429504"><ele>690.0</ele><time>2026-04-06T13:09:44.158Z</time></trkpt><trkpt lat="43.8222377" lon="11.7429104"><ele>690.0</ele><time>2026-04-06T13:09:45.161Z</time></trkpt><trkpt lat="43.8220639" lon="11.7429123"><ele>690.0</ele><time>2026-04-06T13:09:46.149Z</time></trkpt><trkpt lat="43.8218837" lon="11.7429411"><ele>690.0</ele><time>2026-04-06T13:09:47.149Z</time></trkpt><trkpt lat="43.8217088" lon="11.7430058"><ele>690.0</ele><time>2026-04-06T13:09:48.143Z</time></trkpt><trkpt lat="43.8215405" lon="11.7430929"><ele>688.0</ele><time>2026-04-06T13:09:49.152Z</time></trkpt><trkpt lat="43.8213813" lon="11.7431764"><ele>686.0</ele><time>2026-04-06T13:09:50.153Z</time></trkpt><trkpt lat="43.8212154" lon="11.7432372"><ele>684.0</ele><time>2026-04-06T13:09:51.149Z</time></trkpt><trkpt lat="43.8210471" lon="11.7432545"><ele>679.6666666666666</ele><time>2026-04-06T13:09:52.152Z</time></trkpt><trkpt lat="43.8208842" lon="11.7432266"><ele>675.3333333333333</ele><time>2026-04-06T13:09:53.154Z</time></trkpt><trkpt lat="43.8207446" lon="11.7431862"><ele>671.0</ele><time>2026-04-06T13:09:54.146Z</time></trkpt><trkpt lat="43.8206" lon="11.7430809"><ele>671.0</ele><time>2026-04-06T13:09:55.151Z</time></trkpt><trkpt lat="43.8204337" lon="11.7429264"><ele>671.0</ele><time>2026-04-06T13:09:56.143Z</time></trkpt><trkpt lat="43.8202551" lon="11.7427786"><ele>671.0</ele><time>2026-04-06T13:09:57.154Z</time></trkpt><trkpt lat="43.8200811" lon="11.7426342"><ele>666.3333333333333</ele><time>2026-04-06T13:09:58.143Z</time></trkpt><trkpt lat="43.8198868" lon="11.7425262"><ele>661.6666666666666</ele><time>2026-04-06T13:09:59.147Z</time></trkpt><trkpt lat="43.8196868" lon="11.7424161"><ele>657.0</ele><time>2026-04-06T13:10:00.15Z</time></trkpt><trkpt lat="43.819487" lon="11.742311"><ele>660.3333333333334</ele><time>2026-04-06T13:10:01.157Z</time></trkpt><trkpt lat="43.8192965" lon="11.7422115"><ele>663.6666666666667</ele><time>2026-04-06T13:10:02.157Z</time></trkpt><trkpt lat="43.8191173" lon="11.7421191"><ele>667.0</ele><time>2026-04-06T13:10:03.156Z</time></trkpt><trkpt lat="43.818944" lon="11.7420307"><ele>667.0</ele><time>2026-04-06T13:10:04.163Z</time></trkpt><trkpt lat="43.8187816" lon="11.7419414"><ele>667.0</ele><time>2026-04-06T13:10:05.139Z</time></trkpt><trkpt lat="43.8186249" lon="11.7418688"><ele>667.0</ele><time>2026-04-06T13:10:06.142Z</time></trkpt><trkpt lat="43.8184701" lon="11.7418336"><ele>666.5</ele><time>2026-04-06T13:10:07.148Z</time></trkpt><trkpt lat="43.8183232" lon="11.7418373"><ele>666.0</ele><time>2026-04-06T13:10:08.163Z</time></trkpt><trkpt lat="43.8181874" lon="11.7418528"><ele>665.5</ele><time>2026-04-06T13:10:09.159Z</time></trkpt><trkpt lat="43.8180745" lon="11.7418833"><ele>665.0</ele><time>2026-04-06T13:10:10.152Z</time></trkpt><trkpt lat="43.8179725" lon="11.7418976"><ele>660.4</ele><time>2026-04-06T13:10:11.149Z</time></trkpt><trkpt lat="43.8178849" lon="11.7418664"><ele>655.8</ele><time>2026-04-06T13:10:12.15Z</time></trkpt><trkpt lat="43.8178319" lon="11.7417736"><ele>651.2</ele><time>2026-04-06T13:10:13.159Z</time></trkpt><trkpt lat="43.8178233" lon="11.7416541"><ele>646.6</ele><time>2026-04-06T13:10:14.159Z</time></trkpt><trkpt lat="43.8178716" lon="11.7415137"><ele>642.0</ele><time>2026-04-06T13:10:15.159Z</time></trkpt><trkpt lat="43.8179533" lon="11.7414318"><ele>642.0</ele><time>2026-04-06T13:10:16.159Z</time></trkpt><trkpt lat="43.8180538" lon="11.7414249"><ele>642.0</ele><time>2026-04-06T13:10:17.154Z</time></trkpt><trkpt lat="43.8181781" lon="11.7414509"><ele>642.0</ele><time>2026-04-06T13:10:18.158Z</time></trkpt><trkpt lat="43.818305" lon="11.7415125"><ele>642.0</ele><time>2026-04-06T13:10:19.164Z</time></trkpt><trkpt lat="43.8184514" lon="11.7415563"><ele>639.6666666666666</ele><time>2026-04-06T13:10:20.163Z</time></trkpt><trkpt lat="43.8186202" lon="11.7416151"><ele>637.3333333333333</ele><time>2026-04-06T13:10:21.152Z</time></trkpt><trkpt lat="43.8187896" lon="11.7416876"><ele>635.0</ele><time>2026-04-06T13:10:22.156Z</time></trkpt><trkpt lat="43.8189488" lon="11.7417362"><ele>635.0</ele><time>2026-04-06T13:10:23.156Z</time></trkpt><trkpt lat="43.8191131" lon="11.7417545"><ele>635.0</ele><time>2026-04-06T13:10:24.155Z</time></trkpt><trkpt lat="43.8192927" lon="11.7417601"><ele>635.0</ele><time>2026-04-06T13:10:25.171Z</time></trkpt><trkpt lat="43.8194462" lon="11.7417381"><ele>633.3333333333333</ele><time>2026-04-06T13:10:26.159Z</time></trkpt><trkpt lat="43.819597" lon="11.7416645"><ele>631.6666666666666</ele><time>2026-04-06T13:10:27.149Z</time></trkpt><trkpt lat="43.8197472" lon="11.7416119"><ele>630.0</ele><time>2026-04-06T13:10:28.146Z</time></trkpt><trkpt lat="43.8198887" lon="11.7416267"><ele>630.0</ele><time>2026-04-06T13:10:29.156Z</time></trkpt><trkpt lat="43.8200383" lon="11.7416459"><ele>630.0</ele><time>2026-04-06T13:10:30.159Z</time></trkpt><trkpt lat="43.8201785" lon="11.7416881"><ele>630.0</ele><time>2026-04-06T13:10:31.149Z</time></trkpt><trkpt lat="43.820299" lon="11.7417537"><ele>630.0</ele><time>2026-04-06T13:10:32.158Z</time></trkpt><trkpt lat="43.8204203" lon="11.7417717"><ele>629.75</ele><time>2026-04-06T13:10:33.158Z</time></trkpt><trkpt lat="43.8205557" lon="11.7417238"><ele>629.5</ele><time>2026-04-06T13:10:34.14Z</time></trkpt><trkpt lat="43.8206712" lon="11.7416148"><ele>629.25</ele><time>2026-04-06T13:10:35.149Z</time></trkpt><trkpt lat="43.8207896" lon="11.7414604"><ele>629.0</ele><time>2026-04-06T13:10:36.144Z</time></trkpt><trkpt lat="43.8209029" lon="11.7412879"><ele>628.6</ele><time>2026-04-06T13:10:37.169Z</time></trkpt><trkpt lat="43.8209921" lon="11.7411696"><ele>628.2</ele><time>2026-04-06T13:10:38.158Z</time></trkpt><trkpt lat="43.8210633" lon="11.7410589"><ele>627.8000000000001</ele><time>2026-04-06T13:10:39.157Z</time></trkpt><trkpt lat="43.821119" lon="11.7409361"><ele>627.4</ele><time>2026-04-06T13:10:40.156Z</time></trkpt><trkpt lat="43.8211201" lon="11.7408396"><ele>627.0</ele><time>2026-04-06T13:10:41.157Z</time></trkpt><trkpt lat="43.8210809" lon="11.7407458"><ele>625.0</ele><time>2026-04-06T13:10:42.153Z</time></trkpt><trkpt lat="43.820979" lon="11.7406778"><ele>623.0</ele><time>2026-04-06T13:10:43.153Z</time></trkpt><trkpt lat="43.820836" lon="11.7406526"><ele>621.0</ele><time>2026-04-06T13:10:44.16Z</time></trkpt><trkpt lat="43.820696" lon="11.7406276"><ele>619.0</ele><time>2026-04-06T13:10:45.154Z</time></trkpt><trkpt lat="43.820562" lon="11.7405953"><ele>619.0</ele><time>2026-04-06T13:10:46.149Z</time></trkpt><trkpt lat="43.8204135" lon="11.740564"><ele>619.0</ele><time>2026-04-06T13:10:47.154Z</time></trkpt><trkpt lat="43.8202544" lon="11.7405282"><ele>619.0</ele><time>2026-04-06T13:10:48.143Z</time></trkpt><trkpt lat="43.8200917" lon="11.7404706"><ele>619.0</ele><time>2026-04-06T13:10:49.159Z</time></trkpt><trkpt lat="43.8199453" lon="11.7403558"><ele>619.0</ele><time>2026-04-06T13:10:50.154Z</time></trkpt><trkpt lat="43.8197968" lon="11.7402179"><ele>619.0</ele><time>2026-04-06T13:10:51.156Z</time></trkpt><trkpt lat="43.8196634" lon="11.7400471"><ele>619.0</ele><time>2026-04-06T13:10:52.159Z</time></trkpt><trkpt lat="43.8195386" lon="11.7398686"><ele>619.0</ele><time>2026-04-06T13:10:53.166Z</time></trkpt><trkpt lat="43.8194257" lon="11.7397124"><ele>619.0</ele><time>2026-04-06T13:10:54.179Z</time></trkpt><trkpt lat="43.8192897" lon="11.7396015"><ele>615.5</ele><time>2026-04-06T13:10:55.163Z</time></trkpt><trkpt lat="43.8191426" lon="11.7395446"><ele>612.0</ele><time>2026-04-06T13:10:56.156Z</time></trkpt><trkpt lat="43.8189997" lon="11.7395196"><ele>608.5</ele><time>2026-04-06T13:10:57.155Z</time></trkpt><trkpt lat="43.8188541" lon="11.7395246"><ele>605.0</ele><time>2026-04-06T13:10:58.152Z</time></trkpt><trkpt lat="43.8186953" lon="11.7395202"><ele>605.0</ele><time>2026-04-06T13:10:59.152Z</time></trkpt><trkpt lat="43.8185401" lon="11.7394843"><ele>605.0</ele><time>2026-04-06T13:11:00.145Z</time></trkpt><trkpt lat="43.8183863" lon="11.7394411"><ele>605.0</ele><time>2026-04-06T13:11:01.148Z</time></trkpt><trkpt lat="43.8182469" lon="11.7393739"><ele>609.0</ele><time>2026-04-06T13:11:02.159Z</time></trkpt><trkpt lat="43.8181113" lon="11.7392674"><ele>613.0</ele><time>2026-04-06T13:11:03.156Z</time></trkpt><trkpt lat="43.8179962" lon="11.7391379"><ele>617.0</ele><time>2026-04-06T13:11:04.166Z</time></trkpt><trkpt lat="43.8178823" lon="11.7389869"><ele>617.0</ele><time>2026-04-06T13:11:05.159Z</time></trkpt><trkpt lat="43.8177466" lon="11.7388678"><ele>617.0</ele><time>2026-04-06T13:11:06.144Z</time></trkpt><trkpt lat="43.8175847" lon="11.7387814"><ele>617.0</ele><time>2026-04-06T13:11:07.149Z</time></trkpt><trkpt lat="43.8174142" lon="11.7387189"><ele>618.5</ele><time>2026-04-06T13:11:08.162Z</time></trkpt><trkpt lat="43.8172736" lon="11.7386807"><ele>620.0</ele><time>2026-04-06T13:11:09.163Z</time></trkpt><trkpt lat="43.8171545" lon="11.7386504"><ele>621.5</ele><time>2026-04-06T13:11:10.165Z</time></trkpt><trkpt lat="43.8170558" lon="11.7385933"><ele>623.0</ele><time>2026-04-06T13:11:11.156Z</time></trkpt><trkpt lat="43.8169843" lon="11.7385092"><ele>623.0</ele><time>2026-04-06T13:11:12.148Z</time></trkpt><trkpt lat="43.8169592" lon="11.7383776"><ele>623.0</ele><time>2026-04-06T13:11:13.152Z</time></trkpt><trkpt lat="43.8169776" lon="11.7381987"><ele>623.0</ele><time>2026-04-06T13:11:14.157Z</time></trkpt><trkpt lat="43.8170218" lon="11.7380067"><ele>623.0</ele><time>2026-04-06T13:11:15.139Z</time></trkpt><trkpt lat="43.8170472" lon="11.7378092"><ele>624.0</ele><time>2026-04-06T13:11:16.159Z</time></trkpt><trkpt lat="43.8170507" lon="11.7375964"><ele>625.0</ele><time>2026-04-06T13:11:17.15Z</time></trkpt><trkpt lat="43.8170254" lon="11.737372"><ele>626.0</ele><time>2026-04-06T13:11:18.15Z</time></trkpt><trkpt lat="43.8170057" lon="11.7371673"><ele>626.0</ele><time>2026-04-06T13:11:19.158Z</time></trkpt><trkpt lat="43.8169804" lon="11.736953"><ele>626.0</ele><time>2026-04-06T13:11:20.162Z</time></trkpt><trkpt lat="43.8169839" lon="11.7367293"><ele>626.0</ele><time>2026-04-06T13:11:21.158Z</time></trkpt><trkpt lat="43.817008" lon="11.7365056"><ele>623.25</ele><time>2026-04-06T13:11:22.161Z</time></trkpt><trkpt lat="43.8170394" lon="11.7362915"><ele>620.5</ele><time>2026-04-06T13:11:23.159Z</time></trkpt><trkpt lat="43.8170858" lon="11.7360964"><ele>617.75</ele><time>2026-04-06T13:11:24.158Z</time></trkpt><trkpt lat="43.8171416" lon="11.7359199"><ele>615.0</ele><time>2026-04-06T13:11:25.156Z</time></trkpt><trkpt lat="43.817193" lon="11.7357481"><ele>614.5</ele><time>2026-04-06T13:11:26.157Z</time></trkpt><trkpt lat="43.8172281" lon="11.7355724"><ele>614.0</ele><time>2026-04-06T13:11:27.164Z</time></trkpt><trkpt lat="43.8172309" lon="11.7353934"><ele>613.5</ele><time>2026-04-06T13:11:28.156Z</time></trkpt><trkpt lat="43.8172006" lon="11.7352116"><ele>613.0</ele><time>2026-04-06T13:11:29.158Z</time></trkpt><trkpt lat="43.817176" lon="11.7350338"><ele>613.0</ele><time>2026-04-06T13:11:30.158Z</time></trkpt><trkpt lat="43.8171545" lon="11.7348581"><ele>613.0</ele><time>2026-04-06T13:11:31.144Z</time></trkpt><trkpt lat="43.8171675" lon="11.7346495"><ele>613.0</ele><time>2026-04-06T13:11:32.142Z</time></trkpt><trkpt lat="43.8172182" lon="11.734433"><ele>613.0</ele><time>2026-04-06T13:11:33.162Z</time></trkpt><trkpt lat="43.8172684" lon="11.7342179"><ele>611.0</ele><time>2026-04-06T13:11:34.14Z</time></trkpt><trkpt lat="43.8173233" lon="11.7340089"><ele>609.0</ele><time>2026-04-06T13:11:35.159Z</time></trkpt><trkpt lat="43.8173716" lon="11.7337952"><ele>607.0</ele><time>2026-04-06T13:11:36.153Z</time></trkpt><trkpt lat="43.817407" lon="11.7335745"><ele>604.0</ele><time>2026-04-06T13:11:37.162Z</time></trkpt><trkpt lat="43.8174225" lon="11.733338"><ele>601.0</ele><time>2026-04-06T13:11:38.133Z</time></trkpt><trkpt lat="43.8174072" lon="11.7330869"><ele>598.0</ele><time>2026-04-06T13:11:39.159Z</time></trkpt><trkpt lat="43.8173859" lon="11.732832"><ele>597.6666666666667</ele><time>2026-04-06T13:11:40.143Z</time></trkpt><trkpt lat="43.8173749" lon="11.7325898"><ele>597.3333333333334</ele><time>2026-04-06T13:11:41.158Z</time></trkpt><trkpt lat="43.8173686" lon="11.7323597"><ele>597.0</ele><time>2026-04-06T13:11:42.155Z</time></trkpt><trkpt lat="43.8173668" lon="11.732135"><ele>597.0</ele><time>2026-04-06T13:11:43.156Z</time></trkpt><trkpt lat="43.8173547" lon="11.7319215"><ele>597.0</ele><time>2026-04-06T13:11:44.162Z</time></trkpt><trkpt lat="43.8173242" lon="11.7317066"><ele>597.0</ele><time>2026-04-06T13:11:45.152Z</time></trkpt><trkpt lat="43.8172957" lon="11.7314958"><ele>596.6666666666666</ele><time>2026-04-06T13:11:46.154Z</time></trkpt><trkpt lat="43.8172645" lon="11.7312757"><ele>596.3333333333333</ele><time>2026-04-06T13:11:47.156Z</time></trkpt><trkpt lat="43.8172392" lon="11.7310741"><ele>596.0</ele><time>2026-04-06T13:11:48.149Z</time></trkpt><trkpt lat="43.8172029" lon="11.7308634"><ele>597.0</ele><time>2026-04-06T13:11:49.15Z</time></trkpt><trkpt lat="43.8171261" lon="11.7306749"><ele>598.0</ele><time>2026-04-06T13:11:50.165Z</time></trkpt><trkpt lat="43.8170302" lon="11.7304967"><ele>599.0</ele><time>2026-04-06T13:11:51.157Z</time></trkpt><trkpt lat="43.8169098" lon="11.7303234"><ele>590.0</ele><time>2026-04-06T13:11:52.153Z</time></trkpt><trkpt lat="43.8167871" lon="11.7301576"><ele>581.0</ele><time>2026-04-06T13:11:53.162Z</time></trkpt><trkpt lat="43.8166778" lon="11.729969"><ele>572.0</ele><time>2026-04-06T13:11:54.147Z</time></trkpt><trkpt lat="43.8165881" lon="11.7297606"><ele>572.0</ele><time>2026-04-06T13:11:55.161Z</time></trkpt><trkpt lat="43.8165086" lon="11.7295439"><ele>572.0</ele><time>2026-04-06T13:11:56.165Z</time></trkpt><trkpt lat="43.8164297" lon="11.7293279"><ele>572.0</ele><time>2026-04-06T13:11:57.155Z</time></trkpt><trkpt lat="43.8163505" lon="11.7291131"><ele>575.3333333333333</ele><time>2026-04-06T13:11:58.152Z</time></trkpt><trkpt lat="43.8162751" lon="11.7289059"><ele>578.6666666666666</ele><time>2026-04-06T13:11:59.145Z</time></trkpt><trkpt lat="43.8162054" lon="11.7287107"><ele>582.0</ele><time>2026-04-06T13:12:00.16Z</time></trkpt><trkpt lat="43.8161399" lon="11.7285182"><ele>584.6666666666666</ele><time>2026-04-06T13:12:01.142Z</time></trkpt><trkpt lat="43.8160799" lon="11.7283271"><ele>587.3333333333333</ele><time>2026-04-06T13:12:02.15Z</time></trkpt><trkpt lat="43.8160155" lon="11.7281292"><ele>590.0</ele><time>2026-04-06T13:12:03.154Z</time></trkpt><trkpt lat="43.8159527" lon="11.7279378"><ele>584.0</ele><time>2026-04-06T13:12:04.152Z</time></trkpt><trkpt lat="43.8158953" lon="11.7277519"><ele>578.0</ele><time>2026-04-06T13:12:05.15Z</time></trkpt><trkpt lat="43.8158452" lon="11.727567"><ele>572.0</ele><time>2026-04-06T13:12:06.163Z</time></trkpt><trkpt lat="43.8157979" lon="11.7273841"><ele>566.0</ele><time>2026-04-06T13:12:07.169Z</time></trkpt><trkpt lat="43.8157698" lon="11.7271929"><ele>566.0</ele><time>2026-04-06T13:12:08.15Z</time></trkpt><trkpt lat="43.8157639" lon="11.7270079"><ele>566.0</ele><time>2026-04-06T13:12:09.147Z</time></trkpt><trkpt lat="43.8157401" lon="11.7268495"><ele>566.0</ele><time>2026-04-06T13:12:10.152Z</time></trkpt><trkpt lat="43.8156799" lon="11.7267176"><ele>566.0</ele><time>2026-04-06T13:12:11.153Z</time></trkpt><trkpt lat="43.8155776" lon="11.7266219"><ele>565.25</ele><time>2026-04-06T13:12:12.164Z</time></trkpt><trkpt lat="43.8154641" lon="11.7265442"><ele>564.5</ele><time>2026-04-06T13:12:13.146Z</time></trkpt><trkpt lat="43.8153775" lon="11.7264512"><ele>563.75</ele><time>2026-04-06T13:12:14.151Z</time></trkpt><trkpt lat="43.8153253" lon="11.7263235"><ele>563.0</ele><time>2026-04-06T13:12:15.15Z</time></trkpt><trkpt lat="43.8153066" lon="11.7261538"><ele>563.75</ele><time>2026-04-06T13:12:16.145Z</time></trkpt><trkpt lat="43.8153359" lon="11.7259573"><ele>564.5</ele><time>2026-04-06T13:12:17.153Z</time></trkpt><trkpt lat="43.8153776" lon="11.7257639"><ele>565.25</ele><time>2026-04-06T13:12:18.14Z</time></trkpt><trkpt lat="43.8154227" lon="11.7255858"><ele>566.0</ele><time>2026-04-06T13:12:19.159Z</time></trkpt><trkpt lat="43.8154269" lon="11.7253671"><ele>568.6666666666666</ele><time>2026-04-06T13:12:20.163Z</time></trkpt><trkpt lat="43.8153755" lon="11.725129"><ele>571.3333333333334</ele><time>2026-04-06T13:12:21.16Z</time></trkpt><trkpt lat="43.8152948" lon="11.7248965"><ele>574.0</ele><time>2026-04-06T13:12:22.156Z</time></trkpt><trkpt lat="43.8151916" lon="11.7246477"><ele>566.3333333333334</ele><time>2026-04-06T13:12:23.161Z</time></trkpt><trkpt lat="43.8150748" lon="11.7243983"><ele>558.6666666666666</ele><time>2026-04-06T13:12:24.144Z</time></trkpt><trkpt lat="43.8149558" lon="11.7241681"><ele>551.0</ele><time>2026-04-06T13:12:25.144Z</time></trkpt><trkpt lat="43.814845" lon="11.7239738"><ele>551.0</ele><time>2026-04-06T13:12:26.143Z</time></trkpt><trkpt lat="43.8147368" lon="11.7237996"><ele>551.0</ele><time>2026-04-06T13:12:27.157Z</time></trkpt><trkpt lat="43.8146341" lon="11.7236526"><ele>551.0</ele><time>2026-04-06T13:12:28.143Z</time></trkpt><trkpt lat="43.8145365" lon="11.723534"><ele>551.0</ele><time>2026-04-06T13:12:29.158Z</time></trkpt><trkpt lat="43.814479" lon="11.7233925"><ele>551.5</ele><time>2026-04-06T13:12:30.138Z</time></trkpt><trkpt lat="43.8144399" lon="11.7232202"><ele>552.0</ele><time>2026-04-06T13:12:31.143Z</time></trkpt><trkpt lat="43.8144439" lon="11.7230178"><ele>552.5</ele><time>2026-04-06T13:12:32.153Z</time></trkpt><trkpt lat="43.8144579" lon="11.7228144"><ele>553.0</ele><time>2026-04-06T13:12:33.155Z</time></trkpt><trkpt lat="43.8144494" lon="11.7226265"><ele>549.5</ele><time>2026-04-06T13:12:34.147Z</time></trkpt><trkpt lat="43.8144127" lon="11.7224509"><ele>546.0</ele><time>2026-04-06T13:12:35.153Z</time></trkpt><trkpt lat="43.8143611" lon="11.7222715"><ele>542.5</ele><time>2026-04-06T13:12:36.153Z</time></trkpt><trkpt lat="43.8143196" lon="11.7221017"><ele>539.0</ele><time>2026-04-06T13:12:37.157Z</time></trkpt><trkpt lat="43.8142839" lon="11.7219637"><ele>536.0</ele><time>2026-04-06T13:12:38.165Z</time></trkpt><trkpt lat="43.8142552" lon="11.7218193"><ele>533.0</ele><time>2026-04-06T13:12:39.152Z</time></trkpt><trkpt lat="43.8142237" lon="11.721668"><ele>530.0</ele><time>2026-04-06T13:12:40.145Z</time></trkpt><trkpt lat="43.814178" lon="11.721511"><ele>527.0</ele><time>2026-04-06T13:12:41.161Z</time></trkpt><trkpt lat="43.8140909" lon="11.7213631"><ele>527.0</ele><time>2026-04-06T13:12:42.163Z</time></trkpt><trkpt lat="43.8139682" lon="11.7212345"><ele>527.0</ele><time>2026-04-06T13:12:43.149Z</time></trkpt><trkpt lat="43.8138282" lon="11.7211327"><ele>527.0</ele><time>2026-04-06T13:12:44.152Z</time></trkpt><trkpt lat="43.8137096" lon="11.721042"><ele>527.0</ele><time>2026-04-06T13:12:45.147Z</time></trkpt><trkpt lat="43.8136064" lon="11.7209387"><ele>530.0</ele><time>2026-04-06T13:12:46.147Z</time></trkpt><trkpt lat="43.8135365" lon="11.7207991"><ele>533.0</ele><time>2026-04-06T13:12:47.15Z</time></trkpt><trkpt lat="43.8135065" lon="11.7206356"><ele>536.0</ele><time>2026-04-06T13:12:48.154Z</time></trkpt><trkpt lat="43.813501" lon="11.7204362"><ele>539.0</ele><time>2026-04-06T13:12:49.149Z</time></trkpt><trkpt lat="43.8135015" lon="11.7202298"><ele>542.0</ele><time>2026-04-06T13:12:50.155Z</time></trkpt><trkpt lat="43.8135206" lon="11.7199956"><ele>545.0</ele><time>2026-04-06T13:12:51.161Z</time></trkpt><trkpt lat="43.8135536" lon="11.7197913"><ele>548.0</ele><time>2026-04-06T13:12:52.148Z</time></trkpt><trkpt lat="43.8136056" lon="11.7196119"><ele>548.0</ele><time>2026-04-06T13:12:53.153Z</time></trkpt><trkpt lat="43.813687" lon="11.719444"><ele>548.0</ele><time>2026-04-06T13:12:54.161Z</time></trkpt><trkpt lat="43.813793" lon="11.7192828"><ele>548.0</ele><time>2026-04-06T13:12:55.165Z</time></trkpt><trkpt lat="43.813925" lon="11.7191353"><ele>542.3333333333333</ele><time>2026-04-06T13:12:56.154Z</time></trkpt><trkpt lat="43.814048" lon="11.7189729"><ele>536.6666666666666</ele><time>2026-04-06T13:12:57.14Z</time></trkpt><trkpt lat="43.8141528" lon="11.7187896"><ele>531.0</ele><time>2026-04-06T13:12:58.152Z</time></trkpt><trkpt lat="43.8142345" lon="11.7185996"><ele>526.6666666666666</ele><time>2026-04-06T13:12:59.144Z</time></trkpt><trkpt lat="43.8143016" lon="11.7184051"><ele>522.3333333333333</ele><time>2026-04-06T13:13:00.152Z</time></trkpt><trkpt lat="43.8143749" lon="11.7182112"><ele>518.0</ele><time>2026-04-06T13:13:01.163Z</time></trkpt><trkpt lat="43.8144533" lon="11.7180133"><ele>524.0</ele><time>2026-04-06T13:13:02.141Z</time></trkpt><trkpt lat="43.814533" lon="11.7178223"><ele>530.0</ele><time>2026-04-06T13:13:03.151Z</time></trkpt><trkpt lat="43.8146087" lon="11.7176218"><ele>536.0</ele><time>2026-04-06T13:13:04.15Z</time></trkpt><trkpt lat="43.8146844" lon="11.7174202"><ele>536.0</ele><time>2026-04-06T13:13:05.149Z</time></trkpt><trkpt lat="43.8147574" lon="11.7172172"><ele>536.0</ele><time>2026-04-06T13:13:06.152Z</time></trkpt><trkpt lat="43.8148268" lon="11.7170154"><ele>536.0</ele><time>2026-04-06T13:13:07.14Z</time></trkpt><trkpt lat="43.8148856" lon="11.716816"><ele>533.25</ele><time>2026-04-06T13:13:08.141Z</time></trkpt><trkpt lat="43.8149395" lon="11.7166135"><ele>530.5</ele><time>2026-04-06T13:13:09.156Z</time></trkpt><trkpt lat="43.8149928" lon="11.7164218"><ele>527.75</ele><time>2026-04-06T13:13:10.158Z</time></trkpt><trkpt lat="43.8150338" lon="11.7162439"><ele>525.0</ele><time>2026-04-06T13:13:11.151Z</time></trkpt><trkpt lat="43.8150523" lon="11.7160683"><ele>523.6666666666666</ele><time>2026-04-06T13:13:12.148Z</time></trkpt><trkpt lat="43.8150172" lon="11.7158878"><ele>522.3333333333333</ele><time>2026-04-06T13:13:13.149Z</time></trkpt><trkpt lat="43.8149448" lon="11.7156987"><ele>521.0</ele><time>2026-04-06T13:13:14.137Z</time></trkpt><trkpt lat="43.8148512" lon="11.7155167"><ele>521.0</ele><time>2026-04-06T13:13:15.141Z</time></trkpt><trkpt lat="43.8147606" lon="11.7153363"><ele>521.0</ele><time>2026-04-06T13:13:16.157Z</time></trkpt><trkpt lat="43.814685" lon="11.7151548"><ele>521.0</ele><time>2026-04-06T13:13:17.142Z</time></trkpt><trkpt lat="43.8146109" lon="11.7149895"><ele>522.0</ele><time>2026-04-06T13:13:18.144Z</time></trkpt><trkpt lat="43.814541" lon="11.7148179"><ele>523.0</ele><time>2026-04-06T13:13:19.162Z</time></trkpt><trkpt lat="43.814466" lon="11.7146602"><ele>524.0</ele><time>2026-04-06T13:13:20.143Z</time></trkpt><trkpt lat="43.814386" lon="11.7145192"><ele>525.0</ele><time>2026-04-06T13:13:21.144Z</time></trkpt><trkpt lat="43.8143017" lon="11.7143882"><ele>520.5</ele><time>2026-04-06T13:13:22.146Z</time></trkpt><trkpt lat="43.814215" lon="11.7142752"><ele>516.0</ele><time>2026-04-06T13:13:23.148Z</time></trkpt><trkpt lat="43.8141183" lon="11.7141891"><ele>511.5</ele><time>2026-04-06T13:13:24.151Z</time></trkpt><trkpt lat="43.8140071" lon="11.7141255"><ele>507.0</ele><time>2026-04-06T13:13:25.16Z</time></trkpt><trkpt lat="43.8138962" lon="11.7140595"><ele>507.0</ele><time>2026-04-06T13:13:26.149Z</time></trkpt><trkpt lat="43.813789" lon="11.713959"><ele>507.0</ele><time>2026-04-06T13:13:27.156Z</time></trkpt><trkpt lat="43.8136845" lon="11.7138368"><ele>507.0</ele><time>2026-04-06T13:13:28.148Z</time></trkpt><trkpt lat="43.8135941" lon="11.7136786"><ele>507.0</ele><time>2026-04-06T13:13:29.144Z</time></trkpt><trkpt lat="43.8135137" lon="11.7135089"><ele>503.66666666666663</ele><time>2026-04-06T13:13:30.157Z</time></trkpt><trkpt lat="43.8134437" lon="11.713313"><ele>500.3333333333333</ele><time>2026-04-06T13:13:31.15Z</time></trkpt><trkpt lat="43.8133804" lon="11.7131182"><ele>497.0</ele><time>2026-04-06T13:13:32.159Z</time></trkpt><trkpt lat="43.8132923" lon="11.71294"><ele>497.0</ele><time>2026-04-06T13:13:33.16Z</time></trkpt><trkpt lat="43.8131767" lon="11.7127961"><ele>497.0</ele><time>2026-04-06T13:13:34.145Z</time></trkpt><trkpt lat="43.8130531" lon="11.7127025"><ele>497.0</ele><time>2026-04-06T13:13:35.166Z</time></trkpt><trkpt lat="43.8129264" lon="11.7126264"><ele>497.0</ele><time>2026-04-06T13:13:36.156Z</time></trkpt><trkpt lat="43.812805" lon="11.7125503"><ele>496.75</ele><time>2026-04-06T13:13:37.163Z</time></trkpt><trkpt lat="43.8126897" lon="11.7124729"><ele>496.5</ele><time>2026-04-06T13:13:38.155Z</time></trkpt><trkpt lat="43.8125803" lon="11.7123967"><ele>496.25</ele><time>2026-04-06T13:13:39.152Z</time></trkpt><trkpt lat="43.8124823" lon="11.7123144"><ele>496.0</ele><time>2026-04-06T13:13:40.161Z</time></trkpt><trkpt lat="43.8123899" lon="11.7122306"><ele>496.0</ele><time>2026-04-06T13:13:41.143Z</time></trkpt><trkpt lat="43.8123133" lon="11.7121338"><ele>496.0</ele><time>2026-04-06T13:13:42.148Z</time></trkpt><trkpt lat="43.8122516" lon="11.7120237"><ele>496.0</ele><time>2026-04-06T13:13:43.158Z</time></trkpt><trkpt lat="43.81219" lon="11.7118958"><ele>496.0</ele><time>2026-04-06T13:13:44.148Z</time></trkpt><trkpt lat="43.8121153" lon="11.7117688"><ele>496.0</ele><time>2026-04-06T13:13:45.15Z</time></trkpt><trkpt lat="43.8120235" lon="11.7116347"><ele>497.0</ele><time>2026-04-06T13:13:46.147Z</time></trkpt><trkpt lat="43.811908" lon="11.7115151"><ele>498.0</ele><time>2026-04-06T13:13:47.147Z</time></trkpt><trkpt lat="43.8118035" lon="11.7113977"><ele>499.0</ele><time>2026-04-06T13:13:48.156Z</time></trkpt><trkpt lat="43.8117068" lon="11.7112908"><ele>500.0</ele><time>2026-04-06T13:13:49.154Z</time></trkpt><trkpt lat="43.8116128" lon="11.711194"><ele>500.75</ele><time>2026-04-06T13:13:50.154Z</time></trkpt><trkpt lat="43.8115195" lon="11.7111073"><ele>501.5</ele><time>2026-04-06T13:13:51.152Z</time></trkpt><trkpt lat="43.8114204" lon="11.7110307"><ele>502.25</ele><time>2026-04-06T13:13:52.148Z</time></trkpt><trkpt lat="43.8113033" lon="11.7109932"><ele>503.0</ele><time>2026-04-06T13:13:53.157Z</time></trkpt><trkpt lat="43.8111827" lon="11.7109988"><ele>503.0</ele><time>2026-04-06T13:13:54.162Z</time></trkpt><trkpt lat="43.8110652" lon="11.711039"><ele>502.99999999999994</ele><time>2026-04-06T13:13:55.155Z</time></trkpt><trkpt lat="43.8109635" lon="11.7110718"><ele>502.99999999999994</ele><time>2026-04-06T13:13:56.154Z</time></trkpt><trkpt lat="43.8108645" lon="11.7110613"><ele>503.0</ele><time>2026-04-06T13:13:57.163Z</time></trkpt><trkpt lat="43.8107538" lon="11.7109893"><ele>503.0</ele><time>2026-04-06T13:13:58.158Z</time></trkpt><trkpt lat="43.8106563" lon="11.7109059"><ele>501.75</ele><time>2026-04-06T13:13:59.159Z</time></trkpt><trkpt lat="43.81056" lon="11.7108074"><ele>500.5</ele><time>2026-04-06T13:14:00.152Z</time></trkpt><trkpt lat="43.8104526" lon="11.710719"><ele>499.25</ele><time>2026-04-06T13:14:01.15Z</time></trkpt><trkpt lat="43.810346" lon="11.7106314"><ele>498.0</ele><time>2026-04-06T13:14:02.153Z</time></trkpt><trkpt lat="43.8102267" lon="11.7105557"><ele>497.25</ele><time>2026-04-06T13:14:03.167Z</time></trkpt><trkpt lat="43.8101023" lon="11.7105205"><ele>496.5</ele><time>2026-04-06T13:14:04.161Z</time></trkpt><trkpt lat="43.8099804" lon="11.7105096"><ele>495.75</ele><time>2026-04-06T13:14:05.15Z</time></trkpt><trkpt lat="43.8098544" lon="11.710518"><ele>495.0</ele><time>2026-04-06T13:14:06.159Z</time></trkpt><trkpt lat="43.8097398" lon="11.7105057"><ele>495.0</ele><time>2026-04-06T13:14:07.149Z</time></trkpt><trkpt lat="43.8096191" lon="11.7104834"><ele>495.0</ele><time>2026-04-06T13:14:08.175Z</time></trkpt><trkpt lat="43.8094914" lon="11.7104324"><ele>495.0</ele><time>2026-04-06T13:14:09.157Z</time></trkpt><trkpt lat="43.8093609" lon="11.7103444"><ele>495.0</ele><time>2026-04-06T13:14:10.158Z</time></trkpt><trkpt lat="43.8092198" lon="11.7102202"><ele>494.33333333333337</ele><time>2026-04-06T13:14:11.148Z</time></trkpt><trkpt lat="43.8090775" lon="11.7101087"><ele>493.6666666666667</ele><time>2026-04-06T13:14:12.165Z</time></trkpt><trkpt lat="43.8089306" lon="11.7100127"><ele>493.0</ele><time>2026-04-06T13:14:13.149Z</time></trkpt><trkpt lat="43.8087617" lon="11.7099563"><ele>493.0</ele><time>2026-04-06T13:14:14.159Z</time></trkpt><trkpt lat="43.8086006" lon="11.7099109"><ele>493.0</ele><time>2026-04-06T13:14:15.151Z</time></trkpt><trkpt lat="43.8084457" lon="11.7098854"><ele>493.0</ele><time>2026-04-06T13:14:16.154Z</time></trkpt><trkpt lat="43.8082947" lon="11.7098584"><ele>491.0</ele><time>2026-04-06T13:14:17.168Z</time></trkpt><trkpt lat="43.8081516" lon="11.7098116"><ele>489.0</ele><time>2026-04-06T13:14:18.166Z</time></trkpt><trkpt lat="43.8080001" lon="11.709751"><ele>487.0</ele><time>2026-04-06T13:14:19.161Z</time></trkpt><trkpt lat="43.8078436" lon="11.7096665"><ele>487.0</ele><time>2026-04-06T13:14:20.158Z</time></trkpt><trkpt lat="43.8076863" lon="11.7095739"><ele>487.0</ele><time>2026-04-06T13:14:21.159Z</time></trkpt><trkpt lat="43.807531" lon="11.7094863"><ele>487.0</ele><time>2026-04-06T13:14:22.16Z</time></trkpt><trkpt lat="43.80738" lon="11.7094188"><ele>491.33333333333337</ele><time>2026-04-06T13:14:23.162Z</time></trkpt><trkpt lat="43.8072291" lon="11.7093501"><ele>495.66666666666663</ele><time>2026-04-06T13:14:24.158Z</time></trkpt><trkpt lat="43.8070869" lon="11.7092762"><ele>500.0</ele><time>2026-04-06T13:14:25.151Z</time></trkpt><trkpt lat="43.8069519" lon="11.7091895"><ele>500.0</ele><time>2026-04-06T13:14:26.157Z</time></trkpt><trkpt lat="43.8068306" lon="11.7090839"><ele>500.0</ele><time>2026-04-06T13:14:27.158Z</time></trkpt><trkpt lat="43.8067197" lon="11.7089488"><ele>500.0</ele><time>2026-04-06T13:14:28.157Z</time></trkpt><trkpt lat="43.8066092" lon="11.7088134"><ele>500.0</ele><time>2026-04-06T13:14:29.16Z</time></trkpt><trkpt lat="43.8065166" lon="11.7086582"><ele>496.0</ele><time>2026-04-06T13:14:30.162Z</time></trkpt><trkpt lat="43.8064336" lon="11.7084961"><ele>492.0</ele><time>2026-04-06T13:14:31.151Z</time></trkpt><trkpt lat="43.8063583" lon="11.7083443"><ele>488.0</ele><time>2026-04-06T13:14:32.161Z</time></trkpt><trkpt lat="43.8062728" lon="11.7082134"><ele>484.0</ele><time>2026-04-06T13:14:33.148Z</time></trkpt><trkpt lat="43.8061611" lon="11.7081552"><ele>484.0</ele><time>2026-04-06T13:14:34.148Z</time></trkpt><trkpt lat="43.8060326" lon="11.7081671"><ele>484.0</ele><time>2026-04-06T13:14:35.158Z</time></trkpt><trkpt lat="43.8058974" lon="11.7081816"><ele>484.0</ele><time>2026-04-06T13:14:36.16Z</time></trkpt><trkpt lat="43.8057544" lon="11.7082314"><ele>484.0</ele><time>2026-04-06T13:14:37.147Z</time></trkpt><trkpt lat="43.8056186" lon="11.7083055"><ele>481.25</ele><time>2026-04-06T13:14:38.148Z</time></trkpt><trkpt lat="43.8054861" lon="11.708363"><ele>478.5</ele><time>2026-04-06T13:14:39.158Z</time></trkpt><trkpt lat="43.8053604" lon="11.7084227"><ele>475.75</ele><time>2026-04-06T13:14:40.162Z</time></trkpt><trkpt lat="43.8052419" lon="11.708476"><ele>473.0</ele><time>2026-04-06T13:14:41.158Z</time></trkpt><trkpt lat="43.8051241" lon="11.7085213"><ele>472.4</ele><time>2026-04-06T13:14:42.158Z</time></trkpt><trkpt lat="43.8050047" lon="11.7085527"><ele>471.79999999999995</ele><time>2026-04-06T13:14:43.155Z</time></trkpt><trkpt lat="43.8048932" lon="11.7085719"><ele>471.2</ele><time>2026-04-06T13:14:44.147Z</time></trkpt><trkpt lat="43.8047885" lon="11.7085878"><ele>470.6</ele><time>2026-04-06T13:14:45.167Z</time></trkpt><trkpt lat="43.8046821" lon="11.7086051"><ele>470.0</ele><time>2026-04-06T13:14:46.167Z</time></trkpt><trkpt lat="43.8045808" lon="11.7086199"><ele>468.4</ele><time>2026-04-06T13:14:47.166Z</time></trkpt><trkpt lat="43.804484" lon="11.7086313"><ele>466.8</ele><time>2026-04-06T13:14:48.152Z</time></trkpt><trkpt lat="43.8044179" lon="11.7086432"><ele>465.20000000000005</ele><time>2026-04-06T13:14:49.152Z</time></trkpt><trkpt lat="43.8043221" lon="11.7086392"><ele>463.6</ele><time>2026-04-06T13:14:51.158Z</time></trkpt><trkpt lat="43.8042462" lon="11.7086207"><ele>462.0</ele><time>2026-04-06T13:15:12.152Z</time></trkpt><trkpt lat="43.8041545" lon="11.7087406"><ele>462.6</ele><time>2026-04-06T13:15:14.156Z</time></trkpt><trkpt lat="43.8041199" lon="11.7088627"><ele>463.20000000000005</ele><time>2026-04-06T13:15:15.166Z</time></trkpt><trkpt lat="43.8040947" lon="11.7090182"><ele>463.8</ele><time>2026-04-06T13:15:16.166Z</time></trkpt><trkpt lat="43.8040661" lon="11.7091736"><ele>464.4</ele><time>2026-04-06T13:15:17.166Z</time></trkpt><trkpt lat="43.8040312" lon="11.7093087"><ele>465.0</ele><time>2026-04-06T13:15:18.166Z</time></trkpt><trkpt lat="43.8039678" lon="11.7094324"><ele>465.0</ele><time>2026-04-06T13:15:19.164Z</time></trkpt><trkpt lat="43.803865" lon="11.7095242"><ele>465.0</ele><time>2026-04-06T13:15:20.159Z</time></trkpt><trkpt lat="43.8037336" lon="11.709586"><ele>465.0</ele><time>2026-04-06T13:15:21.157Z</time></trkpt><trkpt lat="43.8035894" lon="11.7096434"><ele>465.0</ele><time>2026-04-06T13:15:22.161Z</time></trkpt><trkpt lat="43.8034493" lon="11.7096951"><ele>464.25</ele><time>2026-04-06T13:15:23.152Z</time></trkpt><trkpt lat="43.8033186" lon="11.7097557"><ele>463.5</ele><time>2026-04-06T13:15:24.16Z</time></trkpt><trkpt lat="43.8031908" lon="11.7098191"><ele>462.75</ele><time>2026-04-06T13:15:25.154Z</time></trkpt><trkpt lat="43.8030605" lon="11.7098885"><ele>462.0</ele><time>2026-04-06T13:15:26.16Z</time></trkpt><trkpt lat="43.8029404" lon="11.7099538"><ele>462.0</ele><time>2026-04-06T13:15:27.15Z</time></trkpt><trkpt lat="43.802809" lon="11.710014"><ele>462.0</ele><time>2026-04-06T13:15:28.15Z</time></trkpt><trkpt lat="43.8026849" lon="11.7100679"><ele>462.0</ele><time>2026-04-06T13:15:29.153Z</time></trkpt><trkpt lat="43.8025566" lon="11.7101119"><ele>462.0</ele><time>2026-04-06T13:15:30.156Z</time></trkpt><trkpt lat="43.8024314" lon="11.7101223"><ele>461.5</ele><time>2026-04-06T13:15:31.157Z</time></trkpt><trkpt lat="43.8022991" lon="11.7101151"><ele>461.0</ele><time>2026-04-06T13:15:32.144Z</time></trkpt><trkpt lat="43.802161" lon="11.7100963"><ele>460.5</ele><time>2026-04-06T13:15:33.147Z</time></trkpt><trkpt lat="43.8020162" lon="11.7100766"><ele>460.0</ele><time>2026-04-06T13:15:34.149Z</time></trkpt><trkpt lat="43.8018828" lon="11.7100517"><ele>462.0</ele><time>2026-04-06T13:15:35.143Z</time></trkpt><trkpt lat="43.801743" lon="11.7100309"><ele>464.0</ele><time>2026-04-06T13:15:36.16Z</time></trkpt><trkpt lat="43.8016119" lon="11.7100094"><ele>466.0</ele><time>2026-04-06T13:15:37.153Z</time></trkpt><trkpt lat="43.801494" lon="11.7099808"><ele>468.0</ele><time>2026-04-06T13:15:38.149Z</time></trkpt><trkpt lat="43.8013884" lon="11.7099489"><ele>468.0</ele><time>2026-04-06T13:15:39.147Z</time></trkpt><trkpt lat="43.8012881" lon="11.7099225"><ele>467.99999999999994</ele><time>2026-04-06T13:15:40.15Z</time></trkpt><trkpt lat="43.801192" lon="11.709906"><ele>467.99999999999994</ele><time>2026-04-06T13:15:41.166Z</time></trkpt><trkpt lat="43.8010964" lon="11.7098956"><ele>468.0</ele><time>2026-04-06T13:15:42.163Z</time></trkpt><trkpt lat="43.8010089" lon="11.7098822"><ele>468.0</ele><time>2026-04-06T13:15:43.161Z</time></trkpt><trkpt lat="43.8009215" lon="11.7098636"><ele>466.59999999999997</ele><time>2026-04-06T13:15:44.155Z</time></trkpt><trkpt lat="43.8008384" lon="11.7098507"><ele>465.19999999999993</ele><time>2026-04-06T13:15:45.153Z</time></trkpt><trkpt lat="43.8007544" lon="11.7098305"><ele>463.8</ele><time>2026-04-06T13:15:46.163Z</time></trkpt><trkpt lat="43.8006654" lon="11.7098102"><ele>462.4</ele><time>2026-04-06T13:15:47.149Z</time></trkpt><trkpt lat="43.80057" lon="11.7097924"><ele>461.0</ele><time>2026-04-06T13:15:48.148Z</time></trkpt><trkpt lat="43.8004763" lon="11.7097736"><ele>461.0</ele><time>2026-04-06T13:15:49.158Z</time></trkpt><trkpt lat="43.8003798" lon="11.7097528"><ele>461.0</ele><time>2026-04-06T13:15:50.147Z</time></trkpt><trkpt lat="43.8002879" lon="11.7097371"><ele>461.0</ele><time>2026-04-06T13:15:51.159Z</time></trkpt><trkpt lat="43.8001963" lon="11.7097222"><ele>461.0</ele><time>2026-04-06T13:15:52.16Z</time></trkpt><trkpt lat="43.8001047" lon="11.7097079"><ele>461.0</ele><time>2026-04-06T13:15:53.147Z</time></trkpt><trkpt lat="43.8000165" lon="11.7096982"><ele>460.20000000000005</ele><time>2026-04-06T13:15:54.157Z</time></trkpt><trkpt lat="43.7999247" lon="11.7096853"><ele>459.40000000000003</ele><time>2026-04-06T13:15:55.149Z</time></trkpt><trkpt lat="43.799825" lon="11.7096675"><ele>458.6</ele><time>2026-04-06T13:15:56.163Z</time></trkpt><trkpt lat="43.7997262" lon="11.7096444"><ele>457.8</ele><time>2026-04-06T13:15:57.155Z</time></trkpt><trkpt lat="43.7996271" lon="11.7096268"><ele>457.0</ele><time>2026-04-06T13:15:58.149Z</time></trkpt><trkpt lat="43.7995288" lon="11.7096116"><ele>457.0</ele><time>2026-04-06T13:15:59.159Z</time></trkpt><trkpt lat="43.799437" lon="11.7095948"><ele>457.00000000000006</ele><time>2026-04-06T13:16:00.15Z</time></trkpt><trkpt lat="43.7993407" lon="11.7095761"><ele>457.00000000000006</ele><time>2026-04-06T13:16:01.154Z</time></trkpt><trkpt lat="43.7992452" lon="11.7095604"><ele>457.0</ele><time>2026-04-06T13:16:02.166Z</time></trkpt><trkpt lat="43.7991534" lon="11.7095444"><ele>457.0</ele><time>2026-04-06T13:16:03.15Z</time></trkpt><trkpt lat="43.7990643" lon="11.7095252"><ele>456.50000000000006</ele><time>2026-04-06T13:16:04.156Z</time></trkpt><trkpt lat="43.7989744" lon="11.7095036"><ele>456.0</ele><time>2026-04-06T13:16:05.166Z</time></trkpt><trkpt lat="43.7988934" lon="11.7094681"><ele>455.5</ele><time>2026-04-06T13:16:06.154Z</time></trkpt><trkpt lat="43.7988136" lon="11.7094297"><ele>455.0</ele><time>2026-04-06T13:16:07.166Z</time></trkpt><trkpt lat="43.7987443" lon="11.7093837"><ele>454.50000000000006</ele><time>2026-04-06T13:16:08.165Z</time></trkpt><trkpt lat="43.7986754" lon="11.7093425"><ele>454.0</ele><time>2026-04-06T13:16:09.155Z</time></trkpt><trkpt lat="43.7985611" lon="11.7092847"><ele>453.50000000000006</ele><time>2026-04-06T13:16:11.17Z</time></trkpt><trkpt lat="43.7984746" lon="11.7093265"><ele>453.0</ele><time>2026-04-06T13:16:13.187Z</time></trkpt><trkpt lat="43.7984023" lon="11.7094168"><ele>452.5</ele><time>2026-04-06T13:16:15.145Z</time></trkpt><trkpt lat="43.7983293" lon="11.7094962"><ele>452.0</ele><time>2026-04-06T13:16:17.153Z</time></trkpt><trkpt lat="43.7982733" lon="11.7095848"><ele>451.50000000000006</ele><time>2026-04-06T13:16:19.159Z</time></trkpt><trkpt lat="43.7982212" lon="11.7096515"><ele>451.0</ele><time>2026-04-06T13:16:21.157Z</time></trkpt><trkpt lat="43.7982883" lon="11.7096197"><ele>451.00000000000006</ele><time>2026-04-06T13:17:50.142Z</time></trkpt><trkpt lat="43.7983528" lon="11.709502"><ele>451.0</ele><time>2026-04-06T13:17:52.154Z</time></trkpt><trkpt lat="43.7984334" lon="11.709404"><ele>451.0</ele><time>2026-04-06T13:17:54.154Z</time></trkpt><trkpt lat="43.7984915" lon="11.7093571"><ele>451.0</ele><time>2026-04-06T13:17:56.146Z</time></trkpt><trkpt lat="43.7985597" lon="11.7093352"><ele>451.00000000000006</ele><time>2026-04-06T13:22:39.155Z</time></trkpt><trkpt lat="43.7986393" lon="11.7093502"><ele>451.0</ele><time>2026-04-06T13:22:57.166Z</time></trkpt><trkpt lat="43.7987034" lon="11.7093938"><ele>451.75</ele><time>2026-04-06T13:22:58.162Z</time></trkpt><trkpt lat="43.7987921" lon="11.7094391"><ele>452.5</ele><time>2026-04-06T13:22:59.166Z</time></trkpt><trkpt lat="43.7989058" lon="11.7094944"><ele>453.25</ele><time>2026-04-06T13:23:00.161Z</time></trkpt><trkpt lat="43.7990305" lon="11.7095524"><ele>454.0</ele><time>2026-04-06T13:23:01.16Z</time></trkpt><trkpt lat="43.799153" lon="11.7095953"><ele>454.0</ele><time>2026-04-06T13:23:02.169Z</time></trkpt><trkpt lat="43.7992753" lon="11.7096284"><ele>454.0</ele><time>2026-04-06T13:23:03.164Z</time></trkpt><trkpt lat="43.7993975" lon="11.7096545"><ele>454.0</ele><time>2026-04-06T13:23:04.186Z</time></trkpt><trkpt lat="43.7995165" lon="11.7096784"><ele>454.0</ele><time>2026-04-06T13:23:05.162Z</time></trkpt><trkpt lat="43.7996378" lon="11.7097046"><ele>454.75</ele><time>2026-04-06T13:23:06.157Z</time></trkpt><trkpt lat="43.7997548" lon="11.7097386"><ele>455.5</ele><time>2026-04-06T13:23:07.145Z</time></trkpt><trkpt lat="43.7998677" lon="11.7097616"><ele>456.25</ele><time>2026-04-06T13:23:08.149Z</time></trkpt><trkpt lat="43.7999796" lon="11.709789"><ele>457.0</ele><time>2026-04-06T13:23:09.142Z</time></trkpt><trkpt lat="43.8000913" lon="11.709813"><ele>457.8</ele><time>2026-04-06T13:23:10.151Z</time></trkpt><trkpt lat="43.8002039" lon="11.7098314"><ele>458.6</ele><time>2026-04-06T13:23:11.147Z</time></trkpt><trkpt lat="43.8003159" lon="11.7098526"><ele>459.40000000000003</ele><time>2026-04-06T13:23:12.159Z</time></trkpt><trkpt lat="43.8004282" lon="11.7098728"><ele>460.20000000000005</ele><time>2026-04-06T13:23:13.148Z</time></trkpt><trkpt lat="43.8005242" lon="11.709892"><ele>461.0</ele><time>2026-04-06T13:23:14.176Z</time></trkpt><trkpt lat="43.8006038" lon="11.7099143"><ele>460.99999999999994</ele><time>2026-04-06T13:23:15.152Z</time></trkpt><trkpt lat="43.8006839" lon="11.7099249"><ele>461.0</ele><time>2026-04-06T13:23:16.147Z</time></trkpt><trkpt lat="43.8007612" lon="11.7099315"><ele>461.0</ele><time>2026-04-06T13:23:17.154Z</time></trkpt><trkpt lat="43.8008327" lon="11.7099339"><ele>461.0</ele><time>2026-04-06T13:23:18.159Z</time></trkpt><trkpt lat="43.8009141" lon="11.7099469"><ele>460.99999999999994</ele><time>2026-04-06T13:23:19.142Z</time></trkpt><trkpt lat="43.8010081" lon="11.7099603"><ele>461.0</ele><time>2026-04-06T13:23:20.14Z</time></trkpt><trkpt lat="43.8011094" lon="11.7099722"><ele>462.75</ele><time>2026-04-06T13:23:21.15Z</time></trkpt><trkpt lat="43.8012228" lon="11.7099847"><ele>464.5</ele><time>2026-04-06T13:23:22.16Z</time></trkpt><trkpt lat="43.801336" lon="11.7099991"><ele>466.25</ele><time>2026-04-06T13:23:23.152Z</time></trkpt><trkpt lat="43.801446" lon="11.7100123"><ele>468.0</ele><time>2026-04-06T13:23:24.15Z</time></trkpt><trkpt lat="43.80156" lon="11.7100405"><ele>468.0</ele><time>2026-04-06T13:23:25.152Z</time></trkpt><trkpt lat="43.8016733" lon="11.7100636"><ele>468.0</ele><time>2026-04-06T13:23:26.148Z</time></trkpt><trkpt lat="43.8017864" lon="11.7100788"><ele>468.0</ele><time>2026-04-06T13:23:27.153Z</time></trkpt><trkpt lat="43.801899" lon="11.7100905"><ele>468.0</ele><time>2026-04-06T13:23:28.146Z</time></trkpt><trkpt lat="43.8020135" lon="11.7101102"><ele>466.4</ele><time>2026-04-06T13:23:29.162Z</time></trkpt><trkpt lat="43.8021307" lon="11.710126"><ele>464.79999999999995</ele><time>2026-04-06T13:23:30.15Z</time></trkpt><trkpt lat="43.8022342" lon="11.7101404"><ele>463.2</ele><time>2026-04-06T13:23:31.151Z</time></trkpt><trkpt lat="43.8023301" lon="11.710159"><ele>461.6</ele><time>2026-04-06T13:23:32.143Z</time></trkpt><trkpt lat="43.8024307" lon="11.7101698"><ele>460.0</ele><time>2026-04-06T13:23:33.149Z</time></trkpt><trkpt lat="43.8025364" lon="11.7101665"><ele>460.0</ele><time>2026-04-06T13:23:34.155Z</time></trkpt><trkpt lat="43.802647" lon="11.7101413"><ele>460.0</ele><time>2026-04-06T13:23:35.151Z</time></trkpt><trkpt lat="43.8027615" lon="11.7100922"><ele>460.0</ele><time>2026-04-06T13:23:36.153Z</time></trkpt><trkpt lat="43.8028815" lon="11.7100391"><ele>460.0</ele><time>2026-04-06T13:23:37.15Z</time></trkpt><trkpt lat="43.8030026" lon="11.709972"><ele>460.5</ele><time>2026-04-06T13:23:38.15Z</time></trkpt><trkpt lat="43.8031265" lon="11.7099021"><ele>461.0</ele><time>2026-04-06T13:23:39.146Z</time></trkpt><trkpt lat="43.8032481" lon="11.7098359"><ele>461.5</ele><time>2026-04-06T13:23:40.15Z</time></trkpt><trkpt lat="43.8033646" lon="11.7097761"><ele>462.0</ele><time>2026-04-06T13:23:41.16Z</time></trkpt><trkpt lat="43.8034753" lon="11.7097268"><ele>462.6</ele><time>2026-04-06T13:23:42.156Z</time></trkpt><trkpt lat="43.8035821" lon="11.7096833"><ele>463.20000000000005</ele><time>2026-04-06T13:23:43.153Z</time></trkpt><trkpt lat="43.803682" lon="11.7096288"><ele>463.8</ele><time>2026-04-06T13:23:44.144Z</time></trkpt><trkpt lat="43.8037747" lon="11.7095843"><ele>464.4</ele><time>2026-04-06T13:23:45.148Z</time></trkpt><trkpt lat="43.8038616" lon="11.7095334"><ele>465.0</ele><time>2026-04-06T13:23:46.148Z</time></trkpt><trkpt lat="43.80394" lon="11.7094776"><ele>463.6666666666667</ele><time>2026-04-06T13:23:47.153Z</time></trkpt><trkpt lat="43.8040123" lon="11.7094051"><ele>462.33333333333337</ele><time>2026-04-06T13:23:48.144Z</time></trkpt><trkpt lat="43.8040678" lon="11.7093149"><ele>461.0</ele><time>2026-04-06T13:23:49.154Z</time></trkpt><trkpt lat="43.8041045" lon="11.7092245"><ele>459.6666666666667</ele><time>2026-04-06T13:23:50.152Z</time></trkpt><trkpt lat="43.8041197" lon="11.7091249"><ele>458.33333333333337</ele><time>2026-04-06T13:23:51.159Z</time></trkpt><trkpt lat="43.8041306" lon="11.7090309"><ele>457.0</ele><time>2026-04-06T13:23:52.156Z</time></trkpt><trkpt lat="43.8041411" lon="11.7088774"><ele>457.0</ele><time>2026-04-06T13:23:54.158Z</time></trkpt><trkpt lat="43.8041566" lon="11.7087032"><ele>457.00000000000006</ele><time>2026-04-06T13:23:56.146Z</time></trkpt><trkpt lat="43.80415" lon="11.7086022"><ele>457.00000000000006</ele><time>2026-04-06T13:23:57.165Z</time></trkpt><trkpt lat="43.8041286" lon="11.7084869"><ele>457.0</ele><time>2026-04-06T13:23:58.152Z</time></trkpt><trkpt lat="43.80408" lon="11.7083614"><ele>457.0</ele><time>2026-04-06T13:23:59.16Z</time></trkpt><trkpt lat="43.8040251" lon="11.708232"><ele>459.75</ele><time>2026-04-06T13:24:00.152Z</time></trkpt><trkpt lat="43.8039636" lon="11.7081039"><ele>462.5</ele><time>2026-04-06T13:24:01.149Z</time></trkpt><trkpt lat="43.8038727" lon="11.7079797"><ele>465.25</ele><time>2026-04-06T13:24:02.164Z</time></trkpt><trkpt lat="43.803754" lon="11.7078861"><ele>468.0</ele><time>2026-04-06T13:24:03.15Z</time></trkpt><trkpt lat="43.8035996" lon="11.7078518"><ele>465.0</ele><time>2026-04-06T13:24:04.153Z</time></trkpt><trkpt lat="43.8034388" lon="11.707833"><ele>462.0</ele><time>2026-04-06T13:24:05.147Z</time></trkpt><trkpt lat="43.8033019" lon="11.7078232"><ele>459.0</ele><time>2026-04-06T13:24:06.147Z</time></trkpt><trkpt lat="43.803173" lon="11.7078101"><ele>456.0</ele><time>2026-04-06T13:24:07.162Z</time></trkpt><trkpt lat="43.8030617" lon="11.7077962"><ele>456.0</ele><time>2026-04-06T13:24:08.151Z</time></trkpt><trkpt lat="43.8029645" lon="11.7077635"><ele>456.0</ele><time>2026-04-06T13:24:09.146Z</time></trkpt><trkpt lat="43.8028649" lon="11.7076952"><ele>456.0</ele><time>2026-04-06T13:24:10.137Z</time></trkpt><trkpt lat="43.8027836" lon="11.7075874"><ele>456.0</ele><time>2026-04-06T13:24:11.146Z</time></trkpt><trkpt lat="43.8027037" lon="11.7074483"><ele>457.0</ele><time>2026-04-06T13:24:12.151Z</time></trkpt><trkpt lat="43.8026386" lon="11.7072902"><ele>458.0</ele><time>2026-04-06T13:24:13.15Z</time></trkpt><trkpt lat="43.8025714" lon="11.7071231"><ele>459.0</ele><time>2026-04-06T13:24:14.156Z</time></trkpt><trkpt lat="43.8024998" lon="11.7069565"><ele>460.0</ele><time>2026-04-06T13:24:15.165Z</time></trkpt><trkpt lat="43.8024315" lon="11.7067922"><ele>463.0</ele><time>2026-04-06T13:24:16.142Z</time></trkpt><trkpt lat="43.8023462" lon="11.7066558"><ele>466.0</ele><time>2026-04-06T13:24:17.159Z</time></trkpt><trkpt lat="43.8022508" lon="11.7065501"><ele>469.0</ele><time>2026-04-06T13:24:18.159Z</time></trkpt><trkpt lat="43.8021582" lon="11.7064655"><ele>472.0</ele><time>2026-04-06T13:24:19.147Z</time></trkpt><trkpt lat="43.8020828" lon="11.7063836"><ele>472.0</ele><time>2026-04-06T13:24:20.156Z</time></trkpt><trkpt lat="43.8020475" lon="11.7062704"><ele>472.00000000000006</ele><time>2026-04-06T13:24:21.142Z</time></trkpt><trkpt lat="43.8020491" lon="11.7061282"><ele>472.00000000000006</ele><time>2026-04-06T13:24:22.149Z</time></trkpt><trkpt lat="43.8020956" lon="11.7060054"><ele>472.0</ele><time>2026-04-06T13:24:23.143Z</time></trkpt><trkpt lat="43.802179" lon="11.7058801"><ele>472.0</ele><time>2026-04-06T13:24:24.143Z</time></trkpt><trkpt lat="43.8022625" lon="11.705735"><ele>472.75</ele><time>2026-04-06T13:24:25.158Z</time></trkpt><trkpt lat="43.8023608" lon="11.705596"><ele>473.5</ele><time>2026-04-06T13:24:26.141Z</time></trkpt><trkpt lat="43.802478" lon="11.7054461"><ele>474.25</ele><time>2026-04-06T13:24:27.156Z</time></trkpt><trkpt lat="43.8025971" lon="11.7053218"><ele>475.0</ele><time>2026-04-06T13:24:28.17Z</time></trkpt><trkpt lat="43.8027246" lon="11.7051807"><ele>475.6666666666667</ele><time>2026-04-06T13:24:29.142Z</time></trkpt><trkpt lat="43.8028555" lon="11.7050473"><ele>476.33333333333337</ele><time>2026-04-06T13:24:30.146Z</time></trkpt><trkpt lat="43.8029823" lon="11.7049215"><ele>477.0</ele><time>2026-04-06T13:24:31.149Z</time></trkpt><trkpt lat="43.8030993" lon="11.7047942"><ele>477.0</ele><time>2026-04-06T13:24:32.147Z</time></trkpt><trkpt lat="43.8032025" lon="11.7046786"><ele>477.0</ele><time>2026-04-06T13:24:33.156Z</time></trkpt><trkpt lat="43.8033053" lon="11.7045629"><ele>477.0</ele><time>2026-04-06T13:24:34.144Z</time></trkpt><trkpt lat="43.8034054" lon="11.7044463"><ele>477.0</ele><time>2026-04-06T13:24:35.145Z</time></trkpt><trkpt lat="43.8034991" lon="11.7043327"><ele>479.25</ele><time>2026-04-06T13:24:36.157Z</time></trkpt><trkpt lat="43.8035837" lon="11.7042285"><ele>481.5</ele><time>2026-04-06T13:24:37.149Z</time></trkpt><trkpt lat="43.8036632" lon="11.7041105"><ele>483.75</ele><time>2026-04-06T13:24:38.157Z</time></trkpt><trkpt lat="43.8037528" lon="11.70398"><ele>486.0</ele><time>2026-04-06T13:24:39.15Z</time></trkpt><trkpt lat="43.8038584" lon="11.7038247"><ele>486.0</ele><time>2026-04-06T13:24:40.162Z</time></trkpt><trkpt lat="43.8039702" lon="11.7036533"><ele>486.0</ele><time>2026-04-06T13:24:41.155Z</time></trkpt><trkpt lat="43.8040754" lon="11.7034684"><ele>486.0</ele><time>2026-04-06T13:24:42.143Z</time></trkpt><trkpt lat="43.8041887" lon="11.703271"><ele>484.66666666666663</ele><time>2026-04-06T13:24:43.151Z</time></trkpt><trkpt lat="43.8043101" lon="11.703073"><ele>483.3333333333333</ele><time>2026-04-06T13:24:44.153Z</time></trkpt><trkpt lat="43.8044396" lon="11.702892"><ele>482.0</ele><time>2026-04-06T13:24:45.151Z</time></trkpt><trkpt lat="43.8045768" lon="11.7027071"><ele>482.0</ele><time>2026-04-06T13:24:46.153Z</time></trkpt><trkpt lat="43.8047062" lon="11.7025334"><ele>482.0</ele><time>2026-04-06T13:24:47.154Z</time></trkpt><trkpt lat="43.8048285" lon="11.7023592"><ele>482.0</ele><time>2026-04-06T13:24:48.161Z</time></trkpt><trkpt lat="43.8049422" lon="11.7021888"><ele>482.0</ele><time>2026-04-06T13:24:49.168Z</time></trkpt><trkpt lat="43.8050531" lon="11.7020266"><ele>482.0</ele><time>2026-04-06T13:24:50.157Z</time></trkpt><trkpt lat="43.8051626" lon="11.7018983"><ele>482.0</ele><time>2026-04-06T13:24:51.155Z</time></trkpt><trkpt lat="43.8052978" lon="11.7017782"><ele>484.66666666666663</ele><time>2026-04-06T13:24:52.14Z</time></trkpt><trkpt lat="43.8054336" lon="11.7016562"><ele>487.33333333333337</ele><time>2026-04-06T13:24:53.149Z</time></trkpt><trkpt lat="43.8055581" lon="11.7015009"><ele>490.0</ele><time>2026-04-06T13:24:54.156Z</time></trkpt><trkpt lat="43.8056526" lon="11.7013016"><ele>490.0</ele><time>2026-04-06T13:24:55.153Z</time></trkpt><trkpt lat="43.8057405" lon="11.7010909"><ele>490.0</ele><time>2026-04-06T13:24:56.154Z</time></trkpt><trkpt lat="43.805823" lon="11.7008729"><ele>490.0</ele><time>2026-04-06T13:24:57.155Z</time></trkpt><trkpt lat="43.8059044" lon="11.7006635"><ele>492.6666666666667</ele><time>2026-04-06T13:24:58.156Z</time></trkpt><trkpt lat="43.8059786" lon="11.7004698"><ele>495.33333333333337</ele><time>2026-04-06T13:24:59.158Z</time></trkpt><trkpt lat="43.8060536" lon="11.7002679"><ele>498.0</ele><time>2026-04-06T13:25:00.152Z</time></trkpt><trkpt lat="43.8061153" lon="11.7000696"><ele>498.0</ele><time>2026-04-06T13:25:01.15Z</time></trkpt><trkpt lat="43.8061546" lon="11.699852"><ele>498.0</ele><time>2026-04-06T13:25:02.147Z</time></trkpt><trkpt lat="43.8061696" lon="11.6996218"><ele>498.0</ele><time>2026-04-06T13:25:03.148Z</time></trkpt><trkpt lat="43.8061788" lon="11.6993909"><ele>498.33333333333337</ele><time>2026-04-06T13:25:04.149Z</time></trkpt><trkpt lat="43.8061861" lon="11.6991602"><ele>498.6666666666667</ele><time>2026-04-06T13:25:05.152Z</time></trkpt><trkpt lat="43.8062007" lon="11.698929"><ele>499.0</ele><time>2026-04-06T13:25:06.143Z</time></trkpt><trkpt lat="43.8062154" lon="11.6987005"><ele>499.75</ele><time>2026-04-06T13:25:07.177Z</time></trkpt><trkpt lat="43.8062302" lon="11.6984839"><ele>500.5</ele><time>2026-04-06T13:25:08.149Z</time></trkpt><trkpt lat="43.8062406" lon="11.6982842"><ele>501.25</ele><time>2026-04-06T13:25:09.155Z</time></trkpt><trkpt lat="43.806241" lon="11.6981012"><ele>502.0</ele><time>2026-04-06T13:25:10.156Z</time></trkpt><trkpt lat="43.8062226" lon="11.6979246"><ele>502.0</ele><time>2026-04-06T13:25:11.152Z</time></trkpt><trkpt lat="43.8061748" lon="11.6977595"><ele>502.0</ele><time>2026-04-06T13:25:12.156Z</time></trkpt><trkpt lat="43.8061274" lon="11.6975646"><ele>502.0</ele><time>2026-04-06T13:25:13.151Z</time></trkpt><trkpt lat="43.8060874" lon="11.6973558"><ele>502.0</ele><time>2026-04-06T13:25:14.14Z</time></trkpt><trkpt lat="43.806077" lon="11.6971593"><ele>502.75</ele><time>2026-04-06T13:25:15.159Z</time></trkpt><trkpt lat="43.8060894" lon="11.6969689"><ele>503.5</ele><time>2026-04-06T13:25:16.154Z</time></trkpt><trkpt lat="43.8061349" lon="11.6967846"><ele>504.25</ele><time>2026-04-06T13:25:17.157Z</time></trkpt><trkpt lat="43.8062078" lon="11.6966202"><ele>505.0</ele><time>2026-04-06T13:25:18.153Z</time></trkpt><trkpt lat="43.8062917" lon="11.6964563"><ele>505.0</ele><time>2026-04-06T13:25:19.16Z</time></trkpt><trkpt lat="43.8063864" lon="11.6962796"><ele>505.0</ele><time>2026-04-06T13:25:20.143Z</time></trkpt><trkpt lat="43.8064926" lon="11.6960828"><ele>505.0</ele><time>2026-04-06T13:25:21.14Z</time></trkpt><trkpt lat="43.8065977" lon="11.6958706"><ele>505.33333333333337</ele><time>2026-04-06T13:25:22.159Z</time></trkpt><trkpt lat="43.806727" lon="11.6956372"><ele>505.66666666666663</ele><time>2026-04-06T13:25:23.149Z</time></trkpt><trkpt lat="43.8068635" lon="11.6953978"><ele>506.0</ele><time>2026-04-06T13:25:24.144Z</time></trkpt><trkpt lat="43.8069941" lon="11.6951543"><ele>506.0</ele><time>2026-04-06T13:25:25.144Z</time></trkpt><trkpt lat="43.8071282" lon="11.6949181"><ele>506.0</ele><time>2026-04-06T13:25:26.162Z</time></trkpt><trkpt lat="43.8072514" lon="11.6946927"><ele>506.0</ele><time>2026-04-06T13:25:27.149Z</time></trkpt><trkpt lat="43.8073618" lon="11.6945022"><ele>503.75</ele><time>2026-04-06T13:25:28.155Z</time></trkpt><trkpt lat="43.8074441" lon="11.6943313"><ele>501.5</ele><time>2026-04-06T13:25:29.161Z</time></trkpt><trkpt lat="43.8074993" lon="11.6941607"><ele>499.25</ele><time>2026-04-06T13:25:30.15Z</time></trkpt><trkpt lat="43.8075016" lon="11.6939646"><ele>497.0</ele><time>2026-04-06T13:25:31.164Z</time></trkpt><trkpt lat="43.8074747" lon="11.6937434"><ele>496.3333333333333</ele><time>2026-04-06T13:25:32.167Z</time></trkpt><trkpt lat="43.8074421" lon="11.6935301"><ele>495.66666666666663</ele><time>2026-04-06T13:25:33.162Z</time></trkpt><trkpt lat="43.8074016" lon="11.6933162"><ele>495.0</ele><time>2026-04-06T13:25:34.142Z</time></trkpt><trkpt lat="43.8073702" lon="11.6931115"><ele>495.0</ele><time>2026-04-06T13:25:35.155Z</time></trkpt><trkpt lat="43.8073443" lon="11.6929155"><ele>495.0</ele><time>2026-04-06T13:25:36.16Z</time></trkpt><trkpt lat="43.8073425" lon="11.6927198"><ele>495.0</ele><time>2026-04-06T13:25:37.163Z</time></trkpt><trkpt lat="43.8073691" lon="11.6925603"><ele>495.0</ele><time>2026-04-06T13:25:38.149Z</time></trkpt><trkpt lat="43.8074424" lon="11.6924199"><ele>493.5</ele><time>2026-04-06T13:25:39.157Z</time></trkpt><trkpt lat="43.8075425" lon="11.6923501"><ele>492.0</ele><time>2026-04-06T13:25:40.145Z</time></trkpt><trkpt lat="43.8076766" lon="11.6923335"><ele>490.5</ele><time>2026-04-06T13:25:41.166Z</time></trkpt><trkpt lat="43.8078228" lon="11.6923303"><ele>489.0</ele><time>2026-04-06T13:25:42.15Z</time></trkpt><trkpt lat="43.8079682" lon="11.6923211"><ele>493.33333333333337</ele><time>2026-04-06T13:25:43.161Z</time></trkpt><trkpt lat="43.8081144" lon="11.6922893"><ele>497.6666666666667</ele><time>2026-04-06T13:25:44.159Z</time></trkpt><trkpt lat="43.8082706" lon="11.6922092"><ele>502.0</ele><time>2026-04-06T13:25:45.154Z</time></trkpt><trkpt lat="43.8084161" lon="11.69209"><ele>504.33333333333337</ele><time>2026-04-06T13:25:46.145Z</time></trkpt><trkpt lat="43.8085515" lon="11.6919353"><ele>506.66666666666663</ele><time>2026-04-06T13:25:47.139Z</time></trkpt><trkpt lat="43.8086765" lon="11.6917758"><ele>509.0</ele><time>2026-04-06T13:25:48.141Z</time></trkpt><trkpt lat="43.8088053" lon="11.6916434"><ele>509.0</ele><time>2026-04-06T13:25:49.157Z</time></trkpt><trkpt lat="43.8089459" lon="11.6915375"><ele>509.0</ele><time>2026-04-06T13:25:50.146Z</time></trkpt><trkpt lat="43.8091003" lon="11.6914525"><ele>509.0</ele><time>2026-04-06T13:25:51.149Z</time></trkpt><trkpt lat="43.809272" lon="11.6913699"><ele>507.3333333333333</ele><time>2026-04-06T13:25:52.158Z</time></trkpt><trkpt lat="43.8094556" lon="11.6912834"><ele>505.66666666666663</ele><time>2026-04-06T13:25:53.15Z</time></trkpt><trkpt lat="43.8096519" lon="11.691187"><ele>504.0</ele><time>2026-04-06T13:25:54.151Z</time></trkpt><trkpt lat="43.8098405" lon="11.6910864"><ele>504.0</ele><time>2026-04-06T13:25:55.149Z</time></trkpt><trkpt lat="43.8100093" lon="11.6909977"><ele>504.0</ele><time>2026-04-06T13:25:56.158Z</time></trkpt><trkpt lat="43.8101633" lon="11.6909222"><ele>504.0</ele><time>2026-04-06T13:25:57.149Z</time></trkpt><trkpt lat="43.8102954" lon="11.6908483"><ele>507.0</ele><time>2026-04-06T13:25:58.14Z</time></trkpt><trkpt lat="43.8104006" lon="11.6907727"><ele>510.0</ele><time>2026-04-06T13:25:59.151Z</time></trkpt><trkpt lat="43.810468" lon="11.6906797"><ele>513.0</ele><time>2026-04-06T13:26:00.146Z</time></trkpt><trkpt lat="43.8104989" lon="11.690557"><ele>516.0</ele><time>2026-04-06T13:26:01.148Z</time></trkpt><trkpt lat="43.8104853" lon="11.6904106"><ele>519.0</ele><time>2026-04-06T13:26:02.138Z</time></trkpt><trkpt lat="43.8104357" lon="11.6902919"><ele>521.75</ele><time>2026-04-06T13:26:03.147Z</time></trkpt><trkpt lat="43.8103287" lon="11.6902183"><ele>524.5</ele><time>2026-04-06T13:26:04.144Z</time></trkpt><trkpt lat="43.8101883" lon="11.6902005"><ele>527.25</ele><time>2026-04-06T13:26:05.153Z</time></trkpt><trkpt lat="43.8100527" lon="11.690196"><ele>530.0</ele><time>2026-04-06T13:26:06.155Z</time></trkpt><trkpt lat="43.8099468" lon="11.6901587"><ele>524.25</ele><time>2026-04-06T13:26:07.161Z</time></trkpt><trkpt lat="43.8098599" lon="11.6900891"><ele>518.5</ele><time>2026-04-06T13:26:08.158Z</time></trkpt><trkpt lat="43.8097866" lon="11.689968"><ele>512.75</ele><time>2026-04-06T13:26:09.146Z</time></trkpt><trkpt lat="43.8097753" lon="11.6898011"><ele>507.0</ele><time>2026-04-06T13:26:10.164Z</time></trkpt><trkpt lat="43.8098039" lon="11.6896125"><ele>505.33333333333337</ele><time>2026-04-06T13:26:11.158Z</time></trkpt><trkpt lat="43.8098713" lon="11.6894086"><ele>503.6666666666667</ele><time>2026-04-06T13:26:12.162Z</time></trkpt><trkpt lat="43.809959" lon="11.6892145"><ele>502.0</ele><time>2026-04-06T13:26:13.153Z</time></trkpt><trkpt lat="43.8100683" lon="11.6890249"><ele>507.6666666666667</ele><time>2026-04-06T13:26:14.144Z</time></trkpt><trkpt lat="43.8102021" lon="11.6888562"><ele>513.3333333333334</ele><time>2026-04-06T13:26:15.155Z</time></trkpt><trkpt lat="43.8103473" lon="11.6887024"><ele>519.0</ele><time>2026-04-06T13:26:16.145Z</time></trkpt><trkpt lat="43.8104902" lon="11.6885548"><ele>519.0</ele><time>2026-04-06T13:26:17.146Z</time></trkpt><trkpt lat="43.8106254" lon="11.6883911"><ele>519.0</ele><time>2026-04-06T13:26:18.153Z</time></trkpt><trkpt lat="43.8107371" lon="11.6881884"><ele>519.0</ele><time>2026-04-06T13:26:19.154Z</time></trkpt><trkpt lat="43.8108355" lon="11.6879454"><ele>514.6666666666666</ele><time>2026-04-06T13:26:20.143Z</time></trkpt><trkpt lat="43.8109245" lon="11.6877112"><ele>510.3333333333333</ele><time>2026-04-06T13:26:21.153Z</time></trkpt><trkpt lat="43.8109832" lon="11.687482"><ele>506.0</ele><time>2026-04-06T13:26:22.153Z</time></trkpt><trkpt lat="43.8110083" lon="11.687243"><ele>517.3333333333333</ele><time>2026-04-06T13:26:23.153Z</time></trkpt><trkpt lat="43.8110104" lon="11.6869817"><ele>528.6666666666666</ele><time>2026-04-06T13:26:24.141Z</time></trkpt><trkpt lat="43.8110079" lon="11.6867202"><ele>540.0</ele><time>2026-04-06T13:26:25.146Z</time></trkpt><trkpt lat="43.8109998" lon="11.6864687"><ele>541.6666666666666</ele><time>2026-04-06T13:26:26.135Z</time></trkpt><trkpt lat="43.8110043" lon="11.6862371"><ele>543.3333333333333</ele><time>2026-04-06T13:26:27.157Z</time></trkpt><trkpt lat="43.8110137" lon="11.6860182"><ele>545.0</ele><time>2026-04-06T13:26:28.139Z</time></trkpt><trkpt lat="43.8110413" lon="11.6858038"><ele>545.0</ele><time>2026-04-06T13:26:29.147Z</time></trkpt><trkpt lat="43.8110783" lon="11.6855838"><ele>545.0</ele><time>2026-04-06T13:26:30.148Z</time></trkpt><trkpt lat="43.8111319" lon="11.6853802"><ele>545.0</ele><time>2026-04-06T13:26:31.155Z</time></trkpt><trkpt lat="43.8111979" lon="11.6851881"><ele>540.5</ele><time>2026-04-06T13:26:32.164Z</time></trkpt><trkpt lat="43.811258" lon="11.6850072"><ele>536.0</ele><time>2026-04-06T13:26:33.161Z</time></trkpt><trkpt lat="43.811306" lon="11.6848591"><ele>531.5</ele><time>2026-04-06T13:26:34.147Z</time></trkpt><trkpt lat="43.8113509" lon="11.6847351"><ele>527.0</ele><time>2026-04-06T13:26:35.151Z</time></trkpt><trkpt lat="43.8114071" lon="11.6846247"><ele>527.0</ele><time>2026-04-06T13:26:36.151Z</time></trkpt><trkpt lat="43.8114617" lon="11.6845359"><ele>527.0</ele><time>2026-04-06T13:26:37.139Z</time></trkpt><trkpt lat="43.8115232" lon="11.6844567"><ele>527.0</ele><time>2026-04-06T13:26:38.153Z</time></trkpt><trkpt lat="43.8116024" lon="11.6844193"><ele>527.0</ele><time>2026-04-06T13:26:39.136Z</time></trkpt><trkpt lat="43.8116985" lon="11.6844122"><ele>527.0</ele><time>2026-04-06T13:26:40.154Z</time></trkpt><trkpt lat="43.8117859" lon="11.6844188"><ele>527.0</ele><time>2026-04-06T13:26:41.141Z</time></trkpt><trkpt lat="43.8118825" lon="11.6844389"><ele>528.0</ele><time>2026-04-06T13:26:42.153Z</time></trkpt><trkpt lat="43.8119759" lon="11.6844734"><ele>529.0</ele><time>2026-04-06T13:26:43.153Z</time></trkpt><trkpt lat="43.8120836" lon="11.6845178"><ele>530.0</ele><time>2026-04-06T13:26:44.136Z</time></trkpt><trkpt lat="43.8121982" lon="11.6845568"><ele>531.0</ele><time>2026-04-06T13:26:45.147Z</time></trkpt><trkpt lat="43.8122971" lon="11.6846023"><ele>532.0</ele><time>2026-04-06T13:26:46.154Z</time></trkpt><trkpt lat="43.8123835" lon="11.6846419"><ele>532.0</ele><time>2026-04-06T13:26:47.152Z</time></trkpt><trkpt lat="43.8124661" lon="11.6846745"><ele>532.0</ele><time>2026-04-06T13:26:48.155Z</time></trkpt><trkpt lat="43.8125446" lon="11.6846941"><ele>532.0</ele><time>2026-04-06T13:26:49.148Z</time></trkpt><trkpt lat="43.8126244" lon="11.6847103"><ele>532.0</ele><time>2026-04-06T13:26:50.147Z</time></trkpt><trkpt lat="43.81271" lon="11.684671"><ele>532.0</ele><time>2026-04-06T13:26:51.133Z</time></trkpt><trkpt lat="43.8127611" lon="11.684591"><ele>532.0</ele><time>2026-04-06T13:26:52.146Z</time></trkpt><trkpt lat="43.8127847" lon="11.6844788"><ele>532.5</ele><time>2026-04-06T13:26:53.16Z</time></trkpt><trkpt lat="43.8127738" lon="11.6843216"><ele>533.0</ele><time>2026-04-06T13:26:54.152Z</time></trkpt><trkpt lat="43.8127224" lon="11.6841743"><ele>533.5</ele><time>2026-04-06T13:26:55.151Z</time></trkpt><trkpt lat="43.8126639" lon="11.6840262"><ele>534.0</ele><time>2026-04-06T13:26:56.141Z</time></trkpt><trkpt lat="43.8125864" lon="11.6839061"><ele>533.4</ele><time>2026-04-06T13:26:57.14Z</time></trkpt><trkpt lat="43.8124806" lon="11.6838015"><ele>532.8</ele><time>2026-04-06T13:26:58.162Z</time></trkpt><trkpt lat="43.8123878" lon="11.6837234"><ele>532.2</ele><time>2026-04-06T13:26:59.15Z</time></trkpt><trkpt lat="43.8123028" lon="11.6836549"><ele>531.6</ele><time>2026-04-06T13:27:00.163Z</time></trkpt><trkpt lat="43.8122267" lon="11.6835743"><ele>531.0</ele><time>2026-04-06T13:27:01.144Z</time></trkpt><trkpt lat="43.8121645" lon="11.6834776"><ele>531.0</ele><time>2026-04-06T13:27:02.14Z</time></trkpt><trkpt lat="43.8121318" lon="11.6833736"><ele>531.0</ele><time>2026-04-06T13:27:03.164Z</time></trkpt><trkpt lat="43.8121277" lon="11.6832626"><ele>531.0</ele><time>2026-04-06T13:27:04.14Z</time></trkpt><trkpt lat="43.8121447" lon="11.6830979"><ele>531.0</ele><time>2026-04-06T13:27:05.151Z</time></trkpt><trkpt lat="43.8121792" lon="11.6829139"><ele>531.0</ele><time>2026-04-06T13:27:06.154Z</time></trkpt><trkpt lat="43.8122309" lon="11.6827287"><ele>532.0</ele><time>2026-04-06T13:27:07.158Z</time></trkpt><trkpt lat="43.8122943" lon="11.6825245"><ele>533.0</ele><time>2026-04-06T13:27:08.153Z</time></trkpt><trkpt lat="43.8123678" lon="11.6823211"><ele>534.0</ele><time>2026-04-06T13:27:09.163Z</time></trkpt><trkpt lat="43.812466" lon="11.6821162"><ele>531.6666666666666</ele><time>2026-04-06T13:27:10.156Z</time></trkpt><trkpt lat="43.8125699" lon="11.6819191"><ele>529.3333333333333</ele><time>2026-04-06T13:27:11.159Z</time></trkpt><trkpt lat="43.8126554" lon="11.6816987"><ele>527.0</ele><time>2026-04-06T13:27:12.145Z</time></trkpt><trkpt lat="43.812726" lon="11.6814649"><ele>537.3333333333333</ele><time>2026-04-06T13:27:13.168Z</time></trkpt><trkpt lat="43.8127845" lon="11.6812295"><ele>547.6666666666666</ele><time>2026-04-06T13:27:14.136Z</time></trkpt><trkpt lat="43.8128491" lon="11.6810027"><ele>558.0</ele><time>2026-04-06T13:27:15.144Z</time></trkpt><trkpt lat="43.8129258" lon="11.6807972"><ele>558.0</ele><time>2026-04-06T13:27:16.148Z</time></trkpt><trkpt lat="43.8130263" lon="11.6805924"><ele>558.0</ele><time>2026-04-06T13:27:17.148Z</time></trkpt><trkpt lat="43.813143" lon="11.6803743"><ele>558.0</ele><time>2026-04-06T13:27:18.143Z</time></trkpt><trkpt lat="43.8132721" lon="11.6801648"><ele>562.3333333333334</ele><time>2026-04-06T13:27:19.151Z</time></trkpt><trkpt lat="43.8133974" lon="11.6799355"><ele>566.6666666666667</ele><time>2026-04-06T13:27:20.158Z</time></trkpt><trkpt lat="43.8135166" lon="11.6797231"><ele>571.0</ele><time>2026-04-06T13:27:21.159Z</time></trkpt><trkpt lat="43.8136382" lon="11.6795124"><ele>565.6666666666667</ele><time>2026-04-06T13:27:22.148Z</time></trkpt><trkpt lat="43.8137552" lon="11.6793077"><ele>560.3333333333334</ele><time>2026-04-06T13:27:23.15Z</time></trkpt><trkpt lat="43.8138744" lon="11.6791062"><ele>555.0</ele><time>2026-04-06T13:27:24.153Z</time></trkpt><trkpt lat="43.8139832" lon="11.6789125"><ele>555.0</ele><time>2026-04-06T13:27:25.14Z</time></trkpt><trkpt lat="43.8140888" lon="11.6787295"><ele>555.0</ele><time>2026-04-06T13:27:26.14Z</time></trkpt><trkpt lat="43.8141938" lon="11.6785797"><ele>555.0</ele><time>2026-04-06T13:27:27.154Z</time></trkpt><trkpt lat="43.8143172" lon="11.6784268"><ele>559.0</ele><time>2026-04-06T13:27:28.148Z</time></trkpt><trkpt lat="43.8144581" lon="11.678322"><ele>563.0</ele><time>2026-04-06T13:27:29.14Z</time></trkpt><trkpt lat="43.8145927" lon="11.678247"><ele>567.0</ele><time>2026-04-06T13:27:30.138Z</time></trkpt><trkpt lat="43.8147209" lon="11.6781955"><ele>571.0</ele><time>2026-04-06T13:27:31.151Z</time></trkpt><trkpt lat="43.8148155" lon="11.6781119"><ele>571.0</ele><time>2026-04-06T13:27:32.143Z</time></trkpt><trkpt lat="43.8148766" lon="11.6779775"><ele>571.0</ele><time>2026-04-06T13:27:33.163Z</time></trkpt><trkpt lat="43.8149074" lon="11.6778111"><ele>571.0</ele><time>2026-04-06T13:27:34.139Z</time></trkpt><trkpt lat="43.8149157" lon="11.6776183"><ele>571.0</ele><time>2026-04-06T13:27:35.146Z</time></trkpt><trkpt lat="43.8149512" lon="11.6774218"><ele>568.5</ele><time>2026-04-06T13:27:36.157Z</time></trkpt><trkpt lat="43.8150038" lon="11.6772344"><ele>566.0</ele><time>2026-04-06T13:27:37.159Z</time></trkpt><trkpt lat="43.8150749" lon="11.6770482"><ele>563.5</ele><time>2026-04-06T13:27:38.16Z</time></trkpt><trkpt lat="43.8151555" lon="11.6768694"><ele>561.0</ele><time>2026-04-06T13:27:39.157Z</time></trkpt><trkpt lat="43.815247" lon="11.6767198"><ele>566.0</ele><time>2026-04-06T13:27:40.152Z</time></trkpt><trkpt lat="43.8153555" lon="11.676636"><ele>571.0</ele><time>2026-04-06T13:27:41.166Z</time></trkpt><trkpt lat="43.8154948" lon="11.676589"><ele>576.0</ele><time>2026-04-06T13:27:42.158Z</time></trkpt><trkpt lat="43.8156523" lon="11.6765274"><ele>581.0</ele><time>2026-04-06T13:27:43.165Z</time></trkpt><trkpt lat="43.8158198" lon="11.6764149"><ele>583.3333333333333</ele><time>2026-04-06T13:27:44.159Z</time></trkpt><trkpt lat="43.8159884" lon="11.6762836"><ele>585.6666666666666</ele><time>2026-04-06T13:27:45.152Z</time></trkpt><trkpt lat="43.8161378" lon="11.6761464"><ele>588.0</ele><time>2026-04-06T13:27:46.14Z</time></trkpt><trkpt lat="43.8162773" lon="11.6760214"><ele>588.0</ele><time>2026-04-06T13:27:47.14Z</time></trkpt><trkpt lat="43.8164035" lon="11.6758999"><ele>588.0</ele><time>2026-04-06T13:27:48.16Z</time></trkpt><trkpt lat="43.8164978" lon="11.6757399"><ele>588.0</ele><time>2026-04-06T13:27:49.156Z</time></trkpt><trkpt lat="43.8165593" lon="11.6755371"><ele>588.0</ele><time>2026-04-06T13:27:50.156Z</time></trkpt><trkpt lat="43.8166028" lon="11.6753338"><ele>588.0</ele><time>2026-04-06T13:27:51.159Z</time></trkpt><trkpt lat="43.8166327" lon="11.6751363"><ele>588.0</ele><time>2026-04-06T13:27:52.154Z</time></trkpt><trkpt lat="43.8166777" lon="11.6749797"><ele>588.0</ele><time>2026-04-06T13:27:53.155Z</time></trkpt><trkpt lat="43.816768" lon="11.6748295"><ele>589.6666666666666</ele><time>2026-04-06T13:27:54.138Z</time></trkpt><trkpt lat="43.8168872" lon="11.6747179"><ele>591.3333333333333</ele><time>2026-04-06T13:27:55.153Z</time></trkpt><trkpt lat="43.8170169" lon="11.6745869"><ele>593.0</ele><time>2026-04-06T13:27:56.157Z</time></trkpt><trkpt lat="43.8171457" lon="11.6744293"><ele>593.0</ele><time>2026-04-06T13:27:57.152Z</time></trkpt><trkpt lat="43.8172415" lon="11.674227"><ele>593.0</ele><time>2026-04-06T13:27:58.139Z</time></trkpt><trkpt lat="43.8173334" lon="11.6739955"><ele>593.0</ele><time>2026-04-06T13:27:59.151Z</time></trkpt><trkpt lat="43.8174126" lon="11.6737892"><ele>591.0</ele><time>2026-04-06T13:28:00.14Z</time></trkpt><trkpt lat="43.8174805" lon="11.6735939"><ele>589.0</ele><time>2026-04-06T13:28:01.161Z</time></trkpt><trkpt lat="43.8175352" lon="11.6734162"><ele>587.0</ele><time>2026-04-06T13:28:02.157Z</time></trkpt><trkpt lat="43.8175549" lon="11.6732419"><ele>585.0</ele><time>2026-04-06T13:28:03.152Z</time></trkpt><trkpt lat="43.8175174" lon="11.6730441"><ele>585.0</ele><time>2026-04-06T13:28:04.154Z</time></trkpt><trkpt lat="43.8174614" lon="11.6728396"><ele>585.0</ele><time>2026-04-06T13:28:05.142Z</time></trkpt><trkpt lat="43.8173887" lon="11.6726539"><ele>585.0</ele><time>2026-04-06T13:28:06.158Z</time></trkpt><trkpt lat="43.8173294" lon="11.6724527"><ele>586.0</ele><time>2026-04-06T13:28:07.147Z</time></trkpt><trkpt lat="43.8172682" lon="11.672271"><ele>587.0</ele><time>2026-04-06T13:28:08.156Z</time></trkpt><trkpt lat="43.8172248" lon="11.6720933"><ele>588.0</ele><time>2026-04-06T13:28:09.148Z</time></trkpt><trkpt lat="43.8172105" lon="11.6719131"><ele>589.0</ele><time>2026-04-06T13:28:10.156Z</time></trkpt><trkpt lat="43.8172376" lon="11.6717108"><ele>589.3333333333334</ele><time>2026-04-06T13:28:11.159Z</time></trkpt><trkpt lat="43.8173156" lon="11.6715176"><ele>589.6666666666666</ele><time>2026-04-06T13:28:12.161Z</time></trkpt><trkpt lat="43.8174211" lon="11.6713232"><ele>590.0</ele><time>2026-04-06T13:28:13.155Z</time></trkpt><trkpt lat="43.8175035" lon="11.6711093"><ele>586.3333333333333</ele><time>2026-04-06T13:28:14.153Z</time></trkpt><trkpt lat="43.8175554" lon="11.6708659"><ele>582.6666666666666</ele><time>2026-04-06T13:28:15.148Z</time></trkpt><trkpt lat="43.8175889" lon="11.6705809"><ele>579.0</ele><time>2026-04-06T13:28:16.153Z</time></trkpt><trkpt lat="43.8176239" lon="11.6702715"><ele>587.3333333333334</ele><time>2026-04-06T13:28:17.151Z</time></trkpt><trkpt lat="43.8176702" lon="11.6699841"><ele>595.6666666666667</ele><time>2026-04-06T13:28:18.158Z</time></trkpt><trkpt lat="43.8177115" lon="11.6697214"><ele>604.0</ele><time>2026-04-06T13:28:19.155Z</time></trkpt><trkpt lat="43.8177427" lon="11.6694806"><ele>600.0</ele><time>2026-04-06T13:28:20.153Z</time></trkpt><trkpt lat="43.8177767" lon="11.6692718"><ele>596.0</ele><time>2026-04-06T13:28:21.152Z</time></trkpt><trkpt lat="43.8178241" lon="11.6690888"><ele>592.0</ele><time>2026-04-06T13:28:22.158Z</time></trkpt><trkpt lat="43.8179015" lon="11.6689575"><ele>588.0</ele><time>2026-04-06T13:28:23.165Z</time></trkpt><trkpt lat="43.8180197" lon="11.6688978"><ele>588.0</ele><time>2026-04-06T13:28:24.154Z</time></trkpt><trkpt lat="43.8181585" lon="11.6688911"><ele>588.0</ele><time>2026-04-06T13:28:25.162Z</time></trkpt><trkpt lat="43.8183206" lon="11.6688987"><ele>588.0</ele><time>2026-04-06T13:28:26.159Z</time></trkpt><trkpt lat="43.8184889" lon="11.6689127"><ele>591.0</ele><time>2026-04-06T13:28:27.152Z</time></trkpt><trkpt lat="43.8186458" lon="11.6689134"><ele>594.0</ele><time>2026-04-06T13:28:28.153Z</time></trkpt><trkpt lat="43.8188065" lon="11.6688766"><ele>597.0</ele><time>2026-04-06T13:28:29.15Z</time></trkpt><trkpt lat="43.8189349" lon="11.668769"><ele>597.0</ele><time>2026-04-06T13:28:30.166Z</time></trkpt><trkpt lat="43.8190678" lon="11.6686415"><ele>597.0</ele><time>2026-04-06T13:28:31.155Z</time></trkpt><trkpt lat="43.8191952" lon="11.6684764"><ele>597.0</ele><time>2026-04-06T13:28:32.151Z</time></trkpt><trkpt lat="43.8193143" lon="11.6683236"><ele>597.3333333333334</ele><time>2026-04-06T13:28:33.153Z</time></trkpt><trkpt lat="43.8194041" lon="11.6681561"><ele>597.6666666666667</ele><time>2026-04-06T13:28:34.14Z</time></trkpt><trkpt lat="43.8194521" lon="11.6679147"><ele>598.0</ele><time>2026-04-06T13:28:35.157Z</time></trkpt><trkpt lat="43.819456" lon="11.6676779"><ele>600.3333333333334</ele><time>2026-04-06T13:28:36.146Z</time></trkpt><trkpt lat="43.8194335" lon="11.6674201"><ele>602.6666666666666</ele><time>2026-04-06T13:28:37.154Z</time></trkpt><trkpt lat="43.8194002" lon="11.6671721"><ele>605.0</ele><time>2026-04-06T13:28:38.155Z</time></trkpt><trkpt lat="43.8193743" lon="11.66692"><ele>605.0</ele><time>2026-04-06T13:28:39.169Z</time></trkpt><trkpt lat="43.8193505" lon="11.6666818"><ele>605.0</ele><time>2026-04-06T13:28:40.154Z</time></trkpt><trkpt lat="43.8193329" lon="11.6664693"><ele>605.0</ele><time>2026-04-06T13:28:41.166Z</time></trkpt><trkpt lat="43.8193412" lon="11.6662907"><ele>603.0</ele><time>2026-04-06T13:28:42.159Z</time></trkpt><trkpt lat="43.8193814" lon="11.6661073"><ele>601.0</ele><time>2026-04-06T13:28:43.159Z</time></trkpt><trkpt lat="43.8194778" lon="11.665916"><ele>599.0</ele><time>2026-04-06T13:28:44.159Z</time></trkpt><trkpt lat="43.819606" lon="11.6657258"><ele>599.0</ele><time>2026-04-06T13:28:45.153Z</time></trkpt><trkpt lat="43.8197256" lon="11.6655401"><ele>599.0</ele><time>2026-04-06T13:28:46.154Z</time></trkpt><trkpt lat="43.8198272" lon="11.6653469"><ele>599.0</ele><time>2026-04-06T13:28:47.157Z</time></trkpt><trkpt lat="43.8199138" lon="11.6651479"><ele>599.5</ele><time>2026-04-06T13:28:48.153Z</time></trkpt><trkpt lat="43.8199927" lon="11.6649465"><ele>600.0</ele><time>2026-04-06T13:28:49.156Z</time></trkpt><trkpt lat="43.8200678" lon="11.6647727"><ele>600.5</ele><time>2026-04-06T13:28:50.171Z</time></trkpt><trkpt lat="43.8201525" lon="11.6646401"><ele>601.0</ele><time>2026-04-06T13:28:51.161Z</time></trkpt><trkpt lat="43.8202684" lon="11.6645404"><ele>601.0</ele><time>2026-04-06T13:28:52.148Z</time></trkpt><trkpt lat="43.8204091" lon="11.6645319"><ele>601.0</ele><time>2026-04-06T13:28:53.145Z</time></trkpt><trkpt lat="43.820545" lon="11.6645794"><ele>601.0</ele><time>2026-04-06T13:28:54.161Z</time></trkpt><trkpt lat="43.8206742" lon="11.6646887"><ele>601.0</ele><time>2026-04-06T13:28:55.15Z</time></trkpt><trkpt lat="43.8207885" lon="11.6648107"><ele>601.0</ele><time>2026-04-06T13:28:56.152Z</time></trkpt><trkpt lat="43.8208954" lon="11.6649323"><ele>601.0</ele><time>2026-04-06T13:28:57.154Z</time></trkpt><trkpt lat="43.821007" lon="11.6650044"><ele>601.0</ele><time>2026-04-06T13:28:58.161Z</time></trkpt><trkpt lat="43.8211356" lon="11.6650221"><ele>601.0</ele><time>2026-04-06T13:28:59.158Z</time></trkpt><trkpt lat="43.821264" lon="11.6649464"><ele>598.0</ele><time>2026-04-06T13:29:00.15Z</time></trkpt><trkpt lat="43.8213916" lon="11.6648204"><ele>595.0</ele><time>2026-04-06T13:29:01.158Z</time></trkpt><trkpt lat="43.821487" lon="11.6646563"><ele>592.0</ele><time>2026-04-06T13:29:02.153Z</time></trkpt><trkpt lat="43.8215691" lon="11.6644366"><ele>592.0</ele><time>2026-04-06T13:29:03.158Z</time></trkpt><trkpt lat="43.8216358" lon="11.6642248"><ele>592.0</ele><time>2026-04-06T13:29:04.154Z</time></trkpt><trkpt lat="43.821718" lon="11.6640323"><ele>592.0</ele><time>2026-04-06T13:29:05.145Z</time></trkpt><trkpt lat="43.8217972" lon="11.6638603"><ele>590.6666666666667</ele><time>2026-04-06T13:29:06.155Z</time></trkpt><trkpt lat="43.8219144" lon="11.6637245"><ele>589.3333333333334</ele><time>2026-04-06T13:29:07.148Z</time></trkpt><trkpt lat="43.8220439" lon="11.663612"><ele>588.0</ele><time>2026-04-06T13:29:08.136Z</time></trkpt><trkpt lat="43.8221931" lon="11.6635121"><ele>588.0</ele><time>2026-04-06T13:29:09.15Z</time></trkpt><trkpt lat="43.8223439" lon="11.6634155"><ele>588.0</ele><time>2026-04-06T13:29:10.146Z</time></trkpt><trkpt lat="43.8224951" lon="11.6633411"><ele>588.0</ele><time>2026-04-06T13:29:11.138Z</time></trkpt><trkpt lat="43.8226619" lon="11.6632916"><ele>592.3333333333334</ele><time>2026-04-06T13:29:12.143Z</time></trkpt><trkpt lat="43.8228341" lon="11.663273"><ele>596.6666666666667</ele><time>2026-04-06T13:29:13.135Z</time></trkpt><trkpt lat="43.8230134" lon="11.6632501"><ele>601.0</ele><time>2026-04-06T13:29:14.153Z</time></trkpt><trkpt lat="43.823181" lon="11.6632233"><ele>601.0</ele><time>2026-04-06T13:29:15.149Z</time></trkpt><trkpt lat="43.8233555" lon="11.6632004"><ele>601.0</ele><time>2026-04-06T13:29:16.153Z</time></trkpt><trkpt lat="43.8235307" lon="11.6631817"><ele>601.0</ele><time>2026-04-06T13:29:17.149Z</time></trkpt><trkpt lat="43.8236997" lon="11.6631635"><ele>602.5</ele><time>2026-04-06T13:29:18.156Z</time></trkpt><trkpt lat="43.8238569" lon="11.6631502"><ele>604.0</ele><time>2026-04-06T13:29:19.152Z</time></trkpt><trkpt lat="43.8240048" lon="11.6631363"><ele>605.5</ele><time>2026-04-06T13:29:20.14Z</time></trkpt><trkpt lat="43.8241378" lon="11.6630896"><ele>607.0</ele><time>2026-04-06T13:29:21.154Z</time></trkpt><trkpt lat="43.824241" lon="11.6629665"><ele>606.6666666666667</ele><time>2026-04-06T13:29:22.16Z</time></trkpt><trkpt lat="43.8243284" lon="11.6627768"><ele>606.3333333333334</ele><time>2026-04-06T13:29:23.146Z</time></trkpt><trkpt lat="43.824396" lon="11.6625918"><ele>606.0</ele><time>2026-04-06T13:29:24.153Z</time></trkpt><trkpt lat="43.8244434" lon="11.6623761"><ele>606.0</ele><time>2026-04-06T13:29:25.153Z</time></trkpt><trkpt lat="43.8244915" lon="11.6621773"><ele>606.0</ele><time>2026-04-06T13:29:26.145Z</time></trkpt><trkpt lat="43.824532" lon="11.6620031"><ele>606.0</ele><time>2026-04-06T13:29:27.16Z</time></trkpt><trkpt lat="43.8245934" lon="11.661831"><ele>606.0</ele><time>2026-04-06T13:29:28.157Z</time></trkpt><trkpt lat="43.8246955" lon="11.6616988"><ele>602.6666666666666</ele><time>2026-04-06T13:29:29.154Z</time></trkpt><trkpt lat="43.8248326" lon="11.6615651"><ele>599.3333333333333</ele><time>2026-04-06T13:29:30.154Z</time></trkpt><trkpt lat="43.8249738" lon="11.6614356"><ele>596.0</ele><time>2026-04-06T13:29:31.157Z</time></trkpt><trkpt lat="43.825138" lon="11.6612685"><ele>598.6666666666666</ele><time>2026-04-06T13:29:32.138Z</time></trkpt><trkpt lat="43.8253115" lon="11.6610862"><ele>601.3333333333334</ele><time>2026-04-06T13:29:33.145Z</time></trkpt><trkpt lat="43.8254849" lon="11.6609046"><ele>604.0</ele><time>2026-04-06T13:29:34.154Z</time></trkpt><trkpt lat="43.8256484" lon="11.6607286"><ele>604.0</ele><time>2026-04-06T13:29:35.153Z</time></trkpt><trkpt lat="43.8257868" lon="11.6605429"><ele>604.0</ele><time>2026-04-06T13:29:36.148Z</time></trkpt><trkpt lat="43.8258773" lon="11.6603222"><ele>604.0</ele><time>2026-04-06T13:29:37.155Z</time></trkpt><trkpt lat="43.8259397" lon="11.660085"><ele>604.6666666666667</ele><time>2026-04-06T13:29:38.149Z</time></trkpt><trkpt lat="43.8259879" lon="11.6598313"><ele>605.3333333333334</ele><time>2026-04-06T13:29:39.158Z</time></trkpt><trkpt lat="43.8260272" lon="11.6595894"><ele>606.0</ele><time>2026-04-06T13:29:40.164Z</time></trkpt><trkpt lat="43.8260662" lon="11.6593618"><ele>606.0</ele><time>2026-04-06T13:29:41.163Z</time></trkpt><trkpt lat="43.8261141" lon="11.6591508"><ele>606.0</ele><time>2026-04-06T13:29:42.154Z</time></trkpt><trkpt lat="43.8261937" lon="11.65897"><ele>606.0</ele><time>2026-04-06T13:29:43.142Z</time></trkpt><trkpt lat="43.8263109" lon="11.6588357"><ele>606.0</ele><time>2026-04-06T13:29:44.149Z</time></trkpt><trkpt lat="43.8264392" lon="11.6587402"><ele>606.0</ele><time>2026-04-06T13:29:45.158Z</time></trkpt><trkpt lat="43.8265722" lon="11.6586811"><ele>606.0</ele><time>2026-04-06T13:29:46.155Z</time></trkpt><trkpt lat="43.8267135" lon="11.6586529"><ele>606.0</ele><time>2026-04-06T13:29:47.161Z</time></trkpt><trkpt lat="43.8268627" lon="11.6587013"><ele>605.6666666666666</ele><time>2026-04-06T13:29:48.154Z</time></trkpt><trkpt lat="43.8270148" lon="11.658784"><ele>605.3333333333333</ele><time>2026-04-06T13:29:49.157Z</time></trkpt><trkpt lat="43.8271772" lon="11.6588891"><ele>605.0</ele><time>2026-04-06T13:29:50.155Z</time></trkpt><trkpt lat="43.82733" lon="11.6589759"><ele>605.0</ele><time>2026-04-06T13:29:51.136Z</time></trkpt><trkpt lat="43.8274863" lon="11.6590321"><ele>605.0</ele><time>2026-04-06T13:29:52.147Z</time></trkpt><trkpt lat="43.8276573" lon="11.6590401"><ele>605.0</ele><time>2026-04-06T13:29:53.153Z</time></trkpt><trkpt lat="43.8278374" lon="11.6590479"><ele>604.0</ele><time>2026-04-06T13:29:54.159Z</time></trkpt><trkpt lat="43.8280318" lon="11.6590495"><ele>603.0</ele><time>2026-04-06T13:29:55.154Z</time></trkpt><trkpt lat="43.8282274" lon="11.6590562"><ele>602.0</ele><time>2026-04-06T13:29:56.146Z</time></trkpt><trkpt lat="43.828427" lon="11.6590638"><ele>599.3333333333333</ele><time>2026-04-06T13:29:57.154Z</time></trkpt><trkpt lat="43.828605" lon="11.6590715"><ele>596.6666666666666</ele><time>2026-04-06T13:29:58.15Z</time></trkpt><trkpt lat="43.8287804" lon="11.659089"><ele>594.0</ele><time>2026-04-06T13:29:59.158Z</time></trkpt><trkpt lat="43.8289436" lon="11.6591327"><ele>594.0</ele><time>2026-04-06T13:30:00.148Z</time></trkpt><trkpt lat="43.829083" lon="11.6592301"><ele>594.0</ele><time>2026-04-06T13:30:01.141Z</time></trkpt><trkpt lat="43.8291943" lon="11.6593703"><ele>594.0</ele><time>2026-04-06T13:30:02.159Z</time></trkpt><trkpt lat="43.8292962" lon="11.6595096"><ele>604.75</ele><time>2026-04-06T13:30:03.149Z</time></trkpt><trkpt lat="43.8294127" lon="11.659635"><ele>615.5</ele><time>2026-04-06T13:30:04.14Z</time></trkpt><trkpt lat="43.8295452" lon="11.6596432"><ele>626.25</ele><time>2026-04-06T13:30:05.138Z</time></trkpt><trkpt lat="43.8297028" lon="11.6595793"><ele>637.0</ele><time>2026-04-06T13:30:06.146Z</time></trkpt><trkpt lat="43.8298501" lon="11.6594516"><ele>627.0</ele><time>2026-04-06T13:30:07.151Z</time></trkpt><trkpt lat="43.8299841" lon="11.6593071"><ele>617.0</ele><time>2026-04-06T13:30:08.135Z</time></trkpt><trkpt lat="43.8301032" lon="11.6591723"><ele>607.0</ele><time>2026-04-06T13:30:09.147Z</time></trkpt><trkpt lat="43.8302247" lon="11.6590696"><ele>607.0</ele><time>2026-04-06T13:30:10.135Z</time></trkpt><trkpt lat="43.830347" lon="11.6590028"><ele>607.0</ele><time>2026-04-06T13:30:11.151Z</time></trkpt><trkpt lat="43.8304666" lon="11.6590344"><ele>607.0</ele><time>2026-04-06T13:30:12.153Z</time></trkpt><trkpt lat="43.830605" lon="11.6591116"><ele>607.0</ele><time>2026-04-06T13:30:13.141Z</time></trkpt><trkpt lat="43.830784" lon="11.6591326"><ele>607.0</ele><time>2026-04-06T13:30:14.133Z</time></trkpt><trkpt lat="43.8309602" lon="11.6591064"><ele>607.0</ele><time>2026-04-06T13:30:15.153Z</time></trkpt><trkpt lat="43.8311199" lon="11.6590655"><ele>607.0</ele><time>2026-04-06T13:30:16.148Z</time></trkpt><trkpt lat="43.8312742" lon="11.6590437"><ele>605.0</ele><time>2026-04-06T13:30:17.165Z</time></trkpt><trkpt lat="43.8314192" lon="11.6590978"><ele>603.0</ele><time>2026-04-06T13:30:18.147Z</time></trkpt><trkpt lat="43.8315623" lon="11.6592017"><ele>601.0</ele><time>2026-04-06T13:30:19.134Z</time></trkpt><trkpt lat="43.8317114" lon="11.6593535"><ele>603.0</ele><time>2026-04-06T13:30:20.153Z</time></trkpt><trkpt lat="43.8318522" lon="11.6594673"><ele>605.0</ele><time>2026-04-06T13:30:21.149Z</time></trkpt><trkpt lat="43.8319795" lon="11.6595925"><ele>607.0</ele><time>2026-04-06T13:30:22.144Z</time></trkpt><trkpt lat="43.8321102" lon="11.65971"><ele>607.0</ele><time>2026-04-06T13:30:23.147Z</time></trkpt><trkpt lat="43.8322625" lon="11.6597517"><ele>607.0</ele><time>2026-04-06T13:30:24.161Z</time></trkpt><trkpt lat="43.8324132" lon="11.6597492"><ele>607.0</ele><time>2026-04-06T13:30:25.149Z</time></trkpt><trkpt lat="43.8325702" lon="11.659712"><ele>610.0</ele><time>2026-04-06T13:30:26.151Z</time></trkpt><trkpt lat="43.8327516" lon="11.6596431"><ele>613.0</ele><time>2026-04-06T13:30:27.149Z</time></trkpt><trkpt lat="43.8329453" lon="11.6595791"><ele>616.0</ele><time>2026-04-06T13:30:28.156Z</time></trkpt><trkpt lat="43.8331739" lon="11.6595157"><ele>610.5</ele><time>2026-04-06T13:30:29.155Z</time></trkpt><trkpt lat="43.833405" lon="11.6594409"><ele>605.0</ele><time>2026-04-06T13:30:30.153Z</time></trkpt><trkpt lat="43.8336361" lon="11.659371"><ele>605.0</ele><time>2026-04-06T13:30:31.155Z</time></trkpt><trkpt lat="43.8338566" lon="11.659303"><ele>605.0</ele><time>2026-04-06T13:30:32.139Z</time></trkpt><trkpt lat="43.8340542" lon="11.6592447"><ele>605.0</ele><time>2026-04-06T13:30:33.159Z</time></trkpt><trkpt lat="43.8342268" lon="11.6592042"><ele>607.3333333333333</ele><time>2026-04-06T13:30:34.153Z</time></trkpt><trkpt lat="43.8343926" lon="11.6591872"><ele>609.6666666666666</ele><time>2026-04-06T13:30:35.158Z</time></trkpt><trkpt lat="43.8345567" lon="11.6591969"><ele>612.0</ele><time>2026-04-06T13:30:36.155Z</time></trkpt><trkpt lat="43.8347188" lon="11.6592401"><ele>612.0</ele><time>2026-04-06T13:30:37.138Z</time></trkpt><trkpt lat="43.8348782" lon="11.659265"><ele>612.0</ele><time>2026-04-06T13:30:38.157Z</time></trkpt><trkpt lat="43.8350344" lon="11.6592474"><ele>612.0</ele><time>2026-04-06T13:30:39.152Z</time></trkpt><trkpt lat="43.8351776" lon="11.6591385"><ele>618.0</ele><time>2026-04-06T13:30:40.155Z</time></trkpt><trkpt lat="43.8353219" lon="11.6589739"><ele>624.0</ele><time>2026-04-06T13:30:41.157Z</time></trkpt><trkpt lat="43.8354371" lon="11.6588105"><ele>630.0</ele><time>2026-04-06T13:30:42.152Z</time></trkpt><trkpt lat="43.835552" lon="11.658665"><ele>627.6666666666666</ele><time>2026-04-06T13:30:43.154Z</time></trkpt><trkpt lat="43.8356843" lon="11.6585527"><ele>625.3333333333333</ele><time>2026-04-06T13:30:44.153Z</time></trkpt><trkpt lat="43.8358489" lon="11.6584767"><ele>623.0</ele><time>2026-04-06T13:30:45.153Z</time></trkpt><trkpt lat="43.8360284" lon="11.6584337"><ele>623.0</ele><time>2026-04-06T13:30:46.155Z</time></trkpt><trkpt lat="43.8362187" lon="11.6583744"><ele>623.0</ele><time>2026-04-06T13:30:47.142Z</time></trkpt><trkpt lat="43.8364083" lon="11.6583092"><ele>623.0</ele><time>2026-04-06T13:30:48.166Z</time></trkpt><trkpt lat="43.836603" lon="11.6582531"><ele>623.0</ele><time>2026-04-06T13:30:49.146Z</time></trkpt><trkpt lat="43.8367906" lon="11.6582003"><ele>623.0</ele><time>2026-04-06T13:30:50.148Z</time></trkpt><trkpt lat="43.836938" lon="11.6581224"><ele>623.0</ele><time>2026-04-06T13:30:51.159Z</time></trkpt><trkpt lat="43.8370759" lon="11.658035"><ele>625.6666666666666</ele><time>2026-04-06T13:30:52.154Z</time></trkpt><trkpt lat="43.8371875" lon="11.6578756"><ele>628.3333333333334</ele><time>2026-04-06T13:30:53.154Z</time></trkpt><trkpt lat="43.8372872" lon="11.6576601"><ele>631.0</ele><time>2026-04-06T13:30:54.147Z</time></trkpt><trkpt lat="43.8373755" lon="11.6574275"><ele>631.0</ele><time>2026-04-06T13:30:55.156Z</time></trkpt><trkpt lat="43.8374785" lon="11.6571608"><ele>631.0</ele><time>2026-04-06T13:30:56.148Z</time></trkpt><trkpt lat="43.8375995" lon="11.6568902"><ele>631.0</ele><time>2026-04-06T13:30:57.153Z</time></trkpt><trkpt lat="43.8377057" lon="11.6566391"><ele>629.0</ele><time>2026-04-06T13:30:58.155Z</time></trkpt><trkpt lat="43.837801" lon="11.6563983"><ele>627.0</ele><time>2026-04-06T13:30:59.155Z</time></trkpt><trkpt lat="43.8378845" lon="11.656201"><ele>625.0</ele><time>2026-04-06T13:31:00.154Z</time></trkpt><trkpt lat="43.8379719" lon="11.6560466"><ele>625.0</ele><time>2026-04-06T13:31:01.153Z</time></trkpt><trkpt lat="43.8380984" lon="11.6559378"><ele>625.0</ele><time>2026-04-06T13:31:02.152Z</time></trkpt><trkpt lat="43.8382312" lon="11.65589"><ele>625.0</ele><time>2026-04-06T13:31:03.143Z</time></trkpt><trkpt lat="43.8383995" lon="11.6558635"><ele>629.0</ele><time>2026-04-06T13:31:04.157Z</time></trkpt><trkpt lat="43.8385893" lon="11.6558482"><ele>633.0</ele><time>2026-04-06T13:31:05.147Z</time></trkpt><trkpt lat="43.8387949" lon="11.655835"><ele>637.0</ele><time>2026-04-06T13:31:06.153Z</time></trkpt><trkpt lat="43.8389982" lon="11.6558316"><ele>637.0</ele><time>2026-04-06T13:31:07.157Z</time></trkpt><trkpt lat="43.8392038" lon="11.6558274"><ele>637.0</ele><time>2026-04-06T13:31:08.155Z</time></trkpt><trkpt lat="43.839404" lon="11.6558334"><ele>637.0</ele><time>2026-04-06T13:31:09.153Z</time></trkpt><trkpt lat="43.8395958" lon="11.6558339"><ele>640.6666666666667</ele><time>2026-04-06T13:31:10.141Z</time></trkpt><trkpt lat="43.8397707" lon="11.6558274"><ele>644.3333333333334</ele><time>2026-04-06T13:31:11.145Z</time></trkpt><trkpt lat="43.8399342" lon="11.6557638"><ele>648.0</ele><time>2026-04-06T13:31:12.151Z</time></trkpt><trkpt lat="43.8400614" lon="11.6556235"><ele>653.0</ele><time>2026-04-06T13:31:13.148Z</time></trkpt><trkpt lat="43.8401694" lon="11.6554299"><ele>658.0</ele><time>2026-04-06T13:31:14.148Z</time></trkpt><trkpt lat="43.8402712" lon="11.655226"><ele>663.0</ele><time>2026-04-06T13:31:15.149Z</time></trkpt><trkpt lat="43.8403797" lon="11.6550183"><ele>663.0</ele><time>2026-04-06T13:31:16.178Z</time></trkpt><trkpt lat="43.840495" lon="11.6548044"><ele>663.0</ele><time>2026-04-06T13:31:17.147Z</time></trkpt><trkpt lat="43.8406259" lon="11.6545851"><ele>663.0</ele><time>2026-04-06T13:31:18.151Z</time></trkpt><trkpt lat="43.8407642" lon="11.6543866"><ele>663.0</ele><time>2026-04-06T13:31:19.153Z</time></trkpt><trkpt lat="43.8408909" lon="11.6542029"><ele>663.0</ele><time>2026-04-06T13:31:20.151Z</time></trkpt><trkpt lat="43.8410139" lon="11.6540361"><ele>663.0</ele><time>2026-04-06T13:31:21.147Z</time></trkpt><trkpt lat="43.8411281" lon="11.6538812"><ele>663.0</ele><time>2026-04-06T13:31:22.148Z</time></trkpt><trkpt lat="43.8412273" lon="11.6537311"><ele>663.0</ele><time>2026-04-06T13:31:23.146Z</time></trkpt><trkpt lat="43.8413434" lon="11.6536223"><ele>663.0</ele><time>2026-04-06T13:31:24.162Z</time></trkpt><trkpt lat="43.8414765" lon="11.6535455"><ele>663.0</ele><time>2026-04-06T13:31:25.152Z</time></trkpt><trkpt lat="43.8416125" lon="11.6535134"><ele>663.0</ele><time>2026-04-06T13:31:26.148Z</time></trkpt><trkpt lat="43.8417156" lon="11.653472"><ele>663.0</ele><time>2026-04-06T13:31:27.162Z</time></trkpt><trkpt lat="43.841787" lon="11.6534156"><ele>663.0</ele><time>2026-04-06T13:31:28.156Z</time></trkpt><trkpt lat="43.8418516" lon="11.653299"><ele>663.0</ele><time>2026-04-06T13:31:30.151Z</time></trkpt><trkpt lat="43.8418858" lon="11.6532078"><ele>663.0</ele><time>2026-04-06T13:31:32.146Z</time></trkpt><trkpt lat="43.8418833" lon="11.6531049"><ele>663.0</ele><time>2026-04-06T13:31:56.153Z</time></trkpt><trkpt lat="43.8418745" lon="11.6530006"><ele>663.0</ele><time>2026-04-06T13:31:57.16Z</time></trkpt><trkpt lat="43.8418265" lon="11.6528649"><ele>663.0</ele><time>2026-04-06T13:31:58.153Z</time></trkpt><trkpt lat="43.8417715" lon="11.652697"><ele>663.0</ele><time>2026-04-06T13:31:59.167Z</time></trkpt><trkpt lat="43.8417319" lon="11.6524859"><ele>663.0</ele><time>2026-04-06T13:32:00.144Z</time></trkpt><trkpt lat="43.8417262" lon="11.6522282"><ele>662.3333333333334</ele><time>2026-04-06T13:32:01.152Z</time></trkpt><trkpt lat="43.8417338" lon="11.6519619"><ele>661.6666666666667</ele><time>2026-04-06T13:32:02.151Z</time></trkpt><trkpt lat="43.8417325" lon="11.6516906"><ele>661.0</ele><time>2026-04-06T13:32:03.153Z</time></trkpt><trkpt lat="43.8417421" lon="11.6513936"><ele>662.0</ele><time>2026-04-06T13:32:04.16Z</time></trkpt><trkpt lat="43.8417639" lon="11.651088"><ele>663.0</ele><time>2026-04-06T13:32:05.159Z</time></trkpt><trkpt lat="43.8417864" lon="11.6507802"><ele>664.0</ele><time>2026-04-06T13:32:06.154Z</time></trkpt><trkpt lat="43.8418115" lon="11.6504547"><ele>681.5</ele><time>2026-04-06T13:32:07.148Z</time></trkpt><trkpt lat="43.8418422" lon="11.6501333"><ele>699.0</ele><time>2026-04-06T13:32:08.145Z</time></trkpt><trkpt lat="43.84187" lon="11.6498107"><ele>699.0</ele><time>2026-04-06T13:32:09.14Z</time></trkpt><trkpt lat="43.8418951" lon="11.6494994"><ele>699.0</ele><time>2026-04-06T13:32:10.162Z</time></trkpt><trkpt lat="43.8419088" lon="11.6491978"><ele>699.0</ele><time>2026-04-06T13:32:11.148Z</time></trkpt><trkpt lat="43.8419146" lon="11.648941"><ele>698.3333333333334</ele><time>2026-04-06T13:32:12.161Z</time></trkpt><trkpt lat="43.8418978" lon="11.6486767"><ele>697.6666666666667</ele><time>2026-04-06T13:32:13.151Z</time></trkpt><trkpt lat="43.8418449" lon="11.6483964"><ele>697.0</ele><time>2026-04-06T13:32:14.153Z</time></trkpt><trkpt lat="43.8417702" lon="11.6481245"><ele>694.6666666666667</ele><time>2026-04-06T13:32:15.161Z</time></trkpt><trkpt lat="43.8416755" lon="11.647863"><ele>692.3333333333334</ele><time>2026-04-06T13:32:16.152Z</time></trkpt><trkpt lat="43.8415658" lon="11.6475943"><ele>690.0</ele><time>2026-04-06T13:32:17.151Z</time></trkpt><trkpt lat="43.8414672" lon="11.6473289"><ele>690.0</ele><time>2026-04-06T13:32:18.152Z</time></trkpt><trkpt lat="43.8414246" lon="11.6470634"><ele>690.0</ele><time>2026-04-06T13:32:19.153Z</time></trkpt><trkpt lat="43.8414213" lon="11.6468146"><ele>690.0</ele><time>2026-04-06T13:32:20.156Z</time></trkpt><trkpt lat="43.8414264" lon="11.6466036"><ele>693.3333333333334</ele><time>2026-04-06T13:32:21.152Z</time></trkpt><trkpt lat="43.8413783" lon="11.6463714"><ele>696.6666666666667</ele><time>2026-04-06T13:32:22.155Z</time></trkpt><trkpt lat="43.8412782" lon="11.646165"><ele>700.0</ele><time>2026-04-06T13:32:23.147Z</time></trkpt><trkpt lat="43.8411426" lon="11.6460058"><ele>703.6666666666667</ele><time>2026-04-06T13:32:24.15Z</time></trkpt><trkpt lat="43.8410145" lon="11.6458512"><ele>707.3333333333334</ele><time>2026-04-06T13:32:25.143Z</time></trkpt><trkpt lat="43.8409012" lon="11.6456893"><ele>711.0</ele><time>2026-04-06T13:32:26.141Z</time></trkpt><trkpt lat="43.8408279" lon="11.6454903"><ele>705.0</ele><time>2026-04-06T13:32:27.158Z</time></trkpt><trkpt lat="43.8408055" lon="11.6452534"><ele>699.0</ele><time>2026-04-06T13:32:28.152Z</time></trkpt><trkpt lat="43.8407943" lon="11.6449903"><ele>693.0</ele><time>2026-04-06T13:32:29.166Z</time></trkpt><trkpt lat="43.8407663" lon="11.6447146"><ele>695.6666666666666</ele><time>2026-04-06T13:32:30.161Z</time></trkpt><trkpt lat="43.8407286" lon="11.64444"><ele>698.3333333333333</ele><time>2026-04-06T13:32:31.154Z</time></trkpt><trkpt lat="43.8406847" lon="11.6441704"><ele>701.0</ele><time>2026-04-06T13:32:32.14Z</time></trkpt><trkpt lat="43.8406443" lon="11.6439208"><ele>701.0</ele><time>2026-04-06T13:32:33.165Z</time></trkpt><trkpt lat="43.8406227" lon="11.6437097"><ele>701.0</ele><time>2026-04-06T13:32:34.154Z</time></trkpt><trkpt lat="43.8406255" lon="11.643519"><ele>701.0</ele><time>2026-04-06T13:32:35.159Z</time></trkpt><trkpt lat="43.8406556" lon="11.6433427"><ele>701.0</ele><time>2026-04-06T13:32:36.156Z</time></trkpt><trkpt lat="43.8407581" lon="11.6431687"><ele>701.25</ele><time>2026-04-06T13:32:37.145Z</time></trkpt><trkpt lat="43.8408615" lon="11.6429896"><ele>701.5</ele><time>2026-04-06T13:32:38.155Z</time></trkpt><trkpt lat="43.8409713" lon="11.6428321"><ele>701.75</ele><time>2026-04-06T13:32:39.155Z</time></trkpt><trkpt lat="43.8410487" lon="11.6427008"><ele>702.0</ele><time>2026-04-06T13:32:40.151Z</time></trkpt><trkpt lat="43.8411358" lon="11.6425966"><ele>706.4000000000001</ele><time>2026-04-06T13:32:41.156Z</time></trkpt><trkpt lat="43.8412288" lon="11.6425433"><ele>710.8000000000001</ele><time>2026-04-06T13:32:42.146Z</time></trkpt><trkpt lat="43.8413207" lon="11.6425338"><ele>715.2</ele><time>2026-04-06T13:32:43.156Z</time></trkpt><trkpt lat="43.841415" lon="11.642571"><ele>719.6</ele><time>2026-04-06T13:32:44.139Z</time></trkpt><trkpt lat="43.8414953" lon="11.6426601"><ele>724.0</ele><time>2026-04-06T13:32:45.162Z</time></trkpt><trkpt lat="43.8415247" lon="11.6428032"><ele>724.0</ele><time>2026-04-06T13:32:46.158Z</time></trkpt><trkpt lat="43.8415012" lon="11.642989"><ele>724.0</ele><time>2026-04-06T13:32:47.145Z</time></trkpt><trkpt lat="43.8414443" lon="11.6431303"><ele>724.0</ele><time>2026-04-06T13:32:48.155Z</time></trkpt><trkpt lat="43.8413646" lon="11.643286"><ele>724.0</ele><time>2026-04-06T13:32:49.152Z</time></trkpt><trkpt lat="43.8413101" lon="11.6434497"><ele>723.3333333333334</ele><time>2026-04-06T13:32:50.153Z</time></trkpt><trkpt lat="43.8412877" lon="11.6436428"><ele>722.6666666666666</ele><time>2026-04-06T13:32:51.157Z</time></trkpt><trkpt lat="43.841344" lon="11.6438552"><ele>722.0</ele><time>2026-04-06T13:32:52.158Z</time></trkpt><trkpt lat="43.8414247" lon="11.6440804"><ele>722.0</ele><time>2026-04-06T13:32:53.155Z</time></trkpt><trkpt lat="43.8415194" lon="11.6443016"><ele>722.0</ele><time>2026-04-06T13:32:54.15Z</time></trkpt><trkpt lat="43.8416161" lon="11.6445372"><ele>722.0</ele><time>2026-04-06T13:32:55.148Z</time></trkpt><trkpt lat="43.8416784" lon="11.6447758"><ele>721.25</ele><time>2026-04-06T13:32:56.154Z</time></trkpt><trkpt lat="43.8417273" lon="11.6449872"><ele>720.5</ele><time>2026-04-06T13:32:57.145Z</time></trkpt><trkpt lat="43.8417706" lon="11.645186"><ele>719.75</ele><time>2026-04-06T13:32:58.157Z</time></trkpt><trkpt lat="43.8418101" lon="11.6453605"><ele>719.0</ele><time>2026-04-06T13:32:59.143Z</time></trkpt><trkpt lat="43.8418456" lon="11.6454718"><ele>724.8000000000001</ele><time>2026-04-06T13:33:00.15Z</time></trkpt><trkpt lat="43.8419291" lon="11.6455506"><ele>730.6</ele><time>2026-04-06T13:33:01.151Z</time></trkpt><trkpt lat="43.8420365" lon="11.6455573"><ele>736.4</ele><time>2026-04-06T13:33:02.147Z</time></trkpt><trkpt lat="43.8421387" lon="11.6454916"><ele>742.2</ele><time>2026-04-06T13:33:03.157Z</time></trkpt><trkpt lat="43.8421956" lon="11.6453636"><ele>748.0</ele><time>2026-04-06T13:33:04.147Z</time></trkpt><trkpt lat="43.8422155" lon="11.6451825"><ele>748.0</ele><time>2026-04-06T13:33:05.151Z</time></trkpt><trkpt lat="43.8422116" lon="11.6449653"><ele>748.0</ele><time>2026-04-06T13:33:06.141Z</time></trkpt><trkpt lat="43.8421723" lon="11.6447145"><ele>748.0</ele><time>2026-04-06T13:33:07.143Z</time></trkpt><trkpt lat="43.8421361" lon="11.6444699"><ele>749.3333333333334</ele><time>2026-04-06T13:33:08.162Z</time></trkpt><trkpt lat="43.8421125" lon="11.6442224"><ele>750.6666666666666</ele><time>2026-04-06T13:33:09.15Z</time></trkpt><trkpt lat="43.8421244" lon="11.6439743"><ele>752.0</ele><time>2026-04-06T13:33:10.165Z</time></trkpt><trkpt lat="43.8421614" lon="11.6437219"><ele>752.6666666666666</ele><time>2026-04-06T13:33:11.149Z</time></trkpt><trkpt lat="43.842185" lon="11.643465"><ele>753.3333333333334</ele><time>2026-04-06T13:33:12.151Z</time></trkpt><trkpt lat="43.8422157" lon="11.6432148"><ele>754.0</ele><time>2026-04-06T13:33:13.161Z</time></trkpt><trkpt lat="43.8422435" lon="11.642978"><ele>755.25</ele><time>2026-04-06T13:33:14.149Z</time></trkpt><trkpt lat="43.8422657" lon="11.6427789"><ele>756.5</ele><time>2026-04-06T13:33:15.142Z</time></trkpt><trkpt lat="43.8422866" lon="11.6426062"><ele>757.75</ele><time>2026-04-06T13:33:16.135Z</time></trkpt><trkpt lat="43.8422813" lon="11.6424526"><ele>759.0</ele><time>2026-04-06T13:33:17.152Z</time></trkpt><trkpt lat="43.8422485" lon="11.6423062"><ele>759.0</ele><time>2026-04-06T13:33:18.153Z</time></trkpt><trkpt lat="43.8422024" lon="11.642174"><ele>759.0</ele><time>2026-04-06T13:33:19.162Z</time></trkpt><trkpt lat="43.8421319" lon="11.6420737"><ele>759.0</ele><time>2026-04-06T13:33:20.163Z</time></trkpt><trkpt lat="43.8420651" lon="11.6420044"><ele>759.0</ele><time>2026-04-06T13:33:21.14Z</time></trkpt><trkpt lat="43.8419969" lon="11.6419358"><ele>759.0</ele><time>2026-04-06T13:33:22.148Z</time></trkpt><trkpt lat="43.8419288" lon="11.6418738"><ele>756.8333333333334</ele><time>2026-04-06T13:33:23.154Z</time></trkpt><trkpt lat="43.8418506" lon="11.6418099"><ele>754.6666666666666</ele><time>2026-04-06T13:33:24.138Z</time></trkpt><trkpt lat="43.8417775" lon="11.6417426"><ele>752.5</ele><time>2026-04-06T13:33:25.152Z</time></trkpt><trkpt lat="43.841705" lon="11.641679"><ele>750.3333333333333</ele><time>2026-04-06T13:33:26.141Z</time></trkpt><trkpt lat="43.8416352" lon="11.6416164"><ele>748.1666666666666</ele><time>2026-04-06T13:33:27.155Z</time></trkpt><trkpt lat="43.8415673" lon="11.6415339"><ele>746.0</ele><time>2026-04-06T13:33:28.151Z</time></trkpt><trkpt lat="43.8415087" lon="11.6414412"><ele>746.0</ele><time>2026-04-06T13:33:29.155Z</time></trkpt><trkpt lat="43.8414689" lon="11.6413424"><ele>746.0</ele><time>2026-04-06T13:33:30.146Z</time></trkpt><trkpt lat="43.8414645" lon="11.6412257"><ele>746.0</ele><time>2026-04-06T13:33:31.159Z</time></trkpt><trkpt lat="43.841467" lon="11.6410957"><ele>746.0</ele><time>2026-04-06T13:33:32.169Z</time></trkpt><trkpt lat="43.8414828" lon="11.6409664"><ele>746.0</ele><time>2026-04-06T13:33:33.147Z</time></trkpt><trkpt lat="43.8415057" lon="11.6408438"><ele>746.0</ele><time>2026-04-06T13:33:34.17Z</time></trkpt><trkpt lat="43.8415296" lon="11.6407337"><ele>748.1999999999999</ele><time>2026-04-06T13:33:35.15Z</time></trkpt><trkpt lat="43.8415572" lon="11.6406193"><ele>750.4</ele><time>2026-04-06T13:33:36.152Z</time></trkpt><trkpt lat="43.8415895" lon="11.6405145"><ele>752.6</ele><time>2026-04-06T13:33:37.153Z</time></trkpt><trkpt lat="43.8416229" lon="11.6404063"><ele>754.8</ele><time>2026-04-06T13:33:38.158Z</time></trkpt><trkpt lat="43.8416692" lon="11.6402972"><ele>757.0</ele><time>2026-04-06T13:33:39.159Z</time></trkpt><trkpt lat="43.8417356" lon="11.6401742"><ele>763.75</ele><time>2026-04-06T13:33:40.167Z</time></trkpt><trkpt lat="43.8418145" lon="11.6400482"><ele>770.5</ele><time>2026-04-06T13:33:41.162Z</time></trkpt><trkpt lat="43.8419227" lon="11.6399171"><ele>777.25</ele><time>2026-04-06T13:33:42.16Z</time></trkpt><trkpt lat="43.8420416" lon="11.6397526"><ele>784.0</ele><time>2026-04-06T13:33:43.157Z</time></trkpt><trkpt lat="43.8421938" lon="11.6395738"><ele>787.3333333333333</ele><time>2026-04-06T13:33:44.149Z</time></trkpt><trkpt lat="43.842357" lon="11.639375"><ele>790.6666666666667</ele><time>2026-04-06T13:33:45.156Z</time></trkpt><trkpt lat="43.8425236" lon="11.6391827"><ele>794.0</ele><time>2026-04-06T13:33:46.161Z</time></trkpt><trkpt lat="43.8427003" lon="11.6389953"><ele>794.0</ele><time>2026-04-06T13:33:47.157Z</time></trkpt><trkpt lat="43.8428952" lon="11.6388061"><ele>794.0</ele><time>2026-04-06T13:33:48.158Z</time></trkpt><trkpt lat="43.8430884" lon="11.6386153"><ele>797.0</ele><time>2026-04-06T13:33:49.165Z</time></trkpt><trkpt lat="43.8432732" lon="11.6384366"><ele>800.0</ele><time>2026-04-06T13:33:50.141Z</time></trkpt><trkpt lat="43.8434425" lon="11.6382801"><ele>803.0</ele><time>2026-04-06T13:33:51.162Z</time></trkpt><trkpt lat="43.843597" lon="11.6381424"><ele>803.0</ele><time>2026-04-06T13:33:52.15Z</time></trkpt><trkpt lat="43.8437214" lon="11.6380024"><ele>803.0</ele><time>2026-04-06T13:33:53.157Z</time></trkpt><trkpt lat="43.8438116" lon="11.6378483"><ele>803.0</ele><time>2026-04-06T13:33:54.153Z</time></trkpt><trkpt lat="43.8438942" lon="11.6377098"><ele>803.0</ele><time>2026-04-06T13:33:55.143Z</time></trkpt><trkpt lat="43.843975" lon="11.6375967"><ele>803.0</ele><time>2026-04-06T13:33:56.145Z</time></trkpt><trkpt lat="43.8440595" lon="11.6375489"><ele>803.0</ele><time>2026-04-06T13:33:57.147Z</time></trkpt><trkpt lat="43.8441439" lon="11.6375936"><ele>803.0</ele><time>2026-04-06T13:33:58.142Z</time></trkpt><trkpt lat="43.8442085" lon="11.6377213"><ele>803.0</ele><time>2026-04-06T13:33:59.142Z</time></trkpt><trkpt lat="43.8442063" lon="11.6378554"><ele>803.0</ele><time>2026-04-06T13:34:00.144Z</time></trkpt><trkpt lat="43.8441604" lon="11.6379973"><ele>803.0</ele><time>2026-04-06T13:34:01.162Z</time></trkpt><trkpt lat="43.8440603" lon="11.6381452"><ele>803.0</ele><time>2026-04-06T13:34:02.151Z</time></trkpt><trkpt lat="43.8439354" lon="11.6383031"><ele>803.0</ele><time>2026-04-06T13:34:03.152Z</time></trkpt><trkpt lat="43.8438107" lon="11.6384775"><ele>810.0</ele><time>2026-04-06T13:34:04.138Z</time></trkpt><trkpt lat="43.8436963" lon="11.6386937"><ele>817.0</ele><time>2026-04-06T13:34:05.173Z</time></trkpt><trkpt lat="43.8436001" lon="11.6389617"><ele>824.0</ele><time>2026-04-06T13:34:06.151Z</time></trkpt><trkpt lat="43.8435018" lon="11.6392459"><ele>818.6666666666667</ele><time>2026-04-06T13:34:07.145Z</time></trkpt><trkpt lat="43.8434148" lon="11.6395177"><ele>813.3333333333333</ele><time>2026-04-06T13:34:08.152Z</time></trkpt><trkpt lat="43.8433287" lon="11.6397508"><ele>808.0</ele><time>2026-04-06T13:34:09.14Z</time></trkpt><trkpt lat="43.8432573" lon="11.6399678"><ele>808.0</ele><time>2026-04-06T13:34:10.154Z</time></trkpt><trkpt lat="43.8432113" lon="11.6402042"><ele>808.0</ele><time>2026-04-06T13:34:11.151Z</time></trkpt><trkpt lat="43.8431783" lon="11.6404672"><ele>808.0</ele><time>2026-04-06T13:34:12.144Z</time></trkpt><trkpt lat="43.8431638" lon="11.6407123"><ele>810.0</ele><time>2026-04-06T13:34:13.156Z</time></trkpt><trkpt lat="43.8431531" lon="11.640927"><ele>812.0</ele><time>2026-04-06T13:34:14.157Z</time></trkpt><trkpt lat="43.8431609" lon="11.6411231"><ele>814.0</ele><time>2026-04-06T13:34:15.166Z</time></trkpt><trkpt lat="43.8432179" lon="11.6413322"><ele>814.0</ele><time>2026-04-06T13:34:16.155Z</time></trkpt><trkpt lat="43.8433205" lon="11.6415454"><ele>814.0</ele><time>2026-04-06T13:34:17.158Z</time></trkpt><trkpt lat="43.8434299" lon="11.6417456"><ele>814.0</ele><time>2026-04-06T13:34:18.159Z</time></trkpt><trkpt lat="43.843527" lon="11.6419478"><ele>827.0</ele><time>2026-04-06T13:34:19.161Z</time></trkpt><trkpt lat="43.8435857" lon="11.6421643"><ele>840.0</ele><time>2026-04-06T13:34:20.17Z</time></trkpt><trkpt lat="43.8435971" lon="11.6424107"><ele>853.0</ele><time>2026-04-06T13:34:21.143Z</time></trkpt><trkpt lat="43.8435759" lon="11.6426866"><ele>853.6666666666666</ele><time>2026-04-06T13:34:22.161Z</time></trkpt><trkpt lat="43.8435682" lon="11.6429527"><ele>854.3333333333333</ele><time>2026-04-06T13:34:23.142Z</time></trkpt><trkpt lat="43.843572" lon="11.6431967"><ele>855.0</ele><time>2026-04-06T13:34:24.158Z</time></trkpt><trkpt lat="43.8435958" lon="11.6434003"><ele>855.0</ele><time>2026-04-06T13:34:25.159Z</time></trkpt><trkpt lat="43.8436571" lon="11.6435867"><ele>855.0</ele><time>2026-04-06T13:34:26.159Z</time></trkpt><trkpt lat="43.8437732" lon="11.6437586"><ele>855.0</ele><time>2026-04-06T13:34:27.154Z</time></trkpt><trkpt lat="43.84392" lon="11.643875"><ele>861.3333333333333</ele><time>2026-04-06T13:34:28.141Z</time></trkpt><trkpt lat="43.8440783" lon="11.6439799"><ele>867.6666666666666</ele><time>2026-04-06T13:34:29.152Z</time></trkpt><trkpt lat="43.8442514" lon="11.6440596"><ele>874.0</ele><time>2026-04-06T13:34:30.144Z</time></trkpt><trkpt lat="43.8443877" lon="11.6441494"><ele>874.0</ele><time>2026-04-06T13:34:31.145Z</time></trkpt><trkpt lat="43.8444921" lon="11.6442682"><ele>874.0</ele><time>2026-04-06T13:34:32.155Z</time></trkpt><trkpt lat="43.8445612" lon="11.6444485"><ele>874.0</ele><time>2026-04-06T13:34:33.155Z</time></trkpt><trkpt lat="43.8445682" lon="11.644681"><ele>870.5</ele><time>2026-04-06T13:34:34.141Z</time></trkpt><trkpt lat="43.8445412" lon="11.6448849"><ele>867.0</ele><time>2026-04-06T13:34:35.165Z</time></trkpt><trkpt lat="43.84449" lon="11.6450922"><ele>863.5</ele><time>2026-04-06T13:34:36.164Z</time></trkpt><trkpt lat="43.8444598" lon="11.6452708"><ele>860.0</ele><time>2026-04-06T13:34:37.161Z</time></trkpt><trkpt lat="43.8444904" lon="11.6454304"><ele>853.75</ele><time>2026-04-06T13:34:38.156Z</time></trkpt><trkpt lat="43.8445637" lon="11.6455512"><ele>847.5</ele><time>2026-04-06T13:34:39.145Z</time></trkpt><trkpt lat="43.844697" lon="11.6456192"><ele>841.25</ele><time>2026-04-06T13:34:40.155Z</time></trkpt><trkpt lat="43.8448438" lon="11.6456676"><ele>835.0</ele><time>2026-04-06T13:34:41.158Z</time></trkpt><trkpt lat="43.8450072" lon="11.6456826"><ele>840.3333333333333</ele><time>2026-04-06T13:34:42.15Z</time></trkpt><trkpt lat="43.8451787" lon="11.6456993"><ele>845.6666666666667</ele><time>2026-04-06T13:34:43.155Z</time></trkpt><trkpt lat="43.845367" lon="11.6456845"><ele>851.0</ele><time>2026-04-06T13:34:44.164Z</time></trkpt><trkpt lat="43.8455506" lon="11.64568"><ele>851.0</ele><time>2026-04-06T13:34:45.159Z</time></trkpt><trkpt lat="43.8457221" lon="11.6456873"><ele>851.0</ele><time>2026-04-06T13:34:46.156Z</time></trkpt><trkpt lat="43.8458572" lon="11.6456994"><ele>851.0</ele><time>2026-04-06T13:34:47.142Z</time></trkpt><trkpt lat="43.8459904" lon="11.6457416"><ele>851.0</ele><time>2026-04-06T13:34:48.143Z</time></trkpt><trkpt lat="43.8461189" lon="11.6458344"><ele>855.75</ele><time>2026-04-06T13:34:49.162Z</time></trkpt><trkpt lat="43.8462382" lon="11.64595"><ele>860.5</ele><time>2026-04-06T13:34:50.146Z</time></trkpt><trkpt lat="43.84633" lon="11.6460053"><ele>865.25</ele><time>2026-04-06T13:34:51.162Z</time></trkpt><trkpt lat="43.846444" lon="11.6459929"><ele>870.0</ele><time>2026-04-06T13:34:52.156Z</time></trkpt><trkpt lat="43.8465531" lon="11.6459246"><ele>870.0</ele><time>2026-04-06T13:34:53.162Z</time></trkpt><trkpt lat="43.846628" lon="11.6457961"><ele>870.0</ele><time>2026-04-06T13:34:54.15Z</time></trkpt><trkpt lat="43.8466547" lon="11.6456485"><ele>870.0</ele><time>2026-04-06T13:34:55.164Z</time></trkpt><trkpt lat="43.8466229" lon="11.6454874"><ele>870.0</ele><time>2026-04-06T13:34:56.15Z</time></trkpt><trkpt lat="43.8465372" lon="11.6453564"><ele>875.0</ele><time>2026-04-06T13:34:57.144Z</time></trkpt><trkpt lat="43.8463905" lon="11.6452564"><ele>880.0</ele><time>2026-04-06T13:34:58.146Z</time></trkpt><trkpt lat="43.8461956" lon="11.6452248"><ele>885.0</ele><time>2026-04-06T13:34:59.154Z</time></trkpt><trkpt lat="43.8459991" lon="11.6452297"><ele>882.0</ele><time>2026-04-06T13:35:00.17Z</time></trkpt><trkpt lat="43.8458096" lon="11.6452234"><ele>879.0</ele><time>2026-04-06T13:35:01.146Z</time></trkpt><trkpt lat="43.8456272" lon="11.6452055"><ele>876.0</ele><time>2026-04-06T13:35:02.16Z</time></trkpt><trkpt lat="43.8454634" lon="11.6451973"><ele>876.0</ele><time>2026-04-06T13:35:03.152Z</time></trkpt><trkpt lat="43.8453258" lon="11.6451834"><ele>876.0</ele><time>2026-04-06T13:35:04.157Z</time></trkpt><trkpt lat="43.8452199" lon="11.6451315"><ele>876.0</ele><time>2026-04-06T13:35:05.164Z</time></trkpt><trkpt lat="43.8451415" lon="11.6450352"><ele>876.0</ele><time>2026-04-06T13:35:06.139Z</time></trkpt><trkpt lat="43.8451125" lon="11.6448836"><ele>876.0</ele><time>2026-04-06T13:35:07.157Z</time></trkpt><trkpt lat="43.8451151" lon="11.6446884"><ele>876.0</ele><time>2026-04-06T13:35:08.165Z</time></trkpt><trkpt lat="43.8451345" lon="11.6444839"><ele>876.0</ele><time>2026-04-06T13:35:09.152Z</time></trkpt><trkpt lat="43.8451474" lon="11.644261"><ele>875.3333333333333</ele><time>2026-04-06T13:35:10.153Z</time></trkpt><trkpt lat="43.8451272" lon="11.6440541"><ele>874.6666666666666</ele><time>2026-04-06T13:35:11.149Z</time></trkpt><trkpt lat="43.8450418" lon="11.6438422"><ele>874.0</ele><time>2026-04-06T13:35:12.147Z</time></trkpt><trkpt lat="43.8449176" lon="11.6436479"><ele>880.3333333333333</ele><time>2026-04-06T13:35:13.155Z</time></trkpt><trkpt lat="43.8447905" lon="11.6434705"><ele>886.6666666666667</ele><time>2026-04-06T13:35:14.155Z</time></trkpt><trkpt lat="43.8446883" lon="11.6433168"><ele>893.0</ele><time>2026-04-06T13:35:15.15Z</time></trkpt><trkpt lat="43.8446337" lon="11.6431681"><ele>893.0</ele><time>2026-04-06T13:35:16.155Z</time></trkpt><trkpt lat="43.8446314" lon="11.6430093"><ele>893.0</ele><time>2026-04-06T13:35:17.147Z</time></trkpt><trkpt lat="43.8446816" lon="11.6428759"><ele>893.0</ele><time>2026-04-06T13:35:18.164Z</time></trkpt><trkpt lat="43.8447643" lon="11.6427609"><ele>893.0</ele><time>2026-04-06T13:35:19.152Z</time></trkpt><trkpt lat="43.8448856" lon="11.6426573"><ele>893.25</ele><time>2026-04-06T13:35:20.157Z</time></trkpt><trkpt lat="43.8449826" lon="11.6425198"><ele>893.5</ele><time>2026-04-06T13:35:21.15Z</time></trkpt><trkpt lat="43.8450513" lon="11.6423406"><ele>893.75</ele><time>2026-04-06T13:35:22.159Z</time></trkpt><trkpt lat="43.8450866" lon="11.6421395"><ele>894.0</ele><time>2026-04-06T13:35:23.156Z</time></trkpt><trkpt lat="43.8450509" lon="11.6419166"><ele>895.3333333333333</ele><time>2026-04-06T13:35:24.154Z</time></trkpt><trkpt lat="43.8450045" lon="11.6416705"><ele>896.6666666666666</ele><time>2026-04-06T13:35:25.157Z</time></trkpt><trkpt lat="43.8449483" lon="11.6414495"><ele>898.0</ele><time>2026-04-06T13:35:26.158Z</time></trkpt><trkpt lat="43.8449133" lon="11.6412352"><ele>897.75</ele><time>2026-04-06T13:35:27.154Z</time></trkpt><trkpt lat="43.844917" lon="11.6410536"><ele>897.5</ele><time>2026-04-06T13:35:28.173Z</time></trkpt><trkpt lat="43.84497" lon="11.6408703"><ele>897.25</ele><time>2026-04-06T13:35:29.148Z</time></trkpt><trkpt lat="43.8450512" lon="11.6406765"><ele>897.0</ele><time>2026-04-06T13:35:30.151Z</time></trkpt><trkpt lat="43.8451259" lon="11.6405036"><ele>903.0</ele><time>2026-04-06T13:35:31.165Z</time></trkpt><trkpt lat="43.8452131" lon="11.6403789"><ele>909.0</ele><time>2026-04-06T13:35:32.16Z</time></trkpt><trkpt lat="43.8453281" lon="11.6403209"><ele>915.0</ele><time>2026-04-06T13:35:33.163Z</time></trkpt><trkpt lat="43.8454747" lon="11.6403419"><ele>921.0</ele><time>2026-04-06T13:35:34.155Z</time></trkpt><trkpt lat="43.8456221" lon="11.6403733"><ele>921.0</ele><time>2026-04-06T13:35:35.157Z</time></trkpt><trkpt lat="43.8457776" lon="11.6403737"><ele>921.0</ele><time>2026-04-06T13:35:36.157Z</time></trkpt><trkpt lat="43.8459305" lon="11.6403249"><ele>921.0</ele><time>2026-04-06T13:35:37.155Z</time></trkpt><trkpt lat="43.8460768" lon="11.6402157"><ele>923.0</ele><time>2026-04-06T13:35:38.174Z</time></trkpt><trkpt lat="43.8462244" lon="11.6400887"><ele>925.0</ele><time>2026-04-06T13:35:39.152Z</time></trkpt><trkpt lat="43.8463837" lon="11.6399346"><ele>927.0</ele><time>2026-04-06T13:35:40.142Z</time></trkpt><trkpt lat="43.8465485" lon="11.6397753"><ele>927.0</ele><time>2026-04-06T13:35:41.154Z</time></trkpt><trkpt lat="43.8467127" lon="11.6396227"><ele>927.0</ele><time>2026-04-06T13:35:42.159Z</time></trkpt><trkpt lat="43.8468913" lon="11.6394677"><ele>927.0</ele><time>2026-04-06T13:35:43.145Z</time></trkpt><trkpt lat="43.8470685" lon="11.6393121"><ele>929.3333333333333</ele><time>2026-04-06T13:35:44.154Z</time></trkpt><trkpt lat="43.847248" lon="11.6391483"><ele>931.6666666666666</ele><time>2026-04-06T13:35:45.147Z</time></trkpt><trkpt lat="43.8474337" lon="11.6389849"><ele>934.0</ele><time>2026-04-06T13:35:46.164Z</time></trkpt><trkpt lat="43.8476204" lon="11.638818"><ele>935.5</ele><time>2026-04-06T13:35:47.16Z</time></trkpt><trkpt lat="43.8478108" lon="11.6386471"><ele>937.0</ele><time>2026-04-06T13:35:48.155Z</time></trkpt><trkpt lat="43.848004" lon="11.6384769"><ele>937.0</ele><time>2026-04-06T13:35:49.153Z</time></trkpt><trkpt lat="43.8481774" lon="11.6383098"><ele>937.0</ele><time>2026-04-06T13:35:50.158Z</time></trkpt><trkpt lat="43.8483426" lon="11.6381534"><ele>937.0</ele><time>2026-04-06T13:35:51.152Z</time></trkpt><trkpt lat="43.8484848" lon="11.6380245"><ele>940.5</ele><time>2026-04-06T13:35:52.155Z</time></trkpt><trkpt lat="43.848606" lon="11.6379343"><ele>944.0</ele><time>2026-04-06T13:35:53.154Z</time></trkpt><trkpt lat="43.8487202" lon="11.6378794"><ele>947.5</ele><time>2026-04-06T13:35:54.141Z</time></trkpt><trkpt lat="43.8488431" lon="11.6378869"><ele>951.0</ele><time>2026-04-06T13:35:55.141Z</time></trkpt><trkpt lat="43.8489627" lon="11.6379712"><ele>951.0</ele><time>2026-04-06T13:35:56.156Z</time></trkpt><trkpt lat="43.8490681" lon="11.6380623"><ele>951.0</ele><time>2026-04-06T13:35:57.153Z</time></trkpt><trkpt lat="43.8491787" lon="11.6381403"><ele>951.0</ele><time>2026-04-06T13:35:58.164Z</time></trkpt><trkpt lat="43.8492957" lon="11.6381506"><ele>951.0</ele><time>2026-04-06T13:35:59.157Z</time></trkpt><trkpt lat="43.8494147" lon="11.6380811"><ele>956.0</ele><time>2026-04-06T13:36:00.142Z</time></trkpt><trkpt lat="43.8495234" lon="11.6379403"><ele>961.0</ele><time>2026-04-06T13:36:01.155Z</time></trkpt><trkpt lat="43.8496181" lon="11.6377254"><ele>966.0</ele><time>2026-04-06T13:36:02.141Z</time></trkpt><trkpt lat="43.8497173" lon="11.6375202"><ele>966.0</ele><time>2026-04-06T13:36:03.142Z</time></trkpt><trkpt lat="43.8498228" lon="11.6373163"><ele>966.0</ele><time>2026-04-06T13:36:04.144Z</time></trkpt><trkpt lat="43.8499291" lon="11.6371131"><ele>966.0</ele><time>2026-04-06T13:36:05.144Z</time></trkpt><trkpt lat="43.8500383" lon="11.6369055"><ele>971.0</ele><time>2026-04-06T13:36:06.14Z</time></trkpt><trkpt lat="43.8501383" lon="11.6367055"><ele>976.0</ele><time>2026-04-06T13:36:07.139Z</time></trkpt><trkpt lat="43.8502314" lon="11.6365183"><ele>981.0</ele><time>2026-04-06T13:36:08.151Z</time></trkpt><trkpt lat="43.8503159" lon="11.6363495"><ele>981.0</ele><time>2026-04-06T13:36:09.148Z</time></trkpt><trkpt lat="43.8503814" lon="11.636224"><ele>980.9999999999999</ele><time>2026-04-06T13:36:10.138Z</time></trkpt><trkpt lat="43.8504514" lon="11.6361085"><ele>980.9999999999999</ele><time>2026-04-06T13:36:11.152Z</time></trkpt><trkpt lat="43.8505097" lon="11.6360084"><ele>981.0</ele><time>2026-04-06T13:36:12.152Z</time></trkpt><trkpt lat="43.850575" lon="11.6359254"><ele>981.0</ele><time>2026-04-06T13:36:13.152Z</time></trkpt><trkpt lat="43.8506415" lon="11.6358515"><ele>980.6666666666666</ele><time>2026-04-06T13:36:14.152Z</time></trkpt><trkpt lat="43.8507069" lon="11.6357986"><ele>980.3333333333333</ele><time>2026-04-06T13:36:15.144Z</time></trkpt><trkpt lat="43.8507731" lon="11.6357621"><ele>980.0</ele><time>2026-04-06T13:36:16.149Z</time></trkpt><trkpt lat="43.8508469" lon="11.6357335"><ele>979.6666666666666</ele><time>2026-04-06T13:36:17.153Z</time></trkpt><trkpt lat="43.8509274" lon="11.635716"><ele>979.3333333333333</ele><time>2026-04-06T13:36:18.158Z</time></trkpt><trkpt lat="43.8510175" lon="11.6357027"><ele>979.0</ele><time>2026-04-06T13:36:19.163Z</time></trkpt><trkpt lat="43.8511191" lon="11.6356776"><ele>979.0</ele><time>2026-04-06T13:36:20.167Z</time></trkpt><trkpt lat="43.851238" lon="11.6356254"><ele>979.0</ele><time>2026-04-06T13:36:21.161Z</time></trkpt><trkpt lat="43.8513666" lon="11.6355385"><ele>979.0</ele><time>2026-04-06T13:36:22.147Z</time></trkpt><trkpt lat="43.8515042" lon="11.6354125"><ele>979.0</ele><time>2026-04-06T13:36:23.154Z</time></trkpt><trkpt lat="43.8516408" lon="11.6352492"><ele>974.5</ele><time>2026-04-06T13:36:24.138Z</time></trkpt><trkpt lat="43.851761" lon="11.6350984"><ele>970.0</ele><time>2026-04-06T13:36:25.15Z</time></trkpt><trkpt lat="43.8518536" lon="11.6349661"><ele>965.5</ele><time>2026-04-06T13:36:26.148Z</time></trkpt><trkpt lat="43.8519562" lon="11.634856"><ele>961.0</ele><time>2026-04-06T13:36:27.148Z</time></trkpt><trkpt lat="43.8520817" lon="11.6347801"><ele>961.0</ele><time>2026-04-06T13:36:28.166Z</time></trkpt><trkpt lat="43.8522248" lon="11.634757"><ele>961.0</ele><time>2026-04-06T13:36:29.148Z</time></trkpt><trkpt lat="43.8523716" lon="11.6347531"><ele>961.0</ele><time>2026-04-06T13:36:30.147Z</time></trkpt><trkpt lat="43.8525048" lon="11.6347419"><ele>961.0</ele><time>2026-04-06T13:36:31.161Z</time></trkpt><trkpt lat="43.8526429" lon="11.6347394"><ele>957.25</ele><time>2026-04-06T13:36:32.139Z</time></trkpt><trkpt lat="43.8527683" lon="11.634739"><ele>953.5</ele><time>2026-04-06T13:36:33.155Z</time></trkpt><trkpt lat="43.8528913" lon="11.6347763"><ele>949.75</ele><time>2026-04-06T13:36:34.154Z</time></trkpt><trkpt lat="43.8530062" lon="11.6348571"><ele>946.0</ele><time>2026-04-06T13:36:35.15Z</time></trkpt><trkpt lat="43.8531078" lon="11.6349815"><ele>946.0</ele><time>2026-04-06T13:36:36.147Z</time></trkpt><trkpt lat="43.8531962" lon="11.63512"><ele>945.9999999999999</ele><time>2026-04-06T13:36:37.149Z</time></trkpt><trkpt lat="43.8532704" lon="11.6352305"><ele>945.9999999999999</ele><time>2026-04-06T13:36:38.148Z</time></trkpt><trkpt lat="43.853353" lon="11.6353237"><ele>946.0</ele><time>2026-04-06T13:36:39.166Z</time></trkpt><trkpt lat="43.853445" lon="11.6353637"><ele>946.0</ele><time>2026-04-06T13:36:40.149Z</time></trkpt><trkpt lat="43.8535533" lon="11.6353893"><ele>948.25</ele><time>2026-04-06T13:36:41.148Z</time></trkpt><trkpt lat="43.8536749" lon="11.6353427"><ele>950.5</ele><time>2026-04-06T13:36:42.149Z</time></trkpt><trkpt lat="43.8537801" lon="11.6352044"><ele>952.75</ele><time>2026-04-06T13:36:43.143Z</time></trkpt><trkpt lat="43.8539011" lon="11.6350319"><ele>955.0</ele><time>2026-04-06T13:36:44.155Z</time></trkpt><trkpt lat="43.8540196" lon="11.6348283"><ele>955.0</ele><time>2026-04-06T13:36:45.142Z</time></trkpt><trkpt lat="43.8541509" lon="11.634593"><ele>955.0</ele><time>2026-04-06T13:36:46.152Z</time></trkpt><trkpt lat="43.8543031" lon="11.6343467"><ele>955.0</ele><time>2026-04-06T13:36:47.144Z</time></trkpt><trkpt lat="43.854457" lon="11.6340936"><ele>957.3333333333333</ele><time>2026-04-06T13:36:48.152Z</time></trkpt><trkpt lat="43.8546097" lon="11.6338557"><ele>959.6666666666667</ele><time>2026-04-06T13:36:49.145Z</time></trkpt><trkpt lat="43.8547489" lon="11.6336267"><ele>962.0</ele><time>2026-04-06T13:36:50.146Z</time></trkpt><trkpt lat="43.8548872" lon="11.6334119"><ele>955.6666666666667</ele><time>2026-04-06T13:36:51.156Z</time></trkpt><trkpt lat="43.8550108" lon="11.6332146"><ele>949.3333333333333</ele><time>2026-04-06T13:36:52.136Z</time></trkpt><trkpt lat="43.8551044" lon="11.6330479"><ele>943.0</ele><time>2026-04-06T13:36:53.149Z</time></trkpt><trkpt lat="43.8552094" lon="11.6329186"><ele>943.0</ele><time>2026-04-06T13:36:54.148Z</time></trkpt><trkpt lat="43.8553289" lon="11.6328352"><ele>943.0</ele><time>2026-04-06T13:36:55.151Z</time></trkpt><trkpt lat="43.8554647" lon="11.6328086"><ele>943.0</ele><time>2026-04-06T13:36:56.157Z</time></trkpt><trkpt lat="43.8556259" lon="11.6328352"><ele>943.0</ele><time>2026-04-06T13:36:57.147Z</time></trkpt><trkpt lat="43.8557993" lon="11.6328839"><ele>945.3333333333333</ele><time>2026-04-06T13:36:58.149Z</time></trkpt><trkpt lat="43.8559648" lon="11.6329047"><ele>947.6666666666667</ele><time>2026-04-06T13:36:59.146Z</time></trkpt><trkpt lat="43.8561097" lon="11.6329083"><ele>950.0</ele><time>2026-04-06T13:37:00.151Z</time></trkpt><trkpt lat="43.8562501" lon="11.6328474"><ele>944.75</ele><time>2026-04-06T13:37:01.154Z</time></trkpt><trkpt lat="43.8563538" lon="11.632724"><ele>939.5</ele><time>2026-04-06T13:37:02.151Z</time></trkpt><trkpt lat="43.8564271" lon="11.6325619"><ele>934.25</ele><time>2026-04-06T13:37:03.152Z</time></trkpt><trkpt lat="43.8564913" lon="11.6323603"><ele>929.0</ele><time>2026-04-06T13:37:04.148Z</time></trkpt><trkpt lat="43.8565636" lon="11.632145"><ele>932.3333333333334</ele><time>2026-04-06T13:37:05.161Z</time></trkpt><trkpt lat="43.8566402" lon="11.6319274"><ele>935.6666666666667</ele><time>2026-04-06T13:37:06.151Z</time></trkpt><trkpt lat="43.8567288" lon="11.6316912"><ele>939.0</ele><time>2026-04-06T13:37:07.148Z</time></trkpt><trkpt lat="43.8568109" lon="11.6314582"><ele>939.0</ele><time>2026-04-06T13:37:08.157Z</time></trkpt><trkpt lat="43.8568883" lon="11.6312384"><ele>939.0</ele><time>2026-04-06T13:37:09.141Z</time></trkpt><trkpt lat="43.8569654" lon="11.6310259"><ele>939.0</ele><time>2026-04-06T13:37:10.152Z</time></trkpt><trkpt lat="43.8570392" lon="11.6308268"><ele>935.0</ele><time>2026-04-06T13:37:11.153Z</time></trkpt><trkpt lat="43.857098" lon="11.6306159"><ele>931.0</ele><time>2026-04-06T13:37:12.143Z</time></trkpt><trkpt lat="43.8571368" lon="11.6304139"><ele>927.0</ele><time>2026-04-06T13:37:13.156Z</time></trkpt><trkpt lat="43.8571672" lon="11.630213"><ele>924.3333333333333</ele><time>2026-04-06T13:37:14.154Z</time></trkpt><trkpt lat="43.8571653" lon="11.6299818"><ele>921.6666666666666</ele><time>2026-04-06T13:37:15.151Z</time></trkpt><trkpt lat="43.8571602" lon="11.6297529"><ele>919.0</ele><time>2026-04-06T13:37:16.159Z</time></trkpt><trkpt lat="43.8571516" lon="11.6295236"><ele>919.6666666666666</ele><time>2026-04-06T13:37:17.149Z</time></trkpt><trkpt lat="43.857125" lon="11.6293079"><ele>920.3333333333333</ele><time>2026-04-06T13:37:18.159Z</time></trkpt><trkpt lat="43.8570577" lon="11.629099"><ele>921.0</ele><time>2026-04-06T13:37:19.158Z</time></trkpt><trkpt lat="43.8569635" lon="11.628932"><ele>921.0</ele><time>2026-04-06T13:37:20.146Z</time></trkpt><trkpt lat="43.856865" lon="11.6287811"><ele>921.0</ele><time>2026-04-06T13:37:21.15Z</time></trkpt><trkpt lat="43.8567747" lon="11.6286187"><ele>921.0</ele><time>2026-04-06T13:37:22.143Z</time></trkpt><trkpt lat="43.8567391" lon="11.6284506"><ele>921.0</ele><time>2026-04-06T13:37:23.145Z</time></trkpt><trkpt lat="43.8567411" lon="11.6282506"><ele>918.6666666666667</ele><time>2026-04-06T13:37:24.139Z</time></trkpt><trkpt lat="43.856769" lon="11.6280248"><ele>916.3333333333334</ele><time>2026-04-06T13:37:25.155Z</time></trkpt><trkpt lat="43.856798" lon="11.6277929"><ele>914.0</ele><time>2026-04-06T13:37:26.144Z</time></trkpt><trkpt lat="43.8568239" lon="11.6275633"><ele>914.0</ele><time>2026-04-06T13:37:27.15Z</time></trkpt><trkpt lat="43.8568531" lon="11.6273417"><ele>914.0</ele><time>2026-04-06T13:37:28.151Z</time></trkpt><trkpt lat="43.8568905" lon="11.6271122"><ele>914.0</ele><time>2026-04-06T13:37:29.152Z</time></trkpt><trkpt lat="43.8569412" lon="11.6268796"><ele>910.3333333333334</ele><time>2026-04-06T13:37:30.155Z</time></trkpt><trkpt lat="43.8570033" lon="11.6266432"><ele>906.6666666666667</ele><time>2026-04-06T13:37:31.157Z</time></trkpt><trkpt lat="43.8570744" lon="11.6264119"><ele>903.0</ele><time>2026-04-06T13:37:32.148Z</time></trkpt><trkpt lat="43.8571488" lon="11.6261947"><ele>897.6666666666667</ele><time>2026-04-06T13:37:33.144Z</time></trkpt><trkpt lat="43.8572224" lon="11.625979"><ele>892.3333333333334</ele><time>2026-04-06T13:37:34.137Z</time></trkpt><trkpt lat="43.8572917" lon="11.6257676"><ele>887.0</ele><time>2026-04-06T13:37:35.147Z</time></trkpt><trkpt lat="43.8573587" lon="11.6255611"><ele>887.0</ele><time>2026-04-06T13:37:36.17Z</time></trkpt><trkpt lat="43.8574189" lon="11.6253538"><ele>887.0</ele><time>2026-04-06T13:37:37.157Z</time></trkpt><trkpt lat="43.8574693" lon="11.625156"><ele>887.0</ele><time>2026-04-06T13:37:38.16Z</time></trkpt><trkpt lat="43.8575016" lon="11.6249523"><ele>883.75</ele><time>2026-04-06T13:37:39.144Z</time></trkpt><trkpt lat="43.8575158" lon="11.6247605"><ele>880.5</ele><time>2026-04-06T13:37:40.145Z</time></trkpt><trkpt lat="43.8575095" lon="11.6245708"><ele>877.25</ele><time>2026-04-06T13:37:41.158Z</time></trkpt><trkpt lat="43.857491" lon="11.6243818"><ele>874.0</ele><time>2026-04-06T13:37:42.163Z</time></trkpt><trkpt lat="43.857484" lon="11.6242178"><ele>872.6</ele><time>2026-04-06T13:37:43.148Z</time></trkpt><trkpt lat="43.8574995" lon="11.6240737"><ele>871.2</ele><time>2026-04-06T13:37:44.162Z</time></trkpt><trkpt lat="43.8575487" lon="11.623948"><ele>869.8000000000001</ele><time>2026-04-06T13:37:45.157Z</time></trkpt><trkpt lat="43.8576417" lon="11.6238825"><ele>868.4000000000001</ele><time>2026-04-06T13:37:46.149Z</time></trkpt><trkpt lat="43.8577535" lon="11.6238653"><ele>867.0</ele><time>2026-04-06T13:37:47.151Z</time></trkpt><trkpt lat="43.8578567" lon="11.6239164"><ele>867.0</ele><time>2026-04-06T13:37:48.154Z</time></trkpt><trkpt lat="43.8579552" lon="11.6240257"><ele>867.0</ele><time>2026-04-06T13:37:49.158Z</time></trkpt><trkpt lat="43.8580609" lon="11.6241376"><ele>867.0</ele><time>2026-04-06T13:37:50.152Z</time></trkpt><trkpt lat="43.85816" lon="11.624184"><ele>867.0</ele><time>2026-04-06T13:37:51.159Z</time></trkpt><trkpt lat="43.8582781" lon="11.6241779"><ele>867.0</ele><time>2026-04-06T13:37:52.149Z</time></trkpt><trkpt lat="43.8584314" lon="11.6241009"><ele>867.0</ele><time>2026-04-06T13:37:53.143Z</time></trkpt><trkpt lat="43.8585668" lon="11.6239936"><ele>867.0</ele><time>2026-04-06T13:37:54.142Z</time></trkpt><trkpt lat="43.8587095" lon="11.6238706"><ele>866.0</ele><time>2026-04-06T13:37:55.151Z</time></trkpt><trkpt lat="43.858873" lon="11.6237723"><ele>865.0</ele><time>2026-04-06T13:37:56.153Z</time></trkpt><trkpt lat="43.8590163" lon="11.6237022"><ele>864.0</ele><time>2026-04-06T13:37:57.152Z</time></trkpt><trkpt lat="43.859135" lon="11.6236818"><ele>864.0</ele><time>2026-04-06T13:37:58.151Z</time></trkpt><trkpt lat="43.8592394" lon="11.6236663"><ele>864.0</ele><time>2026-04-06T13:37:59.147Z</time></trkpt><trkpt lat="43.8593452" lon="11.6237393"><ele>864.0</ele><time>2026-04-06T13:38:00.158Z</time></trkpt><trkpt lat="43.8594408" lon="11.6238941"><ele>864.0</ele><time>2026-04-06T13:38:01.157Z</time></trkpt><trkpt lat="43.8595394" lon="11.6240577"><ele>863.25</ele><time>2026-04-06T13:38:02.152Z</time></trkpt><trkpt lat="43.8596337" lon="11.6242423"><ele>862.5</ele><time>2026-04-06T13:38:03.151Z</time></trkpt><trkpt lat="43.8597065" lon="11.6244217"><ele>861.75</ele><time>2026-04-06T13:38:04.155Z</time></trkpt><trkpt lat="43.8597924" lon="11.6245675"><ele>861.0</ele><time>2026-04-06T13:38:05.14Z</time></trkpt><trkpt lat="43.8599017" lon="11.6246628"><ele>861.0</ele><time>2026-04-06T13:38:06.151Z</time></trkpt><trkpt lat="43.8600224" lon="11.6247076"><ele>861.0</ele><time>2026-04-06T13:38:07.152Z</time></trkpt><trkpt lat="43.8601348" lon="11.6246862"><ele>861.0</ele><time>2026-04-06T13:38:08.135Z</time></trkpt><trkpt lat="43.8602464" lon="11.6246106"><ele>861.0</ele><time>2026-04-06T13:38:09.154Z</time></trkpt><trkpt lat="43.8603529" lon="11.6245147"><ele>854.0</ele><time>2026-04-06T13:38:10.15Z</time></trkpt><trkpt lat="43.8604637" lon="11.6244443"><ele>847.0</ele><time>2026-04-06T13:38:11.138Z</time></trkpt><trkpt lat="43.860583" lon="11.6244065"><ele>840.0</ele><time>2026-04-06T13:38:12.156Z</time></trkpt><trkpt lat="43.8607016" lon="11.6243801"><ele>833.0</ele><time>2026-04-06T13:38:13.153Z</time></trkpt><trkpt lat="43.8607994" lon="11.6243758"><ele>833.0</ele><time>2026-04-06T13:38:14.153Z</time></trkpt><trkpt lat="43.8608887" lon="11.6244015"><ele>833.0</ele><time>2026-04-06T13:38:15.144Z</time></trkpt><trkpt lat="43.8609522" lon="11.624461"><ele>833.0</ele><time>2026-04-06T13:38:16.143Z</time></trkpt><trkpt lat="43.8610216" lon="11.6245805"><ele>833.0</ele><time>2026-04-06T13:38:17.153Z</time></trkpt><trkpt lat="43.8610589" lon="11.6247193"><ele>833.0</ele><time>2026-04-06T13:38:18.147Z</time></trkpt><trkpt lat="43.8610805" lon="11.6248797"><ele>832.8</ele><time>2026-04-06T13:38:19.159Z</time></trkpt><trkpt lat="43.8610882" lon="11.6250278"><ele>832.5999999999999</ele><time>2026-04-06T13:38:20.148Z</time></trkpt><trkpt lat="43.8610973" lon="11.625176"><ele>832.4000000000001</ele><time>2026-04-06T13:38:21.157Z</time></trkpt><trkpt lat="43.861127" lon="11.6253232"><ele>832.2</ele><time>2026-04-06T13:38:22.145Z</time></trkpt><trkpt lat="43.8611789" lon="11.6254487"><ele>832.0</ele><time>2026-04-06T13:38:23.152Z</time></trkpt><trkpt lat="43.8612862" lon="11.6255702"><ele>832.0</ele><time>2026-04-06T13:38:24.16Z</time></trkpt><trkpt lat="43.8614228" lon="11.6256887"><ele>832.0</ele><time>2026-04-06T13:38:25.155Z</time></trkpt><trkpt lat="43.8616156" lon="11.6258118"><ele>832.0</ele><time>2026-04-06T13:38:26.151Z</time></trkpt><trkpt lat="43.8617882" lon="11.6259241"><ele>829.6666666666666</ele><time>2026-04-06T13:38:27.152Z</time></trkpt><trkpt lat="43.8619403" lon="11.6260287"><ele>827.3333333333333</ele><time>2026-04-06T13:38:28.152Z</time></trkpt><trkpt lat="43.8620758" lon="11.6261465"><ele>825.0</ele><time>2026-04-06T13:38:29.154Z</time></trkpt><trkpt lat="43.8621753" lon="11.6262902"><ele>825.0</ele><time>2026-04-06T13:38:30.159Z</time></trkpt><trkpt lat="43.8622251" lon="11.6264588"><ele>825.0</ele><time>2026-04-06T13:38:31.154Z</time></trkpt><trkpt lat="43.8622927" lon="11.6265885"><ele>825.0</ele><time>2026-04-06T13:38:32.151Z</time></trkpt><trkpt lat="43.8623871" lon="11.6266857"><ele>825.0</ele><time>2026-04-06T13:38:33.157Z</time></trkpt><trkpt lat="43.8625099" lon="11.6267283"><ele>829.0</ele><time>2026-04-06T13:38:34.139Z</time></trkpt><trkpt lat="43.8626202" lon="11.626712"><ele>833.0</ele><time>2026-04-06T13:38:35.141Z</time></trkpt><trkpt lat="43.8627216" lon="11.6266176"><ele>837.0</ele><time>2026-04-06T13:38:36.141Z</time></trkpt><trkpt lat="43.8628293" lon="11.6264359"><ele>841.0</ele><time>2026-04-06T13:38:37.136Z</time></trkpt><trkpt lat="43.8629101" lon="11.6262176"><ele>838.6666666666666</ele><time>2026-04-06T13:38:38.157Z</time></trkpt><trkpt lat="43.8629828" lon="11.6259786"><ele>836.3333333333333</ele><time>2026-04-06T13:38:39.153Z</time></trkpt><trkpt lat="43.8630309" lon="11.6257264"><ele>834.0</ele><time>2026-04-06T13:38:40.15Z</time></trkpt><trkpt lat="43.8630744" lon="11.6254715"><ele>829.6666666666667</ele><time>2026-04-06T13:38:41.155Z</time></trkpt><trkpt lat="43.8631121" lon="11.6252109"><ele>825.3333333333334</ele><time>2026-04-06T13:38:42.141Z</time></trkpt><trkpt lat="43.8631552" lon="11.6249618"><ele>821.0</ele><time>2026-04-06T13:38:43.168Z</time></trkpt><trkpt lat="43.8632227" lon="11.6247271"><ele>821.0</ele><time>2026-04-06T13:38:44.151Z</time></trkpt><trkpt lat="43.8633258" lon="11.6245122"><ele>821.0</ele><time>2026-04-06T13:38:45.14Z</time></trkpt><trkpt lat="43.8634446" lon="11.6243014"><ele>821.0</ele><time>2026-04-06T13:38:46.146Z</time></trkpt><trkpt lat="43.8635661" lon="11.6240804"><ele>821.3333333333334</ele><time>2026-04-06T13:38:47.154Z</time></trkpt><trkpt lat="43.8636792" lon="11.6238552"><ele>821.6666666666667</ele><time>2026-04-06T13:38:48.147Z</time></trkpt><trkpt lat="43.8637832" lon="11.6236298"><ele>822.0</ele><time>2026-04-06T13:38:49.151Z</time></trkpt><trkpt lat="43.8638868" lon="11.6234103"><ele>815.6666666666667</ele><time>2026-04-06T13:38:50.159Z</time></trkpt><trkpt lat="43.8639969" lon="11.6232079"><ele>809.3333333333334</ele><time>2026-04-06T13:38:51.146Z</time></trkpt><trkpt lat="43.8641188" lon="11.6230317"><ele>803.0</ele><time>2026-04-06T13:38:52.15Z</time></trkpt><trkpt lat="43.864259" lon="11.6228704"><ele>801.6666666666667</ele><time>2026-04-06T13:38:53.159Z</time></trkpt><trkpt lat="43.8644238" lon="11.6227017"><ele>800.3333333333333</ele><time>2026-04-06T13:38:54.154Z</time></trkpt><trkpt lat="43.8645868" lon="11.622518"><ele>799.0</ele><time>2026-04-06T13:38:55.159Z</time></trkpt><trkpt lat="43.8647572" lon="11.6223259"><ele>799.0</ele><time>2026-04-06T13:38:56.146Z</time></trkpt><trkpt lat="43.8649148" lon="11.6221139"><ele>799.0</ele><time>2026-04-06T13:38:57.152Z</time></trkpt><trkpt lat="43.8650575" lon="11.6219095"><ele>799.0</ele><time>2026-04-06T13:38:58.157Z</time></trkpt><trkpt lat="43.865189" lon="11.6217046"><ele>798.6666666666666</ele><time>2026-04-06T13:38:59.153Z</time></trkpt><trkpt lat="43.8652983" lon="11.6214798"><ele>798.3333333333333</ele><time>2026-04-06T13:39:00.153Z</time></trkpt><trkpt lat="43.8653775" lon="11.6212248"><ele>798.0</ele><time>2026-04-06T13:39:01.154Z</time></trkpt><trkpt lat="43.8654541" lon="11.6209716"><ele>794.3333333333333</ele><time>2026-04-06T13:39:02.148Z</time></trkpt><trkpt lat="43.8655448" lon="11.6207287"><ele>790.6666666666666</ele><time>2026-04-06T13:39:03.155Z</time></trkpt><trkpt lat="43.86566" lon="11.6204864"><ele>787.0</ele><time>2026-04-06T13:39:04.15Z</time></trkpt><trkpt lat="43.8657898" lon="11.6202603"><ele>785.6666666666666</ele><time>2026-04-06T13:39:05.16Z</time></trkpt><trkpt lat="43.8659067" lon="11.6200381"><ele>784.3333333333333</ele><time>2026-04-06T13:39:06.152Z</time></trkpt><trkpt lat="43.8660091" lon="11.6198143"><ele>783.0</ele><time>2026-04-06T13:39:07.157Z</time></trkpt><trkpt lat="43.866086" lon="11.6195972"><ele>780.25</ele><time>2026-04-06T13:39:08.148Z</time></trkpt><trkpt lat="43.8661506" lon="11.6193908"><ele>777.5</ele><time>2026-04-06T13:39:09.142Z</time></trkpt><trkpt lat="43.8662036" lon="11.6192033"><ele>774.75</ele><time>2026-04-06T13:39:10.154Z</time></trkpt><trkpt lat="43.8662634" lon="11.6190299"><ele>772.0</ele><time>2026-04-06T13:39:11.154Z</time></trkpt><trkpt lat="43.8663227" lon="11.618872"><ele>772.0</ele><time>2026-04-06T13:39:12.154Z</time></trkpt><trkpt lat="43.8663907" lon="11.6187203"><ele>772.0</ele><time>2026-04-06T13:39:13.156Z</time></trkpt><trkpt lat="43.8664719" lon="11.6185766"><ele>772.0</ele><time>2026-04-06T13:39:14.157Z</time></trkpt><trkpt lat="43.8665577" lon="11.6184532"><ele>772.0</ele><time>2026-04-06T13:39:15.149Z</time></trkpt><trkpt lat="43.8666433" lon="11.6183266"><ele>769.75</ele><time>2026-04-06T13:39:16.157Z</time></trkpt><trkpt lat="43.8667255" lon="11.6181961"><ele>767.5</ele><time>2026-04-06T13:39:17.157Z</time></trkpt><trkpt lat="43.8667988" lon="11.6180664"><ele>765.25</ele><time>2026-04-06T13:39:18.149Z</time></trkpt><trkpt lat="43.8668721" lon="11.6179494"><ele>763.0</ele><time>2026-04-06T13:39:19.156Z</time></trkpt><trkpt lat="43.8669447" lon="11.6178302"><ele>761.0</ele><time>2026-04-06T13:39:20.153Z</time></trkpt><trkpt lat="43.8670109" lon="11.6176993"><ele>759.0</ele><time>2026-04-06T13:39:21.158Z</time></trkpt><trkpt lat="43.8670674" lon="11.6175708"><ele>757.0</ele><time>2026-04-06T13:39:22.161Z</time></trkpt><trkpt lat="43.8671205" lon="11.6174461"><ele>755.0</ele><time>2026-04-06T13:39:23.143Z</time></trkpt><trkpt lat="43.8671831" lon="11.6173205"><ele>753.0</ele><time>2026-04-06T13:39:24.143Z</time></trkpt><trkpt lat="43.8672449" lon="11.6171786"><ele>753.0</ele><time>2026-04-06T13:39:25.151Z</time></trkpt><trkpt lat="43.8673072" lon="11.6170462"><ele>753.0</ele><time>2026-04-06T13:39:26.155Z</time></trkpt><trkpt lat="43.8673641" lon="11.6168849"><ele>753.0</ele><time>2026-04-06T13:39:27.156Z</time></trkpt><trkpt lat="43.8674157" lon="11.6167076"><ele>753.0</ele><time>2026-04-06T13:39:28.142Z</time></trkpt><trkpt lat="43.8674596" lon="11.6165195"><ele>753.5</ele><time>2026-04-06T13:39:29.156Z</time></trkpt><trkpt lat="43.8674864" lon="11.6163281"><ele>754.0</ele><time>2026-04-06T13:39:30.154Z</time></trkpt><trkpt lat="43.8674921" lon="11.6161323"><ele>754.5</ele><time>2026-04-06T13:39:31.143Z</time></trkpt><trkpt lat="43.8674841" lon="11.6159212"><ele>755.0</ele><time>2026-04-06T13:39:32.162Z</time></trkpt><trkpt lat="43.8674685" lon="11.6156997"><ele>755.0</ele><time>2026-04-06T13:39:33.143Z</time></trkpt><trkpt lat="43.8674556" lon="11.6154724"><ele>755.0</ele><time>2026-04-06T13:39:34.146Z</time></trkpt><trkpt lat="43.8674365" lon="11.6152521"><ele>755.0</ele><time>2026-04-06T13:39:35.143Z</time></trkpt><trkpt lat="43.8674039" lon="11.6150447"><ele>753.6666666666666</ele><time>2026-04-06T13:39:36.145Z</time></trkpt><trkpt lat="43.8673549" lon="11.6148245"><ele>752.3333333333334</ele><time>2026-04-06T13:39:37.161Z</time></trkpt><trkpt lat="43.8672932" lon="11.6146192"><ele>751.0</ele><time>2026-04-06T13:39:38.153Z</time></trkpt><trkpt lat="43.8672134" lon="11.6144227"><ele>748.3333333333334</ele><time>2026-04-06T13:39:39.16Z</time></trkpt><trkpt lat="43.8671124" lon="11.6142444"><ele>745.6666666666666</ele><time>2026-04-06T13:39:40.155Z</time></trkpt><trkpt lat="43.8670048" lon="11.6140878"><ele>743.0</ele><time>2026-04-06T13:39:41.157Z</time></trkpt><trkpt lat="43.8668814" lon="11.6139676"><ele>744.6666666666666</ele><time>2026-04-06T13:39:42.157Z</time></trkpt><trkpt lat="43.8667296" lon="11.6138784"><ele>746.3333333333334</ele><time>2026-04-06T13:39:43.15Z</time></trkpt><trkpt lat="43.8665718" lon="11.6138444"><ele>748.0</ele><time>2026-04-06T13:39:44.165Z</time></trkpt><trkpt lat="43.8664074" lon="11.6138681"><ele>748.0</ele><time>2026-04-06T13:39:45.159Z</time></trkpt><trkpt lat="43.8662681" lon="11.6139363"><ele>748.0</ele><time>2026-04-06T13:39:46.167Z</time></trkpt><trkpt lat="43.8661453" lon="11.614046"><ele>748.0</ele><time>2026-04-06T13:39:47.156Z</time></trkpt><trkpt lat="43.866029" lon="11.6142079"><ele>745.0</ele><time>2026-04-06T13:39:48.155Z</time></trkpt><trkpt lat="43.86594" lon="11.6144177"><ele>742.0</ele><time>2026-04-06T13:39:49.138Z</time></trkpt><trkpt lat="43.8658608" lon="11.6146573"><ele>739.0</ele><time>2026-04-06T13:39:50.143Z</time></trkpt><trkpt lat="43.8657946" lon="11.6149079"><ele>739.0</ele><time>2026-04-06T13:39:51.154Z</time></trkpt><trkpt lat="43.8657266" lon="11.6151314"><ele>739.0</ele><time>2026-04-06T13:39:52.146Z</time></trkpt><trkpt lat="43.8656718" lon="11.6153429"><ele>739.0</ele><time>2026-04-06T13:39:53.154Z</time></trkpt><trkpt lat="43.8656569" lon="11.6155829"><ele>739.3333333333334</ele><time>2026-04-06T13:39:54.148Z</time></trkpt><trkpt lat="43.8656799" lon="11.6158194"><ele>739.6666666666666</ele><time>2026-04-06T13:39:55.146Z</time></trkpt><trkpt lat="43.8657057" lon="11.6160395"><ele>740.0</ele><time>2026-04-06T13:39:56.144Z</time></trkpt><trkpt lat="43.8657226" lon="11.6162665"><ele>739.3333333333333</ele><time>2026-04-06T13:39:57.138Z</time></trkpt><trkpt lat="43.8657104" lon="11.6165123"><ele>738.6666666666666</ele><time>2026-04-06T13:39:58.155Z</time></trkpt><trkpt lat="43.8656811" lon="11.6167436"><ele>738.0</ele><time>2026-04-06T13:39:59.157Z</time></trkpt><trkpt lat="43.8656387" lon="11.6169439"><ele>739.25</ele><time>2026-04-06T13:40:00.139Z</time></trkpt><trkpt lat="43.8655925" lon="11.6171264"><ele>740.5</ele><time>2026-04-06T13:40:01.16Z</time></trkpt><trkpt lat="43.8655354" lon="11.6172715"><ele>741.75</ele><time>2026-04-06T13:40:02.142Z</time></trkpt><trkpt lat="43.865427" lon="11.6174047"><ele>743.0</ele><time>2026-04-06T13:40:03.155Z</time></trkpt><trkpt lat="43.8652794" lon="11.6175023"><ele>743.0</ele><time>2026-04-06T13:40:04.155Z</time></trkpt><trkpt lat="43.8651222" lon="11.6175907"><ele>743.0</ele><time>2026-04-06T13:40:05.155Z</time></trkpt><trkpt lat="43.86498" lon="11.6176832"><ele>743.0</ele><time>2026-04-06T13:40:06.156Z</time></trkpt><trkpt lat="43.8648422" lon="11.6177701"><ele>740.25</ele><time>2026-04-06T13:40:07.141Z</time></trkpt><trkpt lat="43.8647148" lon="11.6178615"><ele>737.5</ele><time>2026-04-06T13:40:08.15Z</time></trkpt><trkpt lat="43.8646282" lon="11.6179745"><ele>734.75</ele><time>2026-04-06T13:40:09.156Z</time></trkpt><trkpt lat="43.8645829" lon="11.6181282"><ele>732.0</ele><time>2026-04-06T13:40:10.151Z</time></trkpt><trkpt lat="43.8645791" lon="11.6183408"><ele>732.0</ele><time>2026-04-06T13:40:11.16Z</time></trkpt><trkpt lat="43.8646119" lon="11.6185254"><ele>732.0</ele><time>2026-04-06T13:40:12.148Z</time></trkpt><trkpt lat="43.8646417" lon="11.6187101"><ele>732.0</ele><time>2026-04-06T13:40:13.149Z</time></trkpt><trkpt lat="43.8646517" lon="11.6188575"><ele>732.0</ele><time>2026-04-06T13:40:14.15Z</time></trkpt><trkpt lat="43.8645975" lon="11.6190207"><ele>733.0</ele><time>2026-04-06T13:40:15.155Z</time></trkpt><trkpt lat="43.8644828" lon="11.6191946"><ele>734.0</ele><time>2026-04-06T13:40:16.133Z</time></trkpt><trkpt lat="43.8643511" lon="11.6193827"><ele>735.0</ele><time>2026-04-06T13:40:17.152Z</time></trkpt><trkpt lat="43.8641974" lon="11.6196093"><ele>729.6666666666666</ele><time>2026-04-06T13:40:18.146Z</time></trkpt><trkpt lat="43.8640502" lon="11.6198554"><ele>724.3333333333333</ele><time>2026-04-06T13:40:19.137Z</time></trkpt><trkpt lat="43.8639105" lon="11.6200753"><ele>719.0</ele><time>2026-04-06T13:40:20.145Z</time></trkpt><trkpt lat="43.8637661" lon="11.6202708"><ele>717.0</ele><time>2026-04-06T13:40:21.167Z</time></trkpt><trkpt lat="43.8636368" lon="11.6204478"><ele>715.0</ele><time>2026-04-06T13:40:22.15Z</time></trkpt><trkpt lat="43.8635259" lon="11.6206033"><ele>713.0</ele><time>2026-04-06T13:40:23.153Z</time></trkpt><trkpt lat="43.8634276" lon="11.6207256"><ele>713.0</ele><time>2026-04-06T13:40:24.139Z</time></trkpt><trkpt lat="43.8633386" lon="11.6208104"><ele>713.0</ele><time>2026-04-06T13:40:25.143Z</time></trkpt><trkpt lat="43.863238" lon="11.6208376"><ele>713.0</ele><time>2026-04-06T13:40:26.141Z</time></trkpt><trkpt lat="43.8631533" lon="11.6208085"><ele>713.0</ele><time>2026-04-06T13:40:27.137Z</time></trkpt><trkpt lat="43.8630833" lon="11.6207149"><ele>713.0</ele><time>2026-04-06T13:40:28.157Z</time></trkpt><trkpt lat="43.8630433" lon="11.6205797"><ele>713.0</ele><time>2026-04-06T13:40:29.137Z</time></trkpt><trkpt lat="43.8630695" lon="11.6204453"><ele>713.0</ele><time>2026-04-06T13:40:30.155Z</time></trkpt><trkpt lat="43.8631357" lon="11.6203134"><ele>713.0</ele><time>2026-04-06T13:40:31.143Z</time></trkpt><trkpt lat="43.8632255" lon="11.6201515"><ele>713.0</ele><time>2026-04-06T13:40:32.148Z</time></trkpt><trkpt lat="43.8633289" lon="11.619989"><ele>715.0</ele><time>2026-04-06T13:40:33.14Z</time></trkpt><trkpt lat="43.8634421" lon="11.6198174"><ele>717.0</ele><time>2026-04-06T13:40:34.152Z</time></trkpt><trkpt lat="43.8635643" lon="11.6196545"><ele>719.0</ele><time>2026-04-06T13:40:35.146Z</time></trkpt><trkpt lat="43.8636752" lon="11.6194849"><ele>714.3333333333333</ele><time>2026-04-06T13:40:36.151Z</time></trkpt><trkpt lat="43.8637557" lon="11.619292"><ele>709.6666666666666</ele><time>2026-04-06T13:40:37.149Z</time></trkpt><trkpt lat="43.8637958" lon="11.6190515"><ele>705.0</ele><time>2026-04-06T13:40:38.146Z</time></trkpt><trkpt lat="43.8638256" lon="11.6187949"><ele>703.6666666666666</ele><time>2026-04-06T13:40:39.143Z</time></trkpt><trkpt lat="43.8638432" lon="11.6185505"><ele>702.3333333333333</ele><time>2026-04-06T13:40:40.154Z</time></trkpt><trkpt lat="43.8638661" lon="11.6183299"><ele>701.0</ele><time>2026-04-06T13:40:41.137Z</time></trkpt><trkpt lat="43.86389" lon="11.618126"><ele>701.0</ele><time>2026-04-06T13:40:42.149Z</time></trkpt><trkpt lat="43.8639101" lon="11.6179359"><ele>701.0</ele><time>2026-04-06T13:40:43.155Z</time></trkpt><trkpt lat="43.8638952" lon="11.6177593"><ele>701.0</ele><time>2026-04-06T13:40:44.152Z</time></trkpt><trkpt lat="43.8638404" lon="11.617595"><ele>701.0</ele><time>2026-04-06T13:40:45.162Z</time></trkpt><trkpt lat="43.8637634" lon="11.6174572"><ele>700.25</ele><time>2026-04-06T13:40:46.139Z</time></trkpt><trkpt lat="43.8636746" lon="11.6173304"><ele>699.5</ele><time>2026-04-06T13:40:47.138Z</time></trkpt><trkpt lat="43.8635968" lon="11.6171993"><ele>698.75</ele><time>2026-04-06T13:40:48.163Z</time></trkpt><trkpt lat="43.8635438" lon="11.6170599"><ele>698.0</ele><time>2026-04-06T13:40:49.166Z</time></trkpt><trkpt lat="43.8635226" lon="11.6169239"><ele>695.5</ele><time>2026-04-06T13:40:50.149Z</time></trkpt><trkpt lat="43.8635457" lon="11.6167741"><ele>693.0</ele><time>2026-04-06T13:40:51.142Z</time></trkpt><trkpt lat="43.8636014" lon="11.6166254"><ele>690.5</ele><time>2026-04-06T13:40:52.153Z</time></trkpt><trkpt lat="43.8636769" lon="11.616442"><ele>688.0</ele><time>2026-04-06T13:40:53.154Z</time></trkpt><trkpt lat="43.8637705" lon="11.6162271"><ele>684.6666666666667</ele><time>2026-04-06T13:40:54.153Z</time></trkpt><trkpt lat="43.8638518" lon="11.6160144"><ele>681.3333333333334</ele><time>2026-04-06T13:40:55.154Z</time></trkpt><trkpt lat="43.8639079" lon="11.6157748"><ele>678.0</ele><time>2026-04-06T13:40:56.143Z</time></trkpt><trkpt lat="43.8639387" lon="11.6155307"><ele>679.3333333333334</ele><time>2026-04-06T13:40:57.165Z</time></trkpt><trkpt lat="43.8639475" lon="11.6152844"><ele>680.6666666666667</ele><time>2026-04-06T13:40:58.162Z</time></trkpt><trkpt lat="43.8639498" lon="11.6150668"><ele>682.0</ele><time>2026-04-06T13:40:59.144Z</time></trkpt><trkpt lat="43.8639372" lon="11.6148528"><ele>682.0</ele><time>2026-04-06T13:41:00.153Z</time></trkpt><trkpt lat="43.8639095" lon="11.6146462"><ele>682.0</ele><time>2026-04-06T13:41:01.154Z</time></trkpt><trkpt lat="43.8638612" lon="11.614431"><ele>682.0</ele><time>2026-04-06T13:41:02.152Z</time></trkpt><trkpt lat="43.8637681" lon="11.6142255"><ele>682.3333333333334</ele><time>2026-04-06T13:41:03.154Z</time></trkpt><trkpt lat="43.8636699" lon="11.6140362"><ele>682.6666666666666</ele><time>2026-04-06T13:41:04.143Z</time></trkpt><trkpt lat="43.8635797" lon="11.6138496"><ele>683.0</ele><time>2026-04-06T13:41:05.163Z</time></trkpt><trkpt lat="43.863496" lon="11.6136663"><ele>673.3333333333333</ele><time>2026-04-06T13:41:06.147Z</time></trkpt><trkpt lat="43.8634302" lon="11.6134679"><ele>663.6666666666666</ele><time>2026-04-06T13:41:07.152Z</time></trkpt><trkpt lat="43.8634061" lon="11.613261"><ele>654.0</ele><time>2026-04-06T13:41:08.165Z</time></trkpt><trkpt lat="43.8634024" lon="11.6130232"><ele>652.6666666666666</ele><time>2026-04-06T13:41:09.163Z</time></trkpt><trkpt lat="43.8634221" lon="11.6127615"><ele>651.3333333333333</ele><time>2026-04-06T13:41:10.157Z</time></trkpt><trkpt lat="43.8634358" lon="11.6125077"><ele>650.0</ele><time>2026-04-06T13:41:11.169Z</time></trkpt><trkpt lat="43.8634438" lon="11.6122624"><ele>655.6666666666666</ele><time>2026-04-06T13:41:12.162Z</time></trkpt><trkpt lat="43.8634557" lon="11.612023"><ele>661.3333333333334</ele><time>2026-04-06T13:41:13.156Z</time></trkpt><trkpt lat="43.863473" lon="11.6117868"><ele>667.0</ele><time>2026-04-06T13:41:14.15Z</time></trkpt><trkpt lat="43.8635219" lon="11.6115536"><ele>667.0</ele><time>2026-04-06T13:41:15.158Z</time></trkpt><trkpt lat="43.8635995" lon="11.6112981"><ele>667.0</ele><time>2026-04-06T13:41:16.142Z</time></trkpt><trkpt lat="43.8636806" lon="11.6110299"><ele>667.0</ele><time>2026-04-06T13:41:17.145Z</time></trkpt><trkpt lat="43.8637595" lon="11.610758"><ele>663.6666666666667</ele><time>2026-04-06T13:41:18.151Z</time></trkpt><trkpt lat="43.8638215" lon="11.6104969"><ele>660.3333333333334</ele><time>2026-04-06T13:41:19.154Z</time></trkpt><trkpt lat="43.863891" lon="11.6102336"><ele>657.0</ele><time>2026-04-06T13:41:20.151Z</time></trkpt><trkpt lat="43.8639354" lon="11.6099717"><ele>653.0</ele><time>2026-04-06T13:41:21.156Z</time></trkpt><trkpt lat="43.863971" lon="11.6097176"><ele>649.0</ele><time>2026-04-06T13:41:22.152Z</time></trkpt><trkpt lat="43.8640106" lon="11.6094679"><ele>645.0</ele><time>2026-04-06T13:41:23.151Z</time></trkpt><trkpt lat="43.8640499" lon="11.609233"><ele>641.6666666666666</ele><time>2026-04-06T13:41:24.153Z</time></trkpt><trkpt lat="43.8641039" lon="11.6089925"><ele>638.3333333333333</ele><time>2026-04-06T13:41:25.16Z</time></trkpt><trkpt lat="43.8641813" lon="11.6087355"><ele>635.0</ele><time>2026-04-06T13:41:26.14Z</time></trkpt><trkpt lat="43.864277" lon="11.6084744"><ele>636.0</ele><time>2026-04-06T13:41:27.154Z</time></trkpt><trkpt lat="43.8643864" lon="11.6082184"><ele>637.0</ele><time>2026-04-06T13:41:28.155Z</time></trkpt><trkpt lat="43.8645107" lon="11.6079663"><ele>638.0</ele><time>2026-04-06T13:41:29.16Z</time></trkpt><trkpt lat="43.8646286" lon="11.60772"><ele>634.0</ele><time>2026-04-06T13:41:30.153Z</time></trkpt><trkpt lat="43.8647406" lon="11.6074814"><ele>630.0</ele><time>2026-04-06T13:41:31.157Z</time></trkpt><trkpt lat="43.8648445" lon="11.6072748"><ele>626.0</ele><time>2026-04-06T13:41:32.155Z</time></trkpt><trkpt lat="43.8649397" lon="11.607106"><ele>622.0</ele><time>2026-04-06T13:41:33.141Z</time></trkpt><trkpt lat="43.8650518" lon="11.6069677"><ele>618.0</ele><time>2026-04-06T13:41:34.156Z</time></trkpt><trkpt lat="43.8651742" lon="11.6068768"><ele>614.0</ele><time>2026-04-06T13:41:35.15Z</time></trkpt><trkpt lat="43.8653087" lon="11.6067985"><ele>610.0</ele><time>2026-04-06T13:41:36.158Z</time></trkpt><trkpt lat="43.8654268" lon="11.6067284"><ele>607.8</ele><time>2026-04-06T13:41:37.141Z</time></trkpt><trkpt lat="43.86551" lon="11.6066503"><ele>605.6</ele><time>2026-04-06T13:41:38.148Z</time></trkpt><trkpt lat="43.8655492" lon="11.6065149"><ele>603.4</ele><time>2026-04-06T13:41:39.159Z</time></trkpt><trkpt lat="43.865559" lon="11.606392"><ele>601.2</ele><time>2026-04-06T13:41:40.156Z</time></trkpt><trkpt lat="43.8655244" lon="11.606285"><ele>599.0</ele><time>2026-04-06T13:41:41.143Z</time></trkpt><trkpt lat="43.8654525" lon="11.6062025"><ele>599.0</ele><time>2026-04-06T13:41:42.163Z</time></trkpt><trkpt lat="43.8653522" lon="11.6061489"><ele>599.0</ele><time>2026-04-06T13:41:43.162Z</time></trkpt><trkpt lat="43.8652417" lon="11.6061837"><ele>599.0</ele><time>2026-04-06T13:41:44.16Z</time></trkpt><trkpt lat="43.8651473" lon="11.6062673"><ele>599.0</ele><time>2026-04-06T13:41:45.152Z</time></trkpt><trkpt lat="43.8650503" lon="11.6063694"><ele>601.2</ele><time>2026-04-06T13:41:46.155Z</time></trkpt><trkpt lat="43.8649464" lon="11.6064792"><ele>603.4</ele><time>2026-04-06T13:41:47.159Z</time></trkpt><trkpt lat="43.8648471" lon="11.606575"><ele>605.6</ele><time>2026-04-06T13:41:48.15Z</time></trkpt><trkpt lat="43.8647619" lon="11.6066461"><ele>607.8</ele><time>2026-04-06T13:41:49.161Z</time></trkpt><trkpt lat="43.8646917" lon="11.6067083"><ele>610.0</ele><time>2026-04-06T13:41:50.165Z</time></trkpt><trkpt lat="43.8646305" lon="11.6067602"><ele>610.0</ele><time>2026-04-06T13:41:51.154Z</time></trkpt><trkpt lat="43.864562" lon="11.6068184"><ele>610.0</ele><time>2026-04-06T13:41:53.151Z</time></trkpt><trkpt lat="43.8645007" lon="11.6067961"><ele>610.0</ele><time>2026-04-06T13:42:10.151Z</time></trkpt><trkpt lat="43.8644819" lon="11.6068796"><ele>610.0</ele><time>2026-04-06T13:43:27.149Z</time></trkpt><trkpt lat="43.8645118" lon="11.6067955"><ele>610.0</ele><time>2026-04-06T13:43:32.165Z</time></trkpt><trkpt lat="43.8645622" lon="11.6066248"><ele>610.0</ele><time>2026-04-06T13:43:58.155Z</time></trkpt><trkpt lat="43.8646099" lon="11.6064999"><ele>610.0</ele><time>2026-04-06T13:43:59.163Z</time></trkpt><trkpt lat="43.8646608" lon="11.6063782"><ele>610.0</ele><time>2026-04-06T13:44:00.155Z</time></trkpt><trkpt lat="43.8647061" lon="11.6062547"><ele>610.0</ele><time>2026-04-06T13:44:01.155Z</time></trkpt><trkpt lat="43.8647529" lon="11.6061349"><ele>610.0</ele><time>2026-04-06T13:44:02.146Z</time></trkpt><trkpt lat="43.864787" lon="11.6060091"><ele>610.0</ele><time>2026-04-06T13:44:03.159Z</time></trkpt><trkpt lat="43.8648184" lon="11.6058787"><ele>607.4</ele><time>2026-04-06T13:44:04.157Z</time></trkpt><trkpt lat="43.8648484" lon="11.6057423"><ele>604.8</ele><time>2026-04-06T13:44:05.156Z</time></trkpt><trkpt lat="43.8648798" lon="11.6056092"><ele>602.2</ele><time>2026-04-06T13:44:06.155Z</time></trkpt><trkpt lat="43.8649058" lon="11.6054776"><ele>599.6</ele><time>2026-04-06T13:44:07.153Z</time></trkpt><trkpt lat="43.8649305" lon="11.6053431"><ele>597.0</ele><time>2026-04-06T13:44:08.16Z</time></trkpt><trkpt lat="43.8649567" lon="11.6052179"><ele>595.0</ele><time>2026-04-06T13:44:09.151Z</time></trkpt><trkpt lat="43.8649822" lon="11.6050957"><ele>593.0</ele><time>2026-04-06T13:44:10.161Z</time></trkpt><trkpt lat="43.8650077" lon="11.6049712"><ele>591.0</ele><time>2026-04-06T13:44:11.161Z</time></trkpt><trkpt lat="43.8650311" lon="11.6048506"><ele>589.0</ele><time>2026-04-06T13:44:12.155Z</time></trkpt><trkpt lat="43.8650525" lon="11.6047374"><ele>587.0</ele><time>2026-04-06T13:44:13.151Z</time></trkpt><trkpt lat="43.8650697" lon="11.6046217"><ele>585.0</ele><time>2026-04-06T13:44:14.16Z</time></trkpt><trkpt lat="43.8650675" lon="11.6045186"><ele>583.1666666666666</ele><time>2026-04-06T13:44:15.162Z</time></trkpt><trkpt lat="43.865043" lon="11.604404"><ele>581.3333333333334</ele><time>2026-04-06T13:44:16.153Z</time></trkpt><trkpt lat="43.8650246" lon="11.6043077"><ele>579.5</ele><time>2026-04-06T13:44:17.163Z</time></trkpt><trkpt lat="43.8650572" lon="11.6041631"><ele>577.6666666666667</ele><time>2026-04-06T13:44:19.157Z</time></trkpt><trkpt lat="43.8651215" lon="11.604153"><ele>575.8333333333334</ele><time>2026-04-06T13:44:20.157Z</time></trkpt><trkpt lat="43.8652201" lon="11.6041912"><ele>574.0</ele><time>2026-04-06T13:44:21.153Z</time></trkpt><trkpt lat="43.865307" lon="11.6042699"><ele>574.2</ele><time>2026-04-06T13:44:22.162Z</time></trkpt><trkpt lat="43.8653992" lon="11.6043531"><ele>574.4</ele><time>2026-04-06T13:44:23.169Z</time></trkpt><trkpt lat="43.8654833" lon="11.6044331"><ele>574.6</ele><time>2026-04-06T13:44:24.149Z</time></trkpt><trkpt lat="43.8655693" lon="11.6045218"><ele>574.8</ele><time>2026-04-06T13:44:25.153Z</time></trkpt><trkpt lat="43.8656467" lon="11.6046112"><ele>575.0</ele><time>2026-04-06T13:44:26.163Z</time></trkpt><trkpt lat="43.8657207" lon="11.6047165"><ele>575.0</ele><time>2026-04-06T13:44:27.139Z</time></trkpt><trkpt lat="43.865792" lon="11.6048178"><ele>575.0</ele><time>2026-04-06T13:44:28.149Z</time></trkpt><trkpt lat="43.8658536" lon="11.6049214"><ele>575.0</ele><time>2026-04-06T13:44:29.154Z</time></trkpt><trkpt lat="43.8659103" lon="11.6050339"><ele>575.0</ele><time>2026-04-06T13:44:30.159Z</time></trkpt><trkpt lat="43.8659657" lon="11.6051501"><ele>575.0</ele><time>2026-04-06T13:44:31.154Z</time></trkpt><trkpt lat="43.8660102" lon="11.6052635"><ele>569.4</ele><time>2026-04-06T13:44:32.162Z</time></trkpt><trkpt lat="43.866043" lon="11.6053868"><ele>563.8</ele><time>2026-04-06T13:44:33.155Z</time></trkpt><trkpt lat="43.8660668" lon="11.6055077"><ele>558.2</ele><time>2026-04-06T13:44:34.141Z</time></trkpt><trkpt lat="43.8660865" lon="11.6056467"><ele>552.6</ele><time>2026-04-06T13:44:35.147Z</time></trkpt><trkpt lat="43.8661114" lon="11.6057923"><ele>547.0</ele><time>2026-04-06T13:44:36.149Z</time></trkpt><trkpt lat="43.8661378" lon="11.6059376"><ele>547.0</ele><time>2026-04-06T13:44:37.158Z</time></trkpt><trkpt lat="43.8661809" lon="11.6060679"><ele>547.0</ele><time>2026-04-06T13:44:38.154Z</time></trkpt><trkpt lat="43.8662457" lon="11.6061611"><ele>547.0</ele><time>2026-04-06T13:44:39.162Z</time></trkpt><trkpt lat="43.8663451" lon="11.606215"><ele>547.0</ele><time>2026-04-06T13:44:40.155Z</time></trkpt><trkpt lat="43.8664343" lon="11.606257"><ele>547.0</ele><time>2026-04-06T13:44:41.147Z</time></trkpt><trkpt lat="43.8665365" lon="11.6062626"><ele>549.75</ele><time>2026-04-06T13:44:42.144Z</time></trkpt><trkpt lat="43.8666732" lon="11.606272"><ele>552.5</ele><time>2026-04-06T13:44:43.14Z</time></trkpt><trkpt lat="43.8668008" lon="11.6062796"><ele>555.25</ele><time>2026-04-06T13:44:44.14Z</time></trkpt><trkpt lat="43.8669368" lon="11.6063103"><ele>558.0</ele><time>2026-04-06T13:44:45.16Z</time></trkpt><trkpt lat="43.8670544" lon="11.6063312"><ele>558.0</ele><time>2026-04-06T13:44:46.149Z</time></trkpt><trkpt lat="43.8671696" lon="11.6063464"><ele>558.0</ele><time>2026-04-06T13:44:47.151Z</time></trkpt><trkpt lat="43.8672805" lon="11.6063641"><ele>558.0</ele><time>2026-04-06T13:44:48.155Z</time></trkpt><trkpt lat="43.8673841" lon="11.6063798"><ele>558.0</ele><time>2026-04-06T13:44:49.156Z</time></trkpt><trkpt lat="43.8674797" lon="11.6063988"><ele>558.0</ele><time>2026-04-06T13:44:50.143Z</time></trkpt><trkpt lat="43.8675861" lon="11.6064181"><ele>556.0</ele><time>2026-04-06T13:44:51.167Z</time></trkpt><trkpt lat="43.8677034" lon="11.6064313"><ele>554.0</ele><time>2026-04-06T13:44:52.151Z</time></trkpt><trkpt lat="43.8678353" lon="11.6064375"><ele>552.0</ele><time>2026-04-06T13:44:53.156Z</time></trkpt><trkpt lat="43.8679703" lon="11.6064364"><ele>550.0</ele><time>2026-04-06T13:44:54.16Z</time></trkpt><trkpt lat="43.8681019" lon="11.6064383"><ele>550.0</ele><time>2026-04-06T13:44:55.155Z</time></trkpt><trkpt lat="43.8682277" lon="11.6064471"><ele>550.0</ele><time>2026-04-06T13:44:56.157Z</time></trkpt><trkpt lat="43.8683482" lon="11.6064721"><ele>550.0</ele><time>2026-04-06T13:44:57.142Z</time></trkpt><trkpt lat="43.8684625" lon="11.606497"><ele>550.0</ele><time>2026-04-06T13:44:58.156Z</time></trkpt><trkpt lat="43.8685639" lon="11.6065129"><ele>548.8</ele><time>2026-04-06T13:44:59.145Z</time></trkpt><trkpt lat="43.8686646" lon="11.6065103"><ele>547.6</ele><time>2026-04-06T13:45:00.153Z</time></trkpt><trkpt lat="43.8687614" lon="11.6064987"><ele>546.4</ele><time>2026-04-06T13:45:01.151Z</time></trkpt><trkpt lat="43.8688612" lon="11.6064779"><ele>545.2</ele><time>2026-04-06T13:45:02.146Z</time></trkpt><trkpt lat="43.8689602" lon="11.6064502"><ele>544.0</ele><time>2026-04-06T13:45:03.161Z</time></trkpt><trkpt lat="43.8690588" lon="11.6064295"><ele>544.0</ele><time>2026-04-06T13:45:04.158Z</time></trkpt><trkpt lat="43.8691575" lon="11.6064308"><ele>544.0</ele><time>2026-04-06T13:45:05.169Z</time></trkpt><trkpt lat="43.8692567" lon="11.6064519"><ele>544.0</ele><time>2026-04-06T13:45:06.146Z</time></trkpt><trkpt lat="43.8693562" lon="11.6064673"><ele>544.0</ele><time>2026-04-06T13:45:07.155Z</time></trkpt><trkpt lat="43.8694567" lon="11.6064896"><ele>544.0</ele><time>2026-04-06T13:45:08.159Z</time></trkpt><trkpt lat="43.8695503" lon="11.6064963"><ele>542.8571428571428</ele><time>2026-04-06T13:45:09.151Z</time></trkpt><trkpt lat="43.8696339" lon="11.6064989"><ele>541.7142857142857</ele><time>2026-04-06T13:45:10.159Z</time></trkpt><trkpt lat="43.869712" lon="11.6065056"><ele>540.5714285714286</ele><time>2026-04-06T13:45:11.153Z</time></trkpt><trkpt lat="43.8697866" lon="11.6065041"><ele>539.4285714285713</ele><time>2026-04-06T13:45:12.157Z</time></trkpt><trkpt lat="43.8698546" lon="11.606506"><ele>538.2857142857142</ele><time>2026-04-06T13:45:13.15Z</time></trkpt><trkpt lat="43.8699237" lon="11.6065055"><ele>537.1428571428571</ele><time>2026-04-06T13:45:14.159Z</time></trkpt><trkpt lat="43.8699992" lon="11.6065164"><ele>536.0</ele><time>2026-04-06T13:45:15.151Z</time></trkpt><trkpt lat="43.8700863" lon="11.6065691"><ele>531.6</ele><time>2026-04-06T13:45:16.152Z</time></trkpt><trkpt lat="43.8701818" lon="11.6066646"><ele>527.2</ele><time>2026-04-06T13:45:17.152Z</time></trkpt><trkpt lat="43.8702767" lon="11.606746"><ele>522.8</ele><time>2026-04-06T13:45:18.161Z</time></trkpt><trkpt lat="43.8703426" lon="11.606831"><ele>518.4</ele><time>2026-04-06T13:45:19.157Z</time></trkpt><trkpt lat="43.870396" lon="11.6068862"><ele>514.0</ele><time>2026-04-06T13:45:20.156Z</time></trkpt><trkpt lat="43.870491" lon="11.6069546"><ele>514.0</ele><time>2026-04-06T13:45:22.146Z</time></trkpt><trkpt lat="43.8705467" lon="11.6069056"><ele>514.0</ele><time>2026-04-06T13:45:23.161Z</time></trkpt><trkpt lat="43.8705507" lon="11.606748"><ele>514.0</ele><time>2026-04-06T13:45:25.156Z</time></trkpt><trkpt lat="43.8704995" lon="11.6066486"><ele>514.0</ele><time>2026-04-06T13:45:26.163Z</time></trkpt><trkpt lat="43.8704379" lon="11.6065562"><ele>514.0</ele><time>2026-04-06T13:45:27.152Z</time></trkpt><trkpt lat="43.8703732" lon="11.6064495"><ele>514.0</ele><time>2026-04-06T13:45:28.161Z</time></trkpt><trkpt lat="43.8703114" lon="11.6063264"><ele>514.0</ele><time>2026-04-06T13:45:29.155Z</time></trkpt><trkpt lat="43.8702477" lon="11.6062009"><ele>514.0</ele><time>2026-04-06T13:45:30.145Z</time></trkpt><trkpt lat="43.8701822" lon="11.6060773"><ele>514.0</ele><time>2026-04-06T13:45:31.154Z</time></trkpt><trkpt lat="43.8701182" lon="11.605968"><ele>514.0</ele><time>2026-04-06T13:45:32.155Z</time></trkpt><trkpt lat="43.8700572" lon="11.6058528"><ele>513.0</ele><time>2026-04-06T13:45:33.168Z</time></trkpt><trkpt lat="43.8700048" lon="11.6057306"><ele>512.0</ele><time>2026-04-06T13:45:34.161Z</time></trkpt><trkpt lat="43.8699541" lon="11.605609"><ele>511.0</ele><time>2026-04-06T13:45:35.156Z</time></trkpt><trkpt lat="43.8699021" lon="11.6054887"><ele>510.0</ele><time>2026-04-06T13:45:36.151Z</time></trkpt><trkpt lat="43.869861" lon="11.6053647"><ele>509.0</ele><time>2026-04-06T13:45:37.16Z</time></trkpt><trkpt lat="43.8698286" lon="11.6052397"><ele>508.99999999999994</ele><time>2026-04-06T13:45:38.141Z</time></trkpt><trkpt lat="43.8697982" lon="11.605119"><ele>509.0</ele><time>2026-04-06T13:45:39.154Z</time></trkpt><trkpt lat="43.8697711" lon="11.6050096"><ele>509.0</ele><time>2026-04-06T13:45:40.158Z</time></trkpt><trkpt lat="43.8697493" lon="11.6049148"><ele>509.0</ele><time>2026-04-06T13:45:41.155Z</time></trkpt><trkpt lat="43.8697126" lon="11.6047697"><ele>508.99999999999994</ele><time>2026-04-06T13:45:43.158Z</time></trkpt><trkpt lat="43.8696623" lon="11.6046688"><ele>509.0</ele><time>2026-04-06T13:45:45.162Z</time></trkpt><trkpt lat="43.8696013" lon="11.6046011"><ele>509.0</ele><time>2026-04-06T13:45:47.158Z</time></trkpt><trkpt lat="43.8695077" lon="11.6045556"><ele>509.0</ele><time>2026-04-06T13:45:49.147Z</time></trkpt><trkpt lat="43.869436" lon="11.6045222"><ele>509.0</ele><time>2026-04-06T13:45:50.153Z</time></trkpt><trkpt lat="43.8693507" lon="11.6044772"><ele>509.0</ele><time>2026-04-06T13:45:51.149Z</time></trkpt><trkpt lat="43.8692619" lon="11.604416"><ele>509.0</ele><time>2026-04-06T13:45:52.145Z</time></trkpt><trkpt lat="43.8691712" lon="11.6043525"><ele>507.0</ele><time>2026-04-06T13:45:53.152Z</time></trkpt><trkpt lat="43.8690806" lon="11.6042882"><ele>505.0</ele><time>2026-04-06T13:45:54.156Z</time></trkpt><trkpt lat="43.868988" lon="11.604223"><ele>503.0</ele><time>2026-04-06T13:45:55.15Z</time></trkpt><trkpt lat="43.8688939" lon="11.604157"><ele>501.0</ele><time>2026-04-06T13:45:56.152Z</time></trkpt><trkpt lat="43.8688169" lon="11.6041101"><ele>499.0</ele><time>2026-04-06T13:45:57.152Z</time></trkpt><trkpt lat="43.8687293" lon="11.6040853"><ele>499.0</ele><time>2026-04-06T13:45:58.151Z</time></trkpt><trkpt lat="43.8686279" lon="11.6041007"><ele>499.0</ele><time>2026-04-06T13:45:59.168Z</time></trkpt><trkpt lat="43.868521" lon="11.6041533"><ele>499.0</ele><time>2026-04-06T13:46:00.145Z</time></trkpt><trkpt lat="43.8684135" lon="11.6042007"><ele>499.0</ele><time>2026-04-06T13:46:01.149Z</time></trkpt><trkpt lat="43.8683132" lon="11.6042504"><ele>499.0</ele><time>2026-04-06T13:46:02.155Z</time></trkpt><trkpt lat="43.8682122" lon="11.6042844"><ele>497.50000000000006</ele><time>2026-04-06T13:46:03.142Z</time></trkpt><trkpt lat="43.8681272" lon="11.6043206"><ele>496.0</ele><time>2026-04-06T13:46:04.155Z</time></trkpt><trkpt lat="43.8680464" lon="11.604349"><ele>494.5</ele><time>2026-04-06T13:46:05.161Z</time></trkpt><trkpt lat="43.8679679" lon="11.6043141"><ele>493.0</ele><time>2026-04-06T13:46:06.143Z</time></trkpt><trkpt lat="43.8679006" lon="11.604239"><ele>491.50000000000006</ele><time>2026-04-06T13:46:07.142Z</time></trkpt><trkpt lat="43.8678444" lon="11.6041803"><ele>490.0</ele><time>2026-04-06T13:46:08.143Z</time></trkpt><trkpt lat="43.8677928" lon="11.604123"><ele>490.00000000000006</ele><time>2026-04-06T13:46:09.148Z</time></trkpt><trkpt lat="43.8677368" lon="11.6040777"><ele>490.0</ele><time>2026-04-06T13:46:10.151Z</time></trkpt><trkpt lat="43.867654" lon="11.6040193"><ele>490.0</ele><time>2026-04-06T13:46:12.161Z</time></trkpt><trkpt lat="43.867624" lon="11.6039282"><ele>490.0</ele><time>2026-04-06T13:46:16.135Z</time></trkpt><trkpt lat="43.8676511" lon="11.6038076"><ele>490.00000000000006</ele><time>2026-04-06T13:46:19.147Z</time></trkpt><trkpt lat="43.8677294" lon="11.6037721"><ele>490.0</ele><time>2026-04-06T13:46:21.16Z</time></trkpt><trkpt lat="43.8678345" lon="11.6038202"><ele>490.0</ele><time>2026-04-06T13:46:23.151Z</time></trkpt><trkpt lat="43.8679019" lon="11.6038408"><ele>490.0</ele><time>2026-04-06T13:46:24.137Z</time></trkpt><trkpt lat="43.8679652" lon="11.603866"><ele>490.0</ele><time>2026-04-06T13:46:25.15Z</time></trkpt><trkpt lat="43.8680337" lon="11.603888"><ele>490.0</ele><time>2026-04-06T13:46:26.139Z</time></trkpt><trkpt lat="43.8680988" lon="11.6038766"><ele>490.0</ele><time>2026-04-06T13:46:27.153Z</time></trkpt><trkpt lat="43.8681636" lon="11.6038318"><ele>490.0</ele><time>2026-04-06T13:46:28.159Z</time></trkpt><trkpt lat="43.8682373" lon="11.6037446"><ele>490.0</ele><time>2026-04-06T13:46:29.158Z</time></trkpt><trkpt lat="43.8683064" lon="11.6036334"><ele>487.8</ele><time>2026-04-06T13:46:30.151Z</time></trkpt><trkpt lat="43.8683715" lon="11.603525"><ele>485.6</ele><time>2026-04-06T13:46:31.162Z</time></trkpt><trkpt lat="43.8684412" lon="11.6034291"><ele>483.4</ele><time>2026-04-06T13:46:32.138Z</time></trkpt><trkpt lat="43.868517" lon="11.6033429"><ele>481.2</ele><time>2026-04-06T13:46:33.162Z</time></trkpt><trkpt lat="43.8685921" lon="11.6032754"><ele>479.0</ele><time>2026-04-06T13:46:34.14Z</time></trkpt><trkpt lat="43.8686654" lon="11.6032033"><ele>479.0</ele><time>2026-04-06T13:46:35.145Z</time></trkpt><trkpt lat="43.8687373" lon="11.6031339"><ele>479.0</ele><time>2026-04-06T13:46:36.153Z</time></trkpt><trkpt lat="43.8688105" lon="11.6030465"><ele>479.0</ele><time>2026-04-06T13:46:37.153Z</time></trkpt><trkpt lat="43.8688801" lon="11.6029469"><ele>479.0</ele><time>2026-04-06T13:46:38.153Z</time></trkpt><trkpt lat="43.8689422" lon="11.602852"><ele>479.0</ele><time>2026-04-06T13:46:39.148Z</time></trkpt><trkpt lat="43.8689993" lon="11.6027528"><ele>475.4</ele><time>2026-04-06T13:46:40.151Z</time></trkpt><trkpt lat="43.8690589" lon="11.602651"><ele>471.79999999999995</ele><time>2026-04-06T13:46:41.155Z</time></trkpt><trkpt lat="43.8691151" lon="11.6025564"><ele>468.20000000000005</ele><time>2026-04-06T13:46:42.135Z</time></trkpt><trkpt lat="43.8691738" lon="11.6024663"><ele>464.6</ele><time>2026-04-06T13:46:43.166Z</time></trkpt><trkpt lat="43.8692317" lon="11.6023695"><ele>461.0</ele><time>2026-04-06T13:46:44.152Z</time></trkpt><trkpt lat="43.869293" lon="11.602275"><ele>460.8</ele><time>2026-04-06T13:46:45.144Z</time></trkpt><trkpt lat="43.8693551" lon="11.6021947"><ele>460.6</ele><time>2026-04-06T13:46:46.152Z</time></trkpt><trkpt lat="43.8694368" lon="11.6021491"><ele>460.4</ele><time>2026-04-06T13:46:47.139Z</time></trkpt><trkpt lat="43.8695288" lon="11.6021614"><ele>460.2</ele><time>2026-04-06T13:46:48.155Z</time></trkpt><trkpt lat="43.8696223" lon="11.6022049"><ele>460.0</ele><time>2026-04-06T13:46:49.155Z</time></trkpt><trkpt lat="43.8697078" lon="11.6022456"><ele>460.00000000000006</ele><time>2026-04-06T13:46:50.156Z</time></trkpt><trkpt lat="43.8698009" lon="11.6022843"><ele>460.0</ele><time>2026-04-06T13:46:51.154Z</time></trkpt><trkpt lat="43.8698869" lon="11.6023189"><ele>460.0</ele><time>2026-04-06T13:46:52.152Z</time></trkpt><trkpt lat="43.8699594" lon="11.6023454"><ele>460.0</ele><time>2026-04-06T13:46:53.151Z</time></trkpt><trkpt lat="43.8700229" lon="11.6023153"><ele>460.00000000000006</ele><time>2026-04-06T13:46:54.15Z</time></trkpt><trkpt lat="43.8700212" lon="11.6022107"><ele>460.0</ele><time>2026-04-06T13:46:56.149Z</time></trkpt><trkpt lat="43.8699296" lon="11.6021211"><ele>460.00000000000006</ele><time>2026-04-06T13:46:58.154Z</time></trkpt><trkpt lat="43.8698585" lon="11.6020803"><ele>460.0</ele><time>2026-04-06T13:46:59.146Z</time></trkpt><trkpt lat="43.869789" lon="11.602037"><ele>460.0</ele><time>2026-04-06T13:47:00.139Z</time></trkpt><trkpt lat="43.8697209" lon="11.6019883"><ele>460.0</ele><time>2026-04-06T13:47:01.155Z</time></trkpt><trkpt lat="43.8696686" lon="11.6019072"><ele>460.00000000000006</ele><time>2026-04-06T13:47:02.154Z</time></trkpt><trkpt lat="43.8696323" lon="11.6017777"><ele>460.0</ele><time>2026-04-06T13:47:03.148Z</time></trkpt><trkpt lat="43.8695929" lon="11.6016436"><ele>455.0</ele><time>2026-04-06T13:47:04.151Z</time></trkpt><trkpt lat="43.8695477" lon="11.6015104"><ele>450.0</ele><time>2026-04-06T13:47:05.148Z</time></trkpt><trkpt lat="43.8694994" lon="11.6013623"><ele>445.0</ele><time>2026-04-06T13:47:06.152Z</time></trkpt><trkpt lat="43.8694491" lon="11.601223"><ele>440.0</ele><time>2026-04-06T13:47:07.162Z</time></trkpt><trkpt lat="43.8694012" lon="11.6010779"><ele>439.0</ele><time>2026-04-06T13:47:08.149Z</time></trkpt><trkpt lat="43.8693542" lon="11.6009531"><ele>438.0</ele><time>2026-04-06T13:47:09.159Z</time></trkpt><trkpt lat="43.8693173" lon="11.6008495"><ele>437.0</ele><time>2026-04-06T13:47:10.144Z</time></trkpt><trkpt lat="43.8692887" lon="11.6007611"><ele>436.0</ele><time>2026-04-06T13:47:11.155Z</time></trkpt><trkpt lat="43.8693388" lon="11.6006562"><ele>435.0</ele><time>2026-04-06T13:47:13.163Z</time></trkpt><trkpt lat="43.8694498" lon="11.6007094"><ele>435.0</ele><time>2026-04-06T13:47:15.152Z</time></trkpt><trkpt lat="43.869495" lon="11.6007821"><ele>435.0</ele><time>2026-04-06T13:47:16.165Z</time></trkpt><trkpt lat="43.8695265" lon="11.6008872"><ele>435.0</ele><time>2026-04-06T13:47:17.167Z</time></trkpt><trkpt lat="43.8695736" lon="11.6010034"><ele>435.0</ele><time>2026-04-06T13:47:18.148Z</time></trkpt><trkpt lat="43.8696299" lon="11.6011169"><ele>435.0</ele><time>2026-04-06T13:47:19.147Z</time></trkpt><trkpt lat="43.8696935" lon="11.6012288"><ele>435.0</ele><time>2026-04-06T13:47:20.155Z</time></trkpt><trkpt lat="43.8697458" lon="11.6013158"><ele>435.0</ele><time>2026-04-06T13:47:21.163Z</time></trkpt><trkpt lat="43.8698166" lon="11.6013763"><ele>435.0</ele><time>2026-04-06T13:47:23.155Z</time></trkpt><trkpt lat="43.8698494" lon="11.601257"><ele>435.0</ele><time>2026-04-06T13:47:25.155Z</time></trkpt><trkpt lat="43.86978" lon="11.6010942"><ele>435.0</ele><time>2026-04-06T13:47:27.142Z</time></trkpt><trkpt lat="43.8697203" lon="11.6010067"><ele>435.0</ele><time>2026-04-06T13:47:28.146Z</time></trkpt><trkpt lat="43.8696684" lon="11.6008742"><ele>435.0</ele><time>2026-04-06T13:47:29.149Z</time></trkpt><trkpt lat="43.8696285" lon="11.6007217"><ele>435.0</ele><time>2026-04-06T13:47:30.146Z</time></trkpt><trkpt lat="43.8696107" lon="11.6005617"><ele>435.0</ele><time>2026-04-06T13:47:31.162Z</time></trkpt><trkpt lat="43.8696036" lon="11.6004097"><ele>435.0</ele><time>2026-04-06T13:47:32.157Z</time></trkpt><trkpt lat="43.8695947" lon="11.6002698"><ele>435.0</ele><time>2026-04-06T13:47:33.135Z</time></trkpt><trkpt lat="43.8695723" lon="11.6001426"><ele>436.3333333333333</ele><time>2026-04-06T13:47:34.15Z</time></trkpt><trkpt lat="43.869531" lon="11.6000493"><ele>437.66666666666663</ele><time>2026-04-06T13:47:35.156Z</time></trkpt><trkpt lat="43.8694726" lon="11.5999855"><ele>439.0</ele><time>2026-04-06T13:47:36.165Z</time></trkpt><trkpt lat="43.8693955" lon="11.5999728"><ele>440.3333333333333</ele><time>2026-04-06T13:47:37.153Z</time></trkpt><trkpt lat="43.8693083" lon="11.6000156"><ele>441.66666666666663</ele><time>2026-04-06T13:47:38.15Z</time></trkpt><trkpt lat="43.8692444" lon="11.6000963"><ele>443.0</ele><time>2026-04-06T13:47:39.159Z</time></trkpt><trkpt lat="43.8691853" lon="11.6001998"><ele>440.4</ele><time>2026-04-06T13:47:40.15Z</time></trkpt><trkpt lat="43.8691225" lon="11.6003132"><ele>437.79999999999995</ele><time>2026-04-06T13:47:41.162Z</time></trkpt><trkpt lat="43.8690688" lon="11.6004231"><ele>435.2</ele><time>2026-04-06T13:47:42.135Z</time></trkpt><trkpt lat="43.8690024" lon="11.6005069"><ele>432.6</ele><time>2026-04-06T13:47:43.139Z</time></trkpt><trkpt lat="43.8689166" lon="11.6005574"><ele>430.0</ele><time>2026-04-06T13:47:44.142Z</time></trkpt><trkpt lat="43.868831" lon="11.6005637"><ele>430.00000000000006</ele><time>2026-04-06T13:47:45.138Z</time></trkpt><trkpt lat="43.8687499" lon="11.600536"><ele>430.0</ele><time>2026-04-06T13:47:46.142Z</time></trkpt><trkpt lat="43.8686772" lon="11.6004791"><ele>430.0</ele><time>2026-04-06T13:47:47.144Z</time></trkpt><trkpt lat="43.8686131" lon="11.6004304"><ele>430.0</ele><time>2026-04-06T13:47:48.161Z</time></trkpt><trkpt lat="43.8685461" lon="11.6003963"><ele>430.00000000000006</ele><time>2026-04-06T13:47:49.142Z</time></trkpt><trkpt lat="43.8684763" lon="11.6003667"><ele>430.0</ele><time>2026-04-06T13:47:50.155Z</time></trkpt><trkpt lat="43.8684049" lon="11.6003248"><ele>428.2</ele><time>2026-04-06T13:47:51.159Z</time></trkpt><trkpt lat="43.8683531" lon="11.6002497"><ele>426.4</ele><time>2026-04-06T13:47:52.158Z</time></trkpt><trkpt lat="43.868315" lon="11.6001602"><ele>424.6</ele><time>2026-04-06T13:47:53.145Z</time></trkpt><trkpt lat="43.8682554" lon="11.6000077"><ele>422.8</ele><time>2026-04-06T13:47:55.14Z</time></trkpt><trkpt lat="43.8681743" lon="11.5999015"><ele>421.0</ele><time>2026-04-06T13:47:57.157Z</time></trkpt><trkpt lat="43.8680704" lon="11.5998592"><ele>421.00000000000006</ele><time>2026-04-06T13:47:59.154Z</time></trkpt><trkpt lat="43.8679633" lon="11.5998383"><ele>421.0</ele><time>2026-04-06T13:48:01.15Z</time></trkpt><trkpt lat="43.8678399" lon="11.5997706"><ele>421.0</ele><time>2026-04-06T13:48:03.158Z</time></trkpt><trkpt lat="43.867789" lon="11.5997106"><ele>421.0</ele><time>2026-04-06T13:48:04.162Z</time></trkpt><trkpt lat="43.8677355" lon="11.5996483"><ele>421.00000000000006</ele><time>2026-04-06T13:48:05.156Z</time></trkpt><trkpt lat="43.8676883" lon="11.5995736"><ele>421.0</ele><time>2026-04-06T13:48:06.154Z</time></trkpt><trkpt lat="43.8676389" lon="11.599486"><ele>422.75</ele><time>2026-04-06T13:48:07.157Z</time></trkpt><trkpt lat="43.8675744" lon="11.5993763"><ele>424.5</ele><time>2026-04-06T13:48:08.16Z</time></trkpt><trkpt lat="43.8675056" lon="11.5992462"><ele>426.25</ele><time>2026-04-06T13:48:09.149Z</time></trkpt><trkpt lat="43.8674298" lon="11.5991274"><ele>428.0</ele><time>2026-04-06T13:48:10.155Z</time></trkpt><trkpt lat="43.8673285" lon="11.5990455"><ele>428.0</ele><time>2026-04-06T13:48:11.158Z</time></trkpt><trkpt lat="43.8672139" lon="11.5989945"><ele>428.0</ele><time>2026-04-06T13:48:12.151Z</time></trkpt><trkpt lat="43.8670939" lon="11.5989608"><ele>428.0</ele><time>2026-04-06T13:48:13.153Z</time></trkpt><trkpt lat="43.8669689" lon="11.5989186"><ele>428.0</ele><time>2026-04-06T13:48:14.162Z</time></trkpt><trkpt lat="43.8668586" lon="11.5988332"><ele>430.75</ele><time>2026-04-06T13:48:15.15Z</time></trkpt><trkpt lat="43.8667515" lon="11.5987422"><ele>433.5</ele><time>2026-04-06T13:48:16.154Z</time></trkpt><trkpt lat="43.8666433" lon="11.5986373"><ele>436.25</ele><time>2026-04-06T13:48:17.15Z</time></trkpt><trkpt lat="43.8665457" lon="11.5985309"><ele>439.0</ele><time>2026-04-06T13:48:18.16Z</time></trkpt><trkpt lat="43.8664455" lon="11.5984474"><ele>439.0</ele><time>2026-04-06T13:48:19.147Z</time></trkpt><trkpt lat="43.8663471" lon="11.5983868"><ele>439.0</ele><time>2026-04-06T13:48:20.157Z</time></trkpt><trkpt lat="43.8662503" lon="11.5983474"><ele>439.0</ele><time>2026-04-06T13:48:21.145Z</time></trkpt><trkpt lat="43.8661587" lon="11.5983086"><ele>439.0</ele><time>2026-04-06T13:48:22.165Z</time></trkpt><trkpt lat="43.8660668" lon="11.5982551"><ele>439.0</ele><time>2026-04-06T13:48:23.172Z</time></trkpt><trkpt lat="43.8659642" lon="11.5981905"><ele>434.2</ele><time>2026-04-06T13:48:24.146Z</time></trkpt><trkpt lat="43.8658656" lon="11.5981398"><ele>429.4</ele><time>2026-04-06T13:48:25.16Z</time></trkpt><trkpt lat="43.8657664" lon="11.5981237"><ele>424.6</ele><time>2026-04-06T13:48:26.145Z</time></trkpt><trkpt lat="43.8656578" lon="11.5981464"><ele>419.8</ele><time>2026-04-06T13:48:27.151Z</time></trkpt><trkpt lat="43.8655397" lon="11.5981932"><ele>415.0</ele><time>2026-04-06T13:48:28.152Z</time></trkpt><trkpt lat="43.8654144" lon="11.5982498"><ele>415.0</ele><time>2026-04-06T13:48:29.142Z</time></trkpt><trkpt lat="43.8652902" lon="11.5983107"><ele>415.0</ele><time>2026-04-06T13:48:30.146Z</time></trkpt><trkpt lat="43.8651661" lon="11.5983766"><ele>415.0</ele><time>2026-04-06T13:48:31.155Z</time></trkpt><trkpt lat="43.8650492" lon="11.5984409"><ele>415.0</ele><time>2026-04-06T13:48:32.148Z</time></trkpt><trkpt lat="43.864943" lon="11.5985043"><ele>414.33333333333337</ele><time>2026-04-06T13:48:33.142Z</time></trkpt><trkpt lat="43.8648528" lon="11.5985625"><ele>413.6666666666667</ele><time>2026-04-06T13:48:34.15Z</time></trkpt><trkpt lat="43.8647834" lon="11.5986263"><ele>413.0</ele><time>2026-04-06T13:48:35.145Z</time></trkpt><trkpt lat="43.8647193" lon="11.5986576"><ele>412.33333333333337</ele><time>2026-04-06T13:48:36.159Z</time></trkpt><trkpt lat="43.864628" lon="11.5985403"><ele>411.6666666666667</ele><time>2026-04-06T13:48:38.139Z</time></trkpt><trkpt lat="43.8646417" lon="11.5984407"><ele>411.0</ele><time>2026-04-06T13:48:39.14Z</time></trkpt><trkpt lat="43.8647013" lon="11.5983419"><ele>411.0</ele><time>2026-04-06T13:48:40.158Z</time></trkpt><trkpt lat="43.8647741" lon="11.5982468"><ele>411.0</ele><time>2026-04-06T13:48:41.159Z</time></trkpt><trkpt lat="43.8648483" lon="11.5981306"><ele>411.0</ele><time>2026-04-06T13:48:42.149Z</time></trkpt><trkpt lat="43.8649113" lon="11.5979954"><ele>411.0</ele><time>2026-04-06T13:48:43.154Z</time></trkpt><trkpt lat="43.8649692" lon="11.5978192"><ele>409.75</ele><time>2026-04-06T13:48:44.162Z</time></trkpt><trkpt lat="43.8650135" lon="11.5976369"><ele>408.5</ele><time>2026-04-06T13:48:45.152Z</time></trkpt><trkpt lat="43.8650529" lon="11.5974543"><ele>407.25</ele><time>2026-04-06T13:48:46.145Z</time></trkpt><trkpt lat="43.8650799" lon="11.5972669"><ele>406.0</ele><time>2026-04-06T13:48:47.141Z</time></trkpt><trkpt lat="43.8651113" lon="11.5970913"><ele>412.0</ele><time>2026-04-06T13:48:48.162Z</time></trkpt><trkpt lat="43.8651409" lon="11.5969174"><ele>418.0</ele><time>2026-04-06T13:48:49.147Z</time></trkpt><trkpt lat="43.8651808" lon="11.5967438"><ele>424.0</ele><time>2026-04-06T13:48:50.153Z</time></trkpt><trkpt lat="43.8652323" lon="11.5965699"><ele>430.0</ele><time>2026-04-06T13:48:51.154Z</time></trkpt><trkpt lat="43.8652897" lon="11.5963945"><ele>430.0</ele><time>2026-04-06T13:48:52.142Z</time></trkpt><trkpt lat="43.865328" lon="11.5962222"><ele>430.0</ele><time>2026-04-06T13:48:53.151Z</time></trkpt><trkpt lat="43.8653633" lon="11.5960511"><ele>430.0</ele><time>2026-04-06T13:48:54.14Z</time></trkpt><trkpt lat="43.8654087" lon="11.5958938"><ele>430.0</ele><time>2026-04-06T13:48:55.154Z</time></trkpt><trkpt lat="43.8654762" lon="11.595758"><ele>427.5</ele><time>2026-04-06T13:48:56.131Z</time></trkpt><trkpt lat="43.8655693" lon="11.5956607"><ele>425.0</ele><time>2026-04-06T13:48:57.147Z</time></trkpt><trkpt lat="43.8656517" lon="11.5955775"><ele>422.5</ele><time>2026-04-06T13:48:58.152Z</time></trkpt><trkpt lat="43.8657148" lon="11.5954418"><ele>420.0</ele><time>2026-04-06T13:48:59.154Z</time></trkpt><trkpt lat="43.8657399" lon="11.5952596"><ele>415.5</ele><time>2026-04-06T13:49:00.15Z</time></trkpt><trkpt lat="43.8657497" lon="11.5950774"><ele>411.0</ele><time>2026-04-06T13:49:01.152Z</time></trkpt><trkpt lat="43.8657623" lon="11.5949037"><ele>406.5</ele><time>2026-04-06T13:49:02.145Z</time></trkpt><trkpt lat="43.865812" lon="11.594738"><ele>402.0</ele><time>2026-04-06T13:49:03.143Z</time></trkpt><trkpt lat="43.8658358" lon="11.5945702"><ele>400.25</ele><time>2026-04-06T13:49:04.147Z</time></trkpt><trkpt lat="43.8658595" lon="11.5943955"><ele>398.5</ele><time>2026-04-06T13:49:05.139Z</time></trkpt><trkpt lat="43.8658729" lon="11.5942018"><ele>396.75</ele><time>2026-04-06T13:49:06.156Z</time></trkpt><trkpt lat="43.8658844" lon="11.5940035"><ele>395.0</ele><time>2026-04-06T13:49:07.147Z</time></trkpt><trkpt lat="43.8658644" lon="11.593802"><ele>393.25</ele><time>2026-04-06T13:49:08.152Z</time></trkpt><trkpt lat="43.8658539" lon="11.5936115"><ele>391.5</ele><time>2026-04-06T13:49:09.144Z</time></trkpt><trkpt lat="43.8658568" lon="11.5934204"><ele>389.75</ele><time>2026-04-06T13:49:10.152Z</time></trkpt><trkpt lat="43.8658632" lon="11.5932427"><ele>388.0</ele><time>2026-04-06T13:49:11.147Z</time></trkpt><trkpt lat="43.8658787" lon="11.5930718"><ele>388.0</ele><time>2026-04-06T13:49:12.149Z</time></trkpt><trkpt lat="43.8658989" lon="11.5929164"><ele>388.0</ele><time>2026-04-06T13:49:13.15Z</time></trkpt><trkpt lat="43.8658823" lon="11.592758"><ele>388.0</ele><time>2026-04-06T13:49:14.152Z</time></trkpt><trkpt lat="43.8658339" lon="11.5926201"><ele>388.0</ele><time>2026-04-06T13:49:15.151Z</time></trkpt><trkpt lat="43.8657623" lon="11.5924841"><ele>387.79999999999995</ele><time>2026-04-06T13:49:16.144Z</time></trkpt><trkpt lat="43.8656989" lon="11.5923603"><ele>387.6</ele><time>2026-04-06T13:49:17.152Z</time></trkpt><trkpt lat="43.8656703" lon="11.5922141"><ele>387.4</ele><time>2026-04-06T13:49:18.133Z</time></trkpt><trkpt lat="43.8656829" lon="11.5920775"><ele>387.20000000000005</ele><time>2026-04-06T13:49:19.147Z</time></trkpt><trkpt lat="43.865714" lon="11.59195"><ele>387.0</ele><time>2026-04-06T13:49:20.157Z</time></trkpt><trkpt lat="43.8657122" lon="11.591831"><ele>387.0</ele><time>2026-04-06T13:49:21.155Z</time></trkpt><trkpt lat="43.865695" lon="11.5917347"><ele>387.0</ele><time>2026-04-06T13:49:22.149Z</time></trkpt><trkpt lat="43.8655519" lon="11.5916569"><ele>387.0</ele><time>2026-04-06T13:49:24.138Z</time></trkpt><trkpt lat="43.8654427" lon="11.5916663"><ele>387.0</ele><time>2026-04-06T13:49:25.14Z</time></trkpt><trkpt lat="43.8653455" lon="11.5917016"><ele>387.0</ele><time>2026-04-06T13:49:26.155Z</time></trkpt><trkpt lat="43.8652716" lon="11.5917271"><ele>387.0</ele><time>2026-04-06T13:49:27.15Z</time></trkpt><trkpt lat="43.8652094" lon="11.5916876"><ele>387.0</ele><time>2026-04-06T13:49:28.149Z</time></trkpt><trkpt lat="43.8651763" lon="11.5916117"><ele>387.0</ele><time>2026-04-06T13:49:29.161Z</time></trkpt><trkpt lat="43.8651757" lon="11.5915015"><ele>387.0</ele><time>2026-04-06T13:49:30.163Z</time></trkpt><trkpt lat="43.8651743" lon="11.5913738"><ele>387.0</ele><time>2026-04-06T13:49:31.152Z</time></trkpt><trkpt lat="43.8651903" lon="11.5912402"><ele>387.0</ele><time>2026-04-06T13:49:32.152Z</time></trkpt><trkpt lat="43.8652085" lon="11.5910979"><ele>386.40000000000003</ele><time>2026-04-06T13:49:33.157Z</time></trkpt><trkpt lat="43.8652222" lon="11.5909566"><ele>385.8</ele><time>2026-04-06T13:49:34.156Z</time></trkpt><trkpt lat="43.8652366" lon="11.5908256"><ele>385.2</ele><time>2026-04-06T13:49:35.144Z</time></trkpt><trkpt lat="43.8652341" lon="11.590726"><ele>384.6</ele><time>2026-04-06T13:49:36.155Z</time></trkpt><trkpt lat="43.8651732" lon="11.5906141"><ele>384.0</ele><time>2026-04-06T13:49:38.157Z</time></trkpt><trkpt lat="43.8650968" lon="11.590674"><ele>378.0</ele><time>2026-04-06T13:49:40.156Z</time></trkpt><trkpt lat="43.8650808" lon="11.5908286"><ele>372.0</ele><time>2026-04-06T13:49:42.157Z</time></trkpt><trkpt lat="43.865044" lon="11.5909443"><ele>366.0</ele><time>2026-04-06T13:49:44.15Z</time></trkpt><trkpt lat="43.865003" lon="11.5908226"><ele>360.0</ele><time>2026-04-06T13:49:47.153Z</time></trkpt><trkpt lat="43.8650222" lon="11.5906747"><ele>354.0</ele><time>2026-04-06T13:49:48.139Z</time></trkpt><trkpt lat="43.8650482" lon="11.5905306"><ele>354.0</ele><time>2026-04-06T13:49:49.16Z</time></trkpt><trkpt lat="43.8650719" lon="11.5904038"><ele>354.0</ele><time>2026-04-06T13:49:50.152Z</time></trkpt><trkpt lat="43.8650956" lon="11.5902587"><ele>354.0</ele><time>2026-04-06T13:49:51.156Z</time></trkpt><trkpt lat="43.8651313" lon="11.5900835"><ele>354.0</ele><time>2026-04-06T13:49:52.15Z</time></trkpt><trkpt lat="43.8651769" lon="11.5899012"><ele>353.75</ele><time>2026-04-06T13:49:53.168Z</time></trkpt><trkpt lat="43.8652128" lon="11.5897147"><ele>353.5</ele><time>2026-04-06T13:49:54.154Z</time></trkpt><trkpt lat="43.8652655" lon="11.58953"><ele>353.25</ele><time>2026-04-06T13:49:55.151Z</time></trkpt><trkpt lat="43.8653189" lon="11.5893721"><ele>353.0</ele><time>2026-04-06T13:49:56.156Z</time></trkpt><trkpt lat="43.8653935" lon="11.5892538"><ele>353.0</ele><time>2026-04-06T13:49:57.146Z</time></trkpt><trkpt lat="43.8654737" lon="11.5891554"><ele>353.0</ele><time>2026-04-06T13:49:58.161Z</time></trkpt><trkpt lat="43.8655315" lon="11.5890194"><ele>353.0</ele><time>2026-04-06T13:49:59.152Z</time></trkpt><trkpt lat="43.8655462" lon="11.5888788"><ele>353.0</ele><time>2026-04-06T13:50:00.156Z</time></trkpt><trkpt lat="43.865519" lon="11.5887269"><ele>353.0</ele><time>2026-04-06T13:50:01.147Z</time></trkpt><trkpt lat="43.8654891" lon="11.5885691"><ele>353.5</ele><time>2026-04-06T13:50:02.157Z</time></trkpt><trkpt lat="43.8654513" lon="11.5883872"><ele>354.0</ele><time>2026-04-06T13:50:03.151Z</time></trkpt><trkpt lat="43.865441" lon="11.5881841"><ele>354.5</ele><time>2026-04-06T13:50:04.154Z</time></trkpt><trkpt lat="43.865451" lon="11.5879769"><ele>355.0</ele><time>2026-04-06T13:50:05.134Z</time></trkpt><trkpt lat="43.8654644" lon="11.5877631"><ele>355.25</ele><time>2026-04-06T13:50:06.158Z</time></trkpt><trkpt lat="43.8654709" lon="11.5875576"><ele>355.5</ele><time>2026-04-06T13:50:07.153Z</time></trkpt><trkpt lat="43.8654778" lon="11.5873652"><ele>355.75</ele><time>2026-04-06T13:50:08.16Z</time></trkpt><trkpt lat="43.8654665" lon="11.5871858"><ele>356.0</ele><time>2026-04-06T13:50:09.15Z</time></trkpt><trkpt lat="43.8654422" lon="11.5870189"><ele>358.0</ele><time>2026-04-06T13:50:10.155Z</time></trkpt><trkpt lat="43.8653672" lon="11.5868388"><ele>360.0</ele><time>2026-04-06T13:50:11.141Z</time></trkpt><trkpt lat="43.8652784" lon="11.5866699"><ele>362.0</ele><time>2026-04-06T13:50:12.133Z</time></trkpt><trkpt lat="43.8651945" lon="11.5865104"><ele>364.0</ele><time>2026-04-06T13:50:13.155Z</time></trkpt><trkpt lat="43.8651459" lon="11.5863464"><ele>364.0</ele><time>2026-04-06T13:50:14.153Z</time></trkpt><trkpt lat="43.8651378" lon="11.5861846"><ele>364.0</ele><time>2026-04-06T13:50:15.156Z</time></trkpt><trkpt lat="43.8651384" lon="11.5860192"><ele>364.0</ele><time>2026-04-06T13:50:16.152Z</time></trkpt><trkpt lat="43.8651398" lon="11.5858571"><ele>364.0</ele><time>2026-04-06T13:50:17.141Z</time></trkpt><trkpt lat="43.8651455" lon="11.585713"><ele>364.0</ele><time>2026-04-06T13:50:18.152Z</time></trkpt><trkpt lat="43.8651498" lon="11.5855782"><ele>364.0</ele><time>2026-04-06T13:50:19.151Z</time></trkpt><trkpt lat="43.8651725" lon="11.5854334"><ele>364.0</ele><time>2026-04-06T13:50:20.165Z</time></trkpt><trkpt lat="43.8652155" lon="11.585285"><ele>364.0</ele><time>2026-04-06T13:50:21.156Z</time></trkpt><trkpt lat="43.8652548" lon="11.585135"><ele>364.0</ele><time>2026-04-06T13:50:22.151Z</time></trkpt><trkpt lat="43.8652936" lon="11.5849887"><ele>361.5</ele><time>2026-04-06T13:50:23.15Z</time></trkpt><trkpt lat="43.8653182" lon="11.5848495"><ele>359.0</ele><time>2026-04-06T13:50:24.157Z</time></trkpt><trkpt lat="43.865328" lon="11.5847027"><ele>356.5</ele><time>2026-04-06T13:50:25.154Z</time></trkpt><trkpt lat="43.8653167" lon="11.584514"><ele>354.0</ele><time>2026-04-06T13:50:26.151Z</time></trkpt><trkpt lat="43.8652753" lon="11.5843214"><ele>351.0</ele><time>2026-04-06T13:50:27.16Z</time></trkpt><trkpt lat="43.8652285" lon="11.5841291"><ele>348.0</ele><time>2026-04-06T13:50:28.154Z</time></trkpt><trkpt lat="43.8651799" lon="11.5839504"><ele>345.0</ele><time>2026-04-06T13:50:29.162Z</time></trkpt><trkpt lat="43.8651453" lon="11.5837686"><ele>342.0</ele><time>2026-04-06T13:50:30.163Z</time></trkpt><trkpt lat="43.8651253" lon="11.5835961"><ele>339.20000000000005</ele><time>2026-04-06T13:50:31.156Z</time></trkpt><trkpt lat="43.865112" lon="11.5834287"><ele>336.4</ele><time>2026-04-06T13:50:32.167Z</time></trkpt><trkpt lat="43.8651003" lon="11.5832698"><ele>333.6</ele><time>2026-04-06T13:50:33.162Z</time></trkpt><trkpt lat="43.8650903" lon="11.5831378"><ele>330.79999999999995</ele><time>2026-04-06T13:50:34.156Z</time></trkpt><trkpt lat="43.8650902" lon="11.5830221"><ele>328.0</ele><time>2026-04-06T13:50:35.149Z</time></trkpt><trkpt lat="43.8651307" lon="11.5829014"><ele>324.2</ele><time>2026-04-06T13:50:36.153Z</time></trkpt><trkpt lat="43.8652139" lon="11.5828022"><ele>320.4</ele><time>2026-04-06T13:50:37.155Z</time></trkpt><trkpt lat="43.8653078" lon="11.5827093"><ele>316.59999999999997</ele><time>2026-04-06T13:50:38.152Z</time></trkpt><trkpt lat="43.8653951" lon="11.5826191"><ele>312.79999999999995</ele><time>2026-04-06T13:50:39.157Z</time></trkpt><trkpt lat="43.8654654" lon="11.5825078"><ele>309.0</ele><time>2026-04-06T13:50:40.142Z</time></trkpt><trkpt lat="43.865521" lon="11.5823845"><ele>309.0</ele><time>2026-04-06T13:50:41.162Z</time></trkpt><trkpt lat="43.8655571" lon="11.5822504"><ele>309.0</ele><time>2026-04-06T13:50:42.154Z</time></trkpt><trkpt lat="43.8655943" lon="11.5821278"><ele>309.0</ele><time>2026-04-06T13:50:43.153Z</time></trkpt><trkpt lat="43.865634" lon="11.5819918"><ele>309.0</ele><time>2026-04-06T13:50:44.168Z</time></trkpt><trkpt lat="43.8656762" lon="11.5818435"><ele>309.0</ele><time>2026-04-06T13:50:45.162Z</time></trkpt><trkpt lat="43.8657224" lon="11.5816863"><ele>306.4</ele><time>2026-04-06T13:50:46.15Z</time></trkpt><trkpt lat="43.865765" lon="11.5815473"><ele>303.79999999999995</ele><time>2026-04-06T13:50:47.158Z</time></trkpt><trkpt lat="43.8658111" lon="11.5814018"><ele>301.20000000000005</ele><time>2026-04-06T13:50:48.153Z</time></trkpt><trkpt lat="43.8658486" lon="11.5812625"><ele>298.6</ele><time>2026-04-06T13:50:49.163Z</time></trkpt><trkpt lat="43.8658895" lon="11.5811273"><ele>296.0</ele><time>2026-04-06T13:50:50.152Z</time></trkpt><trkpt lat="43.865946" lon="11.581002"><ele>294.8</ele><time>2026-04-06T13:50:51.16Z</time></trkpt><trkpt lat="43.8660213" lon="11.5809046"><ele>293.6</ele><time>2026-04-06T13:50:52.16Z</time></trkpt><trkpt lat="43.8661129" lon="11.5808211"><ele>292.4</ele><time>2026-04-06T13:50:53.148Z</time></trkpt><trkpt lat="43.8662113" lon="11.580758"><ele>291.2</ele><time>2026-04-06T13:50:54.155Z</time></trkpt><trkpt lat="43.8663077" lon="11.5807343"><ele>290.0</ele><time>2026-04-06T13:50:55.151Z</time></trkpt><trkpt lat="43.866383" lon="11.5807256"><ele>290.0</ele><time>2026-04-06T13:50:56.141Z</time></trkpt><trkpt lat="43.8664458" lon="11.5807132"><ele>290.0</ele><time>2026-04-06T13:50:57.155Z</time></trkpt><trkpt lat="43.8664908" lon="11.5805861"><ele>290.0</ele><time>2026-04-06T13:50:59.151Z</time></trkpt><trkpt lat="43.8663765" lon="11.5804678"><ele>290.0</ele><time>2026-04-06T13:51:01.158Z</time></trkpt><trkpt lat="43.8662712" lon="11.5804401"><ele>290.0</ele><time>2026-04-06T13:51:02.149Z</time></trkpt><trkpt lat="43.8661646" lon="11.5804029"><ele>290.4</ele><time>2026-04-06T13:51:03.16Z</time></trkpt><trkpt lat="43.8660671" lon="11.5803371"><ele>290.8</ele><time>2026-04-06T13:51:04.147Z</time></trkpt><trkpt lat="43.8659692" lon="11.5802647"><ele>291.2</ele><time>2026-04-06T13:51:05.159Z</time></trkpt><trkpt lat="43.8658679" lon="11.5802327"><ele>291.6</ele><time>2026-04-06T13:51:06.163Z</time></trkpt><trkpt lat="43.8657513" lon="11.5802515"><ele>292.0</ele><time>2026-04-06T13:51:07.134Z</time></trkpt><trkpt lat="43.8656461" lon="11.5803235"><ele>288.75</ele><time>2026-04-06T13:51:08.15Z</time></trkpt><trkpt lat="43.8655377" lon="11.5803967"><ele>285.5</ele><time>2026-04-06T13:51:09.147Z</time></trkpt><trkpt lat="43.8654364" lon="11.5804365"><ele>282.25</ele><time>2026-04-06T13:51:10.153Z</time></trkpt><trkpt lat="43.8653284" lon="11.5804341"><ele>279.0</ele><time>2026-04-06T13:51:11.155Z</time></trkpt><trkpt lat="43.8652154" lon="11.5803943"><ele>279.0</ele><time>2026-04-06T13:51:12.146Z</time></trkpt><trkpt lat="43.865117" lon="11.5803665"><ele>279.0</ele><time>2026-04-06T13:51:13.142Z</time></trkpt><trkpt lat="43.8650204" lon="11.5803308"><ele>279.0</ele><time>2026-04-06T13:51:14.136Z</time></trkpt><trkpt lat="43.8649135" lon="11.5802951"><ele>279.0</ele><time>2026-04-06T13:51:15.132Z</time></trkpt><trkpt lat="43.8648218" lon="11.5802401"><ele>279.0</ele><time>2026-04-06T13:51:16.155Z</time></trkpt><trkpt lat="43.8647736" lon="11.5801341"><ele>277.6666666666667</ele><time>2026-04-06T13:51:17.133Z</time></trkpt><trkpt lat="43.8647412" lon="11.5799948"><ele>276.3333333333333</ele><time>2026-04-06T13:51:18.161Z</time></trkpt><trkpt lat="43.8647205" lon="11.5798844"><ele>275.0</ele><time>2026-04-06T13:51:19.165Z</time></trkpt><trkpt lat="43.8647026" lon="11.579799"><ele>273.66666666666663</ele><time>2026-04-06T13:51:20.146Z</time></trkpt><trkpt lat="43.8646894" lon="11.5797048"><ele>272.3333333333333</ele><time>2026-04-06T13:51:21.149Z</time></trkpt><trkpt lat="43.8646477" lon="11.5795577"><ele>271.0</ele><time>2026-04-06T13:51:22.143Z</time></trkpt><trkpt lat="43.8646218" lon="11.5793819"><ele>277.25</ele><time>2026-04-06T13:51:23.153Z</time></trkpt><trkpt lat="43.8645796" lon="11.5791749"><ele>283.5</ele><time>2026-04-06T13:51:24.142Z</time></trkpt><trkpt lat="43.8645271" lon="11.5789883"><ele>289.75</ele><time>2026-04-06T13:51:25.154Z</time></trkpt><trkpt lat="43.8644477" lon="11.5788253"><ele>296.0</ele><time>2026-04-06T13:51:26.138Z</time></trkpt><trkpt lat="43.8643281" lon="11.5786629"><ele>290.0</ele><time>2026-04-06T13:51:27.151Z</time></trkpt><trkpt lat="43.8641976" lon="11.5785395"><ele>284.0</ele><time>2026-04-06T13:51:28.146Z</time></trkpt><trkpt lat="43.8640735" lon="11.5784248"><ele>278.0</ele><time>2026-04-06T13:51:29.157Z</time></trkpt><trkpt lat="43.8639584" lon="11.578309"><ele>272.0</ele><time>2026-04-06T13:51:30.143Z</time></trkpt><trkpt lat="43.8638781" lon="11.5781662"><ele>272.0</ele><time>2026-04-06T13:51:31.149Z</time></trkpt><trkpt lat="43.8638263" lon="11.578008"><ele>272.0</ele><time>2026-04-06T13:51:32.145Z</time></trkpt><trkpt lat="43.8637965" lon="11.5778441"><ele>272.0</ele><time>2026-04-06T13:51:33.145Z</time></trkpt><trkpt lat="43.8637724" lon="11.5776872"><ele>272.0</ele><time>2026-04-06T13:51:34.135Z</time></trkpt><trkpt lat="43.8637432" lon="11.5775153"><ele>276.0</ele><time>2026-04-06T13:51:35.147Z</time></trkpt><trkpt lat="43.8636975" lon="11.5773514"><ele>280.0</ele><time>2026-04-06T13:51:36.146Z</time></trkpt><trkpt lat="43.8636379" lon="11.5772054"><ele>284.0</ele><time>2026-04-06T13:51:37.154Z</time></trkpt><trkpt lat="43.8635695" lon="11.5770754"><ele>288.0</ele><time>2026-04-06T13:51:38.152Z</time></trkpt><trkpt lat="43.8634972" lon="11.5769527"><ele>281.75</ele><time>2026-04-06T13:51:39.155Z</time></trkpt><trkpt lat="43.863404" lon="11.5768459"><ele>275.5</ele><time>2026-04-06T13:51:40.143Z</time></trkpt><trkpt lat="43.8633107" lon="11.5767372"><ele>269.25</ele><time>2026-04-06T13:51:41.146Z</time></trkpt><trkpt lat="43.8632016" lon="11.5766454"><ele>263.0</ele><time>2026-04-06T13:51:42.15Z</time></trkpt><trkpt lat="43.8631002" lon="11.5765535"><ele>263.0</ele><time>2026-04-06T13:51:43.134Z</time></trkpt><trkpt lat="43.863014" lon="11.5764535"><ele>263.0</ele><time>2026-04-06T13:51:44.151Z</time></trkpt><trkpt lat="43.8629411" lon="11.5763486"><ele>263.0</ele><time>2026-04-06T13:51:45.157Z</time></trkpt><trkpt lat="43.8628728" lon="11.5762367"><ele>263.0</ele><time>2026-04-06T13:51:46.145Z</time></trkpt><trkpt lat="43.8628203" lon="11.5761077"><ele>263.0</ele><time>2026-04-06T13:51:47.152Z</time></trkpt><trkpt lat="43.8627874" lon="11.57596"><ele>266.25</ele><time>2026-04-06T13:51:48.156Z</time></trkpt><trkpt lat="43.8627634" lon="11.5758271"><ele>269.5</ele><time>2026-04-06T13:51:49.152Z</time></trkpt><trkpt lat="43.8627467" lon="11.5756889"><ele>272.75</ele><time>2026-04-06T13:51:50.158Z</time></trkpt><trkpt lat="43.8627309" lon="11.5755116"><ele>276.0</ele><time>2026-04-06T13:51:51.154Z</time></trkpt><trkpt lat="43.8627057" lon="11.5753078"><ele>279.5</ele><time>2026-04-06T13:51:52.162Z</time></trkpt><trkpt lat="43.8626814" lon="11.5751008"><ele>283.0</ele><time>2026-04-06T13:51:53.167Z</time></trkpt><trkpt lat="43.8626579" lon="11.5748962"><ele>286.5</ele><time>2026-04-06T13:51:54.155Z</time></trkpt><trkpt lat="43.8626386" lon="11.5747054"><ele>290.0</ele><time>2026-04-06T13:51:55.138Z</time></trkpt><trkpt lat="43.8626211" lon="11.5745202"><ele>281.25</ele><time>2026-04-06T13:51:56.155Z</time></trkpt><trkpt lat="43.8625969" lon="11.5743484"><ele>272.5</ele><time>2026-04-06T13:51:57.153Z</time></trkpt><trkpt lat="43.8625809" lon="11.5741836"><ele>263.75</ele><time>2026-04-06T13:51:58.151Z</time></trkpt><trkpt lat="43.8625488" lon="11.5740392"><ele>255.0</ele><time>2026-04-06T13:51:59.161Z</time></trkpt><trkpt lat="43.8624905" lon="11.5739224"><ele>255.0</ele><time>2026-04-06T13:52:00.144Z</time></trkpt><trkpt lat="43.8624116" lon="11.5738191"><ele>255.0</ele><time>2026-04-06T13:52:01.15Z</time></trkpt><trkpt lat="43.8623489" lon="11.573695"><ele>255.0</ele><time>2026-04-06T13:52:02.161Z</time></trkpt><trkpt lat="43.8622912" lon="11.5735425"><ele>255.0</ele><time>2026-04-06T13:52:03.146Z</time></trkpt><trkpt lat="43.8622502" lon="11.5733865"><ele>255.0</ele><time>2026-04-06T13:52:04.148Z</time></trkpt><trkpt lat="43.8622265" lon="11.5732365"><ele>255.0</ele><time>2026-04-06T13:52:05.161Z</time></trkpt><trkpt lat="43.8622107" lon="11.5730779"><ele>255.0</ele><time>2026-04-06T13:52:06.154Z</time></trkpt><trkpt lat="43.8622084" lon="11.5729132"><ele>255.0</ele><time>2026-04-06T13:52:07.154Z</time></trkpt><trkpt lat="43.8622102" lon="11.5727583"><ele>255.0</ele><time>2026-04-06T13:52:08.15Z</time></trkpt><trkpt lat="43.8622016" lon="11.5726196"><ele>255.0</ele><time>2026-04-06T13:52:09.158Z</time></trkpt><trkpt lat="43.8621952" lon="11.5724914"><ele>255.0</ele><time>2026-04-06T13:52:10.153Z</time></trkpt><trkpt lat="43.8621952" lon="11.5723697"><ele>255.0</ele><time>2026-04-06T13:52:11.156Z</time></trkpt><trkpt lat="43.8621983" lon="11.5722616"><ele>255.0</ele><time>2026-04-06T13:52:12.155Z</time></trkpt><trkpt lat="43.8622072" lon="11.5721463"><ele>255.0</ele><time>2026-04-06T13:52:13.157Z</time></trkpt><trkpt lat="43.862225" lon="11.5720358"><ele>255.0</ele><time>2026-04-06T13:52:14.158Z</time></trkpt><trkpt lat="43.8622438" lon="11.5719209"><ele>255.0</ele><time>2026-04-06T13:52:15.153Z</time></trkpt><trkpt lat="43.8622644" lon="11.5718104"><ele>255.0</ele><time>2026-04-06T13:52:16.163Z</time></trkpt><trkpt lat="43.8622787" lon="11.5717107"><ele>255.0</ele><time>2026-04-06T13:52:17.152Z</time></trkpt><trkpt lat="43.8622969" lon="11.5716079"><ele>255.0</ele><time>2026-04-06T13:52:18.154Z</time></trkpt><trkpt lat="43.8623066" lon="11.5715096"><ele>255.0</ele><time>2026-04-06T13:52:19.15Z</time></trkpt><trkpt lat="43.8623143" lon="11.5713956"><ele>255.0</ele><time>2026-04-06T13:52:20.155Z</time></trkpt><trkpt lat="43.8623201" lon="11.5712951"><ele>255.0</ele><time>2026-04-06T13:52:21.16Z</time></trkpt><trkpt lat="43.8623038" lon="11.5711887"><ele>255.0</ele><time>2026-04-06T13:52:22.148Z</time></trkpt><trkpt lat="43.8622691" lon="11.5710824"><ele>255.0</ele><time>2026-04-06T13:52:23.151Z</time></trkpt><trkpt lat="43.8622306" lon="11.5709758"><ele>255.0</ele><time>2026-04-06T13:52:24.153Z</time></trkpt><trkpt lat="43.8621864" lon="11.570874"><ele>255.0</ele><time>2026-04-06T13:52:25.156Z</time></trkpt><trkpt lat="43.8621359" lon="11.5707758"><ele>255.66666666666666</ele><time>2026-04-06T13:52:26.149Z</time></trkpt><trkpt lat="43.8620926" lon="11.5706831"><ele>256.3333333333333</ele><time>2026-04-06T13:52:27.152Z</time></trkpt><trkpt lat="43.86205" lon="11.5705868"><ele>257.0</ele><time>2026-04-06T13:52:28.149Z</time></trkpt><trkpt lat="43.8620072" lon="11.5704824"><ele>257.66666666666663</ele><time>2026-04-06T13:52:29.138Z</time></trkpt><trkpt lat="43.8619729" lon="11.5703772"><ele>258.3333333333333</ele><time>2026-04-06T13:52:30.152Z</time></trkpt><trkpt lat="43.8619439" lon="11.5702662"><ele>259.0</ele><time>2026-04-06T13:52:31.155Z</time></trkpt><trkpt lat="43.8619057" lon="11.5701431"><ele>260.2</ele><time>2026-04-06T13:52:32.154Z</time></trkpt><trkpt lat="43.861868" lon="11.5700123"><ele>261.4</ele><time>2026-04-06T13:52:33.151Z</time></trkpt><trkpt lat="43.8618276" lon="11.569889"><ele>262.6</ele><time>2026-04-06T13:52:34.156Z</time></trkpt><trkpt lat="43.8617851" lon="11.5697716"><ele>263.8</ele><time>2026-04-06T13:52:35.15Z</time></trkpt><trkpt lat="43.8617458" lon="11.5696533"><ele>265.0</ele><time>2026-04-06T13:52:36.147Z</time></trkpt><trkpt lat="43.8617084" lon="11.5695365"><ele>259.4</ele><time>2026-04-06T13:52:37.152Z</time></trkpt><trkpt lat="43.8616689" lon="11.5694147"><ele>253.8</ele><time>2026-04-06T13:52:38.152Z</time></trkpt><trkpt lat="43.861629" lon="11.5693045"><ele>248.2</ele><time>2026-04-06T13:52:39.155Z</time></trkpt><trkpt lat="43.8615849" lon="11.5691941"><ele>242.6</ele><time>2026-04-06T13:52:40.155Z</time></trkpt><trkpt lat="43.8615525" lon="11.5690849"><ele>237.0</ele><time>2026-04-06T13:52:41.147Z</time></trkpt><trkpt lat="43.8615044" lon="11.5689763"><ele>237.0</ele><time>2026-04-06T13:52:42.141Z</time></trkpt><trkpt lat="43.8614678" lon="11.5688401"><ele>237.0</ele><time>2026-04-06T13:52:43.155Z</time></trkpt><trkpt lat="43.8614352" lon="11.5686904"><ele>237.0</ele><time>2026-04-06T13:52:44.155Z</time></trkpt><trkpt lat="43.8614229" lon="11.5685302"><ele>237.0</ele><time>2026-04-06T13:52:45.144Z</time></trkpt><trkpt lat="43.8614149" lon="11.5683612"><ele>238.39999999999998</ele><time>2026-04-06T13:52:46.152Z</time></trkpt><trkpt lat="43.8614099" lon="11.5681988"><ele>239.79999999999998</ele><time>2026-04-06T13:52:47.154Z</time></trkpt><trkpt lat="43.8613868" lon="11.5680463"><ele>241.2</ele><time>2026-04-06T13:52:48.151Z</time></trkpt><trkpt lat="43.8613566" lon="11.5678974"><ele>242.6</ele><time>2026-04-06T13:52:49.166Z</time></trkpt><trkpt lat="43.8613078" lon="11.5677663"><ele>244.0</ele><time>2026-04-06T13:52:50.151Z</time></trkpt><trkpt lat="43.8612417" lon="11.567658"><ele>244.33333333333331</ele><time>2026-04-06T13:52:51.16Z</time></trkpt><trkpt lat="43.8611794" lon="11.567552"><ele>244.66666666666666</ele><time>2026-04-06T13:52:52.158Z</time></trkpt><trkpt lat="43.8611185" lon="11.5674425"><ele>245.0</ele><time>2026-04-06T13:52:53.15Z</time></trkpt><trkpt lat="43.8610664" lon="11.5673439"><ele>245.33333333333331</ele><time>2026-04-06T13:52:54.135Z</time></trkpt><trkpt lat="43.8610232" lon="11.5672489"><ele>245.66666666666666</ele><time>2026-04-06T13:52:55.16Z</time></trkpt><trkpt lat="43.8609876" lon="11.5671492"><ele>246.0</ele><time>2026-04-06T13:52:56.157Z</time></trkpt><trkpt lat="43.8609592" lon="11.5670576"><ele>244.20000000000002</ele><time>2026-04-06T13:52:57.153Z</time></trkpt><trkpt lat="43.8609498" lon="11.5669547"><ele>242.40000000000003</ele><time>2026-04-06T13:52:58.145Z</time></trkpt><trkpt lat="43.8609706" lon="11.5668554"><ele>240.6</ele><time>2026-04-06T13:52:59.158Z</time></trkpt><trkpt lat="43.861004" lon="11.566725"><ele>238.8</ele><time>2026-04-06T13:53:00.148Z</time></trkpt><trkpt lat="43.8610389" lon="11.5665794"><ele>237.0</ele><time>2026-04-06T13:53:01.159Z</time></trkpt><trkpt lat="43.8610918" lon="11.5664371"><ele>237.0</ele><time>2026-04-06T13:53:02.14Z</time></trkpt><trkpt lat="43.8611501" lon="11.5662886"><ele>237.0</ele><time>2026-04-06T13:53:03.166Z</time></trkpt><trkpt lat="43.8612146" lon="11.5661459"><ele>237.0</ele><time>2026-04-06T13:53:04.155Z</time></trkpt><trkpt lat="43.8613005" lon="11.5660167"><ele>237.0</ele><time>2026-04-06T13:53:05.142Z</time></trkpt><trkpt lat="43.861386" lon="11.5658865"><ele>236.25</ele><time>2026-04-06T13:53:06.15Z</time></trkpt><trkpt lat="43.8614765" lon="11.5657724"><ele>235.5</ele><time>2026-04-06T13:53:07.14Z</time></trkpt><trkpt lat="43.8615707" lon="11.5656657"><ele>234.75</ele><time>2026-04-06T13:53:08.151Z</time></trkpt><trkpt lat="43.8616707" lon="11.5655616"><ele>234.0</ele><time>2026-04-06T13:53:09.151Z</time></trkpt><trkpt lat="43.8617867" lon="11.5654645"><ele>228.75</ele><time>2026-04-06T13:53:10.158Z</time></trkpt><trkpt lat="43.8619123" lon="11.5653596"><ele>223.5</ele><time>2026-04-06T13:53:11.142Z</time></trkpt><trkpt lat="43.8620405" lon="11.5652455"><ele>218.25</ele><time>2026-04-06T13:53:12.154Z</time></trkpt><trkpt lat="43.8621624" lon="11.5651343"><ele>213.0</ele><time>2026-04-06T13:53:13.16Z</time></trkpt><trkpt lat="43.862294" lon="11.5650171"><ele>213.0</ele><time>2026-04-06T13:53:14.153Z</time></trkpt><trkpt lat="43.8624279" lon="11.5649037"><ele>213.0</ele><time>2026-04-06T13:53:15.152Z</time></trkpt><trkpt lat="43.8625673" lon="11.5647721"><ele>213.0</ele><time>2026-04-06T13:53:16.158Z</time></trkpt><trkpt lat="43.8627064" lon="11.5646377"><ele>212.33333333333331</ele><time>2026-04-06T13:53:17.167Z</time></trkpt><trkpt lat="43.8628421" lon="11.5645077"><ele>211.66666666666666</ele><time>2026-04-06T13:53:18.147Z</time></trkpt><trkpt lat="43.8629755" lon="11.5643694"><ele>211.0</ele><time>2026-04-06T13:53:19.157Z</time></trkpt><trkpt lat="43.8631098" lon="11.5642225"><ele>211.0</ele><time>2026-04-06T13:53:20.15Z</time></trkpt><trkpt lat="43.8632417" lon="11.5640583"><ele>211.0</ele><time>2026-04-06T13:53:21.16Z</time></trkpt><trkpt lat="43.8633699" lon="11.5638947"><ele>211.0</ele><time>2026-04-06T13:53:22.155Z</time></trkpt><trkpt lat="43.863493" lon="11.5637339"><ele>211.66666666666666</ele><time>2026-04-06T13:53:23.153Z</time></trkpt><trkpt lat="43.8636122" lon="11.563575"><ele>212.33333333333331</ele><time>2026-04-06T13:53:24.167Z</time></trkpt><trkpt lat="43.8637177" lon="11.5634195"><ele>213.0</ele><time>2026-04-06T13:53:25.158Z</time></trkpt><trkpt lat="43.8638172" lon="11.5632663"><ele>213.0</ele><time>2026-04-06T13:53:26.135Z</time></trkpt><trkpt lat="43.8639091" lon="11.5631158"><ele>213.0</ele><time>2026-04-06T13:53:27.147Z</time></trkpt><trkpt lat="43.8639979" lon="11.5629647"><ele>213.0</ele><time>2026-04-06T13:53:28.155Z</time></trkpt><trkpt lat="43.8640861" lon="11.5628121"><ele>213.0</ele><time>2026-04-06T13:53:29.156Z</time></trkpt><trkpt lat="43.8641737" lon="11.5626487"><ele>214.33333333333331</ele><time>2026-04-06T13:53:30.159Z</time></trkpt><trkpt lat="43.8642644" lon="11.5624758"><ele>215.66666666666666</ele><time>2026-04-06T13:53:31.157Z</time></trkpt><trkpt lat="43.8643496" lon="11.5623026"><ele>217.0</ele><time>2026-04-06T13:53:32.161Z</time></trkpt><trkpt lat="43.8644315" lon="11.5621301"><ele>214.5</ele><time>2026-04-06T13:53:33.16Z</time></trkpt><trkpt lat="43.8645091" lon="11.5619687"><ele>212.0</ele><time>2026-04-06T13:53:34.15Z</time></trkpt><trkpt lat="43.8645884" lon="11.5618173"><ele>209.5</ele><time>2026-04-06T13:53:35.147Z</time></trkpt><trkpt lat="43.8646668" lon="11.5616693"><ele>207.0</ele><time>2026-04-06T13:53:36.153Z</time></trkpt><trkpt lat="43.8647443" lon="11.5615171"><ele>207.0</ele><time>2026-04-06T13:53:37.165Z</time></trkpt><trkpt lat="43.8648198" lon="11.5613608"><ele>207.0</ele><time>2026-04-06T13:53:38.15Z</time></trkpt><trkpt lat="43.8648936" lon="11.5612165"><ele>207.0</ele><time>2026-04-06T13:53:39.156Z</time></trkpt><trkpt lat="43.8649635" lon="11.5610716"><ele>207.0</ele><time>2026-04-06T13:53:40.141Z</time></trkpt><trkpt lat="43.8650347" lon="11.5609273"><ele>207.75</ele><time>2026-04-06T13:53:41.152Z</time></trkpt><trkpt lat="43.8651064" lon="11.5607824"><ele>208.5</ele><time>2026-04-06T13:53:42.142Z</time></trkpt><trkpt lat="43.8651773" lon="11.5606333"><ele>209.25</ele><time>2026-04-06T13:53:43.141Z</time></trkpt><trkpt lat="43.8652481" lon="11.5604875"><ele>210.0</ele><time>2026-04-06T13:53:44.139Z</time></trkpt><trkpt lat="43.8653152" lon="11.560344"><ele>210.0</ele><time>2026-04-06T13:53:45.148Z</time></trkpt><trkpt lat="43.865381" lon="11.5602083"><ele>210.0</ele><time>2026-04-06T13:53:46.139Z</time></trkpt><trkpt lat="43.8654452" lon="11.5600637"><ele>210.0</ele><time>2026-04-06T13:53:47.153Z</time></trkpt><trkpt lat="43.8654986" lon="11.5599118"><ele>210.0</ele><time>2026-04-06T13:53:48.138Z</time></trkpt><trkpt lat="43.8655465" lon="11.5597629"><ele>210.0</ele><time>2026-04-06T13:53:49.142Z</time></trkpt><trkpt lat="43.8655884" lon="11.5595935"><ele>210.0</ele><time>2026-04-06T13:53:50.142Z</time></trkpt><trkpt lat="43.8656213" lon="11.5593954"><ele>210.0</ele><time>2026-04-06T13:53:51.14Z</time></trkpt><trkpt lat="43.8656548" lon="11.5591659"><ele>210.0</ele><time>2026-04-06T13:53:52.141Z</time></trkpt><trkpt lat="43.8656897" lon="11.5589295"><ele>209.0</ele><time>2026-04-06T13:53:53.14Z</time></trkpt><trkpt lat="43.8657256" lon="11.5586857"><ele>208.0</ele><time>2026-04-06T13:53:54.15Z</time></trkpt><trkpt lat="43.865761" lon="11.5584296"><ele>207.0</ele><time>2026-04-06T13:53:55.142Z</time></trkpt><trkpt lat="43.8657924" lon="11.558159"><ele>205.33333333333331</ele><time>2026-04-06T13:53:56.156Z</time></trkpt><trkpt lat="43.8658184" lon="11.5578649"><ele>203.66666666666666</ele><time>2026-04-06T13:53:57.14Z</time></trkpt><trkpt lat="43.8658389" lon="11.5575698"><ele>202.0</ele><time>2026-04-06T13:53:58.148Z</time></trkpt><trkpt lat="43.8658547" lon="11.5572738"><ele>199.0</ele><time>2026-04-06T13:53:59.149Z</time></trkpt><trkpt lat="43.8658702" lon="11.556979"><ele>196.0</ele><time>2026-04-06T13:54:00.146Z</time></trkpt><trkpt lat="43.8658928" lon="11.5566964"><ele>193.0</ele><time>2026-04-06T13:54:01.147Z</time></trkpt><trkpt lat="43.8659137" lon="11.556417"><ele>192.33333333333331</ele><time>2026-04-06T13:54:02.146Z</time></trkpt><trkpt lat="43.8659284" lon="11.556143"><ele>191.66666666666666</ele><time>2026-04-06T13:54:03.144Z</time></trkpt><trkpt lat="43.8659414" lon="11.5558997"><ele>191.0</ele><time>2026-04-06T13:54:04.138Z</time></trkpt><trkpt lat="43.8659526" lon="11.5556582"><ele>192.33333333333331</ele><time>2026-04-06T13:54:05.147Z</time></trkpt><trkpt lat="43.8659503" lon="11.555441"><ele>193.66666666666666</ele><time>2026-04-06T13:54:06.148Z</time></trkpt><trkpt lat="43.8659009" lon="11.5552392"><ele>195.0</ele><time>2026-04-06T13:54:07.153Z</time></trkpt><trkpt lat="43.8657953" lon="11.5550481"><ele>195.0</ele><time>2026-04-06T13:54:08.166Z</time></trkpt><trkpt lat="43.8656752" lon="11.5548801"><ele>195.0</ele><time>2026-04-06T13:54:09.148Z</time></trkpt><trkpt lat="43.8655657" lon="11.5547074"><ele>195.0</ele><time>2026-04-06T13:54:10.142Z</time></trkpt><trkpt lat="43.8654714" lon="11.5545273"><ele>193.75</ele><time>2026-04-06T13:54:11.14Z</time></trkpt><trkpt lat="43.8654391" lon="11.5543454"><ele>192.5</ele><time>2026-04-06T13:54:12.148Z</time></trkpt><trkpt lat="43.8654363" lon="11.554159"><ele>191.25</ele><time>2026-04-06T13:54:13.148Z</time></trkpt><trkpt lat="43.8654573" lon="11.5539649"><ele>190.0</ele><time>2026-04-06T13:54:14.137Z</time></trkpt><trkpt lat="43.8655222" lon="11.5537588"><ele>188.33333333333334</ele><time>2026-04-06T13:54:15.156Z</time></trkpt><trkpt lat="43.8655954" lon="11.553541"><ele>186.66666666666666</ele><time>2026-04-06T13:54:16.151Z</time></trkpt><trkpt lat="43.8656748" lon="11.5533148"><ele>185.0</ele><time>2026-04-06T13:54:17.155Z</time></trkpt><trkpt lat="43.865751" lon="11.5530851"><ele>184.66666666666666</ele><time>2026-04-06T13:54:18.152Z</time></trkpt><trkpt lat="43.8658235" lon="11.5528433"><ele>184.33333333333334</ele><time>2026-04-06T13:54:19.151Z</time></trkpt><trkpt lat="43.8658869" lon="11.5525915"><ele>184.0</ele><time>2026-04-06T13:54:20.154Z</time></trkpt><trkpt lat="43.8659279" lon="11.5523285"><ele>195.66666666666669</ele><time>2026-04-06T13:54:21.133Z</time></trkpt><trkpt lat="43.8659573" lon="11.5520521"><ele>207.33333333333334</ele><time>2026-04-06T13:54:22.141Z</time></trkpt><trkpt lat="43.8659806" lon="11.5517774"><ele>219.0</ele><time>2026-04-06T13:54:23.14Z</time></trkpt><trkpt lat="43.866005" lon="11.5515114"><ele>219.0</ele><time>2026-04-06T13:54:24.137Z</time></trkpt><trkpt lat="43.8660264" lon="11.5512527"><ele>219.0</ele><time>2026-04-06T13:54:25.151Z</time></trkpt><trkpt lat="43.8660469" lon="11.5510144"><ele>219.0</ele><time>2026-04-06T13:54:26.158Z</time></trkpt><trkpt lat="43.8660479" lon="11.5507869"><ele>217.66666666666669</ele><time>2026-04-06T13:54:27.145Z</time></trkpt><trkpt lat="43.8660192" lon="11.5505595"><ele>216.33333333333334</ele><time>2026-04-06T13:54:28.151Z</time></trkpt><trkpt lat="43.8659516" lon="11.5503271"><ele>215.0</ele><time>2026-04-06T13:54:29.153Z</time></trkpt><trkpt lat="43.8658585" lon="11.5501062"><ele>208.66666666666669</ele><time>2026-04-06T13:54:30.138Z</time></trkpt><trkpt lat="43.8657417" lon="11.549885"><ele>202.33333333333331</ele><time>2026-04-06T13:54:31.143Z</time></trkpt><trkpt lat="43.8656209" lon="11.5496754"><ele>196.0</ele><time>2026-04-06T13:54:32.144Z</time></trkpt><trkpt lat="43.8655002" lon="11.5494575"><ele>196.0</ele><time>2026-04-06T13:54:33.147Z</time></trkpt><trkpt lat="43.8653872" lon="11.5492478"><ele>196.0</ele><time>2026-04-06T13:54:34.146Z</time></trkpt><trkpt lat="43.8652892" lon="11.5490304"><ele>196.0</ele><time>2026-04-06T13:54:35.142Z</time></trkpt><trkpt lat="43.8652036" lon="11.5488168"><ele>196.33333333333331</ele><time>2026-04-06T13:54:36.138Z</time></trkpt><trkpt lat="43.865139" lon="11.5486039"><ele>196.66666666666669</ele><time>2026-04-06T13:54:37.143Z</time></trkpt><trkpt lat="43.8650777" lon="11.5483771"><ele>197.0</ele><time>2026-04-06T13:54:38.143Z</time></trkpt><trkpt lat="43.8650255" lon="11.5481331"><ele>190.0</ele><time>2026-04-06T13:54:39.147Z</time></trkpt><trkpt lat="43.8649919" lon="11.5478705"><ele>183.0</ele><time>2026-04-06T13:54:40.156Z</time></trkpt><trkpt lat="43.8649665" lon="11.5475996"><ele>176.0</ele><time>2026-04-06T13:54:41.156Z</time></trkpt><trkpt lat="43.8649473" lon="11.5473288"><ele>176.0</ele><time>2026-04-06T13:54:42.15Z</time></trkpt><trkpt lat="43.8649212" lon="11.5470528"><ele>176.0</ele><time>2026-04-06T13:54:43.161Z</time></trkpt><trkpt lat="43.8648923" lon="11.5467722"><ele>176.0</ele><time>2026-04-06T13:54:44.154Z</time></trkpt><trkpt lat="43.8648707" lon="11.5464905"><ele>176.0</ele><time>2026-04-06T13:54:45.147Z</time></trkpt><trkpt lat="43.8648498" lon="11.5462164"><ele>176.0</ele><time>2026-04-06T13:54:46.154Z</time></trkpt><trkpt lat="43.864828" lon="11.5459528"><ele>176.0</ele><time>2026-04-06T13:54:47.148Z</time></trkpt><trkpt lat="43.8648058" lon="11.5456928"><ele>176.33333333333331</ele><time>2026-04-06T13:54:48.148Z</time></trkpt><trkpt lat="43.864788" lon="11.5454373"><ele>176.66666666666666</ele><time>2026-04-06T13:54:49.154Z</time></trkpt><trkpt lat="43.8647641" lon="11.5451715"><ele>177.0</ele><time>2026-04-06T13:54:50.154Z</time></trkpt><trkpt lat="43.8647384" lon="11.5449028"><ele>177.66666666666666</ele><time>2026-04-06T13:54:51.147Z</time></trkpt><trkpt lat="43.8647056" lon="11.5446306"><ele>178.33333333333331</ele><time>2026-04-06T13:54:52.163Z</time></trkpt><trkpt lat="43.8646659" lon="11.5443553"><ele>179.0</ele><time>2026-04-06T13:54:53.153Z</time></trkpt><trkpt lat="43.8646223" lon="11.5440877"><ele>180.0</ele><time>2026-04-06T13:54:54.144Z</time></trkpt><trkpt lat="43.8645856" lon="11.5438129"><ele>181.0</ele><time>2026-04-06T13:54:55.165Z</time></trkpt><trkpt lat="43.8645459" lon="11.5435417"><ele>182.0</ele><time>2026-04-06T13:54:56.167Z</time></trkpt><trkpt lat="43.8645068" lon="11.5432733"><ele>183.66666666666666</ele><time>2026-04-06T13:54:57.152Z</time></trkpt><trkpt lat="43.8644586" lon="11.5430217"><ele>185.33333333333334</ele><time>2026-04-06T13:54:58.16Z</time></trkpt><trkpt lat="43.8643801" lon="11.5428227"><ele>187.0</ele><time>2026-04-06T13:54:59.157Z</time></trkpt><trkpt lat="43.8642611" lon="11.5426618"><ele>180.33333333333334</ele><time>2026-04-06T13:55:00.139Z</time></trkpt><trkpt lat="43.8641129" lon="11.5425284"><ele>173.66666666666666</ele><time>2026-04-06T13:55:01.157Z</time></trkpt><trkpt lat="43.863989" lon="11.542389"><ele>167.0</ele><time>2026-04-06T13:55:02.141Z</time></trkpt><trkpt lat="43.8639024" lon="11.5421918"><ele>169.0</ele><time>2026-04-06T13:55:03.167Z</time></trkpt><trkpt lat="43.8638615" lon="11.541979"><ele>171.0</ele><time>2026-04-06T13:55:04.151Z</time></trkpt><trkpt lat="43.8638658" lon="11.5417435"><ele>173.0</ele><time>2026-04-06T13:55:05.154Z</time></trkpt><trkpt lat="43.8638723" lon="11.5414756"><ele>172.33333333333331</ele><time>2026-04-06T13:55:06.16Z</time></trkpt><trkpt lat="43.8638793" lon="11.5411954"><ele>171.66666666666666</ele><time>2026-04-06T13:55:07.152Z</time></trkpt><trkpt lat="43.863882" lon="11.5409141"><ele>171.0</ele><time>2026-04-06T13:55:08.155Z</time></trkpt><trkpt lat="43.8638763" lon="11.5406319"><ele>170.0</ele><time>2026-04-06T13:55:09.155Z</time></trkpt><trkpt lat="43.8638717" lon="11.5403642"><ele>169.0</ele><time>2026-04-06T13:55:10.156Z</time></trkpt><trkpt lat="43.8638574" lon="11.5401146"><ele>168.0</ele><time>2026-04-06T13:55:11.162Z</time></trkpt><trkpt lat="43.8638184" lon="11.5398679"><ele>168.0</ele><time>2026-04-06T13:55:12.146Z</time></trkpt><trkpt lat="43.8637443" lon="11.5396447"><ele>168.0</ele><time>2026-04-06T13:55:13.157Z</time></trkpt><trkpt lat="43.8636555" lon="11.5394217"><ele>168.0</ele><time>2026-04-06T13:55:14.152Z</time></trkpt><trkpt lat="43.8635805" lon="11.5392042"><ele>168.0</ele><time>2026-04-06T13:55:15.157Z</time></trkpt><trkpt lat="43.8635236" lon="11.5389985"><ele>168.0</ele><time>2026-04-06T13:55:16.152Z</time></trkpt><trkpt lat="43.8635039" lon="11.5387847"><ele>168.0</ele><time>2026-04-06T13:55:17.141Z</time></trkpt><trkpt lat="43.8635277" lon="11.5385578"><ele>168.0</ele><time>2026-04-06T13:55:18.153Z</time></trkpt><trkpt lat="43.8635586" lon="11.5383175"><ele>168.0</ele><time>2026-04-06T13:55:19.159Z</time></trkpt><trkpt lat="43.8635951" lon="11.5380739"><ele>168.0</ele><time>2026-04-06T13:55:20.164Z</time></trkpt><trkpt lat="43.8636313" lon="11.5378303"><ele>167.33333333333334</ele><time>2026-04-06T13:55:21.139Z</time></trkpt><trkpt lat="43.8636561" lon="11.5375798"><ele>166.66666666666669</ele><time>2026-04-06T13:55:22.161Z</time></trkpt><trkpt lat="43.8636446" lon="11.5373171"><ele>166.0</ele><time>2026-04-06T13:55:23.164Z</time></trkpt><trkpt lat="43.8636083" lon="11.5370479"><ele>166.0</ele><time>2026-04-06T13:55:24.145Z</time></trkpt><trkpt lat="43.8635539" lon="11.5367874"><ele>166.0</ele><time>2026-04-06T13:55:25.163Z</time></trkpt><trkpt lat="43.8634955" lon="11.5365161"><ele>166.0</ele><time>2026-04-06T13:55:26.163Z</time></trkpt><trkpt lat="43.8634542" lon="11.5362504"><ele>160.33333333333334</ele><time>2026-04-06T13:55:27.151Z</time></trkpt><trkpt lat="43.8634245" lon="11.535991"><ele>154.66666666666666</ele><time>2026-04-06T13:55:28.155Z</time></trkpt><trkpt lat="43.8634217" lon="11.5357411"><ele>149.0</ele><time>2026-04-06T13:55:29.16Z</time></trkpt><trkpt lat="43.8634383" lon="11.5354893"><ele>153.66666666666666</ele><time>2026-04-06T13:55:30.152Z</time></trkpt><trkpt lat="43.8634669" lon="11.5352342"><ele>158.33333333333334</ele><time>2026-04-06T13:55:31.152Z</time></trkpt><trkpt lat="43.8634937" lon="11.5349781"><ele>163.0</ele><time>2026-04-06T13:55:32.148Z</time></trkpt><trkpt lat="43.8635164" lon="11.5347209"><ele>163.0</ele><time>2026-04-06T13:55:33.16Z</time></trkpt><trkpt lat="43.8635325" lon="11.5344691"><ele>163.0</ele><time>2026-04-06T13:55:34.151Z</time></trkpt><trkpt lat="43.8635376" lon="11.534221"><ele>163.0</ele><time>2026-04-06T13:55:35.158Z</time></trkpt><trkpt lat="43.8635232" lon="11.5339941"><ele>163.0</ele><time>2026-04-06T13:55:36.161Z</time></trkpt><trkpt lat="43.8634893" lon="11.533784"><ele>163.0</ele><time>2026-04-06T13:55:37.152Z</time></trkpt><trkpt lat="43.8634503" lon="11.53358"><ele>163.0</ele><time>2026-04-06T13:55:38.139Z</time></trkpt><trkpt lat="43.8634185" lon="11.533385"><ele>158.25</ele><time>2026-04-06T13:55:39.151Z</time></trkpt><trkpt lat="43.8633901" lon="11.5332022"><ele>153.5</ele><time>2026-04-06T13:55:40.139Z</time></trkpt><trkpt lat="43.8633584" lon="11.5330234"><ele>148.75</ele><time>2026-04-06T13:55:41.157Z</time></trkpt><trkpt lat="43.8633421" lon="11.5328506"><ele>144.0</ele><time>2026-04-06T13:55:42.138Z</time></trkpt><trkpt lat="43.8633171" lon="11.5326913"><ele>144.0</ele><time>2026-04-06T13:55:43.152Z</time></trkpt><trkpt lat="43.8632986" lon="11.5325321"><ele>144.0</ele><time>2026-04-06T13:55:44.154Z</time></trkpt><trkpt lat="43.8632805" lon="11.5323905"><ele>144.0</ele><time>2026-04-06T13:55:45.148Z</time></trkpt><trkpt lat="43.8632603" lon="11.5322499"><ele>144.0</ele><time>2026-04-06T13:55:46.145Z</time></trkpt><trkpt lat="43.8632498" lon="11.5321184"><ele>144.0</ele><time>2026-04-06T13:55:47.149Z</time></trkpt><trkpt lat="43.8632353" lon="11.5320132"><ele>143.83333333333334</ele><time>2026-04-06T13:55:48.15Z</time></trkpt><trkpt lat="43.8632086" lon="11.5318769"><ele>143.66666666666666</ele><time>2026-04-06T13:55:50.149Z</time></trkpt><trkpt lat="43.863182" lon="11.5317602"><ele>143.5</ele><time>2026-04-06T13:55:52.166Z</time></trkpt><trkpt lat="43.8631678" lon="11.5316723"><ele>143.33333333333331</ele><time>2026-04-06T13:55:53.152Z</time></trkpt><trkpt lat="43.8631489" lon="11.531581"><ele>143.16666666666666</ele><time>2026-04-06T13:55:54.156Z</time></trkpt><trkpt lat="43.8631358" lon="11.5314927"><ele>143.0</ele><time>2026-04-06T13:55:55.151Z</time></trkpt><trkpt lat="43.8631195" lon="11.5313566"><ele>143.0</ele><time>2026-04-06T13:55:57.151Z</time></trkpt><trkpt lat="43.8631078" lon="11.5312703"><ele>143.0</ele><time>2026-04-06T13:56:00.156Z</time></trkpt><trkpt lat="43.8630853" lon="11.5311859"><ele>143.0</ele><time>2026-04-06T13:56:05.153Z</time></trkpt><trkpt lat="43.8629496" lon="11.531143"><ele>143.0</ele><time>2026-04-06T13:56:07.139Z</time></trkpt><trkpt lat="43.8628374" lon="11.5311342"><ele>143.0</ele><time>2026-04-06T13:56:08.136Z</time></trkpt><trkpt lat="43.8627256" lon="11.5311121"><ele>142.5</ele><time>2026-04-06T13:56:09.146Z</time></trkpt><trkpt lat="43.8626042" lon="11.5310999"><ele>142.0</ele><time>2026-04-06T13:56:10.156Z</time></trkpt><trkpt lat="43.8624793" lon="11.5310786"><ele>141.5</ele><time>2026-04-06T13:56:11.148Z</time></trkpt><trkpt lat="43.8623498" lon="11.5310575"><ele>141.0</ele><time>2026-04-06T13:56:12.156Z</time></trkpt><trkpt lat="43.8622329" lon="11.5310276"><ele>141.0</ele><time>2026-04-06T13:56:13.152Z</time></trkpt><trkpt lat="43.8621184" lon="11.5309917"><ele>141.0</ele><time>2026-04-06T13:56:14.153Z</time></trkpt><trkpt lat="43.8620076" lon="11.5309499"><ele>141.0</ele><time>2026-04-06T13:56:15.152Z</time></trkpt><trkpt lat="43.8618982" lon="11.530906"><ele>141.0</ele><time>2026-04-06T13:56:16.147Z</time></trkpt><trkpt lat="43.8617944" lon="11.5308152"><ele>140.75</ele><time>2026-04-06T13:56:17.149Z</time></trkpt><trkpt lat="43.861689" lon="11.5306955"><ele>140.5</ele><time>2026-04-06T13:56:18.165Z</time></trkpt><trkpt lat="43.8616001" lon="11.5305617"><ele>140.25</ele><time>2026-04-06T13:56:19.156Z</time></trkpt><trkpt lat="43.8615088" lon="11.5304327"><ele>140.0</ele><time>2026-04-06T13:56:20.153Z</time></trkpt><trkpt lat="43.8614257" lon="11.5303054"><ele>140.0</ele><time>2026-04-06T13:56:21.16Z</time></trkpt><trkpt lat="43.8613466" lon="11.5301982"><ele>140.0</ele><time>2026-04-06T13:56:22.15Z</time></trkpt><trkpt lat="43.8612654" lon="11.530093"><ele>140.0</ele><time>2026-04-06T13:56:23.159Z</time></trkpt><trkpt lat="43.8611915" lon="11.5299871"><ele>140.0</ele><time>2026-04-06T13:56:24.157Z</time></trkpt><trkpt lat="43.8611029" lon="11.5298842"><ele>140.0</ele><time>2026-04-06T13:56:25.144Z</time></trkpt><trkpt lat="43.8610171" lon="11.5297713"><ele>139.5</ele><time>2026-04-06T13:56:26.175Z</time></trkpt><trkpt lat="43.8609336" lon="11.5296656"><ele>139.0</ele><time>2026-04-06T13:56:27.14Z</time></trkpt><trkpt lat="43.8608346" lon="11.5295559"><ele>138.5</ele><time>2026-04-06T13:56:28.152Z</time></trkpt><trkpt lat="43.8607283" lon="11.5294583"><ele>138.0</ele><time>2026-04-06T13:56:29.155Z</time></trkpt><trkpt lat="43.8606211" lon="11.5293568"><ele>138.0</ele><time>2026-04-06T13:56:30.147Z</time></trkpt><trkpt lat="43.8605126" lon="11.5292546"><ele>138.0</ele><time>2026-04-06T13:56:31.16Z</time></trkpt><trkpt lat="43.8604033" lon="11.5291548"><ele>138.0</ele><time>2026-04-06T13:56:32.153Z</time></trkpt><trkpt lat="43.8602898" lon="11.5290572"><ele>138.0</ele><time>2026-04-06T13:56:33.142Z</time></trkpt><trkpt lat="43.860182" lon="11.5289631"><ele>138.25</ele><time>2026-04-06T13:56:34.145Z</time></trkpt><trkpt lat="43.8600796" lon="11.5288797"><ele>138.5</ele><time>2026-04-06T13:56:35.157Z</time></trkpt><trkpt lat="43.8599762" lon="11.5288002"><ele>138.75</ele><time>2026-04-06T13:56:36.149Z</time></trkpt><trkpt lat="43.8598756" lon="11.5287177"><ele>139.0</ele><time>2026-04-06T13:56:37.162Z</time></trkpt><trkpt lat="43.8597828" lon="11.5286385"><ele>139.0</ele><time>2026-04-06T13:56:38.142Z</time></trkpt><trkpt lat="43.8596894" lon="11.5285477"><ele>139.0</ele><time>2026-04-06T13:56:39.138Z</time></trkpt><trkpt lat="43.8595872" lon="11.5284456"><ele>139.0</ele><time>2026-04-06T13:56:40.147Z</time></trkpt><trkpt lat="43.8594844" lon="11.5283369"><ele>139.0</ele><time>2026-04-06T13:56:41.158Z</time></trkpt><trkpt lat="43.8593915" lon="11.528212"><ele>139.0</ele><time>2026-04-06T13:56:42.152Z</time></trkpt><trkpt lat="43.859313" lon="11.5280789"><ele>139.0</ele><time>2026-04-06T13:56:43.131Z</time></trkpt><trkpt lat="43.8592247" lon="11.5279374"><ele>139.0</ele><time>2026-04-06T13:56:44.158Z</time></trkpt><trkpt lat="43.8591373" lon="11.5277952"><ele>139.0</ele><time>2026-04-06T13:56:45.144Z</time></trkpt><trkpt lat="43.8590519" lon="11.5276389"><ele>138.33333333333334</ele><time>2026-04-06T13:56:46.14Z</time></trkpt><trkpt lat="43.8589522" lon="11.5274679"><ele>137.66666666666666</ele><time>2026-04-06T13:56:47.142Z</time></trkpt><trkpt lat="43.8588511" lon="11.5273005"><ele>137.0</ele><time>2026-04-06T13:56:48.164Z</time></trkpt><trkpt lat="43.8587538" lon="11.5271426"><ele>136.33333333333331</ele><time>2026-04-06T13:56:49.156Z</time></trkpt><trkpt lat="43.8586615" lon="11.5269772"><ele>135.66666666666666</ele><time>2026-04-06T13:56:50.159Z</time></trkpt><trkpt lat="43.8585666" lon="11.5268004"><ele>135.0</ele><time>2026-04-06T13:56:51.156Z</time></trkpt><trkpt lat="43.8584651" lon="11.5266223"><ele>134.66666666666666</ele><time>2026-04-06T13:56:52.158Z</time></trkpt><trkpt lat="43.858356" lon="11.5264522"><ele>134.33333333333331</ele><time>2026-04-06T13:56:53.155Z</time></trkpt><trkpt lat="43.8582488" lon="11.5262779"><ele>134.0</ele><time>2026-04-06T13:56:54.153Z</time></trkpt><trkpt lat="43.8581417" lon="11.5260889"><ele>134.0</ele><time>2026-04-06T13:56:55.14Z</time></trkpt><trkpt lat="43.8580245" lon="11.5259063"><ele>134.0</ele><time>2026-04-06T13:56:56.161Z</time></trkpt><trkpt lat="43.8579151" lon="11.5257235"><ele>134.0</ele><time>2026-04-06T13:56:57.153Z</time></trkpt><trkpt lat="43.8578061" lon="11.5255519"><ele>135.0</ele><time>2026-04-06T13:56:58.15Z</time></trkpt><trkpt lat="43.8576989" lon="11.5253689"><ele>136.0</ele><time>2026-04-06T13:56:59.151Z</time></trkpt><trkpt lat="43.8576011" lon="11.5251912"><ele>137.0</ele><time>2026-04-06T13:57:00.15Z</time></trkpt><trkpt lat="43.857503" lon="11.5250145"><ele>137.33333333333331</ele><time>2026-04-06T13:57:01.14Z</time></trkpt><trkpt lat="43.8574103" lon="11.5248312"><ele>137.66666666666666</ele><time>2026-04-06T13:57:02.155Z</time></trkpt><trkpt lat="43.8573282" lon="11.524654"><ele>138.0</ele><time>2026-04-06T13:57:03.144Z</time></trkpt><trkpt lat="43.8572479" lon="11.5244735"><ele>137.33333333333334</ele><time>2026-04-06T13:57:04.156Z</time></trkpt><trkpt lat="43.8571808" lon="11.5242829"><ele>136.66666666666669</ele><time>2026-04-06T13:57:05.14Z</time></trkpt><trkpt lat="43.8571317" lon="11.5240624"><ele>136.0</ele><time>2026-04-06T13:57:06.147Z</time></trkpt><trkpt lat="43.8570948" lon="11.5238203"><ele>135.0</ele><time>2026-04-06T13:57:07.145Z</time></trkpt><trkpt lat="43.8570612" lon="11.5235843"><ele>134.0</ele><time>2026-04-06T13:57:08.152Z</time></trkpt><trkpt lat="43.8570226" lon="11.523342"><ele>133.0</ele><time>2026-04-06T13:57:09.158Z</time></trkpt><trkpt lat="43.8569843" lon="11.5231034"><ele>133.66666666666669</ele><time>2026-04-06T13:57:10.152Z</time></trkpt><trkpt lat="43.8569496" lon="11.5228662"><ele>134.33333333333334</ele><time>2026-04-06T13:57:11.152Z</time></trkpt><trkpt lat="43.8569105" lon="11.5226265"><ele>135.0</ele><time>2026-04-06T13:57:12.149Z</time></trkpt><trkpt lat="43.8568723" lon="11.5223858"><ele>135.0</ele><time>2026-04-06T13:57:13.146Z</time></trkpt><trkpt lat="43.8568354" lon="11.5221518"><ele>135.0</ele><time>2026-04-06T13:57:14.149Z</time></trkpt><trkpt lat="43.8567986" lon="11.5219216"><ele>135.0</ele><time>2026-04-06T13:57:15.158Z</time></trkpt><trkpt lat="43.8567626" lon="11.5217"><ele>134.66666666666666</ele><time>2026-04-06T13:57:16.138Z</time></trkpt><trkpt lat="43.8567175" lon="11.5214847"><ele>134.33333333333331</ele><time>2026-04-06T13:57:17.147Z</time></trkpt><trkpt lat="43.8566658" lon="11.5212975"><ele>134.0</ele><time>2026-04-06T13:57:18.146Z</time></trkpt><trkpt lat="43.856578" lon="11.5211237"><ele>134.0</ele><time>2026-04-06T13:57:19.153Z</time></trkpt><trkpt lat="43.8564713" lon="11.5209748"><ele>134.0</ele><time>2026-04-06T13:57:20.152Z</time></trkpt><trkpt lat="43.8563354" lon="11.5208232"><ele>134.0</ele><time>2026-04-06T13:57:21.149Z</time></trkpt><trkpt lat="43.8561696" lon="11.5207072"><ele>134.0</ele><time>2026-04-06T13:57:22.146Z</time></trkpt><trkpt lat="43.8559992" lon="11.5205973"><ele>134.0</ele><time>2026-04-06T13:57:23.151Z</time></trkpt><trkpt lat="43.8558426" lon="11.5204866"><ele>134.0</ele><time>2026-04-06T13:57:24.147Z</time></trkpt><trkpt lat="43.8556965" lon="11.5203784"><ele>134.25</ele><time>2026-04-06T13:57:25.149Z</time></trkpt><trkpt lat="43.8555708" lon="11.5202753"><ele>134.5</ele><time>2026-04-06T13:57:26.155Z</time></trkpt><trkpt lat="43.8554587" lon="11.5201782"><ele>134.75</ele><time>2026-04-06T13:57:27.149Z</time></trkpt><trkpt lat="43.8553557" lon="11.5200751"><ele>135.0</ele><time>2026-04-06T13:57:28.148Z</time></trkpt><trkpt lat="43.8552534" lon="11.5199524"><ele>135.0</ele><time>2026-04-06T13:57:29.151Z</time></trkpt><trkpt lat="43.8551545" lon="11.5198428"><ele>135.0</ele><time>2026-04-06T13:57:30.159Z</time></trkpt><trkpt lat="43.8550505" lon="11.5197643"><ele>135.0</ele><time>2026-04-06T13:57:31.138Z</time></trkpt><trkpt lat="43.8549283" lon="11.5197055"><ele>135.0</ele><time>2026-04-06T13:57:32.159Z</time></trkpt><trkpt lat="43.8547899" lon="11.5196533"><ele>135.0</ele><time>2026-04-06T13:57:33.159Z</time></trkpt><trkpt lat="43.8546495" lon="11.5196081"><ele>135.0</ele><time>2026-04-06T13:57:34.161Z</time></trkpt><trkpt lat="43.8545146" lon="11.5195644"><ele>135.0</ele><time>2026-04-06T13:57:35.138Z</time></trkpt><trkpt lat="43.8543825" lon="11.5195167"><ele>135.0</ele><time>2026-04-06T13:57:36.154Z</time></trkpt><trkpt lat="43.8542557" lon="11.5194736"><ele>135.0</ele><time>2026-04-06T13:57:37.15Z</time></trkpt><trkpt lat="43.8541316" lon="11.5194426"><ele>135.0</ele><time>2026-04-06T13:57:38.143Z</time></trkpt><trkpt lat="43.8540057" lon="11.5194006"><ele>135.0</ele><time>2026-04-06T13:57:39.153Z</time></trkpt><trkpt lat="43.8538736" lon="11.5193416"><ele>135.0</ele><time>2026-04-06T13:57:40.144Z</time></trkpt><trkpt lat="43.8537409" lon="11.5192502"><ele>135.0</ele><time>2026-04-06T13:57:41.162Z</time></trkpt><trkpt lat="43.8536187" lon="11.5191443"><ele>135.0</ele><time>2026-04-06T13:57:42.143Z</time></trkpt><trkpt lat="43.8535229" lon="11.519051"><ele>135.0</ele><time>2026-04-06T13:57:43.154Z</time></trkpt><trkpt lat="43.8534439" lon="11.5189801"><ele>135.0</ele><time>2026-04-06T13:57:44.155Z</time></trkpt><trkpt lat="43.8533777" lon="11.5189024"><ele>135.0</ele><time>2026-04-06T13:57:45.143Z</time></trkpt><trkpt lat="43.8532976" lon="11.5188388"><ele>134.75</ele><time>2026-04-06T13:57:46.16Z</time></trkpt><trkpt lat="43.8532189" lon="11.5187537"><ele>134.5</ele><time>2026-04-06T13:57:47.148Z</time></trkpt><trkpt lat="43.8531214" lon="11.5186785"><ele>134.25</ele><time>2026-04-06T13:57:48.151Z</time></trkpt><trkpt lat="43.8530025" lon="11.5185791"><ele>134.0</ele><time>2026-04-06T13:57:49.152Z</time></trkpt><trkpt lat="43.8528725" lon="11.5184758"><ele>134.0</ele><time>2026-04-06T13:57:50.152Z</time></trkpt><trkpt lat="43.8527389" lon="11.518365"><ele>134.0</ele><time>2026-04-06T13:57:51.156Z</time></trkpt><trkpt lat="43.8525992" lon="11.5182567"><ele>134.0</ele><time>2026-04-06T13:57:52.152Z</time></trkpt><trkpt lat="43.8524495" lon="11.5181447"><ele>134.0</ele><time>2026-04-06T13:57:53.156Z</time></trkpt><trkpt lat="43.852293" lon="11.518028"><ele>134.0</ele><time>2026-04-06T13:57:54.145Z</time></trkpt><trkpt lat="43.852144" lon="11.5178906"><ele>134.0</ele><time>2026-04-06T13:57:55.154Z</time></trkpt><trkpt lat="43.8520038" lon="11.5177348"><ele>134.0</ele><time>2026-04-06T13:57:56.153Z</time></trkpt><trkpt lat="43.8518627" lon="11.5175764"><ele>134.0</ele><time>2026-04-06T13:57:57.15Z</time></trkpt><trkpt lat="43.8517126" lon="11.5174103"><ele>134.0</ele><time>2026-04-06T13:57:58.154Z</time></trkpt><trkpt lat="43.8515563" lon="11.5172428"><ele>134.0</ele><time>2026-04-06T13:57:59.151Z</time></trkpt><trkpt lat="43.8513945" lon="11.5170865"><ele>134.0</ele><time>2026-04-06T13:58:00.148Z</time></trkpt><trkpt lat="43.8512192" lon="11.5169489"><ele>134.0</ele><time>2026-04-06T13:58:01.15Z</time></trkpt><trkpt lat="43.851049" lon="11.5168149"><ele>132.66666666666666</ele><time>2026-04-06T13:58:02.151Z</time></trkpt><trkpt lat="43.8508832" lon="11.5167019"><ele>131.33333333333334</ele><time>2026-04-06T13:58:03.154Z</time></trkpt><trkpt lat="43.8507277" lon="11.5165897"><ele>130.0</ele><time>2026-04-06T13:58:04.147Z</time></trkpt><trkpt lat="43.8505847" lon="11.5164814"><ele>130.0</ele><time>2026-04-06T13:58:05.15Z</time></trkpt><trkpt lat="43.8504453" lon="11.516374"><ele>130.0</ele><time>2026-04-06T13:58:06.143Z</time></trkpt><trkpt lat="43.8503119" lon="11.5162683"><ele>130.0</ele><time>2026-04-06T13:58:07.141Z</time></trkpt><trkpt lat="43.8501826" lon="11.5161609"><ele>132.33333333333334</ele><time>2026-04-06T13:58:08.152Z</time></trkpt><trkpt lat="43.8500686" lon="11.5160208"><ele>134.66666666666666</ele><time>2026-04-06T13:58:09.155Z</time></trkpt><trkpt lat="43.8499725" lon="11.5158605"><ele>137.0</ele><time>2026-04-06T13:58:10.158Z</time></trkpt><trkpt lat="43.8499" lon="11.5156736"><ele>137.0</ele><time>2026-04-06T13:58:11.162Z</time></trkpt><trkpt lat="43.849841" lon="11.5154741"><ele>137.0</ele><time>2026-04-06T13:58:12.152Z</time></trkpt><trkpt lat="43.8497892" lon="11.5152692"><ele>137.0</ele><time>2026-04-06T13:58:13.156Z</time></trkpt><trkpt lat="43.8497457" lon="11.5150629"><ele>136.25</ele><time>2026-04-06T13:58:14.159Z</time></trkpt><trkpt lat="43.8497151" lon="11.5148628"><ele>135.5</ele><time>2026-04-06T13:58:15.151Z</time></trkpt><trkpt lat="43.8497059" lon="11.5146618"><ele>134.75</ele><time>2026-04-06T13:58:16.149Z</time></trkpt><trkpt lat="43.8497145" lon="11.514459"><ele>134.0</ele><time>2026-04-06T13:58:17.141Z</time></trkpt><trkpt lat="43.8497284" lon="11.5142665"><ele>133.5</ele><time>2026-04-06T13:58:18.153Z</time></trkpt><trkpt lat="43.8497394" lon="11.5140854"><ele>133.0</ele><time>2026-04-06T13:58:19.152Z</time></trkpt><trkpt lat="43.8497546" lon="11.5139155"><ele>132.5</ele><time>2026-04-06T13:58:20.151Z</time></trkpt><trkpt lat="43.8497731" lon="11.5137479"><ele>132.0</ele><time>2026-04-06T13:58:21.16Z</time></trkpt><trkpt lat="43.8497981" lon="11.5135835"><ele>133.0</ele><time>2026-04-06T13:58:22.152Z</time></trkpt><trkpt lat="43.8498413" lon="11.5134173"><ele>134.0</ele><time>2026-04-06T13:58:23.147Z</time></trkpt><trkpt lat="43.8498969" lon="11.5132626"><ele>135.0</ele><time>2026-04-06T13:58:24.148Z</time></trkpt><trkpt lat="43.8499673" lon="11.5131056"><ele>136.0</ele><time>2026-04-06T13:58:25.14Z</time></trkpt><trkpt lat="43.8500408" lon="11.5129475"><ele>138.0</ele><time>2026-04-06T13:58:26.155Z</time></trkpt><trkpt lat="43.8501097" lon="11.512781"><ele>140.0</ele><time>2026-04-06T13:58:27.151Z</time></trkpt><trkpt lat="43.850173" lon="11.5126106"><ele>142.0</ele><time>2026-04-06T13:58:28.158Z</time></trkpt><trkpt lat="43.8502214" lon="11.5124387"><ele>144.0</ele><time>2026-04-06T13:58:29.153Z</time></trkpt><trkpt lat="43.8502645" lon="11.5122568"><ele>143.0</ele><time>2026-04-06T13:58:30.147Z</time></trkpt><trkpt lat="43.8502983" lon="11.5120455"><ele>142.0</ele><time>2026-04-06T13:58:31.156Z</time></trkpt><trkpt lat="43.8503276" lon="11.5118189"><ele>141.0</ele><time>2026-04-06T13:58:32.15Z</time></trkpt><trkpt lat="43.8503575" lon="11.5115743"><ele>141.0</ele><time>2026-04-06T13:58:33.163Z</time></trkpt><trkpt lat="43.8503806" lon="11.5113497"><ele>141.0</ele><time>2026-04-06T13:58:34.156Z</time></trkpt><trkpt lat="43.8504012" lon="11.5111121"><ele>141.0</ele><time>2026-04-06T13:58:35.144Z</time></trkpt><trkpt lat="43.8504161" lon="11.510854"><ele>138.66666666666666</ele><time>2026-04-06T13:58:36.166Z</time></trkpt><trkpt lat="43.8504427" lon="11.5105919"><ele>136.33333333333331</ele><time>2026-04-06T13:58:37.151Z</time></trkpt><trkpt lat="43.8504746" lon="11.5103282"><ele>134.0</ele><time>2026-04-06T13:58:38.162Z</time></trkpt><trkpt lat="43.8505036" lon="11.5100928"><ele>133.33333333333331</ele><time>2026-04-06T13:58:39.158Z</time></trkpt><trkpt lat="43.8505141" lon="11.5098612"><ele>132.66666666666666</ele><time>2026-04-06T13:58:40.153Z</time></trkpt><trkpt lat="43.850525" lon="11.5096198"><ele>132.0</ele><time>2026-04-06T13:58:41.16Z</time></trkpt><trkpt lat="43.8505147" lon="11.5093707"><ele>131.0</ele><time>2026-04-06T13:58:42.155Z</time></trkpt><trkpt lat="43.8504932" lon="11.5091224"><ele>130.0</ele><time>2026-04-06T13:58:43.156Z</time></trkpt><trkpt lat="43.8504655" lon="11.5088733"><ele>129.0</ele><time>2026-04-06T13:58:44.159Z</time></trkpt><trkpt lat="43.8504393" lon="11.5086222"><ele>128.66666666666666</ele><time>2026-04-06T13:58:45.158Z</time></trkpt><trkpt lat="43.8504147" lon="11.5083696"><ele>128.33333333333331</ele><time>2026-04-06T13:58:46.147Z</time></trkpt><trkpt lat="43.8503926" lon="11.5081192"><ele>128.0</ele><time>2026-04-06T13:58:47.152Z</time></trkpt><trkpt lat="43.8503689" lon="11.5078773"><ele>127.66666666666666</ele><time>2026-04-06T13:58:48.16Z</time></trkpt><trkpt lat="43.8503475" lon="11.5076447"><ele>127.33333333333334</ele><time>2026-04-06T13:58:49.156Z</time></trkpt><trkpt lat="43.8503251" lon="11.5074046"><ele>127.0</ele><time>2026-04-06T13:58:50.147Z</time></trkpt><trkpt lat="43.8503051" lon="11.5071731"><ele>126.33333333333334</ele><time>2026-04-06T13:58:51.138Z</time></trkpt><trkpt lat="43.8502827" lon="11.5069419"><ele>125.66666666666666</ele><time>2026-04-06T13:58:52.154Z</time></trkpt><trkpt lat="43.8502593" lon="11.5067128"><ele>125.0</ele><time>2026-04-06T13:58:53.153Z</time></trkpt><trkpt lat="43.8502175" lon="11.5064894"><ele>125.0</ele><time>2026-04-06T13:58:54.152Z</time></trkpt><trkpt lat="43.8501478" lon="11.5062785"><ele>125.0</ele><time>2026-04-06T13:58:55.155Z</time></trkpt><trkpt lat="43.8500725" lon="11.5060727"><ele>125.0</ele><time>2026-04-06T13:58:56.159Z</time></trkpt><trkpt lat="43.849997" lon="11.5058617"><ele>126.0</ele><time>2026-04-06T13:58:57.149Z</time></trkpt><trkpt lat="43.8499224" lon="11.5056345"><ele>127.0</ele><time>2026-04-06T13:58:58.163Z</time></trkpt><trkpt lat="43.8498433" lon="11.5054079"><ele>128.0</ele><time>2026-04-06T13:58:59.167Z</time></trkpt><trkpt lat="43.8497611" lon="11.5051749"><ele>128.0</ele><time>2026-04-06T13:59:00.156Z</time></trkpt><trkpt lat="43.849683" lon="11.5049481"><ele>128.0</ele><time>2026-04-06T13:59:01.161Z</time></trkpt><trkpt lat="43.8496062" lon="11.504723"><ele>128.0</ele><time>2026-04-06T13:59:02.144Z</time></trkpt><trkpt lat="43.8495308" lon="11.50451"><ele>128.0</ele><time>2026-04-06T13:59:03.158Z</time></trkpt><trkpt lat="43.8494584" lon="11.504301"><ele>128.0</ele><time>2026-04-06T13:59:04.165Z</time></trkpt><trkpt lat="43.849374" lon="11.5040951"><ele>128.0</ele><time>2026-04-06T13:59:05.147Z</time></trkpt><trkpt lat="43.8492795" lon="11.5038934"><ele>129.33333333333331</ele><time>2026-04-06T13:59:06.161Z</time></trkpt><trkpt lat="43.8491795" lon="11.5036853"><ele>130.66666666666666</ele><time>2026-04-06T13:59:07.154Z</time></trkpt><trkpt lat="43.8490777" lon="11.5034802"><ele>132.0</ele><time>2026-04-06T13:59:08.155Z</time></trkpt><trkpt lat="43.8489681" lon="11.5032766"><ele>132.0</ele><time>2026-04-06T13:59:09.148Z</time></trkpt><trkpt lat="43.8488579" lon="11.5030677"><ele>132.0</ele><time>2026-04-06T13:59:10.16Z</time></trkpt><trkpt lat="43.8487464" lon="11.5028574"><ele>132.0</ele><time>2026-04-06T13:59:11.146Z</time></trkpt><trkpt lat="43.8486381" lon="11.5026531"><ele>131.0</ele><time>2026-04-06T13:59:12.153Z</time></trkpt><trkpt lat="43.848532" lon="11.5024549"><ele>130.0</ele><time>2026-04-06T13:59:13.154Z</time></trkpt><trkpt lat="43.8484295" lon="11.5022799"><ele>129.0</ele><time>2026-04-06T13:59:14.158Z</time></trkpt><trkpt lat="43.8483425" lon="11.5021328"><ele>130.25</ele><time>2026-04-06T13:59:15.153Z</time></trkpt><trkpt lat="43.8482631" lon="11.5020028"><ele>131.5</ele><time>2026-04-06T13:59:16.146Z</time></trkpt><trkpt lat="43.8481768" lon="11.5018871"><ele>132.75</ele><time>2026-04-06T13:59:17.138Z</time></trkpt><trkpt lat="43.8480842" lon="11.5017694"><ele>134.0</ele><time>2026-04-06T13:59:18.145Z</time></trkpt><trkpt lat="43.8479856" lon="11.5016581"><ele>134.0</ele><time>2026-04-06T13:59:19.156Z</time></trkpt><trkpt lat="43.8478774" lon="11.5015467"><ele>134.0</ele><time>2026-04-06T13:59:20.155Z</time></trkpt><trkpt lat="43.8477755" lon="11.5014337"><ele>134.0</ele><time>2026-04-06T13:59:21.155Z</time></trkpt><trkpt lat="43.8476748" lon="11.501332"><ele>134.0</ele><time>2026-04-06T13:59:22.143Z</time></trkpt><trkpt lat="43.8475901" lon="11.5012299"><ele>134.2</ele><time>2026-04-06T13:59:23.153Z</time></trkpt><trkpt lat="43.8475138" lon="11.5011436"><ele>134.4</ele><time>2026-04-06T13:59:24.144Z</time></trkpt><trkpt lat="43.8474411" lon="11.5010623"><ele>134.6</ele><time>2026-04-06T13:59:25.157Z</time></trkpt><trkpt lat="43.8473617" lon="11.5009772"><ele>134.8</ele><time>2026-04-06T13:59:26.142Z</time></trkpt><trkpt lat="43.8472751" lon="11.5008784"><ele>135.0</ele><time>2026-04-06T13:59:27.154Z</time></trkpt><trkpt lat="43.8471848" lon="11.5007752"><ele>135.0</ele><time>2026-04-06T13:59:28.143Z</time></trkpt><trkpt lat="43.8470928" lon="11.5006701"><ele>135.0</ele><time>2026-04-06T13:59:29.145Z</time></trkpt><trkpt lat="43.8469951" lon="11.5005561"><ele>135.0</ele><time>2026-04-06T13:59:30.142Z</time></trkpt><trkpt lat="43.8469034" lon="11.5004462"><ele>135.0</ele><time>2026-04-06T13:59:31.153Z</time></trkpt><trkpt lat="43.8468078" lon="11.5003339"><ele>135.25</ele><time>2026-04-06T13:59:32.16Z</time></trkpt><trkpt lat="43.846705" lon="11.5002267"><ele>135.5</ele><time>2026-04-06T13:59:33.159Z</time></trkpt><trkpt lat="43.8466078" lon="11.5001147"><ele>135.75</ele><time>2026-04-06T13:59:34.146Z</time></trkpt><trkpt lat="43.846512" lon="11.5000004"><ele>136.0</ele><time>2026-04-06T13:59:35.145Z</time></trkpt><trkpt lat="43.8464121" lon="11.4998804"><ele>136.0</ele><time>2026-04-06T13:59:36.143Z</time></trkpt><trkpt lat="43.8463056" lon="11.4997656"><ele>136.0</ele><time>2026-04-06T13:59:37.152Z</time></trkpt><trkpt lat="43.8462042" lon="11.4996692"><ele>136.0</ele><time>2026-04-06T13:59:38.152Z</time></trkpt><trkpt lat="43.8460969" lon="11.4995793"><ele>136.0</ele><time>2026-04-06T13:59:39.147Z</time></trkpt><trkpt lat="43.8459945" lon="11.4995098"><ele>135.5</ele><time>2026-04-06T13:59:40.156Z</time></trkpt><trkpt lat="43.8458911" lon="11.4994562"><ele>135.0</ele><time>2026-04-06T13:59:41.149Z</time></trkpt><trkpt lat="43.8457824" lon="11.4994133"><ele>134.5</ele><time>2026-04-06T13:59:42.147Z</time></trkpt><trkpt lat="43.8456595" lon="11.4993787"><ele>134.0</ele><time>2026-04-06T13:59:43.149Z</time></trkpt><trkpt lat="43.8455308" lon="11.4993592"><ele>134.0</ele><time>2026-04-06T13:59:44.159Z</time></trkpt><trkpt lat="43.8453977" lon="11.4993485"><ele>134.0</ele><time>2026-04-06T13:59:45.158Z</time></trkpt><trkpt lat="43.8452545" lon="11.4993387"><ele>134.0</ele><time>2026-04-06T13:59:46.162Z</time></trkpt><trkpt lat="43.8451089" lon="11.499347"><ele>134.0</ele><time>2026-04-06T13:59:47.156Z</time></trkpt><trkpt lat="43.8449554" lon="11.4993556"><ele>134.5</ele><time>2026-04-06T13:59:48.146Z</time></trkpt><trkpt lat="43.8448088" lon="11.4993708"><ele>135.0</ele><time>2026-04-06T13:59:49.143Z</time></trkpt><trkpt lat="43.8446713" lon="11.4993818"><ele>135.5</ele><time>2026-04-06T13:59:50.158Z</time></trkpt><trkpt lat="43.8445309" lon="11.4993969"><ele>136.0</ele><time>2026-04-06T13:59:51.142Z</time></trkpt><trkpt lat="43.8443814" lon="11.4994138"><ele>135.5</ele><time>2026-04-06T13:59:52.164Z</time></trkpt><trkpt lat="43.8442433" lon="11.4994213"><ele>135.0</ele><time>2026-04-06T13:59:53.153Z</time></trkpt><trkpt lat="43.8441115" lon="11.4994371"><ele>134.5</ele><time>2026-04-06T13:59:54.139Z</time></trkpt><trkpt lat="43.8439808" lon="11.4994497"><ele>134.0</ele><time>2026-04-06T13:59:55.163Z</time></trkpt><trkpt lat="43.8438439" lon="11.4994596"><ele>134.0</ele><time>2026-04-06T13:59:56.15Z</time></trkpt><trkpt lat="43.8437077" lon="11.4994692"><ele>134.0</ele><time>2026-04-06T13:59:57.16Z</time></trkpt><trkpt lat="43.8435675" lon="11.4994814"><ele>134.0</ele><time>2026-04-06T13:59:58.162Z</time></trkpt><trkpt lat="43.8434264" lon="11.4994961"><ele>134.0</ele><time>2026-04-06T13:59:59.147Z</time></trkpt><trkpt lat="43.8432714" lon="11.4995115"><ele>134.25</ele><time>2026-04-06T14:00:00.143Z</time></trkpt><trkpt lat="43.8431225" lon="11.4995177"><ele>134.5</ele><time>2026-04-06T14:00:01.156Z</time></trkpt><trkpt lat="43.8429761" lon="11.4995203"><ele>134.75</ele><time>2026-04-06T14:00:02.16Z</time></trkpt><trkpt lat="43.8428247" lon="11.4995274"><ele>135.0</ele><time>2026-04-06T14:00:03.152Z</time></trkpt><trkpt lat="43.842684" lon="11.4995335"><ele>135.25</ele><time>2026-04-06T14:00:04.151Z</time></trkpt><trkpt lat="43.8425455" lon="11.4995422"><ele>135.5</ele><time>2026-04-06T14:00:05.153Z</time></trkpt><trkpt lat="43.8424054" lon="11.4995566"><ele>135.75</ele><time>2026-04-06T14:00:06.139Z</time></trkpt><trkpt lat="43.8422672" lon="11.499577"><ele>136.0</ele><time>2026-04-06T14:00:07.155Z</time></trkpt><trkpt lat="43.8421221" lon="11.4995982"><ele>138.0</ele><time>2026-04-06T14:00:08.151Z</time></trkpt><trkpt lat="43.8419839" lon="11.4996381"><ele>140.0</ele><time>2026-04-06T14:00:09.147Z</time></trkpt><trkpt lat="43.8418553" lon="11.4996791"><ele>142.0</ele><time>2026-04-06T14:00:10.154Z</time></trkpt><trkpt lat="43.8417359" lon="11.4997158"><ele>144.0</ele><time>2026-04-06T14:00:11.16Z</time></trkpt><trkpt lat="43.8416179" lon="11.4997523"><ele>144.0</ele><time>2026-04-06T14:00:12.141Z</time></trkpt><trkpt lat="43.8414996" lon="11.4997867"><ele>144.0</ele><time>2026-04-06T14:00:13.153Z</time></trkpt><trkpt lat="43.8413871" lon="11.4998388"><ele>144.0</ele><time>2026-04-06T14:00:14.154Z</time></trkpt><trkpt lat="43.841275" lon="11.4999386"><ele>144.0</ele><time>2026-04-06T14:00:15.178Z</time></trkpt><trkpt lat="43.8411593" lon="11.5000594"><ele>144.0</ele><time>2026-04-06T14:00:16.142Z</time></trkpt><trkpt lat="43.8410305" lon="11.5001944"><ele>144.0</ele><time>2026-04-06T14:00:17.151Z</time></trkpt><trkpt lat="43.8408953" lon="11.5003208"><ele>144.0</ele><time>2026-04-06T14:00:18.139Z</time></trkpt><trkpt lat="43.8407683" lon="11.5004446"><ele>145.25</ele><time>2026-04-06T14:00:19.156Z</time></trkpt><trkpt lat="43.8406429" lon="11.5005548"><ele>146.5</ele><time>2026-04-06T14:00:20.143Z</time></trkpt><trkpt lat="43.8405237" lon="11.5006446"><ele>147.75</ele><time>2026-04-06T14:00:21.158Z</time></trkpt><trkpt lat="43.8404122" lon="11.5007056"><ele>149.0</ele><time>2026-04-06T14:00:22.151Z</time></trkpt><trkpt lat="43.8403049" lon="11.5007549"><ele>149.0</ele><time>2026-04-06T14:00:23.139Z</time></trkpt><trkpt lat="43.8401913" lon="11.5007912"><ele>149.0</ele><time>2026-04-06T14:00:24.15Z</time></trkpt><trkpt lat="43.8400794" lon="11.5008176"><ele>149.0</ele><time>2026-04-06T14:00:25.14Z</time></trkpt><trkpt lat="43.8399748" lon="11.5008141"><ele>149.0</ele><time>2026-04-06T14:00:26.157Z</time></trkpt><trkpt lat="43.8398781" lon="11.5008078"><ele>149.0</ele><time>2026-04-06T14:00:27.154Z</time></trkpt><trkpt lat="43.8397881" lon="11.5007872"><ele>148.0</ele><time>2026-04-06T14:00:28.151Z</time></trkpt><trkpt lat="43.8396907" lon="11.500757"><ele>147.0</ele><time>2026-04-06T14:00:29.149Z</time></trkpt><trkpt lat="43.839588" lon="11.5007228"><ele>146.0</ele><time>2026-04-06T14:00:30.146Z</time></trkpt><trkpt lat="43.8394662" lon="11.5006815"><ele>145.0</ele><time>2026-04-06T14:00:31.155Z</time></trkpt><trkpt lat="43.8393373" lon="11.5006448"><ele>144.25</ele><time>2026-04-06T14:00:32.159Z</time></trkpt><trkpt lat="43.8392124" lon="11.5006077"><ele>143.5</ele><time>2026-04-06T14:00:33.164Z</time></trkpt><trkpt lat="43.839087" lon="11.5005731"><ele>142.75</ele><time>2026-04-06T14:00:34.152Z</time></trkpt><trkpt lat="43.8389694" lon="11.5005383"><ele>142.0</ele><time>2026-04-06T14:00:35.157Z</time></trkpt><trkpt lat="43.8388585" lon="11.5005075"><ele>142.0</ele><time>2026-04-06T14:00:36.154Z</time></trkpt><trkpt lat="43.8387579" lon="11.5004773"><ele>142.0</ele><time>2026-04-06T14:00:37.162Z</time></trkpt><trkpt lat="43.8386499" lon="11.5004562"><ele>142.0</ele><time>2026-04-06T14:00:38.152Z</time></trkpt><trkpt lat="43.8385237" lon="11.500422"><ele>142.0</ele><time>2026-04-06T14:00:39.152Z</time></trkpt><trkpt lat="43.8383875" lon="11.5003861"><ele>140.0</ele><time>2026-04-06T14:00:40.156Z</time></trkpt><trkpt lat="43.8382644" lon="11.5003462"><ele>138.0</ele><time>2026-04-06T14:00:41.155Z</time></trkpt><trkpt lat="43.8381505" lon="11.5003099"><ele>136.0</ele><time>2026-04-06T14:00:42.147Z</time></trkpt><trkpt lat="43.8380489" lon="11.5002717"><ele>134.0</ele><time>2026-04-06T14:00:43.149Z</time></trkpt><trkpt lat="43.8379534" lon="11.5002192"><ele>134.0</ele><time>2026-04-06T14:00:44.142Z</time></trkpt><trkpt lat="43.8378711" lon="11.5001381"><ele>134.0</ele><time>2026-04-06T14:00:45.147Z</time></trkpt><trkpt lat="43.8378049" lon="11.5000286"><ele>134.0</ele><time>2026-04-06T14:00:46.162Z</time></trkpt><trkpt lat="43.8377376" lon="11.499887"><ele>134.0</ele><time>2026-04-06T14:00:47.16Z</time></trkpt><trkpt lat="43.8376792" lon="11.499723"><ele>133.2</ele><time>2026-04-06T14:00:48.161Z</time></trkpt><trkpt lat="43.8376327" lon="11.4995573"><ele>132.4</ele><time>2026-04-06T14:00:49.139Z</time></trkpt><trkpt lat="43.8375981" lon="11.4994033"><ele>131.6</ele><time>2026-04-06T14:00:50.156Z</time></trkpt><trkpt lat="43.8375648" lon="11.4992781"><ele>130.8</ele><time>2026-04-06T14:00:51.153Z</time></trkpt><trkpt lat="43.8375441" lon="11.4991748"><ele>130.0</ele><time>2026-04-06T14:00:52.168Z</time></trkpt><trkpt lat="43.8375353" lon="11.4990727"><ele>130.0</ele><time>2026-04-06T14:00:53.153Z</time></trkpt><trkpt lat="43.8375473" lon="11.4989424"><ele>130.0</ele><time>2026-04-06T14:00:54.145Z</time></trkpt><trkpt lat="43.8375723" lon="11.4987912"><ele>130.0</ele><time>2026-04-06T14:00:55.147Z</time></trkpt><trkpt lat="43.8375985" lon="11.4986595"><ele>130.0</ele><time>2026-04-06T14:00:56.142Z</time></trkpt><trkpt lat="43.8376084" lon="11.498544"><ele>130.0</ele><time>2026-04-06T14:00:57.163Z</time></trkpt><trkpt lat="43.837595" lon="11.4984401"><ele>129.42857142857144</ele><time>2026-04-06T14:00:58.143Z</time></trkpt><trkpt lat="43.8375524" lon="11.4983554"><ele>128.85714285714286</ele><time>2026-04-06T14:00:59.144Z</time></trkpt><trkpt lat="43.8374948" lon="11.4982931"><ele>128.28571428571428</ele><time>2026-04-06T14:01:00.16Z</time></trkpt><trkpt lat="43.8374308" lon="11.4982583"><ele>127.71428571428572</ele><time>2026-04-06T14:01:01.141Z</time></trkpt><trkpt lat="43.8373593" lon="11.4982488"><ele>127.14285714285714</ele><time>2026-04-06T14:01:02.154Z</time></trkpt><trkpt lat="43.8372925" lon="11.4982686"><ele>126.57142857142857</ele><time>2026-04-06T14:01:03.152Z</time></trkpt><trkpt lat="43.8372258" lon="11.4983214"><ele>126.0</ele><time>2026-04-06T14:01:04.156Z</time></trkpt><trkpt lat="43.8371686" lon="11.49841"><ele>126.0</ele><time>2026-04-06T14:01:05.153Z</time></trkpt><trkpt lat="43.8371104" lon="11.4984881"><ele>126.0</ele><time>2026-04-06T14:01:06.143Z</time></trkpt><trkpt lat="43.837045" lon="11.4985373"><ele>126.0</ele><time>2026-04-06T14:01:07.158Z</time></trkpt><trkpt lat="43.8369734" lon="11.4985539"><ele>126.0</ele><time>2026-04-06T14:01:08.155Z</time></trkpt><trkpt lat="43.8369052" lon="11.4985482"><ele>126.0</ele><time>2026-04-06T14:01:09.156Z</time></trkpt><trkpt lat="43.8367816" lon="11.4985379"><ele>126.0</ele><time>2026-04-06T14:01:11.156Z</time></trkpt><trkpt lat="43.8367075" lon="11.4985325"><ele>125.6</ele><time>2026-04-06T14:01:12.143Z</time></trkpt><trkpt lat="43.8366213" lon="11.498532"><ele>125.19999999999999</ele><time>2026-04-06T14:01:13.161Z</time></trkpt><trkpt lat="43.8365307" lon="11.4985311"><ele>124.80000000000001</ele><time>2026-04-06T14:01:14.156Z</time></trkpt><trkpt lat="43.836435" lon="11.498536"><ele>124.4</ele><time>2026-04-06T14:01:15.157Z</time></trkpt><trkpt lat="43.8363096" lon="11.4985406"><ele>124.0</ele><time>2026-04-06T14:01:16.159Z</time></trkpt><trkpt lat="43.8361708" lon="11.4985464"><ele>124.0</ele><time>2026-04-06T14:01:17.155Z</time></trkpt><trkpt lat="43.8360374" lon="11.4985416"><ele>124.0</ele><time>2026-04-06T14:01:18.148Z</time></trkpt><trkpt lat="43.835916" lon="11.4985466"><ele>124.0</ele><time>2026-04-06T14:01:19.144Z</time></trkpt><trkpt lat="43.835799" lon="11.4985567"><ele>124.0</ele><time>2026-04-06T14:01:20.148Z</time></trkpt><trkpt lat="43.8356879" lon="11.498564"><ele>123.2</ele><time>2026-04-06T14:01:21.141Z</time></trkpt><trkpt lat="43.8355836" lon="11.4985661"><ele>122.4</ele><time>2026-04-06T14:01:22.145Z</time></trkpt><trkpt lat="43.8354867" lon="11.4985666"><ele>121.6</ele><time>2026-04-06T14:01:23.147Z</time></trkpt><trkpt lat="43.8353957" lon="11.4985675"><ele>120.8</ele><time>2026-04-06T14:01:24.155Z</time></trkpt><trkpt lat="43.8353053" lon="11.498571"><ele>120.0</ele><time>2026-04-06T14:01:25.145Z</time></trkpt><trkpt lat="43.8352082" lon="11.4985711"><ele>119.8</ele><time>2026-04-06T14:01:26.146Z</time></trkpt><trkpt lat="43.8351149" lon="11.4985733"><ele>119.6</ele><time>2026-04-06T14:01:27.145Z</time></trkpt><trkpt lat="43.8350179" lon="11.4985767"><ele>119.4</ele><time>2026-04-06T14:01:28.149Z</time></trkpt><trkpt lat="43.8349057" lon="11.4985865"><ele>119.2</ele><time>2026-04-06T14:01:29.144Z</time></trkpt><trkpt lat="43.834781" lon="11.498595"><ele>119.0</ele><time>2026-04-06T14:01:30.157Z</time></trkpt><trkpt lat="43.8346455" lon="11.4986005"><ele>119.0</ele><time>2026-04-06T14:01:31.15Z</time></trkpt><trkpt lat="43.8344936" lon="11.4986028"><ele>119.0</ele><time>2026-04-06T14:01:32.149Z</time></trkpt><trkpt lat="43.8343259" lon="11.4985988"><ele>119.0</ele><time>2026-04-06T14:01:33.144Z</time></trkpt><trkpt lat="43.8341572" lon="11.4985979"><ele>118.66666666666666</ele><time>2026-04-06T14:01:34.151Z</time></trkpt><trkpt lat="43.8339945" lon="11.4986047"><ele>118.33333333333334</ele><time>2026-04-06T14:01:35.16Z</time></trkpt><trkpt lat="43.833836" lon="11.4986092"><ele>118.0</ele><time>2026-04-06T14:01:36.159Z</time></trkpt><trkpt lat="43.8336761" lon="11.4986121"><ele>118.0</ele><time>2026-04-06T14:01:37.155Z</time></trkpt><trkpt lat="43.833526" lon="11.4986131"><ele>118.0</ele><time>2026-04-06T14:01:38.152Z</time></trkpt><trkpt lat="43.833383" lon="11.4986141"><ele>118.0</ele><time>2026-04-06T14:01:39.15Z</time></trkpt><trkpt lat="43.8332455" lon="11.4986136"><ele>118.0</ele><time>2026-04-06T14:01:40.144Z</time></trkpt><trkpt lat="43.8331083" lon="11.4986185"><ele>118.2</ele><time>2026-04-06T14:01:41.157Z</time></trkpt><trkpt lat="43.8329829" lon="11.4986227"><ele>118.4</ele><time>2026-04-06T14:01:42.154Z</time></trkpt><trkpt lat="43.8328646" lon="11.4986278"><ele>118.60000000000001</ele><time>2026-04-06T14:01:43.165Z</time></trkpt><trkpt lat="43.8327593" lon="11.4986292"><ele>118.80000000000001</ele><time>2026-04-06T14:01:44.156Z</time></trkpt><trkpt lat="43.8326651" lon="11.4986326"><ele>119.0</ele><time>2026-04-06T14:01:45.152Z</time></trkpt><trkpt lat="43.832585" lon="11.4986334"><ele>119.4</ele><time>2026-04-06T14:01:46.156Z</time></trkpt><trkpt lat="43.8325085" lon="11.4986363"><ele>119.80000000000001</ele><time>2026-04-06T14:01:47.157Z</time></trkpt><trkpt lat="43.8324142" lon="11.4986383"><ele>120.19999999999999</ele><time>2026-04-06T14:01:48.159Z</time></trkpt><trkpt lat="43.8323019" lon="11.4986282"><ele>120.6</ele><time>2026-04-06T14:01:49.151Z</time></trkpt><trkpt lat="43.8321536" lon="11.4985852"><ele>121.0</ele><time>2026-04-06T14:01:50.162Z</time></trkpt><trkpt lat="43.8320017" lon="11.4985297"><ele>121.0</ele><time>2026-04-06T14:01:51.147Z</time></trkpt><trkpt lat="43.8318406" lon="11.4984818"><ele>121.0</ele><time>2026-04-06T14:01:52.157Z</time></trkpt><trkpt lat="43.8316759" lon="11.4984325"><ele>121.0</ele><time>2026-04-06T14:01:53.156Z</time></trkpt><trkpt lat="43.831522" lon="11.498371"><ele>122.0</ele><time>2026-04-06T14:01:54.158Z</time></trkpt><trkpt lat="43.8313826" lon="11.4982955"><ele>123.0</ele><time>2026-04-06T14:01:55.16Z</time></trkpt><trkpt lat="43.8312568" lon="11.4982229"><ele>124.0</ele><time>2026-04-06T14:01:56.145Z</time></trkpt><trkpt lat="43.8311369" lon="11.4981567"><ele>125.0</ele><time>2026-04-06T14:01:57.156Z</time></trkpt><trkpt lat="43.831011" lon="11.4980902"><ele>126.75</ele><time>2026-04-06T14:01:58.142Z</time></trkpt><trkpt lat="43.8308807" lon="11.4980246"><ele>128.5</ele><time>2026-04-06T14:01:59.142Z</time></trkpt><trkpt lat="43.8307494" lon="11.4979553"><ele>130.25</ele><time>2026-04-06T14:02:00.142Z</time></trkpt><trkpt lat="43.8306186" lon="11.4978837"><ele>132.0</ele><time>2026-04-06T14:02:01.161Z</time></trkpt><trkpt lat="43.8304951" lon="11.497797"><ele>130.33333333333334</ele><time>2026-04-06T14:02:02.155Z</time></trkpt><trkpt lat="43.8303749" lon="11.4976834"><ele>128.66666666666669</ele><time>2026-04-06T14:02:03.155Z</time></trkpt><trkpt lat="43.830254" lon="11.4975562"><ele>127.0</ele><time>2026-04-06T14:02:04.147Z</time></trkpt><trkpt lat="43.8301332" lon="11.4974084"><ele>127.0</ele><time>2026-04-06T14:02:05.149Z</time></trkpt><trkpt lat="43.8300155" lon="11.4972563"><ele>127.0</ele><time>2026-04-06T14:02:06.152Z</time></trkpt><trkpt lat="43.8298918" lon="11.4970955"><ele>127.0</ele><time>2026-04-06T14:02:07.156Z</time></trkpt><trkpt lat="43.8297692" lon="11.4969426"><ele>123.0</ele><time>2026-04-06T14:02:08.144Z</time></trkpt><trkpt lat="43.8296508" lon="11.4967756"><ele>119.0</ele><time>2026-04-06T14:02:09.162Z</time></trkpt><trkpt lat="43.8295288" lon="11.4966216"><ele>115.0</ele><time>2026-04-06T14:02:10.142Z</time></trkpt><trkpt lat="43.8294079" lon="11.4964708"><ele>115.0</ele><time>2026-04-06T14:02:11.145Z</time></trkpt><trkpt lat="43.8292933" lon="11.4963321"><ele>115.0</ele><time>2026-04-06T14:02:12.146Z</time></trkpt><trkpt lat="43.8291918" lon="11.4962033"><ele>115.0</ele><time>2026-04-06T14:02:13.141Z</time></trkpt><trkpt lat="43.829099" lon="11.4960952"><ele>115.0</ele><time>2026-04-06T14:02:14.144Z</time></trkpt><trkpt lat="43.8290133" lon="11.4959825"><ele>115.0</ele><time>2026-04-06T14:02:15.147Z</time></trkpt><trkpt lat="43.8289301" lon="11.4958773"><ele>115.0</ele><time>2026-04-06T14:02:16.145Z</time></trkpt><trkpt lat="43.8288514" lon="11.4957706"><ele>115.0</ele><time>2026-04-06T14:02:17.146Z</time></trkpt><trkpt lat="43.8287706" lon="11.4956575"><ele>115.0</ele><time>2026-04-06T14:02:18.148Z</time></trkpt><trkpt lat="43.8286822" lon="11.4955316"><ele>114.25</ele><time>2026-04-06T14:02:19.138Z</time></trkpt><trkpt lat="43.8285887" lon="11.4953944"><ele>113.5</ele><time>2026-04-06T14:02:20.141Z</time></trkpt><trkpt lat="43.8284955" lon="11.4952387"><ele>112.75</ele><time>2026-04-06T14:02:21.149Z</time></trkpt><trkpt lat="43.8284147" lon="11.4950584"><ele>112.0</ele><time>2026-04-06T14:02:22.141Z</time></trkpt><trkpt lat="43.8283386" lon="11.4948698"><ele>113.33333333333334</ele><time>2026-04-06T14:02:23.159Z</time></trkpt><trkpt lat="43.8282722" lon="11.4946749"><ele>114.66666666666666</ele><time>2026-04-06T14:02:24.14Z</time></trkpt><trkpt lat="43.8282143" lon="11.4944761"><ele>116.0</ele><time>2026-04-06T14:02:25.142Z</time></trkpt><trkpt lat="43.8281638" lon="11.4942804"><ele>116.0</ele><time>2026-04-06T14:02:26.142Z</time></trkpt><trkpt lat="43.8281148" lon="11.4940829"><ele>116.0</ele><time>2026-04-06T14:02:27.142Z</time></trkpt><trkpt lat="43.8280616" lon="11.4938906"><ele>116.0</ele><time>2026-04-06T14:02:28.152Z</time></trkpt><trkpt lat="43.8280077" lon="11.4936995"><ele>116.0</ele><time>2026-04-06T14:02:29.142Z</time></trkpt><trkpt lat="43.8279495" lon="11.4935082"><ele>115.5</ele><time>2026-04-06T14:02:30.155Z</time></trkpt><trkpt lat="43.8278943" lon="11.4933137"><ele>115.0</ele><time>2026-04-06T14:02:31.15Z</time></trkpt><trkpt lat="43.8278341" lon="11.4931231"><ele>114.5</ele><time>2026-04-06T14:02:32.147Z</time></trkpt><trkpt lat="43.8277719" lon="11.4929403"><ele>114.0</ele><time>2026-04-06T14:02:33.16Z</time></trkpt><trkpt lat="43.8277097" lon="11.4927651"><ele>113.75</ele><time>2026-04-06T14:02:34.15Z</time></trkpt><trkpt lat="43.8276572" lon="11.4925976"><ele>113.5</ele><time>2026-04-06T14:02:35.157Z</time></trkpt><trkpt lat="43.8276003" lon="11.4924253"><ele>113.25</ele><time>2026-04-06T14:02:36.153Z</time></trkpt><trkpt lat="43.8275416" lon="11.4922521"><ele>113.0</ele><time>2026-04-06T14:02:37.156Z</time></trkpt><trkpt lat="43.8274823" lon="11.4920829"><ele>114.0</ele><time>2026-04-06T14:02:38.161Z</time></trkpt><trkpt lat="43.8274295" lon="11.4919219"><ele>115.0</ele><time>2026-04-06T14:02:39.152Z</time></trkpt><trkpt lat="43.8273778" lon="11.4917758"><ele>116.0</ele><time>2026-04-06T14:02:40.165Z</time></trkpt><trkpt lat="43.8273235" lon="11.4916245"><ele>117.0</ele><time>2026-04-06T14:02:41.151Z</time></trkpt><trkpt lat="43.8272674" lon="11.4914803"><ele>117.0</ele><time>2026-04-06T14:02:42.154Z</time></trkpt><trkpt lat="43.8272153" lon="11.491341"><ele>116.99999999999999</ele><time>2026-04-06T14:02:43.161Z</time></trkpt><trkpt lat="43.8271738" lon="11.4912093"><ele>116.99999999999999</ele><time>2026-04-06T14:02:44.149Z</time></trkpt><trkpt lat="43.8271414" lon="11.491086"><ele>117.0</ele><time>2026-04-06T14:02:45.149Z</time></trkpt><trkpt lat="43.8271268" lon="11.490976"><ele>117.0</ele><time>2026-04-06T14:02:46.164Z</time></trkpt><trkpt lat="43.8271181" lon="11.4908478"><ele>117.19999999999999</ele><time>2026-04-06T14:02:47.158Z</time></trkpt><trkpt lat="43.8271451" lon="11.4907102"><ele>117.39999999999999</ele><time>2026-04-06T14:02:48.149Z</time></trkpt><trkpt lat="43.8272015" lon="11.4905615"><ele>117.60000000000001</ele><time>2026-04-06T14:02:49.148Z</time></trkpt><trkpt lat="43.8272562" lon="11.4904196"><ele>117.80000000000001</ele><time>2026-04-06T14:02:50.146Z</time></trkpt><trkpt lat="43.8273105" lon="11.490288"><ele>118.0</ele><time>2026-04-06T14:02:51.156Z</time></trkpt><trkpt lat="43.827337" lon="11.490147"><ele>118.0</ele><time>2026-04-06T14:02:52.142Z</time></trkpt><trkpt lat="43.8273333" lon="11.4900036"><ele>118.0</ele><time>2026-04-06T14:02:53.142Z</time></trkpt><trkpt lat="43.8273057" lon="11.4898406"><ele>118.0</ele><time>2026-04-06T14:02:54.142Z</time></trkpt><trkpt lat="43.8272654" lon="11.4896707"><ele>118.0</ele><time>2026-04-06T14:02:55.166Z</time></trkpt><trkpt lat="43.8272247" lon="11.4895015"><ele>117.60000000000001</ele><time>2026-04-06T14:02:56.157Z</time></trkpt><trkpt lat="43.8271735" lon="11.4893479"><ele>117.20000000000002</ele><time>2026-04-06T14:02:57.153Z</time></trkpt><trkpt lat="43.8271161" lon="11.4892095"><ele>116.8</ele><time>2026-04-06T14:02:58.152Z</time></trkpt><trkpt lat="43.8270651" lon="11.4890784"><ele>116.4</ele><time>2026-04-06T14:02:59.145Z</time></trkpt><trkpt lat="43.827025" lon="11.4889552"><ele>116.0</ele><time>2026-04-06T14:03:00.141Z</time></trkpt><trkpt lat="43.826976" lon="11.4888433"><ele>116.0</ele><time>2026-04-06T14:03:01.157Z</time></trkpt><trkpt lat="43.8269398" lon="11.4887325"><ele>116.0</ele><time>2026-04-06T14:03:02.139Z</time></trkpt><trkpt lat="43.8268987" lon="11.4886122"><ele>116.0</ele><time>2026-04-06T14:03:03.16Z</time></trkpt><trkpt lat="43.8268623" lon="11.4884963"><ele>116.0</ele><time>2026-04-06T14:03:04.139Z</time></trkpt><trkpt lat="43.8268398" lon="11.4883764"><ele>116.0</ele><time>2026-04-06T14:03:05.154Z</time></trkpt><trkpt lat="43.8268113" lon="11.48825"><ele>115.83333333333333</ele><time>2026-04-06T14:03:06.157Z</time></trkpt><trkpt lat="43.8267709" lon="11.4881405"><ele>115.66666666666666</ele><time>2026-04-06T14:03:07.15Z</time></trkpt><trkpt lat="43.826733" lon="11.4880413"><ele>115.5</ele><time>2026-04-06T14:03:08.149Z</time></trkpt><trkpt lat="43.8267006" lon="11.4879408"><ele>115.33333333333334</ele><time>2026-04-06T14:03:09.152Z</time></trkpt><trkpt lat="43.8266565" lon="11.4878416"><ele>115.16666666666667</ele><time>2026-04-06T14:03:10.155Z</time></trkpt><trkpt lat="43.8265776" lon="11.4877644"><ele>115.0</ele><time>2026-04-06T14:03:11.157Z</time></trkpt><trkpt lat="43.8264753" lon="11.4877109"><ele>114.83333333333334</ele><time>2026-04-06T14:03:12.145Z</time></trkpt><trkpt lat="43.8263753" lon="11.4876714"><ele>114.66666666666667</ele><time>2026-04-06T14:03:13.156Z</time></trkpt><trkpt lat="43.8262785" lon="11.4876374"><ele>114.5</ele><time>2026-04-06T14:03:14.158Z</time></trkpt><trkpt lat="43.8262148" lon="11.4876"><ele>114.33333333333334</ele><time>2026-04-06T14:03:15.156Z</time></trkpt><trkpt lat="43.826174" lon="11.4874851"><ele>114.16666666666667</ele><time>2026-04-06T14:03:17.147Z</time></trkpt><trkpt lat="43.8261802" lon="11.4873859"><ele>114.0</ele><time>2026-04-06T14:03:19.157Z</time></trkpt><trkpt lat="43.826149" lon="11.487289"><ele>114.0</ele><time>2026-04-06T14:03:23.158Z</time></trkpt><trkpt lat="43.8260598" lon="11.4872408"><ele>114.0</ele><time>2026-04-06T14:03:28.153Z</time></trkpt><trkpt lat="43.8259701" lon="11.4873006"><ele>114.0</ele><time>2026-04-06T14:03:30.157Z</time></trkpt><trkpt lat="43.8259064" lon="11.4873745"><ele>114.0</ele><time>2026-04-06T14:03:32.14Z</time></trkpt><trkpt lat="43.8258215" lon="11.4873954"><ele>114.0</ele><time>2026-04-06T14:03:34.156Z</time></trkpt><trkpt lat="43.8257504" lon="11.4873686"><ele>114.0</ele><time>2026-04-06T14:03:36.166Z</time></trkpt><trkpt lat="43.8256598" lon="11.4873394"><ele>114.2</ele><time>2026-04-06T14:03:38.152Z</time></trkpt><trkpt lat="43.8255903" lon="11.4873176"><ele>114.4</ele><time>2026-04-06T14:03:39.156Z</time></trkpt><trkpt lat="43.8255106" lon="11.4872722"><ele>114.6</ele><time>2026-04-06T14:03:40.147Z</time></trkpt><trkpt lat="43.8254142" lon="11.4872263"><ele>114.8</ele><time>2026-04-06T14:03:41.157Z</time></trkpt><trkpt lat="43.8253163" lon="11.4871737"><ele>115.0</ele><time>2026-04-06T14:03:42.148Z</time></trkpt><trkpt lat="43.8252205" lon="11.4871266"><ele>114.4</ele><time>2026-04-06T14:03:43.154Z</time></trkpt><trkpt lat="43.8251267" lon="11.4870746"><ele>113.8</ele><time>2026-04-06T14:03:44.143Z</time></trkpt><trkpt lat="43.8250344" lon="11.4870244"><ele>113.19999999999999</ele><time>2026-04-06T14:03:45.152Z</time></trkpt><trkpt lat="43.8249385" lon="11.4869775"><ele>112.6</ele><time>2026-04-06T14:03:46.155Z</time></trkpt><trkpt lat="43.8248463" lon="11.4869296"><ele>112.0</ele><time>2026-04-06T14:03:47.145Z</time></trkpt><trkpt lat="43.8247625" lon="11.4868939"><ele>112.0</ele><time>2026-04-06T14:03:48.16Z</time></trkpt><trkpt lat="43.8246761" lon="11.4868454"><ele>111.99999999999999</ele><time>2026-04-06T14:03:49.148Z</time></trkpt><trkpt lat="43.8245887" lon="11.4868046"><ele>111.99999999999999</ele><time>2026-04-06T14:03:50.146Z</time></trkpt><trkpt lat="43.8244919" lon="11.4867614"><ele>112.0</ele><time>2026-04-06T14:03:51.152Z</time></trkpt><trkpt lat="43.8244047" lon="11.4867189"><ele>112.0</ele><time>2026-04-06T14:03:52.151Z</time></trkpt><trkpt lat="43.8243001" lon="11.486669"><ele>112.19999999999999</ele><time>2026-04-06T14:03:53.152Z</time></trkpt><trkpt lat="43.8241968" lon="11.4866298"><ele>112.39999999999999</ele><time>2026-04-06T14:03:54.159Z</time></trkpt><trkpt lat="43.8240883" lon="11.4865902"><ele>112.60000000000001</ele><time>2026-04-06T14:03:55.153Z</time></trkpt><trkpt lat="43.8239868" lon="11.4865456"><ele>112.80000000000001</ele><time>2026-04-06T14:03:56.151Z</time></trkpt><trkpt lat="43.8238831" lon="11.4864969"><ele>113.0</ele><time>2026-04-06T14:03:57.142Z</time></trkpt><trkpt lat="43.8237915" lon="11.486447"><ele>113.0</ele><time>2026-04-06T14:03:58.15Z</time></trkpt><trkpt lat="43.8236982" lon="11.4864107"><ele>113.00000000000001</ele><time>2026-04-06T14:03:59.157Z</time></trkpt><trkpt lat="43.8236127" lon="11.486371"><ele>113.00000000000001</ele><time>2026-04-06T14:04:00.158Z</time></trkpt><trkpt lat="43.8235175" lon="11.486318"><ele>113.0</ele><time>2026-04-06T14:04:01.154Z</time></trkpt><trkpt lat="43.8234201" lon="11.4862722"><ele>113.0</ele><time>2026-04-06T14:04:02.153Z</time></trkpt><trkpt lat="43.8233216" lon="11.4862233"><ele>112.25</ele><time>2026-04-06T14:04:03.142Z</time></trkpt><trkpt lat="43.8232091" lon="11.4861659"><ele>111.5</ele><time>2026-04-06T14:04:04.153Z</time></trkpt><trkpt lat="43.8230935" lon="11.4861082"><ele>110.75</ele><time>2026-04-06T14:04:05.157Z</time></trkpt><trkpt lat="43.8229735" lon="11.4860515"><ele>110.0</ele><time>2026-04-06T14:04:06.15Z</time></trkpt><trkpt lat="43.8228588" lon="11.4859952"><ele>110.0</ele><time>2026-04-06T14:04:07.154Z</time></trkpt><trkpt lat="43.822737" lon="11.4859447"><ele>110.0</ele><time>2026-04-06T14:04:08.159Z</time></trkpt><trkpt lat="43.8226185" lon="11.4858919"><ele>110.0</ele><time>2026-04-06T14:04:09.151Z</time></trkpt><trkpt lat="43.8224969" lon="11.48583"><ele>110.0</ele><time>2026-04-06T14:04:10.156Z</time></trkpt><trkpt lat="43.8223783" lon="11.4857722"><ele>110.0</ele><time>2026-04-06T14:04:11.165Z</time></trkpt><trkpt lat="43.8222503" lon="11.4857084"><ele>110.0</ele><time>2026-04-06T14:04:12.141Z</time></trkpt><trkpt lat="43.822112" lon="11.485649"><ele>110.0</ele><time>2026-04-06T14:04:13.141Z</time></trkpt><trkpt lat="43.8219791" lon="11.4855844"><ele>110.0</ele><time>2026-04-06T14:04:14.14Z</time></trkpt><trkpt lat="43.8218486" lon="11.485527"><ele>110.0</ele><time>2026-04-06T14:04:15.159Z</time></trkpt><trkpt lat="43.8217272" lon="11.4854679"><ele>110.0</ele><time>2026-04-06T14:04:16.159Z</time></trkpt><trkpt lat="43.8216112" lon="11.4854132"><ele>110.0</ele><time>2026-04-06T14:04:17.155Z</time></trkpt><trkpt lat="43.821502" lon="11.4853601"><ele>110.0</ele><time>2026-04-06T14:04:18.142Z</time></trkpt><trkpt lat="43.821395" lon="11.4853078"><ele>110.0</ele><time>2026-04-06T14:04:19.144Z</time></trkpt><trkpt lat="43.8212808" lon="11.4852628"><ele>110.0</ele><time>2026-04-06T14:04:20.149Z</time></trkpt><trkpt lat="43.8211633" lon="11.4852093"><ele>110.0</ele><time>2026-04-06T14:04:21.146Z</time></trkpt><trkpt lat="43.8210455" lon="11.4851559"><ele>110.0</ele><time>2026-04-06T14:04:22.142Z</time></trkpt><trkpt lat="43.8209277" lon="11.4851021"><ele>110.0</ele><time>2026-04-06T14:04:23.145Z</time></trkpt><trkpt lat="43.8208098" lon="11.4850468"><ele>110.0</ele><time>2026-04-06T14:04:24.151Z</time></trkpt><trkpt lat="43.8206913" lon="11.4849874"><ele>110.0</ele><time>2026-04-06T14:04:25.149Z</time></trkpt><trkpt lat="43.8205706" lon="11.4849268"><ele>110.0</ele><time>2026-04-06T14:04:26.147Z</time></trkpt><trkpt lat="43.8204529" lon="11.484868"><ele>110.0</ele><time>2026-04-06T14:04:27.148Z</time></trkpt><trkpt lat="43.8203418" lon="11.4848096"><ele>110.0</ele><time>2026-04-06T14:04:28.144Z</time></trkpt><trkpt lat="43.8202248" lon="11.4847565"><ele>110.0</ele><time>2026-04-06T14:04:29.144Z</time></trkpt><trkpt lat="43.8201097" lon="11.4847013"><ele>110.0</ele><time>2026-04-06T14:04:30.142Z</time></trkpt><trkpt lat="43.8199835" lon="11.4846401"><ele>109.75</ele><time>2026-04-06T14:04:31.152Z</time></trkpt><trkpt lat="43.8198585" lon="11.4845908"><ele>109.5</ele><time>2026-04-06T14:04:32.139Z</time></trkpt><trkpt lat="43.8197221" lon="11.4845294"><ele>109.25</ele><time>2026-04-06T14:04:33.147Z</time></trkpt><trkpt lat="43.8195788" lon="11.4844566"><ele>109.0</ele><time>2026-04-06T14:04:34.147Z</time></trkpt><trkpt lat="43.8194393" lon="11.4843863"><ele>109.0</ele><time>2026-04-06T14:04:35.155Z</time></trkpt><trkpt lat="43.819289" lon="11.4843181"><ele>109.0</ele><time>2026-04-06T14:04:36.158Z</time></trkpt><trkpt lat="43.8191391" lon="11.4842454"><ele>109.0</ele><time>2026-04-06T14:04:37.162Z</time></trkpt><trkpt lat="43.8189885" lon="11.484171"><ele>109.0</ele><time>2026-04-06T14:04:38.153Z</time></trkpt><trkpt lat="43.8188408" lon="11.4841003"><ele>109.0</ele><time>2026-04-06T14:04:39.158Z</time></trkpt><trkpt lat="43.8186901" lon="11.4840346"><ele>109.0</ele><time>2026-04-06T14:04:40.159Z</time></trkpt><trkpt lat="43.8185379" lon="11.4839578"><ele>108.66666666666667</ele><time>2026-04-06T14:04:41.152Z</time></trkpt><trkpt lat="43.8183818" lon="11.4838851"><ele>108.33333333333334</ele><time>2026-04-06T14:04:42.159Z</time></trkpt><trkpt lat="43.8182248" lon="11.4838139"><ele>108.0</ele><time>2026-04-06T14:04:43.141Z</time></trkpt><trkpt lat="43.8180741" lon="11.483743"><ele>107.66666666666666</ele><time>2026-04-06T14:04:44.149Z</time></trkpt><trkpt lat="43.8179237" lon="11.4836702"><ele>107.33333333333333</ele><time>2026-04-06T14:04:45.162Z</time></trkpt><trkpt lat="43.8177758" lon="11.4835938"><ele>107.0</ele><time>2026-04-06T14:04:46.155Z</time></trkpt><trkpt lat="43.8176333" lon="11.4835163"><ele>107.0</ele><time>2026-04-06T14:04:47.161Z</time></trkpt><trkpt lat="43.8174869" lon="11.4834374"><ele>107.0</ele><time>2026-04-06T14:04:48.164Z</time></trkpt><trkpt lat="43.8173393" lon="11.4833706"><ele>107.0</ele><time>2026-04-06T14:04:49.161Z</time></trkpt><trkpt lat="43.817182" lon="11.4832969"><ele>107.0</ele><time>2026-04-06T14:04:50.151Z</time></trkpt><trkpt lat="43.8170331" lon="11.4832221"><ele>107.0</ele><time>2026-04-06T14:04:51.162Z</time></trkpt><trkpt lat="43.8168795" lon="11.4831571"><ele>107.0</ele><time>2026-04-06T14:04:52.16Z</time></trkpt><trkpt lat="43.8167261" lon="11.4830856"><ele>107.66666666666666</ele><time>2026-04-06T14:04:53.166Z</time></trkpt><trkpt lat="43.8165737" lon="11.4830118"><ele>108.33333333333334</ele><time>2026-04-06T14:04:54.175Z</time></trkpt><trkpt lat="43.816434" lon="11.4829333"><ele>109.0</ele><time>2026-04-06T14:04:55.159Z</time></trkpt><trkpt lat="43.8162951" lon="11.482853"><ele>109.0</ele><time>2026-04-06T14:04:56.155Z</time></trkpt><trkpt lat="43.8161599" lon="11.482761"><ele>109.0</ele><time>2026-04-06T14:04:57.169Z</time></trkpt><trkpt lat="43.8160295" lon="11.4826554"><ele>109.0</ele><time>2026-04-06T14:04:58.14Z</time></trkpt><trkpt lat="43.8159081" lon="11.4825386"><ele>109.0</ele><time>2026-04-06T14:04:59.156Z</time></trkpt><trkpt lat="43.8157937" lon="11.4824202"><ele>109.25</ele><time>2026-04-06T14:05:00.158Z</time></trkpt><trkpt lat="43.8156877" lon="11.482289"><ele>109.5</ele><time>2026-04-06T14:05:01.154Z</time></trkpt><trkpt lat="43.8155797" lon="11.4821618"><ele>109.75</ele><time>2026-04-06T14:05:02.157Z</time></trkpt><trkpt lat="43.8154623" lon="11.4820233"><ele>110.0</ele><time>2026-04-06T14:05:03.155Z</time></trkpt><trkpt lat="43.8153439" lon="11.4818833"><ele>109.33333333333333</ele><time>2026-04-06T14:05:04.165Z</time></trkpt><trkpt lat="43.8152245" lon="11.4817394"><ele>108.66666666666666</ele><time>2026-04-06T14:05:05.155Z</time></trkpt><trkpt lat="43.8151051" lon="11.4816012"><ele>108.0</ele><time>2026-04-06T14:05:06.152Z</time></trkpt><trkpt lat="43.8149876" lon="11.4814599"><ele>107.33333333333334</ele><time>2026-04-06T14:05:07.159Z</time></trkpt><trkpt lat="43.8148662" lon="11.4813215"><ele>106.66666666666667</ele><time>2026-04-06T14:05:08.159Z</time></trkpt><trkpt lat="43.8147511" lon="11.4811892"><ele>106.0</ele><time>2026-04-06T14:05:09.158Z</time></trkpt><trkpt lat="43.8146368" lon="11.4810535"><ele>106.0</ele><time>2026-04-06T14:05:10.155Z</time></trkpt><trkpt lat="43.8145253" lon="11.4809185"><ele>106.0</ele><time>2026-04-06T14:05:11.144Z</time></trkpt><trkpt lat="43.814411" lon="11.4807886"><ele>106.0</ele><time>2026-04-06T14:05:12.154Z</time></trkpt><trkpt lat="43.8142979" lon="11.4806544"><ele>106.0</ele><time>2026-04-06T14:05:13.154Z</time></trkpt><trkpt lat="43.814179" lon="11.4805282"><ele>105.66666666666667</ele><time>2026-04-06T14:05:14.156Z</time></trkpt><trkpt lat="43.8140613" lon="11.4803982"><ele>105.33333333333334</ele><time>2026-04-06T14:05:15.161Z</time></trkpt><trkpt lat="43.8139454" lon="11.480262"><ele>105.0</ele><time>2026-04-06T14:05:16.142Z</time></trkpt><trkpt lat="43.8138317" lon="11.4801278"><ele>105.0</ele><time>2026-04-06T14:05:17.142Z</time></trkpt><trkpt lat="43.8137239" lon="11.4800012"><ele>105.0</ele><time>2026-04-06T14:05:18.141Z</time></trkpt><trkpt lat="43.813613" lon="11.4798759"><ele>105.0</ele><time>2026-04-06T14:05:19.143Z</time></trkpt><trkpt lat="43.8135042" lon="11.4797512"><ele>105.0</ele><time>2026-04-06T14:05:20.159Z</time></trkpt><trkpt lat="43.8133953" lon="11.4796268"><ele>104.5</ele><time>2026-04-06T14:05:21.162Z</time></trkpt><trkpt lat="43.8132876" lon="11.4794996"><ele>104.0</ele><time>2026-04-06T14:05:22.148Z</time></trkpt><trkpt lat="43.8131812" lon="11.4793722"><ele>103.5</ele><time>2026-04-06T14:05:23.154Z</time></trkpt><trkpt lat="43.8130754" lon="11.479239"><ele>103.0</ele><time>2026-04-06T14:05:24.158Z</time></trkpt><trkpt lat="43.8129638" lon="11.4791161"><ele>103.0</ele><time>2026-04-06T14:05:25.159Z</time></trkpt><trkpt lat="43.8128513" lon="11.4789885"><ele>103.0</ele><time>2026-04-06T14:05:26.154Z</time></trkpt><trkpt lat="43.8127394" lon="11.4788604"><ele>103.0</ele><time>2026-04-06T14:05:27.145Z</time></trkpt><trkpt lat="43.812625" lon="11.4787321"><ele>103.0</ele><time>2026-04-06T14:05:28.148Z</time></trkpt><trkpt lat="43.8125112" lon="11.4786026"><ele>103.0</ele><time>2026-04-06T14:05:29.156Z</time></trkpt><trkpt lat="43.8123961" lon="11.4784659"><ele>103.0</ele><time>2026-04-06T14:05:30.157Z</time></trkpt><trkpt lat="43.8122805" lon="11.4783308"><ele>103.0</ele><time>2026-04-06T14:05:31.15Z</time></trkpt><trkpt lat="43.8121633" lon="11.478199"><ele>103.0</ele><time>2026-04-06T14:05:32.146Z</time></trkpt><trkpt lat="43.8120506" lon="11.4780658"><ele>103.0</ele><time>2026-04-06T14:05:33.157Z</time></trkpt><trkpt lat="43.811937" lon="11.4779306"><ele>103.0</ele><time>2026-04-06T14:05:34.145Z</time></trkpt><trkpt lat="43.8118319" lon="11.4777947"><ele>103.0</ele><time>2026-04-06T14:05:35.162Z</time></trkpt><trkpt lat="43.8117304" lon="11.4776518"><ele>103.5</ele><time>2026-04-06T14:05:36.16Z</time></trkpt><trkpt lat="43.8116276" lon="11.4775082"><ele>104.0</ele><time>2026-04-06T14:05:37.152Z</time></trkpt><trkpt lat="43.8115292" lon="11.4773634"><ele>104.5</ele><time>2026-04-06T14:05:38.155Z</time></trkpt><trkpt lat="43.8114304" lon="11.4772157"><ele>105.0</ele><time>2026-04-06T14:05:39.155Z</time></trkpt><trkpt lat="43.8113335" lon="11.477066"><ele>105.0</ele><time>2026-04-06T14:05:40.162Z</time></trkpt><trkpt lat="43.8112349" lon="11.4769144"><ele>105.0</ele><time>2026-04-06T14:05:41.155Z</time></trkpt><trkpt lat="43.811136" lon="11.4767555"><ele>105.0</ele><time>2026-04-06T14:05:42.159Z</time></trkpt><trkpt lat="43.811034" lon="11.4765908"><ele>104.66666666666666</ele><time>2026-04-06T14:05:43.149Z</time></trkpt><trkpt lat="43.8109271" lon="11.4764172"><ele>104.33333333333333</ele><time>2026-04-06T14:05:44.162Z</time></trkpt><trkpt lat="43.8108196" lon="11.4762511"><ele>104.0</ele><time>2026-04-06T14:05:45.152Z</time></trkpt><trkpt lat="43.8107108" lon="11.4760839"><ele>104.0</ele><time>2026-04-06T14:05:46.135Z</time></trkpt><trkpt lat="43.8106022" lon="11.4759204"><ele>104.0</ele><time>2026-04-06T14:05:47.153Z</time></trkpt><trkpt lat="43.8104954" lon="11.4757488"><ele>104.0</ele><time>2026-04-06T14:05:48.158Z</time></trkpt><trkpt lat="43.8103862" lon="11.4755812"><ele>104.33333333333333</ele><time>2026-04-06T14:05:49.157Z</time></trkpt><trkpt lat="43.8102715" lon="11.4754128"><ele>104.66666666666666</ele><time>2026-04-06T14:05:50.155Z</time></trkpt><trkpt lat="43.8101641" lon="11.4752474"><ele>105.0</ele><time>2026-04-06T14:05:51.152Z</time></trkpt><trkpt lat="43.8100485" lon="11.475088"><ele>105.0</ele><time>2026-04-06T14:05:52.15Z</time></trkpt><trkpt lat="43.8099373" lon="11.4749345"><ele>105.0</ele><time>2026-04-06T14:05:53.147Z</time></trkpt><trkpt lat="43.8098255" lon="11.4747829"><ele>105.0</ele><time>2026-04-06T14:05:54.145Z</time></trkpt><trkpt lat="43.8097161" lon="11.4746306"><ele>104.33333333333334</ele><time>2026-04-06T14:05:55.145Z</time></trkpt><trkpt lat="43.8096069" lon="11.4744892"><ele>103.66666666666667</ele><time>2026-04-06T14:05:56.142Z</time></trkpt><trkpt lat="43.809496" lon="11.474343"><ele>103.0</ele><time>2026-04-06T14:05:57.143Z</time></trkpt><trkpt lat="43.8093823" lon="11.4741965"><ele>103.66666666666667</ele><time>2026-04-06T14:05:58.154Z</time></trkpt><trkpt lat="43.8092644" lon="11.4740611"><ele>104.33333333333334</ele><time>2026-04-06T14:05:59.148Z</time></trkpt><trkpt lat="43.8091399" lon="11.4739487"><ele>105.0</ele><time>2026-04-06T14:06:00.157Z</time></trkpt><trkpt lat="43.8090104" lon="11.4738391"><ele>104.0</ele><time>2026-04-06T14:06:01.143Z</time></trkpt><trkpt lat="43.8088876" lon="11.4737472"><ele>103.0</ele><time>2026-04-06T14:06:02.142Z</time></trkpt><trkpt lat="43.8087608" lon="11.473667"><ele>102.0</ele><time>2026-04-06T14:06:03.139Z</time></trkpt><trkpt lat="43.8086373" lon="11.4735885"><ele>101.0</ele><time>2026-04-06T14:06:04.145Z</time></trkpt><trkpt lat="43.808515" lon="11.4735019"><ele>101.33333333333333</ele><time>2026-04-06T14:06:05.152Z</time></trkpt><trkpt lat="43.8083847" lon="11.473401"><ele>101.66666666666666</ele><time>2026-04-06T14:06:06.153Z</time></trkpt><trkpt lat="43.8082528" lon="11.4732807"><ele>102.0</ele><time>2026-04-06T14:06:07.148Z</time></trkpt><trkpt lat="43.8081163" lon="11.4731348"><ele>102.0</ele><time>2026-04-06T14:06:08.153Z</time></trkpt><trkpt lat="43.8079819" lon="11.4729813"><ele>102.0</ele><time>2026-04-06T14:06:09.153Z</time></trkpt><trkpt lat="43.8078508" lon="11.472818"><ele>102.0</ele><time>2026-04-06T14:06:10.148Z</time></trkpt><trkpt lat="43.8077145" lon="11.4726547"><ele>102.33333333333334</ele><time>2026-04-06T14:06:11.144Z</time></trkpt><trkpt lat="43.8075796" lon="11.4724833"><ele>102.66666666666667</ele><time>2026-04-06T14:06:12.153Z</time></trkpt><trkpt lat="43.8074306" lon="11.4723081"><ele>103.0</ele><time>2026-04-06T14:06:13.146Z</time></trkpt><trkpt lat="43.8072677" lon="11.4721095"><ele>100.5</ele><time>2026-04-06T14:06:14.15Z</time></trkpt><trkpt lat="43.80709" lon="11.4718902"><ele>98.0</ele><time>2026-04-06T14:06:15.15Z</time></trkpt><trkpt lat="43.8069048" lon="11.4716585"><ele>99.0</ele><time>2026-04-06T14:06:16.136Z</time></trkpt><trkpt lat="43.8067168" lon="11.4714252"><ele>100.0</ele><time>2026-04-06T14:06:17.147Z</time></trkpt><trkpt lat="43.8065339" lon="11.4711917"><ele>100.0</ele><time>2026-04-06T14:06:18.15Z</time></trkpt><trkpt lat="43.8063615" lon="11.4709679"><ele>100.0</ele><time>2026-04-06T14:06:19.155Z</time></trkpt><trkpt lat="43.8061927" lon="11.4707575"><ele>100.0</ele><time>2026-04-06T14:06:20.152Z</time></trkpt><trkpt lat="43.8060327" lon="11.4705619"><ele>100.0</ele><time>2026-04-06T14:06:21.159Z</time></trkpt><trkpt lat="43.8058771" lon="11.4703882"><ele>100.0</ele><time>2026-04-06T14:06:22.149Z</time></trkpt><trkpt lat="43.8057085" lon="11.4702225"><ele>100.0</ele><time>2026-04-06T14:06:23.141Z</time></trkpt><trkpt lat="43.8055244" lon="11.4700859"><ele>100.0</ele><time>2026-04-06T14:06:24.156Z</time></trkpt><trkpt lat="43.8053208" lon="11.469966"><ele>100.0</ele><time>2026-04-06T14:06:25.147Z</time></trkpt><trkpt lat="43.8051083" lon="11.4698714"><ele>99.66666666666667</ele><time>2026-04-06T14:06:26.146Z</time></trkpt><trkpt lat="43.8048905" lon="11.4698075"><ele>99.33333333333334</ele><time>2026-04-06T14:06:27.144Z</time></trkpt><trkpt lat="43.8046663" lon="11.4697682"><ele>99.0</ele><time>2026-04-06T14:06:28.156Z</time></trkpt><trkpt lat="43.8044208" lon="11.4697522"><ele>99.5</ele><time>2026-04-06T14:06:29.147Z</time></trkpt><trkpt lat="43.8041603" lon="11.4697413"><ele>100.0</ele><time>2026-04-06T14:06:30.146Z</time></trkpt><trkpt lat="43.803896" lon="11.4697357"><ele>100.0</ele><time>2026-04-06T14:06:31.154Z</time></trkpt><trkpt lat="43.8036388" lon="11.4697253"><ele>100.0</ele><time>2026-04-06T14:06:32.144Z</time></trkpt><trkpt lat="43.8033976" lon="11.469716"><ele>99.66666666666667</ele><time>2026-04-06T14:06:33.151Z</time></trkpt><trkpt lat="43.8031749" lon="11.4696966"><ele>99.33333333333334</ele><time>2026-04-06T14:06:34.151Z</time></trkpt><trkpt lat="43.8029654" lon="11.4696842"><ele>99.0</ele><time>2026-04-06T14:06:35.155Z</time></trkpt><trkpt lat="43.8027638" lon="11.4696781"><ele>98.33333333333334</ele><time>2026-04-06T14:06:36.16Z</time></trkpt><trkpt lat="43.8025769" lon="11.4696663"><ele>97.66666666666667</ele><time>2026-04-06T14:06:37.139Z</time></trkpt><trkpt lat="43.8024011" lon="11.4696425"><ele>97.0</ele><time>2026-04-06T14:06:38.152Z</time></trkpt><trkpt lat="43.8022319" lon="11.4695863"><ele>97.0</ele><time>2026-04-06T14:06:39.152Z</time></trkpt><trkpt lat="43.8020942" lon="11.4694849"><ele>97.0</ele><time>2026-04-06T14:06:40.137Z</time></trkpt><trkpt lat="43.8019938" lon="11.4693201"><ele>97.0</ele><time>2026-04-06T14:06:41.142Z</time></trkpt><trkpt lat="43.8019019" lon="11.4691118"><ele>98.0</ele><time>2026-04-06T14:06:42.149Z</time></trkpt><trkpt lat="43.801799" lon="11.4689034"><ele>99.0</ele><time>2026-04-06T14:06:43.153Z</time></trkpt><trkpt lat="43.8016803" lon="11.4686718"><ele>100.0</ele><time>2026-04-06T14:06:44.148Z</time></trkpt><trkpt lat="43.8015582" lon="11.4684312"><ele>100.0</ele><time>2026-04-06T14:06:45.148Z</time></trkpt><trkpt lat="43.8014213" lon="11.4681721"><ele>100.0</ele><time>2026-04-06T14:06:46.153Z</time></trkpt><trkpt lat="43.80128" lon="11.4679053"><ele>99.0</ele><time>2026-04-06T14:06:47.146Z</time></trkpt><trkpt lat="43.801114" lon="11.4676589"><ele>98.0</ele><time>2026-04-06T14:06:48.144Z</time></trkpt><trkpt lat="43.8009545" lon="11.4674179"><ele>97.5</ele><time>2026-04-06T14:06:49.141Z</time></trkpt><trkpt lat="43.8007957" lon="11.4671781"><ele>97.0</ele><time>2026-04-06T14:06:50.148Z</time></trkpt><trkpt lat="43.8006408" lon="11.4669345"><ele>97.0</ele><time>2026-04-06T14:06:51.155Z</time></trkpt><trkpt lat="43.8004834" lon="11.4666972"><ele>97.0</ele><time>2026-04-06T14:06:52.146Z</time></trkpt><trkpt lat="43.8003223" lon="11.4664593"><ele>98.5</ele><time>2026-04-06T14:06:53.151Z</time></trkpt><trkpt lat="43.8001591" lon="11.4662193"><ele>100.0</ele><time>2026-04-06T14:06:54.148Z</time></trkpt><trkpt lat="43.800003" lon="11.4659684"><ele>100.0</ele><time>2026-04-06T14:06:55.143Z</time></trkpt><trkpt lat="43.7998517" lon="11.4657105"><ele>100.0</ele><time>2026-04-06T14:06:56.145Z</time></trkpt><trkpt lat="43.7996933" lon="11.4654552"><ele>99.0</ele><time>2026-04-06T14:06:57.148Z</time></trkpt><trkpt lat="43.7995392" lon="11.4652111"><ele>98.0</ele><time>2026-04-06T14:06:58.139Z</time></trkpt><trkpt lat="43.7993882" lon="11.4649617"><ele>98.5</ele><time>2026-04-06T14:06:59.144Z</time></trkpt><trkpt lat="43.7992407" lon="11.4647121"><ele>99.0</ele><time>2026-04-06T14:07:00.141Z</time></trkpt><trkpt lat="43.7990945" lon="11.4644648"><ele>99.0</ele><time>2026-04-06T14:07:01.14Z</time></trkpt><trkpt lat="43.798948" lon="11.4642223"><ele>99.0</ele><time>2026-04-06T14:07:02.145Z</time></trkpt><trkpt lat="43.7988024" lon="11.4639781"><ele>99.0</ele><time>2026-04-06T14:07:03.152Z</time></trkpt><trkpt lat="43.7986564" lon="11.46374"><ele>99.0</ele><time>2026-04-06T14:07:04.145Z</time></trkpt><trkpt lat="43.7985092" lon="11.4635036"><ele>99.0</ele><time>2026-04-06T14:07:05.153Z</time></trkpt><trkpt lat="43.7983705" lon="11.463271"><ele>99.0</ele><time>2026-04-06T14:07:06.142Z</time></trkpt><trkpt lat="43.7982242" lon="11.4630448"><ele>99.0</ele><time>2026-04-06T14:07:07.149Z</time></trkpt><trkpt lat="43.7980689" lon="11.4628418"><ele>99.0</ele><time>2026-04-06T14:07:08.145Z</time></trkpt><trkpt lat="43.7979116" lon="11.4626508"><ele>99.0</ele><time>2026-04-06T14:07:09.144Z</time></trkpt><trkpt lat="43.7977532" lon="11.4624719"><ele>99.0</ele><time>2026-04-06T14:07:10.141Z</time></trkpt><trkpt lat="43.7975938" lon="11.4623046"><ele>98.66666666666666</ele><time>2026-04-06T14:07:11.146Z</time></trkpt><trkpt lat="43.7974279" lon="11.4621466"><ele>98.33333333333333</ele><time>2026-04-06T14:07:12.147Z</time></trkpt><trkpt lat="43.7972497" lon="11.4620122"><ele>98.0</ele><time>2026-04-06T14:07:13.151Z</time></trkpt><trkpt lat="43.7970532" lon="11.4619102"><ele>98.0</ele><time>2026-04-06T14:07:14.155Z</time></trkpt><trkpt lat="43.7968447" lon="11.4618313"><ele>98.0</ele><time>2026-04-06T14:07:15.148Z</time></trkpt><trkpt lat="43.79662" lon="11.4617932"><ele>98.0</ele><time>2026-04-06T14:07:16.152Z</time></trkpt><trkpt lat="43.7963814" lon="11.461766"><ele>98.0</ele><time>2026-04-06T14:07:17.153Z</time></trkpt><trkpt lat="43.796143" lon="11.4617371"><ele>98.0</ele><time>2026-04-06T14:07:18.146Z</time></trkpt><trkpt lat="43.7959178" lon="11.4616882"><ele>97.0</ele><time>2026-04-06T14:07:19.15Z</time></trkpt><trkpt lat="43.7957112" lon="11.4616556"><ele>96.0</ele><time>2026-04-06T14:07:20.148Z</time></trkpt><trkpt lat="43.7955189" lon="11.4616509"><ele>95.0</ele><time>2026-04-06T14:07:21.152Z</time></trkpt><trkpt lat="43.7953274" lon="11.4617144"><ele>95.0</ele><time>2026-04-06T14:07:22.146Z</time></trkpt><trkpt lat="43.795138" lon="11.4618392"><ele>95.0</ele><time>2026-04-06T14:07:23.162Z</time></trkpt><trkpt lat="43.794964" lon="11.462014"><ele>95.0</ele><time>2026-04-06T14:07:24.155Z</time></trkpt><trkpt lat="43.7947994" lon="11.4621944"><ele>95.0</ele><time>2026-04-06T14:07:25.152Z</time></trkpt><trkpt lat="43.7946366" lon="11.4623683"><ele>95.0</ele><time>2026-04-06T14:07:26.169Z</time></trkpt><trkpt lat="43.7944618" lon="11.4625515"><ele>95.0</ele><time>2026-04-06T14:07:27.152Z</time></trkpt><trkpt lat="43.7942862" lon="11.4627323"><ele>95.0</ele><time>2026-04-06T14:07:28.163Z</time></trkpt><trkpt lat="43.7941116" lon="11.4629098"><ele>95.0</ele><time>2026-04-06T14:07:29.14Z</time></trkpt><trkpt lat="43.7939456" lon="11.4630708"><ele>95.0</ele><time>2026-04-06T14:07:30.151Z</time></trkpt><trkpt lat="43.7937818" lon="11.4632092"><ele>95.0</ele><time>2026-04-06T14:07:31.155Z</time></trkpt><trkpt lat="43.7936226" lon="11.4633297"><ele>95.0</ele><time>2026-04-06T14:07:32.154Z</time></trkpt><trkpt lat="43.7934681" lon="11.4634276"><ele>95.0</ele><time>2026-04-06T14:07:33.154Z</time></trkpt><trkpt lat="43.7933133" lon="11.4635073"><ele>94.33333333333334</ele><time>2026-04-06T14:07:34.153Z</time></trkpt><trkpt lat="43.7931637" lon="11.4635891"><ele>93.66666666666667</ele><time>2026-04-06T14:07:35.141Z</time></trkpt><trkpt lat="43.7930141" lon="11.4636795"><ele>93.0</ele><time>2026-04-06T14:07:36.142Z</time></trkpt><trkpt lat="43.7928609" lon="11.4637679"><ele>94.33333333333334</ele><time>2026-04-06T14:07:37.139Z</time></trkpt><trkpt lat="43.7927079" lon="11.4638617"><ele>95.66666666666667</ele><time>2026-04-06T14:07:38.144Z</time></trkpt><trkpt lat="43.7925598" lon="11.4639531"><ele>97.0</ele><time>2026-04-06T14:07:39.16Z</time></trkpt><trkpt lat="43.7924156" lon="11.4640381"><ele>97.0</ele><time>2026-04-06T14:07:40.157Z</time></trkpt><trkpt lat="43.7922782" lon="11.4641185"><ele>97.0</ele><time>2026-04-06T14:07:41.152Z</time></trkpt><trkpt lat="43.792138" lon="11.4642014"><ele>97.0</ele><time>2026-04-06T14:07:42.15Z</time></trkpt><trkpt lat="43.7919956" lon="11.4642776"><ele>97.0</ele><time>2026-04-06T14:07:43.151Z</time></trkpt><trkpt lat="43.7918416" lon="11.4643709"><ele>97.0</ele><time>2026-04-06T14:07:44.145Z</time></trkpt><trkpt lat="43.791678" lon="11.4644621"><ele>97.0</ele><time>2026-04-06T14:07:45.151Z</time></trkpt><trkpt lat="43.7915051" lon="11.4645691"><ele>97.0</ele><time>2026-04-06T14:07:46.156Z</time></trkpt><trkpt lat="43.7913334" lon="11.4646669"><ele>97.0</ele><time>2026-04-06T14:07:47.145Z</time></trkpt><trkpt lat="43.7911663" lon="11.4647522"><ele>97.0</ele><time>2026-04-06T14:07:48.161Z</time></trkpt><trkpt lat="43.7910029" lon="11.4648175"><ele>96.0</ele><time>2026-04-06T14:07:49.142Z</time></trkpt><trkpt lat="43.790849" lon="11.4648775"><ele>95.0</ele><time>2026-04-06T14:07:50.144Z</time></trkpt><trkpt lat="43.7906803" lon="11.4649262"><ele>94.0</ele><time>2026-04-06T14:07:51.158Z</time></trkpt><trkpt lat="43.7905126" lon="11.4649646"><ele>94.0</ele><time>2026-04-06T14:07:52.155Z</time></trkpt><trkpt lat="43.790345" lon="11.4649924"><ele>94.0</ele><time>2026-04-06T14:07:53.151Z</time></trkpt><trkpt lat="43.7901855" lon="11.4650083"><ele>94.0</ele><time>2026-04-06T14:07:54.144Z</time></trkpt><trkpt lat="43.790032" lon="11.4650043"><ele>93.5</ele><time>2026-04-06T14:07:55.141Z</time></trkpt><trkpt lat="43.7898907" lon="11.4649985"><ele>93.0</ele><time>2026-04-06T14:07:56.15Z</time></trkpt><trkpt lat="43.7897581" lon="11.4649821"><ele>92.5</ele><time>2026-04-06T14:07:57.147Z</time></trkpt><trkpt lat="43.7896206" lon="11.4649682"><ele>92.0</ele><time>2026-04-06T14:07:58.149Z</time></trkpt><trkpt lat="43.7894779" lon="11.4649663"><ele>91.75</ele><time>2026-04-06T14:07:59.137Z</time></trkpt><trkpt lat="43.7893275" lon="11.4649539"><ele>91.5</ele><time>2026-04-06T14:08:00.14Z</time></trkpt><trkpt lat="43.7891801" lon="11.4649434"><ele>91.25</ele><time>2026-04-06T14:08:01.144Z</time></trkpt><trkpt lat="43.7890478" lon="11.4649351"><ele>91.0</ele><time>2026-04-06T14:08:02.138Z</time></trkpt><trkpt lat="43.7889217" lon="11.464923"><ele>91.0</ele><time>2026-04-06T14:08:03.146Z</time></trkpt><trkpt lat="43.7887896" lon="11.4649056"><ele>91.0</ele><time>2026-04-06T14:08:04.133Z</time></trkpt><trkpt lat="43.7886649" lon="11.4648865"><ele>91.0</ele><time>2026-04-06T14:08:05.133Z</time></trkpt><trkpt lat="43.7885388" lon="11.464851"><ele>91.0</ele><time>2026-04-06T14:08:06.143Z</time></trkpt><trkpt lat="43.7884109" lon="11.4648024"><ele>90.66666666666666</ele><time>2026-04-06T14:08:07.142Z</time></trkpt><trkpt lat="43.7882793" lon="11.4647101"><ele>90.33333333333333</ele><time>2026-04-06T14:08:08.135Z</time></trkpt><trkpt lat="43.7881436" lon="11.4645871"><ele>90.0</ele><time>2026-04-06T14:08:09.139Z</time></trkpt><trkpt lat="43.7880158" lon="11.4644271"><ele>90.0</ele><time>2026-04-06T14:08:10.15Z</time></trkpt><trkpt lat="43.7878881" lon="11.4642347"><ele>90.0</ele><time>2026-04-06T14:08:11.168Z</time></trkpt><trkpt lat="43.7877629" lon="11.4640266"><ele>90.0</ele><time>2026-04-06T14:08:12.141Z</time></trkpt><trkpt lat="43.7876536" lon="11.4638217"><ele>92.33333333333334</ele><time>2026-04-06T14:08:13.145Z</time></trkpt><trkpt lat="43.7875534" lon="11.4636078"><ele>94.66666666666667</ele><time>2026-04-06T14:08:14.149Z</time></trkpt><trkpt lat="43.7874509" lon="11.4634013"><ele>97.0</ele><time>2026-04-06T14:08:15.141Z</time></trkpt><trkpt lat="43.7873431" lon="11.4631948"><ele>97.0</ele><time>2026-04-06T14:08:16.155Z</time></trkpt><trkpt lat="43.7872438" lon="11.4629946"><ele>97.0</ele><time>2026-04-06T14:08:17.148Z</time></trkpt><trkpt lat="43.7871375" lon="11.4627998"><ele>97.0</ele><time>2026-04-06T14:08:18.157Z</time></trkpt><trkpt lat="43.7870324" lon="11.462608"><ele>96.66666666666667</ele><time>2026-04-06T14:08:19.138Z</time></trkpt><trkpt lat="43.7869276" lon="11.4624123"><ele>96.33333333333334</ele><time>2026-04-06T14:08:20.156Z</time></trkpt><trkpt lat="43.7868116" lon="11.4622057"><ele>96.0</ele><time>2026-04-06T14:08:21.152Z</time></trkpt><trkpt lat="43.7867092" lon="11.4619917"><ele>96.0</ele><time>2026-04-06T14:08:22.142Z</time></trkpt><trkpt lat="43.7866176" lon="11.4617656"><ele>96.0</ele><time>2026-04-06T14:08:23.145Z</time></trkpt><trkpt lat="43.7865265" lon="11.4615435"><ele>96.0</ele><time>2026-04-06T14:08:24.151Z</time></trkpt><trkpt lat="43.7864335" lon="11.4613141"><ele>93.33333333333333</ele><time>2026-04-06T14:08:25.145Z</time></trkpt><trkpt lat="43.78633" lon="11.4610788"><ele>90.66666666666666</ele><time>2026-04-06T14:08:26.145Z</time></trkpt><trkpt lat="43.7862304" lon="11.4608386"><ele>88.0</ele><time>2026-04-06T14:08:27.144Z</time></trkpt><trkpt lat="43.7861347" lon="11.4606091"><ele>87.66666666666666</ele><time>2026-04-06T14:08:28.146Z</time></trkpt><trkpt lat="43.7860364" lon="11.460398"><ele>87.33333333333333</ele><time>2026-04-06T14:08:29.146Z</time></trkpt><trkpt lat="43.785938" lon="11.4602113"><ele>87.0</ele><time>2026-04-06T14:08:30.15Z</time></trkpt><trkpt lat="43.7858294" lon="11.4600166"><ele>90.66666666666666</ele><time>2026-04-06T14:08:31.146Z</time></trkpt><trkpt lat="43.7857069" lon="11.4598109"><ele>94.33333333333333</ele><time>2026-04-06T14:08:32.161Z</time></trkpt><trkpt lat="43.7855643" lon="11.459598"><ele>98.0</ele><time>2026-04-06T14:08:33.151Z</time></trkpt><trkpt lat="43.7854114" lon="11.4593708"><ele>98.0</ele><time>2026-04-06T14:08:34.139Z</time></trkpt><trkpt lat="43.7852461" lon="11.459139"><ele>98.0</ele><time>2026-04-06T14:08:35.152Z</time></trkpt><trkpt lat="43.7850687" lon="11.458905"><ele>105.0</ele><time>2026-04-06T14:08:36.147Z</time></trkpt><trkpt lat="43.7848768" lon="11.4586614"><ele>112.0</ele><time>2026-04-06T14:08:37.143Z</time></trkpt><trkpt lat="43.7846765" lon="11.4584025"><ele>112.0</ele><time>2026-04-06T14:08:38.152Z</time></trkpt><trkpt lat="43.7844703" lon="11.4581512"><ele>112.0</ele><time>2026-04-06T14:08:39.139Z</time></trkpt><trkpt lat="43.7831878" lon="11.456044"><ele>112.5</ele><time>2026-04-06T14:08:46.162Z</time></trkpt><trkpt lat="43.7830861" lon="11.4556663"><ele>113.0</ele><time>2026-04-06T14:08:47.14Z</time></trkpt><trkpt lat="43.7829762" lon="11.4553063"><ele>113.0</ele><time>2026-04-06T14:08:48.136Z</time></trkpt><trkpt lat="43.7828776" lon="11.454939"><ele>113.0</ele><time>2026-04-06T14:08:49.136Z</time></trkpt><trkpt lat="43.7827764" lon="11.4545821"><ele>117.5</ele><time>2026-04-06T14:08:50.146Z</time></trkpt><trkpt lat="43.7826616" lon="11.4542389"><ele>122.0</ele><time>2026-04-06T14:08:51.149Z</time></trkpt><trkpt lat="43.78256" lon="11.4539217"><ele>120.0</ele><time>2026-04-06T14:08:52.142Z</time></trkpt><trkpt lat="43.7824468" lon="11.4536103"><ele>118.0</ele><time>2026-04-06T14:08:53.139Z</time></trkpt><trkpt lat="43.7823137" lon="11.4533001"><ele>118.0</ele><time>2026-04-06T14:08:54.141Z</time></trkpt><trkpt lat="43.7821659" lon="11.4529985"><ele>118.0</ele><time>2026-04-06T14:08:55.137Z</time></trkpt><trkpt lat="43.7819916" lon="11.4527161"><ele>121.5</ele><time>2026-04-06T14:08:56.133Z</time></trkpt><trkpt lat="43.7818014" lon="11.4524509"><ele>125.0</ele><time>2026-04-06T14:08:57.144Z</time></trkpt><trkpt lat="43.7816066" lon="11.4521977"><ele>123.0</ele><time>2026-04-06T14:08:58.142Z</time></trkpt><trkpt lat="43.781373" lon="11.4519807"><ele>121.0</ele><time>2026-04-06T14:08:59.147Z</time></trkpt><trkpt lat="43.7811285" lon="11.4517819"><ele>127.0</ele><time>2026-04-06T14:09:00.138Z</time></trkpt><trkpt lat="43.7808793" lon="11.4516116"><ele>133.0</ele><time>2026-04-06T14:09:01.147Z</time></trkpt><trkpt lat="43.7806237" lon="11.451458"><ele>116.0</ele><time>2026-04-06T14:09:02.144Z</time></trkpt><trkpt lat="43.7743837" lon="11.4506081"><ele>111.66666666666666</ele><time>2026-04-06T14:09:24.123Z</time></trkpt><trkpt lat="43.7741709" lon="11.450591"><ele>107.33333333333334</ele><time>2026-04-06T14:09:25.122Z</time></trkpt><trkpt lat="43.7739465" lon="11.450516"><ele>103.0</ele><time>2026-04-06T14:09:26.142Z</time></trkpt><trkpt lat="43.7737557" lon="11.450411"><ele>101.66666666666667</ele><time>2026-04-06T14:09:27.141Z</time></trkpt><trkpt lat="43.7735572" lon="11.4503013"><ele>100.33333333333334</ele><time>2026-04-06T14:09:28.136Z</time></trkpt><trkpt lat="43.7733478" lon="11.450179"><ele>99.0</ele><time>2026-04-06T14:09:29.144Z</time></trkpt><trkpt lat="43.773157" lon="11.4500115"><ele>95.5</ele><time>2026-04-06T14:09:30.138Z</time></trkpt><trkpt lat="43.7729585" lon="11.4498152"><ele>92.0</ele><time>2026-04-06T14:09:31.14Z</time></trkpt><trkpt lat="43.7727792" lon="11.4496155"><ele>90.66666666666667</ele><time>2026-04-06T14:09:32.14Z</time></trkpt><trkpt lat="43.7726088" lon="11.4494123"><ele>89.33333333333333</ele><time>2026-04-06T14:09:33.142Z</time></trkpt><trkpt lat="43.7724608" lon="11.4492114"><ele>88.0</ele><time>2026-04-06T14:09:34.147Z</time></trkpt><trkpt lat="43.7723267" lon="11.4489993"><ele>87.0</ele><time>2026-04-06T14:09:35.154Z</time></trkpt><trkpt lat="43.7722145" lon="11.4487917"><ele>86.0</ele><time>2026-04-06T14:09:36.154Z</time></trkpt><trkpt lat="43.7721085" lon="11.4485789"><ele>85.0</ele><time>2026-04-06T14:09:37.161Z</time></trkpt><trkpt lat="43.7720056" lon="11.4483532"><ele>85.0</ele><time>2026-04-06T14:09:38.166Z</time></trkpt><trkpt lat="43.7719037" lon="11.4481085"><ele>85.0</ele><time>2026-04-06T14:09:39.153Z</time></trkpt><trkpt lat="43.7718114" lon="11.4478457"><ele>85.0</ele><time>2026-04-06T14:09:40.15Z</time></trkpt><trkpt lat="43.7717227" lon="11.4475682"><ele>84.5</ele><time>2026-04-06T14:09:41.157Z</time></trkpt><trkpt lat="43.7716466" lon="11.4472754"><ele>84.0</ele><time>2026-04-06T14:09:42.156Z</time></trkpt><trkpt lat="43.7715835" lon="11.4469711"><ele>84.0</ele><time>2026-04-06T14:09:43.146Z</time></trkpt><trkpt lat="43.771534" lon="11.4466688"><ele>84.0</ele><time>2026-04-06T14:09:44.15Z</time></trkpt><trkpt lat="43.7714971" lon="11.4463626"><ele>84.0</ele><time>2026-04-06T14:09:45.148Z</time></trkpt><trkpt lat="43.77147" lon="11.4460794"><ele>83.66666666666667</ele><time>2026-04-06T14:09:46.159Z</time></trkpt><trkpt lat="43.7714443" lon="11.4458043"><ele>83.33333333333334</ele><time>2026-04-06T14:09:47.169Z</time></trkpt><trkpt lat="43.771423" lon="11.4455311"><ele>83.0</ele><time>2026-04-06T14:09:48.145Z</time></trkpt><trkpt lat="43.7714019" lon="11.4452636"><ele>83.0</ele><time>2026-04-06T14:09:49.148Z</time></trkpt><trkpt lat="43.7713798" lon="11.4449948"><ele>83.0</ele><time>2026-04-06T14:09:50.14Z</time></trkpt><trkpt lat="43.771352" lon="11.4447117"><ele>83.0</ele><time>2026-04-06T14:09:51.154Z</time></trkpt><trkpt lat="43.7713227" lon="11.4444014"><ele>83.0</ele><time>2026-04-06T14:09:52.156Z</time></trkpt><trkpt lat="43.7712932" lon="11.4440841"><ele>83.0</ele><time>2026-04-06T14:09:53.152Z</time></trkpt><trkpt lat="43.7712751" lon="11.4437813"><ele>82.33333333333334</ele><time>2026-04-06T14:09:54.146Z</time></trkpt><trkpt lat="43.771265" lon="11.4434958"><ele>81.66666666666667</ele><time>2026-04-06T14:09:55.158Z</time></trkpt><trkpt lat="43.7712417" lon="11.443204"><ele>81.0</ele><time>2026-04-06T14:09:56.14Z</time></trkpt><trkpt lat="43.77122" lon="11.4429114"><ele>80.66666666666667</ele><time>2026-04-06T14:09:57.153Z</time></trkpt><trkpt lat="43.7711891" lon="11.4426198"><ele>80.33333333333334</ele><time>2026-04-06T14:09:58.147Z</time></trkpt><trkpt lat="43.7711525" lon="11.4423379"><ele>80.0</ele><time>2026-04-06T14:09:59.147Z</time></trkpt><trkpt lat="43.771121" lon="11.4420593"><ele>80.0</ele><time>2026-04-06T14:10:00.148Z</time></trkpt><trkpt lat="43.7710718" lon="11.4418037"><ele>80.0</ele><time>2026-04-06T14:10:01.152Z</time></trkpt><trkpt lat="43.7710224" lon="11.4415551"><ele>80.0</ele><time>2026-04-06T14:10:02.152Z</time></trkpt><trkpt lat="43.7709696" lon="11.4413168"><ele>80.0</ele><time>2026-04-06T14:10:03.149Z</time></trkpt><trkpt lat="43.770913" lon="11.4411018"><ele>80.0</ele><time>2026-04-06T14:10:04.153Z</time></trkpt><trkpt lat="43.7708456" lon="11.4409056"><ele>80.0</ele><time>2026-04-06T14:10:05.148Z</time></trkpt><trkpt lat="43.770782" lon="11.4407131"><ele>80.0</ele><time>2026-04-06T14:10:06.149Z</time></trkpt><trkpt lat="43.770718" lon="11.4405357"><ele>80.0</ele><time>2026-04-06T14:10:07.142Z</time></trkpt><trkpt lat="43.7706573" lon="11.4403623"><ele>80.0</ele><time>2026-04-06T14:10:08.146Z</time></trkpt><trkpt lat="43.7705971" lon="11.4402011"><ele>80.0</ele><time>2026-04-06T14:10:09.152Z</time></trkpt><trkpt lat="43.7705425" lon="11.440044"><ele>80.5</ele><time>2026-04-06T14:10:10.146Z</time></trkpt><trkpt lat="43.7704853" lon="11.4398872"><ele>81.0</ele><time>2026-04-06T14:10:11.152Z</time></trkpt><trkpt lat="43.7704271" lon="11.4397274"><ele>81.5</ele><time>2026-04-06T14:10:12.143Z</time></trkpt><trkpt lat="43.7703593" lon="11.4395618"><ele>82.0</ele><time>2026-04-06T14:10:13.152Z</time></trkpt><trkpt lat="43.7702974" lon="11.4393975"><ele>82.25</ele><time>2026-04-06T14:10:14.165Z</time></trkpt><trkpt lat="43.7702361" lon="11.4392402"><ele>82.5</ele><time>2026-04-06T14:10:15.144Z</time></trkpt><trkpt lat="43.7701812" lon="11.4390841"><ele>82.75</ele><time>2026-04-06T14:10:16.15Z</time></trkpt><trkpt lat="43.770121" lon="11.4389149"><ele>83.0</ele><time>2026-04-06T14:10:17.149Z</time></trkpt><trkpt lat="43.7700667" lon="11.4387563"><ele>83.0</ele><time>2026-04-06T14:10:18.149Z</time></trkpt><trkpt lat="43.7700146" lon="11.4386066"><ele>83.0</ele><time>2026-04-06T14:10:19.147Z</time></trkpt><trkpt lat="43.7699555" lon="11.4384452"><ele>83.0</ele><time>2026-04-06T14:10:20.139Z</time></trkpt><trkpt lat="43.7698993" lon="11.4382709"><ele>83.0</ele><time>2026-04-06T14:10:21.151Z</time></trkpt><trkpt lat="43.7698453" lon="11.4380858"><ele>83.0</ele><time>2026-04-06T14:10:22.161Z</time></trkpt><trkpt lat="43.7697742" lon="11.4378611"><ele>83.0</ele><time>2026-04-06T14:10:23.152Z</time></trkpt><trkpt lat="43.7696983" lon="11.437621"><ele>83.0</ele><time>2026-04-06T14:10:24.143Z</time></trkpt><trkpt lat="43.7696216" lon="11.4373529"><ele>83.0</ele><time>2026-04-06T14:10:25.152Z</time></trkpt><trkpt lat="43.7695628" lon="11.4370909"><ele>83.0</ele><time>2026-04-06T14:10:26.151Z</time></trkpt><trkpt lat="43.7695119" lon="11.4368126"><ele>83.0</ele><time>2026-04-06T14:10:27.142Z</time></trkpt><trkpt lat="43.7694706" lon="11.4365212"><ele>83.33333333333334</ele><time>2026-04-06T14:10:28.148Z</time></trkpt><trkpt lat="43.7694309" lon="11.4362298"><ele>83.66666666666667</ele><time>2026-04-06T14:10:29.145Z</time></trkpt><trkpt lat="43.7694064" lon="11.4359483"><ele>84.0</ele><time>2026-04-06T14:10:30.151Z</time></trkpt><trkpt lat="43.7693851" lon="11.4356835"><ele>84.0</ele><time>2026-04-06T14:10:31.151Z</time></trkpt><trkpt lat="43.7693678" lon="11.4354276"><ele>84.0</ele><time>2026-04-06T14:10:32.144Z</time></trkpt><trkpt lat="43.7693574" lon="11.4351823"><ele>84.0</ele><time>2026-04-06T14:10:33.172Z</time></trkpt><trkpt lat="43.7693509" lon="11.4349256"><ele>84.0</ele><time>2026-04-06T14:10:34.153Z</time></trkpt><trkpt lat="43.7693624" lon="11.4346715"><ele>84.0</ele><time>2026-04-06T14:10:35.155Z</time></trkpt><trkpt lat="43.7693747" lon="11.4344208"><ele>84.0</ele><time>2026-04-06T14:10:36.153Z</time></trkpt><trkpt lat="43.7693899" lon="11.4341676"><ele>83.33333333333333</ele><time>2026-04-06T14:10:37.145Z</time></trkpt><trkpt lat="43.7694084" lon="11.4339159"><ele>82.66666666666666</ele><time>2026-04-06T14:10:38.153Z</time></trkpt><trkpt lat="43.7694391" lon="11.433645"><ele>82.0</ele><time>2026-04-06T14:10:39.151Z</time></trkpt><trkpt lat="43.7694913" lon="11.4333774"><ele>82.0</ele><time>2026-04-06T14:10:40.148Z</time></trkpt><trkpt lat="43.7695502" lon="11.4331163"><ele>82.0</ele><time>2026-04-06T14:10:41.144Z</time></trkpt><trkpt lat="43.7696188" lon="11.4328676"><ele>82.0</ele><time>2026-04-06T14:10:42.143Z</time></trkpt><trkpt lat="43.7696841" lon="11.4326121"><ele>82.0</ele><time>2026-04-06T14:10:43.142Z</time></trkpt><trkpt lat="43.7697553" lon="11.4323574"><ele>82.0</ele><time>2026-04-06T14:10:44.159Z</time></trkpt><trkpt lat="43.7698335" lon="11.4321039"><ele>82.0</ele><time>2026-04-06T14:10:45.155Z</time></trkpt><trkpt lat="43.7699176" lon="11.4318513"><ele>82.0</ele><time>2026-04-06T14:10:46.156Z</time></trkpt><trkpt lat="43.7700122" lon="11.4315821"><ele>82.0</ele><time>2026-04-06T14:10:47.156Z</time></trkpt><trkpt lat="43.7701033" lon="11.4313219"><ele>82.0</ele><time>2026-04-06T14:10:48.146Z</time></trkpt><trkpt lat="43.7701978" lon="11.4310701"><ele>82.0</ele><time>2026-04-06T14:10:49.152Z</time></trkpt><trkpt lat="43.7702922" lon="11.4308165"><ele>82.0</ele><time>2026-04-06T14:10:50.144Z</time></trkpt><trkpt lat="43.7703888" lon="11.4305614"><ele>82.0</ele><time>2026-04-06T14:10:51.141Z</time></trkpt><trkpt lat="43.770477" lon="11.4303016"><ele>81.66666666666666</ele><time>2026-04-06T14:10:52.142Z</time></trkpt><trkpt lat="43.7705699" lon="11.4300503"><ele>81.33333333333333</ele><time>2026-04-06T14:10:53.152Z</time></trkpt><trkpt lat="43.7706603" lon="11.4297982"><ele>81.0</ele><time>2026-04-06T14:10:54.146Z</time></trkpt><trkpt lat="43.7707388" lon="11.4295488"><ele>81.0</ele><time>2026-04-06T14:10:55.161Z</time></trkpt><trkpt lat="43.7708141" lon="11.4293058"><ele>81.0</ele><time>2026-04-06T14:10:56.147Z</time></trkpt><trkpt lat="43.7708846" lon="11.4290535"><ele>81.0</ele><time>2026-04-06T14:10:57.145Z</time></trkpt><trkpt lat="43.7709497" lon="11.4287915"><ele>81.0</ele><time>2026-04-06T14:10:58.139Z</time></trkpt><trkpt lat="43.7710157" lon="11.4285386"><ele>81.0</ele><time>2026-04-06T14:10:59.146Z</time></trkpt><trkpt lat="43.7710774" lon="11.428278"><ele>81.0</ele><time>2026-04-06T14:11:00.144Z</time></trkpt><trkpt lat="43.7711431" lon="11.4280141"><ele>81.33333333333333</ele><time>2026-04-06T14:11:01.156Z</time></trkpt><trkpt lat="43.7712157" lon="11.4277384"><ele>81.66666666666666</ele><time>2026-04-06T14:11:02.151Z</time></trkpt><trkpt lat="43.7712807" lon="11.4274788"><ele>82.0</ele><time>2026-04-06T14:11:03.162Z</time></trkpt><trkpt lat="43.7713457" lon="11.4272139"><ele>81.66666666666666</ele><time>2026-04-06T14:11:04.152Z</time></trkpt><trkpt lat="43.7713999" lon="11.426942"><ele>81.33333333333333</ele><time>2026-04-06T14:11:05.165Z</time></trkpt><trkpt lat="43.7714651" lon="11.4266757"><ele>81.0</ele><time>2026-04-06T14:11:06.149Z</time></trkpt><trkpt lat="43.7715293" lon="11.4264072"><ele>81.0</ele><time>2026-04-06T14:11:07.144Z</time></trkpt><trkpt lat="43.7715937" lon="11.4261344"><ele>81.0</ele><time>2026-04-06T14:11:08.14Z</time></trkpt><trkpt lat="43.7716558" lon="11.425859"><ele>81.0</ele><time>2026-04-06T14:11:09.147Z</time></trkpt><trkpt lat="43.7717218" lon="11.4255755"><ele>81.0</ele><time>2026-04-06T14:11:10.15Z</time></trkpt><trkpt lat="43.7717851" lon="11.425294"><ele>81.0</ele><time>2026-04-06T14:11:11.149Z</time></trkpt><trkpt lat="43.7718498" lon="11.4250136"><ele>81.0</ele><time>2026-04-06T14:11:12.157Z</time></trkpt><trkpt lat="43.7719169" lon="11.4247203"><ele>81.33333333333333</ele><time>2026-04-06T14:11:13.145Z</time></trkpt><trkpt lat="43.7719847" lon="11.424429"><ele>81.66666666666666</ele><time>2026-04-06T14:11:14.14Z</time></trkpt><trkpt lat="43.7720551" lon="11.4241386"><ele>82.0</ele><time>2026-04-06T14:11:15.142Z</time></trkpt><trkpt lat="43.77212" lon="11.4238431"><ele>82.0</ele><time>2026-04-06T14:11:16.143Z</time></trkpt><trkpt lat="43.7721892" lon="11.4235445"><ele>82.0</ele><time>2026-04-06T14:11:17.144Z</time></trkpt><trkpt lat="43.7722597" lon="11.4232446"><ele>81.5</ele><time>2026-04-06T14:11:18.154Z</time></trkpt><trkpt lat="43.7723253" lon="11.4229481"><ele>81.0</ele><time>2026-04-06T14:11:19.147Z</time></trkpt><trkpt lat="43.7723944" lon="11.4226465"><ele>81.0</ele><time>2026-04-06T14:11:20.143Z</time></trkpt><trkpt lat="43.7724669" lon="11.4223413"><ele>81.0</ele><time>2026-04-06T14:11:21.14Z</time></trkpt><trkpt lat="43.7725384" lon="11.4220415"><ele>81.0</ele><time>2026-04-06T14:11:22.14Z</time></trkpt><trkpt lat="43.7726036" lon="11.4217547"><ele>81.0</ele><time>2026-04-06T14:11:23.144Z</time></trkpt><trkpt lat="43.7726784" lon="11.4214739"><ele>81.0</ele><time>2026-04-06T14:11:24.164Z</time></trkpt><trkpt lat="43.7727439" lon="11.4212057"><ele>81.0</ele><time>2026-04-06T14:11:25.145Z</time></trkpt><trkpt lat="43.7728007" lon="11.4209604"><ele>81.0</ele><time>2026-04-06T14:11:26.141Z</time></trkpt><trkpt lat="43.7728553" lon="11.4207205"><ele>81.0</ele><time>2026-04-06T14:11:27.143Z</time></trkpt><trkpt lat="43.7729146" lon="11.420492"><ele>81.0</ele><time>2026-04-06T14:11:28.14Z</time></trkpt><trkpt lat="43.7729716" lon="11.4202565"><ele>81.0</ele><time>2026-04-06T14:11:29.159Z</time></trkpt><trkpt lat="43.7730283" lon="11.4200132"><ele>81.0</ele><time>2026-04-06T14:11:30.152Z</time></trkpt><trkpt lat="43.7730878" lon="11.4197596"><ele>81.0</ele><time>2026-04-06T14:11:31.146Z</time></trkpt><trkpt lat="43.773151" lon="11.4194989"><ele>81.0</ele><time>2026-04-06T14:11:32.155Z</time></trkpt><trkpt lat="43.7732144" lon="11.4192383"><ele>81.0</ele><time>2026-04-06T14:11:33.148Z</time></trkpt><trkpt lat="43.7732796" lon="11.4189772"><ele>80.66666666666667</ele><time>2026-04-06T14:11:34.16Z</time></trkpt><trkpt lat="43.7733435" lon="11.418713"><ele>80.33333333333334</ele><time>2026-04-06T14:11:35.159Z</time></trkpt><trkpt lat="43.7734054" lon="11.4184567"><ele>80.0</ele><time>2026-04-06T14:11:36.147Z</time></trkpt><trkpt lat="43.7734657" lon="11.4181967"><ele>80.33333333333334</ele><time>2026-04-06T14:11:37.154Z</time></trkpt><trkpt lat="43.7735262" lon="11.4179616"><ele>80.66666666666667</ele><time>2026-04-06T14:11:38.142Z</time></trkpt><trkpt lat="43.7735933" lon="11.4177476"><ele>81.0</ele><time>2026-04-06T14:11:39.146Z</time></trkpt><trkpt lat="43.7736748" lon="11.4175511"><ele>81.0</ele><time>2026-04-06T14:11:40.159Z</time></trkpt><trkpt lat="43.7737745" lon="11.4173765"><ele>81.0</ele><time>2026-04-06T14:11:41.146Z</time></trkpt><trkpt lat="43.7738853" lon="11.4172401"><ele>81.0</ele><time>2026-04-06T14:11:42.148Z</time></trkpt><trkpt lat="43.7739955" lon="11.4171397"><ele>81.0</ele><time>2026-04-06T14:11:43.15Z</time></trkpt><trkpt lat="43.7741105" lon="11.4170757"><ele>81.0</ele><time>2026-04-06T14:11:44.154Z</time></trkpt><trkpt lat="43.7742296" lon="11.4170642"><ele>81.0</ele><time>2026-04-06T14:11:45.155Z</time></trkpt><trkpt lat="43.7743333" lon="11.4170761"><ele>81.0</ele><time>2026-04-06T14:11:46.146Z</time></trkpt><trkpt lat="43.774433" lon="11.4170782"><ele>81.0</ele><time>2026-04-06T14:11:47.147Z</time></trkpt><trkpt lat="43.7745296" lon="11.4170414"><ele>81.0</ele><time>2026-04-06T14:11:48.145Z</time></trkpt><trkpt lat="43.7746243" lon="11.4169476"><ele>81.19999999999999</ele><time>2026-04-06T14:11:49.161Z</time></trkpt><trkpt lat="43.7746963" lon="11.4168252"><ele>81.39999999999999</ele><time>2026-04-06T14:11:50.143Z</time></trkpt><trkpt lat="43.7747364" lon="11.4166922"><ele>81.6</ele><time>2026-04-06T14:11:51.147Z</time></trkpt><trkpt lat="43.7747173" lon="11.416542"><ele>81.8</ele><time>2026-04-06T14:11:52.144Z</time></trkpt><trkpt lat="43.7746847" lon="11.416411"><ele>82.0</ele><time>2026-04-06T14:11:53.144Z</time></trkpt><trkpt lat="43.774624" lon="11.4162746"><ele>81.5</ele><time>2026-04-06T14:11:54.14Z</time></trkpt><trkpt lat="43.7745425" lon="11.4161325"><ele>81.0</ele><time>2026-04-06T14:11:55.147Z</time></trkpt><trkpt lat="43.7744728" lon="11.4159933"><ele>80.5</ele><time>2026-04-06T14:11:56.159Z</time></trkpt><trkpt lat="43.7744223" lon="11.4158347"><ele>80.0</ele><time>2026-04-06T14:11:57.148Z</time></trkpt><trkpt lat="43.774382" lon="11.4156483"><ele>79.33333333333334</ele><time>2026-04-06T14:11:58.153Z</time></trkpt><trkpt lat="43.7743505" lon="11.4154329"><ele>78.66666666666667</ele><time>2026-04-06T14:11:59.141Z</time></trkpt><trkpt lat="43.7743279" lon="11.4151839"><ele>78.0</ele><time>2026-04-06T14:12:00.141Z</time></trkpt><trkpt lat="43.7743099" lon="11.4149081"><ele>77.33333333333333</ele><time>2026-04-06T14:12:01.15Z</time></trkpt><trkpt lat="43.7742888" lon="11.4146413"><ele>76.66666666666666</ele><time>2026-04-06T14:12:02.137Z</time></trkpt><trkpt lat="43.7742728" lon="11.4143719"><ele>76.0</ele><time>2026-04-06T14:12:03.152Z</time></trkpt><trkpt lat="43.774258" lon="11.4140925"><ele>76.0</ele><time>2026-04-06T14:12:04.153Z</time></trkpt><trkpt lat="43.7742365" lon="11.41383"><ele>76.0</ele><time>2026-04-06T14:12:05.153Z</time></trkpt><trkpt lat="43.7742177" lon="11.4135803"><ele>76.0</ele><time>2026-04-06T14:12:06.153Z</time></trkpt><trkpt lat="43.7741985" lon="11.413346"><ele>76.66666666666666</ele><time>2026-04-06T14:12:07.148Z</time></trkpt><trkpt lat="43.7741844" lon="11.4131202"><ele>77.33333333333333</ele><time>2026-04-06T14:12:08.165Z</time></trkpt><trkpt lat="43.7741842" lon="11.4128937"><ele>78.0</ele><time>2026-04-06T14:12:09.154Z</time></trkpt><trkpt lat="43.7741954" lon="11.4126638"><ele>78.33333333333333</ele><time>2026-04-06T14:12:10.162Z</time></trkpt><trkpt lat="43.7742175" lon="11.412427"><ele>78.66666666666666</ele><time>2026-04-06T14:12:11.148Z</time></trkpt><trkpt lat="43.7742404" lon="11.4121775"><ele>79.0</ele><time>2026-04-06T14:12:12.162Z</time></trkpt><trkpt lat="43.7742938" lon="11.4119324"><ele>79.66666666666666</ele><time>2026-04-06T14:12:13.15Z</time></trkpt><trkpt lat="43.7743809" lon="11.4117013"><ele>80.33333333333333</ele><time>2026-04-06T14:12:14.153Z</time></trkpt><trkpt lat="43.7744755" lon="11.41148"><ele>81.0</ele><time>2026-04-06T14:12:15.153Z</time></trkpt><trkpt lat="43.774586" lon="11.4112828"><ele>81.0</ele><time>2026-04-06T14:12:16.148Z</time></trkpt><trkpt lat="43.774717" lon="11.4111009"><ele>81.0</ele><time>2026-04-06T14:12:17.156Z</time></trkpt><trkpt lat="43.7748605" lon="11.4109334"><ele>81.0</ele><time>2026-04-06T14:12:18.154Z</time></trkpt><trkpt lat="43.775007" lon="11.4107692"><ele>81.0</ele><time>2026-04-06T14:12:19.14Z</time></trkpt><trkpt lat="43.7751484" lon="11.4105972"><ele>81.0</ele><time>2026-04-06T14:12:20.149Z</time></trkpt><trkpt lat="43.7752897" lon="11.4104185"><ele>81.0</ele><time>2026-04-06T14:12:21.154Z</time></trkpt><trkpt lat="43.7754309" lon="11.4102259"><ele>81.0</ele><time>2026-04-06T14:12:22.159Z</time></trkpt><trkpt lat="43.7755683" lon="11.4100324"><ele>81.0</ele><time>2026-04-06T14:12:23.142Z</time></trkpt><trkpt lat="43.7757024" lon="11.4098354"><ele>81.0</ele><time>2026-04-06T14:12:24.15Z</time></trkpt><trkpt lat="43.7758319" lon="11.4096292"><ele>81.0</ele><time>2026-04-06T14:12:25.14Z</time></trkpt><trkpt lat="43.7759572" lon="11.4094234"><ele>81.0</ele><time>2026-04-06T14:12:26.149Z</time></trkpt><trkpt lat="43.7760841" lon="11.4092148"><ele>81.0</ele><time>2026-04-06T14:12:27.156Z</time></trkpt><trkpt lat="43.7762054" lon="11.4090029"><ele>80.33333333333333</ele><time>2026-04-06T14:12:28.133Z</time></trkpt><trkpt lat="43.7763316" lon="11.4087811"><ele>79.66666666666666</ele><time>2026-04-06T14:12:29.155Z</time></trkpt><trkpt lat="43.7764557" lon="11.4085481"><ele>79.0</ele><time>2026-04-06T14:12:30.148Z</time></trkpt><trkpt lat="43.7765799" lon="11.4083105"><ele>79.0</ele><time>2026-04-06T14:12:31.153Z</time></trkpt><trkpt lat="43.7767051" lon="11.4080676"><ele>79.0</ele><time>2026-04-06T14:12:32.153Z</time></trkpt><trkpt lat="43.776834" lon="11.4078214"><ele>79.0</ele><time>2026-04-06T14:12:33.145Z</time></trkpt><trkpt lat="43.7769613" lon="11.4075712"><ele>78.66666666666666</ele><time>2026-04-06T14:12:34.158Z</time></trkpt><trkpt lat="43.7770904" lon="11.4073237"><ele>78.33333333333333</ele><time>2026-04-06T14:12:35.154Z</time></trkpt><trkpt lat="43.7772158" lon="11.4070718"><ele>78.0</ele><time>2026-04-06T14:12:36.152Z</time></trkpt><trkpt lat="43.77734" lon="11.4068169"><ele>77.33333333333333</ele><time>2026-04-06T14:12:37.157Z</time></trkpt><trkpt lat="43.7774628" lon="11.4065668"><ele>76.66666666666666</ele><time>2026-04-06T14:12:38.144Z</time></trkpt><trkpt lat="43.7775855" lon="11.4063124"><ele>76.0</ele><time>2026-04-06T14:12:39.156Z</time></trkpt><trkpt lat="43.7777133" lon="11.4060661"><ele>76.0</ele><time>2026-04-06T14:12:40.148Z</time></trkpt><trkpt lat="43.7778386" lon="11.4058184"><ele>76.0</ele><time>2026-04-06T14:12:41.151Z</time></trkpt><trkpt lat="43.7779616" lon="11.4055706"><ele>76.0</ele><time>2026-04-06T14:12:42.141Z</time></trkpt><trkpt lat="43.7780811" lon="11.4053266"><ele>76.33333333333333</ele><time>2026-04-06T14:12:43.155Z</time></trkpt><trkpt lat="43.7782043" lon="11.4050878"><ele>76.66666666666667</ele><time>2026-04-06T14:12:44.162Z</time></trkpt><trkpt lat="43.7783294" lon="11.4048526"><ele>77.0</ele><time>2026-04-06T14:12:45.159Z</time></trkpt><trkpt lat="43.7784553" lon="11.4046223"><ele>76.66666666666667</ele><time>2026-04-06T14:12:46.157Z</time></trkpt><trkpt lat="43.7785767" lon="11.4043887"><ele>76.33333333333333</ele><time>2026-04-06T14:12:47.144Z</time></trkpt><trkpt lat="43.7786891" lon="11.4041409"><ele>76.0</ele><time>2026-04-06T14:12:48.145Z</time></trkpt><trkpt lat="43.7787885" lon="11.4038818"><ele>76.66666666666666</ele><time>2026-04-06T14:12:49.14Z</time></trkpt><trkpt lat="43.7788655" lon="11.4036012"><ele>77.33333333333333</ele><time>2026-04-06T14:12:50.152Z</time></trkpt><trkpt lat="43.7789325" lon="11.4033209"><ele>78.0</ele><time>2026-04-06T14:12:51.152Z</time></trkpt><trkpt lat="43.7789968" lon="11.4030488"><ele>78.33333333333333</ele><time>2026-04-06T14:12:52.143Z</time></trkpt><trkpt lat="43.779061" lon="11.4027772"><ele>78.66666666666666</ele><time>2026-04-06T14:12:53.151Z</time></trkpt><trkpt lat="43.7791483" lon="11.4025088"><ele>79.0</ele><time>2026-04-06T14:12:54.147Z</time></trkpt><trkpt lat="43.7792535" lon="11.4022593"><ele>78.0</ele><time>2026-04-06T14:12:55.159Z</time></trkpt><trkpt lat="43.7793735" lon="11.4020226"><ele>77.0</ele><time>2026-04-06T14:12:56.151Z</time></trkpt><trkpt lat="43.7795095" lon="11.401803"><ele>76.0</ele><time>2026-04-06T14:12:57.154Z</time></trkpt><trkpt lat="43.7796592" lon="11.401586"><ele>76.0</ele><time>2026-04-06T14:12:58.157Z</time></trkpt><trkpt lat="43.77982" lon="11.4013905"><ele>76.0</ele><time>2026-04-06T14:12:59.146Z</time></trkpt><trkpt lat="43.7799981" lon="11.4012008"><ele>76.0</ele><time>2026-04-06T14:13:00.15Z</time></trkpt><trkpt lat="43.7801721" lon="11.4010051"><ele>75.5</ele><time>2026-04-06T14:13:01.159Z</time></trkpt><trkpt lat="43.7803446" lon="11.4008074"><ele>75.0</ele><time>2026-04-06T14:13:02.143Z</time></trkpt><trkpt lat="43.7805191" lon="11.4006038"><ele>79.0</ele><time>2026-04-06T14:13:03.156Z</time></trkpt><trkpt lat="43.7806946" lon="11.4003948"><ele>83.0</ele><time>2026-04-06T14:13:04.143Z</time></trkpt><trkpt lat="43.7808694" lon="11.4001926"><ele>78.5</ele><time>2026-04-06T14:13:05.145Z</time></trkpt><trkpt lat="43.7810497" lon="11.3999942"><ele>74.0</ele><time>2026-04-06T14:13:06.147Z</time></trkpt><trkpt lat="43.7812306" lon="11.399797"><ele>75.0</ele><time>2026-04-06T14:13:07.152Z</time></trkpt><trkpt lat="43.7814066" lon="11.3995992"><ele>76.0</ele><time>2026-04-06T14:13:08.144Z</time></trkpt><trkpt lat="43.7815823" lon="11.3994023"><ele>76.0</ele><time>2026-04-06T14:13:09.152Z</time></trkpt><trkpt lat="43.7817568" lon="11.3992132"><ele>76.0</ele><time>2026-04-06T14:13:10.145Z</time></trkpt><trkpt lat="43.7819252" lon="11.3990241"><ele>76.0</ele><time>2026-04-06T14:13:11.15Z</time></trkpt><trkpt lat="43.7820902" lon="11.3988225"><ele>75.0</ele><time>2026-04-06T14:13:12.148Z</time></trkpt><trkpt lat="43.7822478" lon="11.398621"><ele>74.0</ele><time>2026-04-06T14:13:13.158Z</time></trkpt><trkpt lat="43.782397" lon="11.3984026"><ele>73.0</ele><time>2026-04-06T14:13:14.151Z</time></trkpt><trkpt lat="43.7825367" lon="11.3981735"><ele>73.33333333333333</ele><time>2026-04-06T14:13:15.147Z</time></trkpt><trkpt lat="43.7826712" lon="11.3979364"><ele>73.66666666666667</ele><time>2026-04-06T14:13:16.151Z</time></trkpt><trkpt lat="43.7827854" lon="11.3976891"><ele>74.0</ele><time>2026-04-06T14:13:17.152Z</time></trkpt><trkpt lat="43.7828969" lon="11.3974271"><ele>75.0</ele><time>2026-04-06T14:13:18.158Z</time></trkpt><trkpt lat="43.7829913" lon="11.397159"><ele>76.0</ele><time>2026-04-06T14:13:19.156Z</time></trkpt><trkpt lat="43.7830716" lon="11.3968813"><ele>77.0</ele><time>2026-04-06T14:13:20.15Z</time></trkpt><trkpt lat="43.7831382" lon="11.396611"><ele>77.66666666666667</ele><time>2026-04-06T14:13:21.157Z</time></trkpt><trkpt lat="43.7831917" lon="11.3963295"><ele>78.33333333333333</ele><time>2026-04-06T14:13:22.148Z</time></trkpt><trkpt lat="43.7832453" lon="11.3960503"><ele>79.0</ele><time>2026-04-06T14:13:23.151Z</time></trkpt><trkpt lat="43.7833051" lon="11.3957724"><ele>79.0</ele><time>2026-04-06T14:13:24.145Z</time></trkpt><trkpt lat="43.7833922" lon="11.395507"><ele>79.0</ele><time>2026-04-06T14:13:25.157Z</time></trkpt><trkpt lat="43.7835025" lon="11.3952594"><ele>79.0</ele><time>2026-04-06T14:13:26.149Z</time></trkpt><trkpt lat="43.7836309" lon="11.3950231"><ele>78.33333333333333</ele><time>2026-04-06T14:13:27.145Z</time></trkpt><trkpt lat="43.7837687" lon="11.3948171"><ele>77.66666666666667</ele><time>2026-04-06T14:13:28.151Z</time></trkpt><trkpt lat="43.7839187" lon="11.3946218"><ele>77.0</ele><time>2026-04-06T14:13:29.16Z</time></trkpt><trkpt lat="43.7840804" lon="11.3944424"><ele>79.0</ele><time>2026-04-06T14:13:30.141Z</time></trkpt><trkpt lat="43.7842485" lon="11.3942813"><ele>81.0</ele><time>2026-04-06T14:13:31.156Z</time></trkpt><trkpt lat="43.7844145" lon="11.3941231"><ele>83.0</ele><time>2026-04-06T14:13:32.141Z</time></trkpt><trkpt lat="43.78458" lon="11.3939657"><ele>86.0</ele><time>2026-04-06T14:13:33.141Z</time></trkpt><trkpt lat="43.7847393" lon="11.3938117"><ele>89.0</ele><time>2026-04-06T14:13:34.146Z</time></trkpt><trkpt lat="43.7848856" lon="11.3936458"><ele>92.0</ele><time>2026-04-06T14:13:35.153Z</time></trkpt><trkpt lat="43.7850208" lon="11.3934746"><ele>92.0</ele><time>2026-04-06T14:13:36.141Z</time></trkpt><trkpt lat="43.7851501" lon="11.3932994"><ele>92.0</ele><time>2026-04-06T14:13:37.148Z</time></trkpt><trkpt lat="43.7852844" lon="11.3931104"><ele>92.0</ele><time>2026-04-06T14:13:38.157Z</time></trkpt><trkpt lat="43.7854162" lon="11.3929118"><ele>90.66666666666667</ele><time>2026-04-06T14:13:39.146Z</time></trkpt><trkpt lat="43.7855427" lon="11.3927094"><ele>89.33333333333333</ele><time>2026-04-06T14:13:40.16Z</time></trkpt><trkpt lat="43.7856631" lon="11.3924864"><ele>88.0</ele><time>2026-04-06T14:13:41.146Z</time></trkpt><trkpt lat="43.7857708" lon="11.3922501"><ele>89.33333333333333</ele><time>2026-04-06T14:13:42.15Z</time></trkpt><trkpt lat="43.7858689" lon="11.3919929"><ele>90.66666666666667</ele><time>2026-04-06T14:13:43.16Z</time></trkpt><trkpt lat="43.7859633" lon="11.3917166"><ele>92.0</ele><time>2026-04-06T14:13:44.145Z</time></trkpt><trkpt lat="43.786051" lon="11.3914006"><ele>86.5</ele><time>2026-04-06T14:13:45.147Z</time></trkpt><trkpt lat="43.7861485" lon="11.39108"><ele>81.0</ele><time>2026-04-06T14:13:46.162Z</time></trkpt><trkpt lat="43.7862394" lon="11.3907703"><ele>81.33333333333333</ele><time>2026-04-06T14:13:47.14Z</time></trkpt><trkpt lat="43.7863241" lon="11.390478"><ele>81.66666666666666</ele><time>2026-04-06T14:13:48.149Z</time></trkpt><trkpt lat="43.7864054" lon="11.3901948"><ele>82.0</ele><time>2026-04-06T14:13:49.19Z</time></trkpt><trkpt lat="43.7864844" lon="11.3899344"><ele>82.0</ele><time>2026-04-06T14:13:50.147Z</time></trkpt><trkpt lat="43.7865571" lon="11.3897071"><ele>82.0</ele><time>2026-04-06T14:13:51.149Z</time></trkpt><trkpt lat="43.7866159" lon="11.389507"><ele>82.0</ele><time>2026-04-06T14:13:52.158Z</time></trkpt><trkpt lat="43.7866709" lon="11.3893295"><ele>83.25</ele><time>2026-04-06T14:13:53.144Z</time></trkpt><trkpt lat="43.786717" lon="11.3891794"><ele>84.5</ele><time>2026-04-06T14:13:54.16Z</time></trkpt><trkpt lat="43.7867571" lon="11.3890365"><ele>85.75</ele><time>2026-04-06T14:13:55.146Z</time></trkpt><trkpt lat="43.7868035" lon="11.388886"><ele>87.0</ele><time>2026-04-06T14:13:56.14Z</time></trkpt><trkpt lat="43.7868437" lon="11.388728"><ele>84.75</ele><time>2026-04-06T14:13:57.153Z</time></trkpt><trkpt lat="43.786879" lon="11.3885492"><ele>82.5</ele><time>2026-04-06T14:13:58.145Z</time></trkpt><trkpt lat="43.7869002" lon="11.3883535"><ele>80.25</ele><time>2026-04-06T14:13:59.153Z</time></trkpt><trkpt lat="43.7869145" lon="11.3881558"><ele>78.0</ele><time>2026-04-06T14:14:00.151Z</time></trkpt><trkpt lat="43.7869251" lon="11.3879516"><ele>78.0</ele><time>2026-04-06T14:14:01.157Z</time></trkpt><trkpt lat="43.7869273" lon="11.3877629"><ele>78.0</ele><time>2026-04-06T14:14:02.144Z</time></trkpt><trkpt lat="43.7869215" lon="11.3875819"><ele>78.0</ele><time>2026-04-06T14:14:03.152Z</time></trkpt><trkpt lat="43.7869068" lon="11.3873894"><ele>78.0</ele><time>2026-04-06T14:14:04.143Z</time></trkpt><trkpt lat="43.7868855" lon="11.3871789"><ele>78.0</ele><time>2026-04-06T14:14:05.155Z</time></trkpt><trkpt lat="43.786867" lon="11.3869518"><ele>78.0</ele><time>2026-04-06T14:14:06.146Z</time></trkpt><trkpt lat="43.786849" lon="11.3867269"><ele>78.0</ele><time>2026-04-06T14:14:07.148Z</time></trkpt><trkpt lat="43.7868368" lon="11.3865035"><ele>78.33333333333333</ele><time>2026-04-06T14:14:08.152Z</time></trkpt><trkpt lat="43.7868202" lon="11.3862633"><ele>78.66666666666666</ele><time>2026-04-06T14:14:09.146Z</time></trkpt><trkpt lat="43.7868012" lon="11.3860257"><ele>79.0</ele><time>2026-04-06T14:14:10.148Z</time></trkpt><trkpt lat="43.7867865" lon="11.3857848"><ele>79.0</ele><time>2026-04-06T14:14:11.146Z</time></trkpt><trkpt lat="43.7867675" lon="11.3855655"><ele>79.0</ele><time>2026-04-06T14:14:12.149Z</time></trkpt><trkpt lat="43.7867528" lon="11.3853589"><ele>79.0</ele><time>2026-04-06T14:14:13.15Z</time></trkpt><trkpt lat="43.7867401" lon="11.3851562"><ele>78.66666666666666</ele><time>2026-04-06T14:14:14.146Z</time></trkpt><trkpt lat="43.7867133" lon="11.3849386"><ele>78.33333333333333</ele><time>2026-04-06T14:14:15.152Z</time></trkpt><trkpt lat="43.7866665" lon="11.3847266"><ele>78.0</ele><time>2026-04-06T14:14:16.145Z</time></trkpt><trkpt lat="43.7866054" lon="11.384526"><ele>77.33333333333333</ele><time>2026-04-06T14:14:17.148Z</time></trkpt><trkpt lat="43.7865385" lon="11.3843362"><ele>76.66666666666666</ele><time>2026-04-06T14:14:18.16Z</time></trkpt><trkpt lat="43.7864645" lon="11.3841466"><ele>76.0</ele><time>2026-04-06T14:14:19.157Z</time></trkpt><trkpt lat="43.7863782" lon="11.3839512"><ele>74.33333333333333</ele><time>2026-04-06T14:14:20.147Z</time></trkpt><trkpt lat="43.7862834" lon="11.3837629"><ele>72.66666666666667</ele><time>2026-04-06T14:14:21.15Z</time></trkpt><trkpt lat="43.7861827" lon="11.3835891"><ele>71.0</ele><time>2026-04-06T14:14:22.15Z</time></trkpt><trkpt lat="43.786081" lon="11.3834277"><ele>71.0</ele><time>2026-04-06T14:14:23.143Z</time></trkpt><trkpt lat="43.7859716" lon="11.3832664"><ele>71.0</ele><time>2026-04-06T14:14:24.146Z</time></trkpt><trkpt lat="43.7858598" lon="11.3831128"><ele>71.0</ele><time>2026-04-06T14:14:25.14Z</time></trkpt><trkpt lat="43.7857509" lon="11.3829736"><ele>71.0</ele><time>2026-04-06T14:14:26.159Z</time></trkpt><trkpt lat="43.7856379" lon="11.3828558"><ele>71.0</ele><time>2026-04-06T14:14:27.143Z</time></trkpt><trkpt lat="43.7855177" lon="11.382752"><ele>71.0</ele><time>2026-04-06T14:14:28.158Z</time></trkpt><trkpt lat="43.7853913" lon="11.3826573"><ele>71.0</ele><time>2026-04-06T14:14:29.155Z</time></trkpt><trkpt lat="43.785257" lon="11.3825554"><ele>71.0</ele><time>2026-04-06T14:14:30.141Z</time></trkpt><trkpt lat="43.7851326" lon="11.3824649"><ele>71.0</ele><time>2026-04-06T14:14:31.154Z</time></trkpt><trkpt lat="43.7850043" lon="11.3823608"><ele>71.0</ele><time>2026-04-06T14:14:32.153Z</time></trkpt><trkpt lat="43.784875" lon="11.3822306"><ele>71.0</ele><time>2026-04-06T14:14:33.151Z</time></trkpt><trkpt lat="43.7847617" lon="11.3820753"><ele>71.0</ele><time>2026-04-06T14:14:34.149Z</time></trkpt><trkpt lat="43.7846473" lon="11.3818795"><ele>71.0</ele><time>2026-04-06T14:14:35.135Z</time></trkpt><trkpt lat="43.7845396" lon="11.3816834"><ele>71.0</ele><time>2026-04-06T14:14:36.158Z</time></trkpt><trkpt lat="43.7844313" lon="11.3814645"><ele>75.33333333333334</ele><time>2026-04-06T14:14:37.147Z</time></trkpt><trkpt lat="43.7843293" lon="11.3812501"><ele>79.66666666666667</ele><time>2026-04-06T14:14:38.156Z</time></trkpt><trkpt lat="43.7842352" lon="11.3810392"><ele>84.0</ele><time>2026-04-06T14:14:39.153Z</time></trkpt><trkpt lat="43.7841444" lon="11.3808358"><ele>84.0</ele><time>2026-04-06T14:14:40.142Z</time></trkpt><trkpt lat="43.7840585" lon="11.3806259"><ele>84.0</ele><time>2026-04-06T14:14:41.147Z</time></trkpt><trkpt lat="43.7839838" lon="11.3803995"><ele>84.0</ele><time>2026-04-06T14:14:42.143Z</time></trkpt><trkpt lat="43.7839084" lon="11.3801702"><ele>82.33333333333333</ele><time>2026-04-06T14:14:43.162Z</time></trkpt><trkpt lat="43.783839" lon="11.3799474"><ele>80.66666666666666</ele><time>2026-04-06T14:14:44.153Z</time></trkpt><trkpt lat="43.7837785" lon="11.3797331"><ele>79.0</ele><time>2026-04-06T14:14:45.152Z</time></trkpt><trkpt lat="43.7837191" lon="11.3795033"><ele>77.66666666666666</ele><time>2026-04-06T14:14:46.152Z</time></trkpt><trkpt lat="43.7836598" lon="11.3792608"><ele>76.33333333333333</ele><time>2026-04-06T14:14:47.154Z</time></trkpt><trkpt lat="43.7836104" lon="11.3790039"><ele>75.0</ele><time>2026-04-06T14:14:48.15Z</time></trkpt><trkpt lat="43.7835535" lon="11.3787367"><ele>80.66666666666667</ele><time>2026-04-06T14:14:49.153Z</time></trkpt><trkpt lat="43.7834898" lon="11.3784673"><ele>86.33333333333334</ele><time>2026-04-06T14:14:50.143Z</time></trkpt><trkpt lat="43.783419" lon="11.3782092"><ele>92.0</ele><time>2026-04-06T14:14:51.139Z</time></trkpt><trkpt lat="43.7833448" lon="11.3779497"><ele>92.0</ele><time>2026-04-06T14:14:52.156Z</time></trkpt><trkpt lat="43.7832723" lon="11.3776954"><ele>92.0</ele><time>2026-04-06T14:14:53.146Z</time></trkpt><trkpt lat="43.7832029" lon="11.3774512"><ele>92.0</ele><time>2026-04-06T14:14:54.156Z</time></trkpt><trkpt lat="43.7831362" lon="11.377205"><ele>89.33333333333334</ele><time>2026-04-06T14:14:55.151Z</time></trkpt><trkpt lat="43.7830636" lon="11.3769573"><ele>86.66666666666667</ele><time>2026-04-06T14:14:56.15Z</time></trkpt><trkpt lat="43.7829898" lon="11.3767017"><ele>84.0</ele><time>2026-04-06T14:14:57.138Z</time></trkpt><trkpt lat="43.7829199" lon="11.3764466"><ele>81.0</ele><time>2026-04-06T14:14:58.139Z</time></trkpt><trkpt lat="43.7828549" lon="11.3761919"><ele>78.0</ele><time>2026-04-06T14:14:59.148Z</time></trkpt><trkpt lat="43.7827915" lon="11.3759362"><ele>75.0</ele><time>2026-04-06T14:15:00.151Z</time></trkpt><trkpt lat="43.7827389" lon="11.3756773"><ele>73.33333333333333</ele><time>2026-04-06T14:15:01.153Z</time></trkpt><trkpt lat="43.7826954" lon="11.3754152"><ele>71.66666666666666</ele><time>2026-04-06T14:15:02.151Z</time></trkpt><trkpt lat="43.7826597" lon="11.3751568"><ele>70.0</ele><time>2026-04-06T14:15:03.136Z</time></trkpt><trkpt lat="43.7826388" lon="11.3749066"><ele>73.33333333333333</ele><time>2026-04-06T14:15:04.155Z</time></trkpt><trkpt lat="43.7826183" lon="11.3746511"><ele>76.66666666666667</ele><time>2026-04-06T14:15:05.147Z</time></trkpt><trkpt lat="43.7825967" lon="11.3743812"><ele>80.0</ele><time>2026-04-06T14:15:06.146Z</time></trkpt><trkpt lat="43.782581" lon="11.3741"><ele>79.66666666666667</ele><time>2026-04-06T14:15:07.138Z</time></trkpt><trkpt lat="43.7825752" lon="11.3738201"><ele>79.33333333333333</ele><time>2026-04-06T14:15:08.148Z</time></trkpt><trkpt lat="43.7825682" lon="11.3735394"><ele>79.0</ele><time>2026-04-06T14:15:09.139Z</time></trkpt><trkpt lat="43.7825677" lon="11.3732735"><ele>79.66666666666666</ele><time>2026-04-06T14:15:10.156Z</time></trkpt><trkpt lat="43.7825587" lon="11.3730125"><ele>80.33333333333333</ele><time>2026-04-06T14:15:11.14Z</time></trkpt><trkpt lat="43.7825548" lon="11.3727541"><ele>81.0</ele><time>2026-04-06T14:15:12.15Z</time></trkpt><trkpt lat="43.7825466" lon="11.3725063"><ele>81.0</ele><time>2026-04-06T14:15:13.153Z</time></trkpt><trkpt lat="43.7825413" lon="11.3722616"><ele>81.0</ele><time>2026-04-06T14:15:14.141Z</time></trkpt><trkpt lat="43.7825468" lon="11.3720184"><ele>81.0</ele><time>2026-04-06T14:15:15.144Z</time></trkpt><trkpt lat="43.7825608" lon="11.3717806"><ele>80.75</ele><time>2026-04-06T14:15:16.138Z</time></trkpt><trkpt lat="43.7825721" lon="11.3715656"><ele>80.5</ele><time>2026-04-06T14:15:17.148Z</time></trkpt><trkpt lat="43.7825866" lon="11.3713649"><ele>80.25</ele><time>2026-04-06T14:15:18.143Z</time></trkpt><trkpt lat="43.7826029" lon="11.3711823"><ele>80.0</ele><time>2026-04-06T14:15:19.152Z</time></trkpt><trkpt lat="43.7826235" lon="11.3710107"><ele>80.0</ele><time>2026-04-06T14:15:20.142Z</time></trkpt><trkpt lat="43.7826375" lon="11.3708432"><ele>80.0</ele><time>2026-04-06T14:15:21.148Z</time></trkpt><trkpt lat="43.7826493" lon="11.3706609"><ele>80.0</ele><time>2026-04-06T14:15:22.147Z</time></trkpt><trkpt lat="43.7826664" lon="11.3704694"><ele>80.0</ele><time>2026-04-06T14:15:23.142Z</time></trkpt><trkpt lat="43.7826892" lon="11.3702684"><ele>77.0</ele><time>2026-04-06T14:15:24.158Z</time></trkpt><trkpt lat="43.7827054" lon="11.3700812"><ele>74.0</ele><time>2026-04-06T14:15:25.149Z</time></trkpt><trkpt lat="43.7827229" lon="11.369888"><ele>71.0</ele><time>2026-04-06T14:15:26.145Z</time></trkpt><trkpt lat="43.78274" lon="11.3696627"><ele>68.0</ele><time>2026-04-06T14:15:27.143Z</time></trkpt><trkpt lat="43.7827622" lon="11.3694304"><ele>68.0</ele><time>2026-04-06T14:15:28.146Z</time></trkpt><trkpt lat="43.7827851" lon="11.3691915"><ele>68.0</ele><time>2026-04-06T14:15:29.169Z</time></trkpt><trkpt lat="43.7828125" lon="11.3689447"><ele>68.0</ele><time>2026-04-06T14:15:30.155Z</time></trkpt><trkpt lat="43.7828357" lon="11.3686945"><ele>68.33333333333334</ele><time>2026-04-06T14:15:31.161Z</time></trkpt><trkpt lat="43.7828651" lon="11.3684443"><ele>68.66666666666667</ele><time>2026-04-06T14:15:32.141Z</time></trkpt><trkpt lat="43.7828872" lon="11.3682133"><ele>69.0</ele><time>2026-04-06T14:15:33.154Z</time></trkpt><trkpt lat="43.7829114" lon="11.3680075"><ele>69.0</ele><time>2026-04-06T14:15:34.153Z</time></trkpt><trkpt lat="43.7829285" lon="11.3678"><ele>69.0</ele><time>2026-04-06T14:15:35.158Z</time></trkpt><trkpt lat="43.7829215" lon="11.3675784"><ele>69.0</ele><time>2026-04-06T14:15:36.157Z</time></trkpt><trkpt lat="43.7829029" lon="11.3673642"><ele>68.66666666666667</ele><time>2026-04-06T14:15:37.147Z</time></trkpt><trkpt lat="43.7828644" lon="11.3671533"><ele>68.33333333333334</ele><time>2026-04-06T14:15:38.157Z</time></trkpt><trkpt lat="43.782806" lon="11.3669489"><ele>68.0</ele><time>2026-04-06T14:15:39.157Z</time></trkpt><trkpt lat="43.7827426" lon="11.3667513"><ele>70.0</ele><time>2026-04-06T14:15:40.146Z</time></trkpt><trkpt lat="43.7826756" lon="11.3665559"><ele>72.0</ele><time>2026-04-06T14:15:41.151Z</time></trkpt><trkpt lat="43.7825996" lon="11.3663799"><ele>74.0</ele><time>2026-04-06T14:15:42.149Z</time></trkpt><trkpt lat="43.7825147" lon="11.3662147"><ele>74.0</ele><time>2026-04-06T14:15:43.141Z</time></trkpt><trkpt lat="43.7824237" lon="11.3660573"><ele>74.0</ele><time>2026-04-06T14:15:44.154Z</time></trkpt><trkpt lat="43.7823321" lon="11.3659166"><ele>74.0</ele><time>2026-04-06T14:15:45.161Z</time></trkpt><trkpt lat="43.7822143" lon="11.3657836"><ele>74.0</ele><time>2026-04-06T14:15:46.168Z</time></trkpt><trkpt lat="43.7820739" lon="11.3656505"><ele>74.0</ele><time>2026-04-06T14:15:47.142Z</time></trkpt><trkpt lat="43.7819308" lon="11.3655203"><ele>74.0</ele><time>2026-04-06T14:15:48.143Z</time></trkpt><trkpt lat="43.7817918" lon="11.36538"><ele>74.0</ele><time>2026-04-06T14:15:49.157Z</time></trkpt><trkpt lat="43.7816555" lon="11.3652325"><ele>75.66666666666667</ele><time>2026-04-06T14:15:50.15Z</time></trkpt><trkpt lat="43.7815111" lon="11.3650953"><ele>77.33333333333333</ele><time>2026-04-06T14:15:51.153Z</time></trkpt><trkpt lat="43.78136" lon="11.3649822"><ele>79.0</ele><time>2026-04-06T14:15:52.154Z</time></trkpt><trkpt lat="43.7812196" lon="11.364864"><ele>79.0</ele><time>2026-04-06T14:15:53.152Z</time></trkpt><trkpt lat="43.7810617" lon="11.3647499"><ele>79.0</ele><time>2026-04-06T14:15:54.156Z</time></trkpt><trkpt lat="43.7809007" lon="11.3646496"><ele>79.0</ele><time>2026-04-06T14:15:55.144Z</time></trkpt><trkpt lat="43.780729" lon="11.3645592"><ele>79.0</ele><time>2026-04-06T14:15:56.147Z</time></trkpt><trkpt lat="43.7805524" lon="11.3644764"><ele>79.0</ele><time>2026-04-06T14:15:57.156Z</time></trkpt><trkpt lat="43.7803778" lon="11.3644025"><ele>79.0</ele><time>2026-04-06T14:15:58.15Z</time></trkpt><trkpt lat="43.7801956" lon="11.3643263"><ele>80.0</ele><time>2026-04-06T14:15:59.159Z</time></trkpt><trkpt lat="43.7800136" lon="11.364249"><ele>81.0</ele><time>2026-04-06T14:16:00.137Z</time></trkpt><trkpt lat="43.7798281" lon="11.3641747"><ele>82.0</ele><time>2026-04-06T14:16:01.147Z</time></trkpt><trkpt lat="43.7796428" lon="11.364102"><ele>82.0</ele><time>2026-04-06T14:16:02.158Z</time></trkpt><trkpt lat="43.7794597" lon="11.3640306"><ele>82.0</ele><time>2026-04-06T14:16:03.146Z</time></trkpt><trkpt lat="43.7792747" lon="11.3639627"><ele>82.0</ele><time>2026-04-06T14:16:04.156Z</time></trkpt><trkpt lat="43.7790891" lon="11.3639003"><ele>79.66666666666666</ele><time>2026-04-06T14:16:05.153Z</time></trkpt><trkpt lat="43.7788961" lon="11.3638405"><ele>77.33333333333333</ele><time>2026-04-06T14:16:06.157Z</time></trkpt><trkpt lat="43.7787028" lon="11.3637987"><ele>75.0</ele><time>2026-04-06T14:16:07.145Z</time></trkpt><trkpt lat="43.778511" lon="11.3637878"><ele>74.33333333333333</ele><time>2026-04-06T14:16:08.142Z</time></trkpt><trkpt lat="43.7783112" lon="11.3637938"><ele>73.66666666666666</ele><time>2026-04-06T14:16:09.163Z</time></trkpt><trkpt lat="43.7781147" lon="11.3638164"><ele>73.0</ele><time>2026-04-06T14:16:10.162Z</time></trkpt><trkpt lat="43.7779304" lon="11.3638395"><ele>73.0</ele><time>2026-04-06T14:16:11.154Z</time></trkpt><trkpt lat="43.777751" lon="11.3638455"><ele>73.0</ele><time>2026-04-06T14:16:12.164Z</time></trkpt><trkpt lat="43.7775643" lon="11.3638361"><ele>73.0</ele><time>2026-04-06T14:16:13.159Z</time></trkpt><trkpt lat="43.7773773" lon="11.3638078"><ele>72.0</ele><time>2026-04-06T14:16:14.152Z</time></trkpt><trkpt lat="43.7771949" lon="11.3637586"><ele>71.0</ele><time>2026-04-06T14:16:15.145Z</time></trkpt><trkpt lat="43.7770226" lon="11.3636884"><ele>70.0</ele><time>2026-04-06T14:16:16.155Z</time></trkpt><trkpt lat="43.7768569" lon="11.3636123"><ele>69.66666666666666</ele><time>2026-04-06T14:16:17.159Z</time></trkpt><trkpt lat="43.7766987" lon="11.3635248"><ele>69.33333333333333</ele><time>2026-04-06T14:16:18.169Z</time></trkpt><trkpt lat="43.7765412" lon="11.3634315"><ele>69.0</ele><time>2026-04-06T14:16:19.154Z</time></trkpt><trkpt lat="43.776385" lon="11.3633461"><ele>69.0</ele><time>2026-04-06T14:16:20.156Z</time></trkpt><trkpt lat="43.7762308" lon="11.3632604"><ele>69.0</ele><time>2026-04-06T14:16:21.147Z</time></trkpt><trkpt lat="43.7760744" lon="11.3631816"><ele>69.0</ele><time>2026-04-06T14:16:22.154Z</time></trkpt><trkpt lat="43.7759261" lon="11.3631114"><ele>69.0</ele><time>2026-04-06T14:16:23.151Z</time></trkpt><trkpt lat="43.7757782" lon="11.3630434"><ele>69.0</ele><time>2026-04-06T14:16:24.153Z</time></trkpt><trkpt lat="43.7756238" lon="11.3629886"><ele>69.0</ele><time>2026-04-06T14:16:25.152Z</time></trkpt><trkpt lat="43.7754663" lon="11.3629406"><ele>68.33333333333333</ele><time>2026-04-06T14:16:26.15Z</time></trkpt><trkpt lat="43.7753032" lon="11.3629031"><ele>67.66666666666666</ele><time>2026-04-06T14:16:27.142Z</time></trkpt><trkpt lat="43.7751409" lon="11.3628575"><ele>67.0</ele><time>2026-04-06T14:16:28.155Z</time></trkpt><trkpt lat="43.7749787" lon="11.3628192"><ele>66.66666666666666</ele><time>2026-04-06T14:16:29.152Z</time></trkpt><trkpt lat="43.7748193" lon="11.3627737"><ele>66.33333333333333</ele><time>2026-04-06T14:16:30.142Z</time></trkpt><trkpt lat="43.7746626" lon="11.362733"><ele>66.0</ele><time>2026-04-06T14:16:31.138Z</time></trkpt><trkpt lat="43.7745058" lon="11.3626882"><ele>66.0</ele><time>2026-04-06T14:16:32.146Z</time></trkpt><trkpt lat="43.7743586" lon="11.3626519"><ele>66.0</ele><time>2026-04-06T14:16:33.147Z</time></trkpt><trkpt lat="43.7742152" lon="11.3626214"><ele>66.0</ele><time>2026-04-06T14:16:34.148Z</time></trkpt><trkpt lat="43.7740838" lon="11.3625861"><ele>66.0</ele><time>2026-04-06T14:16:35.141Z</time></trkpt><trkpt lat="43.7739589" lon="11.3625488"><ele>66.0</ele><time>2026-04-06T14:16:36.147Z</time></trkpt><trkpt lat="43.7738421" lon="11.3625196"><ele>66.0</ele><time>2026-04-06T14:16:37.147Z</time></trkpt><trkpt lat="43.7737298" lon="11.3624832"><ele>66.0</ele><time>2026-04-06T14:16:38.165Z</time></trkpt><trkpt lat="43.7736206" lon="11.3624497"><ele>66.0</ele><time>2026-04-06T14:16:39.138Z</time></trkpt><trkpt lat="43.7735116" lon="11.3624131"><ele>66.6</ele><time>2026-04-06T14:16:40.14Z</time></trkpt><trkpt lat="43.773403" lon="11.3623849"><ele>67.19999999999999</ele><time>2026-04-06T14:16:41.145Z</time></trkpt><trkpt lat="43.7732967" lon="11.3623572"><ele>67.80000000000001</ele><time>2026-04-06T14:16:42.146Z</time></trkpt><trkpt lat="43.7731967" lon="11.3623351"><ele>68.4</ele><time>2026-04-06T14:16:43.147Z</time></trkpt><trkpt lat="43.7731036" lon="11.3623113"><ele>69.0</ele><time>2026-04-06T14:16:44.141Z</time></trkpt><trkpt lat="43.7730165" lon="11.3622922"><ele>69.0</ele><time>2026-04-06T14:16:45.144Z</time></trkpt><trkpt lat="43.7729311" lon="11.3622738"><ele>69.0</ele><time>2026-04-06T14:16:46.143Z</time></trkpt><trkpt lat="43.772849" lon="11.3622511"><ele>69.0</ele><time>2026-04-06T14:16:47.142Z</time></trkpt><trkpt lat="43.772768" lon="11.3622283"><ele>69.0</ele><time>2026-04-06T14:16:48.16Z</time></trkpt><trkpt lat="43.7726819" lon="11.3621976"><ele>69.0</ele><time>2026-04-06T14:16:49.156Z</time></trkpt><trkpt lat="43.7725881" lon="11.362168"><ele>69.0</ele><time>2026-04-06T14:16:50.163Z</time></trkpt><trkpt lat="43.7724947" lon="11.3621127"><ele>68.8</ele><time>2026-04-06T14:16:51.154Z</time></trkpt><trkpt lat="43.7724034" lon="11.3620354"><ele>68.60000000000001</ele><time>2026-04-06T14:16:52.154Z</time></trkpt><trkpt lat="43.7723127" lon="11.3619569"><ele>68.4</ele><time>2026-04-06T14:16:53.159Z</time></trkpt><trkpt lat="43.7722423" lon="11.3618396"><ele>68.2</ele><time>2026-04-06T14:16:54.147Z</time></trkpt><trkpt lat="43.7722009" lon="11.3617097"><ele>68.0</ele><time>2026-04-06T14:16:55.145Z</time></trkpt><trkpt lat="43.7721684" lon="11.3615846"><ele>68.0</ele><time>2026-04-06T14:16:56.136Z</time></trkpt><trkpt lat="43.7721409" lon="11.3614631"><ele>68.0</ele><time>2026-04-06T14:16:57.147Z</time></trkpt><trkpt lat="43.7721061" lon="11.3613393"><ele>68.0</ele><time>2026-04-06T14:16:58.152Z</time></trkpt><trkpt lat="43.772075" lon="11.3612232"><ele>68.0</ele><time>2026-04-06T14:16:59.145Z</time></trkpt><trkpt lat="43.7720424" lon="11.3611111"><ele>68.0</ele><time>2026-04-06T14:17:00.142Z</time></trkpt><trkpt lat="43.7720024" lon="11.3610072"><ele>68.16666666666667</ele><time>2026-04-06T14:17:01.142Z</time></trkpt><trkpt lat="43.7719614" lon="11.3609027"><ele>68.33333333333334</ele><time>2026-04-06T14:17:02.139Z</time></trkpt><trkpt lat="43.7719186" lon="11.3608034"><ele>68.5</ele><time>2026-04-06T14:17:03.145Z</time></trkpt><trkpt lat="43.7718799" lon="11.3607029"><ele>68.66666666666667</ele><time>2026-04-06T14:17:04.14Z</time></trkpt><trkpt lat="43.771849" lon="11.3606112"><ele>68.83333333333333</ele><time>2026-04-06T14:17:05.149Z</time></trkpt><trkpt lat="43.7718069" lon="11.360462"><ele>69.0</ele><time>2026-04-06T14:17:07.151Z</time></trkpt><trkpt lat="43.7717838" lon="11.3603243"><ele>69.0</ele><time>2026-04-06T14:17:09.151Z</time></trkpt><trkpt lat="43.7717713" lon="11.3602317"><ele>69.0</ele><time>2026-04-06T14:17:10.15Z</time></trkpt><trkpt lat="43.771761" lon="11.3600969"><ele>69.0</ele><time>2026-04-06T14:17:11.153Z</time></trkpt><trkpt lat="43.7717581" lon="11.3599443"><ele>69.0</ele><time>2026-04-06T14:17:12.15Z</time></trkpt><trkpt lat="43.7717495" lon="11.3597891"><ele>69.0</ele><time>2026-04-06T14:17:13.143Z</time></trkpt><trkpt lat="43.7717331" lon="11.3596158"><ele>69.0</ele><time>2026-04-06T14:17:14.144Z</time></trkpt><trkpt lat="43.7717209" lon="11.3594403"><ele>69.0</ele><time>2026-04-06T14:17:15.143Z</time></trkpt><trkpt lat="43.7717045" lon="11.3592636"><ele>69.0</ele><time>2026-04-06T14:17:16.141Z</time></trkpt><trkpt lat="43.7716865" lon="11.3590929"><ele>69.0</ele><time>2026-04-06T14:17:17.141Z</time></trkpt><trkpt lat="43.7716693" lon="11.35892"><ele>68.75</ele><time>2026-04-06T14:17:18.141Z</time></trkpt><trkpt lat="43.7716473" lon="11.3587644"><ele>68.5</ele><time>2026-04-06T14:17:19.146Z</time></trkpt><trkpt lat="43.7716269" lon="11.3586015"><ele>68.25</ele><time>2026-04-06T14:17:20.143Z</time></trkpt><trkpt lat="43.7716038" lon="11.3584301"><ele>68.0</ele><time>2026-04-06T14:17:21.145Z</time></trkpt><trkpt lat="43.7715788" lon="11.3582626"><ele>68.0</ele><time>2026-04-06T14:17:22.15Z</time></trkpt><trkpt lat="43.7715569" lon="11.3580939"><ele>68.0</ele><time>2026-04-06T14:17:23.145Z</time></trkpt><trkpt lat="43.7715348" lon="11.3579235"><ele>68.0</ele><time>2026-04-06T14:17:24.137Z</time></trkpt><trkpt lat="43.7715201" lon="11.3577494"><ele>68.0</ele><time>2026-04-06T14:17:25.144Z</time></trkpt><trkpt lat="43.7715273" lon="11.3575505"><ele>68.0</ele><time>2026-04-06T14:17:26.145Z</time></trkpt><trkpt lat="43.7715528" lon="11.3573391"><ele>68.0</ele><time>2026-04-06T14:17:27.139Z</time></trkpt><trkpt lat="43.771586" lon="11.3571179"><ele>68.0</ele><time>2026-04-06T14:17:28.143Z</time></trkpt><trkpt lat="43.7716215" lon="11.3569045"><ele>67.75</ele><time>2026-04-06T14:17:29.145Z</time></trkpt><trkpt lat="43.7716411" lon="11.3567012"><ele>67.5</ele><time>2026-04-06T14:17:30.151Z</time></trkpt><trkpt lat="43.7716459" lon="11.3565047"><ele>67.25</ele><time>2026-04-06T14:17:31.137Z</time></trkpt><trkpt lat="43.7716465" lon="11.356297"><ele>67.0</ele><time>2026-04-06T14:17:32.153Z</time></trkpt><trkpt lat="43.7716349" lon="11.3561007"><ele>66.75</ele><time>2026-04-06T14:17:33.147Z</time></trkpt><trkpt lat="43.7716275" lon="11.3558998"><ele>66.5</ele><time>2026-04-06T14:17:34.153Z</time></trkpt><trkpt lat="43.7716088" lon="11.3556885"><ele>66.25</ele><time>2026-04-06T14:17:35.146Z</time></trkpt><trkpt lat="43.7715844" lon="11.3554921"><ele>66.0</ele><time>2026-04-06T14:17:36.155Z</time></trkpt><trkpt lat="43.7715563" lon="11.3553018"><ele>66.0</ele><time>2026-04-06T14:17:37.151Z</time></trkpt><trkpt lat="43.7715255" lon="11.3551115"><ele>66.0</ele><time>2026-04-06T14:17:38.144Z</time></trkpt><trkpt lat="43.7714971" lon="11.3549221"><ele>66.0</ele><time>2026-04-06T14:17:39.153Z</time></trkpt><trkpt lat="43.7714668" lon="11.3547178"><ele>66.0</ele><time>2026-04-06T14:17:40.16Z</time></trkpt><trkpt lat="43.7714309" lon="11.3545114"><ele>65.0</ele><time>2026-04-06T14:17:41.15Z</time></trkpt><trkpt lat="43.7713886" lon="11.3543073"><ele>64.0</ele><time>2026-04-06T14:17:42.15Z</time></trkpt><trkpt lat="43.7713314" lon="11.3540991"><ele>63.0</ele><time>2026-04-06T14:17:43.154Z</time></trkpt><trkpt lat="43.771271" lon="11.3538877"><ele>63.33333333333333</ele><time>2026-04-06T14:17:44.152Z</time></trkpt><trkpt lat="43.7712097" lon="11.3536774"><ele>63.666666666666664</ele><time>2026-04-06T14:17:45.148Z</time></trkpt><trkpt lat="43.7711461" lon="11.3534638"><ele>64.0</ele><time>2026-04-06T14:17:46.15Z</time></trkpt><trkpt lat="43.7710807" lon="11.3532517"><ele>66.0</ele><time>2026-04-06T14:17:47.145Z</time></trkpt><trkpt lat="43.7710115" lon="11.3530319"><ele>68.0</ele><time>2026-04-06T14:17:48.147Z</time></trkpt><trkpt lat="43.7709426" lon="11.3528161"><ele>70.0</ele><time>2026-04-06T14:17:49.147Z</time></trkpt><trkpt lat="43.7708726" lon="11.3526077"><ele>70.0</ele><time>2026-04-06T14:17:50.146Z</time></trkpt><trkpt lat="43.7708018" lon="11.3523939"><ele>70.0</ele><time>2026-04-06T14:17:51.163Z</time></trkpt><trkpt lat="43.7707194" lon="11.3521806"><ele>70.0</ele><time>2026-04-06T14:17:52.146Z</time></trkpt><trkpt lat="43.770632" lon="11.3519607"><ele>68.33333333333333</ele><time>2026-04-06T14:17:53.149Z</time></trkpt><trkpt lat="43.7705379" lon="11.3517407"><ele>66.66666666666667</ele><time>2026-04-06T14:17:54.152Z</time></trkpt><trkpt lat="43.7704495" lon="11.3515228"><ele>65.0</ele><time>2026-04-06T14:17:55.147Z</time></trkpt><trkpt lat="43.7703628" lon="11.3513105"><ele>64.33333333333334</ele><time>2026-04-06T14:17:56.141Z</time></trkpt><trkpt lat="43.7702755" lon="11.351096"><ele>63.66666666666667</ele><time>2026-04-06T14:17:57.159Z</time></trkpt><trkpt lat="43.770187" lon="11.3508846"><ele>63.0</ele><time>2026-04-06T14:17:58.154Z</time></trkpt><trkpt lat="43.7701008" lon="11.3506786"><ele>63.66666666666667</ele><time>2026-04-06T14:17:59.161Z</time></trkpt><trkpt lat="43.7700133" lon="11.3504721"><ele>64.33333333333334</ele><time>2026-04-06T14:18:00.159Z</time></trkpt><trkpt lat="43.7699271" lon="11.3502666"><ele>65.0</ele><time>2026-04-06T14:18:01.165Z</time></trkpt><trkpt lat="43.769842" lon="11.3500575"><ele>65.0</ele><time>2026-04-06T14:18:02.157Z</time></trkpt><trkpt lat="43.7697573" lon="11.3498532"><ele>65.0</ele><time>2026-04-06T14:18:03.153Z</time></trkpt><trkpt lat="43.7696774" lon="11.3496476"><ele>65.0</ele><time>2026-04-06T14:18:04.152Z</time></trkpt><trkpt lat="43.7695918" lon="11.3494414"><ele>64.33333333333334</ele><time>2026-04-06T14:18:05.138Z</time></trkpt><trkpt lat="43.7695076" lon="11.349229"><ele>63.66666666666667</ele><time>2026-04-06T14:18:06.152Z</time></trkpt><trkpt lat="43.7694228" lon="11.3490225"><ele>63.0</ele><time>2026-04-06T14:18:07.136Z</time></trkpt><trkpt lat="43.7693374" lon="11.3488156"><ele>64.66666666666667</ele><time>2026-04-06T14:18:08.147Z</time></trkpt><trkpt lat="43.769258" lon="11.3486204"><ele>66.33333333333334</ele><time>2026-04-06T14:18:09.151Z</time></trkpt><trkpt lat="43.7691793" lon="11.3484179"><ele>68.0</ele><time>2026-04-06T14:18:10.152Z</time></trkpt><trkpt lat="43.7690961" lon="11.3482144"><ele>67.0</ele><time>2026-04-06T14:18:11.151Z</time></trkpt><trkpt lat="43.7690099" lon="11.3480018"><ele>66.0</ele><time>2026-04-06T14:18:12.148Z</time></trkpt><trkpt lat="43.7689181" lon="11.3477903"><ele>65.0</ele><time>2026-04-06T14:18:13.143Z</time></trkpt><trkpt lat="43.7688263" lon="11.3475823"><ele>65.0</ele><time>2026-04-06T14:18:14.148Z</time></trkpt><trkpt lat="43.7687429" lon="11.3473753"><ele>65.0</ele><time>2026-04-06T14:18:15.149Z</time></trkpt><trkpt lat="43.7686553" lon="11.3471655"><ele>65.0</ele><time>2026-04-06T14:18:16.139Z</time></trkpt><trkpt lat="43.768568" lon="11.3469614"><ele>65.33333333333334</ele><time>2026-04-06T14:18:17.155Z</time></trkpt><trkpt lat="43.7684821" lon="11.3467485"><ele>65.66666666666667</ele><time>2026-04-06T14:18:18.144Z</time></trkpt><trkpt lat="43.7684011" lon="11.3465362"><ele>66.0</ele><time>2026-04-06T14:18:19.145Z</time></trkpt><trkpt lat="43.7683142" lon="11.3463254"><ele>66.0</ele><time>2026-04-06T14:18:20.144Z</time></trkpt><trkpt lat="43.7682331" lon="11.3461261"><ele>66.0</ele><time>2026-04-06T14:18:21.147Z</time></trkpt><trkpt lat="43.7681544" lon="11.3459259"><ele>66.0</ele><time>2026-04-06T14:18:22.163Z</time></trkpt><trkpt lat="43.7680747" lon="11.3457411"><ele>66.0</ele><time>2026-04-06T14:18:23.151Z</time></trkpt><trkpt lat="43.7679821" lon="11.3455653"><ele>66.0</ele><time>2026-04-06T14:18:24.148Z</time></trkpt><trkpt lat="43.7678804" lon="11.3454"><ele>66.0</ele><time>2026-04-06T14:18:25.145Z</time></trkpt><trkpt lat="43.7677674" lon="11.3452291"><ele>66.66666666666667</ele><time>2026-04-06T14:18:26.154Z</time></trkpt><trkpt lat="43.7676447" lon="11.3450649"><ele>67.33333333333334</ele><time>2026-04-06T14:18:27.142Z</time></trkpt><trkpt lat="43.7675134" lon="11.344888"><ele>68.0</ele><time>2026-04-06T14:18:28.153Z</time></trkpt><trkpt lat="43.7673737" lon="11.3446997"><ele>66.33333333333334</ele><time>2026-04-06T14:18:29.152Z</time></trkpt><trkpt lat="43.7672197" lon="11.3444973"><ele>64.66666666666667</ele><time>2026-04-06T14:18:30.153Z</time></trkpt><trkpt lat="43.7670687" lon="11.3442838"><ele>63.0</ele><time>2026-04-06T14:18:31.154Z</time></trkpt><trkpt lat="43.766933" lon="11.3440745"><ele>64.0</ele><time>2026-04-06T14:18:32.155Z</time></trkpt><trkpt lat="43.7667966" lon="11.3438839"><ele>65.0</ele><time>2026-04-06T14:18:33.15Z</time></trkpt><trkpt lat="43.766662" lon="11.3436912"><ele>66.0</ele><time>2026-04-06T14:18:34.152Z</time></trkpt><trkpt lat="43.7665268" lon="11.3435052"><ele>66.0</ele><time>2026-04-06T14:18:35.157Z</time></trkpt><trkpt lat="43.7663892" lon="11.34332"><ele>66.0</ele><time>2026-04-06T14:18:36.153Z</time></trkpt><trkpt lat="43.7662563" lon="11.3431393"><ele>66.0</ele><time>2026-04-06T14:18:37.158Z</time></trkpt><trkpt lat="43.7661309" lon="11.3429661"><ele>67.33333333333333</ele><time>2026-04-06T14:18:38.154Z</time></trkpt><trkpt lat="43.7660114" lon="11.3428019"><ele>68.66666666666666</ele><time>2026-04-06T14:18:39.156Z</time></trkpt><trkpt lat="43.7658931" lon="11.3426351"><ele>70.0</ele><time>2026-04-06T14:18:40.151Z</time></trkpt><trkpt lat="43.7657788" lon="11.3424671"><ele>70.0</ele><time>2026-04-06T14:18:41.147Z</time></trkpt><trkpt lat="43.7656727" lon="11.3422806"><ele>70.0</ele><time>2026-04-06T14:18:42.161Z</time></trkpt><trkpt lat="43.7655728" lon="11.342071"><ele>70.0</ele><time>2026-04-06T14:18:43.146Z</time></trkpt><trkpt lat="43.7654824" lon="11.3418628"><ele>69.0</ele><time>2026-04-06T14:18:44.161Z</time></trkpt><trkpt lat="43.7653973" lon="11.3416583"><ele>68.0</ele><time>2026-04-06T14:18:45.15Z</time></trkpt><trkpt lat="43.7653104" lon="11.3414426"><ele>67.0</ele><time>2026-04-06T14:18:46.15Z</time></trkpt><trkpt lat="43.7652134" lon="11.3412491"><ele>68.66666666666666</ele><time>2026-04-06T14:18:47.154Z</time></trkpt><trkpt lat="43.7651186" lon="11.3410626"><ele>70.33333333333333</ele><time>2026-04-06T14:18:48.157Z</time></trkpt><trkpt lat="43.7650115" lon="11.3408805"><ele>72.0</ele><time>2026-04-06T14:18:49.148Z</time></trkpt><trkpt lat="43.764908" lon="11.3406846"><ele>69.0</ele><time>2026-04-06T14:18:50.15Z</time></trkpt><trkpt lat="43.7648064" lon="11.3404935"><ele>66.0</ele><time>2026-04-06T14:18:51.157Z</time></trkpt><trkpt lat="43.7647156" lon="11.3402987"><ele>63.0</ele><time>2026-04-06T14:18:52.147Z</time></trkpt><trkpt lat="43.7646338" lon="11.3401085"><ele>63.0</ele><time>2026-04-06T14:18:53.161Z</time></trkpt><trkpt lat="43.7645571" lon="11.3399211"><ele>63.0</ele><time>2026-04-06T14:18:54.155Z</time></trkpt><trkpt lat="43.7644824" lon="11.339717"><ele>63.0</ele><time>2026-04-06T14:18:55.152Z</time></trkpt><trkpt lat="43.7644073" lon="11.3395044"><ele>64.66666666666667</ele><time>2026-04-06T14:18:56.146Z</time></trkpt><trkpt lat="43.7643284" lon="11.3392675"><ele>66.33333333333334</ele><time>2026-04-06T14:18:57.147Z</time></trkpt><trkpt lat="43.7642388" lon="11.3390254"><ele>68.0</ele><time>2026-04-06T14:18:58.152Z</time></trkpt><trkpt lat="43.7641545" lon="11.3387728"><ele>68.0</ele><time>2026-04-06T14:18:59.152Z</time></trkpt><trkpt lat="43.7640735" lon="11.3385137"><ele>68.0</ele><time>2026-04-06T14:19:00.148Z</time></trkpt><trkpt lat="43.7639957" lon="11.3382583"><ele>68.0</ele><time>2026-04-06T14:19:01.146Z</time></trkpt><trkpt lat="43.7639108" lon="11.3379962"><ele>68.0</ele><time>2026-04-06T14:19:02.152Z</time></trkpt><trkpt lat="43.7638262" lon="11.3377291"><ele>68.0</ele><time>2026-04-06T14:19:03.155Z</time></trkpt><trkpt lat="43.7637463" lon="11.337464"><ele>68.0</ele><time>2026-04-06T14:19:04.155Z</time></trkpt><trkpt lat="43.7636679" lon="11.3372179"><ele>67.66666666666667</ele><time>2026-04-06T14:19:05.152Z</time></trkpt><trkpt lat="43.7635866" lon="11.3369959"><ele>67.33333333333333</ele><time>2026-04-06T14:19:06.148Z</time></trkpt><trkpt lat="43.7635091" lon="11.3367836"><ele>67.0</ele><time>2026-04-06T14:19:07.148Z</time></trkpt><trkpt lat="43.7634338" lon="11.3365856"><ele>68.5</ele><time>2026-04-06T14:19:08.139Z</time></trkpt><trkpt lat="43.7633568" lon="11.3364011"><ele>70.0</ele><time>2026-04-06T14:19:09.15Z</time></trkpt><trkpt lat="43.7632706" lon="11.3362318"><ele>71.5</ele><time>2026-04-06T14:19:10.154Z</time></trkpt><trkpt lat="43.763189" lon="11.336074"><ele>73.0</ele><time>2026-04-06T14:19:11.142Z</time></trkpt><trkpt lat="43.7631073" lon="11.3359322"><ele>73.0</ele><time>2026-04-06T14:19:12.155Z</time></trkpt><trkpt lat="43.7630242" lon="11.3358011"><ele>73.0</ele><time>2026-04-06T14:19:13.157Z</time></trkpt><trkpt lat="43.7629442" lon="11.3356798"><ele>73.0</ele><time>2026-04-06T14:19:14.15Z</time></trkpt><trkpt lat="43.7628735" lon="11.3355667"><ele>73.0</ele><time>2026-04-06T14:19:15.161Z</time></trkpt><trkpt lat="43.7628098" lon="11.3354591"><ele>73.0</ele><time>2026-04-06T14:19:16.148Z</time></trkpt><trkpt lat="43.7627589" lon="11.3353738"><ele>73.0</ele><time>2026-04-06T14:19:17.154Z</time></trkpt><trkpt lat="43.7626835" lon="11.3352623"><ele>73.0</ele><time>2026-04-06T14:19:19.158Z</time></trkpt><trkpt lat="43.7626153" lon="11.3351286"><ele>73.0</ele><time>2026-04-06T14:19:21.162Z</time></trkpt><trkpt lat="43.7625665" lon="11.3350427"><ele>73.0</ele><time>2026-04-06T14:19:22.144Z</time></trkpt><trkpt lat="43.7625191" lon="11.3349721"><ele>73.0</ele><time>2026-04-06T14:19:23.145Z</time></trkpt><trkpt lat="43.7624679" lon="11.3348896"><ele>73.0</ele><time>2026-04-06T14:19:24.152Z</time></trkpt><trkpt lat="43.7624103" lon="11.3347925"><ele>73.0</ele><time>2026-04-06T14:19:25.156Z</time></trkpt><trkpt lat="43.762352" lon="11.3346885"><ele>73.0</ele><time>2026-04-06T14:19:26.143Z</time></trkpt><trkpt lat="43.7622913" lon="11.3345833"><ele>73.0</ele><time>2026-04-06T14:19:27.155Z</time></trkpt><trkpt lat="43.7622258" lon="11.3344782"><ele>72.6</ele><time>2026-04-06T14:19:28.147Z</time></trkpt><trkpt lat="43.7621526" lon="11.3343719"><ele>72.19999999999999</ele><time>2026-04-06T14:19:29.145Z</time></trkpt><trkpt lat="43.7620839" lon="11.3342724"><ele>71.8</ele><time>2026-04-06T14:19:30.148Z</time></trkpt><trkpt lat="43.7620196" lon="11.3341673"><ele>71.39999999999999</ele><time>2026-04-06T14:19:31.144Z</time></trkpt><trkpt lat="43.761951" lon="11.3340473"><ele>71.0</ele><time>2026-04-06T14:19:32.143Z</time></trkpt><trkpt lat="43.7618727" lon="11.3339297"><ele>71.0</ele><time>2026-04-06T14:19:33.147Z</time></trkpt><trkpt lat="43.7618007" lon="11.3338078"><ele>71.0</ele><time>2026-04-06T14:19:34.149Z</time></trkpt><trkpt lat="43.7617357" lon="11.3336787"><ele>71.0</ele><time>2026-04-06T14:19:35.168Z</time></trkpt><trkpt lat="43.7616727" lon="11.3335541"><ele>71.0</ele><time>2026-04-06T14:19:36.148Z</time></trkpt><trkpt lat="43.7616165" lon="11.3334309"><ele>71.0</ele><time>2026-04-06T14:19:37.148Z</time></trkpt><trkpt lat="43.7615684" lon="11.3333114"><ele>71.0</ele><time>2026-04-06T14:19:38.144Z</time></trkpt><trkpt lat="43.7615178" lon="11.333175"><ele>71.0</ele><time>2026-04-06T14:19:39.159Z</time></trkpt><trkpt lat="43.7614594" lon="11.3330118"><ele>71.0</ele><time>2026-04-06T14:19:40.169Z</time></trkpt><trkpt lat="43.7614013" lon="11.3328375"><ele>71.0</ele><time>2026-04-06T14:19:41.16Z</time></trkpt><trkpt lat="43.7613545" lon="11.3326605"><ele>70.75</ele><time>2026-04-06T14:19:42.153Z</time></trkpt><trkpt lat="43.7613149" lon="11.3324918"><ele>70.5</ele><time>2026-04-06T14:19:43.156Z</time></trkpt><trkpt lat="43.7612767" lon="11.3323201"><ele>70.25</ele><time>2026-04-06T14:19:44.162Z</time></trkpt><trkpt lat="43.7612298" lon="11.332143"><ele>70.0</ele><time>2026-04-06T14:19:45.145Z</time></trkpt><trkpt lat="43.7611692" lon="11.3319608"><ele>70.0</ele><time>2026-04-06T14:19:46.152Z</time></trkpt><trkpt lat="43.7611092" lon="11.3317857"><ele>70.0</ele><time>2026-04-06T14:19:47.155Z</time></trkpt><trkpt lat="43.7610573" lon="11.3316189"><ele>70.0</ele><time>2026-04-06T14:19:48.15Z</time></trkpt><trkpt lat="43.761012" lon="11.3314581"><ele>70.0</ele><time>2026-04-06T14:19:49.149Z</time></trkpt><trkpt lat="43.760972" lon="11.331303"><ele>70.25</ele><time>2026-04-06T14:19:50.149Z</time></trkpt><trkpt lat="43.7609297" lon="11.331147"><ele>70.5</ele><time>2026-04-06T14:19:51.15Z</time></trkpt><trkpt lat="43.7608865" lon="11.3309894"><ele>70.75</ele><time>2026-04-06T14:19:52.144Z</time></trkpt><trkpt lat="43.760835" lon="11.3308285"><ele>71.0</ele><time>2026-04-06T14:19:53.149Z</time></trkpt><trkpt lat="43.7607874" lon="11.3306586"><ele>70.75</ele><time>2026-04-06T14:19:54.16Z</time></trkpt><trkpt lat="43.7607298" lon="11.3304768"><ele>70.5</ele><time>2026-04-06T14:19:55.146Z</time></trkpt><trkpt lat="43.760675" lon="11.3302896"><ele>70.25</ele><time>2026-04-06T14:19:56.163Z</time></trkpt><trkpt lat="43.7606118" lon="11.3301064"><ele>70.0</ele><time>2026-04-06T14:19:57.145Z</time></trkpt><trkpt lat="43.7605439" lon="11.3299359"><ele>70.0</ele><time>2026-04-06T14:19:58.151Z</time></trkpt><trkpt lat="43.7604754" lon="11.3297704"><ele>70.0</ele><time>2026-04-06T14:19:59.148Z</time></trkpt><trkpt lat="43.7604066" lon="11.329622"><ele>70.0</ele><time>2026-04-06T14:20:00.161Z</time></trkpt><trkpt lat="43.7603346" lon="11.3294928"><ele>70.0</ele><time>2026-04-06T14:20:01.148Z</time></trkpt><trkpt lat="43.7602635" lon="11.3293646"><ele>70.0</ele><time>2026-04-06T14:20:02.144Z</time></trkpt><trkpt lat="43.7601874" lon="11.329237"><ele>70.0</ele><time>2026-04-06T14:20:03.145Z</time></trkpt><trkpt lat="43.7600993" lon="11.329119"><ele>70.0</ele><time>2026-04-06T14:20:04.159Z</time></trkpt><trkpt lat="43.7600128" lon="11.3290073"><ele>70.0</ele><time>2026-04-06T14:20:05.157Z</time></trkpt><trkpt lat="43.759926" lon="11.3288903"><ele>70.0</ele><time>2026-04-06T14:20:06.157Z</time></trkpt><trkpt lat="43.7598284" lon="11.328779"><ele>70.0</ele><time>2026-04-06T14:20:07.141Z</time></trkpt><trkpt lat="43.7597279" lon="11.3286767"><ele>70.0</ele><time>2026-04-06T14:20:08.149Z</time></trkpt><trkpt lat="43.7596248" lon="11.328587"><ele>70.0</ele><time>2026-04-06T14:20:09.147Z</time></trkpt><trkpt lat="43.7595245" lon="11.3285057"><ele>70.0</ele><time>2026-04-06T14:20:10.151Z</time></trkpt><trkpt lat="43.7594255" lon="11.3284361"><ele>70.0</ele><time>2026-04-06T14:20:11.149Z</time></trkpt><trkpt lat="43.759323" lon="11.3283692"><ele>70.0</ele><time>2026-04-06T14:20:12.153Z</time></trkpt><trkpt lat="43.7592199" lon="11.328303"><ele>70.0</ele><time>2026-04-06T14:20:13.143Z</time></trkpt><trkpt lat="43.7591194" lon="11.3282329"><ele>69.8</ele><time>2026-04-06T14:20:14.147Z</time></trkpt><trkpt lat="43.7590232" lon="11.3281711"><ele>69.6</ele><time>2026-04-06T14:20:15.144Z</time></trkpt><trkpt lat="43.7589287" lon="11.3281198"><ele>69.4</ele><time>2026-04-06T14:20:16.152Z</time></trkpt><trkpt lat="43.7588353" lon="11.3280817"><ele>69.2</ele><time>2026-04-06T14:20:17.146Z</time></trkpt><trkpt lat="43.7587491" lon="11.3280432"><ele>69.0</ele><time>2026-04-06T14:20:18.159Z</time></trkpt><trkpt lat="43.758662" lon="11.3279968"><ele>69.0</ele><time>2026-04-06T14:20:19.156Z</time></trkpt><trkpt lat="43.7585683" lon="11.327951"><ele>69.0</ele><time>2026-04-06T14:20:20.144Z</time></trkpt><trkpt lat="43.7584635" lon="11.327899"><ele>69.0</ele><time>2026-04-06T14:20:21.16Z</time></trkpt><trkpt lat="43.7583638" lon="11.3278473"><ele>69.0</ele><time>2026-04-06T14:20:22.16Z</time></trkpt><trkpt lat="43.7582661" lon="11.3277971"><ele>69.0</ele><time>2026-04-06T14:20:23.154Z</time></trkpt><trkpt lat="43.758146" lon="11.3277409"><ele>70.0</ele><time>2026-04-06T14:20:24.158Z</time></trkpt><trkpt lat="43.7580117" lon="11.3276787"><ele>71.0</ele><time>2026-04-06T14:20:25.142Z</time></trkpt><trkpt lat="43.7578754" lon="11.3276136"><ele>72.0</ele><time>2026-04-06T14:20:26.151Z</time></trkpt><trkpt lat="43.757733" lon="11.3275464"><ele>73.0</ele><time>2026-04-06T14:20:27.158Z</time></trkpt><trkpt lat="43.7575865" lon="11.3274766"><ele>73.25</ele><time>2026-04-06T14:20:28.146Z</time></trkpt><trkpt lat="43.757448" lon="11.3274029"><ele>73.5</ele><time>2026-04-06T14:20:29.147Z</time></trkpt><trkpt lat="43.7573188" lon="11.3273339"><ele>73.75</ele><time>2026-04-06T14:20:30.149Z</time></trkpt><trkpt lat="43.757198" lon="11.3272719"><ele>74.0</ele><time>2026-04-06T14:20:31.151Z</time></trkpt><trkpt lat="43.7570858" lon="11.3272088"><ele>73.5</ele><time>2026-04-06T14:20:32.167Z</time></trkpt><trkpt lat="43.7569826" lon="11.3271384"><ele>73.0</ele><time>2026-04-06T14:20:33.152Z</time></trkpt><trkpt lat="43.7568819" lon="11.327057"><ele>72.5</ele><time>2026-04-06T14:20:34.15Z</time></trkpt><trkpt lat="43.756785" lon="11.3269594"><ele>72.0</ele><time>2026-04-06T14:20:35.149Z</time></trkpt><trkpt lat="43.7567101" lon="11.3268239"><ele>72.0</ele><time>2026-04-06T14:20:36.146Z</time></trkpt><trkpt lat="43.7566624" lon="11.3266622"><ele>72.0</ele><time>2026-04-06T14:20:37.161Z</time></trkpt><trkpt lat="43.7566388" lon="11.3264933"><ele>72.0</ele><time>2026-04-06T14:20:38.163Z</time></trkpt><trkpt lat="43.7566162" lon="11.3263176"><ele>72.0</ele><time>2026-04-06T14:20:39.153Z</time></trkpt><trkpt lat="43.7565977" lon="11.3261235"><ele>71.25</ele><time>2026-04-06T14:20:40.154Z</time></trkpt><trkpt lat="43.7565634" lon="11.3259251"><ele>70.5</ele><time>2026-04-06T14:20:41.155Z</time></trkpt><trkpt lat="43.7565028" lon="11.3257297"><ele>69.75</ele><time>2026-04-06T14:20:42.152Z</time></trkpt><trkpt lat="43.7564189" lon="11.3255631"><ele>69.0</ele><time>2026-04-06T14:20:43.155Z</time></trkpt><trkpt lat="43.7563452" lon="11.3254111"><ele>68.5</ele><time>2026-04-06T14:20:44.158Z</time></trkpt><trkpt lat="43.7562914" lon="11.3252308"><ele>68.0</ele><time>2026-04-06T14:20:45.146Z</time></trkpt><trkpt lat="43.7562661" lon="11.3250439"><ele>67.5</ele><time>2026-04-06T14:20:46.149Z</time></trkpt><trkpt lat="43.7562687" lon="11.3248577"><ele>67.0</ele><time>2026-04-06T14:20:47.15Z</time></trkpt><trkpt lat="43.7562871" lon="11.3246346"><ele>67.0</ele><time>2026-04-06T14:20:48.152Z</time></trkpt><trkpt lat="43.7563167" lon="11.32441"><ele>67.0</ele><time>2026-04-06T14:20:49.149Z</time></trkpt><trkpt lat="43.756359" lon="11.3241749"><ele>67.0</ele><time>2026-04-06T14:20:50.15Z</time></trkpt><trkpt lat="43.7564009" lon="11.3239261"><ele>66.66666666666666</ele><time>2026-04-06T14:20:51.146Z</time></trkpt><trkpt lat="43.7564341" lon="11.3236494"><ele>66.33333333333333</ele><time>2026-04-06T14:20:52.144Z</time></trkpt><trkpt lat="43.756472" lon="11.3233549"><ele>66.0</ele><time>2026-04-06T14:20:53.159Z</time></trkpt><trkpt lat="43.7565015" lon="11.3230713"><ele>65.33333333333333</ele><time>2026-04-06T14:20:54.149Z</time></trkpt><trkpt lat="43.7565362" lon="11.322801"><ele>64.66666666666666</ele><time>2026-04-06T14:20:55.155Z</time></trkpt><trkpt lat="43.7565571" lon="11.3225189"><ele>64.0</ele><time>2026-04-06T14:20:56.157Z</time></trkpt><trkpt lat="43.7565694" lon="11.3222311"><ele>63.666666666666664</ele><time>2026-04-06T14:20:57.14Z</time></trkpt><trkpt lat="43.7565732" lon="11.3219545"><ele>63.33333333333333</ele><time>2026-04-06T14:20:58.154Z</time></trkpt><trkpt lat="43.7565636" lon="11.3216835"><ele>63.0</ele><time>2026-04-06T14:20:59.152Z</time></trkpt><trkpt lat="43.7565498" lon="11.3214204"><ele>63.66666666666667</ele><time>2026-04-06T14:21:00.166Z</time></trkpt><trkpt lat="43.756525" lon="11.3211476"><ele>64.33333333333334</ele><time>2026-04-06T14:21:01.14Z</time></trkpt><trkpt lat="43.7564977" lon="11.3208715"><ele>65.0</ele><time>2026-04-06T14:21:02.149Z</time></trkpt><trkpt lat="43.756468" lon="11.3205995"><ele>64.0</ele><time>2026-04-06T14:21:03.16Z</time></trkpt><trkpt lat="43.7564381" lon="11.3203382"><ele>63.0</ele><time>2026-04-06T14:21:04.15Z</time></trkpt><trkpt lat="43.7563995" lon="11.3200897"><ele>62.0</ele><time>2026-04-06T14:21:05.152Z</time></trkpt><trkpt lat="43.7563619" lon="11.3198543"><ele>62.0</ele><time>2026-04-06T14:21:06.152Z</time></trkpt><trkpt lat="43.7563305" lon="11.3196293"><ele>62.0</ele><time>2026-04-06T14:21:07.153Z</time></trkpt><trkpt lat="43.7563014" lon="11.3194155"><ele>62.0</ele><time>2026-04-06T14:21:08.152Z</time></trkpt><trkpt lat="43.7562656" lon="11.3191978"><ele>62.0</ele><time>2026-04-06T14:21:09.159Z</time></trkpt><trkpt lat="43.7562319" lon="11.3189817"><ele>62.0</ele><time>2026-04-06T14:21:10.151Z</time></trkpt><trkpt lat="43.7561956" lon="11.3187743"><ele>62.0</ele><time>2026-04-06T14:21:11.154Z</time></trkpt><trkpt lat="43.7561654" lon="11.3185635"><ele>62.25</ele><time>2026-04-06T14:21:12.165Z</time></trkpt><trkpt lat="43.7561372" lon="11.318361"><ele>62.5</ele><time>2026-04-06T14:21:13.147Z</time></trkpt><trkpt lat="43.7561101" lon="11.3181704"><ele>62.75</ele><time>2026-04-06T14:21:14.162Z</time></trkpt><trkpt lat="43.7560831" lon="11.318003"><ele>63.0</ele><time>2026-04-06T14:21:15.157Z</time></trkpt><trkpt lat="43.7560818" lon="11.3178566"><ele>63.0</ele><time>2026-04-06T14:21:16.159Z</time></trkpt><trkpt lat="43.7561114" lon="11.3177188"><ele>63.0</ele><time>2026-04-06T14:21:17.145Z</time></trkpt><trkpt lat="43.7561591" lon="11.3176025"><ele>63.0</ele><time>2026-04-06T14:21:18.146Z</time></trkpt><trkpt lat="43.7561842" lon="11.3174793"><ele>63.0</ele><time>2026-04-06T14:21:19.156Z</time></trkpt><trkpt lat="43.7561842" lon="11.317362"><ele>63.0</ele><time>2026-04-06T14:21:20.143Z</time></trkpt><trkpt lat="43.7561307" lon="11.3172283"><ele>62.5</ele><time>2026-04-06T14:21:21.15Z</time></trkpt><trkpt lat="43.7560531" lon="11.3171003"><ele>62.0</ele><time>2026-04-06T14:21:22.142Z</time></trkpt><trkpt lat="43.7559703" lon="11.3169528"><ele>61.5</ele><time>2026-04-06T14:21:23.156Z</time></trkpt><trkpt lat="43.7559119" lon="11.3167809"><ele>61.0</ele><time>2026-04-06T14:21:24.152Z</time></trkpt><trkpt lat="43.7558872" lon="11.316593"><ele>61.0</ele><time>2026-04-06T14:21:25.15Z</time></trkpt><trkpt lat="43.7558416" lon="11.3164125"><ele>61.0</ele><time>2026-04-06T14:21:26.151Z</time></trkpt><trkpt lat="43.7557623" lon="11.3162316"><ele>61.0</ele><time>2026-04-06T14:21:27.158Z</time></trkpt><trkpt lat="43.7556875" lon="11.316031"><ele>61.0</ele><time>2026-04-06T14:21:28.149Z</time></trkpt><trkpt lat="43.7556348" lon="11.3158171"><ele>61.0</ele><time>2026-04-06T14:21:29.148Z</time></trkpt><trkpt lat="43.7556004" lon="11.3155843"><ele>61.0</ele><time>2026-04-06T14:21:30.157Z</time></trkpt><trkpt lat="43.7555732" lon="11.3153513"><ele>61.0</ele><time>2026-04-06T14:21:31.159Z</time></trkpt><trkpt lat="43.7555376" lon="11.3151234"><ele>61.0</ele><time>2026-04-06T14:21:32.159Z</time></trkpt><trkpt lat="43.7555111" lon="11.3149108"><ele>61.0</ele><time>2026-04-06T14:21:33.165Z</time></trkpt><trkpt lat="43.7554761" lon="11.314702"><ele>60.5</ele><time>2026-04-06T14:21:34.158Z</time></trkpt><trkpt lat="43.7554432" lon="11.3144969"><ele>60.0</ele><time>2026-04-06T14:21:35.151Z</time></trkpt><trkpt lat="43.7554106" lon="11.3142992"><ele>59.5</ele><time>2026-04-06T14:21:36.152Z</time></trkpt><trkpt lat="43.7553808" lon="11.3140977"><ele>59.0</ele><time>2026-04-06T14:21:37.151Z</time></trkpt><trkpt lat="43.7553478" lon="11.3138932"><ele>59.0</ele><time>2026-04-06T14:21:38.152Z</time></trkpt><trkpt lat="43.7553047" lon="11.313687"><ele>59.0</ele><time>2026-04-06T14:21:39.158Z</time></trkpt><trkpt lat="43.7552669" lon="11.3134772"><ele>59.0</ele><time>2026-04-06T14:21:40.157Z</time></trkpt><trkpt lat="43.7552312" lon="11.3132774"><ele>59.0</ele><time>2026-04-06T14:21:41.159Z</time></trkpt><trkpt lat="43.7552048" lon="11.313082"><ele>59.0</ele><time>2026-04-06T14:21:42.154Z</time></trkpt><trkpt lat="43.7551753" lon="11.3128901"><ele>59.0</ele><time>2026-04-06T14:21:43.165Z</time></trkpt><trkpt lat="43.7551482" lon="11.3126881"><ele>59.0</ele><time>2026-04-06T14:21:44.161Z</time></trkpt><trkpt lat="43.755116" lon="11.312487"><ele>59.0</ele><time>2026-04-06T14:21:45.158Z</time></trkpt><trkpt lat="43.7550903" lon="11.3122768"><ele>59.0</ele><time>2026-04-06T14:21:46.157Z</time></trkpt><trkpt lat="43.7550726" lon="11.3120755"><ele>59.0</ele><time>2026-04-06T14:21:47.145Z</time></trkpt><trkpt lat="43.7550534" lon="11.3118706"><ele>59.0</ele><time>2026-04-06T14:21:48.154Z</time></trkpt><trkpt lat="43.7550351" lon="11.3116678"><ele>59.0</ele><time>2026-04-06T14:21:49.154Z</time></trkpt><trkpt lat="43.7550173" lon="11.3114663"><ele>59.0</ele><time>2026-04-06T14:21:50.157Z</time></trkpt><trkpt lat="43.7550025" lon="11.3112718"><ele>59.0</ele><time>2026-04-06T14:21:51.161Z</time></trkpt><trkpt lat="43.7549934" lon="11.3111005"><ele>58.800000000000004</ele><time>2026-04-06T14:21:52.157Z</time></trkpt><trkpt lat="43.7549811" lon="11.3109395"><ele>58.60000000000001</ele><time>2026-04-06T14:21:53.159Z</time></trkpt><trkpt lat="43.754975" lon="11.3107826"><ele>58.4</ele><time>2026-04-06T14:21:54.148Z</time></trkpt><trkpt lat="43.7549687" lon="11.3106381"><ele>58.2</ele><time>2026-04-06T14:21:55.162Z</time></trkpt><trkpt lat="43.7549706" lon="11.3105003"><ele>58.0</ele><time>2026-04-06T14:21:56.148Z</time></trkpt><trkpt lat="43.7549692" lon="11.3103927"><ele>58.0</ele><time>2026-04-06T14:21:57.148Z</time></trkpt><trkpt lat="43.7549641" lon="11.310292"><ele>58.0</ele><time>2026-04-06T14:21:59.146Z</time></trkpt><trkpt lat="43.7549678" lon="11.3102"><ele>58.0</ele><time>2026-04-06T14:22:23.154Z</time></trkpt><trkpt lat="43.7549593" lon="11.3100373"><ele>58.0</ele><time>2026-04-06T14:22:25.148Z</time></trkpt><trkpt lat="43.7549532" lon="11.309876"><ele>58.0</ele><time>2026-04-06T14:22:27.154Z</time></trkpt><trkpt lat="43.7549547" lon="11.3097174"><ele>58.166666666666664</ele><time>2026-04-06T14:22:29.151Z</time></trkpt><trkpt lat="43.7549524" lon="11.3096236"><ele>58.33333333333333</ele><time>2026-04-06T14:22:30.153Z</time></trkpt><trkpt lat="43.7549477" lon="11.3095216"><ele>58.5</ele><time>2026-04-06T14:22:31.143Z</time></trkpt><trkpt lat="43.7549493" lon="11.3093984"><ele>58.66666666666667</ele><time>2026-04-06T14:22:32.152Z</time></trkpt><trkpt lat="43.7549509" lon="11.3092559"><ele>58.833333333333336</ele><time>2026-04-06T14:22:33.146Z</time></trkpt><trkpt lat="43.7549583" lon="11.3091133"><ele>59.0</ele><time>2026-04-06T14:22:34.155Z</time></trkpt><trkpt lat="43.7549724" lon="11.3089581"><ele>59.0</ele><time>2026-04-06T14:22:35.145Z</time></trkpt><trkpt lat="43.7549858" lon="11.3087961"><ele>59.0</ele><time>2026-04-06T14:22:36.151Z</time></trkpt><trkpt lat="43.7549963" lon="11.3086277"><ele>59.0</ele><time>2026-04-06T14:22:37.151Z</time></trkpt><trkpt lat="43.7550082" lon="11.3084569"><ele>59.0</ele><time>2026-04-06T14:22:38.148Z</time></trkpt><trkpt lat="43.7550228" lon="11.3082942"><ele>59.0</ele><time>2026-04-06T14:22:39.155Z</time></trkpt><trkpt lat="43.7550399" lon="11.3081283"><ele>59.0</ele><time>2026-04-06T14:22:40.146Z</time></trkpt><trkpt lat="43.7550567" lon="11.30796"><ele>59.0</ele><time>2026-04-06T14:22:41.147Z</time></trkpt><trkpt lat="43.7550736" lon="11.3077941"><ele>59.0</ele><time>2026-04-06T14:22:42.145Z</time></trkpt><trkpt lat="43.7550939" lon="11.3076372"><ele>59.0</ele><time>2026-04-06T14:22:43.147Z</time></trkpt><trkpt lat="43.7551152" lon="11.307487"><ele>59.00000000000001</ele><time>2026-04-06T14:22:44.145Z</time></trkpt><trkpt lat="43.7551434" lon="11.3073534"><ele>59.00000000000001</ele><time>2026-04-06T14:22:45.151Z</time></trkpt><trkpt lat="43.7551541" lon="11.3072373"><ele>59.0</ele><time>2026-04-06T14:22:46.157Z</time></trkpt><trkpt lat="43.7551692" lon="11.3071475"><ele>59.0</ele><time>2026-04-06T14:22:47.14Z</time></trkpt><trkpt lat="43.7551938" lon="11.3070072"><ele>58.833333333333336</ele><time>2026-04-06T14:22:49.156Z</time></trkpt><trkpt lat="43.7552167" lon="11.3069071"><ele>58.66666666666667</ele><time>2026-04-06T14:22:51.15Z</time></trkpt><trkpt lat="43.7552479" lon="11.3067995"><ele>58.5</ele><time>2026-04-06T14:22:53.15Z</time></trkpt><trkpt lat="43.7553139" lon="11.3067173"><ele>58.33333333333333</ele><time>2026-04-06T14:22:55.147Z</time></trkpt><trkpt lat="43.7553793" lon="11.3066374"><ele>58.166666666666664</ele><time>2026-04-06T14:22:57.152Z</time></trkpt><trkpt lat="43.7554041" lon="11.3065534"><ele>58.0</ele><time>2026-04-06T14:22:58.148Z</time></trkpt><trkpt lat="43.7554283" lon="11.3064451"><ele>57.99999999999999</ele><time>2026-04-06T14:22:59.148Z</time></trkpt><trkpt lat="43.7554462" lon="11.3063344"><ele>58.0</ele><time>2026-04-06T14:23:00.155Z</time></trkpt><trkpt lat="43.7554663" lon="11.3062288"><ele>58.0</ele><time>2026-04-06T14:23:01.154Z</time></trkpt><trkpt lat="43.7554826" lon="11.3061205"><ele>58.0</ele><time>2026-04-06T14:23:02.159Z</time></trkpt><trkpt lat="43.7555078" lon="11.3060161"><ele>57.99999999999999</ele><time>2026-04-06T14:23:03.146Z</time></trkpt><trkpt lat="43.7555313" lon="11.3059029"><ele>58.0</ele><time>2026-04-06T14:23:04.149Z</time></trkpt><trkpt lat="43.7555543" lon="11.3057857"><ele>58.0</ele><time>2026-04-06T14:23:05.142Z</time></trkpt><trkpt lat="43.7555813" lon="11.3056529"><ele>58.0</ele><time>2026-04-06T14:23:06.155Z</time></trkpt><trkpt lat="43.7556155" lon="11.3055237"><ele>58.0</ele><time>2026-04-06T14:23:07.149Z</time></trkpt><trkpt lat="43.7556364" lon="11.3053896"><ele>58.0</ele><time>2026-04-06T14:23:08.146Z</time></trkpt><trkpt lat="43.7556679" lon="11.3052528"><ele>58.0</ele><time>2026-04-06T14:23:09.147Z</time></trkpt><trkpt lat="43.7557015" lon="11.305103"><ele>57.8</ele><time>2026-04-06T14:23:10.147Z</time></trkpt><trkpt lat="43.7557312" lon="11.3049599"><ele>57.599999999999994</ele><time>2026-04-06T14:23:11.151Z</time></trkpt><trkpt lat="43.7557555" lon="11.3048152"><ele>57.400000000000006</ele><time>2026-04-06T14:23:12.144Z</time></trkpt><trkpt lat="43.7557812" lon="11.3046798"><ele>57.2</ele><time>2026-04-06T14:23:13.15Z</time></trkpt><trkpt lat="43.7558034" lon="11.3045517"><ele>57.0</ele><time>2026-04-06T14:23:14.146Z</time></trkpt><trkpt lat="43.7558338" lon="11.304417"><ele>57.166666666666664</ele><time>2026-04-06T14:23:15.154Z</time></trkpt><trkpt lat="43.7558571" lon="11.3042892"><ele>57.33333333333333</ele><time>2026-04-06T14:23:16.153Z</time></trkpt><trkpt lat="43.7558801" lon="11.3041669"><ele>57.5</ele><time>2026-04-06T14:23:17.152Z</time></trkpt><trkpt lat="43.7559022" lon="11.3040551"><ele>57.666666666666664</ele><time>2026-04-06T14:23:18.153Z</time></trkpt><trkpt lat="43.7559247" lon="11.3039481"><ele>57.83333333333333</ele><time>2026-04-06T14:23:19.15Z</time></trkpt><trkpt lat="43.755946" lon="11.3038407"><ele>58.0</ele><time>2026-04-06T14:23:20.145Z</time></trkpt><trkpt lat="43.7559673" lon="11.3037384"><ele>58.0</ele><time>2026-04-06T14:23:21.152Z</time></trkpt><trkpt lat="43.7559749" lon="11.3036145"><ele>58.0</ele><time>2026-04-06T14:23:22.147Z</time></trkpt><trkpt lat="43.7559843" lon="11.3034677"><ele>58.0</ele><time>2026-04-06T14:23:23.148Z</time></trkpt><trkpt lat="43.7559932" lon="11.3033176"><ele>58.0</ele><time>2026-04-06T14:23:24.154Z</time></trkpt><trkpt lat="43.7560102" lon="11.3031967"><ele>58.0</ele><time>2026-04-06T14:23:25.153Z</time></trkpt><trkpt lat="43.7560343" lon="11.3030812"><ele>57.99999999999999</ele><time>2026-04-06T14:23:26.163Z</time></trkpt><trkpt lat="43.7560575" lon="11.302965"><ele>58.0</ele><time>2026-04-06T14:23:27.149Z</time></trkpt><trkpt lat="43.7560831" lon="11.3028505"><ele>58.0</ele><time>2026-04-06T14:23:28.147Z</time></trkpt><trkpt lat="43.7561102" lon="11.3027287"><ele>58.0</ele><time>2026-04-06T14:23:29.155Z</time></trkpt><trkpt lat="43.7561365" lon="11.3026173"><ele>57.99999999999999</ele><time>2026-04-06T14:23:30.156Z</time></trkpt><trkpt lat="43.7561581" lon="11.3024932"><ele>58.0</ele><time>2026-04-06T14:23:31.146Z</time></trkpt><trkpt lat="43.756178" lon="11.3023795"><ele>57.99999999999999</ele><time>2026-04-06T14:23:32.151Z</time></trkpt><trkpt lat="43.756192" lon="11.3022686"><ele>58.0</ele><time>2026-04-06T14:23:33.146Z</time></trkpt><trkpt lat="43.7562077" lon="11.3021729"><ele>58.0</ele><time>2026-04-06T14:23:34.154Z</time></trkpt><trkpt lat="43.7562281" lon="11.3020852"><ele>58.0</ele><time>2026-04-06T14:23:35.15Z</time></trkpt><trkpt lat="43.7562555" lon="11.3019242"><ele>57.99999999999999</ele><time>2026-04-06T14:23:37.151Z</time></trkpt><trkpt lat="43.7562842" lon="11.3017961"><ele>58.0</ele><time>2026-04-06T14:23:39.153Z</time></trkpt><trkpt lat="43.7563099" lon="11.3016707"><ele>57.83333333333333</ele><time>2026-04-06T14:23:41.157Z</time></trkpt><trkpt lat="43.7563308" lon="11.3015451"><ele>57.666666666666664</ele><time>2026-04-06T14:23:43.154Z</time></trkpt><trkpt lat="43.7563581" lon="11.3014269"><ele>57.5</ele><time>2026-04-06T14:23:45.154Z</time></trkpt><trkpt lat="43.7563794" lon="11.3013331"><ele>57.33333333333333</ele><time>2026-04-06T14:23:47.166Z</time></trkpt><trkpt lat="43.7564057" lon="11.301216"><ele>57.166666666666664</ele><time>2026-04-06T14:23:50.152Z</time></trkpt><trkpt lat="43.7563839" lon="11.3011216"><ele>57.0</ele><time>2026-04-06T14:23:52.15Z</time></trkpt><trkpt lat="43.7562817" lon="11.3010618"><ele>57.0</ele><time>2026-04-06T14:23:54.152Z</time></trkpt><trkpt lat="43.7562176" lon="11.3010559"><ele>57.0</ele><time>2026-04-06T14:23:55.154Z</time></trkpt><trkpt lat="43.7560927" lon="11.3010778"><ele>57.0</ele><time>2026-04-06T14:23:57.151Z</time></trkpt><trkpt lat="43.7560248" lon="11.3010917"><ele>57.0</ele><time>2026-04-06T14:23:58.144Z</time></trkpt><trkpt lat="43.7559578" lon="11.3011025"><ele>57.0</ele><time>2026-04-06T14:23:59.153Z</time></trkpt><trkpt lat="43.7558902" lon="11.3011084"><ele>57.0</ele><time>2026-04-06T14:24:00.152Z</time></trkpt><trkpt lat="43.7557799" lon="11.3011465"><ele>57.0</ele><time>2026-04-06T14:24:02.154Z</time></trkpt><trkpt lat="43.7557398" lon="11.3012149"><ele>57.0</ele><time>2026-04-06T14:24:03.149Z</time></trkpt><trkpt lat="43.7556831" lon="11.3013332"><ele>57.0</ele><time>2026-04-06T14:24:05.149Z</time></trkpt><trkpt lat="43.755613" lon="11.3014436"><ele>57.0</ele><time>2026-04-06T14:24:07.149Z</time></trkpt><trkpt lat="43.7555043" lon="11.3014941"><ele>57.0</ele><time>2026-04-06T14:24:09.155Z</time></trkpt><trkpt lat="43.7554273" lon="11.3014741"><ele>57.0</ele><time>2026-04-06T14:24:10.158Z</time></trkpt><trkpt lat="43.7553527" lon="11.3014411"><ele>57.0</ele><time>2026-04-06T14:24:11.159Z</time></trkpt><trkpt lat="43.7552649" lon="11.3014102"><ele>57.0</ele><time>2026-04-06T14:24:12.153Z</time></trkpt><trkpt lat="43.7551595" lon="11.3013708"><ele>57.0</ele><time>2026-04-06T14:24:13.157Z</time></trkpt><trkpt lat="43.7550416" lon="11.3013222"><ele>57.0</ele><time>2026-04-06T14:24:14.143Z</time></trkpt><trkpt lat="43.7549103" lon="11.3012559"><ele>57.33333333333333</ele><time>2026-04-06T14:24:15.158Z</time></trkpt><trkpt lat="43.7547824" lon="11.301178"><ele>57.666666666666664</ele><time>2026-04-06T14:24:16.154Z</time></trkpt><trkpt lat="43.7546398" lon="11.3010953"><ele>58.0</ele><time>2026-04-06T14:24:17.145Z</time></trkpt><trkpt lat="43.7544976" lon="11.3010012"><ele>57.666666666666664</ele><time>2026-04-06T14:24:18.149Z</time></trkpt><trkpt lat="43.7543416" lon="11.3009102"><ele>57.33333333333333</ele><time>2026-04-06T14:24:19.153Z</time></trkpt><trkpt lat="43.754171" lon="11.3008036"><ele>57.0</ele><time>2026-04-06T14:24:20.155Z</time></trkpt><trkpt lat="43.7539904" lon="11.3006912"><ele>57.0</ele><time>2026-04-06T14:24:21.149Z</time></trkpt><trkpt lat="43.753804" lon="11.3005786"><ele>57.0</ele><time>2026-04-06T14:24:22.161Z</time></trkpt><trkpt lat="43.7536078" lon="11.300458"><ele>57.0</ele><time>2026-04-06T14:24:23.156Z</time></trkpt><trkpt lat="43.7534084" lon="11.3003345"><ele>56.5</ele><time>2026-04-06T14:24:24.164Z</time></trkpt><trkpt lat="43.7532003" lon="11.3002079"><ele>56.0</ele><time>2026-04-06T14:24:25.15Z</time></trkpt><trkpt lat="43.7529951" lon="11.3000898"><ele>56.0</ele><time>2026-04-06T14:24:26.153Z</time></trkpt><trkpt lat="43.7528078" lon="11.2999713"><ele>56.0</ele><time>2026-04-06T14:24:27.156Z</time></trkpt><trkpt lat="43.7526279" lon="11.2998615"><ele>56.0</ele><time>2026-04-06T14:24:28.155Z</time></trkpt><trkpt lat="43.7524555" lon="11.2997489"><ele>55.0</ele><time>2026-04-06T14:24:29.155Z</time></trkpt><trkpt lat="43.7522885" lon="11.2996336"><ele>54.0</ele><time>2026-04-06T14:24:30.151Z</time></trkpt><trkpt lat="43.7521238" lon="11.2995122"><ele>53.0</ele><time>2026-04-06T14:24:31.162Z</time></trkpt><trkpt lat="43.7519621" lon="11.2993831"><ele>55.0</ele><time>2026-04-06T14:24:32.147Z</time></trkpt><trkpt lat="43.7518041" lon="11.2992476"><ele>57.0</ele><time>2026-04-06T14:24:33.153Z</time></trkpt><trkpt lat="43.7516433" lon="11.2991105"><ele>59.0</ele><time>2026-04-06T14:24:34.161Z</time></trkpt><trkpt lat="43.7514856" lon="11.2989672"><ele>58.66666666666667</ele><time>2026-04-06T14:24:35.162Z</time></trkpt><trkpt lat="43.7513246" lon="11.2988201"><ele>58.33333333333333</ele><time>2026-04-06T14:24:36.162Z</time></trkpt><trkpt lat="43.751162" lon="11.2986702"><ele>58.0</ele><time>2026-04-06T14:24:37.157Z</time></trkpt><trkpt lat="43.7510031" lon="11.2985138"><ele>57.666666666666664</ele><time>2026-04-06T14:24:38.145Z</time></trkpt><trkpt lat="43.7508455" lon="11.2983516"><ele>57.33333333333333</ele><time>2026-04-06T14:24:39.151Z</time></trkpt><trkpt lat="43.7506805" lon="11.298183"><ele>57.0</ele><time>2026-04-06T14:24:40.145Z</time></trkpt><trkpt lat="43.7505211" lon="11.2980179"><ele>57.0</ele><time>2026-04-06T14:24:41.165Z</time></trkpt><trkpt lat="43.750362" lon="11.2978457"><ele>57.0</ele><time>2026-04-06T14:24:42.152Z</time></trkpt><trkpt lat="43.7502025" lon="11.2976735"><ele>57.0</ele><time>2026-04-06T14:24:43.153Z</time></trkpt><trkpt lat="43.7500422" lon="11.2975027"><ele>58.66666666666667</ele><time>2026-04-06T14:24:44.168Z</time></trkpt><trkpt lat="43.7498792" lon="11.2973333"><ele>60.333333333333336</ele><time>2026-04-06T14:24:45.147Z</time></trkpt><trkpt lat="43.7497178" lon="11.297166"><ele>62.0</ele><time>2026-04-06T14:24:46.157Z</time></trkpt><trkpt lat="43.7495576" lon="11.2970031"><ele>62.0</ele><time>2026-04-06T14:24:47.156Z</time></trkpt><trkpt lat="43.7494062" lon="11.2968363"><ele>62.0</ele><time>2026-04-06T14:24:48.168Z</time></trkpt><trkpt lat="43.7492548" lon="11.2966719"><ele>62.0</ele><time>2026-04-06T14:24:49.155Z</time></trkpt><trkpt lat="43.7491031" lon="11.2965067"><ele>62.66666666666667</ele><time>2026-04-06T14:24:50.162Z</time></trkpt><trkpt lat="43.7489494" lon="11.2963367"><ele>63.33333333333333</ele><time>2026-04-06T14:24:51.16Z</time></trkpt><trkpt lat="43.7488102" lon="11.2961614"><ele>64.0</ele><time>2026-04-06T14:24:52.163Z</time></trkpt><trkpt lat="43.7486871" lon="11.2959698"><ele>64.0</ele><time>2026-04-06T14:24:53.155Z</time></trkpt><trkpt lat="43.7485761" lon="11.2957646"><ele>64.0</ele><time>2026-04-06T14:24:54.159Z</time></trkpt><trkpt lat="43.7484921" lon="11.2955555"><ele>64.0</ele><time>2026-04-06T14:24:55.14Z</time></trkpt><trkpt lat="43.7484149" lon="11.2953436"><ele>67.33333333333333</ele><time>2026-04-06T14:24:56.159Z</time></trkpt><trkpt lat="43.7483382" lon="11.2951268"><ele>70.66666666666667</ele><time>2026-04-06T14:24:57.159Z</time></trkpt><trkpt lat="43.7482762" lon="11.2948897"><ele>74.0</ele><time>2026-04-06T14:24:58.15Z</time></trkpt><trkpt lat="43.7482332" lon="11.2946367"><ele>74.33333333333334</ele><time>2026-04-06T14:24:59.193Z</time></trkpt><trkpt lat="43.7482074" lon="11.2943736"><ele>74.66666666666667</ele><time>2026-04-06T14:25:00.144Z</time></trkpt><trkpt lat="43.7481962" lon="11.2941168"><ele>75.0</ele><time>2026-04-06T14:25:01.157Z</time></trkpt><trkpt lat="43.7482104" lon="11.2938517"><ele>75.66666666666667</ele><time>2026-04-06T14:25:02.144Z</time></trkpt><trkpt lat="43.748229" lon="11.2935891"><ele>76.33333333333334</ele><time>2026-04-06T14:25:03.153Z</time></trkpt><trkpt lat="43.7482474" lon="11.2933176"><ele>77.0</ele><time>2026-04-06T14:25:04.147Z</time></trkpt><trkpt lat="43.7482636" lon="11.2930422"><ele>78.0</ele><time>2026-04-06T14:25:05.152Z</time></trkpt><trkpt lat="43.7482792" lon="11.2927643"><ele>79.0</ele><time>2026-04-06T14:25:06.148Z</time></trkpt><trkpt lat="43.7482843" lon="11.2924885"><ele>80.0</ele><time>2026-04-06T14:25:07.147Z</time></trkpt><trkpt lat="43.7482938" lon="11.2922112"><ele>80.0</ele><time>2026-04-06T14:25:08.161Z</time></trkpt><trkpt lat="43.7483021" lon="11.2919326"><ele>80.0</ele><time>2026-04-06T14:25:09.161Z</time></trkpt><trkpt lat="43.7483143" lon="11.2916612"><ele>80.0</ele><time>2026-04-06T14:25:10.156Z</time></trkpt><trkpt lat="43.7483221" lon="11.2913843"><ele>82.33333333333334</ele><time>2026-04-06T14:25:11.156Z</time></trkpt><trkpt lat="43.7483398" lon="11.2911045"><ele>84.66666666666667</ele><time>2026-04-06T14:25:12.143Z</time></trkpt><trkpt lat="43.7483488" lon="11.290821"><ele>87.0</ele><time>2026-04-06T14:25:13.155Z</time></trkpt><trkpt lat="43.7483571" lon="11.2905408"><ele>88.33333333333333</ele><time>2026-04-06T14:25:14.155Z</time></trkpt><trkpt lat="43.7483447" lon="11.2902592"><ele>89.66666666666666</ele><time>2026-04-06T14:25:15.155Z</time></trkpt><trkpt lat="43.7483214" lon="11.2899813"><ele>91.0</ele><time>2026-04-06T14:25:16.166Z</time></trkpt><trkpt lat="43.748282" lon="11.2897156"><ele>92.66666666666666</ele><time>2026-04-06T14:25:17.166Z</time></trkpt><trkpt lat="43.7482219" lon="11.2894603"><ele>94.33333333333333</ele><time>2026-04-06T14:25:18.157Z</time></trkpt><trkpt lat="43.7481504" lon="11.2892262"><ele>96.0</ele><time>2026-04-06T14:25:19.157Z</time></trkpt><trkpt lat="43.7480595" lon="11.2890025"><ele>98.33333333333334</ele><time>2026-04-06T14:25:20.14Z</time></trkpt><trkpt lat="43.7479634" lon="11.2887803"><ele>100.66666666666667</ele><time>2026-04-06T14:25:21.142Z</time></trkpt><trkpt lat="43.7478621" lon="11.2885673"><ele>103.0</ele><time>2026-04-06T14:25:22.154Z</time></trkpt><trkpt lat="43.74776" lon="11.2883607"><ele>102.0</ele><time>2026-04-06T14:25:23.16Z</time></trkpt><trkpt lat="43.7476619" lon="11.2881596"><ele>101.0</ele><time>2026-04-06T14:25:24.15Z</time></trkpt><trkpt lat="43.7475676" lon="11.2879576"><ele>100.0</ele><time>2026-04-06T14:25:25.15Z</time></trkpt><trkpt lat="43.7474759" lon="11.2877553"><ele>100.0</ele><time>2026-04-06T14:25:26.152Z</time></trkpt><trkpt lat="43.7473872" lon="11.2875491"><ele>100.0</ele><time>2026-04-06T14:25:27.151Z</time></trkpt><trkpt lat="43.7472986" lon="11.287342"><ele>100.0</ele><time>2026-04-06T14:25:28.154Z</time></trkpt><trkpt lat="43.7472086" lon="11.2871379"><ele>104.0</ele><time>2026-04-06T14:25:29.143Z</time></trkpt><trkpt lat="43.7471257" lon="11.286937"><ele>108.0</ele><time>2026-04-06T14:25:30.147Z</time></trkpt><trkpt lat="43.7470491" lon="11.2867444"><ele>112.0</ele><time>2026-04-06T14:25:31.147Z</time></trkpt><trkpt lat="43.7469794" lon="11.286558"><ele>113.66666666666667</ele><time>2026-04-06T14:25:32.146Z</time></trkpt><trkpt lat="43.7469134" lon="11.2863723"><ele>115.33333333333334</ele><time>2026-04-06T14:25:33.143Z</time></trkpt><trkpt lat="43.746844" lon="11.2861797"><ele>117.0</ele><time>2026-04-06T14:25:34.152Z</time></trkpt><trkpt lat="43.7467775" lon="11.2859911"><ele>110.66666666666666</ele><time>2026-04-06T14:25:35.151Z</time></trkpt><trkpt lat="43.7467077" lon="11.2858006"><ele>104.33333333333333</ele><time>2026-04-06T14:25:36.146Z</time></trkpt><trkpt lat="43.7466415" lon="11.2856135"><ele>98.0</ele><time>2026-04-06T14:25:37.156Z</time></trkpt><trkpt lat="43.7465752" lon="11.2854264"><ele>98.0</ele><time>2026-04-06T14:25:38.151Z</time></trkpt><trkpt lat="43.746508" lon="11.2852409"><ele>98.0</ele><time>2026-04-06T14:25:39.157Z</time></trkpt><trkpt lat="43.7464395" lon="11.2850552"><ele>98.0</ele><time>2026-04-06T14:25:40.142Z</time></trkpt><trkpt lat="43.7463734" lon="11.2848709"><ele>98.0</ele><time>2026-04-06T14:25:41.152Z</time></trkpt><trkpt lat="43.7463076" lon="11.2847049"><ele>96.75</ele><time>2026-04-06T14:25:42.144Z</time></trkpt><trkpt lat="43.7462464" lon="11.2845356"><ele>95.5</ele><time>2026-04-06T14:25:43.154Z</time></trkpt><trkpt lat="43.7461784" lon="11.2843483"><ele>94.25</ele><time>2026-04-06T14:25:44.15Z</time></trkpt><trkpt lat="43.7461035" lon="11.2841648"><ele>93.0</ele><time>2026-04-06T14:25:45.152Z</time></trkpt><trkpt lat="43.7460229" lon="11.2839842"><ele>89.0</ele><time>2026-04-06T14:25:46.135Z</time></trkpt><trkpt lat="43.7459265" lon="11.2838076"><ele>85.0</ele><time>2026-04-06T14:25:47.154Z</time></trkpt><trkpt lat="43.7458215" lon="11.2836432"><ele>81.0</ele><time>2026-04-06T14:25:48.149Z</time></trkpt><trkpt lat="43.7456963" lon="11.2834874"><ele>81.0</ele><time>2026-04-06T14:25:49.154Z</time></trkpt><trkpt lat="43.7455503" lon="11.2833464"><ele>81.0</ele><time>2026-04-06T14:25:50.161Z</time></trkpt><trkpt lat="43.745402" lon="11.2832052"><ele>81.0</ele><time>2026-04-06T14:25:51.155Z</time></trkpt><trkpt lat="43.7452487" lon="11.2830672"><ele>79.0</ele><time>2026-04-06T14:25:52.164Z</time></trkpt><trkpt lat="43.7450884" lon="11.2829262"><ele>77.0</ele><time>2026-04-06T14:25:53.145Z</time></trkpt><trkpt lat="43.7449388" lon="11.2827904"><ele>75.0</ele><time>2026-04-06T14:25:54.148Z</time></trkpt><trkpt lat="43.744789" lon="11.2826475"><ele>75.0</ele><time>2026-04-06T14:25:55.164Z</time></trkpt><trkpt lat="43.7446421" lon="11.2825032"><ele>75.0</ele><time>2026-04-06T14:25:56.154Z</time></trkpt><trkpt lat="43.7444958" lon="11.2823669"><ele>75.0</ele><time>2026-04-06T14:25:57.16Z</time></trkpt><trkpt lat="43.7443451" lon="11.2822329"><ele>75.33333333333333</ele><time>2026-04-06T14:25:58.15Z</time></trkpt><trkpt lat="43.7441968" lon="11.2820951"><ele>75.66666666666666</ele><time>2026-04-06T14:25:59.147Z</time></trkpt><trkpt lat="43.7440511" lon="11.2819604"><ele>76.0</ele><time>2026-04-06T14:26:00.151Z</time></trkpt><trkpt lat="43.7439041" lon="11.281816"><ele>76.0</ele><time>2026-04-06T14:26:01.153Z</time></trkpt><trkpt lat="43.7437642" lon="11.2816787"><ele>76.0</ele><time>2026-04-06T14:26:02.166Z</time></trkpt><trkpt lat="43.7436228" lon="11.2815486"><ele>76.0</ele><time>2026-04-06T14:26:03.164Z</time></trkpt><trkpt lat="43.7434826" lon="11.2814155"><ele>76.33333333333333</ele><time>2026-04-06T14:26:04.15Z</time></trkpt><trkpt lat="43.7433532" lon="11.2812959"><ele>76.66666666666667</ele><time>2026-04-06T14:26:05.161Z</time></trkpt><trkpt lat="43.7432325" lon="11.2811664"><ele>77.0</ele><time>2026-04-06T14:26:06.157Z</time></trkpt><trkpt lat="43.7431237" lon="11.2810331"><ele>77.0</ele><time>2026-04-06T14:26:07.156Z</time></trkpt><trkpt lat="43.7430328" lon="11.280893"><ele>77.0</ele><time>2026-04-06T14:26:08.164Z</time></trkpt><trkpt lat="43.7429463" lon="11.2807532"><ele>77.0</ele><time>2026-04-06T14:26:09.148Z</time></trkpt><trkpt lat="43.7428624" lon="11.2806162"><ele>77.0</ele><time>2026-04-06T14:26:10.158Z</time></trkpt><trkpt lat="43.742789" lon="11.2804838"><ele>77.16666666666667</ele><time>2026-04-06T14:26:11.159Z</time></trkpt><trkpt lat="43.7427096" lon="11.280378"><ele>77.33333333333334</ele><time>2026-04-06T14:26:12.167Z</time></trkpt><trkpt lat="43.742633" lon="11.2803018"><ele>77.5</ele><time>2026-04-06T14:26:13.167Z</time></trkpt><trkpt lat="43.7425729" lon="11.2802502"><ele>77.66666666666667</ele><time>2026-04-06T14:26:14.16Z</time></trkpt><trkpt lat="43.7424907" lon="11.2801828"><ele>77.83333333333333</ele><time>2026-04-06T14:26:16.159Z</time></trkpt><trkpt lat="43.7424372" lon="11.2801251"><ele>78.0</ele><time>2026-04-06T14:26:19.157Z</time></trkpt><trkpt lat="43.742381" lon="11.280043"><ele>78.0</ele><time>2026-04-06T14:26:35.143Z</time></trkpt><trkpt lat="43.7423088" lon="11.2799782"><ele>78.0</ele><time>2026-04-06T14:26:36.154Z</time></trkpt><trkpt lat="43.742208" lon="11.2799302"><ele>78.0</ele><time>2026-04-06T14:26:37.154Z</time></trkpt><trkpt lat="43.7420965" lon="11.2798636"><ele>78.0</ele><time>2026-04-06T14:26:38.167Z</time></trkpt><trkpt lat="43.7419681" lon="11.2797928"><ele>77.66666666666667</ele><time>2026-04-06T14:26:39.158Z</time></trkpt><trkpt lat="43.741827" lon="11.2797123"><ele>77.33333333333334</ele><time>2026-04-06T14:26:40.141Z</time></trkpt><trkpt lat="43.7416774" lon="11.2796189"><ele>77.0</ele><time>2026-04-06T14:26:41.145Z</time></trkpt><trkpt lat="43.7415351" lon="11.2795224"><ele>77.0</ele><time>2026-04-06T14:26:42.156Z</time></trkpt><trkpt lat="43.7413761" lon="11.2794063"><ele>77.0</ele><time>2026-04-06T14:26:43.139Z</time></trkpt><trkpt lat="43.7412139" lon="11.2792558"><ele>77.0</ele><time>2026-04-06T14:26:44.159Z</time></trkpt><trkpt lat="43.7410607" lon="11.2790653"><ele>77.33333333333334</ele><time>2026-04-06T14:26:45.155Z</time></trkpt><trkpt lat="43.7409218" lon="11.2788492"><ele>77.66666666666667</ele><time>2026-04-06T14:26:46.155Z</time></trkpt><trkpt lat="43.7408035" lon="11.278612"><ele>78.0</ele><time>2026-04-06T14:26:47.16Z</time></trkpt><trkpt lat="43.7406884" lon="11.2783615"><ele>78.0</ele><time>2026-04-06T14:26:48.143Z</time></trkpt><trkpt lat="43.7405828" lon="11.2781087"><ele>78.0</ele><time>2026-04-06T14:26:49.151Z</time></trkpt><trkpt lat="43.7404953" lon="11.2778397"><ele>78.0</ele><time>2026-04-06T14:26:50.158Z</time></trkpt><trkpt lat="43.7404327" lon="11.2775551"><ele>77.0</ele><time>2026-04-06T14:26:51.142Z</time></trkpt><trkpt lat="43.7403904" lon="11.2772572"><ele>76.0</ele><time>2026-04-06T14:26:52.159Z</time></trkpt><trkpt lat="43.7403638" lon="11.2769399"><ele>76.0</ele><time>2026-04-06T14:26:53.148Z</time></trkpt><trkpt lat="43.7403342" lon="11.2766118"><ele>76.0</ele><time>2026-04-06T14:26:54.142Z</time></trkpt><trkpt lat="43.7402992" lon="11.2762775"><ele>75.0</ele><time>2026-04-06T14:26:55.155Z</time></trkpt><trkpt lat="43.740267" lon="11.2759404"><ele>74.0</ele><time>2026-04-06T14:26:56.145Z</time></trkpt><trkpt lat="43.7402276" lon="11.2755972"><ele>79.0</ele><time>2026-04-06T14:26:57.152Z</time></trkpt><trkpt lat="43.7401872" lon="11.2752557"><ele>84.0</ele><time>2026-04-06T14:26:58.163Z</time></trkpt><trkpt lat="43.7401454" lon="11.2749157"><ele>85.0</ele><time>2026-04-06T14:26:59.158Z</time></trkpt><trkpt lat="43.7400825" lon="11.2745813"><ele>86.0</ele><time>2026-04-06T14:27:00.154Z</time></trkpt><trkpt lat="43.74" lon="11.27425"><ele>83.0</ele><time>2026-04-06T14:27:01.158Z</time></trkpt><trkpt lat="43.7399062" lon="11.2739111"><ele>80.0</ele><time>2026-04-06T14:27:02.163Z</time></trkpt><trkpt lat="43.7398031" lon="11.2735692"><ele>80.0</ele><time>2026-04-06T14:27:03.161Z</time></trkpt><trkpt lat="43.7396931" lon="11.2732275"><ele>80.0</ele><time>2026-04-06T14:27:04.161Z</time></trkpt><trkpt lat="43.7395697" lon="11.2728888"><ele>81.0</ele><time>2026-04-06T14:27:05.154Z</time></trkpt><trkpt lat="43.7394365" lon="11.2725626"><ele>82.0</ele><time>2026-04-06T14:27:06.152Z</time></trkpt><trkpt lat="43.7392934" lon="11.2722349"><ele>82.0</ele><time>2026-04-06T14:27:07.139Z</time></trkpt><trkpt lat="43.7391308" lon="11.2719191"><ele>82.0</ele><time>2026-04-06T14:27:08.141Z</time></trkpt><trkpt lat="43.7389613" lon="11.2716093"><ele>80.5</ele><time>2026-04-06T14:27:09.142Z</time></trkpt><trkpt lat="43.7387874" lon="11.2712877"><ele>79.0</ele><time>2026-04-06T14:27:10.155Z</time></trkpt><trkpt lat="43.7386046" lon="11.2709688"><ele>82.0</ele><time>2026-04-06T14:27:11.155Z</time></trkpt><trkpt lat="43.7384219" lon="11.2706511"><ele>85.0</ele><time>2026-04-06T14:27:12.148Z</time></trkpt><trkpt lat="43.73824" lon="11.2703388"><ele>85.0</ele><time>2026-04-06T14:27:13.159Z</time></trkpt><trkpt lat="43.7380559" lon="11.2700305"><ele>85.0</ele><time>2026-04-06T14:27:14.155Z</time></trkpt><trkpt lat="43.7378756" lon="11.2697243"><ele>86.0</ele><time>2026-04-06T14:27:15.155Z</time></trkpt><trkpt lat="43.7376914" lon="11.2694177"><ele>87.0</ele><time>2026-04-06T14:27:16.155Z</time></trkpt><trkpt lat="43.7375019" lon="11.2691109"><ele>84.0</ele><time>2026-04-06T14:27:17.15Z</time></trkpt><trkpt lat="43.7373144" lon="11.2688003"><ele>81.0</ele><time>2026-04-06T14:27:18.159Z</time></trkpt><trkpt lat="43.7371312" lon="11.2684943"><ele>81.0</ele><time>2026-04-06T14:27:19.144Z</time></trkpt><trkpt lat="43.736944" lon="11.2681889"><ele>81.0</ele><time>2026-04-06T14:27:20.14Z</time></trkpt><trkpt lat="43.7367543" lon="11.2678694"><ele>81.0</ele><time>2026-04-06T14:27:21.146Z</time></trkpt><trkpt lat="43.7365606" lon="11.2675463"><ele>81.0</ele><time>2026-04-06T14:27:22.144Z</time></trkpt><trkpt lat="43.7363715" lon="11.2672268"><ele>81.0</ele><time>2026-04-06T14:27:23.149Z</time></trkpt><trkpt lat="43.73618" lon="11.2669113"><ele>81.0</ele><time>2026-04-06T14:27:24.146Z</time></trkpt><trkpt lat="43.7359965" lon="11.2665933"><ele>82.0</ele><time>2026-04-06T14:27:25.157Z</time></trkpt><trkpt lat="43.7358095" lon="11.266273"><ele>83.0</ele><time>2026-04-06T14:27:26.15Z</time></trkpt><trkpt lat="43.7356228" lon="11.2659436"><ele>83.0</ele><time>2026-04-06T14:27:27.147Z</time></trkpt><trkpt lat="43.7354415" lon="11.2656231"><ele>83.0</ele><time>2026-04-06T14:27:28.146Z</time></trkpt><trkpt lat="43.7352652" lon="11.2653112"><ele>84.5</ele><time>2026-04-06T14:27:29.143Z</time></trkpt><trkpt lat="43.7350879" lon="11.2650068"><ele>86.0</ele><time>2026-04-06T14:27:30.151Z</time></trkpt><trkpt lat="43.7349055" lon="11.2647001"><ele>86.0</ele><time>2026-04-06T14:27:31.145Z</time></trkpt><trkpt lat="43.7347226" lon="11.2643929"><ele>86.0</ele><time>2026-04-06T14:27:32.156Z</time></trkpt><trkpt lat="43.7345419" lon="11.2640823"><ele>88.0</ele><time>2026-04-06T14:27:33.158Z</time></trkpt><trkpt lat="43.7343612" lon="11.2637793"><ele>90.0</ele><time>2026-04-06T14:27:34.156Z</time></trkpt><trkpt lat="43.734181" lon="11.263475"><ele>90.0</ele><time>2026-04-06T14:27:35.157Z</time></trkpt><trkpt lat="43.734001" lon="11.2631764"><ele>90.0</ele><time>2026-04-06T14:27:36.153Z</time></trkpt><trkpt lat="43.7338209" lon="11.2628726"><ele>87.0</ele><time>2026-04-06T14:27:37.16Z</time></trkpt><trkpt lat="43.7336466" lon="11.2625652"><ele>84.0</ele><time>2026-04-06T14:27:38.145Z</time></trkpt><trkpt lat="43.7334641" lon="11.2622525"><ele>83.0</ele><time>2026-04-06T14:27:39.153Z</time></trkpt><trkpt lat="43.7332809" lon="11.2619368"><ele>82.0</ele><time>2026-04-06T14:27:40.151Z</time></trkpt><trkpt lat="43.7330954" lon="11.2616178"><ele>82.0</ele><time>2026-04-06T14:27:41.144Z</time></trkpt><trkpt lat="43.7329054" lon="11.2612971"><ele>82.0</ele><time>2026-04-06T14:27:42.16Z</time></trkpt><trkpt lat="43.7327181" lon="11.2609753"><ele>82.0</ele><time>2026-04-06T14:27:43.156Z</time></trkpt><trkpt lat="43.7325314" lon="11.2606538"><ele>82.0</ele><time>2026-04-06T14:27:44.153Z</time></trkpt><trkpt lat="43.7323401" lon="11.2603336"><ele>82.0</ele><time>2026-04-06T14:27:45.155Z</time></trkpt><trkpt lat="43.7321472" lon="11.2600052"><ele>82.0</ele><time>2026-04-06T14:27:46.152Z</time></trkpt><trkpt lat="43.7319543" lon="11.2596751"><ele>83.5</ele><time>2026-04-06T14:27:47.155Z</time></trkpt><trkpt lat="43.7317655" lon="11.2593507"><ele>85.0</ele><time>2026-04-06T14:27:48.149Z</time></trkpt><trkpt lat="43.7315753" lon="11.2590281"><ele>80.5</ele><time>2026-04-06T14:27:49.156Z</time></trkpt><trkpt lat="43.7313856" lon="11.2587079"><ele>76.0</ele><time>2026-04-06T14:27:50.156Z</time></trkpt><trkpt lat="43.7311953" lon="11.2583908"><ele>79.0</ele><time>2026-04-06T14:27:51.147Z</time></trkpt><trkpt lat="43.7310027" lon="11.2580743"><ele>82.0</ele><time>2026-04-06T14:27:52.144Z</time></trkpt><trkpt lat="43.7308092" lon="11.2577538"><ele>82.0</ele><time>2026-04-06T14:27:53.159Z</time></trkpt><trkpt lat="43.7306187" lon="11.2574375"><ele>82.0</ele><time>2026-04-06T14:27:54.16Z</time></trkpt><trkpt lat="43.7304281" lon="11.2571177"><ele>81.0</ele><time>2026-04-06T14:27:55.156Z</time></trkpt><trkpt lat="43.7302352" lon="11.2567976"><ele>80.0</ele><time>2026-04-06T14:27:56.156Z</time></trkpt><trkpt lat="43.7300455" lon="11.2564805"><ele>83.0</ele><time>2026-04-06T14:27:57.156Z</time></trkpt><trkpt lat="43.7298577" lon="11.2561579"><ele>86.0</ele><time>2026-04-06T14:27:58.16Z</time></trkpt><trkpt lat="43.7296709" lon="11.2558397"><ele>86.5</ele><time>2026-04-06T14:27:59.148Z</time></trkpt><trkpt lat="43.7294844" lon="11.255516"><ele>87.0</ele><time>2026-04-06T14:28:00.156Z</time></trkpt><trkpt lat="43.7292945" lon="11.2551954"><ele>92.0</ele><time>2026-04-06T14:28:01.144Z</time></trkpt><trkpt lat="43.7291046" lon="11.2548673"><ele>97.0</ele><time>2026-04-06T14:28:02.145Z</time></trkpt><trkpt lat="43.7289168" lon="11.2545423"><ele>98.0</ele><time>2026-04-06T14:28:03.148Z</time></trkpt><trkpt lat="43.7287289" lon="11.2542279"><ele>99.0</ele><time>2026-04-06T14:28:04.142Z</time></trkpt><trkpt lat="43.7285405" lon="11.2539258"><ele>100.5</ele><time>2026-04-06T14:28:05.146Z</time></trkpt><trkpt lat="43.7283503" lon="11.2536375"><ele>102.0</ele><time>2026-04-06T14:28:06.145Z</time></trkpt><trkpt lat="43.7281641" lon="11.2533553"><ele>97.5</ele><time>2026-04-06T14:28:07.149Z</time></trkpt><trkpt lat="43.727975" lon="11.2530728"><ele>93.0</ele><time>2026-04-06T14:28:08.146Z</time></trkpt><trkpt lat="43.7277813" lon="11.2527776"><ele>95.0</ele><time>2026-04-06T14:28:09.173Z</time></trkpt><trkpt lat="43.7275958" lon="11.2524796"><ele>97.0</ele><time>2026-04-06T14:28:10.145Z</time></trkpt><trkpt lat="43.7274053" lon="11.2521624"><ele>97.0</ele><time>2026-04-06T14:28:11.147Z</time></trkpt><trkpt lat="43.7272178" lon="11.2518358"><ele>97.0</ele><time>2026-04-06T14:28:12.143Z</time></trkpt><trkpt lat="43.727032" lon="11.2515032"><ele>103.5</ele><time>2026-04-06T14:28:13.142Z</time></trkpt><trkpt lat="43.7268445" lon="11.2511733"><ele>110.0</ele><time>2026-04-06T14:28:14.143Z</time></trkpt><trkpt lat="43.7266563" lon="11.2508457"><ele>106.0</ele><time>2026-04-06T14:28:15.143Z</time></trkpt><trkpt lat="43.7264652" lon="11.2505198"><ele>102.0</ele><time>2026-04-06T14:28:16.151Z</time></trkpt><trkpt lat="43.726269" lon="11.250187"><ele>102.0</ele><time>2026-04-06T14:28:17.161Z</time></trkpt><trkpt lat="43.7260695" lon="11.2498519"><ele>102.0</ele><time>2026-04-06T14:28:18.151Z</time></trkpt><trkpt lat="43.7258609" lon="11.2495068"><ele>105.5</ele><time>2026-04-06T14:28:19.157Z</time></trkpt><trkpt lat="43.7256497" lon="11.2491557"><ele>109.0</ele><time>2026-04-06T14:28:20.141Z</time></trkpt><trkpt lat="43.7254386" lon="11.2488133"><ele>110.0</ele><time>2026-04-06T14:28:21.143Z</time></trkpt><trkpt lat="43.7252364" lon="11.2484708"><ele>111.0</ele><time>2026-04-06T14:28:22.152Z</time></trkpt><trkpt lat="43.7250383" lon="11.2481268"><ele>114.0</ele><time>2026-04-06T14:28:23.151Z</time></trkpt><trkpt lat="43.7248408" lon="11.247792"><ele>117.0</ele><time>2026-04-06T14:28:24.148Z</time></trkpt><trkpt lat="43.7246507" lon="11.2474604"><ele>119.5</ele><time>2026-04-06T14:28:25.149Z</time></trkpt><trkpt lat="43.7244639" lon="11.2471316"><ele>122.0</ele><time>2026-04-06T14:28:26.156Z</time></trkpt><trkpt lat="43.7242757" lon="11.2468093"><ele>122.0</ele><time>2026-04-06T14:28:27.164Z</time></trkpt><trkpt lat="43.7240831" lon="11.2464948"><ele>122.0</ele><time>2026-04-06T14:28:28.151Z</time></trkpt><trkpt lat="43.7238899" lon="11.2461795"><ele>119.0</ele><time>2026-04-06T14:28:29.145Z</time></trkpt><trkpt lat="43.7227045" lon="11.2441973"><ele>119.5</ele><time>2026-04-06T14:28:35.158Z</time></trkpt><trkpt lat="43.7224809" lon="11.2438619"><ele>120.0</ele><time>2026-04-06T14:28:36.143Z</time></trkpt><trkpt lat="43.7222787" lon="11.2435142"><ele>120.0</ele><time>2026-04-06T14:28:37.145Z</time></trkpt><trkpt lat="43.7220888" lon="11.2431712"><ele>120.0</ele><time>2026-04-06T14:28:38.14Z</time></trkpt><trkpt lat="43.7219041" lon="11.2428356"><ele>117.0</ele><time>2026-04-06T14:28:39.154Z</time></trkpt><trkpt lat="43.7217292" lon="11.242521"><ele>114.0</ele><time>2026-04-06T14:28:40.147Z</time></trkpt><trkpt lat="43.7215718" lon="11.2422013"><ele>114.0</ele><time>2026-04-06T14:28:41.157Z</time></trkpt><trkpt lat="43.7214457" lon="11.2418774"><ele>114.0</ele><time>2026-04-06T14:28:42.147Z</time></trkpt><trkpt lat="43.7213347" lon="11.2415434"><ele>113.0</ele><time>2026-04-06T14:28:43.149Z</time></trkpt><trkpt lat="43.7212438" lon="11.2411925"><ele>112.0</ele><time>2026-04-06T14:28:44.152Z</time></trkpt><trkpt lat="43.7211648" lon="11.2408357"><ele>107.5</ele><time>2026-04-06T14:28:45.139Z</time></trkpt><trkpt lat="43.7211016" lon="11.240473"><ele>103.0</ele><time>2026-04-06T14:28:46.147Z</time></trkpt><trkpt lat="43.7210535" lon="11.2401017"><ele>101.5</ele><time>2026-04-06T14:28:47.146Z</time></trkpt><trkpt lat="43.7210262" lon="11.2397244"><ele>100.0</ele><time>2026-04-06T14:28:48.166Z</time></trkpt><trkpt lat="43.7210145" lon="11.2393483"><ele>101.0</ele><time>2026-04-06T14:28:49.151Z</time></trkpt><trkpt lat="43.7210205" lon="11.238964"><ele>102.0</ele><time>2026-04-06T14:28:50.146Z</time></trkpt><trkpt lat="43.7210469" lon="11.2385768"><ele>99.5</ele><time>2026-04-06T14:28:51.156Z</time></trkpt><trkpt lat="43.7210824" lon="11.2381977"><ele>97.0</ele><time>2026-04-06T14:28:52.159Z</time></trkpt><trkpt lat="43.7211186" lon="11.2378136"><ele>97.0</ele><time>2026-04-06T14:28:53.164Z</time></trkpt><trkpt lat="43.7211596" lon="11.2374246"><ele>97.0</ele><time>2026-04-06T14:28:54.159Z</time></trkpt><trkpt lat="43.7211989" lon="11.2370342"><ele>97.0</ele><time>2026-04-06T14:28:55.161Z</time></trkpt><trkpt lat="43.7212438" lon="11.236644"><ele>97.0</ele><time>2026-04-06T14:28:56.157Z</time></trkpt><trkpt lat="43.7212904" lon="11.2362526"><ele>96.5</ele><time>2026-04-06T14:28:57.161Z</time></trkpt><trkpt lat="43.7213366" lon="11.2358666"><ele>96.0</ele><time>2026-04-06T14:28:58.157Z</time></trkpt><trkpt lat="43.7213865" lon="11.2354832"><ele>95.0</ele><time>2026-04-06T14:28:59.138Z</time></trkpt><trkpt lat="43.7214351" lon="11.2350948"><ele>94.0</ele><time>2026-04-06T14:29:00.155Z</time></trkpt><trkpt lat="43.7214815" lon="11.2347077"><ele>93.0</ele><time>2026-04-06T14:29:01.156Z</time></trkpt><trkpt lat="43.7215331" lon="11.2343193"><ele>92.0</ele><time>2026-04-06T14:29:02.163Z</time></trkpt><trkpt lat="43.7215928" lon="11.2339331"><ele>92.0</ele><time>2026-04-06T14:29:03.169Z</time></trkpt><trkpt lat="43.721658" lon="11.23355"><ele>92.0</ele><time>2026-04-06T14:29:04.158Z</time></trkpt><trkpt lat="43.7217294" lon="11.2331689"><ele>96.0</ele><time>2026-04-06T14:29:05.152Z</time></trkpt><trkpt lat="43.7217946" lon="11.2327784"><ele>100.0</ele><time>2026-04-06T14:29:06.146Z</time></trkpt><trkpt lat="43.7218537" lon="11.2323895"><ele>100.5</ele><time>2026-04-06T14:29:07.154Z</time></trkpt><trkpt lat="43.7219118" lon="11.2320083"><ele>101.0</ele><time>2026-04-06T14:29:08.148Z</time></trkpt><trkpt lat="43.7228865" lon="11.2260577"><ele>87.0</ele><time>2026-04-06T14:29:24.131Z</time></trkpt><trkpt lat="43.7229607" lon="11.22577"><ele>73.0</ele><time>2026-04-06T14:29:25.151Z</time></trkpt><trkpt lat="43.7230212" lon="11.2254519"><ele>70.66666666666666</ele><time>2026-04-06T14:29:26.136Z</time></trkpt><trkpt lat="43.7230757" lon="11.2251645"><ele>68.33333333333333</ele><time>2026-04-06T14:29:27.156Z</time></trkpt><trkpt lat="43.7231337" lon="11.2249005"><ele>66.0</ele><time>2026-04-06T14:29:28.154Z</time></trkpt><trkpt lat="43.7231832" lon="11.224644"><ele>65.66666666666667</ele><time>2026-04-06T14:29:29.159Z</time></trkpt><trkpt lat="43.7232283" lon="11.2243983"><ele>65.33333333333334</ele><time>2026-04-06T14:29:30.157Z</time></trkpt><trkpt lat="43.723269" lon="11.2241673"><ele>65.0</ele><time>2026-04-06T14:29:31.154Z</time></trkpt><trkpt lat="43.7233039" lon="11.2239435"><ele>65.75</ele><time>2026-04-06T14:29:32.165Z</time></trkpt><trkpt lat="43.7233399" lon="11.2237342"><ele>66.5</ele><time>2026-04-06T14:29:33.146Z</time></trkpt><trkpt lat="43.7233785" lon="11.2235338"><ele>67.25</ele><time>2026-04-06T14:29:34.156Z</time></trkpt><trkpt lat="43.7234321" lon="11.2233535"><ele>68.0</ele><time>2026-04-06T14:29:35.148Z</time></trkpt><trkpt lat="43.7235005" lon="11.2232007"><ele>68.5</ele><time>2026-04-06T14:29:36.147Z</time></trkpt><trkpt lat="43.7235928" lon="11.2230796"><ele>69.0</ele><time>2026-04-06T14:29:37.152Z</time></trkpt><trkpt lat="43.7237042" lon="11.2230184"><ele>69.5</ele><time>2026-04-06T14:29:38.154Z</time></trkpt><trkpt lat="43.7238389" lon="11.2229982"><ele>70.0</ele><time>2026-04-06T14:29:39.148Z</time></trkpt><trkpt lat="43.7239838" lon="11.2230151"><ele>70.0</ele><time>2026-04-06T14:29:40.156Z</time></trkpt><trkpt lat="43.7241166" lon="11.2229986"><ele>70.0</ele><time>2026-04-06T14:29:41.154Z</time></trkpt><trkpt lat="43.7242239" lon="11.2229241"><ele>70.0</ele><time>2026-04-06T14:29:42.15Z</time></trkpt><trkpt lat="43.7242998" lon="11.2228021"><ele>70.0</ele><time>2026-04-06T14:29:43.145Z</time></trkpt><trkpt lat="43.7243415" lon="11.2226528"><ele>70.0</ele><time>2026-04-06T14:29:44.154Z</time></trkpt><trkpt lat="43.7243426" lon="11.2224829"><ele>70.0</ele><time>2026-04-06T14:29:45.151Z</time></trkpt><trkpt lat="43.7243017" lon="11.2223349"><ele>70.0</ele><time>2026-04-06T14:29:46.154Z</time></trkpt><trkpt lat="43.7242263" lon="11.2222281"><ele>70.0</ele><time>2026-04-06T14:29:47.138Z</time></trkpt><trkpt lat="43.7241072" lon="11.2221429"><ele>72.0</ele><time>2026-04-06T14:29:48.15Z</time></trkpt><trkpt lat="43.7239676" lon="11.2220919"><ele>74.0</ele><time>2026-04-06T14:29:49.151Z</time></trkpt><trkpt lat="43.7238122" lon="11.2220633"><ele>76.0</ele><time>2026-04-06T14:29:50.142Z</time></trkpt><trkpt lat="43.723647" lon="11.2220375"><ele>75.66666666666666</ele><time>2026-04-06T14:29:51.157Z</time></trkpt><trkpt lat="43.7234787" lon="11.2220078"><ele>75.33333333333333</ele><time>2026-04-06T14:29:52.148Z</time></trkpt><trkpt lat="43.7233126" lon="11.221977"><ele>75.0</ele><time>2026-04-06T14:29:53.146Z</time></trkpt><trkpt lat="43.7231519" lon="11.2219534"><ele>75.0</ele><time>2026-04-06T14:29:54.151Z</time></trkpt><trkpt lat="43.7229915" lon="11.2219383"><ele>75.0</ele><time>2026-04-06T14:29:55.158Z</time></trkpt><trkpt lat="43.7228279" lon="11.2219353"><ele>75.0</ele><time>2026-04-06T14:29:56.155Z</time></trkpt><trkpt lat="43.7226755" lon="11.2219428"><ele>72.66666666666667</ele><time>2026-04-06T14:29:57.142Z</time></trkpt><trkpt lat="43.7225202" lon="11.2219768"><ele>70.33333333333334</ele><time>2026-04-06T14:29:58.149Z</time></trkpt><trkpt lat="43.7223669" lon="11.2220361"><ele>68.0</ele><time>2026-04-06T14:29:59.14Z</time></trkpt><trkpt lat="43.7222224" lon="11.2220985"><ele>68.0</ele><time>2026-04-06T14:30:00.146Z</time></trkpt><trkpt lat="43.7220892" lon="11.2221522"><ele>68.0</ele><time>2026-04-06T14:30:01.16Z</time></trkpt><trkpt lat="43.7219696" lon="11.2222161"><ele>68.0</ele><time>2026-04-06T14:30:02.15Z</time></trkpt><trkpt lat="43.7218598" lon="11.2222847"><ele>68.0</ele><time>2026-04-06T14:30:03.169Z</time></trkpt><trkpt lat="43.7217673" lon="11.2223678"><ele>67.66666666666667</ele><time>2026-04-06T14:30:04.153Z</time></trkpt><trkpt lat="43.7216827" lon="11.2224442"><ele>67.33333333333334</ele><time>2026-04-06T14:30:05.163Z</time></trkpt><trkpt lat="43.7215975" lon="11.2225042"><ele>67.0</ele><time>2026-04-06T14:30:06.163Z</time></trkpt><trkpt lat="43.721519" lon="11.2225556"><ele>66.66666666666667</ele><time>2026-04-06T14:30:07.148Z</time></trkpt><trkpt lat="43.7214472" lon="11.2225907"><ele>66.33333333333333</ele><time>2026-04-06T14:30:08.153Z</time></trkpt><trkpt lat="43.7213849" lon="11.2226108"><ele>66.0</ele><time>2026-04-06T14:30:09.162Z</time></trkpt><trkpt lat="43.7213062" lon="11.2226319"><ele>66.0</ele><time>2026-04-06T14:30:11.156Z</time></trkpt><trkpt lat="43.7212385" lon="11.2226818"><ele>66.0</ele><time>2026-04-06T14:31:09.144Z</time></trkpt><trkpt lat="43.7211686" lon="11.2227001"><ele>66.0</ele><time>2026-04-06T14:31:12.15Z</time></trkpt><trkpt lat="43.7211029" lon="11.2227167"><ele>66.0</ele><time>2026-04-06T14:31:13.163Z</time></trkpt><trkpt lat="43.7209945" lon="11.2226641"><ele>66.0</ele><time>2026-04-06T14:31:15.149Z</time></trkpt><trkpt lat="43.7209241" lon="11.2225488"><ele>66.0</ele><time>2026-04-06T14:31:17.146Z</time></trkpt><trkpt lat="43.7208688" lon="11.222503"><ele>66.0</ele><time>2026-04-06T14:31:18.147Z</time></trkpt><trkpt lat="43.720811" lon="11.2224624"><ele>66.0</ele><time>2026-04-06T14:31:19.149Z</time></trkpt><trkpt lat="43.7207336" lon="11.222482"><ele>66.0</ele><time>2026-04-06T14:31:21.154Z</time></trkpt><trkpt lat="43.7206751" lon="11.2225279"><ele>66.0</ele><time>2026-04-06T14:32:17.157Z</time></trkpt><trkpt lat="43.7206256" lon="11.2226115"><ele>66.0</ele><time>2026-04-06T14:32:18.16Z</time></trkpt><trkpt lat="43.7205534" lon="11.2227083"><ele>66.0</ele><time>2026-04-06T14:32:19.152Z</time></trkpt><trkpt lat="43.7204416" lon="11.2227674"><ele>66.0</ele><time>2026-04-06T14:32:20.158Z</time></trkpt><trkpt lat="43.7203266" lon="11.2227847"><ele>66.0</ele><time>2026-04-06T14:32:21.155Z</time></trkpt><trkpt lat="43.7202117" lon="11.2227623"><ele>66.0</ele><time>2026-04-06T14:32:22.154Z</time></trkpt><trkpt lat="43.7201302" lon="11.2227152"><ele>66.0</ele><time>2026-04-06T14:32:23.146Z</time></trkpt><trkpt lat="43.7200475" lon="11.2226414"><ele>66.0</ele><time>2026-04-06T14:32:24.139Z</time></trkpt><trkpt lat="43.7199762" lon="11.2225262"><ele>65.5</ele><time>2026-04-06T14:32:25.162Z</time></trkpt><trkpt lat="43.7199384" lon="11.2223646"><ele>65.0</ele><time>2026-04-06T14:32:26.159Z</time></trkpt><trkpt lat="43.7199208" lon="11.2221626"><ele>64.5</ele><time>2026-04-06T14:32:27.149Z</time></trkpt><trkpt lat="43.7199239" lon="11.221945"><ele>64.0</ele><time>2026-04-06T14:32:28.154Z</time></trkpt><trkpt lat="43.7199152" lon="11.2217486"><ele>64.0</ele><time>2026-04-06T14:32:29.175Z</time></trkpt><trkpt lat="43.7199107" lon="11.221554"><ele>64.0</ele><time>2026-04-06T14:32:30.15Z</time></trkpt><trkpt lat="43.7199064" lon="11.2213688"><ele>64.0</ele><time>2026-04-06T14:32:31.153Z</time></trkpt><trkpt lat="43.7198851" lon="11.2211917"><ele>64.0</ele><time>2026-04-06T14:32:32.144Z</time></trkpt><trkpt lat="43.7198463" lon="11.2210303"><ele>64.5</ele><time>2026-04-06T14:32:33.147Z</time></trkpt><trkpt lat="43.7198002" lon="11.2208777"><ele>65.0</ele><time>2026-04-06T14:32:34.156Z</time></trkpt><trkpt lat="43.7197201" lon="11.2207387"><ele>65.5</ele><time>2026-04-06T14:32:35.176Z</time></trkpt><trkpt lat="43.7196139" lon="11.2206135"><ele>66.0</ele><time>2026-04-06T14:32:36.161Z</time></trkpt><trkpt lat="43.7195023" lon="11.2204965"><ele>69.25</ele><time>2026-04-06T14:32:37.15Z</time></trkpt><trkpt lat="43.7193862" lon="11.2204214"><ele>72.5</ele><time>2026-04-06T14:32:38.146Z</time></trkpt><trkpt lat="43.7192731" lon="11.2203913"><ele>75.75</ele><time>2026-04-06T14:32:39.154Z</time></trkpt><trkpt lat="43.719146" lon="11.2203753"><ele>79.0</ele><time>2026-04-06T14:32:40.145Z</time></trkpt><trkpt lat="43.7190057" lon="11.2203706"><ele>79.0</ele><time>2026-04-06T14:32:41.144Z</time></trkpt><trkpt lat="43.7188291" lon="11.2203771"><ele>79.0</ele><time>2026-04-06T14:32:42.155Z</time></trkpt><trkpt lat="43.7186435" lon="11.2203896"><ele>79.0</ele><time>2026-04-06T14:32:43.156Z</time></trkpt><trkpt lat="43.7184667" lon="11.2203903"><ele>80.33333333333333</ele><time>2026-04-06T14:32:44.142Z</time></trkpt><trkpt lat="43.7183036" lon="11.2203946"><ele>81.66666666666667</ele><time>2026-04-06T14:32:45.162Z</time></trkpt><trkpt lat="43.718147" lon="11.2203972"><ele>83.0</ele><time>2026-04-06T14:32:46.156Z</time></trkpt><trkpt lat="43.7179724" lon="11.2203922"><ele>83.0</ele><time>2026-04-06T14:32:47.149Z</time></trkpt><trkpt lat="43.717789" lon="11.2203841"><ele>83.0</ele><time>2026-04-06T14:32:48.154Z</time></trkpt><trkpt lat="43.717597" lon="11.220382"><ele>83.0</ele><time>2026-04-06T14:32:49.146Z</time></trkpt><trkpt lat="43.7174034" lon="11.2203652"><ele>83.66666666666667</ele><time>2026-04-06T14:32:50.136Z</time></trkpt><trkpt lat="43.7172143" lon="11.2203435"><ele>84.33333333333333</ele><time>2026-04-06T14:32:51.15Z</time></trkpt><trkpt lat="43.7170232" lon="11.2203278"><ele>85.0</ele><time>2026-04-06T14:32:52.151Z</time></trkpt><trkpt lat="43.7168284" lon="11.2202752"><ele>83.66666666666666</ele><time>2026-04-06T14:32:53.155Z</time></trkpt><trkpt lat="43.7166351" lon="11.220214"><ele>82.33333333333333</ele><time>2026-04-06T14:32:54.146Z</time></trkpt><trkpt lat="43.7164422" lon="11.2201308"><ele>81.0</ele><time>2026-04-06T14:32:55.155Z</time></trkpt><trkpt lat="43.7162438" lon="11.2200158"><ele>82.66666666666667</ele><time>2026-04-06T14:32:56.154Z</time></trkpt><trkpt lat="43.716053" lon="11.2198958"><ele>84.33333333333334</ele><time>2026-04-06T14:32:57.156Z</time></trkpt><trkpt lat="43.7158635" lon="11.2197571"><ele>86.0</ele><time>2026-04-06T14:32:58.155Z</time></trkpt><trkpt lat="43.7156684" lon="11.2196073"><ele>86.0</ele><time>2026-04-06T14:32:59.143Z</time></trkpt><trkpt lat="43.7154754" lon="11.2194366"><ele>86.0</ele><time>2026-04-06T14:33:00.166Z</time></trkpt><trkpt lat="43.7152899" lon="11.2192567"><ele>84.5</ele><time>2026-04-06T14:33:01.154Z</time></trkpt><trkpt lat="43.7151037" lon="11.2190569"><ele>83.0</ele><time>2026-04-06T14:33:02.151Z</time></trkpt><trkpt lat="43.7149282" lon="11.2188402"><ele>83.0</ele><time>2026-04-06T14:33:03.153Z</time></trkpt><trkpt lat="43.714759" lon="11.2185909"><ele>83.0</ele><time>2026-04-06T14:33:04.156Z</time></trkpt><trkpt lat="43.7146033" lon="11.218335"><ele>85.5</ele><time>2026-04-06T14:33:05.16Z</time></trkpt><trkpt lat="43.714458" lon="11.2180548"><ele>88.0</ele><time>2026-04-06T14:33:06.155Z</time></trkpt><trkpt lat="43.7143232" lon="11.2177573"><ele>81.5</ele><time>2026-04-06T14:33:07.153Z</time></trkpt><trkpt lat="43.7142029" lon="11.2174526"><ele>75.0</ele><time>2026-04-06T14:33:08.155Z</time></trkpt><trkpt lat="43.7140812" lon="11.2171553"><ele>75.0</ele><time>2026-04-06T14:33:09.151Z</time></trkpt><trkpt lat="43.7139529" lon="11.216855"><ele>75.0</ele><time>2026-04-06T14:33:10.157Z</time></trkpt><trkpt lat="43.7138105" lon="11.216567"><ele>77.5</ele><time>2026-04-06T14:33:11.16Z</time></trkpt><trkpt lat="43.7136553" lon="11.2162812"><ele>80.0</ele><time>2026-04-06T14:33:12.146Z</time></trkpt><trkpt lat="43.7134792" lon="11.2160156"><ele>80.5</ele><time>2026-04-06T14:33:13.145Z</time></trkpt><trkpt lat="43.7132874" lon="11.2157654"><ele>81.0</ele><time>2026-04-06T14:33:14.143Z</time></trkpt><trkpt lat="43.7130831" lon="11.2155327"><ele>81.0</ele><time>2026-04-06T14:33:15.151Z</time></trkpt><trkpt lat="43.7128692" lon="11.2153146"><ele>81.0</ele><time>2026-04-06T14:33:16.151Z</time></trkpt><trkpt lat="43.7126456" lon="11.2151181"><ele>80.0</ele><time>2026-04-06T14:33:17.141Z</time></trkpt><trkpt lat="43.7124148" lon="11.2149354"><ele>79.0</ele><time>2026-04-06T14:33:18.143Z</time></trkpt><trkpt lat="43.7121735" lon="11.2147631"><ele>79.0</ele><time>2026-04-06T14:33:19.138Z</time></trkpt><trkpt lat="43.7119378" lon="11.2146034"><ele>79.0</ele><time>2026-04-06T14:33:20.156Z</time></trkpt><trkpt lat="43.7116978" lon="11.2144543"><ele>77.0</ele><time>2026-04-06T14:33:21.162Z</time></trkpt><trkpt lat="43.7114561" lon="11.2142987"><ele>75.0</ele><time>2026-04-06T14:33:22.155Z</time></trkpt><trkpt lat="43.7112148" lon="11.2141452"><ele>73.5</ele><time>2026-04-06T14:33:23.152Z</time></trkpt><trkpt lat="43.71097" lon="11.2139839"><ele>72.0</ele><time>2026-04-06T14:33:24.155Z</time></trkpt><trkpt lat="43.7107265" lon="11.2138208"><ele>72.0</ele><time>2026-04-06T14:33:25.147Z</time></trkpt><trkpt lat="43.7104824" lon="11.2136674"><ele>72.0</ele><time>2026-04-06T14:33:26.142Z</time></trkpt><trkpt lat="43.7102407" lon="11.2135194"><ele>72.5</ele><time>2026-04-06T14:33:27.14Z</time></trkpt><trkpt lat="43.7100051" lon="11.2133807"><ele>73.0</ele><time>2026-04-06T14:33:28.156Z</time></trkpt><trkpt lat="43.7097732" lon="11.2132595"><ele>73.0</ele><time>2026-04-06T14:33:29.145Z</time></trkpt><trkpt lat="43.7095326" lon="11.2131566"><ele>73.0</ele><time>2026-04-06T14:33:30.147Z</time></trkpt><trkpt lat="43.7092897" lon="11.2130801"><ele>73.5</ele><time>2026-04-06T14:33:31.147Z</time></trkpt><trkpt lat="43.7090456" lon="11.2130175"><ele>74.0</ele><time>2026-04-06T14:33:32.152Z</time></trkpt><trkpt lat="43.7087959" lon="11.2129589"><ele>74.5</ele><time>2026-04-06T14:33:33.155Z</time></trkpt><trkpt lat="43.7085471" lon="11.2129231"><ele>75.0</ele><time>2026-04-06T14:33:34.148Z</time></trkpt><trkpt lat="43.7082961" lon="11.2129087"><ele>75.0</ele><time>2026-04-06T14:33:35.156Z</time></trkpt><trkpt lat="43.7080479" lon="11.212905"><ele>75.0</ele><time>2026-04-06T14:33:36.149Z</time></trkpt><trkpt lat="43.7077968" lon="11.2129276"><ele>77.5</ele><time>2026-04-06T14:33:37.159Z</time></trkpt><trkpt lat="43.7075351" lon="11.212962"><ele>80.0</ele><time>2026-04-06T14:33:38.156Z</time></trkpt><trkpt lat="43.7072754" lon="11.2130059"><ele>80.0</ele><time>2026-04-06T14:33:39.168Z</time></trkpt><trkpt lat="43.7070158" lon="11.2130553"><ele>80.0</ele><time>2026-04-06T14:33:40.166Z</time></trkpt><trkpt lat="43.7067492" lon="11.213112"><ele>90.5</ele><time>2026-04-06T14:33:41.14Z</time></trkpt><trkpt lat="43.7064737" lon="11.2131646"><ele>101.0</ele><time>2026-04-06T14:33:42.138Z</time></trkpt><trkpt lat="43.7061927" lon="11.2132234"><ele>94.0</ele><time>2026-04-06T14:33:43.14Z</time></trkpt><trkpt lat="43.7027318" lon="11.2138502"><ele>94.0</ele><time>2026-04-06T14:33:55.134Z</time></trkpt><trkpt lat="43.7024256" lon="11.2138772"><ele>94.0</ele><time>2026-04-06T14:33:56.133Z</time></trkpt><trkpt lat="43.7021428" lon="11.2138955"><ele>94.5</ele><time>2026-04-06T14:33:57.142Z</time></trkpt><trkpt lat="43.701859" lon="11.2138817"><ele>95.0</ele><time>2026-04-06T14:33:58.136Z</time></trkpt><trkpt lat="43.7015834" lon="11.2138537"><ele>95.0</ele><time>2026-04-06T14:33:59.135Z</time></trkpt><trkpt lat="43.701298" lon="11.213809"><ele>95.0</ele><time>2026-04-06T14:34:00.134Z</time></trkpt><trkpt lat="43.7010138" lon="11.2137433"><ele>90.5</ele><time>2026-04-06T14:34:01.139Z</time></trkpt><trkpt lat="43.7007363" lon="11.213661"><ele>86.0</ele><time>2026-04-06T14:34:02.135Z</time></trkpt><trkpt lat="43.7004618" lon="11.2135482"><ele>86.0</ele><time>2026-04-06T14:34:03.131Z</time></trkpt><trkpt lat="43.7001913" lon="11.2134184"><ele>86.0</ele><time>2026-04-06T14:34:04.141Z</time></trkpt><trkpt lat="43.6999347" lon="11.2132682"><ele>85.0</ele><time>2026-04-06T14:34:05.135Z</time></trkpt><trkpt lat="43.6996906" lon="11.2130892"><ele>84.0</ele><time>2026-04-06T14:34:06.137Z</time></trkpt><trkpt lat="43.6994585" lon="11.2128983"><ele>86.5</ele><time>2026-04-06T14:34:07.141Z</time></trkpt><trkpt lat="43.6992249" lon="11.212704"><ele>89.0</ele><time>2026-04-06T14:34:08.135Z</time></trkpt><trkpt lat="43.698991" lon="11.2125132"><ele>89.0</ele><time>2026-04-06T14:34:09.137Z</time></trkpt><trkpt lat="43.6987629" lon="11.212324"><ele>89.0</ele><time>2026-04-06T14:34:10.145Z</time></trkpt><trkpt lat="43.6985307" lon="11.2121444"><ele>89.0</ele><time>2026-04-06T14:34:11.144Z</time></trkpt><trkpt lat="43.698292" lon="11.2119843"><ele>89.0</ele><time>2026-04-06T14:34:12.135Z</time></trkpt><trkpt lat="43.698046" lon="11.2118409"><ele>89.0</ele><time>2026-04-06T14:34:13.151Z</time></trkpt><trkpt lat="43.6977907" lon="11.2117203"><ele>89.0</ele><time>2026-04-06T14:34:14.138Z</time></trkpt><trkpt lat="43.6975303" lon="11.2116226"><ele>91.0</ele><time>2026-04-06T14:34:15.148Z</time></trkpt><trkpt lat="43.6972613" lon="11.2115618"><ele>93.0</ele><time>2026-04-06T14:34:16.133Z</time></trkpt><trkpt lat="43.6969838" lon="11.2115149"><ele>95.0</ele><time>2026-04-06T14:34:17.148Z</time></trkpt><trkpt lat="43.6967083" lon="11.2114914"><ele>97.0</ele><time>2026-04-06T14:34:18.139Z</time></trkpt><trkpt lat="43.6964281" lon="11.211493"><ele>97.0</ele><time>2026-04-06T14:34:19.15Z</time></trkpt><trkpt lat="43.6961505" lon="11.2115253"><ele>97.0</ele><time>2026-04-06T14:34:20.149Z</time></trkpt><trkpt lat="43.6958774" lon="11.2115865"><ele>98.0</ele><time>2026-04-06T14:34:21.148Z</time></trkpt><trkpt lat="43.6956119" lon="11.2116701"><ele>99.0</ele><time>2026-04-06T14:34:22.151Z</time></trkpt><trkpt lat="43.6953554" lon="11.2117752"><ele>95.5</ele><time>2026-04-06T14:34:23.152Z</time></trkpt><trkpt lat="43.6951033" lon="11.2118967"><ele>92.0</ele><time>2026-04-06T14:34:24.147Z</time></trkpt><trkpt lat="43.6948449" lon="11.2120221"><ele>92.0</ele><time>2026-04-06T14:34:25.147Z</time></trkpt><trkpt lat="43.6945728" lon="11.2121511"><ele>92.0</ele><time>2026-04-06T14:34:26.138Z</time></trkpt><trkpt lat="43.6942938" lon="11.2122822"><ele>95.0</ele><time>2026-04-06T14:34:27.153Z</time></trkpt><trkpt lat="43.6940031" lon="11.2124103"><ele>98.0</ele><time>2026-04-06T14:34:28.152Z</time></trkpt><trkpt lat="43.6937112" lon="11.2125423"><ele>97.5</ele><time>2026-04-06T14:34:29.147Z</time></trkpt><trkpt lat="43.6934253" lon="11.2126691"><ele>97.0</ele><time>2026-04-06T14:34:30.156Z</time></trkpt><trkpt lat="43.6931401" lon="11.2127997"><ele>97.0</ele><time>2026-04-06T14:34:31.138Z</time></trkpt><trkpt lat="43.6928482" lon="11.2129053"><ele>97.0</ele><time>2026-04-06T14:34:32.158Z</time></trkpt><trkpt lat="43.6925581" lon="11.2129851"><ele>94.0</ele><time>2026-04-06T14:34:33.151Z</time></trkpt><trkpt lat="43.6922723" lon="11.2130246"><ele>91.0</ele><time>2026-04-06T14:34:34.153Z</time></trkpt><trkpt lat="43.6919907" lon="11.2130237"><ele>91.5</ele><time>2026-04-06T14:34:35.147Z</time></trkpt><trkpt lat="43.6917205" lon="11.2130049"><ele>92.0</ele><time>2026-04-06T14:34:36.151Z</time></trkpt><trkpt lat="43.6914547" lon="11.212961"><ele>92.0</ele><time>2026-04-06T14:34:37.154Z</time></trkpt><trkpt lat="43.6911994" lon="11.2128999"><ele>92.0</ele><time>2026-04-06T14:34:38.145Z</time></trkpt><trkpt lat="43.6909465" lon="11.212829"><ele>93.0</ele><time>2026-04-06T14:34:39.147Z</time></trkpt><trkpt lat="43.690693" lon="11.2127285"><ele>94.0</ele><time>2026-04-06T14:34:40.149Z</time></trkpt><trkpt lat="43.6904498" lon="11.2125969"><ele>93.0</ele><time>2026-04-06T14:34:41.152Z</time></trkpt><trkpt lat="43.6902208" lon="11.2124466"><ele>92.0</ele><time>2026-04-06T14:34:42.161Z</time></trkpt><trkpt lat="43.6899994" lon="11.2122923"><ele>92.0</ele><time>2026-04-06T14:34:43.156Z</time></trkpt><trkpt lat="43.6897782" lon="11.2121272"><ele>92.0</ele><time>2026-04-06T14:34:44.145Z</time></trkpt><trkpt lat="43.6895555" lon="11.2119614"><ele>92.5</ele><time>2026-04-06T14:34:45.145Z</time></trkpt><trkpt lat="43.6893322" lon="11.2117918"><ele>93.0</ele><time>2026-04-06T14:34:46.137Z</time></trkpt><trkpt lat="43.6891165" lon="11.2116293"><ele>92.0</ele><time>2026-04-06T14:34:47.142Z</time></trkpt><trkpt lat="43.6889012" lon="11.2114786"><ele>91.0</ele><time>2026-04-06T14:34:48.146Z</time></trkpt><trkpt lat="43.6886779" lon="11.2113458"><ele>93.0</ele><time>2026-04-06T14:34:49.147Z</time></trkpt><trkpt lat="43.6884466" lon="11.2112314"><ele>95.0</ele><time>2026-04-06T14:34:50.155Z</time></trkpt><trkpt lat="43.6882035" lon="11.2111521"><ele>95.0</ele><time>2026-04-06T14:34:51.146Z</time></trkpt><trkpt lat="43.6879545" lon="11.2110955"><ele>95.0</ele><time>2026-04-06T14:34:52.151Z</time></trkpt><trkpt lat="43.6877018" lon="11.211063"><ele>101.5</ele><time>2026-04-06T14:34:53.147Z</time></trkpt><trkpt lat="43.6874446" lon="11.2110496"><ele>108.0</ele><time>2026-04-06T14:34:54.144Z</time></trkpt><trkpt lat="43.687192" lon="11.2110618"><ele>108.0</ele><time>2026-04-06T14:34:55.156Z</time></trkpt><trkpt lat="43.6869517" lon="11.2110859"><ele>108.0</ele><time>2026-04-06T14:34:56.131Z</time></trkpt><trkpt lat="43.6867169" lon="11.2111149"><ele>111.0</ele><time>2026-04-06T14:34:57.16Z</time></trkpt><trkpt lat="43.6865012" lon="11.2111487"><ele>114.0</ele><time>2026-04-06T14:34:58.147Z</time></trkpt><trkpt lat="43.686309" lon="11.2111869"><ele>117.0</ele><time>2026-04-06T14:34:59.144Z</time></trkpt><trkpt lat="43.6861366" lon="11.2112174"><ele>121.33333333333334</ele><time>2026-04-06T14:35:00.146Z</time></trkpt><trkpt lat="43.6859761" lon="11.2112459"><ele>125.66666666666667</ele><time>2026-04-06T14:35:01.147Z</time></trkpt><trkpt lat="43.6858263" lon="11.2112753"><ele>130.0</ele><time>2026-04-06T14:35:02.134Z</time></trkpt><trkpt lat="43.6856862" lon="11.2113005"><ele>130.0</ele><time>2026-04-06T14:35:03.155Z</time></trkpt><trkpt lat="43.6855522" lon="11.2113226"><ele>130.0</ele><time>2026-04-06T14:35:04.131Z</time></trkpt><trkpt lat="43.6854329" lon="11.2113474"><ele>130.0</ele><time>2026-04-06T14:35:05.149Z</time></trkpt><trkpt lat="43.6853258" lon="11.2113664"><ele>130.0</ele><time>2026-04-06T14:35:06.147Z</time></trkpt><trkpt lat="43.685214" lon="11.2113787"><ele>132.2</ele><time>2026-04-06T14:35:07.147Z</time></trkpt><trkpt lat="43.6851096" lon="11.2113999"><ele>134.4</ele><time>2026-04-06T14:35:08.149Z</time></trkpt><trkpt lat="43.6850137" lon="11.2114204"><ele>136.6</ele><time>2026-04-06T14:35:09.157Z</time></trkpt><trkpt lat="43.6849217" lon="11.2114392"><ele>138.8</ele><time>2026-04-06T14:35:10.156Z</time></trkpt><trkpt lat="43.6848335" lon="11.2114572"><ele>141.0</ele><time>2026-04-06T14:35:11.15Z</time></trkpt><trkpt lat="43.6847404" lon="11.2114671"><ele>141.0</ele><time>2026-04-06T14:35:12.15Z</time></trkpt><trkpt lat="43.6846407" lon="11.2114838"><ele>141.0</ele><time>2026-04-06T14:35:13.141Z</time></trkpt><trkpt lat="43.6845342" lon="11.2115054"><ele>141.0</ele><time>2026-04-06T14:35:14.128Z</time></trkpt><trkpt lat="43.684438" lon="11.2115284"><ele>141.0</ele><time>2026-04-06T14:35:15.157Z</time></trkpt><trkpt lat="43.6843454" lon="11.2115402"><ele>141.0</ele><time>2026-04-06T14:35:16.149Z</time></trkpt><trkpt lat="43.6842577" lon="11.2115506"><ele>136.16666666666666</ele><time>2026-04-06T14:35:17.147Z</time></trkpt><trkpt lat="43.6841833" lon="11.2115634"><ele>131.33333333333334</ele><time>2026-04-06T14:35:18.13Z</time></trkpt><trkpt lat="43.684111" lon="11.2115775"><ele>126.5</ele><time>2026-04-06T14:35:19.133Z</time></trkpt><trkpt lat="43.6840337" lon="11.2115971"><ele>121.66666666666667</ele><time>2026-04-06T14:35:20.134Z</time></trkpt><trkpt lat="43.6839419" lon="11.2116115"><ele>116.83333333333334</ele><time>2026-04-06T14:35:21.133Z</time></trkpt><trkpt lat="43.683848" lon="11.2116297"><ele>112.0</ele><time>2026-04-06T14:35:22.133Z</time></trkpt><trkpt lat="43.6837561" lon="11.2116493"><ele>112.0</ele><time>2026-04-06T14:35:23.132Z</time></trkpt><trkpt lat="43.6836541" lon="11.2116705"><ele>111.99999999999999</ele><time>2026-04-06T14:35:24.129Z</time></trkpt><trkpt lat="43.6835479" lon="11.211694"><ele>111.99999999999999</ele><time>2026-04-06T14:35:25.148Z</time></trkpt><trkpt lat="43.6834548" lon="11.2117172"><ele>112.0</ele><time>2026-04-06T14:35:26.136Z</time></trkpt><trkpt lat="43.6833764" lon="11.2117352"><ele>112.0</ele><time>2026-04-06T14:35:27.134Z</time></trkpt><trkpt lat="43.6832952" lon="11.2117439"><ele>109.6</ele><time>2026-04-06T14:35:28.132Z</time></trkpt><trkpt lat="43.6832009" lon="11.2117596"><ele>107.19999999999999</ele><time>2026-04-06T14:35:29.131Z</time></trkpt><trkpt lat="43.6830961" lon="11.2117764"><ele>104.8</ele><time>2026-04-06T14:35:30.145Z</time></trkpt><trkpt lat="43.6829841" lon="11.2118056"><ele>102.4</ele><time>2026-04-06T14:35:31.142Z</time></trkpt><trkpt lat="43.6828723" lon="11.2118222"><ele>100.0</ele><time>2026-04-06T14:35:32.138Z</time></trkpt><trkpt lat="43.6827681" lon="11.2118406"><ele>99.2</ele><time>2026-04-06T14:35:33.14Z</time></trkpt><trkpt lat="43.6826597" lon="11.2118618"><ele>98.4</ele><time>2026-04-06T14:35:34.144Z</time></trkpt><trkpt lat="43.6825545" lon="11.2118811"><ele>97.6</ele><time>2026-04-06T14:35:35.152Z</time></trkpt><trkpt lat="43.6824582" lon="11.2119003"><ele>96.8</ele><time>2026-04-06T14:35:36.153Z</time></trkpt><trkpt lat="43.6823665" lon="11.2119176"><ele>96.0</ele><time>2026-04-06T14:35:37.154Z</time></trkpt><trkpt lat="43.6822716" lon="11.2119309"><ele>96.0</ele><time>2026-04-06T14:35:38.14Z</time></trkpt><trkpt lat="43.6821761" lon="11.211949"><ele>96.0</ele><time>2026-04-06T14:35:39.147Z</time></trkpt><trkpt lat="43.6820844" lon="11.2119693"><ele>96.0</ele><time>2026-04-06T14:35:40.166Z</time></trkpt><trkpt lat="43.6819916" lon="11.2119898"><ele>96.0</ele><time>2026-04-06T14:35:41.143Z</time></trkpt><trkpt lat="43.6818955" lon="11.2120073"><ele>96.0</ele><time>2026-04-06T14:35:42.149Z</time></trkpt><trkpt lat="43.6817969" lon="11.212026"><ele>96.0</ele><time>2026-04-06T14:35:43.153Z</time></trkpt><trkpt lat="43.6816948" lon="11.2120496"><ele>96.0</ele><time>2026-04-06T14:35:44.143Z</time></trkpt><trkpt lat="43.6815941" lon="11.2120655"><ele>96.0</ele><time>2026-04-06T14:35:45.16Z</time></trkpt><trkpt lat="43.6814997" lon="11.2120831"><ele>96.0</ele><time>2026-04-06T14:35:46.155Z</time></trkpt><trkpt lat="43.6814047" lon="11.2120949"><ele>96.0</ele><time>2026-04-06T14:35:47.157Z</time></trkpt><trkpt lat="43.6813087" lon="11.2121058"><ele>96.0</ele><time>2026-04-06T14:35:48.145Z</time></trkpt><trkpt lat="43.6812094" lon="11.2121153"><ele>96.0</ele><time>2026-04-06T14:35:49.153Z</time></trkpt><trkpt lat="43.6811044" lon="11.2121187"><ele>96.0</ele><time>2026-04-06T14:35:50.162Z</time></trkpt><trkpt lat="43.6809952" lon="11.212116"><ele>96.0</ele><time>2026-04-06T14:35:51.143Z</time></trkpt><trkpt lat="43.6808864" lon="11.2121171"><ele>96.0</ele><time>2026-04-06T14:35:52.148Z</time></trkpt><trkpt lat="43.6807832" lon="11.2121135"><ele>96.0</ele><time>2026-04-06T14:35:53.157Z</time></trkpt><trkpt lat="43.6806841" lon="11.2121058"><ele>96.0</ele><time>2026-04-06T14:35:54.158Z</time></trkpt><trkpt lat="43.6805794" lon="11.2120892"><ele>96.0</ele><time>2026-04-06T14:35:55.161Z</time></trkpt><trkpt lat="43.6804802" lon="11.2120761"><ele>96.0</ele><time>2026-04-06T14:35:56.165Z</time></trkpt><trkpt lat="43.6803799" lon="11.212063"><ele>96.0</ele><time>2026-04-06T14:35:57.154Z</time></trkpt><trkpt lat="43.6802815" lon="11.2120465"><ele>96.6</ele><time>2026-04-06T14:35:58.154Z</time></trkpt><trkpt lat="43.6801765" lon="11.2120234"><ele>97.19999999999999</ele><time>2026-04-06T14:35:59.161Z</time></trkpt><trkpt lat="43.6800805" lon="11.2119933"><ele>97.80000000000001</ele><time>2026-04-06T14:36:00.152Z</time></trkpt><trkpt lat="43.6799843" lon="11.2119602"><ele>98.4</ele><time>2026-04-06T14:36:01.164Z</time></trkpt><trkpt lat="43.679885" lon="11.2119223"><ele>99.0</ele><time>2026-04-06T14:36:02.155Z</time></trkpt><trkpt lat="43.6797863" lon="11.2118818"><ele>99.0</ele><time>2026-04-06T14:36:03.152Z</time></trkpt><trkpt lat="43.6796892" lon="11.2118457"><ele>99.0</ele><time>2026-04-06T14:36:04.163Z</time></trkpt><trkpt lat="43.6795952" lon="11.2118068"><ele>99.0</ele><time>2026-04-06T14:36:05.148Z</time></trkpt><trkpt lat="43.6794996" lon="11.2117628"><ele>99.0</ele><time>2026-04-06T14:36:06.151Z</time></trkpt><trkpt lat="43.6794056" lon="11.2117103"><ele>99.0</ele><time>2026-04-06T14:36:07.15Z</time></trkpt><trkpt lat="43.6793097" lon="11.2116654"><ele>99.4</ele><time>2026-04-06T14:36:08.159Z</time></trkpt><trkpt lat="43.6792223" lon="11.2116082"><ele>99.80000000000001</ele><time>2026-04-06T14:36:09.153Z</time></trkpt><trkpt lat="43.6791343" lon="11.2115515"><ele>100.19999999999999</ele><time>2026-04-06T14:36:10.147Z</time></trkpt><trkpt lat="43.6790506" lon="11.2114906"><ele>100.6</ele><time>2026-04-06T14:36:11.144Z</time></trkpt><trkpt lat="43.6789704" lon="11.2114324"><ele>101.0</ele><time>2026-04-06T14:36:12.144Z</time></trkpt><trkpt lat="43.6788893" lon="11.2113733"><ele>101.0</ele><time>2026-04-06T14:36:13.164Z</time></trkpt><trkpt lat="43.6788109" lon="11.2113151"><ele>101.0</ele><time>2026-04-06T14:36:14.157Z</time></trkpt><trkpt lat="43.6787299" lon="11.211261"><ele>101.0</ele><time>2026-04-06T14:36:15.154Z</time></trkpt><trkpt lat="43.6786418" lon="11.2112034"><ele>101.0</ele><time>2026-04-06T14:36:16.155Z</time></trkpt><trkpt lat="43.6785557" lon="11.2111363"><ele>101.0</ele><time>2026-04-06T14:36:17.157Z</time></trkpt><trkpt lat="43.6784665" lon="11.2110697"><ele>102.6</ele><time>2026-04-06T14:36:18.162Z</time></trkpt><trkpt lat="43.6783779" lon="11.2110111"><ele>104.19999999999999</ele><time>2026-04-06T14:36:19.158Z</time></trkpt><trkpt lat="43.6782867" lon="11.210952"><ele>105.80000000000001</ele><time>2026-04-06T14:36:20.157Z</time></trkpt><trkpt lat="43.6781991" lon="11.210891"><ele>107.4</ele><time>2026-04-06T14:36:21.162Z</time></trkpt><trkpt lat="43.6781082" lon="11.2108314"><ele>109.0</ele><time>2026-04-06T14:36:22.15Z</time></trkpt><trkpt lat="43.6780115" lon="11.2107625"><ele>109.0</ele><time>2026-04-06T14:36:23.158Z</time></trkpt><trkpt lat="43.677908" lon="11.2106923"><ele>109.0</ele><time>2026-04-06T14:36:24.149Z</time></trkpt><trkpt lat="43.6777997" lon="11.2106232"><ele>109.0</ele><time>2026-04-06T14:36:25.15Z</time></trkpt><trkpt lat="43.6777041" lon="11.2105727"><ele>109.0</ele><time>2026-04-06T14:36:26.143Z</time></trkpt><trkpt lat="43.6776183" lon="11.2105251"><ele>109.0</ele><time>2026-04-06T14:36:27.151Z</time></trkpt><trkpt lat="43.6775324" lon="11.2104761"><ele>108.4</ele><time>2026-04-06T14:36:28.154Z</time></trkpt><trkpt lat="43.677442" lon="11.2104186"><ele>107.80000000000001</ele><time>2026-04-06T14:36:29.138Z</time></trkpt><trkpt lat="43.6773481" lon="11.210374"><ele>107.19999999999999</ele><time>2026-04-06T14:36:30.149Z</time></trkpt><trkpt lat="43.6772577" lon="11.2103398"><ele>106.6</ele><time>2026-04-06T14:36:31.158Z</time></trkpt><trkpt lat="43.6771682" lon="11.2103091"><ele>106.0</ele><time>2026-04-06T14:36:32.14Z</time></trkpt><trkpt lat="43.6770724" lon="11.2102765"><ele>106.0</ele><time>2026-04-06T14:36:33.148Z</time></trkpt><trkpt lat="43.6769657" lon="11.2102298"><ele>106.0</ele><time>2026-04-06T14:36:34.161Z</time></trkpt><trkpt lat="43.676851" lon="11.2101938"><ele>106.0</ele><time>2026-04-06T14:36:35.144Z</time></trkpt><trkpt lat="43.676742" lon="11.210164"><ele>106.0</ele><time>2026-04-06T14:36:36.164Z</time></trkpt><trkpt lat="43.6766358" lon="11.2101394"><ele>106.0</ele><time>2026-04-06T14:36:37.166Z</time></trkpt><trkpt lat="43.6765186" lon="11.2101202"><ele>105.5</ele><time>2026-04-06T14:36:38.165Z</time></trkpt><trkpt lat="43.6763986" lon="11.2101068"><ele>105.0</ele><time>2026-04-06T14:36:39.151Z</time></trkpt><trkpt lat="43.6762842" lon="11.210096"><ele>104.5</ele><time>2026-04-06T14:36:40.141Z</time></trkpt><trkpt lat="43.6761708" lon="11.21009"><ele>104.0</ele><time>2026-04-06T14:36:41.15Z</time></trkpt><trkpt lat="43.6760511" lon="11.2100833"><ele>103.75</ele><time>2026-04-06T14:36:42.156Z</time></trkpt><trkpt lat="43.6759282" lon="11.2100762"><ele>103.5</ele><time>2026-04-06T14:36:43.148Z</time></trkpt><trkpt lat="43.6758049" lon="11.2100733"><ele>103.25</ele><time>2026-04-06T14:36:44.163Z</time></trkpt><trkpt lat="43.6756839" lon="11.2100807"><ele>103.0</ele><time>2026-04-06T14:36:45.154Z</time></trkpt><trkpt lat="43.6755604" lon="11.2100925"><ele>103.0</ele><time>2026-04-06T14:36:46.15Z</time></trkpt><trkpt lat="43.6754354" lon="11.2101023"><ele>103.0</ele><time>2026-04-06T14:36:47.152Z</time></trkpt><trkpt lat="43.6753089" lon="11.2101074"><ele>103.0</ele><time>2026-04-06T14:36:48.146Z</time></trkpt><trkpt lat="43.6751729" lon="11.2101179"><ele>103.0</ele><time>2026-04-06T14:36:49.142Z</time></trkpt><trkpt lat="43.675038" lon="11.2101244"><ele>108.5</ele><time>2026-04-06T14:36:50.147Z</time></trkpt><trkpt lat="43.6749017" lon="11.2101294"><ele>114.0</ele><time>2026-04-06T14:36:51.144Z</time></trkpt><trkpt lat="43.6747814" lon="11.2101328"><ele>119.5</ele><time>2026-04-06T14:36:52.146Z</time></trkpt><trkpt lat="43.6746665" lon="11.2101419"><ele>125.0</ele><time>2026-04-06T14:36:53.145Z</time></trkpt><trkpt lat="43.6745505" lon="11.2101415"><ele>130.0</ele><time>2026-04-06T14:36:54.135Z</time></trkpt><trkpt lat="43.6744177" lon="11.2101498"><ele>135.0</ele><time>2026-04-06T14:36:55.151Z</time></trkpt><trkpt lat="43.6742765" lon="11.2101595"><ele>140.0</ele><time>2026-04-06T14:36:56.144Z</time></trkpt><trkpt lat="43.6741497" lon="11.2101722"><ele>145.0</ele><time>2026-04-06T14:36:57.151Z</time></trkpt><trkpt lat="43.6740304" lon="11.2101802"><ele>145.0</ele><time>2026-04-06T14:36:58.16Z</time></trkpt><trkpt lat="43.6739207" lon="11.2101751"><ele>145.0</ele><time>2026-04-06T14:36:59.158Z</time></trkpt><trkpt lat="43.6738088" lon="11.2101811"><ele>145.0</ele><time>2026-04-06T14:37:00.165Z</time></trkpt><trkpt lat="43.6736931" lon="11.2101895"><ele>145.0</ele><time>2026-04-06T14:37:01.15Z</time></trkpt><trkpt lat="43.6735768" lon="11.2101867"><ele>145.4</ele><time>2026-04-06T14:37:02.144Z</time></trkpt><trkpt lat="43.6734629" lon="11.2102026"><ele>145.8</ele><time>2026-04-06T14:37:03.15Z</time></trkpt><trkpt lat="43.6733596" lon="11.2102176"><ele>146.2</ele><time>2026-04-06T14:37:04.152Z</time></trkpt><trkpt lat="43.6732677" lon="11.2102338"><ele>146.6</ele><time>2026-04-06T14:37:05.145Z</time></trkpt><trkpt lat="43.6731815" lon="11.2102337"><ele>147.0</ele><time>2026-04-06T14:37:06.161Z</time></trkpt><trkpt lat="43.673088" lon="11.210232"><ele>147.0</ele><time>2026-04-06T14:37:07.146Z</time></trkpt><trkpt lat="43.6729801" lon="11.2102335"><ele>147.0</ele><time>2026-04-06T14:37:08.161Z</time></trkpt><trkpt lat="43.6728681" lon="11.2102431"><ele>147.0</ele><time>2026-04-06T14:37:09.161Z</time></trkpt><trkpt lat="43.6727648" lon="11.2102465"><ele>147.0</ele><time>2026-04-06T14:37:10.139Z</time></trkpt><trkpt lat="43.6726693" lon="11.2102601"><ele>147.0</ele><time>2026-04-06T14:37:11.141Z</time></trkpt><trkpt lat="43.6725708" lon="11.2102692"><ele>147.0</ele><time>2026-04-06T14:37:12.139Z</time></trkpt><trkpt lat="43.6724763" lon="11.2102748"><ele>147.0</ele><time>2026-04-06T14:37:13.152Z</time></trkpt><trkpt lat="43.6723811" lon="11.2102834"><ele>147.0</ele><time>2026-04-06T14:37:14.164Z</time></trkpt><trkpt lat="43.6722782" lon="11.2102896"><ele>147.0</ele><time>2026-04-06T14:37:15.146Z</time></trkpt><trkpt lat="43.6721727" lon="11.2102942"><ele>147.0</ele><time>2026-04-06T14:37:16.154Z</time></trkpt><trkpt lat="43.6720736" lon="11.2102993"><ele>147.0</ele><time>2026-04-06T14:37:17.146Z</time></trkpt><trkpt lat="43.671967" lon="11.2103027"><ele>147.0</ele><time>2026-04-06T14:37:18.144Z</time></trkpt><trkpt lat="43.6718605" lon="11.2103098"><ele>147.0</ele><time>2026-04-06T14:37:19.143Z</time></trkpt><trkpt lat="43.6717391" lon="11.2103095"><ele>147.0</ele><time>2026-04-06T14:37:20.146Z</time></trkpt><trkpt lat="43.6716185" lon="11.2103057"><ele>149.25</ele><time>2026-04-06T14:37:21.143Z</time></trkpt><trkpt lat="43.6715025" lon="11.2103061"><ele>151.5</ele><time>2026-04-06T14:37:22.135Z</time></trkpt><trkpt lat="43.6713901" lon="11.2102983"><ele>153.75</ele><time>2026-04-06T14:37:23.142Z</time></trkpt><trkpt lat="43.6712751" lon="11.2102896"><ele>156.0</ele><time>2026-04-06T14:37:24.142Z</time></trkpt><trkpt lat="43.6711698" lon="11.2102751"><ele>155.66666666666666</ele><time>2026-04-06T14:37:25.149Z</time></trkpt><trkpt lat="43.6710747" lon="11.2102645"><ele>155.33333333333334</ele><time>2026-04-06T14:37:26.142Z</time></trkpt><trkpt lat="43.6709771" lon="11.2102499"><ele>155.0</ele><time>2026-04-06T14:37:27.16Z</time></trkpt><trkpt lat="43.6708872" lon="11.2102348"><ele>154.66666666666669</ele><time>2026-04-06T14:37:28.151Z</time></trkpt><trkpt lat="43.6708116" lon="11.2102197"><ele>154.33333333333334</ele><time>2026-04-06T14:37:29.152Z</time></trkpt><trkpt lat="43.67073" lon="11.2102044"><ele>154.0</ele><time>2026-04-06T14:37:30.144Z</time></trkpt><trkpt lat="43.6706431" lon="11.2101854"><ele>154.0</ele><time>2026-04-06T14:37:31.144Z</time></trkpt><trkpt lat="43.6705556" lon="11.210172"><ele>154.0</ele><time>2026-04-06T14:37:32.148Z</time></trkpt><trkpt lat="43.6704569" lon="11.2101519"><ele>154.0</ele><time>2026-04-06T14:37:33.148Z</time></trkpt><trkpt lat="43.6703563" lon="11.2101285"><ele>154.0</ele><time>2026-04-06T14:37:34.144Z</time></trkpt><trkpt lat="43.6702586" lon="11.2101083"><ele>154.0</ele><time>2026-04-06T14:37:35.154Z</time></trkpt><trkpt lat="43.6701574" lon="11.2100881"><ele>154.0</ele><time>2026-04-06T14:37:36.143Z</time></trkpt><trkpt lat="43.6700542" lon="11.2100638"><ele>154.0</ele><time>2026-04-06T14:37:37.142Z</time></trkpt><trkpt lat="43.6699538" lon="11.2100425"><ele>154.0</ele><time>2026-04-06T14:37:38.169Z</time></trkpt><trkpt lat="43.6698548" lon="11.2100229"><ele>154.0</ele><time>2026-04-06T14:37:39.149Z</time></trkpt><trkpt lat="43.669724" lon="11.2100006"><ele>154.0</ele><time>2026-04-06T14:37:40.145Z</time></trkpt><trkpt lat="43.6695652" lon="11.2099732"><ele>154.33333333333334</ele><time>2026-04-06T14:37:41.154Z</time></trkpt><trkpt lat="43.669382" lon="11.2099534"><ele>154.66666666666666</ele><time>2026-04-06T14:37:42.147Z</time></trkpt><trkpt lat="43.6691924" lon="11.209919"><ele>155.0</ele><time>2026-04-06T14:37:43.157Z</time></trkpt><trkpt lat="43.6689897" lon="11.2098802"><ele>155.0</ele><time>2026-04-06T14:37:44.147Z</time></trkpt><trkpt lat="43.6687656" lon="11.2098384"><ele>155.0</ele><time>2026-04-06T14:37:45.138Z</time></trkpt><trkpt lat="43.6685354" lon="11.2097934"><ele>159.5</ele><time>2026-04-06T14:37:46.137Z</time></trkpt><trkpt lat="43.6683022" lon="11.209744"><ele>164.0</ele><time>2026-04-06T14:37:47.147Z</time></trkpt><trkpt lat="43.6680678" lon="11.209692"><ele>164.0</ele><time>2026-04-06T14:37:48.145Z</time></trkpt><trkpt lat="43.6678342" lon="11.2096469"><ele>164.0</ele><time>2026-04-06T14:37:49.14Z</time></trkpt><trkpt lat="43.6675993" lon="11.2096033"><ele>166.5</ele><time>2026-04-06T14:37:50.162Z</time></trkpt><trkpt lat="43.6673545" lon="11.2095549"><ele>169.0</ele><time>2026-04-06T14:37:51.145Z</time></trkpt><trkpt lat="43.6671116" lon="11.2095036"><ele>171.5</ele><time>2026-04-06T14:37:52.173Z</time></trkpt><trkpt lat="43.6668623" lon="11.2094473"><ele>174.0</ele><time>2026-04-06T14:37:53.135Z</time></trkpt><trkpt lat="43.6666129" lon="11.2093905"><ele>174.0</ele><time>2026-04-06T14:37:54.136Z</time></trkpt><trkpt lat="43.6663689" lon="11.2093283"><ele>174.0</ele><time>2026-04-06T14:37:55.138Z</time></trkpt><trkpt lat="43.6661236" lon="11.2092386"><ele>173.5</ele><time>2026-04-06T14:37:56.139Z</time></trkpt><trkpt lat="43.6658787" lon="11.2091146"><ele>173.0</ele><time>2026-04-06T14:37:57.136Z</time></trkpt><trkpt lat="43.66563" lon="11.2089842"><ele>176.0</ele><time>2026-04-06T14:37:58.144Z</time></trkpt><trkpt lat="43.665386" lon="11.2088286"><ele>179.0</ele><time>2026-04-06T14:37:59.135Z</time></trkpt><trkpt lat="43.6651552" lon="11.2086458"><ele>179.0</ele><time>2026-04-06T14:38:00.13Z</time></trkpt><trkpt lat="43.6649246" lon="11.2084548"><ele>179.0</ele><time>2026-04-06T14:38:01.131Z</time></trkpt><trkpt lat="43.6647031" lon="11.2082624"><ele>177.5</ele><time>2026-04-06T14:38:02.132Z</time></trkpt><trkpt lat="43.664481" lon="11.2080624"><ele>176.0</ele><time>2026-04-06T14:38:03.147Z</time></trkpt><trkpt lat="43.6642634" lon="11.2078622"><ele>176.0</ele><time>2026-04-06T14:38:04.145Z</time></trkpt><trkpt lat="43.6640381" lon="11.2076703"><ele>176.0</ele><time>2026-04-06T14:38:05.154Z</time></trkpt><trkpt lat="43.6638107" lon="11.2074732"><ele>172.5</ele><time>2026-04-06T14:38:06.135Z</time></trkpt><trkpt lat="43.6635815" lon="11.2072608"><ele>169.0</ele><time>2026-04-06T14:38:07.14Z</time></trkpt><trkpt lat="43.6633511" lon="11.2070489"><ele>169.0</ele><time>2026-04-06T14:38:08.137Z</time></trkpt><trkpt lat="43.6631201" lon="11.2068482"><ele>169.0</ele><time>2026-04-06T14:38:09.138Z</time></trkpt><trkpt lat="43.6628908" lon="11.2066442"><ele>181.0</ele><time>2026-04-06T14:38:10.139Z</time></trkpt><trkpt lat="43.6626602" lon="11.2064403"><ele>193.0</ele><time>2026-04-06T14:38:11.144Z</time></trkpt><trkpt lat="43.6624298" lon="11.2062486"><ele>193.0</ele><time>2026-04-06T14:38:12.142Z</time></trkpt><trkpt lat="43.6621989" lon="11.2060528"><ele>193.0</ele><time>2026-04-06T14:38:13.133Z</time></trkpt><trkpt lat="43.6619701" lon="11.2058498"><ele>199.5</ele><time>2026-04-06T14:38:14.14Z</time></trkpt><trkpt lat="43.6617414" lon="11.2056508"><ele>206.0</ele><time>2026-04-06T14:38:15.143Z</time></trkpt><trkpt lat="43.6615089" lon="11.2054498"><ele>206.0</ele><time>2026-04-06T14:38:16.146Z</time></trkpt><trkpt lat="43.661277" lon="11.2052569"><ele>206.0</ele><time>2026-04-06T14:38:17.139Z</time></trkpt><trkpt lat="43.6610411" lon="11.2050589"><ele>201.5</ele><time>2026-04-06T14:38:18.14Z</time></trkpt><trkpt lat="43.6608068" lon="11.2048624"><ele>197.0</ele><time>2026-04-06T14:38:19.149Z</time></trkpt><trkpt lat="43.6605738" lon="11.2046656"><ele>203.0</ele><time>2026-04-06T14:38:20.153Z</time></trkpt><trkpt lat="43.6603463" lon="11.2044639"><ele>209.0</ele><time>2026-04-06T14:38:21.154Z</time></trkpt><trkpt lat="43.6601247" lon="11.2042629"><ele>209.0</ele><time>2026-04-06T14:38:22.146Z</time></trkpt><trkpt lat="43.6599073" lon="11.2040565"><ele>209.0</ele><time>2026-04-06T14:38:23.135Z</time></trkpt><trkpt lat="43.6597003" lon="11.2038487"><ele>208.5</ele><time>2026-04-06T14:38:24.142Z</time></trkpt><trkpt lat="43.6595032" lon="11.2036305"><ele>208.0</ele><time>2026-04-06T14:38:25.159Z</time></trkpt><trkpt lat="43.6593141" lon="11.2033949"><ele>217.0</ele><time>2026-04-06T14:38:26.142Z</time></trkpt><trkpt lat="43.6591381" lon="11.2031525"><ele>226.0</ele><time>2026-04-06T14:38:27.159Z</time></trkpt><trkpt lat="43.6589726" lon="11.2028868"><ele>226.0</ele><time>2026-04-06T14:38:28.137Z</time></trkpt><trkpt lat="43.6588184" lon="11.2026096"><ele>226.0</ele><time>2026-04-06T14:38:29.139Z</time></trkpt><trkpt lat="43.6586754" lon="11.2023338"><ele>220.0</ele><time>2026-04-06T14:38:30.144Z</time></trkpt><trkpt lat="43.6585388" lon="11.2020434"><ele>214.0</ele><time>2026-04-06T14:38:31.151Z</time></trkpt><trkpt lat="43.6584201" lon="11.20173"><ele>218.0</ele><time>2026-04-06T14:38:32.151Z</time></trkpt><trkpt lat="43.6583078" lon="11.2014051"><ele>222.0</ele><time>2026-04-06T14:38:33.135Z</time></trkpt><trkpt lat="43.6581972" lon="11.201066"><ele>222.0</ele><time>2026-04-06T14:38:34.138Z</time></trkpt><trkpt lat="43.6580868" lon="11.2007266"><ele>222.0</ele><time>2026-04-06T14:38:35.136Z</time></trkpt><trkpt lat="43.6579753" lon="11.2003907"><ele>221.0</ele><time>2026-04-06T14:38:36.135Z</time></trkpt><trkpt lat="43.6578673" lon="11.2000571"><ele>220.0</ele><time>2026-04-06T14:38:37.148Z</time></trkpt><trkpt lat="43.6577564" lon="11.1997288"><ele>220.0</ele><time>2026-04-06T14:38:38.148Z</time></trkpt><trkpt lat="43.6576385" lon="11.1993983"><ele>220.0</ele><time>2026-04-06T14:38:39.139Z</time></trkpt><trkpt lat="43.6575168" lon="11.1990744"><ele>222.5</ele><time>2026-04-06T14:38:40.137Z</time></trkpt><trkpt lat="43.6573842" lon="11.1987476"><ele>225.0</ele><time>2026-04-06T14:38:41.135Z</time></trkpt><trkpt lat="43.6572432" lon="11.1984168"><ele>229.0</ele><time>2026-04-06T14:38:42.137Z</time></trkpt><trkpt lat="43.6570938" lon="11.1981028"><ele>233.0</ele><time>2026-04-06T14:38:43.142Z</time></trkpt><trkpt lat="43.6569442" lon="11.1977951"><ele>233.0</ele><time>2026-04-06T14:38:44.155Z</time></trkpt><trkpt lat="43.6567879" lon="11.1974933"><ele>233.0</ele><time>2026-04-06T14:38:45.137Z</time></trkpt><trkpt lat="43.6566175" lon="11.1972"><ele>231.0</ele><time>2026-04-06T14:38:46.146Z</time></trkpt><trkpt lat="43.6564406" lon="11.1969068"><ele>229.0</ele><time>2026-04-06T14:38:47.152Z</time></trkpt><trkpt lat="43.6562515" lon="11.1966198"><ele>237.5</ele><time>2026-04-06T14:38:48.158Z</time></trkpt><trkpt lat="43.6560565" lon="11.1963296"><ele>246.0</ele><time>2026-04-06T14:38:49.146Z</time></trkpt><trkpt lat="43.6558556" lon="11.1960329"><ele>246.0</ele><time>2026-04-06T14:38:50.128Z</time></trkpt><trkpt lat="43.65565" lon="11.1957427"><ele>246.0</ele><time>2026-04-06T14:38:51.14Z</time></trkpt><trkpt lat="43.6554476" lon="11.1954424"><ele>252.0</ele><time>2026-04-06T14:38:52.141Z</time></trkpt><trkpt lat="43.6525405" lon="11.191226"><ele>252.0</ele><time>2026-04-06T14:39:06.13Z</time></trkpt><trkpt lat="43.6523393" lon="11.1909476"><ele>252.0</ele><time>2026-04-06T14:39:07.129Z</time></trkpt><trkpt lat="43.6521637" lon="11.1906571"><ele>254.5</ele><time>2026-04-06T14:39:08.134Z</time></trkpt><trkpt lat="43.6519767" lon="11.1903854"><ele>257.0</ele><time>2026-04-06T14:39:09.138Z</time></trkpt><trkpt lat="43.6517995" lon="11.1901151"><ele>253.5</ele><time>2026-04-06T14:39:10.142Z</time></trkpt><trkpt lat="43.6516298" lon="11.1898495"><ele>250.0</ele><time>2026-04-06T14:39:11.147Z</time></trkpt><trkpt lat="43.6514723" lon="11.1895803"><ele>250.0</ele><time>2026-04-06T14:39:12.138Z</time></trkpt><trkpt lat="43.651318" lon="11.1893006"><ele>250.0</ele><time>2026-04-06T14:39:13.138Z</time></trkpt><trkpt lat="43.6511725" lon="11.1890121"><ele>243.0</ele><time>2026-04-06T14:39:14.137Z</time></trkpt><trkpt lat="43.6510333" lon="11.1887197"><ele>236.0</ele><time>2026-04-06T14:39:15.136Z</time></trkpt><trkpt lat="43.6508963" lon="11.1884406"><ele>236.0</ele><time>2026-04-06T14:39:16.128Z</time></trkpt><trkpt lat="43.650773" lon="11.1881714"><ele>236.0</ele><time>2026-04-06T14:39:17.136Z</time></trkpt><trkpt lat="43.6506465" lon="11.1879011"><ele>236.0</ele><time>2026-04-06T14:39:18.146Z</time></trkpt><trkpt lat="43.6505185" lon="11.1876306"><ele>236.0</ele><time>2026-04-06T14:39:19.143Z</time></trkpt><trkpt lat="43.650389" lon="11.1873462"><ele>230.5</ele><time>2026-04-06T14:39:20.135Z</time></trkpt><trkpt lat="43.6502527" lon="11.1870682"><ele>225.0</ele><time>2026-04-06T14:39:21.138Z</time></trkpt><trkpt lat="43.6501146" lon="11.1867946"><ele>225.0</ele><time>2026-04-06T14:39:22.144Z</time></trkpt><trkpt lat="43.6499834" lon="11.1865119"><ele>225.0</ele><time>2026-04-06T14:39:23.138Z</time></trkpt><trkpt lat="43.6498474" lon="11.1862227"><ele>223.0</ele><time>2026-04-06T14:39:24.148Z</time></trkpt><trkpt lat="43.6497159" lon="11.1859249"><ele>221.0</ele><time>2026-04-06T14:39:25.139Z</time></trkpt><trkpt lat="43.6495798" lon="11.1856208"><ele>224.0</ele><time>2026-04-06T14:39:26.138Z</time></trkpt><trkpt lat="43.6494431" lon="11.1853189"><ele>227.0</ele><time>2026-04-06T14:39:27.142Z</time></trkpt><trkpt lat="43.6493004" lon="11.1850145"><ele>221.5</ele><time>2026-04-06T14:39:28.142Z</time></trkpt><trkpt lat="43.6491564" lon="11.1846997"><ele>216.0</ele><time>2026-04-06T14:39:29.136Z</time></trkpt><trkpt lat="43.6490118" lon="11.184384"><ele>216.0</ele><time>2026-04-06T14:39:30.157Z</time></trkpt><trkpt lat="43.6488599" lon="11.1840737"><ele>216.0</ele><time>2026-04-06T14:39:31.147Z</time></trkpt><trkpt lat="43.6487109" lon="11.1837597"><ele>219.5</ele><time>2026-04-06T14:39:32.151Z</time></trkpt><trkpt lat="43.6485615" lon="11.1834502"><ele>223.0</ele><time>2026-04-06T14:39:33.141Z</time></trkpt><trkpt lat="43.6484109" lon="11.1831516"><ele>214.5</ele><time>2026-04-06T14:39:34.131Z</time></trkpt><trkpt lat="43.6482557" lon="11.1828551"><ele>206.0</ele><time>2026-04-06T14:39:35.149Z</time></trkpt><trkpt lat="43.6480943" lon="11.1825708"><ele>206.0</ele><time>2026-04-06T14:39:36.156Z</time></trkpt><trkpt lat="43.6479184" lon="11.1823009"><ele>206.0</ele><time>2026-04-06T14:39:37.136Z</time></trkpt><trkpt lat="43.6477373" lon="11.1820302"><ele>206.0</ele><time>2026-04-06T14:39:38.152Z</time></trkpt><trkpt lat="43.647546" lon="11.1817701"><ele>206.0</ele><time>2026-04-06T14:39:39.15Z</time></trkpt><trkpt lat="43.647348" lon="11.1815198"><ele>204.0</ele><time>2026-04-06T14:39:40.135Z</time></trkpt><trkpt lat="43.6471431" lon="11.1812715"><ele>202.0</ele><time>2026-04-06T14:39:41.158Z</time></trkpt><trkpt lat="43.646931" lon="11.1810332"><ele>202.0</ele><time>2026-04-06T14:39:42.136Z</time></trkpt><trkpt lat="43.6467165" lon="11.1807987"><ele>202.0</ele><time>2026-04-06T14:39:43.14Z</time></trkpt><trkpt lat="43.6464976" lon="11.1805654"><ele>199.0</ele><time>2026-04-06T14:39:44.148Z</time></trkpt><trkpt lat="43.646279" lon="11.18033"><ele>196.0</ele><time>2026-04-06T14:39:45.149Z</time></trkpt><trkpt lat="43.6460625" lon="11.1800964"><ele>196.0</ele><time>2026-04-06T14:39:46.157Z</time></trkpt><trkpt lat="43.6458445" lon="11.1798677"><ele>196.0</ele><time>2026-04-06T14:39:47.161Z</time></trkpt><trkpt lat="43.6456222" lon="11.1796419"><ele>194.5</ele><time>2026-04-06T14:39:48.147Z</time></trkpt><trkpt lat="43.6454036" lon="11.1794261"><ele>193.0</ele><time>2026-04-06T14:39:49.152Z</time></trkpt><trkpt lat="43.645184" lon="11.1792101"><ele>185.5</ele><time>2026-04-06T14:39:50.148Z</time></trkpt><trkpt lat="43.6449599" lon="11.1790125"><ele>178.0</ele><time>2026-04-06T14:39:51.149Z</time></trkpt><trkpt lat="43.6447331" lon="11.1788262"><ele>178.0</ele><time>2026-04-06T14:39:52.163Z</time></trkpt><trkpt lat="43.644498" lon="11.1786646"><ele>178.0</ele><time>2026-04-06T14:39:53.155Z</time></trkpt><trkpt lat="43.6442544" lon="11.1785166"><ele>182.0</ele><time>2026-04-06T14:39:54.156Z</time></trkpt><trkpt lat="43.6440077" lon="11.1783806"><ele>186.0</ele><time>2026-04-06T14:39:55.159Z</time></trkpt><trkpt lat="43.6437587" lon="11.1782776"><ele>184.0</ele><time>2026-04-06T14:39:56.136Z</time></trkpt><trkpt lat="43.6435065" lon="11.1781942"><ele>182.0</ele><time>2026-04-06T14:39:57.148Z</time></trkpt><trkpt lat="43.6432526" lon="11.1781351"><ele>182.0</ele><time>2026-04-06T14:39:58.146Z</time></trkpt><trkpt lat="43.642998" lon="11.1780891"><ele>182.0</ele><time>2026-04-06T14:39:59.147Z</time></trkpt><trkpt lat="43.6427409" lon="11.1780694"><ele>184.0</ele><time>2026-04-06T14:40:00.141Z</time></trkpt><trkpt lat="43.6424858" lon="11.1780655"><ele>186.0</ele><time>2026-04-06T14:40:01.149Z</time></trkpt><trkpt lat="43.6422287" lon="11.1780803"><ele>186.0</ele><time>2026-04-06T14:40:02.136Z</time></trkpt><trkpt lat="43.6419697" lon="11.1781196"><ele>186.0</ele><time>2026-04-06T14:40:03.132Z</time></trkpt><trkpt lat="43.6417188" lon="11.1781692"><ele>186.0</ele><time>2026-04-06T14:40:04.146Z</time></trkpt><trkpt lat="43.6414652" lon="11.1782352"><ele>186.0</ele><time>2026-04-06T14:40:05.143Z</time></trkpt><trkpt lat="43.6412122" lon="11.1783256"><ele>180.0</ele><time>2026-04-06T14:40:06.137Z</time></trkpt><trkpt lat="43.6409539" lon="11.1784254"><ele>174.0</ele><time>2026-04-06T14:40:07.159Z</time></trkpt><trkpt lat="43.6406905" lon="11.1785283"><ele>174.0</ele><time>2026-04-06T14:40:08.144Z</time></trkpt><trkpt lat="43.6404197" lon="11.1786257"><ele>174.0</ele><time>2026-04-06T14:40:09.154Z</time></trkpt><trkpt lat="43.6401483" lon="11.1787241"><ele>178.5</ele><time>2026-04-06T14:40:10.154Z</time></trkpt><trkpt lat="43.639878" lon="11.1788253"><ele>183.0</ele><time>2026-04-06T14:40:11.16Z</time></trkpt><trkpt lat="43.6396084" lon="11.1789217"><ele>179.5</ele><time>2026-04-06T14:40:12.142Z</time></trkpt><trkpt lat="43.6393398" lon="11.1790192"><ele>176.0</ele><time>2026-04-06T14:40:13.151Z</time></trkpt><trkpt lat="43.6390688" lon="11.1791225"><ele>176.0</ele><time>2026-04-06T14:40:14.146Z</time></trkpt><trkpt lat="43.6387949" lon="11.179228"><ele>176.0</ele><time>2026-04-06T14:40:15.145Z</time></trkpt><trkpt lat="43.6385085" lon="11.1793427"><ele>171.5</ele><time>2026-04-06T14:40:16.135Z</time></trkpt><trkpt lat="43.638202" lon="11.1794587"><ele>167.0</ele><time>2026-04-06T14:40:17.152Z</time></trkpt><trkpt lat="43.6378899" lon="11.1795809"><ele>163.0</ele><time>2026-04-06T14:40:18.153Z</time></trkpt><trkpt lat="43.6375761" lon="11.1797087"><ele>159.0</ele><time>2026-04-06T14:40:19.15Z</time></trkpt><trkpt lat="43.6372732" lon="11.1798373"><ele>158.5</ele><time>2026-04-06T14:40:20.155Z</time></trkpt><trkpt lat="43.6369706" lon="11.1799734"><ele>158.0</ele><time>2026-04-06T14:40:21.149Z</time></trkpt><trkpt lat="43.6366741" lon="11.1801184"><ele>158.0</ele><time>2026-04-06T14:40:22.152Z</time></trkpt><trkpt lat="43.6363835" lon="11.1802665"><ele>158.0</ele><time>2026-04-06T14:40:23.154Z</time></trkpt><trkpt lat="43.6360966" lon="11.1804121"><ele>152.5</ele><time>2026-04-06T14:40:24.155Z</time></trkpt><trkpt lat="43.635813" lon="11.1805711"><ele>147.0</ele><time>2026-04-06T14:40:25.149Z</time></trkpt><trkpt lat="43.6355302" lon="11.1807385"><ele>143.5</ele><time>2026-04-06T14:40:26.156Z</time></trkpt><trkpt lat="43.6352514" lon="11.1809085"><ele>140.0</ele><time>2026-04-06T14:40:27.165Z</time></trkpt><trkpt lat="43.634984" lon="11.1810835"><ele>140.0</ele><time>2026-04-06T14:40:28.15Z</time></trkpt><trkpt lat="43.6347186" lon="11.1812559"><ele>140.0</ele><time>2026-04-06T14:40:29.149Z</time></trkpt><trkpt lat="43.6344457" lon="11.1814323"><ele>138.0</ele><time>2026-04-06T14:40:30.138Z</time></trkpt><trkpt lat="43.634177" lon="11.1816087"><ele>136.0</ele><time>2026-04-06T14:40:31.16Z</time></trkpt><trkpt lat="43.6339051" lon="11.1817854"><ele>136.0</ele><time>2026-04-06T14:40:32.151Z</time></trkpt><trkpt lat="43.633641" lon="11.1819563"><ele>136.0</ele><time>2026-04-06T14:40:33.141Z</time></trkpt><trkpt lat="43.6333776" lon="11.1821209"><ele>138.5</ele><time>2026-04-06T14:40:34.14Z</time></trkpt><trkpt lat="43.6331147" lon="11.182286"><ele>141.0</ele><time>2026-04-06T14:40:35.143Z</time></trkpt><trkpt lat="43.6328572" lon="11.1824492"><ele>143.0</ele><time>2026-04-06T14:40:36.153Z</time></trkpt><trkpt lat="43.6325927" lon="11.1825941"><ele>145.0</ele><time>2026-04-06T14:40:37.139Z</time></trkpt><trkpt lat="43.6323268" lon="11.182727"><ele>145.0</ele><time>2026-04-06T14:40:38.155Z</time></trkpt><trkpt lat="43.632065" lon="11.1828351"><ele>145.0</ele><time>2026-04-06T14:40:39.156Z</time></trkpt><trkpt lat="43.6317924" lon="11.1829333"><ele>141.0</ele><time>2026-04-06T14:40:40.161Z</time></trkpt><trkpt lat="43.6315127" lon="11.1830024"><ele>137.0</ele><time>2026-04-06T14:40:41.149Z</time></trkpt><trkpt lat="43.6312295" lon="11.183063"><ele>136.0</ele><time>2026-04-06T14:40:42.158Z</time></trkpt><trkpt lat="43.6309419" lon="11.1831127"><ele>135.0</ele><time>2026-04-06T14:40:43.159Z</time></trkpt><trkpt lat="43.6306599" lon="11.1831441"><ele>135.0</ele><time>2026-04-06T14:40:44.166Z</time></trkpt><trkpt lat="43.6303806" lon="11.1831539"><ele>135.0</ele><time>2026-04-06T14:40:45.153Z</time></trkpt><trkpt lat="43.6300993" lon="11.1831464"><ele>135.0</ele><time>2026-04-06T14:40:46.152Z</time></trkpt><trkpt lat="43.6298123" lon="11.183136"><ele>135.0</ele><time>2026-04-06T14:40:47.158Z</time></trkpt><trkpt lat="43.6295233" lon="11.1831181"><ele>133.5</ele><time>2026-04-06T14:40:48.154Z</time></trkpt><trkpt lat="43.6292437" lon="11.183111"><ele>132.0</ele><time>2026-04-06T14:40:49.141Z</time></trkpt><trkpt lat="43.6289652" lon="11.1831027"><ele>132.0</ele><time>2026-04-06T14:40:50.165Z</time></trkpt><trkpt lat="43.6286814" lon="11.1830973"><ele>132.0</ele><time>2026-04-06T14:40:51.155Z</time></trkpt><trkpt lat="43.6284018" lon="11.1830884"><ele>132.5</ele><time>2026-04-06T14:40:52.15Z</time></trkpt><trkpt lat="43.6281199" lon="11.1830755"><ele>133.0</ele><time>2026-04-06T14:40:53.158Z</time></trkpt><trkpt lat="43.6278423" lon="11.1830695"><ele>133.0</ele><time>2026-04-06T14:40:54.154Z</time></trkpt><trkpt lat="43.6275684" lon="11.1830628"><ele>133.0</ele><time>2026-04-06T14:40:55.156Z</time></trkpt><trkpt lat="43.6272914" lon="11.1830686"><ele>133.0</ele><time>2026-04-06T14:40:56.151Z</time></trkpt><trkpt lat="43.6270169" lon="11.1830767"><ele>133.0</ele><time>2026-04-06T14:40:57.159Z</time></trkpt><trkpt lat="43.6267468" lon="11.183098"><ele>134.0</ele><time>2026-04-06T14:40:58.143Z</time></trkpt><trkpt lat="43.626472" lon="11.1831332"><ele>135.0</ele><time>2026-04-06T14:40:59.15Z</time></trkpt><trkpt lat="43.6262012" lon="11.1831862"><ele>137.5</ele><time>2026-04-06T14:41:00.144Z</time></trkpt><trkpt lat="43.625929" lon="11.1832464"><ele>140.0</ele><time>2026-04-06T14:41:01.141Z</time></trkpt><trkpt lat="43.6256519" lon="11.183316"><ele>140.0</ele><time>2026-04-06T14:41:02.144Z</time></trkpt><trkpt lat="43.625374" lon="11.1833899"><ele>140.0</ele><time>2026-04-06T14:41:03.151Z</time></trkpt><trkpt lat="43.6250949" lon="11.1834826"><ele>139.0</ele><time>2026-04-06T14:41:04.143Z</time></trkpt><trkpt lat="43.624819" lon="11.1835926"><ele>138.0</ele><time>2026-04-06T14:41:05.147Z</time></trkpt><trkpt lat="43.6245472" lon="11.1837069"><ele>137.0</ele><time>2026-04-06T14:41:06.152Z</time></trkpt><trkpt lat="43.6242873" lon="11.183838"><ele>136.0</ele><time>2026-04-06T14:41:07.14Z</time></trkpt><trkpt lat="43.6240297" lon="11.1839783"><ele>136.5</ele><time>2026-04-06T14:41:08.158Z</time></trkpt><trkpt lat="43.6237709" lon="11.1841307"><ele>137.0</ele><time>2026-04-06T14:41:09.162Z</time></trkpt><trkpt lat="43.6235164" lon="11.184284"><ele>137.0</ele><time>2026-04-06T14:41:10.155Z</time></trkpt><trkpt lat="43.6232615" lon="11.1844422"><ele>137.0</ele><time>2026-04-06T14:41:11.156Z</time></trkpt><trkpt lat="43.6230075" lon="11.1845913"><ele>136.0</ele><time>2026-04-06T14:41:12.157Z</time></trkpt><trkpt lat="43.6227535" lon="11.1847445"><ele>135.0</ele><time>2026-04-06T14:41:13.155Z</time></trkpt><trkpt lat="43.622497" lon="11.1848994"><ele>135.0</ele><time>2026-04-06T14:41:14.158Z</time></trkpt><trkpt lat="43.6222418" lon="11.1850532"><ele>135.0</ele><time>2026-04-06T14:41:15.159Z</time></trkpt><trkpt lat="43.6219867" lon="11.1852039"><ele>135.0</ele><time>2026-04-06T14:41:16.169Z</time></trkpt><trkpt lat="43.6217306" lon="11.1853593"><ele>135.0</ele><time>2026-04-06T14:41:17.159Z</time></trkpt><trkpt lat="43.621473" lon="11.1855173"><ele>135.0</ele><time>2026-04-06T14:41:18.152Z</time></trkpt><trkpt lat="43.6212105" lon="11.1856737"><ele>135.0</ele><time>2026-04-06T14:41:19.156Z</time></trkpt><trkpt lat="43.620948" lon="11.1858292"><ele>135.5</ele><time>2026-04-06T14:41:20.153Z</time></trkpt><trkpt lat="43.6206891" lon="11.1859823"><ele>136.0</ele><time>2026-04-06T14:41:21.166Z</time></trkpt><trkpt lat="43.6204286" lon="11.186127"><ele>135.5</ele><time>2026-04-06T14:41:22.143Z</time></trkpt><trkpt lat="43.6201677" lon="11.1862742"><ele>135.0</ele><time>2026-04-06T14:41:23.162Z</time></trkpt><trkpt lat="43.619904" lon="11.1864168"><ele>136.0</ele><time>2026-04-06T14:41:24.146Z</time></trkpt><trkpt lat="43.6196381" lon="11.1865637"><ele>137.0</ele><time>2026-04-06T14:41:25.151Z</time></trkpt><trkpt lat="43.6193732" lon="11.1867094"><ele>137.0</ele><time>2026-04-06T14:41:26.14Z</time></trkpt><trkpt lat="43.6191108" lon="11.1868603"><ele>137.0</ele><time>2026-04-06T14:41:27.149Z</time></trkpt><trkpt lat="43.6188454" lon="11.1870109"><ele>137.5</ele><time>2026-04-06T14:41:28.165Z</time></trkpt><trkpt lat="43.6185813" lon="11.1871646"><ele>138.0</ele><time>2026-04-06T14:41:29.156Z</time></trkpt><trkpt lat="43.6183184" lon="11.1873165"><ele>139.0</ele><time>2026-04-06T14:41:30.158Z</time></trkpt><trkpt lat="43.618055" lon="11.1874673"><ele>140.0</ele><time>2026-04-06T14:41:31.154Z</time></trkpt><trkpt lat="43.6177846" lon="11.1876211"><ele>140.5</ele><time>2026-04-06T14:41:32.157Z</time></trkpt><trkpt lat="43.6175175" lon="11.1877748"><ele>141.0</ele><time>2026-04-06T14:41:33.147Z</time></trkpt><trkpt lat="43.6172495" lon="11.1879304"><ele>141.0</ele><time>2026-04-06T14:41:34.132Z</time></trkpt><trkpt lat="43.6169892" lon="11.1880824"><ele>141.0</ele><time>2026-04-06T14:41:35.149Z</time></trkpt><trkpt lat="43.6167347" lon="11.1882321"><ele>142.5</ele><time>2026-04-06T14:41:36.162Z</time></trkpt><trkpt lat="43.6164937" lon="11.1883756"><ele>144.0</ele><time>2026-04-06T14:41:37.151Z</time></trkpt><trkpt lat="43.6162681" lon="11.1885213"><ele>143.0</ele><time>2026-04-06T14:41:38.149Z</time></trkpt><trkpt lat="43.6160432" lon="11.1886632"><ele>142.0</ele><time>2026-04-06T14:41:39.153Z</time></trkpt><trkpt lat="43.6158211" lon="11.1887932"><ele>142.0</ele><time>2026-04-06T14:41:40.156Z</time></trkpt><trkpt lat="43.6156004" lon="11.1889237"><ele>142.0</ele><time>2026-04-06T14:41:41.152Z</time></trkpt><trkpt lat="43.6153737" lon="11.1890564"><ele>141.5</ele><time>2026-04-06T14:41:42.152Z</time></trkpt><trkpt lat="43.6151465" lon="11.1891869"><ele>141.0</ele><time>2026-04-06T14:41:43.156Z</time></trkpt><trkpt lat="43.6149124" lon="11.189323"><ele>141.0</ele><time>2026-04-06T14:41:44.151Z</time></trkpt><trkpt lat="43.6146761" lon="11.1894603"><ele>141.0</ele><time>2026-04-06T14:41:45.154Z</time></trkpt><trkpt lat="43.6144375" lon="11.1896025"><ele>141.0</ele><time>2026-04-06T14:41:46.154Z</time></trkpt><trkpt lat="43.6142014" lon="11.1897536"><ele>141.0</ele><time>2026-04-06T14:41:47.154Z</time></trkpt><trkpt lat="43.6139583" lon="11.1898887"><ele>142.5</ele><time>2026-04-06T14:41:48.155Z</time></trkpt><trkpt lat="43.6137155" lon="11.190022"><ele>144.0</ele><time>2026-04-06T14:41:49.151Z</time></trkpt><trkpt lat="43.6134624" lon="11.1901473"><ele>144.0</ele><time>2026-04-06T14:41:50.155Z</time></trkpt><trkpt lat="43.613204" lon="11.1902616"><ele>144.0</ele><time>2026-04-06T14:41:51.161Z</time></trkpt><trkpt lat="43.612944" lon="11.1903539"><ele>143.5</ele><time>2026-04-06T14:41:52.153Z</time></trkpt><trkpt lat="43.6126779" lon="11.190437"><ele>143.0</ele><time>2026-04-06T14:41:53.164Z</time></trkpt><trkpt lat="43.6124105" lon="11.1905217"><ele>143.0</ele><time>2026-04-06T14:41:54.163Z</time></trkpt><trkpt lat="43.6121369" lon="11.1905943"><ele>143.0</ele><time>2026-04-06T14:41:55.163Z</time></trkpt><trkpt lat="43.6118624" lon="11.1906575"><ele>143.5</ele><time>2026-04-06T14:41:56.158Z</time></trkpt><trkpt lat="43.6115885" lon="11.1907052"><ele>144.0</ele><time>2026-04-06T14:41:57.148Z</time></trkpt><trkpt lat="43.6113126" lon="11.1907421"><ele>143.5</ele><time>2026-04-06T14:41:58.147Z</time></trkpt><trkpt lat="43.6110388" lon="11.1907682"><ele>143.0</ele><time>2026-04-06T14:41:59.159Z</time></trkpt><trkpt lat="43.6107664" lon="11.1908036"><ele>143.0</ele><time>2026-04-06T14:42:00.166Z</time></trkpt><trkpt lat="43.610496" lon="11.1908297"><ele>143.0</ele><time>2026-04-06T14:42:01.154Z</time></trkpt><trkpt lat="43.6102242" lon="11.1908544"><ele>143.5</ele><time>2026-04-06T14:42:02.15Z</time></trkpt><trkpt lat="43.6099508" lon="11.1908813"><ele>144.0</ele><time>2026-04-06T14:42:03.151Z</time></trkpt><trkpt lat="43.6096801" lon="11.1909137"><ele>145.5</ele><time>2026-04-06T14:42:04.138Z</time></trkpt><trkpt lat="43.6094076" lon="11.1909506"><ele>147.0</ele><time>2026-04-06T14:42:05.149Z</time></trkpt><trkpt lat="43.6091339" lon="11.190984"><ele>147.0</ele><time>2026-04-06T14:42:06.145Z</time></trkpt><trkpt lat="43.6088632" lon="11.1910137"><ele>147.0</ele><time>2026-04-06T14:42:07.145Z</time></trkpt><trkpt lat="43.6085882" lon="11.1910409"><ele>147.0</ele><time>2026-04-06T14:42:08.158Z</time></trkpt><trkpt lat="43.6083084" lon="11.1910737"><ele>147.0</ele><time>2026-04-06T14:42:09.155Z</time></trkpt><trkpt lat="43.608031" lon="11.1910989"><ele>146.0</ele><time>2026-04-06T14:42:10.157Z</time></trkpt><trkpt lat="43.6077526" lon="11.1911292"><ele>145.0</ele><time>2026-04-06T14:42:11.14Z</time></trkpt><trkpt lat="43.6074739" lon="11.1911599"><ele>145.0</ele><time>2026-04-06T14:42:12.136Z</time></trkpt><trkpt lat="43.6071964" lon="11.1911945"><ele>145.0</ele><time>2026-04-06T14:42:13.158Z</time></trkpt><trkpt lat="43.6069219" lon="11.1912238"><ele>145.5</ele><time>2026-04-06T14:42:14.142Z</time></trkpt><trkpt lat="43.6066435" lon="11.1912561"><ele>146.0</ele><time>2026-04-06T14:42:15.161Z</time></trkpt><trkpt lat="43.6063667" lon="11.1912883"><ele>146.5</ele><time>2026-04-06T14:42:16.145Z</time></trkpt><trkpt lat="43.6060857" lon="11.1913249"><ele>147.0</ele><time>2026-04-06T14:42:17.156Z</time></trkpt><trkpt lat="43.605804" lon="11.1913562"><ele>147.0</ele><time>2026-04-06T14:42:18.162Z</time></trkpt><trkpt lat="43.6055179" lon="11.1913935"><ele>147.0</ele><time>2026-04-06T14:42:19.147Z</time></trkpt><trkpt lat="43.6052286" lon="11.1914315"><ele>149.0</ele><time>2026-04-06T14:42:20.148Z</time></trkpt><trkpt lat="43.604939" lon="11.1914755"><ele>151.0</ele><time>2026-04-06T14:42:21.159Z</time></trkpt><trkpt lat="43.6046512" lon="11.1915343"><ele>151.0</ele><time>2026-04-06T14:42:22.164Z</time></trkpt><trkpt lat="43.6043659" lon="11.1916073"><ele>151.0</ele><time>2026-04-06T14:42:23.161Z</time></trkpt><trkpt lat="43.6040812" lon="11.1916953"><ele>151.0</ele><time>2026-04-06T14:42:24.156Z</time></trkpt><trkpt lat="43.6038013" lon="11.1917944"><ele>151.0</ele><time>2026-04-06T14:42:25.149Z</time></trkpt><trkpt lat="43.6035193" lon="11.1919041"><ele>151.0</ele><time>2026-04-06T14:42:26.149Z</time></trkpt><trkpt lat="43.603242" lon="11.1920212"><ele>151.0</ele><time>2026-04-06T14:42:27.148Z</time></trkpt><trkpt lat="43.6029684" lon="11.1921369"><ele>150.5</ele><time>2026-04-06T14:42:28.149Z</time></trkpt><trkpt lat="43.6026938" lon="11.1922554"><ele>150.0</ele><time>2026-04-06T14:42:29.148Z</time></trkpt><trkpt lat="43.602415" lon="11.1923657"><ele>149.5</ele><time>2026-04-06T14:42:30.165Z</time></trkpt><trkpt lat="43.6021375" lon="11.1924756"><ele>149.0</ele><time>2026-04-06T14:42:31.156Z</time></trkpt><trkpt lat="43.6018567" lon="11.1925924"><ele>150.0</ele><time>2026-04-06T14:42:32.15Z</time></trkpt><trkpt lat="43.6015694" lon="11.1927111"><ele>151.0</ele><time>2026-04-06T14:42:33.144Z</time></trkpt><trkpt lat="43.6012823" lon="11.1928273"><ele>151.5</ele><time>2026-04-06T14:42:34.148Z</time></trkpt><trkpt lat="43.6009963" lon="11.1929426"><ele>152.0</ele><time>2026-04-06T14:42:35.147Z</time></trkpt><trkpt lat="43.6007061" lon="11.1930615"><ele>152.0</ele><time>2026-04-06T14:42:36.148Z</time></trkpt><trkpt lat="43.6004099" lon="11.1931856"><ele>152.0</ele><time>2026-04-06T14:42:37.142Z</time></trkpt><trkpt lat="43.6000991" lon="11.1933131"><ele>152.0</ele><time>2026-04-06T14:42:38.15Z</time></trkpt><trkpt lat="43.5997763" lon="11.1934451"><ele>152.0</ele><time>2026-04-06T14:42:39.153Z</time></trkpt><trkpt lat="43.5994485" lon="11.1935792"><ele>151.5</ele><time>2026-04-06T14:42:40.134Z</time></trkpt><trkpt lat="43.5991165" lon="11.1937193"><ele>151.0</ele><time>2026-04-06T14:42:41.153Z</time></trkpt><trkpt lat="43.598817" lon="11.1938525"><ele>151.5</ele><time>2026-04-06T14:42:42.157Z</time></trkpt><trkpt lat="43.5985349" lon="11.1939935"><ele>152.0</ele><time>2026-04-06T14:42:43.139Z</time></trkpt><trkpt lat="43.5982691" lon="11.1941408"><ele>152.5</ele><time>2026-04-06T14:42:44.149Z</time></trkpt><trkpt lat="43.5980164" lon="11.1942882"><ele>153.0</ele><time>2026-04-06T14:42:45.139Z</time></trkpt><trkpt lat="43.5977619" lon="11.1944638"><ele>155.5</ele><time>2026-04-06T14:42:46.155Z</time></trkpt><trkpt lat="43.5975115" lon="11.1946451"><ele>158.0</ele><time>2026-04-06T14:42:47.143Z</time></trkpt><trkpt lat="43.5972666" lon="11.1948355"><ele>156.5</ele><time>2026-04-06T14:42:48.14Z</time></trkpt><trkpt lat="43.5970247" lon="11.1950288"><ele>155.0</ele><time>2026-04-06T14:42:49.136Z</time></trkpt><trkpt lat="43.5967882" lon="11.1952381"><ele>155.5</ele><time>2026-04-06T14:42:50.138Z</time></trkpt><trkpt lat="43.596553" lon="11.1954548"><ele>156.0</ele><time>2026-04-06T14:42:51.15Z</time></trkpt><trkpt lat="43.596322" lon="11.1956737"><ele>158.5</ele><time>2026-04-06T14:42:52.147Z</time></trkpt><trkpt lat="43.5960909" lon="11.195893"><ele>161.0</ele><time>2026-04-06T14:42:53.145Z</time></trkpt><trkpt lat="43.5958588" lon="11.1961065"><ele>161.0</ele><time>2026-04-06T14:42:54.147Z</time></trkpt><trkpt lat="43.5956263" lon="11.1963243"><ele>161.0</ele><time>2026-04-06T14:42:55.15Z</time></trkpt><trkpt lat="43.5953934" lon="11.1965331"><ele>160.5</ele><time>2026-04-06T14:42:56.154Z</time></trkpt><trkpt lat="43.5951658" lon="11.1967426"><ele>160.0</ele><time>2026-04-06T14:42:57.137Z</time></trkpt><trkpt lat="43.5949358" lon="11.1969564"><ele>160.0</ele><time>2026-04-06T14:42:58.14Z</time></trkpt><trkpt lat="43.5947044" lon="11.1971658"><ele>160.0</ele><time>2026-04-06T14:42:59.149Z</time></trkpt><trkpt lat="43.5944755" lon="11.1973744"><ele>161.0</ele><time>2026-04-06T14:43:00.148Z</time></trkpt><trkpt lat="43.5942523" lon="11.1975819"><ele>162.0</ele><time>2026-04-06T14:43:01.15Z</time></trkpt><trkpt lat="43.5940397" lon="11.1977803"><ele>162.0</ele><time>2026-04-06T14:43:02.154Z</time></trkpt><trkpt lat="43.5938266" lon="11.1979719"><ele>162.0</ele><time>2026-04-06T14:43:03.149Z</time></trkpt><trkpt lat="43.5936128" lon="11.1981585"><ele>162.5</ele><time>2026-04-06T14:43:04.133Z</time></trkpt><trkpt lat="43.5933934" lon="11.1983349"><ele>163.0</ele><time>2026-04-06T14:43:05.148Z</time></trkpt><trkpt lat="43.5931767" lon="11.198501"><ele>163.0</ele><time>2026-04-06T14:43:06.149Z</time></trkpt><trkpt lat="43.5929532" lon="11.1986556"><ele>163.0</ele><time>2026-04-06T14:43:07.149Z</time></trkpt><trkpt lat="43.5927284" lon="11.1988013"><ele>162.0</ele><time>2026-04-06T14:43:08.141Z</time></trkpt><trkpt lat="43.5925003" lon="11.1989496"><ele>161.0</ele><time>2026-04-06T14:43:09.153Z</time></trkpt><trkpt lat="43.5922807" lon="11.1990825"><ele>161.0</ele><time>2026-04-06T14:43:10.157Z</time></trkpt><trkpt lat="43.592077" lon="11.1991997"><ele>161.0</ele><time>2026-04-06T14:43:11.155Z</time></trkpt><trkpt lat="43.5918764" lon="11.1993062"><ele>161.0</ele><time>2026-04-06T14:43:12.154Z</time></trkpt><trkpt lat="43.5916776" lon="11.1994066"><ele>161.0</ele><time>2026-04-06T14:43:13.142Z</time></trkpt><trkpt lat="43.5914706" lon="11.1995074"><ele>161.0</ele><time>2026-04-06T14:43:14.16Z</time></trkpt><trkpt lat="43.5912603" lon="11.1996071"><ele>161.0</ele><time>2026-04-06T14:43:15.149Z</time></trkpt><trkpt lat="43.5910421" lon="11.199716"><ele>161.5</ele><time>2026-04-06T14:43:16.154Z</time></trkpt><trkpt lat="43.590819" lon="11.1998273"><ele>162.0</ele><time>2026-04-06T14:43:17.152Z</time></trkpt><trkpt lat="43.5905822" lon="11.1999392"><ele>161.5</ele><time>2026-04-06T14:43:18.156Z</time></trkpt><trkpt lat="43.5903292" lon="11.2000554"><ele>161.0</ele><time>2026-04-06T14:43:19.15Z</time></trkpt><trkpt lat="43.5900591" lon="11.2001768"><ele>161.0</ele><time>2026-04-06T14:43:20.155Z</time></trkpt><trkpt lat="43.589778" lon="11.2003153"><ele>161.0</ele><time>2026-04-06T14:43:21.155Z</time></trkpt><trkpt lat="43.5894868" lon="11.2004581"><ele>161.5</ele><time>2026-04-06T14:43:22.161Z</time></trkpt><trkpt lat="43.5891993" lon="11.2006032"><ele>162.0</ele><time>2026-04-06T14:43:23.161Z</time></trkpt><trkpt lat="43.5889191" lon="11.2007406"><ele>163.5</ele><time>2026-04-06T14:43:24.156Z</time></trkpt><trkpt lat="43.5886441" lon="11.2008775"><ele>165.0</ele><time>2026-04-06T14:43:25.146Z</time></trkpt><trkpt lat="43.5883673" lon="11.2010118"><ele>165.0</ele><time>2026-04-06T14:43:26.156Z</time></trkpt><trkpt lat="43.5880937" lon="11.2011471"><ele>165.0</ele><time>2026-04-06T14:43:27.169Z</time></trkpt><trkpt lat="43.5878212" lon="11.2012671"><ele>167.0</ele><time>2026-04-06T14:43:28.16Z</time></trkpt><trkpt lat="43.5875408" lon="11.2013702"><ele>169.0</ele><time>2026-04-06T14:43:29.155Z</time></trkpt><trkpt lat="43.5872651" lon="11.2014637"><ele>169.5</ele><time>2026-04-06T14:43:30.153Z</time></trkpt><trkpt lat="43.5869864" lon="11.2015496"><ele>170.0</ele><time>2026-04-06T14:43:31.147Z</time></trkpt><trkpt lat="43.5867086" lon="11.2016278"><ele>170.0</ele><time>2026-04-06T14:43:32.143Z</time></trkpt><trkpt lat="43.5864233" lon="11.2017085"><ele>170.0</ele><time>2026-04-06T14:43:33.152Z</time></trkpt><trkpt lat="43.5861208" lon="11.2017963"><ele>172.5</ele><time>2026-04-06T14:43:34.162Z</time></trkpt><trkpt lat="43.5858067" lon="11.2018913"><ele>175.0</ele><time>2026-04-06T14:43:35.147Z</time></trkpt><trkpt lat="43.5854782" lon="11.2019922"><ele>175.0</ele><time>2026-04-06T14:43:36.134Z</time></trkpt><trkpt lat="43.58514" lon="11.2020956"><ele>175.0</ele><time>2026-04-06T14:43:37.151Z</time></trkpt><trkpt lat="43.584797" lon="11.2022003"><ele>174.5</ele><time>2026-04-06T14:43:38.156Z</time></trkpt><trkpt lat="43.5844477" lon="11.2023089"><ele>174.0</ele><time>2026-04-06T14:43:39.146Z</time></trkpt><trkpt lat="43.5840901" lon="11.2024263"><ele>174.0</ele><time>2026-04-06T14:43:40.155Z</time></trkpt><trkpt lat="43.5837279" lon="11.2025407"><ele>174.0</ele><time>2026-04-06T14:43:41.156Z</time></trkpt><trkpt lat="43.5833564" lon="11.202653"><ele>175.0</ele><time>2026-04-06T14:43:42.147Z</time></trkpt><trkpt lat="43.5829856" lon="11.2027705"><ele>176.0</ele><time>2026-04-06T14:43:43.157Z</time></trkpt><trkpt lat="43.5826563" lon="11.2028702"><ele>179.0</ele><time>2026-04-06T14:43:44.157Z</time></trkpt><trkpt lat="43.582353" lon="11.2029598"><ele>182.0</ele><time>2026-04-06T14:43:45.155Z</time></trkpt><trkpt lat="43.5820706" lon="11.2030497"><ele>183.0</ele><time>2026-04-06T14:43:46.155Z</time></trkpt><trkpt lat="43.5818057" lon="11.2031301"><ele>184.0</ele><time>2026-04-06T14:43:47.147Z</time></trkpt><trkpt lat="43.5815629" lon="11.203191"><ele>184.5</ele><time>2026-04-06T14:43:48.143Z</time></trkpt><trkpt lat="43.5813315" lon="11.2032526"><ele>185.0</ele><time>2026-04-06T14:43:49.147Z</time></trkpt><trkpt lat="43.5811124" lon="11.2033043"><ele>185.0</ele><time>2026-04-06T14:43:50.153Z</time></trkpt><trkpt lat="43.5809127" lon="11.2033612"><ele>185.0</ele><time>2026-04-06T14:43:51.157Z</time></trkpt><trkpt lat="43.58072" lon="11.2034164"><ele>185.0</ele><time>2026-04-06T14:43:52.162Z</time></trkpt><trkpt lat="43.5805345" lon="11.2034678"><ele>185.0</ele><time>2026-04-06T14:43:53.156Z</time></trkpt><trkpt lat="43.5803504" lon="11.2035167"><ele>185.0</ele><time>2026-04-06T14:43:54.149Z</time></trkpt><trkpt lat="43.5801682" lon="11.2035653"><ele>185.0</ele><time>2026-04-06T14:43:55.143Z</time></trkpt><trkpt lat="43.5799992" lon="11.2036152"><ele>188.0</ele><time>2026-04-06T14:43:56.148Z</time></trkpt><trkpt lat="43.5798265" lon="11.2036616"><ele>191.0</ele><time>2026-04-06T14:43:57.151Z</time></trkpt><trkpt lat="43.5796353" lon="11.2037079"><ele>194.0</ele><time>2026-04-06T14:43:58.137Z</time></trkpt><trkpt lat="43.5794313" lon="11.2037679"><ele>197.66666666666669</ele><time>2026-04-06T14:43:59.157Z</time></trkpt><trkpt lat="43.579231" lon="11.2038278"><ele>201.33333333333331</ele><time>2026-04-06T14:44:00.154Z</time></trkpt><trkpt lat="43.5790414" lon="11.2038842"><ele>205.0</ele><time>2026-04-06T14:44:01.15Z</time></trkpt><trkpt lat="43.5788438" lon="11.2039452"><ele>200.5</ele><time>2026-04-06T14:44:02.15Z</time></trkpt><trkpt lat="43.5786262" lon="11.204008"><ele>196.0</ele><time>2026-04-06T14:44:03.153Z</time></trkpt><trkpt lat="43.5783938" lon="11.2040846"><ele>196.0</ele><time>2026-04-06T14:44:04.145Z</time></trkpt><trkpt lat="43.5781722" lon="11.204158"><ele>196.0</ele><time>2026-04-06T14:44:05.136Z</time></trkpt><trkpt lat="43.5779557" lon="11.2042321"><ele>198.0</ele><time>2026-04-06T14:44:06.145Z</time></trkpt><trkpt lat="43.5777464" lon="11.2043097"><ele>200.0</ele><time>2026-04-06T14:44:07.145Z</time></trkpt><trkpt lat="43.5775368" lon="11.204389"><ele>202.0</ele><time>2026-04-06T14:44:08.161Z</time></trkpt><trkpt lat="43.5773293" lon="11.2044672"><ele>202.0</ele><time>2026-04-06T14:44:09.148Z</time></trkpt><trkpt lat="43.5771239" lon="11.2045442"><ele>202.0</ele><time>2026-04-06T14:44:10.142Z</time></trkpt><trkpt lat="43.5769241" lon="11.2046241"><ele>202.0</ele><time>2026-04-06T14:44:11.153Z</time></trkpt><trkpt lat="43.5767362" lon="11.2047055"><ele>200.66666666666666</ele><time>2026-04-06T14:44:12.131Z</time></trkpt><trkpt lat="43.576564" lon="11.2047825"><ele>199.33333333333331</ele><time>2026-04-06T14:44:13.154Z</time></trkpt><trkpt lat="43.5764015" lon="11.2048563"><ele>198.0</ele><time>2026-04-06T14:44:14.141Z</time></trkpt><trkpt lat="43.5762523" lon="11.2049244"><ele>200.75</ele><time>2026-04-06T14:44:15.135Z</time></trkpt><trkpt lat="43.5761143" lon="11.2049902"><ele>203.5</ele><time>2026-04-06T14:44:16.149Z</time></trkpt><trkpt lat="43.5759966" lon="11.2050436"><ele>206.25</ele><time>2026-04-06T14:44:17.154Z</time></trkpt><trkpt lat="43.5758908" lon="11.2050909"><ele>209.0</ele><time>2026-04-06T14:44:18.163Z</time></trkpt><trkpt lat="43.5758137" lon="11.20513"><ele>209.00000000000003</ele><time>2026-04-06T14:44:19.146Z</time></trkpt><trkpt lat="43.5757497" lon="11.2051483"><ele>209.0</ele><time>2026-04-06T14:44:20.159Z</time></trkpt><trkpt lat="43.575664" lon="11.2051685"><ele>209.0</ele><time>2026-04-06T14:44:22.144Z</time></trkpt><trkpt lat="43.5755867" lon="11.205198"><ele>209.0</ele><time>2026-04-06T14:44:56.148Z</time></trkpt><trkpt lat="43.5755241" lon="11.2052277"><ele>209.00000000000003</ele><time>2026-04-06T14:44:58.153Z</time></trkpt><trkpt lat="43.5754552" lon="11.2052779"><ele>209.0</ele><time>2026-04-06T14:45:02.175Z</time></trkpt><trkpt lat="43.5753686" lon="11.2053511"><ele>211.25</ele><time>2026-04-06T14:45:05.153Z</time></trkpt><trkpt lat="43.575282" lon="11.2054095"><ele>213.5</ele><time>2026-04-06T14:45:06.153Z</time></trkpt><trkpt lat="43.5751814" lon="11.2054814"><ele>215.75</ele><time>2026-04-06T14:45:07.144Z</time></trkpt><trkpt lat="43.575062" lon="11.2055614"><ele>218.0</ele><time>2026-04-06T14:45:08.135Z</time></trkpt><trkpt lat="43.5749183" lon="11.2056431"><ele>215.33333333333334</ele><time>2026-04-06T14:45:09.148Z</time></trkpt><trkpt lat="43.5747402" lon="11.2057459"><ele>212.66666666666669</ele><time>2026-04-06T14:45:10.155Z</time></trkpt><trkpt lat="43.5745346" lon="11.2058535"><ele>210.0</ele><time>2026-04-06T14:45:11.155Z</time></trkpt><trkpt lat="43.5743161" lon="11.2059607"><ele>220.0</ele><time>2026-04-06T14:45:12.138Z</time></trkpt><trkpt lat="43.5740661" lon="11.2060867"><ele>230.0</ele><time>2026-04-06T14:45:13.139Z</time></trkpt><trkpt lat="43.5737887" lon="11.2062307"><ele>234.0</ele><time>2026-04-06T14:45:14.129Z</time></trkpt><trkpt lat="43.5735101" lon="11.2063857"><ele>238.0</ele><time>2026-04-06T14:45:15.148Z</time></trkpt><trkpt lat="43.5732205" lon="11.2065555"><ele>228.5</ele><time>2026-04-06T14:45:16.138Z</time></trkpt><trkpt lat="43.5729378" lon="11.206729"><ele>219.0</ele><time>2026-04-06T14:45:17.146Z</time></trkpt><trkpt lat="43.5726766" lon="11.2068864"><ele>217.0</ele><time>2026-04-06T14:45:18.146Z</time></trkpt><trkpt lat="43.5724158" lon="11.2070333"><ele>215.0</ele><time>2026-04-06T14:45:19.147Z</time></trkpt><trkpt lat="43.5721717" lon="11.2071875"><ele>217.0</ele><time>2026-04-06T14:45:20.147Z</time></trkpt><trkpt lat="43.5719332" lon="11.2073276"><ele>219.0</ele><time>2026-04-06T14:45:21.148Z</time></trkpt><trkpt lat="43.5716924" lon="11.2074698"><ele>219.0</ele><time>2026-04-06T14:45:22.15Z</time></trkpt><trkpt lat="43.5714525" lon="11.2076056"><ele>219.0</ele><time>2026-04-06T14:45:23.148Z</time></trkpt><trkpt lat="43.5712154" lon="11.2077493"><ele>228.5</ele><time>2026-04-06T14:45:24.15Z</time></trkpt><trkpt lat="43.5709839" lon="11.2079071"><ele>238.0</ele><time>2026-04-06T14:45:25.147Z</time></trkpt><trkpt lat="43.5707649" lon="11.2080783"><ele>239.5</ele><time>2026-04-06T14:45:26.141Z</time></trkpt><trkpt lat="43.5705546" lon="11.2082615"><ele>241.0</ele><time>2026-04-06T14:45:27.147Z</time></trkpt><trkpt lat="43.5703562" lon="11.2084528"><ele>241.0</ele><time>2026-04-06T14:45:28.145Z</time></trkpt><trkpt lat="43.5701614" lon="11.2086602"><ele>241.0</ele><time>2026-04-06T14:45:29.153Z</time></trkpt><trkpt lat="43.5699801" lon="11.2088727"><ele>236.0</ele><time>2026-04-06T14:45:30.141Z</time></trkpt><trkpt lat="43.5697992" lon="11.2090809"><ele>231.0</ele><time>2026-04-06T14:45:31.148Z</time></trkpt><trkpt lat="43.5696174" lon="11.2092907"><ele>240.0</ele><time>2026-04-06T14:45:32.147Z</time></trkpt><trkpt lat="43.5694395" lon="11.2094922"><ele>249.0</ele><time>2026-04-06T14:45:33.142Z</time></trkpt><trkpt lat="43.5692611" lon="11.2096969"><ele>243.0</ele><time>2026-04-06T14:45:34.142Z</time></trkpt><trkpt lat="43.5690807" lon="11.2098982"><ele>237.0</ele><time>2026-04-06T14:45:35.135Z</time></trkpt><trkpt lat="43.5689018" lon="11.2101018"><ele>237.0</ele><time>2026-04-06T14:45:36.147Z</time></trkpt><trkpt lat="43.5687245" lon="11.2102985"><ele>237.0</ele><time>2026-04-06T14:45:37.148Z</time></trkpt><trkpt lat="43.5685528" lon="11.2104942"><ele>238.0</ele><time>2026-04-06T14:45:38.136Z</time></trkpt><trkpt lat="43.5683759" lon="11.2106932"><ele>239.0</ele><time>2026-04-06T14:45:39.155Z</time></trkpt><trkpt lat="43.568196" lon="11.2108879"><ele>239.0</ele><time>2026-04-06T14:45:40.152Z</time></trkpt><trkpt lat="43.5680254" lon="11.2110799"><ele>239.0</ele><time>2026-04-06T14:45:41.14Z</time></trkpt><trkpt lat="43.5678511" lon="11.2112733"><ele>239.0</ele><time>2026-04-06T14:45:42.148Z</time></trkpt><trkpt lat="43.5676828" lon="11.2114619"><ele>239.33333333333334</ele><time>2026-04-06T14:45:43.151Z</time></trkpt><trkpt lat="43.5675152" lon="11.2116525"><ele>239.66666666666669</ele><time>2026-04-06T14:45:44.141Z</time></trkpt><trkpt lat="43.5673421" lon="11.2118426"><ele>240.0</ele><time>2026-04-06T14:45:45.143Z</time></trkpt><trkpt lat="43.5671606" lon="11.2120385"><ele>247.5</ele><time>2026-04-06T14:45:46.143Z</time></trkpt><trkpt lat="43.5669714" lon="11.2122282"><ele>255.0</ele><time>2026-04-06T14:45:47.139Z</time></trkpt><trkpt lat="43.5667744" lon="11.2124012"><ele>258.5</ele><time>2026-04-06T14:45:48.144Z</time></trkpt><trkpt lat="43.5665586" lon="11.2125663"><ele>262.0</ele><time>2026-04-06T14:45:49.139Z</time></trkpt><trkpt lat="43.5663318" lon="11.2127126"><ele>268.5</ele><time>2026-04-06T14:45:50.137Z</time></trkpt><trkpt lat="43.5661056" lon="11.2128421"><ele>275.0</ele><time>2026-04-06T14:45:51.142Z</time></trkpt><trkpt lat="43.5658723" lon="11.2129487"><ele>275.0</ele><time>2026-04-06T14:45:52.134Z</time></trkpt><trkpt lat="43.5656384" lon="11.2130398"><ele>275.0</ele><time>2026-04-06T14:45:53.143Z</time></trkpt><trkpt lat="43.5654016" lon="11.2131157"><ele>272.0</ele><time>2026-04-06T14:45:54.149Z</time></trkpt><trkpt lat="43.5651663" lon="11.2131759"><ele>269.0</ele><time>2026-04-06T14:45:55.147Z</time></trkpt><trkpt lat="43.564926" lon="11.2132265"><ele>269.0</ele><time>2026-04-06T14:45:56.151Z</time></trkpt><trkpt lat="43.5646757" lon="11.213263"><ele>269.0</ele><time>2026-04-06T14:45:57.142Z</time></trkpt><trkpt lat="43.564412" lon="11.2132711"><ele>267.5</ele><time>2026-04-06T14:45:58.151Z</time></trkpt><trkpt lat="43.5641356" lon="11.2132549"><ele>266.0</ele><time>2026-04-06T14:45:59.15Z</time></trkpt><trkpt lat="43.5638558" lon="11.2132278"><ele>263.0</ele><time>2026-04-06T14:46:00.138Z</time></trkpt><trkpt lat="43.563572" lon="11.213198"><ele>260.0</ele><time>2026-04-06T14:46:01.136Z</time></trkpt><trkpt lat="43.5632946" lon="11.2131522"><ele>268.0</ele><time>2026-04-06T14:46:02.142Z</time></trkpt><trkpt lat="43.563021" lon="11.2131164"><ele>276.0</ele><time>2026-04-06T14:46:03.15Z</time></trkpt><trkpt lat="43.5627508" lon="11.2130835"><ele>276.0</ele><time>2026-04-06T14:46:04.135Z</time></trkpt><trkpt lat="43.5624859" lon="11.2130466"><ele>276.0</ele><time>2026-04-06T14:46:05.142Z</time></trkpt><trkpt lat="43.5622187" lon="11.2130123"><ele>276.0</ele><time>2026-04-06T14:46:06.142Z</time></trkpt><trkpt lat="43.561955" lon="11.2129828"><ele>276.0</ele><time>2026-04-06T14:46:07.152Z</time></trkpt><trkpt lat="43.5616965" lon="11.2129453"><ele>276.0</ele><time>2026-04-06T14:46:08.149Z</time></trkpt><trkpt lat="43.5614381" lon="11.2129056"><ele>276.0</ele><time>2026-04-06T14:46:09.163Z</time></trkpt><trkpt lat="43.56119" lon="11.2128662"><ele>277.0</ele><time>2026-04-06T14:46:10.131Z</time></trkpt><trkpt lat="43.560943" lon="11.2128325"><ele>278.0</ele><time>2026-04-06T14:46:11.155Z</time></trkpt><trkpt lat="43.5606905" lon="11.2127896"><ele>278.0</ele><time>2026-04-06T14:46:12.144Z</time></trkpt><trkpt lat="43.5604418" lon="11.2127541"><ele>278.0</ele><time>2026-04-06T14:46:13.147Z</time></trkpt><trkpt lat="43.5601884" lon="11.212725"><ele>282.0</ele><time>2026-04-06T14:46:14.146Z</time></trkpt><trkpt lat="43.5599379" lon="11.2126954"><ele>286.0</ele><time>2026-04-06T14:46:15.134Z</time></trkpt><trkpt lat="43.5596885" lon="11.2126603"><ele>287.0</ele><time>2026-04-06T14:46:16.144Z</time></trkpt><trkpt lat="43.5594423" lon="11.2126253"><ele>288.0</ele><time>2026-04-06T14:46:17.155Z</time></trkpt><trkpt lat="43.5591956" lon="11.2125883"><ele>288.0</ele><time>2026-04-06T14:46:18.149Z</time></trkpt><trkpt lat="43.5589497" lon="11.2125469"><ele>288.0</ele><time>2026-04-06T14:46:19.146Z</time></trkpt><trkpt lat="43.5587017" lon="11.2124933"><ele>288.0</ele><time>2026-04-06T14:46:20.153Z</time></trkpt><trkpt lat="43.5584512" lon="11.212414"><ele>288.0</ele><time>2026-04-06T14:46:21.145Z</time></trkpt><trkpt lat="43.5581891" lon="11.212314"><ele>287.5</ele><time>2026-04-06T14:46:22.165Z</time></trkpt><trkpt lat="43.5579439" lon="11.212186"><ele>287.0</ele><time>2026-04-06T14:46:23.153Z</time></trkpt><trkpt lat="43.5576973" lon="11.2120421"><ele>287.0</ele><time>2026-04-06T14:46:24.154Z</time></trkpt><trkpt lat="43.5574567" lon="11.211874"><ele>287.0</ele><time>2026-04-06T14:46:25.149Z</time></trkpt><trkpt lat="43.5572298" lon="11.2116835"><ele>287.5</ele><time>2026-04-06T14:46:26.15Z</time></trkpt><trkpt lat="43.5570092" lon="11.2114988"><ele>288.0</ele><time>2026-04-06T14:46:27.149Z</time></trkpt><trkpt lat="43.5567911" lon="11.2113132"><ele>293.0</ele><time>2026-04-06T14:46:28.15Z</time></trkpt><trkpt lat="43.5565707" lon="11.2111257"><ele>298.0</ele><time>2026-04-06T14:46:29.152Z</time></trkpt><trkpt lat="43.5563492" lon="11.2109492"><ele>300.5</ele><time>2026-04-06T14:46:30.142Z</time></trkpt><trkpt lat="43.5561175" lon="11.210783"><ele>303.0</ele><time>2026-04-06T14:46:31.144Z</time></trkpt><trkpt lat="43.5558762" lon="11.2106275"><ele>308.0</ele><time>2026-04-06T14:46:32.153Z</time></trkpt><trkpt lat="43.555632" lon="11.2104973"><ele>313.0</ele><time>2026-04-06T14:46:33.14Z</time></trkpt><trkpt lat="43.5553745" lon="11.2103854"><ele>312.5</ele><time>2026-04-06T14:46:34.146Z</time></trkpt><trkpt lat="43.55512" lon="11.210301"><ele>312.0</ele><time>2026-04-06T14:46:35.146Z</time></trkpt><trkpt lat="43.5548573" lon="11.2102351"><ele>312.0</ele><time>2026-04-06T14:46:36.147Z</time></trkpt><trkpt lat="43.5545957" lon="11.2101942"><ele>312.0</ele><time>2026-04-06T14:46:37.141Z</time></trkpt><trkpt lat="43.5543415" lon="11.2101708"><ele>315.0</ele><time>2026-04-06T14:46:38.152Z</time></trkpt><trkpt lat="43.5540784" lon="11.2101641"><ele>318.0</ele><time>2026-04-06T14:46:39.148Z</time></trkpt><trkpt lat="43.553818" lon="11.210166"><ele>316.5</ele><time>2026-04-06T14:46:40.141Z</time></trkpt><trkpt lat="43.553563" lon="11.2101719"><ele>315.0</ele><time>2026-04-06T14:46:41.139Z</time></trkpt><trkpt lat="43.5533037" lon="11.2101766"><ele>315.0</ele><time>2026-04-06T14:46:42.156Z</time></trkpt><trkpt lat="43.553042" lon="11.2101793"><ele>315.0</ele><time>2026-04-06T14:46:43.155Z</time></trkpt><trkpt lat="43.5527754" lon="11.2101827"><ele>314.5</ele><time>2026-04-06T14:46:44.149Z</time></trkpt><trkpt lat="43.552498" lon="11.2101828"><ele>314.0</ele><time>2026-04-06T14:46:45.149Z</time></trkpt><trkpt lat="43.5522203" lon="11.2101729"><ele>310.0</ele><time>2026-04-06T14:46:46.147Z</time></trkpt><trkpt lat="43.5519431" lon="11.2101845"><ele>306.0</ele><time>2026-04-06T14:46:47.142Z</time></trkpt><trkpt lat="43.5516748" lon="11.2101889"><ele>306.0</ele><time>2026-04-06T14:46:48.158Z</time></trkpt><trkpt lat="43.5514166" lon="11.2101957"><ele>306.0</ele><time>2026-04-06T14:46:49.146Z</time></trkpt><trkpt lat="43.5511577" lon="11.2102039"><ele>303.0</ele><time>2026-04-06T14:46:50.154Z</time></trkpt><trkpt lat="43.5509006" lon="11.2102117"><ele>300.0</ele><time>2026-04-06T14:46:51.163Z</time></trkpt><trkpt lat="43.5506399" lon="11.2102185"><ele>300.0</ele><time>2026-04-06T14:46:52.152Z</time></trkpt><trkpt lat="43.550381" lon="11.2102253"><ele>300.0</ele><time>2026-04-06T14:46:53.16Z</time></trkpt><trkpt lat="43.5501229" lon="11.2102308"><ele>305.0</ele><time>2026-04-06T14:46:54.158Z</time></trkpt><trkpt lat="43.5498646" lon="11.2102393"><ele>310.0</ele><time>2026-04-06T14:46:55.143Z</time></trkpt><trkpt lat="43.5496117" lon="11.2102428"><ele>310.5</ele><time>2026-04-06T14:46:56.153Z</time></trkpt><trkpt lat="43.5493629" lon="11.2102447"><ele>311.0</ele><time>2026-04-06T14:46:57.143Z</time></trkpt><trkpt lat="43.5491124" lon="11.2102551"><ele>311.0</ele><time>2026-04-06T14:46:58.15Z</time></trkpt><trkpt lat="43.5488597" lon="11.2102817"><ele>311.0</ele><time>2026-04-06T14:46:59.148Z</time></trkpt><trkpt lat="43.5486071" lon="11.2103175"><ele>307.0</ele><time>2026-04-06T14:47:00.135Z</time></trkpt><trkpt lat="43.5483524" lon="11.2103724"><ele>303.0</ele><time>2026-04-06T14:47:01.152Z</time></trkpt><trkpt lat="43.5481071" lon="11.2104528"><ele>300.5</ele><time>2026-04-06T14:47:02.155Z</time></trkpt><trkpt lat="43.5478645" lon="11.2105576"><ele>298.0</ele><time>2026-04-06T14:47:03.15Z</time></trkpt><trkpt lat="43.5476311" lon="11.2106856"><ele>303.0</ele><time>2026-04-06T14:47:04.158Z</time></trkpt><trkpt lat="43.5473965" lon="11.2108276"><ele>308.0</ele><time>2026-04-06T14:47:05.153Z</time></trkpt><trkpt lat="43.5471612" lon="11.2109851"><ele>301.0</ele><time>2026-04-06T14:47:06.148Z</time></trkpt><trkpt lat="43.5469292" lon="11.2111713"><ele>294.0</ele><time>2026-04-06T14:47:07.148Z</time></trkpt><trkpt lat="43.5466938" lon="11.2113931"><ele>294.5</ele><time>2026-04-06T14:47:08.162Z</time></trkpt><trkpt lat="43.5464601" lon="11.2116274"><ele>295.0</ele><time>2026-04-06T14:47:09.151Z</time></trkpt><trkpt lat="43.546235" lon="11.2118813"><ele>294.5</ele><time>2026-04-06T14:47:10.148Z</time></trkpt><trkpt lat="43.5460099" lon="11.2121354"><ele>294.0</ele><time>2026-04-06T14:47:11.157Z</time></trkpt><trkpt lat="43.5457856" lon="11.2123898"><ele>294.0</ele><time>2026-04-06T14:47:12.16Z</time></trkpt><trkpt lat="43.5455694" lon="11.2126417"><ele>294.0</ele><time>2026-04-06T14:47:13.157Z</time></trkpt><trkpt lat="43.54535" lon="11.2128989"><ele>295.0</ele><time>2026-04-06T14:47:14.149Z</time></trkpt><trkpt lat="43.5451317" lon="11.2131573"><ele>296.0</ele><time>2026-04-06T14:47:15.151Z</time></trkpt><trkpt lat="43.5449129" lon="11.2134132"><ele>296.0</ele><time>2026-04-06T14:47:16.15Z</time></trkpt><trkpt lat="43.5446965" lon="11.2136658"><ele>296.0</ele><time>2026-04-06T14:47:17.15Z</time></trkpt><trkpt lat="43.5444862" lon="11.2139283"><ele>296.0</ele><time>2026-04-06T14:47:18.162Z</time></trkpt><trkpt lat="43.5442827" lon="11.2141946"><ele>296.0</ele><time>2026-04-06T14:47:19.154Z</time></trkpt><trkpt lat="43.5440843" lon="11.2144689"><ele>296.0</ele><time>2026-04-06T14:47:20.148Z</time></trkpt><trkpt lat="43.5438914" lon="11.2147588"><ele>296.0</ele><time>2026-04-06T14:47:21.145Z</time></trkpt><trkpt lat="43.5436957" lon="11.2150527"><ele>292.5</ele><time>2026-04-06T14:47:22.16Z</time></trkpt><trkpt lat="43.5435048" lon="11.2153524"><ele>289.0</ele><time>2026-04-06T14:47:23.146Z</time></trkpt><trkpt lat="43.543322" lon="11.2156441"><ele>290.5</ele><time>2026-04-06T14:47:24.155Z</time></trkpt><trkpt lat="43.543142" lon="11.2159245"><ele>292.0</ele><time>2026-04-06T14:47:25.16Z</time></trkpt><trkpt lat="43.5429677" lon="11.2162071"><ele>293.5</ele><time>2026-04-06T14:47:26.149Z</time></trkpt><trkpt lat="43.542798" lon="11.2164892"><ele>295.0</ele><time>2026-04-06T14:47:27.152Z</time></trkpt><trkpt lat="43.5426185" lon="11.2167628"><ele>295.0</ele><time>2026-04-06T14:47:28.156Z</time></trkpt><trkpt lat="43.5424533" lon="11.2170369"><ele>295.0</ele><time>2026-04-06T14:47:29.147Z</time></trkpt><trkpt lat="43.5422893" lon="11.2173035"><ele>296.5</ele><time>2026-04-06T14:47:30.158Z</time></trkpt><trkpt lat="43.5421202" lon="11.2175684"><ele>298.0</ele><time>2026-04-06T14:47:31.152Z</time></trkpt><trkpt lat="43.5419485" lon="11.2178405"><ele>298.0</ele><time>2026-04-06T14:47:32.153Z</time></trkpt><trkpt lat="43.5417724" lon="11.2181121"><ele>298.0</ele><time>2026-04-06T14:47:33.157Z</time></trkpt><trkpt lat="43.5415944" lon="11.2183711"><ele>300.5</ele><time>2026-04-06T14:47:34.151Z</time></trkpt><trkpt lat="43.5414109" lon="11.2186228"><ele>303.0</ele><time>2026-04-06T14:47:35.153Z</time></trkpt><trkpt lat="43.5412171" lon="11.2188558"><ele>306.0</ele><time>2026-04-06T14:47:36.157Z</time></trkpt><trkpt lat="43.5410112" lon="11.2190651"><ele>309.0</ele><time>2026-04-06T14:47:37.141Z</time></trkpt><trkpt lat="43.5407961" lon="11.2192668"><ele>309.0</ele><time>2026-04-06T14:47:38.171Z</time></trkpt><trkpt lat="43.5405754" lon="11.2194485"><ele>309.0</ele><time>2026-04-06T14:47:39.158Z</time></trkpt><trkpt lat="43.5403539" lon="11.2196237"><ele>309.0</ele><time>2026-04-06T14:47:40.148Z</time></trkpt><trkpt lat="43.5401298" lon="11.2197905"><ele>309.0</ele><time>2026-04-06T14:47:41.15Z</time></trkpt><trkpt lat="43.5398967" lon="11.2199444"><ele>310.0</ele><time>2026-04-06T14:47:42.147Z</time></trkpt><trkpt lat="43.5396548" lon="11.2200747"><ele>311.0</ele><time>2026-04-06T14:47:43.14Z</time></trkpt><trkpt lat="43.5394069" lon="11.2201846"><ele>311.0</ele><time>2026-04-06T14:47:44.14Z</time></trkpt><trkpt lat="43.5391491" lon="11.2202798"><ele>311.0</ele><time>2026-04-06T14:47:45.142Z</time></trkpt><trkpt lat="43.5388912" lon="11.2203691"><ele>311.5</ele><time>2026-04-06T14:47:46.152Z</time></trkpt><trkpt lat="43.5386322" lon="11.2204304"><ele>312.0</ele><time>2026-04-06T14:47:47.138Z</time></trkpt><trkpt lat="43.5383669" lon="11.2204645"><ele>312.0</ele><time>2026-04-06T14:47:48.145Z</time></trkpt><trkpt lat="43.5381105" lon="11.2204858"><ele>312.0</ele><time>2026-04-06T14:47:49.152Z</time></trkpt><trkpt lat="43.5378548" lon="11.22049"><ele>315.0</ele><time>2026-04-06T14:47:50.156Z</time></trkpt><trkpt lat="43.5375961" lon="11.2204829"><ele>318.0</ele><time>2026-04-06T14:47:51.152Z</time></trkpt><trkpt lat="43.5373347" lon="11.2204605"><ele>318.0</ele><time>2026-04-06T14:47:52.165Z</time></trkpt><trkpt lat="43.5370756" lon="11.2204165"><ele>318.0</ele><time>2026-04-06T14:47:53.146Z</time></trkpt><trkpt lat="43.5368162" lon="11.2203559"><ele>320.0</ele><time>2026-04-06T14:47:54.147Z</time></trkpt><trkpt lat="43.5365612" lon="11.2202779"><ele>322.0</ele><time>2026-04-06T14:47:55.143Z</time></trkpt><trkpt lat="43.5363116" lon="11.2201813"><ele>320.0</ele><time>2026-04-06T14:47:56.145Z</time></trkpt><trkpt lat="43.5360714" lon="11.2200761"><ele>318.0</ele><time>2026-04-06T14:47:57.142Z</time></trkpt><trkpt lat="43.5358329" lon="11.2199549"><ele>318.0</ele><time>2026-04-06T14:47:58.153Z</time></trkpt><trkpt lat="43.5356042" lon="11.2198284"><ele>318.0</ele><time>2026-04-06T14:47:59.157Z</time></trkpt><trkpt lat="43.5353781" lon="11.2196827"><ele>316.5</ele><time>2026-04-06T14:48:00.159Z</time></trkpt><trkpt lat="43.5351644" lon="11.2195255"><ele>315.0</ele><time>2026-04-06T14:48:01.151Z</time></trkpt><trkpt lat="43.5349587" lon="11.219347"><ele>315.0</ele><time>2026-04-06T14:48:02.16Z</time></trkpt><trkpt lat="43.5347511" lon="11.2191587"><ele>315.0</ele><time>2026-04-06T14:48:03.151Z</time></trkpt><trkpt lat="43.5345519" lon="11.2189477"><ele>312.5</ele><time>2026-04-06T14:48:04.165Z</time></trkpt><trkpt lat="43.5343589" lon="11.2187321"><ele>310.0</ele><time>2026-04-06T14:48:05.145Z</time></trkpt><trkpt lat="43.5341763" lon="11.2185001"><ele>310.0</ele><time>2026-04-06T14:48:06.149Z</time></trkpt><trkpt lat="43.5339887" lon="11.2182594"><ele>310.0</ele><time>2026-04-06T14:48:07.156Z</time></trkpt><trkpt lat="43.5338089" lon="11.2180016"><ele>307.5</ele><time>2026-04-06T14:48:08.154Z</time></trkpt><trkpt lat="43.533635" lon="11.2177319"><ele>305.0</ele><time>2026-04-06T14:48:09.144Z</time></trkpt><trkpt lat="43.5334569" lon="11.217464"><ele>306.5</ele><time>2026-04-06T14:48:10.153Z</time></trkpt><trkpt lat="43.5332837" lon="11.217199"><ele>308.0</ele><time>2026-04-06T14:48:11.157Z</time></trkpt><trkpt lat="43.5331125" lon="11.2169383"><ele>308.0</ele><time>2026-04-06T14:48:12.164Z</time></trkpt><trkpt lat="43.5329513" lon="11.2166883"><ele>308.0</ele><time>2026-04-06T14:48:13.145Z</time></trkpt><trkpt lat="43.5327867" lon="11.2164477"><ele>303.0</ele><time>2026-04-06T14:48:14.158Z</time></trkpt><trkpt lat="43.5326265" lon="11.2162066"><ele>298.0</ele><time>2026-04-06T14:48:15.146Z</time></trkpt><trkpt lat="43.5324653" lon="11.2159618"><ele>298.0</ele><time>2026-04-06T14:48:16.158Z</time></trkpt><trkpt lat="43.5323104" lon="11.2157147"><ele>298.0</ele><time>2026-04-06T14:48:17.14Z</time></trkpt><trkpt lat="43.5321517" lon="11.2154789"><ele>291.66666666666663</ele><time>2026-04-06T14:48:18.159Z</time></trkpt><trkpt lat="43.5320084" lon="11.2152513"><ele>285.3333333333333</ele><time>2026-04-06T14:48:19.146Z</time></trkpt><trkpt lat="43.5318645" lon="11.2150177"><ele>279.0</ele><time>2026-04-06T14:48:20.176Z</time></trkpt><trkpt lat="43.5317268" lon="11.2147762"><ele>278.0</ele><time>2026-04-06T14:48:21.158Z</time></trkpt><trkpt lat="43.5315868" lon="11.2145315"><ele>277.0</ele><time>2026-04-06T14:48:22.163Z</time></trkpt><trkpt lat="43.5314563" lon="11.2142802"><ele>277.0</ele><time>2026-04-06T14:48:23.155Z</time></trkpt><trkpt lat="43.5313268" lon="11.2140104"><ele>277.0</ele><time>2026-04-06T14:48:24.145Z</time></trkpt><trkpt lat="43.5312122" lon="11.213731"><ele>284.5</ele><time>2026-04-06T14:48:25.16Z</time></trkpt><trkpt lat="43.531106" lon="11.2134395"><ele>292.0</ele><time>2026-04-06T14:48:26.152Z</time></trkpt><trkpt lat="43.5310152" lon="11.2131352"><ele>292.0</ele><time>2026-04-06T14:48:27.149Z</time></trkpt><trkpt lat="43.530932" lon="11.2128259"><ele>292.0</ele><time>2026-04-06T14:48:28.155Z</time></trkpt><trkpt lat="43.5308506" lon="11.2125115"><ele>290.0</ele><time>2026-04-06T14:48:29.152Z</time></trkpt><trkpt lat="43.5307714" lon="11.212192"><ele>288.0</ele><time>2026-04-06T14:48:30.164Z</time></trkpt><trkpt lat="43.5306797" lon="11.2118704"><ele>288.0</ele><time>2026-04-06T14:48:31.159Z</time></trkpt><trkpt lat="43.5305837" lon="11.2115479"><ele>288.0</ele><time>2026-04-06T14:48:32.155Z</time></trkpt><trkpt lat="43.530478" lon="11.2112301"><ele>289.0</ele><time>2026-04-06T14:48:33.165Z</time></trkpt><trkpt lat="43.530368" lon="11.210921"><ele>290.0</ele><time>2026-04-06T14:48:34.16Z</time></trkpt><trkpt lat="43.5302308" lon="11.2106263"><ele>290.0</ele><time>2026-04-06T14:48:35.171Z</time></trkpt><trkpt lat="43.5300741" lon="11.2103354"><ele>290.0</ele><time>2026-04-06T14:48:36.148Z</time></trkpt><trkpt lat="43.5298999" lon="11.2100524"><ele>289.5</ele><time>2026-04-06T14:48:37.15Z</time></trkpt><trkpt lat="43.5297134" lon="11.209779"><ele>289.0</ele><time>2026-04-06T14:48:38.155Z</time></trkpt><trkpt lat="43.5295155" lon="11.2095115"><ele>287.0</ele><time>2026-04-06T14:48:39.145Z</time></trkpt><trkpt lat="43.529325" lon="11.2092434"><ele>285.0</ele><time>2026-04-06T14:48:40.161Z</time></trkpt><trkpt lat="43.5291368" lon="11.2089788"><ele>285.0</ele><time>2026-04-06T14:48:41.15Z</time></trkpt><trkpt lat="43.5289526" lon="11.2087054"><ele>285.0</ele><time>2026-04-06T14:48:42.15Z</time></trkpt><trkpt lat="43.528777" lon="11.2084191"><ele>288.0</ele><time>2026-04-06T14:48:43.135Z</time></trkpt><trkpt lat="43.5286153" lon="11.2081223"><ele>291.0</ele><time>2026-04-06T14:48:44.132Z</time></trkpt><trkpt lat="43.5284675" lon="11.2078134"><ele>291.0</ele><time>2026-04-06T14:48:45.144Z</time></trkpt><trkpt lat="43.5283277" lon="11.2074918"><ele>291.0</ele><time>2026-04-06T14:48:46.135Z</time></trkpt><trkpt lat="43.5282009" lon="11.2071712"><ele>292.5</ele><time>2026-04-06T14:48:47.127Z</time></trkpt><trkpt lat="43.5280754" lon="11.2068477"><ele>294.0</ele><time>2026-04-06T14:48:48.139Z</time></trkpt><trkpt lat="43.5279464" lon="11.2065211"><ele>294.0</ele><time>2026-04-06T14:48:49.143Z</time></trkpt><trkpt lat="43.5278104" lon="11.2062"><ele>294.0</ele><time>2026-04-06T14:48:50.135Z</time></trkpt><trkpt lat="43.5276709" lon="11.2058806"><ele>289.5</ele><time>2026-04-06T14:48:51.144Z</time></trkpt><trkpt lat="43.5275343" lon="11.2055563"><ele>285.0</ele><time>2026-04-06T14:48:52.139Z</time></trkpt><trkpt lat="43.527391" lon="11.2052324"><ele>285.0</ele><time>2026-04-06T14:48:53.137Z</time></trkpt><trkpt lat="43.5272479" lon="11.204904"><ele>285.0</ele><time>2026-04-06T14:48:54.155Z</time></trkpt><trkpt lat="43.527108" lon="11.2045794"><ele>287.0</ele><time>2026-04-06T14:48:55.138Z</time></trkpt><trkpt lat="43.5269693" lon="11.2042582"><ele>289.0</ele><time>2026-04-06T14:48:56.137Z</time></trkpt><trkpt lat="43.5268305" lon="11.2039442"><ele>289.0</ele><time>2026-04-06T14:48:57.142Z</time></trkpt><trkpt lat="43.5266926" lon="11.203635"><ele>289.0</ele><time>2026-04-06T14:48:58.137Z</time></trkpt><trkpt lat="43.5265543" lon="11.2033292"><ele>292.0</ele><time>2026-04-06T14:48:59.139Z</time></trkpt><trkpt lat="43.5264109" lon="11.2030345"><ele>295.0</ele><time>2026-04-06T14:49:00.135Z</time></trkpt><trkpt lat="43.5262627" lon="11.2027546"><ele>293.0</ele><time>2026-04-06T14:49:01.134Z</time></trkpt><trkpt lat="43.526116" lon="11.2024951"><ele>291.0</ele><time>2026-04-06T14:49:02.132Z</time></trkpt><trkpt lat="43.5259721" lon="11.2022511"><ele>291.0</ele><time>2026-04-06T14:49:03.133Z</time></trkpt><trkpt lat="43.5258306" lon="11.2020266"><ele>291.0</ele><time>2026-04-06T14:49:04.135Z</time></trkpt><trkpt lat="43.525687" lon="11.2018067"><ele>291.0</ele><time>2026-04-06T14:49:05.15Z</time></trkpt><trkpt lat="43.5255333" lon="11.2015905"><ele>288.0</ele><time>2026-04-06T14:49:06.147Z</time></trkpt><trkpt lat="43.5253781" lon="11.2013892"><ele>285.0</ele><time>2026-04-06T14:49:07.167Z</time></trkpt><trkpt lat="43.5252258" lon="11.2011866"><ele>282.0</ele><time>2026-04-06T14:49:08.135Z</time></trkpt><trkpt lat="43.525066" lon="11.2009767"><ele>282.0</ele><time>2026-04-06T14:49:09.139Z</time></trkpt><trkpt lat="43.5248977" lon="11.2007706"><ele>282.0</ele><time>2026-04-06T14:49:10.144Z</time></trkpt><trkpt lat="43.5247231" lon="11.2005668"><ele>280.0</ele><time>2026-04-06T14:49:11.139Z</time></trkpt><trkpt lat="43.5245411" lon="11.2003694"><ele>278.0</ele><time>2026-04-06T14:49:12.144Z</time></trkpt><trkpt lat="43.5243507" lon="11.2001832"><ele>278.0</ele><time>2026-04-06T14:49:13.146Z</time></trkpt><trkpt lat="43.5241521" lon="11.2000003"><ele>278.0</ele><time>2026-04-06T14:49:14.139Z</time></trkpt><trkpt lat="43.5239485" lon="11.1998183"><ele>276.5</ele><time>2026-04-06T14:49:15.137Z</time></trkpt><trkpt lat="43.5237407" lon="11.1996391"><ele>275.0</ele><time>2026-04-06T14:49:16.144Z</time></trkpt><trkpt lat="43.5235278" lon="11.1994652"><ele>273.5</ele><time>2026-04-06T14:49:17.155Z</time></trkpt><trkpt lat="43.5233179" lon="11.1992922"><ele>272.0</ele><time>2026-04-06T14:49:18.155Z</time></trkpt><trkpt lat="43.5230963" lon="11.1991365"><ele>270.0</ele><time>2026-04-06T14:49:19.149Z</time></trkpt><trkpt lat="43.522874" lon="11.1989874"><ele>268.0</ele><time>2026-04-06T14:49:20.15Z</time></trkpt><trkpt lat="43.5226471" lon="11.1988444"><ele>268.0</ele><time>2026-04-06T14:49:21.137Z</time></trkpt><trkpt lat="43.5224122" lon="11.1987056"><ele>268.0</ele><time>2026-04-06T14:49:22.136Z</time></trkpt><trkpt lat="43.5221733" lon="11.1985733"><ele>269.5</ele><time>2026-04-06T14:49:23.137Z</time></trkpt><trkpt lat="43.5219326" lon="11.1984476"><ele>271.0</ele><time>2026-04-06T14:49:24.15Z</time></trkpt><trkpt lat="43.5216941" lon="11.1983152"><ele>271.0</ele><time>2026-04-06T14:49:25.151Z</time></trkpt><trkpt lat="43.5214496" lon="11.1981859"><ele>271.0</ele><time>2026-04-06T14:49:26.147Z</time></trkpt><trkpt lat="43.5212112" lon="11.198054"><ele>266.5</ele><time>2026-04-06T14:49:27.159Z</time></trkpt><trkpt lat="43.5209698" lon="11.1979217"><ele>262.0</ele><time>2026-04-06T14:49:28.155Z</time></trkpt><trkpt lat="43.5207339" lon="11.1977885"><ele>262.0</ele><time>2026-04-06T14:49:29.141Z</time></trkpt><trkpt lat="43.5204974" lon="11.1976569"><ele>262.0</ele><time>2026-04-06T14:49:30.161Z</time></trkpt><trkpt lat="43.5202576" lon="11.1975315"><ele>260.0</ele><time>2026-04-06T14:49:31.14Z</time></trkpt><trkpt lat="43.5200128" lon="11.1974211"><ele>258.0</ele><time>2026-04-06T14:49:32.152Z</time></trkpt><trkpt lat="43.5197649" lon="11.1973259"><ele>257.0</ele><time>2026-04-06T14:49:33.147Z</time></trkpt><trkpt lat="43.5195104" lon="11.1972425"><ele>256.0</ele><time>2026-04-06T14:49:34.14Z</time></trkpt><trkpt lat="43.5192556" lon="11.1971765"><ele>256.0</ele><time>2026-04-06T14:49:35.145Z</time></trkpt><trkpt lat="43.5189867" lon="11.1971238"><ele>256.0</ele><time>2026-04-06T14:49:36.152Z</time></trkpt><trkpt lat="43.5187162" lon="11.1970809"><ele>255.5</ele><time>2026-04-06T14:49:37.154Z</time></trkpt><trkpt lat="43.5184407" lon="11.1970498"><ele>255.0</ele><time>2026-04-06T14:49:38.155Z</time></trkpt><trkpt lat="43.5181698" lon="11.1970292"><ele>254.0</ele><time>2026-04-06T14:49:39.162Z</time></trkpt><trkpt lat="43.5178943" lon="11.1970209"><ele>253.0</ele><time>2026-04-06T14:49:40.139Z</time></trkpt><trkpt lat="43.5176181" lon="11.1970257"><ele>253.0</ele><time>2026-04-06T14:49:41.142Z</time></trkpt><trkpt lat="43.5173416" lon="11.1970199"><ele>253.0</ele><time>2026-04-06T14:49:42.155Z</time></trkpt><trkpt lat="43.5170635" lon="11.1970142"><ele>249.5</ele><time>2026-04-06T14:49:43.153Z</time></trkpt><trkpt lat="43.5167986" lon="11.1969939"><ele>246.0</ele><time>2026-04-06T14:49:44.178Z</time></trkpt><trkpt lat="43.5165419" lon="11.196967"><ele>246.0</ele><time>2026-04-06T14:49:45.156Z</time></trkpt><trkpt lat="43.516286" lon="11.1969349"><ele>246.0</ele><time>2026-04-06T14:49:46.14Z</time></trkpt><trkpt lat="43.5160413" lon="11.196877"><ele>240.0</ele><time>2026-04-06T14:49:47.15Z</time></trkpt><trkpt lat="43.515796" lon="11.1967989"><ele>234.0</ele><time>2026-04-06T14:49:48.157Z</time></trkpt><trkpt lat="43.5155511" lon="11.1967084"><ele>232.5</ele><time>2026-04-06T14:49:49.151Z</time></trkpt><trkpt lat="43.5153125" lon="11.1965836"><ele>231.0</ele><time>2026-04-06T14:49:50.153Z</time></trkpt><trkpt lat="43.5150863" lon="11.1964374"><ele>229.5</ele><time>2026-04-06T14:49:51.148Z</time></trkpt><trkpt lat="43.5148552" lon="11.1962643"><ele>228.0</ele><time>2026-04-06T14:49:52.138Z</time></trkpt><trkpt lat="43.5146321" lon="11.1960713"><ele>232.5</ele><time>2026-04-06T14:49:53.149Z</time></trkpt><trkpt lat="43.5144179" lon="11.1958716"><ele>237.0</ele><time>2026-04-06T14:49:54.156Z</time></trkpt><trkpt lat="43.5142082" lon="11.1956528"><ele>237.0</ele><time>2026-04-06T14:49:55.136Z</time></trkpt><trkpt lat="43.5140162" lon="11.1954035"><ele>237.0</ele><time>2026-04-06T14:49:56.161Z</time></trkpt><trkpt lat="43.5138382" lon="11.1951286"><ele>237.5</ele><time>2026-04-06T14:49:57.155Z</time></trkpt><trkpt lat="43.5136772" lon="11.1948419"><ele>238.0</ele><time>2026-04-06T14:49:58.162Z</time></trkpt><trkpt lat="43.5135286" lon="11.1945464"><ele>238.0</ele><time>2026-04-06T14:49:59.153Z</time></trkpt><trkpt lat="43.5133889" lon="11.1942429"><ele>238.0</ele><time>2026-04-06T14:50:00.146Z</time></trkpt><trkpt lat="43.5132659" lon="11.193936"><ele>233.0</ele><time>2026-04-06T14:50:01.151Z</time></trkpt><trkpt lat="43.513135" lon="11.1936282"><ele>228.0</ele><time>2026-04-06T14:50:02.139Z</time></trkpt><trkpt lat="43.512993" lon="11.1933303"><ele>228.0</ele><time>2026-04-06T14:50:03.155Z</time></trkpt><trkpt lat="43.5128316" lon="11.1930448"><ele>228.0</ele><time>2026-04-06T14:50:04.164Z</time></trkpt><trkpt lat="43.5126555" lon="11.1927783"><ele>228.0</ele><time>2026-04-06T14:50:05.147Z</time></trkpt><trkpt lat="43.5124662" lon="11.1925283"><ele>228.0</ele><time>2026-04-06T14:50:06.154Z</time></trkpt><trkpt lat="43.512263" lon="11.1922982"><ele>226.0</ele><time>2026-04-06T14:50:07.157Z</time></trkpt><trkpt lat="43.512052" lon="11.1920809"><ele>224.0</ele><time>2026-04-06T14:50:08.158Z</time></trkpt><trkpt lat="43.511832" lon="11.1918821"><ele>224.0</ele><time>2026-04-06T14:50:09.154Z</time></trkpt><trkpt lat="43.5116122" lon="11.1916805"><ele>224.0</ele><time>2026-04-06T14:50:10.154Z</time></trkpt><trkpt lat="43.5113895" lon="11.1914842"><ele>220.0</ele><time>2026-04-06T14:50:11.155Z</time></trkpt><trkpt lat="43.5111676" lon="11.1912843"><ele>216.0</ele><time>2026-04-06T14:50:12.145Z</time></trkpt><trkpt lat="43.5109381" lon="11.1910946"><ele>216.0</ele><time>2026-04-06T14:50:13.142Z</time></trkpt><trkpt lat="43.5107053" lon="11.190911"><ele>216.0</ele><time>2026-04-06T14:50:14.16Z</time></trkpt><trkpt lat="43.5104632" lon="11.1907475"><ele>212.5</ele><time>2026-04-06T14:50:15.158Z</time></trkpt><trkpt lat="43.5102092" lon="11.1906008"><ele>209.0</ele><time>2026-04-06T14:50:16.137Z</time></trkpt><trkpt lat="43.509964" lon="11.1904493"><ele>209.0</ele><time>2026-04-06T14:50:17.142Z</time></trkpt><trkpt lat="43.5097066" lon="11.1903162"><ele>209.0</ele><time>2026-04-06T14:50:18.139Z</time></trkpt><trkpt lat="43.5094431" lon="11.1902052"><ele>211.0</ele><time>2026-04-06T14:50:19.138Z</time></trkpt><trkpt lat="43.5091771" lon="11.1901066"><ele>213.0</ele><time>2026-04-06T14:50:20.146Z</time></trkpt><trkpt lat="43.508903" lon="11.1900162"><ele>213.0</ele><time>2026-04-06T14:50:21.142Z</time></trkpt><trkpt lat="43.5086267" lon="11.1899252"><ele>213.0</ele><time>2026-04-06T14:50:22.139Z</time></trkpt><trkpt lat="43.5083578" lon="11.1898474"><ele>209.0</ele><time>2026-04-06T14:50:23.146Z</time></trkpt><trkpt lat="43.5080792" lon="11.1897676"><ele>205.0</ele><time>2026-04-06T14:50:24.14Z</time></trkpt><trkpt lat="43.5077997" lon="11.1896892"><ele>205.0</ele><time>2026-04-06T14:50:25.142Z</time></trkpt><trkpt lat="43.507521" lon="11.1896069"><ele>205.0</ele><time>2026-04-06T14:50:26.142Z</time></trkpt><trkpt lat="43.5072412" lon="11.1895239"><ele>204.5</ele><time>2026-04-06T14:50:27.14Z</time></trkpt><trkpt lat="43.5069628" lon="11.1894438"><ele>204.0</ele><time>2026-04-06T14:50:28.15Z</time></trkpt><trkpt lat="43.5066865" lon="11.1893533"><ele>204.0</ele><time>2026-04-06T14:50:29.139Z</time></trkpt><trkpt lat="43.5064117" lon="11.1892721"><ele>204.0</ele><time>2026-04-06T14:50:30.139Z</time></trkpt><trkpt lat="43.5061417" lon="11.1891863"><ele>203.0</ele><time>2026-04-06T14:50:31.14Z</time></trkpt><trkpt lat="43.5058679" lon="11.1890969"><ele>202.0</ele><time>2026-04-06T14:50:32.139Z</time></trkpt><trkpt lat="43.5055948" lon="11.1889993"><ele>198.0</ele><time>2026-04-06T14:50:33.145Z</time></trkpt><trkpt lat="43.5053241" lon="11.1888879"><ele>194.0</ele><time>2026-04-06T14:50:34.138Z</time></trkpt><trkpt lat="43.5050553" lon="11.1887649"><ele>194.0</ele><time>2026-04-06T14:50:35.141Z</time></trkpt><trkpt lat="43.5047892" lon="11.1886321"><ele>194.0</ele><time>2026-04-06T14:50:36.143Z</time></trkpt><trkpt lat="43.5045216" lon="11.1884953"><ele>195.5</ele><time>2026-04-06T14:50:37.143Z</time></trkpt><trkpt lat="43.5042542" lon="11.1883619"><ele>197.0</ele><time>2026-04-06T14:50:38.139Z</time></trkpt><trkpt lat="43.5039894" lon="11.1882386"><ele>194.0</ele><time>2026-04-06T14:50:39.148Z</time></trkpt><trkpt lat="43.5037342" lon="11.1881154"><ele>191.0</ele><time>2026-04-06T14:50:40.145Z</time></trkpt><trkpt lat="43.5034805" lon="11.1880005"><ele>191.0</ele><time>2026-04-06T14:50:41.143Z</time></trkpt><trkpt lat="43.5032305" lon="11.1878872"><ele>191.0</ele><time>2026-04-06T14:50:42.143Z</time></trkpt><trkpt lat="43.5029848" lon="11.1877701"><ele>192.5</ele><time>2026-04-06T14:50:43.147Z</time></trkpt><trkpt lat="43.5027413" lon="11.1876578"><ele>194.0</ele><time>2026-04-06T14:50:44.138Z</time></trkpt><trkpt lat="43.5025001" lon="11.1875516"><ele>194.0</ele><time>2026-04-06T14:50:45.137Z</time></trkpt><trkpt lat="43.5022562" lon="11.1874392"><ele>194.0</ele><time>2026-04-06T14:50:46.14Z</time></trkpt><trkpt lat="43.5020126" lon="11.1873229"><ele>188.5</ele><time>2026-04-06T14:50:47.142Z</time></trkpt><trkpt lat="43.5017723" lon="11.18719"><ele>183.0</ele><time>2026-04-06T14:50:48.139Z</time></trkpt><trkpt lat="43.5015326" lon="11.1870477"><ele>183.0</ele><time>2026-04-06T14:50:49.137Z</time></trkpt><trkpt lat="43.5012977" lon="11.1868875"><ele>183.0</ele><time>2026-04-06T14:50:50.162Z</time></trkpt><trkpt lat="43.5010666" lon="11.1867056"><ele>183.0</ele><time>2026-04-06T14:50:51.148Z</time></trkpt><trkpt lat="43.5008434" lon="11.1865124"><ele>183.0</ele><time>2026-04-06T14:50:52.134Z</time></trkpt><trkpt lat="43.5006411" lon="11.1862732"><ele>183.0</ele><time>2026-04-06T14:50:53.15Z</time></trkpt><trkpt lat="43.500446" lon="11.1860365"><ele>183.0</ele><time>2026-04-06T14:50:54.141Z</time></trkpt><trkpt lat="43.5002547" lon="11.1857725"><ele>182.5</ele><time>2026-04-06T14:50:55.15Z</time></trkpt><trkpt lat="43.5000796" lon="11.1855031"><ele>182.0</ele><time>2026-04-06T14:50:56.134Z</time></trkpt><trkpt lat="43.4999091" lon="11.1852204"><ele>182.0</ele><time>2026-04-06T14:50:57.151Z</time></trkpt><trkpt lat="43.4997443" lon="11.1849311"><ele>182.0</ele><time>2026-04-06T14:50:58.151Z</time></trkpt><trkpt lat="43.4995979" lon="11.1846423"><ele>184.0</ele><time>2026-04-06T14:50:59.134Z</time></trkpt><trkpt lat="43.4994496" lon="11.1843471"><ele>186.0</ele><time>2026-04-06T14:51:00.148Z</time></trkpt><trkpt lat="43.4992998" lon="11.1840488"><ele>182.0</ele><time>2026-04-06T14:51:01.155Z</time></trkpt><trkpt lat="43.4991508" lon="11.1837555"><ele>178.0</ele><time>2026-04-06T14:51:02.159Z</time></trkpt><trkpt lat="43.4990034" lon="11.1834557"><ele>178.5</ele><time>2026-04-06T14:51:03.144Z</time></trkpt><trkpt lat="43.4988494" lon="11.1831611"><ele>179.0</ele><time>2026-04-06T14:51:04.147Z</time></trkpt><trkpt lat="43.498695" lon="11.1828691"><ele>179.0</ele><time>2026-04-06T14:51:05.145Z</time></trkpt><trkpt lat="43.4985372" lon="11.1825779"><ele>179.0</ele><time>2026-04-06T14:51:06.132Z</time></trkpt><trkpt lat="43.4983709" lon="11.1822932"><ele>177.5</ele><time>2026-04-06T14:51:07.149Z</time></trkpt><trkpt lat="43.4982025" lon="11.1820203"><ele>176.0</ele><time>2026-04-06T14:51:08.144Z</time></trkpt><trkpt lat="43.4980291" lon="11.1817519"><ele>172.5</ele><time>2026-04-06T14:51:09.137Z</time></trkpt><trkpt lat="43.4978492" lon="11.1814955"><ele>169.0</ele><time>2026-04-06T14:51:10.143Z</time></trkpt><trkpt lat="43.4976612" lon="11.1812523"><ele>169.0</ele><time>2026-04-06T14:51:11.134Z</time></trkpt><trkpt lat="43.4974625" lon="11.181016"><ele>169.0</ele><time>2026-04-06T14:51:12.139Z</time></trkpt><trkpt lat="43.4972691" lon="11.1807825"><ele>168.0</ele><time>2026-04-06T14:51:13.152Z</time></trkpt><trkpt lat="43.4970626" lon="11.1805702"><ele>167.0</ele><time>2026-04-06T14:51:14.154Z</time></trkpt><trkpt lat="43.4968593" lon="11.180366"><ele>167.0</ele><time>2026-04-06T14:51:15.157Z</time></trkpt><trkpt lat="43.4966502" lon="11.1801608"><ele>167.0</ele><time>2026-04-06T14:51:16.155Z</time></trkpt><trkpt lat="43.4964328" lon="11.1799647"><ele>164.5</ele><time>2026-04-06T14:51:17.15Z</time></trkpt><trkpt lat="43.4962086" lon="11.1797824"><ele>162.0</ele><time>2026-04-06T14:51:18.139Z</time></trkpt><trkpt lat="43.4959783" lon="11.1796075"><ele>162.0</ele><time>2026-04-06T14:51:19.15Z</time></trkpt><trkpt lat="43.4957458" lon="11.1794558"><ele>162.0</ele><time>2026-04-06T14:51:20.154Z</time></trkpt><trkpt lat="43.495509" lon="11.1792992"><ele>163.0</ele><time>2026-04-06T14:51:21.144Z</time></trkpt><trkpt lat="43.4952734" lon="11.1791526"><ele>164.0</ele><time>2026-04-06T14:51:22.149Z</time></trkpt><trkpt lat="43.4950308" lon="11.1790111"><ele>162.0</ele><time>2026-04-06T14:51:23.149Z</time></trkpt><trkpt lat="43.4947924" lon="11.1788781"><ele>160.0</ele><time>2026-04-06T14:51:24.157Z</time></trkpt><trkpt lat="43.4945557" lon="11.1787503"><ele>157.5</ele><time>2026-04-06T14:51:25.163Z</time></trkpt><trkpt lat="43.4943275" lon="11.1786289"><ele>155.0</ele><time>2026-04-06T14:51:26.151Z</time></trkpt><trkpt lat="43.494104" lon="11.1784946"><ele>155.0</ele><time>2026-04-06T14:51:27.144Z</time></trkpt><trkpt lat="43.4938867" lon="11.1783511"><ele>155.0</ele><time>2026-04-06T14:51:28.163Z</time></trkpt><trkpt lat="43.4936734" lon="11.1781957"><ele>155.0</ele><time>2026-04-06T14:51:29.151Z</time></trkpt><trkpt lat="43.4934626" lon="11.1780188"><ele>155.0</ele><time>2026-04-06T14:51:30.148Z</time></trkpt><trkpt lat="43.4932561" lon="11.177823"><ele>155.0</ele><time>2026-04-06T14:51:31.15Z</time></trkpt><trkpt lat="43.4930642" lon="11.1776159"><ele>155.0</ele><time>2026-04-06T14:51:32.136Z</time></trkpt><trkpt lat="43.4928779" lon="11.1773977"><ele>156.5</ele><time>2026-04-06T14:51:33.151Z</time></trkpt><trkpt lat="43.4927007" lon="11.1771638"><ele>158.0</ele><time>2026-04-06T14:51:34.152Z</time></trkpt><trkpt lat="43.4925264" lon="11.1769281"><ele>158.0</ele><time>2026-04-06T14:51:35.153Z</time></trkpt><trkpt lat="43.492353" lon="11.1766844"><ele>158.0</ele><time>2026-04-06T14:51:36.146Z</time></trkpt><trkpt lat="43.4921917" lon="11.1764254"><ele>153.5</ele><time>2026-04-06T14:51:37.133Z</time></trkpt><trkpt lat="43.4920366" lon="11.1761592"><ele>149.0</ele><time>2026-04-06T14:51:38.155Z</time></trkpt><trkpt lat="43.4918928" lon="11.1758809"><ele>149.0</ele><time>2026-04-06T14:51:39.143Z</time></trkpt><trkpt lat="43.491749" lon="11.1755959"><ele>149.0</ele><time>2026-04-06T14:51:40.153Z</time></trkpt><trkpt lat="43.491605" lon="11.1753074"><ele>149.0</ele><time>2026-04-06T14:51:41.147Z</time></trkpt><trkpt lat="43.4914462" lon="11.1750189"><ele>149.0</ele><time>2026-04-06T14:51:42.158Z</time></trkpt><trkpt lat="43.491295" lon="11.1747254"><ele>145.5</ele><time>2026-04-06T14:51:43.142Z</time></trkpt><trkpt lat="43.4911394" lon="11.1744284"><ele>142.0</ele><time>2026-04-06T14:51:44.153Z</time></trkpt><trkpt lat="43.4909848" lon="11.1741345"><ele>141.5</ele><time>2026-04-06T14:51:45.15Z</time></trkpt><trkpt lat="43.4908313" lon="11.1738321"><ele>141.0</ele><time>2026-04-06T14:51:46.172Z</time></trkpt><trkpt lat="43.4906813" lon="11.1735345"><ele>141.0</ele><time>2026-04-06T14:51:47.144Z</time></trkpt><trkpt lat="43.4905284" lon="11.1732334"><ele>141.0</ele><time>2026-04-06T14:51:48.143Z</time></trkpt><trkpt lat="43.4903746" lon="11.1729355"><ele>141.0</ele><time>2026-04-06T14:51:49.158Z</time></trkpt><trkpt lat="43.4902216" lon="11.1726386"><ele>141.0</ele><time>2026-04-06T14:51:50.137Z</time></trkpt><trkpt lat="43.490069" lon="11.1723412"><ele>141.0</ele><time>2026-04-06T14:51:51.153Z</time></trkpt><trkpt lat="43.4899184" lon="11.1720372"><ele>141.0</ele><time>2026-04-06T14:51:52.149Z</time></trkpt><trkpt lat="43.4897765" lon="11.1717376"><ele>142.5</ele><time>2026-04-06T14:51:53.138Z</time></trkpt><trkpt lat="43.4896401" lon="11.1714276"><ele>144.0</ele><time>2026-04-06T14:51:54.164Z</time></trkpt><trkpt lat="43.4895098" lon="11.1711155"><ele>141.0</ele><time>2026-04-06T14:51:55.149Z</time></trkpt><trkpt lat="43.4893833" lon="11.1707994"><ele>138.0</ele><time>2026-04-06T14:51:56.164Z</time></trkpt><trkpt lat="43.4892614" lon="11.1704795"><ele>138.0</ele><time>2026-04-06T14:51:57.159Z</time></trkpt><trkpt lat="43.4891477" lon="11.1701448"><ele>138.0</ele><time>2026-04-06T14:51:58.156Z</time></trkpt><trkpt lat="43.4890307" lon="11.1698108"><ele>138.5</ele><time>2026-04-06T14:51:59.158Z</time></trkpt><trkpt lat="43.4889164" lon="11.1694767"><ele>139.0</ele><time>2026-04-06T14:52:00.16Z</time></trkpt><trkpt lat="43.4888116" lon="11.1691362"><ele>135.0</ele><time>2026-04-06T14:52:01.162Z</time></trkpt><trkpt lat="43.4887042" lon="11.1688001"><ele>131.0</ele><time>2026-04-06T14:52:02.155Z</time></trkpt><trkpt lat="43.4886066" lon="11.168461"><ele>131.0</ele><time>2026-04-06T14:52:03.158Z</time></trkpt><trkpt lat="43.4885109" lon="11.1681259"><ele>131.0</ele><time>2026-04-06T14:52:04.166Z</time></trkpt><trkpt lat="43.4884275" lon="11.167779"><ele>131.0</ele><time>2026-04-06T14:52:05.146Z</time></trkpt><trkpt lat="43.4883505" lon="11.1674357"><ele>131.0</ele><time>2026-04-06T14:52:06.154Z</time></trkpt><trkpt lat="43.4882774" lon="11.1670881"><ele>131.5</ele><time>2026-04-06T14:52:07.175Z</time></trkpt><trkpt lat="43.4882119" lon="11.166741"><ele>132.0</ele><time>2026-04-06T14:52:08.162Z</time></trkpt><trkpt lat="43.4881498" lon="11.1663942"><ele>130.0</ele><time>2026-04-06T14:52:09.155Z</time></trkpt><trkpt lat="43.4880914" lon="11.1660498"><ele>128.0</ele><time>2026-04-06T14:52:10.158Z</time></trkpt><trkpt lat="43.4880381" lon="11.1657012"><ele>128.5</ele><time>2026-04-06T14:52:11.164Z</time></trkpt><trkpt lat="43.4879803" lon="11.1653536"><ele>129.0</ele><time>2026-04-06T14:52:12.165Z</time></trkpt><trkpt lat="43.4879348" lon="11.1650057"><ele>126.5</ele><time>2026-04-06T14:52:13.153Z</time></trkpt><trkpt lat="43.4878851" lon="11.1646596"><ele>124.0</ele><time>2026-04-06T14:52:14.154Z</time></trkpt><trkpt lat="43.4878416" lon="11.1643097"><ele>123.5</ele><time>2026-04-06T14:52:15.162Z</time></trkpt><trkpt lat="43.487796" lon="11.1639585"><ele>123.0</ele><time>2026-04-06T14:52:16.155Z</time></trkpt><trkpt lat="43.4877556" lon="11.1636024"><ele>123.0</ele><time>2026-04-06T14:52:17.163Z</time></trkpt><trkpt lat="43.4877156" lon="11.1632544"><ele>123.0</ele><time>2026-04-06T14:52:18.157Z</time></trkpt><trkpt lat="43.4876733" lon="11.1629031"><ele>124.0</ele><time>2026-04-06T14:52:19.148Z</time></trkpt><trkpt lat="43.4876334" lon="11.1625497"><ele>125.0</ele><time>2026-04-06T14:52:20.146Z</time></trkpt><trkpt lat="43.4875835" lon="11.1622022"><ele>125.0</ele><time>2026-04-06T14:52:21.165Z</time></trkpt><trkpt lat="43.4875382" lon="11.1618617"><ele>125.0</ele><time>2026-04-06T14:52:22.158Z</time></trkpt><trkpt lat="43.4874918" lon="11.1615102"><ele>126.0</ele><time>2026-04-06T14:52:23.148Z</time></trkpt><trkpt lat="43.4874436" lon="11.1611614"><ele>127.0</ele><time>2026-04-06T14:52:24.16Z</time></trkpt><trkpt lat="43.4873938" lon="11.1608145"><ele>126.5</ele><time>2026-04-06T14:52:25.16Z</time></trkpt><trkpt lat="43.4873447" lon="11.1604758"><ele>126.0</ele><time>2026-04-06T14:52:26.151Z</time></trkpt><trkpt lat="43.4873001" lon="11.1601436"><ele>126.0</ele><time>2026-04-06T14:52:27.153Z</time></trkpt><trkpt lat="43.4872588" lon="11.1598076"><ele>126.0</ele><time>2026-04-06T14:52:28.17Z</time></trkpt><trkpt lat="43.4872134" lon="11.1594735"><ele>126.0</ele><time>2026-04-06T14:52:29.14Z</time></trkpt><trkpt lat="43.4871693" lon="11.1591339"><ele>126.0</ele><time>2026-04-06T14:52:30.159Z</time></trkpt><trkpt lat="43.4871269" lon="11.1588048"><ele>123.5</ele><time>2026-04-06T14:52:31.157Z</time></trkpt><trkpt lat="43.4870826" lon="11.1584666"><ele>121.0</ele><time>2026-04-06T14:52:32.156Z</time></trkpt><trkpt lat="43.4870432" lon="11.1581272"><ele>121.0</ele><time>2026-04-06T14:52:33.146Z</time></trkpt><trkpt lat="43.4869966" lon="11.1577837"><ele>121.0</ele><time>2026-04-06T14:52:34.151Z</time></trkpt><trkpt lat="43.4869535" lon="11.1574482"><ele>121.0</ele><time>2026-04-06T14:52:35.163Z</time></trkpt><trkpt lat="43.4869142" lon="11.157112"><ele>121.0</ele><time>2026-04-06T14:52:36.16Z</time></trkpt><trkpt lat="43.4868711" lon="11.156782"><ele>120.5</ele><time>2026-04-06T14:52:37.158Z</time></trkpt><trkpt lat="43.4868215" lon="11.1564415"><ele>120.0</ele><time>2026-04-06T14:52:38.166Z</time></trkpt><trkpt lat="43.4867701" lon="11.1561041"><ele>120.0</ele><time>2026-04-06T14:52:39.148Z</time></trkpt><trkpt lat="43.4867038" lon="11.155773"><ele>120.0</ele><time>2026-04-06T14:52:40.16Z</time></trkpt><trkpt lat="43.486613" lon="11.1554453"><ele>118.5</ele><time>2026-04-06T14:52:41.16Z</time></trkpt><trkpt lat="43.4865139" lon="11.1551218"><ele>117.0</ele><time>2026-04-06T14:52:42.165Z</time></trkpt><trkpt lat="43.4863939" lon="11.1548104"><ele>116.5</ele><time>2026-04-06T14:52:43.146Z</time></trkpt><trkpt lat="43.4862642" lon="11.1545015"><ele>116.0</ele><time>2026-04-06T14:52:44.156Z</time></trkpt><trkpt lat="43.4861262" lon="11.1541986"><ele>114.5</ele><time>2026-04-06T14:52:45.161Z</time></trkpt><trkpt lat="43.4859715" lon="11.153913"><ele>113.0</ele><time>2026-04-06T14:52:46.167Z</time></trkpt><trkpt lat="43.4858069" lon="11.1536394"><ele>113.0</ele><time>2026-04-06T14:52:47.169Z</time></trkpt><trkpt lat="43.4856304" lon="11.1533854"><ele>113.0</ele><time>2026-04-06T14:52:48.16Z</time></trkpt><trkpt lat="43.4854376" lon="11.1531384"><ele>111.5</ele><time>2026-04-06T14:52:49.161Z</time></trkpt><trkpt lat="43.4852424" lon="11.1529055"><ele>110.0</ele><time>2026-04-06T14:52:50.141Z</time></trkpt><trkpt lat="43.4850369" lon="11.1526843"><ele>110.0</ele><time>2026-04-06T14:52:51.158Z</time></trkpt><trkpt lat="43.4848304" lon="11.1524747"><ele>110.0</ele><time>2026-04-06T14:52:52.154Z</time></trkpt><trkpt lat="43.4846118" lon="11.1522649"><ele>110.5</ele><time>2026-04-06T14:52:53.153Z</time></trkpt><trkpt lat="43.4843961" lon="11.1520466"><ele>111.0</ele><time>2026-04-06T14:52:54.163Z</time></trkpt><trkpt lat="43.4841692" lon="11.1518385"><ele>111.0</ele><time>2026-04-06T14:52:55.157Z</time></trkpt><trkpt lat="43.4839513" lon="11.1516197"><ele>111.0</ele><time>2026-04-06T14:52:56.153Z</time></trkpt><trkpt lat="43.4837272" lon="11.1514058"><ele>115.0</ele><time>2026-04-06T14:52:57.142Z</time></trkpt><trkpt lat="43.483509" lon="11.1511879"><ele>119.0</ele><time>2026-04-06T14:52:58.159Z</time></trkpt><trkpt lat="43.4832857" lon="11.1509763"><ele>119.0</ele><time>2026-04-06T14:52:59.151Z</time></trkpt><trkpt lat="43.4830624" lon="11.1507729"><ele>119.0</ele><time>2026-04-06T14:53:00.164Z</time></trkpt><trkpt lat="43.4828365" lon="11.1505889"><ele>120.5</ele><time>2026-04-06T14:53:01.158Z</time></trkpt><trkpt lat="43.4826062" lon="11.150431"><ele>122.0</ele><time>2026-04-06T14:53:02.149Z</time></trkpt><trkpt lat="43.4823644" lon="11.1502893"><ele>122.0</ele><time>2026-04-06T14:53:03.15Z</time></trkpt><trkpt lat="43.4821253" lon="11.1501663"><ele>122.0</ele><time>2026-04-06T14:53:04.162Z</time></trkpt><trkpt lat="43.4818748" lon="11.1500574"><ele>124.0</ele><time>2026-04-06T14:53:05.147Z</time></trkpt><trkpt lat="43.481624" lon="11.149956"><ele>126.0</ele><time>2026-04-06T14:53:06.143Z</time></trkpt><trkpt lat="43.4813731" lon="11.1498756"><ele>126.5</ele><time>2026-04-06T14:53:07.146Z</time></trkpt><trkpt lat="43.4811207" lon="11.1498135"><ele>127.0</ele><time>2026-04-06T14:53:08.144Z</time></trkpt><trkpt lat="43.4808704" lon="11.1497853"><ele>127.0</ele><time>2026-04-06T14:53:09.156Z</time></trkpt><trkpt lat="43.4806136" lon="11.1497856"><ele>127.0</ele><time>2026-04-06T14:53:10.152Z</time></trkpt><trkpt lat="43.4803546" lon="11.1497952"><ele>122.0</ele><time>2026-04-06T14:53:11.15Z</time></trkpt><trkpt lat="43.4800901" lon="11.1498169"><ele>117.0</ele><time>2026-04-06T14:53:12.149Z</time></trkpt><trkpt lat="43.4798248" lon="11.149865"><ele>118.5</ele><time>2026-04-06T14:53:13.148Z</time></trkpt><trkpt lat="43.4795603" lon="11.1499356"><ele>120.0</ele><time>2026-04-06T14:53:14.156Z</time></trkpt><trkpt lat="43.4793052" lon="11.1500224"><ele>120.0</ele><time>2026-04-06T14:53:15.158Z</time></trkpt><trkpt lat="43.4790521" lon="11.1501127"><ele>120.0</ele><time>2026-04-06T14:53:16.165Z</time></trkpt><trkpt lat="43.4788058" lon="11.1502314"><ele>123.5</ele><time>2026-04-06T14:53:17.157Z</time></trkpt><trkpt lat="43.4785581" lon="11.1503776"><ele>127.0</ele><time>2026-04-06T14:53:18.154Z</time></trkpt><trkpt lat="43.4783084" lon="11.1505135"><ele>127.0</ele><time>2026-04-06T14:53:19.15Z</time></trkpt><trkpt lat="43.4780588" lon="11.1506563"><ele>127.0</ele><time>2026-04-06T14:53:20.151Z</time></trkpt><trkpt lat="43.4778085" lon="11.1507937"><ele>130.0</ele><time>2026-04-06T14:53:21.159Z</time></trkpt><trkpt lat="43.4775563" lon="11.1509349"><ele>133.0</ele><time>2026-04-06T14:53:22.148Z</time></trkpt><trkpt lat="43.4773125" lon="11.1510759"><ele>133.0</ele><time>2026-04-06T14:53:23.151Z</time></trkpt><trkpt lat="43.4770692" lon="11.1512173"><ele>133.0</ele><time>2026-04-06T14:53:24.138Z</time></trkpt><trkpt lat="43.4768264" lon="11.1513551"><ele>133.0</ele><time>2026-04-06T14:53:25.156Z</time></trkpt><trkpt lat="43.4765891" lon="11.1514963"><ele>133.0</ele><time>2026-04-06T14:53:26.148Z</time></trkpt><trkpt lat="43.4763542" lon="11.1516322"><ele>128.5</ele><time>2026-04-06T14:53:27.149Z</time></trkpt><trkpt lat="43.4761192" lon="11.1517486"><ele>124.0</ele><time>2026-04-06T14:53:28.139Z</time></trkpt><trkpt lat="43.4758886" lon="11.1518557"><ele>124.0</ele><time>2026-04-06T14:53:29.152Z</time></trkpt><trkpt lat="43.4756502" lon="11.1519509"><ele>124.0</ele><time>2026-04-06T14:53:30.158Z</time></trkpt><trkpt lat="43.4754043" lon="11.1520145"><ele>121.0</ele><time>2026-04-06T14:53:31.157Z</time></trkpt><trkpt lat="43.4751528" lon="11.1520748"><ele>118.0</ele><time>2026-04-06T14:53:32.158Z</time></trkpt><trkpt lat="43.4749031" lon="11.1521293"><ele>118.0</ele><time>2026-04-06T14:53:33.156Z</time></trkpt><trkpt lat="43.4746529" lon="11.1522008"><ele>118.0</ele><time>2026-04-06T14:53:34.148Z</time></trkpt><trkpt lat="43.4744012" lon="11.1522926"><ele>116.0</ele><time>2026-04-06T14:53:35.151Z</time></trkpt><trkpt lat="43.4741555" lon="11.1524061"><ele>114.0</ele><time>2026-04-06T14:53:36.151Z</time></trkpt><trkpt lat="43.4739067" lon="11.1525216"><ele>111.0</ele><time>2026-04-06T14:53:37.156Z</time></trkpt><trkpt lat="43.4736581" lon="11.1526438"><ele>108.0</ele><time>2026-04-06T14:53:38.158Z</time></trkpt><trkpt lat="43.473409" lon="11.1527669"><ele>108.0</ele><time>2026-04-06T14:53:39.157Z</time></trkpt><trkpt lat="43.4731603" lon="11.1528852"><ele>108.0</ele><time>2026-04-06T14:53:40.152Z</time></trkpt><trkpt lat="43.4729162" lon="11.1529961"><ele>109.0</ele><time>2026-04-06T14:53:41.144Z</time></trkpt><trkpt lat="43.4726757" lon="11.1531087"><ele>110.0</ele><time>2026-04-06T14:53:42.141Z</time></trkpt><trkpt lat="43.4724347" lon="11.1532137"><ele>110.0</ele><time>2026-04-06T14:53:43.151Z</time></trkpt><trkpt lat="43.4721958" lon="11.1533249"><ele>110.0</ele><time>2026-04-06T14:53:44.159Z</time></trkpt><trkpt lat="43.4719544" lon="11.1534352"><ele>108.0</ele><time>2026-04-06T14:53:45.161Z</time></trkpt><trkpt lat="43.4717105" lon="11.1535496"><ele>106.0</ele><time>2026-04-06T14:53:46.164Z</time></trkpt><trkpt lat="43.4714714" lon="11.1536696"><ele>104.0</ele><time>2026-04-06T14:53:47.147Z</time></trkpt><trkpt lat="43.4712336" lon="11.1537928"><ele>102.0</ele><time>2026-04-06T14:53:48.173Z</time></trkpt><trkpt lat="43.4710008" lon="11.1539362"><ele>104.0</ele><time>2026-04-06T14:53:49.149Z</time></trkpt><trkpt lat="43.4707687" lon="11.154102"><ele>106.0</ele><time>2026-04-06T14:53:50.144Z</time></trkpt><trkpt lat="43.4705361" lon="11.154283"><ele>105.0</ele><time>2026-04-06T14:53:51.15Z</time></trkpt><trkpt lat="43.4703072" lon="11.1544657"><ele>104.0</ele><time>2026-04-06T14:53:52.157Z</time></trkpt><trkpt lat="43.4700835" lon="11.1546648"><ele>104.0</ele><time>2026-04-06T14:53:53.155Z</time></trkpt><trkpt lat="43.4698675" lon="11.1548691"><ele>104.0</ele><time>2026-04-06T14:53:54.148Z</time></trkpt><trkpt lat="43.4696594" lon="11.1550889"><ele>103.5</ele><time>2026-04-06T14:53:55.156Z</time></trkpt><trkpt lat="43.4694608" lon="11.1553129"><ele>103.0</ele><time>2026-04-06T14:53:56.163Z</time></trkpt><trkpt lat="43.4692622" lon="11.1555475"><ele>103.0</ele><time>2026-04-06T14:53:57.148Z</time></trkpt><trkpt lat="43.4690788" lon="11.1557996"><ele>103.0</ele><time>2026-04-06T14:53:58.161Z</time></trkpt><trkpt lat="43.468902" lon="11.1560586"><ele>103.0</ele><time>2026-04-06T14:53:59.148Z</time></trkpt><trkpt lat="43.4687287" lon="11.1563366"><ele>103.0</ele><time>2026-04-06T14:54:00.149Z</time></trkpt><trkpt lat="43.4685673" lon="11.1566359"><ele>103.0</ele><time>2026-04-06T14:54:01.152Z</time></trkpt><trkpt lat="43.4684203" lon="11.1569506"><ele>103.0</ele><time>2026-04-06T14:54:02.163Z</time></trkpt><trkpt lat="43.4682758" lon="11.157265"><ele>104.0</ele><time>2026-04-06T14:54:03.156Z</time></trkpt><trkpt lat="43.4681267" lon="11.1575847"><ele>105.0</ele><time>2026-04-06T14:54:04.153Z</time></trkpt><trkpt lat="43.4679842" lon="11.1579051"><ele>103.0</ele><time>2026-04-06T14:54:05.157Z</time></trkpt><trkpt lat="43.4678377" lon="11.1582295"><ele>101.0</ele><time>2026-04-06T14:54:06.162Z</time></trkpt><trkpt lat="43.4676911" lon="11.158545"><ele>101.0</ele><time>2026-04-06T14:54:07.149Z</time></trkpt><trkpt lat="43.467541" lon="11.1588607"><ele>101.0</ele><time>2026-04-06T14:54:08.161Z</time></trkpt><trkpt lat="43.4673961" lon="11.1591837"><ele>101.0</ele><time>2026-04-06T14:54:09.154Z</time></trkpt><trkpt lat="43.4672411" lon="11.1595021"><ele>101.0</ele><time>2026-04-06T14:54:10.15Z</time></trkpt><trkpt lat="43.4670914" lon="11.1598112"><ele>102.0</ele><time>2026-04-06T14:54:11.154Z</time></trkpt><trkpt lat="43.4669327" lon="11.160109"><ele>103.0</ele><time>2026-04-06T14:54:12.154Z</time></trkpt><trkpt lat="43.4667648" lon="11.1604001"><ele>103.0</ele><time>2026-04-06T14:54:13.158Z</time></trkpt><trkpt lat="43.4665893" lon="11.1606867"><ele>103.0</ele><time>2026-04-06T14:54:14.15Z</time></trkpt><trkpt lat="43.466403" lon="11.1609532"><ele>103.5</ele><time>2026-04-06T14:54:15.155Z</time></trkpt><trkpt lat="43.4662097" lon="11.1612166"><ele>104.0</ele><time>2026-04-06T14:54:16.153Z</time></trkpt><trkpt lat="43.4660108" lon="11.1614722"><ele>106.5</ele><time>2026-04-06T14:54:17.149Z</time></trkpt><trkpt lat="43.4658031" lon="11.1617167"><ele>109.0</ele><time>2026-04-06T14:54:18.148Z</time></trkpt><trkpt lat="43.4655874" lon="11.1619424"><ele>106.0</ele><time>2026-04-06T14:54:19.147Z</time></trkpt><trkpt lat="43.4653623" lon="11.1621507"><ele>103.0</ele><time>2026-04-06T14:54:20.148Z</time></trkpt><trkpt lat="43.4651332" lon="11.1623454"><ele>105.5</ele><time>2026-04-06T14:54:21.153Z</time></trkpt><trkpt lat="43.4648944" lon="11.1625239"><ele>108.0</ele><time>2026-04-06T14:54:22.15Z</time></trkpt><trkpt lat="43.4646492" lon="11.1626852"><ele>107.5</ele><time>2026-04-06T14:54:23.147Z</time></trkpt><trkpt lat="43.4643952" lon="11.162826"><ele>107.0</ele><time>2026-04-06T14:54:24.166Z</time></trkpt><trkpt lat="43.4641397" lon="11.1629599"><ele>107.0</ele><time>2026-04-06T14:54:25.151Z</time></trkpt><trkpt lat="43.4638797" lon="11.1630879"><ele>107.0</ele><time>2026-04-06T14:54:26.157Z</time></trkpt><trkpt lat="43.4636196" lon="11.1631988"><ele>108.0</ele><time>2026-04-06T14:54:27.15Z</time></trkpt><trkpt lat="43.4633522" lon="11.1632824"><ele>109.0</ele><time>2026-04-06T14:54:28.147Z</time></trkpt><trkpt lat="43.4630838" lon="11.1633461"><ele>109.0</ele><time>2026-04-06T14:54:29.14Z</time></trkpt><trkpt lat="43.4628137" lon="11.1633987"><ele>109.0</ele><time>2026-04-06T14:54:30.148Z</time></trkpt><trkpt lat="43.4625418" lon="11.1634424"><ele>109.0</ele><time>2026-04-06T14:54:31.159Z</time></trkpt><trkpt lat="43.4622715" lon="11.1634681"><ele>109.0</ele><time>2026-04-06T14:54:32.137Z</time></trkpt><trkpt lat="43.461995" lon="11.1634848"><ele>107.5</ele><time>2026-04-06T14:54:33.15Z</time></trkpt><trkpt lat="43.4617232" lon="11.1634977"><ele>106.0</ele><time>2026-04-06T14:54:34.157Z</time></trkpt><trkpt lat="43.4614525" lon="11.1635154"><ele>107.5</ele><time>2026-04-06T14:54:35.156Z</time></trkpt><trkpt lat="43.4611837" lon="11.1635336"><ele>109.0</ele><time>2026-04-06T14:54:36.141Z</time></trkpt><trkpt lat="43.4609105" lon="11.1635408"><ele>109.0</ele><time>2026-04-06T14:54:37.16Z</time></trkpt><trkpt lat="43.4606426" lon="11.1635266"><ele>109.0</ele><time>2026-04-06T14:54:38.141Z</time></trkpt><trkpt lat="43.4603762" lon="11.1634882"><ele>108.0</ele><time>2026-04-06T14:54:39.155Z</time></trkpt><trkpt lat="43.4601156" lon="11.1634268"><ele>107.0</ele><time>2026-04-06T14:54:40.153Z</time></trkpt><trkpt lat="43.4598546" lon="11.1633371"><ele>107.5</ele><time>2026-04-06T14:54:41.167Z</time></trkpt><trkpt lat="43.4596028" lon="11.1632386"><ele>108.0</ele><time>2026-04-06T14:54:42.148Z</time></trkpt><trkpt lat="43.4593476" lon="11.1631318"><ele>108.0</ele><time>2026-04-06T14:54:43.145Z</time></trkpt><trkpt lat="43.4590984" lon="11.1629956"><ele>108.0</ele><time>2026-04-06T14:54:44.158Z</time></trkpt><trkpt lat="43.4588598" lon="11.1628462"><ele>106.0</ele><time>2026-04-06T14:54:45.143Z</time></trkpt><trkpt lat="43.4586265" lon="11.1626682"><ele>104.0</ele><time>2026-04-06T14:54:46.163Z</time></trkpt><trkpt lat="43.4584119" lon="11.1624597"><ele>104.5</ele><time>2026-04-06T14:54:47.147Z</time></trkpt><trkpt lat="43.4581982" lon="11.1622391"><ele>105.0</ele><time>2026-04-06T14:54:48.144Z</time></trkpt><trkpt lat="43.4579871" lon="11.1619992"><ele>106.5</ele><time>2026-04-06T14:54:49.148Z</time></trkpt><trkpt lat="43.4577846" lon="11.1617503"><ele>108.0</ele><time>2026-04-06T14:54:50.143Z</time></trkpt><trkpt lat="43.4575906" lon="11.1614891"><ele>108.0</ele><time>2026-04-06T14:54:51.148Z</time></trkpt><trkpt lat="43.4573969" lon="11.1612211"><ele>108.0</ele><time>2026-04-06T14:54:52.16Z</time></trkpt><trkpt lat="43.4572089" lon="11.1609532"><ele>108.5</ele><time>2026-04-06T14:54:53.163Z</time></trkpt><trkpt lat="43.4570245" lon="11.1606995"><ele>109.0</ele><time>2026-04-06T14:54:54.146Z</time></trkpt><trkpt lat="43.4568466" lon="11.1604575"><ele>109.0</ele><time>2026-04-06T14:54:55.164Z</time></trkpt><trkpt lat="43.4566839" lon="11.1602358"><ele>109.0</ele><time>2026-04-06T14:54:56.148Z</time></trkpt><trkpt lat="43.4565209" lon="11.1600188"><ele>108.66666666666667</ele><time>2026-04-06T14:54:57.147Z</time></trkpt><trkpt lat="43.4563656" lon="11.1598057"><ele>108.33333333333334</ele><time>2026-04-06T14:54:58.141Z</time></trkpt><trkpt lat="43.4562099" lon="11.1595918"><ele>108.0</ele><time>2026-04-06T14:54:59.158Z</time></trkpt><trkpt lat="43.4560518" lon="11.1593822"><ele>108.5</ele><time>2026-04-06T14:55:00.149Z</time></trkpt><trkpt lat="43.455889" lon="11.1591597"><ele>109.0</ele><time>2026-04-06T14:55:01.155Z</time></trkpt><trkpt lat="43.4557226" lon="11.158932"><ele>109.0</ele><time>2026-04-06T14:55:02.156Z</time></trkpt><trkpt lat="43.4555469" lon="11.1586904"><ele>109.0</ele><time>2026-04-06T14:55:03.16Z</time></trkpt><trkpt lat="43.455356" lon="11.1584306"><ele>108.5</ele><time>2026-04-06T14:55:04.155Z</time></trkpt><trkpt lat="43.4551619" lon="11.1581543"><ele>108.0</ele><time>2026-04-06T14:55:05.154Z</time></trkpt><trkpt lat="43.4549581" lon="11.1578799"><ele>108.0</ele><time>2026-04-06T14:55:06.151Z</time></trkpt><trkpt lat="43.454762" lon="11.1575987"><ele>108.0</ele><time>2026-04-06T14:55:07.162Z</time></trkpt><trkpt lat="43.4545665" lon="11.1573334"><ele>109.0</ele><time>2026-04-06T14:55:08.164Z</time></trkpt><trkpt lat="43.4543748" lon="11.1570685"><ele>110.0</ele><time>2026-04-06T14:55:09.143Z</time></trkpt><trkpt lat="43.4541813" lon="11.1568032"><ele>110.0</ele><time>2026-04-06T14:55:10.157Z</time></trkpt><trkpt lat="43.453986" lon="11.1565442"><ele>110.0</ele><time>2026-04-06T14:55:11.157Z</time></trkpt><trkpt lat="43.4537904" lon="11.1562928"><ele>110.5</ele><time>2026-04-06T14:55:12.151Z</time></trkpt><trkpt lat="43.4535934" lon="11.1560563"><ele>111.0</ele><time>2026-04-06T14:55:13.156Z</time></trkpt><trkpt lat="43.4533872" lon="11.1558339"><ele>111.0</ele><time>2026-04-06T14:55:14.148Z</time></trkpt><trkpt lat="43.4531685" lon="11.1556298"><ele>111.0</ele><time>2026-04-06T14:55:15.185Z</time></trkpt><trkpt lat="43.4529411" lon="11.1554413"><ele>111.0</ele><time>2026-04-06T14:55:16.153Z</time></trkpt><trkpt lat="43.4527107" lon="11.1552577"><ele>111.0</ele><time>2026-04-06T14:55:17.156Z</time></trkpt><trkpt lat="43.4524729" lon="11.1550844"><ele>111.0</ele><time>2026-04-06T14:55:18.141Z</time></trkpt><trkpt lat="43.4522277" lon="11.1549226"><ele>111.0</ele><time>2026-04-06T14:55:19.155Z</time></trkpt><trkpt lat="43.4519756" lon="11.154773"><ele>111.0</ele><time>2026-04-06T14:55:20.156Z</time></trkpt><trkpt lat="43.4517138" lon="11.1546255"><ele>111.0</ele><time>2026-04-06T14:55:21.155Z</time></trkpt><trkpt lat="43.4514492" lon="11.1544812"><ele>116.0</ele><time>2026-04-06T14:55:22.153Z</time></trkpt><trkpt lat="43.4511758" lon="11.1543354"><ele>121.0</ele><time>2026-04-06T14:55:23.157Z</time></trkpt><trkpt lat="43.4508986" lon="11.1541955"><ele>121.0</ele><time>2026-04-06T14:55:24.151Z</time></trkpt><trkpt lat="43.4506262" lon="11.1540474"><ele>121.0</ele><time>2026-04-06T14:55:25.147Z</time></trkpt><trkpt lat="43.4503669" lon="11.1539015"><ele>122.5</ele><time>2026-04-06T14:55:26.153Z</time></trkpt><trkpt lat="43.4501059" lon="11.153755"><ele>124.0</ele><time>2026-04-06T14:55:27.145Z</time></trkpt><trkpt lat="43.449845" lon="11.1536058"><ele>122.5</ele><time>2026-04-06T14:55:28.167Z</time></trkpt><trkpt lat="43.4495832" lon="11.1534643"><ele>121.0</ele><time>2026-04-06T14:55:29.163Z</time></trkpt><trkpt lat="43.4493236" lon="11.1533096"><ele>116.5</ele><time>2026-04-06T14:55:30.15Z</time></trkpt><trkpt lat="43.4490738" lon="11.1531383"><ele>112.0</ele><time>2026-04-06T14:55:31.148Z</time></trkpt><trkpt lat="43.4488271" lon="11.1529614"><ele>113.0</ele><time>2026-04-06T14:55:32.148Z</time></trkpt><trkpt lat="43.4485862" lon="11.1527688"><ele>114.0</ele><time>2026-04-06T14:55:33.15Z</time></trkpt><trkpt lat="43.4483533" lon="11.1525652"><ele>114.0</ele><time>2026-04-06T14:55:34.145Z</time></trkpt><trkpt lat="43.4481226" lon="11.1523377"><ele>114.0</ele><time>2026-04-06T14:55:35.143Z</time></trkpt><trkpt lat="43.447901" lon="11.1521155"><ele>115.5</ele><time>2026-04-06T14:55:36.158Z</time></trkpt><trkpt lat="43.4476779" lon="11.1518772"><ele>117.0</ele><time>2026-04-06T14:55:37.151Z</time></trkpt><trkpt lat="43.4474527" lon="11.1516439"><ele>119.0</ele><time>2026-04-06T14:55:38.155Z</time></trkpt><trkpt lat="43.4472329" lon="11.1514084"><ele>121.0</ele><time>2026-04-06T14:55:39.152Z</time></trkpt><trkpt lat="43.4470148" lon="11.1511733"><ele>121.0</ele><time>2026-04-06T14:55:40.161Z</time></trkpt><trkpt lat="43.4467952" lon="11.1509552"><ele>121.0</ele><time>2026-04-06T14:55:41.157Z</time></trkpt><trkpt lat="43.446572" lon="11.1507497"><ele>123.5</ele><time>2026-04-06T14:55:42.154Z</time></trkpt><trkpt lat="43.4463367" lon="11.150565"><ele>126.0</ele><time>2026-04-06T14:55:43.156Z</time></trkpt><trkpt lat="43.446094" lon="11.1504102"><ele>127.5</ele><time>2026-04-06T14:55:44.147Z</time></trkpt><trkpt lat="43.4458442" lon="11.1502782"><ele>129.0</ele><time>2026-04-06T14:55:45.157Z</time></trkpt><trkpt lat="43.4455941" lon="11.1501612"><ele>127.5</ele><time>2026-04-06T14:55:46.16Z</time></trkpt><trkpt lat="43.445344" lon="11.1500604"><ele>126.0</ele><time>2026-04-06T14:55:47.157Z</time></trkpt><trkpt lat="43.4450876" lon="11.1499756"><ele>126.0</ele><time>2026-04-06T14:55:48.152Z</time></trkpt><trkpt lat="43.4448287" lon="11.1499068"><ele>126.0</ele><time>2026-04-06T14:55:49.155Z</time></trkpt><trkpt lat="43.4445678" lon="11.1498733"><ele>129.5</ele><time>2026-04-06T14:55:50.158Z</time></trkpt><trkpt lat="43.4443019" lon="11.1498595"><ele>133.0</ele><time>2026-04-06T14:55:51.161Z</time></trkpt><trkpt lat="43.4440344" lon="11.1498601"><ele>132.5</ele><time>2026-04-06T14:55:52.153Z</time></trkpt><trkpt lat="43.443762" lon="11.1498691"><ele>132.0</ele><time>2026-04-06T14:55:53.163Z</time></trkpt><trkpt lat="43.4434885" lon="11.1498821"><ele>132.0</ele><time>2026-04-06T14:55:54.154Z</time></trkpt><trkpt lat="43.4432124" lon="11.149893"><ele>132.0</ele><time>2026-04-06T14:55:55.15Z</time></trkpt><trkpt lat="43.4429354" lon="11.1499005"><ele>134.5</ele><time>2026-04-06T14:55:56.154Z</time></trkpt><trkpt lat="43.4426628" lon="11.149902"><ele>137.0</ele><time>2026-04-06T14:55:57.152Z</time></trkpt><trkpt lat="43.4423966" lon="11.1499104"><ele>140.0</ele><time>2026-04-06T14:55:58.142Z</time></trkpt><trkpt lat="43.4421286" lon="11.1499159"><ele>143.0</ele><time>2026-04-06T14:55:59.152Z</time></trkpt><trkpt lat="43.4418566" lon="11.1499205"><ele>143.0</ele><time>2026-04-06T14:56:00.159Z</time></trkpt><trkpt lat="43.4415855" lon="11.1499248"><ele>143.0</ele><time>2026-04-06T14:56:01.149Z</time></trkpt><trkpt lat="43.4413158" lon="11.1499248"><ele>144.5</ele><time>2026-04-06T14:56:02.151Z</time></trkpt><trkpt lat="43.4410523" lon="11.1499095"><ele>146.0</ele><time>2026-04-06T14:56:03.146Z</time></trkpt><trkpt lat="43.440789" lon="11.1498812"><ele>153.0</ele><time>2026-04-06T14:56:04.156Z</time></trkpt><trkpt lat="43.4405269" lon="11.1498321"><ele>160.0</ele><time>2026-04-06T14:56:05.154Z</time></trkpt><trkpt lat="43.4402664" lon="11.1497469"><ele>160.0</ele><time>2026-04-06T14:56:06.152Z</time></trkpt><trkpt lat="43.4400074" lon="11.1496287"><ele>160.0</ele><time>2026-04-06T14:56:07.158Z</time></trkpt><trkpt lat="43.4397552" lon="11.1494841"><ele>160.0</ele><time>2026-04-06T14:56:08.144Z</time></trkpt><trkpt lat="43.4395049" lon="11.149327"><ele>160.0</ele><time>2026-04-06T14:56:09.148Z</time></trkpt><trkpt lat="43.4392589" lon="11.1491568"><ele>163.0</ele><time>2026-04-06T14:56:10.147Z</time></trkpt><trkpt lat="43.4390263" lon="11.1489736"><ele>166.0</ele><time>2026-04-06T14:56:11.151Z</time></trkpt><trkpt lat="43.438806" lon="11.1487649"><ele>164.0</ele><time>2026-04-06T14:56:12.158Z</time></trkpt><trkpt lat="43.4385974" lon="11.1485353"><ele>162.0</ele><time>2026-04-06T14:56:13.155Z</time></trkpt><trkpt lat="43.438391" lon="11.148301"><ele>160.0</ele><time>2026-04-06T14:56:14.146Z</time></trkpt><trkpt lat="43.4381859" lon="11.1480643"><ele>158.0</ele><time>2026-04-06T14:56:15.146Z</time></trkpt><trkpt lat="43.4379768" lon="11.1478328"><ele>159.5</ele><time>2026-04-06T14:56:16.153Z</time></trkpt><trkpt lat="43.4377645" lon="11.1476142"><ele>161.0</ele><time>2026-04-06T14:56:17.143Z</time></trkpt><trkpt lat="43.4375456" lon="11.1474061"><ele>157.5</ele><time>2026-04-06T14:56:18.142Z</time></trkpt><trkpt lat="43.4373162" lon="11.1472222"><ele>154.0</ele><time>2026-04-06T14:56:19.16Z</time></trkpt><trkpt lat="43.4370791" lon="11.1470616"><ele>153.5</ele><time>2026-04-06T14:56:20.14Z</time></trkpt><trkpt lat="43.4368338" lon="11.1469204"><ele>153.0</ele><time>2026-04-06T14:56:21.142Z</time></trkpt><trkpt lat="43.4365837" lon="11.1467931"><ele>153.0</ele><time>2026-04-06T14:56:22.148Z</time></trkpt><trkpt lat="43.4363336" lon="11.1466602"><ele>153.0</ele><time>2026-04-06T14:56:23.152Z</time></trkpt><trkpt lat="43.4360797" lon="11.1465274"><ele>148.5</ele><time>2026-04-06T14:56:24.145Z</time></trkpt><trkpt lat="43.4358212" lon="11.1464011"><ele>144.0</ele><time>2026-04-06T14:56:25.147Z</time></trkpt><trkpt lat="43.4355653" lon="11.1462721"><ele>142.0</ele><time>2026-04-06T14:56:26.145Z</time></trkpt><trkpt lat="43.435308" lon="11.1461292"><ele>140.0</ele><time>2026-04-06T14:56:27.148Z</time></trkpt><trkpt lat="43.4350493" lon="11.1459949"><ele>140.0</ele><time>2026-04-06T14:56:28.15Z</time></trkpt><trkpt lat="43.4347903" lon="11.1458541"><ele>140.0</ele><time>2026-04-06T14:56:29.168Z</time></trkpt><trkpt lat="43.4345334" lon="11.145719"><ele>134.0</ele><time>2026-04-06T14:56:30.142Z</time></trkpt><trkpt lat="43.4342669" lon="11.1455852"><ele>128.0</ele><time>2026-04-06T14:56:31.148Z</time></trkpt><trkpt lat="43.434002" lon="11.1454515"><ele>131.0</ele><time>2026-04-06T14:56:32.159Z</time></trkpt><trkpt lat="43.4337355" lon="11.1453145"><ele>134.0</ele><time>2026-04-06T14:56:33.15Z</time></trkpt><trkpt lat="43.4334713" lon="11.1451792"><ele>134.0</ele><time>2026-04-06T14:56:34.149Z</time></trkpt><trkpt lat="43.4332089" lon="11.1450445"><ele>134.0</ele><time>2026-04-06T14:56:35.156Z</time></trkpt><trkpt lat="43.4329546" lon="11.1449139"><ele>139.0</ele><time>2026-04-06T14:56:36.151Z</time></trkpt><trkpt lat="43.4326976" lon="11.1447881"><ele>144.0</ele><time>2026-04-06T14:56:37.157Z</time></trkpt><trkpt lat="43.4324416" lon="11.1446691"><ele>144.0</ele><time>2026-04-06T14:56:38.159Z</time></trkpt><trkpt lat="43.4321891" lon="11.1445564"><ele>144.0</ele><time>2026-04-06T14:56:39.151Z</time></trkpt><trkpt lat="43.4319322" lon="11.1444599"><ele>144.0</ele><time>2026-04-06T14:56:40.158Z</time></trkpt><trkpt lat="43.4316752" lon="11.1443794"><ele>144.0</ele><time>2026-04-06T14:56:41.159Z</time></trkpt><trkpt lat="43.4314114" lon="11.1443204"><ele>145.5</ele><time>2026-04-06T14:56:42.153Z</time></trkpt><trkpt lat="43.4311383" lon="11.1442965"><ele>147.0</ele><time>2026-04-06T14:56:43.149Z</time></trkpt><trkpt lat="43.4308597" lon="11.1442965"><ele>147.0</ele><time>2026-04-06T14:56:44.149Z</time></trkpt><trkpt lat="43.4305705" lon="11.1442973"><ele>147.0</ele><time>2026-04-06T14:56:45.153Z</time></trkpt><trkpt lat="43.4302833" lon="11.1442973"><ele>150.0</ele><time>2026-04-06T14:56:46.146Z</time></trkpt><trkpt lat="43.4299975" lon="11.1442979"><ele>153.0</ele><time>2026-04-06T14:56:47.138Z</time></trkpt><trkpt lat="43.4297125" lon="11.1443039"><ele>155.0</ele><time>2026-04-06T14:56:48.155Z</time></trkpt><trkpt lat="43.4294305" lon="11.144318"><ele>157.0</ele><time>2026-04-06T14:56:49.138Z</time></trkpt><trkpt lat="43.4291468" lon="11.1443299"><ele>157.0</ele><time>2026-04-06T14:56:50.155Z</time></trkpt><trkpt lat="43.4288686" lon="11.1443405"><ele>157.0</ele><time>2026-04-06T14:56:51.151Z</time></trkpt><trkpt lat="43.4285938" lon="11.1443453"><ele>158.5</ele><time>2026-04-06T14:56:52.145Z</time></trkpt><trkpt lat="43.4283194" lon="11.144356"><ele>160.0</ele><time>2026-04-06T14:56:53.145Z</time></trkpt><trkpt lat="43.4280459" lon="11.1443705"><ele>161.0</ele><time>2026-04-06T14:56:54.149Z</time></trkpt><trkpt lat="43.4277677" lon="11.1443824"><ele>162.0</ele><time>2026-04-06T14:56:55.155Z</time></trkpt><trkpt lat="43.427491" lon="11.144402"><ele>162.0</ele><time>2026-04-06T14:56:56.154Z</time></trkpt><trkpt lat="43.4272127" lon="11.144441"><ele>162.0</ele><time>2026-04-06T14:56:57.152Z</time></trkpt><trkpt lat="43.4269367" lon="11.144501"><ele>163.5</ele><time>2026-04-06T14:56:58.156Z</time></trkpt><trkpt lat="43.4266604" lon="11.1445822"><ele>165.0</ele><time>2026-04-06T14:56:59.153Z</time></trkpt><trkpt lat="43.4263873" lon="11.1446805"><ele>163.5</ele><time>2026-04-06T14:57:00.143Z</time></trkpt><trkpt lat="43.4261147" lon="11.1448021"><ele>162.0</ele><time>2026-04-06T14:57:01.144Z</time></trkpt><trkpt lat="43.4258496" lon="11.144939"><ele>162.0</ele><time>2026-04-06T14:57:02.133Z</time></trkpt><trkpt lat="43.4255874" lon="11.1450993"><ele>162.0</ele><time>2026-04-06T14:57:03.141Z</time></trkpt><trkpt lat="43.4253324" lon="11.1452836"><ele>166.0</ele><time>2026-04-06T14:57:04.146Z</time></trkpt><trkpt lat="43.4250844" lon="11.1454896"><ele>170.0</ele><time>2026-04-06T14:57:05.147Z</time></trkpt><trkpt lat="43.4248444" lon="11.1457114"><ele>172.5</ele><time>2026-04-06T14:57:06.158Z</time></trkpt><trkpt lat="43.4246153" lon="11.1459475"><ele>175.0</ele><time>2026-04-06T14:57:07.16Z</time></trkpt><trkpt lat="43.4243926" lon="11.1462019"><ele>175.0</ele><time>2026-04-06T14:57:08.145Z</time></trkpt><trkpt lat="43.4241811" lon="11.1464726"><ele>175.0</ele><time>2026-04-06T14:57:09.163Z</time></trkpt><trkpt lat="43.4239819" lon="11.1467517"><ele>178.0</ele><time>2026-04-06T14:57:10.155Z</time></trkpt><trkpt lat="43.4237835" lon="11.1470481"><ele>181.0</ele><time>2026-04-06T14:57:11.152Z</time></trkpt><trkpt lat="43.4235885" lon="11.1473407"><ele>180.5</ele><time>2026-04-06T14:57:12.148Z</time></trkpt><trkpt lat="43.4233888" lon="11.1476316"><ele>180.0</ele><time>2026-04-06T14:57:13.15Z</time></trkpt><trkpt lat="43.4231819" lon="11.14793"><ele>184.5</ele><time>2026-04-06T14:57:14.158Z</time></trkpt><trkpt lat="43.4229669" lon="11.1482397"><ele>189.0</ele><time>2026-04-06T14:57:15.164Z</time></trkpt><trkpt lat="43.422747" lon="11.1485658"><ele>189.0</ele><time>2026-04-06T14:57:16.156Z</time></trkpt><trkpt lat="43.4225177" lon="11.1489009"><ele>189.0</ele><time>2026-04-06T14:57:17.149Z</time></trkpt><trkpt lat="43.4222809" lon="11.1492416"><ele>194.0</ele><time>2026-04-06T14:57:18.155Z</time></trkpt><trkpt lat="43.4220413" lon="11.1495784"><ele>199.0</ele><time>2026-04-06T14:57:19.162Z</time></trkpt><trkpt lat="43.4217995" lon="11.1499161"><ele>199.5</ele><time>2026-04-06T14:57:20.151Z</time></trkpt><trkpt lat="43.4215543" lon="11.1502757"><ele>200.0</ele><time>2026-04-06T14:57:21.154Z</time></trkpt><trkpt lat="43.421306" lon="11.1506331"><ele>204.0</ele><time>2026-04-06T14:57:22.152Z</time></trkpt><trkpt lat="43.4210524" lon="11.150994"><ele>208.0</ele><time>2026-04-06T14:57:23.153Z</time></trkpt><trkpt lat="43.4207997" lon="11.1513571"><ele>207.5</ele><time>2026-04-06T14:57:24.14Z</time></trkpt><trkpt lat="43.4205434" lon="11.1517281"><ele>207.0</ele><time>2026-04-06T14:57:25.154Z</time></trkpt><trkpt lat="43.4202919" lon="11.1520954"><ele>211.0</ele><time>2026-04-06T14:57:26.144Z</time></trkpt><trkpt lat="43.4200339" lon="11.1524655"><ele>215.0</ele><time>2026-04-06T14:57:27.147Z</time></trkpt><trkpt lat="43.4197732" lon="11.1528356"><ele>218.5</ele><time>2026-04-06T14:57:28.15Z</time></trkpt><trkpt lat="43.4195128" lon="11.153207"><ele>222.0</ele><time>2026-04-06T14:57:29.155Z</time></trkpt><trkpt lat="43.4192524" lon="11.1535843"><ele>222.0</ele><time>2026-04-06T14:57:30.154Z</time></trkpt><trkpt lat="43.4189877" lon="11.1539606"><ele>222.0</ele><time>2026-04-06T14:57:31.164Z</time></trkpt><trkpt lat="43.4187265" lon="11.1543259"><ele>225.0</ele><time>2026-04-06T14:57:32.153Z</time></trkpt><trkpt lat="43.418476" lon="11.1546768"><ele>228.0</ele><time>2026-04-06T14:57:33.146Z</time></trkpt><trkpt lat="43.4182389" lon="11.1550176"><ele>228.5</ele><time>2026-04-06T14:57:34.158Z</time></trkpt><trkpt lat="43.4180152" lon="11.1553279"><ele>229.0</ele><time>2026-04-06T14:57:35.156Z</time></trkpt><trkpt lat="43.41781" lon="11.1556233"><ele>230.5</ele><time>2026-04-06T14:57:36.148Z</time></trkpt><trkpt lat="43.4176099" lon="11.1559124"><ele>232.0</ele><time>2026-04-06T14:57:37.16Z</time></trkpt><trkpt lat="43.4174117" lon="11.1561945"><ele>232.0</ele><time>2026-04-06T14:57:38.151Z</time></trkpt><trkpt lat="43.4172128" lon="11.1564806"><ele>232.0</ele><time>2026-04-06T14:57:39.149Z</time></trkpt><trkpt lat="43.4170193" lon="11.1567621"><ele>233.0</ele><time>2026-04-06T14:57:40.15Z</time></trkpt><trkpt lat="43.4168309" lon="11.1570321"><ele>234.0</ele><time>2026-04-06T14:57:41.136Z</time></trkpt><trkpt lat="43.4166483" lon="11.1572838"><ele>233.5</ele><time>2026-04-06T14:57:42.137Z</time></trkpt><trkpt lat="43.4164786" lon="11.1575284"><ele>233.0</ele><time>2026-04-06T14:57:43.136Z</time></trkpt><trkpt lat="43.4163157" lon="11.1577641"><ele>233.0</ele><time>2026-04-06T14:57:44.142Z</time></trkpt><trkpt lat="43.4161609" lon="11.1579951"><ele>233.0</ele><time>2026-04-06T14:57:45.143Z</time></trkpt><trkpt lat="43.416002" lon="11.1582277"><ele>232.0</ele><time>2026-04-06T14:57:46.136Z</time></trkpt><trkpt lat="43.4158367" lon="11.1584652"><ele>231.0</ele><time>2026-04-06T14:57:47.147Z</time></trkpt><trkpt lat="43.415667" lon="11.1587041"><ele>231.0</ele><time>2026-04-06T14:57:48.153Z</time></trkpt><trkpt lat="43.4154983" lon="11.1589434"><ele>231.0</ele><time>2026-04-06T14:57:49.151Z</time></trkpt><trkpt lat="43.4153316" lon="11.1591819"><ele>230.5</ele><time>2026-04-06T14:57:50.147Z</time></trkpt><trkpt lat="43.4151689" lon="11.1594165"><ele>230.0</ele><time>2026-04-06T14:57:51.154Z</time></trkpt><trkpt lat="43.4150082" lon="11.1596508"><ele>229.5</ele><time>2026-04-06T14:57:52.155Z</time></trkpt><trkpt lat="43.4148489" lon="11.1598792"><ele>229.0</ele><time>2026-04-06T14:57:53.158Z</time></trkpt><trkpt lat="43.4146925" lon="11.1600981"><ele>229.0</ele><time>2026-04-06T14:57:54.156Z</time></trkpt><trkpt lat="43.4145433" lon="11.1603138"><ele>229.0</ele><time>2026-04-06T14:57:55.16Z</time></trkpt><trkpt lat="43.4144033" lon="11.1605142"><ele>229.0</ele><time>2026-04-06T14:57:56.152Z</time></trkpt><trkpt lat="43.4142624" lon="11.1607216"><ele>229.66666666666666</ele><time>2026-04-06T14:57:57.145Z</time></trkpt><trkpt lat="43.414117" lon="11.1609335"><ele>230.33333333333331</ele><time>2026-04-06T14:57:58.15Z</time></trkpt><trkpt lat="43.4139713" lon="11.161144"><ele>231.0</ele><time>2026-04-06T14:57:59.145Z</time></trkpt><trkpt lat="43.4138292" lon="11.1613585"><ele>230.0</ele><time>2026-04-06T14:58:00.146Z</time></trkpt><trkpt lat="43.4136852" lon="11.1615713"><ele>229.0</ele><time>2026-04-06T14:58:01.148Z</time></trkpt><trkpt lat="43.4135485" lon="11.161782"><ele>228.0</ele><time>2026-04-06T14:58:02.147Z</time></trkpt><trkpt lat="43.4133983" lon="11.1619926"><ele>228.0</ele><time>2026-04-06T14:58:03.157Z</time></trkpt><trkpt lat="43.4132432" lon="11.1622159"><ele>228.0</ele><time>2026-04-06T14:58:04.143Z</time></trkpt><trkpt lat="43.4130827" lon="11.1624476"><ele>227.5</ele><time>2026-04-06T14:58:05.149Z</time></trkpt><trkpt lat="43.4129112" lon="11.1626927"><ele>227.0</ele><time>2026-04-06T14:58:06.146Z</time></trkpt><trkpt lat="43.4127368" lon="11.1629465"><ele>226.0</ele><time>2026-04-06T14:58:07.147Z</time></trkpt><trkpt lat="43.4125652" lon="11.1632072"><ele>225.0</ele><time>2026-04-06T14:58:08.158Z</time></trkpt><trkpt lat="43.4123903" lon="11.1634633"><ele>225.0</ele><time>2026-04-06T14:58:09.147Z</time></trkpt><trkpt lat="43.4122099" lon="11.1637203"><ele>225.0</ele><time>2026-04-06T14:58:10.153Z</time></trkpt><trkpt lat="43.4120298" lon="11.1639849"><ele>225.5</ele><time>2026-04-06T14:58:11.141Z</time></trkpt><trkpt lat="43.4118526" lon="11.1642481"><ele>226.0</ele><time>2026-04-06T14:58:12.154Z</time></trkpt><trkpt lat="43.4116789" lon="11.1645258"><ele>226.0</ele><time>2026-04-06T14:58:13.159Z</time></trkpt><trkpt lat="43.4115133" lon="11.1648104"><ele>226.0</ele><time>2026-04-06T14:58:14.142Z</time></trkpt><trkpt lat="43.4113598" lon="11.1651041"><ele>226.0</ele><time>2026-04-06T14:58:15.156Z</time></trkpt><trkpt lat="43.4112093" lon="11.1654005"><ele>226.0</ele><time>2026-04-06T14:58:16.154Z</time></trkpt><trkpt lat="43.4110646" lon="11.1657027"><ele>226.5</ele><time>2026-04-06T14:58:17.152Z</time></trkpt><trkpt lat="43.410921" lon="11.1660215"><ele>227.0</ele><time>2026-04-06T14:58:18.15Z</time></trkpt><trkpt lat="43.4107849" lon="11.1663505"><ele>226.5</ele><time>2026-04-06T14:58:19.158Z</time></trkpt><trkpt lat="43.4106529" lon="11.1666844"><ele>226.0</ele><time>2026-04-06T14:58:20.143Z</time></trkpt><trkpt lat="43.4105334" lon="11.1670241"><ele>226.5</ele><time>2026-04-06T14:58:21.159Z</time></trkpt><trkpt lat="43.4104216" lon="11.1673709"><ele>227.0</ele><time>2026-04-06T14:58:22.155Z</time></trkpt><trkpt lat="43.4103139" lon="11.1677149"><ele>227.0</ele><time>2026-04-06T14:58:23.159Z</time></trkpt><trkpt lat="43.4102109" lon="11.1680634"><ele>227.0</ele><time>2026-04-06T14:58:24.15Z</time></trkpt><trkpt lat="43.410106" lon="11.1684204"><ele>226.0</ele><time>2026-04-06T14:58:25.15Z</time></trkpt><trkpt lat="43.4100082" lon="11.1687786"><ele>225.0</ele><time>2026-04-06T14:58:26.16Z</time></trkpt><trkpt lat="43.4099048" lon="11.1691296"><ele>224.5</ele><time>2026-04-06T14:58:27.155Z</time></trkpt><trkpt lat="43.4098057" lon="11.1694845"><ele>224.0</ele><time>2026-04-06T14:58:28.152Z</time></trkpt><trkpt lat="43.4097047" lon="11.1698278"><ele>223.0</ele><time>2026-04-06T14:58:29.164Z</time></trkpt><trkpt lat="43.4096125" lon="11.1701521"><ele>222.0</ele><time>2026-04-06T14:58:30.167Z</time></trkpt><trkpt lat="43.4095276" lon="11.170467"><ele>222.66666666666669</ele><time>2026-04-06T14:58:31.168Z</time></trkpt><trkpt lat="43.4094395" lon="11.170754"><ele>223.33333333333334</ele><time>2026-04-06T14:58:32.176Z</time></trkpt><trkpt lat="43.4093524" lon="11.1710257"><ele>224.0</ele><time>2026-04-06T14:58:33.163Z</time></trkpt><trkpt lat="43.4092701" lon="11.1712957"><ele>224.0</ele><time>2026-04-06T14:58:34.144Z</time></trkpt><trkpt lat="43.4091895" lon="11.1715561"><ele>224.0</ele><time>2026-04-06T14:58:35.145Z</time></trkpt><trkpt lat="43.4091164" lon="11.1718052"><ele>224.0</ele><time>2026-04-06T14:58:36.147Z</time></trkpt><trkpt lat="43.4090408" lon="11.1720497"><ele>224.0</ele><time>2026-04-06T14:58:37.153Z</time></trkpt><trkpt lat="43.4089772" lon="11.1722858"><ele>224.0</ele><time>2026-04-06T14:58:38.148Z</time></trkpt><trkpt lat="43.4089115" lon="11.1725116"><ele>224.0</ele><time>2026-04-06T14:58:39.149Z</time></trkpt><trkpt lat="43.4088485" lon="11.1727288"><ele>223.66666666666669</ele><time>2026-04-06T14:58:40.156Z</time></trkpt><trkpt lat="43.4087847" lon="11.1729364"><ele>223.33333333333331</ele><time>2026-04-06T14:58:41.149Z</time></trkpt><trkpt lat="43.4087225" lon="11.1731484"><ele>223.0</ele><time>2026-04-06T14:58:42.153Z</time></trkpt><trkpt lat="43.4086569" lon="11.1733653"><ele>223.0</ele><time>2026-04-06T14:58:43.161Z</time></trkpt><trkpt lat="43.4085949" lon="11.1735763"><ele>223.0</ele><time>2026-04-06T14:58:44.147Z</time></trkpt><trkpt lat="43.4085358" lon="11.1737726"><ele>223.0</ele><time>2026-04-06T14:58:45.161Z</time></trkpt><trkpt lat="43.4084797" lon="11.1739564"><ele>223.5</ele><time>2026-04-06T14:58:46.154Z</time></trkpt><trkpt lat="43.408423" lon="11.1741343"><ele>224.0</ele><time>2026-04-06T14:58:47.172Z</time></trkpt><trkpt lat="43.4083706" lon="11.1742973"><ele>224.5</ele><time>2026-04-06T14:58:48.154Z</time></trkpt><trkpt lat="43.4083159" lon="11.1744463"><ele>225.0</ele><time>2026-04-06T14:58:49.151Z</time></trkpt><trkpt lat="43.408269" lon="11.1745744"><ele>225.0</ele><time>2026-04-06T14:58:50.146Z</time></trkpt><trkpt lat="43.4082321" lon="11.1746951"><ele>225.0</ele><time>2026-04-06T14:58:51.16Z</time></trkpt><trkpt lat="43.4082004" lon="11.1747984"><ele>225.0</ele><time>2026-04-06T14:58:52.149Z</time></trkpt><trkpt lat="43.4081585" lon="11.174916"><ele>225.0</ele><time>2026-04-06T14:58:54.146Z</time></trkpt><trkpt lat="43.4081215" lon="11.1750455"><ele>225.0</ele><time>2026-04-06T15:02:01.144Z</time></trkpt><trkpt lat="43.4080991" lon="11.1751382"><ele>225.0</ele><time>2026-04-06T15:02:02.164Z</time></trkpt><trkpt lat="43.4080686" lon="11.1752587"><ele>225.5</ele><time>2026-04-06T15:02:03.159Z</time></trkpt><trkpt lat="43.4080297" lon="11.1753898"><ele>226.0</ele><time>2026-04-06T15:02:04.155Z</time></trkpt><trkpt lat="43.4079841" lon="11.1755529"><ele>226.5</ele><time>2026-04-06T15:02:05.16Z</time></trkpt><trkpt lat="43.4079329" lon="11.1757472"><ele>227.0</ele><time>2026-04-06T15:02:06.15Z</time></trkpt><trkpt lat="43.4078767" lon="11.1759613"><ele>224.33333333333334</ele><time>2026-04-06T15:02:07.159Z</time></trkpt><trkpt lat="43.4078062" lon="11.1762085"><ele>221.66666666666669</ele><time>2026-04-06T15:02:08.165Z</time></trkpt><trkpt lat="43.4077353" lon="11.1764849"><ele>219.0</ele><time>2026-04-06T15:02:09.147Z</time></trkpt><trkpt lat="43.4076575" lon="11.1767869"><ele>219.0</ele><time>2026-04-06T15:02:10.156Z</time></trkpt><trkpt lat="43.4075741" lon="11.1770879"><ele>219.0</ele><time>2026-04-06T15:02:11.145Z</time></trkpt><trkpt lat="43.4074819" lon="11.1773924"><ele>220.5</ele><time>2026-04-06T15:02:12.158Z</time></trkpt><trkpt lat="43.407381" lon="11.1777116"><ele>222.0</ele><time>2026-04-06T15:02:13.148Z</time></trkpt><trkpt lat="43.4072694" lon="11.1780383"><ele>219.0</ele><time>2026-04-06T15:02:14.152Z</time></trkpt><trkpt lat="43.4071584" lon="11.1783667"><ele>216.0</ele><time>2026-04-06T15:02:15.156Z</time></trkpt><trkpt lat="43.4070305" lon="11.1786739"><ele>216.0</ele><time>2026-04-06T15:02:16.158Z</time></trkpt><trkpt lat="43.4069077" lon="11.1789801"><ele>216.0</ele><time>2026-04-06T15:02:17.15Z</time></trkpt><trkpt lat="43.4067808" lon="11.1792865"><ele>217.0</ele><time>2026-04-06T15:02:18.166Z</time></trkpt><trkpt lat="43.406654" lon="11.1795887"><ele>218.0</ele><time>2026-04-06T15:02:19.155Z</time></trkpt><trkpt lat="43.4065283" lon="11.179883"><ele>217.5</ele><time>2026-04-06T15:02:20.144Z</time></trkpt><trkpt lat="43.4063956" lon="11.1801739"><ele>217.0</ele><time>2026-04-06T15:02:21.162Z</time></trkpt><trkpt lat="43.4062622" lon="11.1804692"><ele>220.0</ele><time>2026-04-06T15:02:22.154Z</time></trkpt><trkpt lat="43.4061288" lon="11.1807688"><ele>223.0</ele><time>2026-04-06T15:02:23.159Z</time></trkpt><trkpt lat="43.4059858" lon="11.1810687"><ele>223.0</ele><time>2026-04-06T15:02:24.15Z</time></trkpt><trkpt lat="43.4058406" lon="11.181375"><ele>223.0</ele><time>2026-04-06T15:02:25.151Z</time></trkpt><trkpt lat="43.4056938" lon="11.1816804"><ele>223.5</ele><time>2026-04-06T15:02:26.154Z</time></trkpt><trkpt lat="43.4055494" lon="11.1819895"><ele>224.0</ele><time>2026-04-06T15:02:27.143Z</time></trkpt><trkpt lat="43.4054015" lon="11.1823008"><ele>223.0</ele><time>2026-04-06T15:02:28.152Z</time></trkpt><trkpt lat="43.4052505" lon="11.1826098"><ele>222.0</ele><time>2026-04-06T15:02:29.148Z</time></trkpt><trkpt lat="43.4050998" lon="11.1829216"><ele>220.5</ele><time>2026-04-06T15:02:30.143Z</time></trkpt><trkpt lat="43.404947" lon="11.1832278"><ele>219.0</ele><time>2026-04-06T15:02:31.176Z</time></trkpt><trkpt lat="43.4047927" lon="11.183535"><ele>220.0</ele><time>2026-04-06T15:02:32.145Z</time></trkpt><trkpt lat="43.4046403" lon="11.1838437"><ele>221.0</ele><time>2026-04-06T15:02:33.149Z</time></trkpt><trkpt lat="43.4044859" lon="11.1841612"><ele>219.0</ele><time>2026-04-06T15:02:34.156Z</time></trkpt><trkpt lat="43.4043364" lon="11.184467"><ele>217.0</ele><time>2026-04-06T15:02:35.16Z</time></trkpt><trkpt lat="43.4041829" lon="11.1847777"><ele>215.5</ele><time>2026-04-06T15:02:36.151Z</time></trkpt><trkpt lat="43.4040289" lon="11.185092"><ele>214.0</ele><time>2026-04-06T15:02:37.163Z</time></trkpt><trkpt lat="43.4038758" lon="11.1854074"><ele>213.5</ele><time>2026-04-06T15:02:38.156Z</time></trkpt><trkpt lat="43.403723" lon="11.185724"><ele>213.0</ele><time>2026-04-06T15:02:39.169Z</time></trkpt><trkpt lat="43.4035727" lon="11.186039"><ele>213.0</ele><time>2026-04-06T15:02:40.142Z</time></trkpt><trkpt lat="43.4034212" lon="11.1863581"><ele>213.0</ele><time>2026-04-06T15:02:41.147Z</time></trkpt><trkpt lat="43.4032759" lon="11.1866797"><ele>212.5</ele><time>2026-04-06T15:02:42.147Z</time></trkpt><trkpt lat="43.4031266" lon="11.1869971"><ele>212.0</ele><time>2026-04-06T15:02:43.15Z</time></trkpt><trkpt lat="43.4029738" lon="11.1873136"><ele>211.0</ele><time>2026-04-06T15:02:44.139Z</time></trkpt><trkpt lat="43.4028221" lon="11.18763"><ele>210.0</ele><time>2026-04-06T15:02:45.151Z</time></trkpt><trkpt lat="43.4026746" lon="11.1879443"><ele>210.5</ele><time>2026-04-06T15:02:46.138Z</time></trkpt><trkpt lat="43.4025281" lon="11.1882649"><ele>211.0</ele><time>2026-04-06T15:02:47.152Z</time></trkpt><trkpt lat="43.4023759" lon="11.1885828"><ele>211.0</ele><time>2026-04-06T15:02:48.149Z</time></trkpt><trkpt lat="43.40222" lon="11.188902"><ele>211.0</ele><time>2026-04-06T15:02:49.147Z</time></trkpt><trkpt lat="43.4020633" lon="11.1892231"><ele>210.0</ele><time>2026-04-06T15:02:50.159Z</time></trkpt><trkpt lat="43.4019058" lon="11.1895472"><ele>209.0</ele><time>2026-04-06T15:02:51.147Z</time></trkpt><trkpt lat="43.4017523" lon="11.1898688"><ele>209.0</ele><time>2026-04-06T15:02:52.154Z</time></trkpt><trkpt lat="43.4016024" lon="11.1901834"><ele>209.0</ele><time>2026-04-06T15:02:53.15Z</time></trkpt><trkpt lat="43.4014517" lon="11.1904849"><ele>209.5</ele><time>2026-04-06T15:02:54.142Z</time></trkpt><trkpt lat="43.4013011" lon="11.1907834"><ele>210.0</ele><time>2026-04-06T15:02:55.149Z</time></trkpt><trkpt lat="43.4011546" lon="11.1910751"><ele>210.0</ele><time>2026-04-06T15:02:56.155Z</time></trkpt><trkpt lat="43.4010078" lon="11.1913714"><ele>210.0</ele><time>2026-04-06T15:02:57.153Z</time></trkpt><trkpt lat="43.4008599" lon="11.1916656"><ele>210.0</ele><time>2026-04-06T15:02:58.149Z</time></trkpt><trkpt lat="43.4007164" lon="11.1919619"><ele>210.0</ele><time>2026-04-06T15:02:59.142Z</time></trkpt><trkpt lat="43.4005706" lon="11.1922547"><ele>209.5</ele><time>2026-04-06T15:03:00.147Z</time></trkpt><trkpt lat="43.4004256" lon="11.1925509"><ele>209.0</ele><time>2026-04-06T15:03:01.148Z</time></trkpt><trkpt lat="43.4002817" lon="11.1928472"><ele>209.0</ele><time>2026-04-06T15:03:02.148Z</time></trkpt><trkpt lat="43.4001406" lon="11.1931343"><ele>209.0</ele><time>2026-04-06T15:03:03.147Z</time></trkpt><trkpt lat="43.4000002" lon="11.1934187"><ele>209.5</ele><time>2026-04-06T15:03:04.154Z</time></trkpt><trkpt lat="43.3998591" lon="11.1937043"><ele>210.0</ele><time>2026-04-06T15:03:05.145Z</time></trkpt><trkpt lat="43.3997152" lon="11.1939992"><ele>209.0</ele><time>2026-04-06T15:03:06.154Z</time></trkpt><trkpt lat="43.3995702" lon="11.1942909"><ele>208.0</ele><time>2026-04-06T15:03:07.152Z</time></trkpt><trkpt lat="43.3994262" lon="11.1945898"><ele>209.0</ele><time>2026-04-06T15:03:08.152Z</time></trkpt><trkpt lat="43.3992834" lon="11.1948874"><ele>210.0</ele><time>2026-04-06T15:03:09.147Z</time></trkpt><trkpt lat="43.3991387" lon="11.195182"><ele>210.0</ele><time>2026-04-06T15:03:10.154Z</time></trkpt><trkpt lat="43.3989895" lon="11.1954836"><ele>210.0</ele><time>2026-04-06T15:03:11.149Z</time></trkpt><trkpt lat="43.3988437" lon="11.195784"><ele>209.5</ele><time>2026-04-06T15:03:12.159Z</time></trkpt><trkpt lat="43.3986986" lon="11.1960899"><ele>209.0</ele><time>2026-04-06T15:03:13.145Z</time></trkpt><trkpt lat="43.3985528" lon="11.1963935"><ele>209.0</ele><time>2026-04-06T15:03:14.141Z</time></trkpt><trkpt lat="43.3984103" lon="11.1966876"><ele>209.0</ele><time>2026-04-06T15:03:15.145Z</time></trkpt><trkpt lat="43.3982689" lon="11.1969777"><ele>209.0</ele><time>2026-04-06T15:03:16.145Z</time></trkpt><trkpt lat="43.3981276" lon="11.197266"><ele>209.0</ele><time>2026-04-06T15:03:17.165Z</time></trkpt><trkpt lat="43.3979839" lon="11.1975597"><ele>208.5</ele><time>2026-04-06T15:03:18.167Z</time></trkpt><trkpt lat="43.3978399" lon="11.197861"><ele>208.0</ele><time>2026-04-06T15:03:19.151Z</time></trkpt><trkpt lat="43.3976977" lon="11.1981653"><ele>210.5</ele><time>2026-04-06T15:03:20.163Z</time></trkpt><trkpt lat="43.3975583" lon="11.198465"><ele>213.0</ele><time>2026-04-06T15:03:21.153Z</time></trkpt><trkpt lat="43.3974169" lon="11.1987657"><ele>212.0</ele><time>2026-04-06T15:03:22.158Z</time></trkpt><trkpt lat="43.3972724" lon="11.1990756"><ele>211.0</ele><time>2026-04-06T15:03:23.152Z</time></trkpt><trkpt lat="43.3971284" lon="11.1993881"><ele>211.0</ele><time>2026-04-06T15:03:24.143Z</time></trkpt><trkpt lat="43.3969817" lon="11.1997024"><ele>211.0</ele><time>2026-04-06T15:03:25.152Z</time></trkpt><trkpt lat="43.3968346" lon="11.2000154"><ele>214.0</ele><time>2026-04-06T15:03:26.157Z</time></trkpt><trkpt lat="43.3966933" lon="11.2003287"><ele>217.0</ele><time>2026-04-06T15:03:27.142Z</time></trkpt><trkpt lat="43.3965467" lon="11.2006312"><ele>218.0</ele><time>2026-04-06T15:03:28.15Z</time></trkpt><trkpt lat="43.3963965" lon="11.2009426"><ele>219.0</ele><time>2026-04-06T15:03:29.154Z</time></trkpt><trkpt lat="43.3962456" lon="11.2012459"><ele>217.0</ele><time>2026-04-06T15:03:30.179Z</time></trkpt><trkpt lat="43.3960965" lon="11.2015451"><ele>215.0</ele><time>2026-04-06T15:03:31.141Z</time></trkpt><trkpt lat="43.39595" lon="11.2018415"><ele>215.0</ele><time>2026-04-06T15:03:32.138Z</time></trkpt><trkpt lat="43.3958048" lon="11.2021457"><ele>215.0</ele><time>2026-04-06T15:03:33.147Z</time></trkpt><trkpt lat="43.3956623" lon="11.2024476"><ele>215.5</ele><time>2026-04-06T15:03:34.164Z</time></trkpt><trkpt lat="43.3955267" lon="11.2027542"><ele>216.0</ele><time>2026-04-06T15:03:35.148Z</time></trkpt><trkpt lat="43.3954025" lon="11.2030701"><ele>216.0</ele><time>2026-04-06T15:03:36.152Z</time></trkpt><trkpt lat="43.3952892" lon="11.2033943"><ele>216.0</ele><time>2026-04-06T15:03:37.158Z</time></trkpt><trkpt lat="43.3951937" lon="11.2037317"><ele>216.0</ele><time>2026-04-06T15:03:38.149Z</time></trkpt><trkpt lat="43.3951105" lon="11.204073"><ele>216.0</ele><time>2026-04-06T15:03:39.161Z</time></trkpt><trkpt lat="43.3950452" lon="11.2044174"><ele>216.0</ele><time>2026-04-06T15:03:40.138Z</time></trkpt><trkpt lat="43.394988" lon="11.2047754"><ele>216.0</ele><time>2026-04-06T15:03:41.156Z</time></trkpt><trkpt lat="43.3949396" lon="11.205129"><ele>214.5</ele><time>2026-04-06T15:03:42.148Z</time></trkpt><trkpt lat="43.3949018" lon="11.2054799"><ele>213.0</ele><time>2026-04-06T15:03:43.159Z</time></trkpt><trkpt lat="43.3948695" lon="11.2058362"><ele>213.0</ele><time>2026-04-06T15:03:44.15Z</time></trkpt><trkpt lat="43.3948447" lon="11.2062075"><ele>213.0</ele><time>2026-04-06T15:03:45.144Z</time></trkpt><trkpt lat="43.394816" lon="11.206577"><ele>211.5</ele><time>2026-04-06T15:03:46.15Z</time></trkpt><trkpt lat="43.3947858" lon="11.2069476"><ele>210.0</ele><time>2026-04-06T15:03:47.157Z</time></trkpt><trkpt lat="43.3947544" lon="11.2073175"><ele>209.0</ele><time>2026-04-06T15:03:48.154Z</time></trkpt><trkpt lat="43.3947222" lon="11.2076887"><ele>208.0</ele><time>2026-04-06T15:03:49.141Z</time></trkpt><trkpt lat="43.3946861" lon="11.2080586"><ele>203.0</ele><time>2026-04-06T15:03:50.149Z</time></trkpt><trkpt lat="43.3946523" lon="11.208423"><ele>198.0</ele><time>2026-04-06T15:03:51.157Z</time></trkpt><trkpt lat="43.394619" lon="11.208782"><ele>198.5</ele><time>2026-04-06T15:03:52.144Z</time></trkpt><trkpt lat="43.3945832" lon="11.2091465"><ele>199.0</ele><time>2026-04-06T15:03:53.158Z</time></trkpt><trkpt lat="43.3945507" lon="11.2095124"><ele>197.5</ele><time>2026-04-06T15:03:54.154Z</time></trkpt><trkpt lat="43.3945161" lon="11.2098726"><ele>196.0</ele><time>2026-04-06T15:03:55.145Z</time></trkpt><trkpt lat="43.3944827" lon="11.2102418"><ele>196.0</ele><time>2026-04-06T15:03:56.158Z</time></trkpt><trkpt lat="43.3944529" lon="11.2106081"><ele>196.0</ele><time>2026-04-06T15:03:57.166Z</time></trkpt><trkpt lat="43.394426" lon="11.2109677"><ele>195.0</ele><time>2026-04-06T15:03:58.158Z</time></trkpt><trkpt lat="43.3943951" lon="11.2113256"><ele>194.0</ele><time>2026-04-06T15:03:59.162Z</time></trkpt><trkpt lat="43.3943606" lon="11.211685"><ele>194.0</ele><time>2026-04-06T15:04:00.162Z</time></trkpt><trkpt lat="43.3943344" lon="11.2120456"><ele>194.0</ele><time>2026-04-06T15:04:01.16Z</time></trkpt><trkpt lat="43.3943045" lon="11.2124076"><ele>195.0</ele><time>2026-04-06T15:04:02.156Z</time></trkpt><trkpt lat="43.3942823" lon="11.2127577"><ele>196.0</ele><time>2026-04-06T15:04:03.163Z</time></trkpt><trkpt lat="43.3942538" lon="11.2131118"><ele>196.0</ele><time>2026-04-06T15:04:04.156Z</time></trkpt><trkpt lat="43.3942271" lon="11.2134632"><ele>196.0</ele><time>2026-04-06T15:04:05.157Z</time></trkpt><trkpt lat="43.394196" lon="11.2138144"><ele>196.0</ele><time>2026-04-06T15:04:06.157Z</time></trkpt><trkpt lat="43.3941679" lon="11.2141643"><ele>196.0</ele><time>2026-04-06T15:04:07.154Z</time></trkpt><trkpt lat="43.3941398" lon="11.2144994"><ele>197.0</ele><time>2026-04-06T15:04:08.157Z</time></trkpt><trkpt lat="43.3941162" lon="11.2148342"><ele>198.0</ele><time>2026-04-06T15:04:09.159Z</time></trkpt><trkpt lat="43.3940895" lon="11.2151733"><ele>198.0</ele><time>2026-04-06T15:04:10.165Z</time></trkpt><trkpt lat="43.3940627" lon="11.215514"><ele>198.0</ele><time>2026-04-06T15:04:11.144Z</time></trkpt><trkpt lat="43.3940344" lon="11.2158595"><ele>197.5</ele><time>2026-04-06T15:04:12.151Z</time></trkpt><trkpt lat="43.3940046" lon="11.2162065"><ele>197.0</ele><time>2026-04-06T15:04:13.152Z</time></trkpt><trkpt lat="43.3939724" lon="11.2165503"><ele>196.5</ele><time>2026-04-06T15:04:14.158Z</time></trkpt><trkpt lat="43.3939445" lon="11.2168976"><ele>196.0</ele><time>2026-04-06T15:04:15.153Z</time></trkpt><trkpt lat="43.393918" lon="11.2172383"><ele>196.5</ele><time>2026-04-06T15:04:16.157Z</time></trkpt><trkpt lat="43.3938923" lon="11.2175772"><ele>197.0</ele><time>2026-04-06T15:04:17.143Z</time></trkpt><trkpt lat="43.3938634" lon="11.2179187"><ele>199.5</ele><time>2026-04-06T15:04:18.158Z</time></trkpt><trkpt lat="43.3938361" lon="11.2182617"><ele>202.0</ele><time>2026-04-06T15:04:19.159Z</time></trkpt><trkpt lat="43.3938104" lon="11.2186033"><ele>202.0</ele><time>2026-04-06T15:04:20.157Z</time></trkpt><trkpt lat="43.3937789" lon="11.2189476"><ele>202.0</ele><time>2026-04-06T15:04:21.15Z</time></trkpt><trkpt lat="43.3937511" lon="11.2192913"><ele>203.0</ele><time>2026-04-06T15:04:22.153Z</time></trkpt><trkpt lat="43.3937272" lon="11.2196377"><ele>204.0</ele><time>2026-04-06T15:04:23.149Z</time></trkpt><trkpt lat="43.393705" lon="11.219993"><ele>207.0</ele><time>2026-04-06T15:04:24.152Z</time></trkpt><trkpt lat="43.3936953" lon="11.2203393"><ele>210.0</ele><time>2026-04-06T15:04:25.146Z</time></trkpt><trkpt lat="43.3936886" lon="11.220688"><ele>214.5</ele><time>2026-04-06T15:04:26.146Z</time></trkpt><trkpt lat="43.3936903" lon="11.2210373"><ele>219.0</ele><time>2026-04-06T15:04:27.154Z</time></trkpt><trkpt lat="43.3937009" lon="11.2213881"><ele>220.5</ele><time>2026-04-06T15:04:28.145Z</time></trkpt><trkpt lat="43.3937147" lon="11.2217369"><ele>222.0</ele><time>2026-04-06T15:04:29.148Z</time></trkpt><trkpt lat="43.3937374" lon="11.2220976"><ele>218.0</ele><time>2026-04-06T15:04:30.145Z</time></trkpt><trkpt lat="43.3937681" lon="11.2224502"><ele>214.0</ele><time>2026-04-06T15:04:31.138Z</time></trkpt><trkpt lat="43.3938081" lon="11.2228053"><ele>209.5</ele><time>2026-04-06T15:04:32.145Z</time></trkpt><trkpt lat="43.3938475" lon="11.2231581"><ele>205.0</ele><time>2026-04-06T15:04:33.146Z</time></trkpt><trkpt lat="43.3938896" lon="11.2235092"><ele>205.0</ele><time>2026-04-06T15:04:34.142Z</time></trkpt><trkpt lat="43.3939327" lon="11.2238564"><ele>205.0</ele><time>2026-04-06T15:04:35.152Z</time></trkpt><trkpt lat="43.3939737" lon="11.2242031"><ele>206.0</ele><time>2026-04-06T15:04:36.15Z</time></trkpt><trkpt lat="43.3940168" lon="11.2245527"><ele>207.0</ele><time>2026-04-06T15:04:37.145Z</time></trkpt><trkpt lat="43.3940604" lon="11.2248957"><ele>207.0</ele><time>2026-04-06T15:04:38.151Z</time></trkpt><trkpt lat="43.3940988" lon="11.2252412"><ele>207.0</ele><time>2026-04-06T15:04:39.144Z</time></trkpt><trkpt lat="43.39414" lon="11.2255909"><ele>207.0</ele><time>2026-04-06T15:04:40.143Z</time></trkpt><trkpt lat="43.3941811" lon="11.2259403"><ele>207.0</ele><time>2026-04-06T15:04:41.147Z</time></trkpt><trkpt lat="43.3942224" lon="11.2262864"><ele>208.5</ele><time>2026-04-06T15:04:42.147Z</time></trkpt><trkpt lat="43.3942619" lon="11.2266247"><ele>210.0</ele><time>2026-04-06T15:04:43.146Z</time></trkpt><trkpt lat="43.3943013" lon="11.2269749"><ele>211.0</ele><time>2026-04-06T15:04:44.146Z</time></trkpt><trkpt lat="43.3943459" lon="11.2273182"><ele>212.0</ele><time>2026-04-06T15:04:45.158Z</time></trkpt><trkpt lat="43.394385" lon="11.2276669"><ele>212.0</ele><time>2026-04-06T15:04:46.15Z</time></trkpt><trkpt lat="43.3944165" lon="11.2280172"><ele>212.0</ele><time>2026-04-06T15:04:47.148Z</time></trkpt><trkpt lat="43.3944385" lon="11.2283665"><ele>215.0</ele><time>2026-04-06T15:04:48.15Z</time></trkpt><trkpt lat="43.3944431" lon="11.2287135"><ele>218.0</ele><time>2026-04-06T15:04:49.15Z</time></trkpt><trkpt lat="43.3944354" lon="11.2290615"><ele>222.0</ele><time>2026-04-06T15:04:50.152Z</time></trkpt><trkpt lat="43.3944152" lon="11.2294068"><ele>226.0</ele><time>2026-04-06T15:04:51.159Z</time></trkpt><trkpt lat="43.3943734" lon="11.22975"><ele>224.5</ele><time>2026-04-06T15:04:52.156Z</time></trkpt><trkpt lat="43.3943162" lon="11.2300897"><ele>223.0</ele><time>2026-04-06T15:04:53.158Z</time></trkpt><trkpt lat="43.3942449" lon="11.2304278"><ele>219.5</ele><time>2026-04-06T15:04:54.153Z</time></trkpt><trkpt lat="43.3941625" lon="11.2307568"><ele>216.0</ele><time>2026-04-06T15:04:55.145Z</time></trkpt><trkpt lat="43.3940667" lon="11.2310833"><ele>216.0</ele><time>2026-04-06T15:04:56.142Z</time></trkpt><trkpt lat="43.3939644" lon="11.2314029"><ele>216.0</ele><time>2026-04-06T15:04:57.161Z</time></trkpt><trkpt lat="43.3938616" lon="11.2317199"><ele>216.5</ele><time>2026-04-06T15:04:58.15Z</time></trkpt><trkpt lat="43.3937516" lon="11.2320369"><ele>217.0</ele><time>2026-04-06T15:04:59.143Z</time></trkpt><trkpt lat="43.3936443" lon="11.2323505"><ele>217.0</ele><time>2026-04-06T15:05:00.143Z</time></trkpt><trkpt lat="43.3935407" lon="11.232671"><ele>217.0</ele><time>2026-04-06T15:05:01.143Z</time></trkpt><trkpt lat="43.3934354" lon="11.2329923"><ele>215.0</ele><time>2026-04-06T15:05:02.145Z</time></trkpt><trkpt lat="43.3933263" lon="11.2333117"><ele>213.0</ele><time>2026-04-06T15:05:03.145Z</time></trkpt><trkpt lat="43.3932179" lon="11.2336289"><ele>213.0</ele><time>2026-04-06T15:05:04.142Z</time></trkpt><trkpt lat="43.3931162" lon="11.2339423"><ele>213.0</ele><time>2026-04-06T15:05:05.144Z</time></trkpt><trkpt lat="43.3930092" lon="11.2342594"><ele>213.5</ele><time>2026-04-06T15:05:06.146Z</time></trkpt><trkpt lat="43.3929033" lon="11.2345875"><ele>214.0</ele><time>2026-04-06T15:05:07.148Z</time></trkpt><trkpt lat="43.3928005" lon="11.2349076"><ele>214.0</ele><time>2026-04-06T15:05:08.141Z</time></trkpt><trkpt lat="43.3926954" lon="11.2352252"><ele>214.0</ele><time>2026-04-06T15:05:09.14Z</time></trkpt><trkpt lat="43.3925909" lon="11.2355526"><ele>212.0</ele><time>2026-04-06T15:05:10.142Z</time></trkpt><trkpt lat="43.3924846" lon="11.2358784"><ele>210.0</ele><time>2026-04-06T15:05:11.146Z</time></trkpt><trkpt lat="43.3923794" lon="11.236197"><ele>210.5</ele><time>2026-04-06T15:05:12.149Z</time></trkpt><trkpt lat="43.3922788" lon="11.2365132"><ele>211.0</ele><time>2026-04-06T15:05:13.154Z</time></trkpt><trkpt lat="43.3921848" lon="11.2368298"><ele>216.5</ele><time>2026-04-06T15:05:14.144Z</time></trkpt><trkpt lat="43.3921109" lon="11.237169"><ele>222.0</ele><time>2026-04-06T15:05:15.145Z</time></trkpt><trkpt lat="43.3920546" lon="11.2375117"><ele>223.0</ele><time>2026-04-06T15:05:16.142Z</time></trkpt><trkpt lat="43.3920046" lon="11.2378531"><ele>224.0</ele><time>2026-04-06T15:05:17.141Z</time></trkpt><trkpt lat="43.3919637" lon="11.2381962"><ele>226.0</ele><time>2026-04-06T15:05:18.145Z</time></trkpt><trkpt lat="43.3919422" lon="11.2385423"><ele>228.0</ele><time>2026-04-06T15:05:19.147Z</time></trkpt><trkpt lat="43.3919231" lon="11.2388962"><ele>227.5</ele><time>2026-04-06T15:05:20.143Z</time></trkpt><trkpt lat="43.3919119" lon="11.2392396"><ele>227.0</ele><time>2026-04-06T15:05:21.15Z</time></trkpt><trkpt lat="43.3919161" lon="11.2395975"><ele>227.5</ele><time>2026-04-06T15:05:22.143Z</time></trkpt><trkpt lat="43.3919338" lon="11.2399568"><ele>228.0</ele><time>2026-04-06T15:05:23.15Z</time></trkpt><trkpt lat="43.3919647" lon="11.2403075"><ele>232.0</ele><time>2026-04-06T15:05:24.145Z</time></trkpt><trkpt lat="43.3920001" lon="11.2406605"><ele>236.0</ele><time>2026-04-06T15:05:25.143Z</time></trkpt><trkpt lat="43.3920448" lon="11.2410114"><ele>236.0</ele><time>2026-04-06T15:05:26.141Z</time></trkpt><trkpt lat="43.3920973" lon="11.2413551"><ele>236.0</ele><time>2026-04-06T15:05:27.151Z</time></trkpt><trkpt lat="43.3921446" lon="11.2416988"><ele>224.0</ele><time>2026-04-06T15:05:28.146Z</time></trkpt><trkpt lat="43.392187" lon="11.2420514"><ele>212.0</ele><time>2026-04-06T15:05:29.145Z</time></trkpt><trkpt lat="43.3922226" lon="11.2424073"><ele>212.0</ele><time>2026-04-06T15:05:30.138Z</time></trkpt><trkpt lat="43.3922472" lon="11.2427554"><ele>212.0</ele><time>2026-04-06T15:05:31.151Z</time></trkpt><trkpt lat="43.3922573" lon="11.2431042"><ele>211.0</ele><time>2026-04-06T15:05:32.153Z</time></trkpt><trkpt lat="43.3922553" lon="11.2434519"><ele>210.0</ele><time>2026-04-06T15:05:33.143Z</time></trkpt><trkpt lat="43.3922289" lon="11.2437992"><ele>209.5</ele><time>2026-04-06T15:05:34.144Z</time></trkpt><trkpt lat="43.3921897" lon="11.2441452"><ele>209.0</ele><time>2026-04-06T15:05:35.145Z</time></trkpt><trkpt lat="43.3921309" lon="11.2444841"><ele>210.0</ele><time>2026-04-06T15:05:36.146Z</time></trkpt><trkpt lat="43.3920592" lon="11.2448153"><ele>211.0</ele><time>2026-04-06T15:05:37.151Z</time></trkpt><trkpt lat="43.3919762" lon="11.2451411"><ele>211.0</ele><time>2026-04-06T15:05:38.144Z</time></trkpt><trkpt lat="43.3918809" lon="11.245464"><ele>211.0</ele><time>2026-04-06T15:05:39.144Z</time></trkpt><trkpt lat="43.3917712" lon="11.2457792"><ele>214.5</ele><time>2026-04-06T15:05:40.139Z</time></trkpt><trkpt lat="43.3916493" lon="11.2460909"><ele>218.0</ele><time>2026-04-06T15:05:41.145Z</time></trkpt><trkpt lat="43.3915217" lon="11.2464066"><ele>219.0</ele><time>2026-04-06T15:05:42.144Z</time></trkpt><trkpt lat="43.3913866" lon="11.2467169"><ele>220.0</ele><time>2026-04-06T15:05:43.143Z</time></trkpt><trkpt lat="43.3912535" lon="11.247029"><ele>218.5</ele><time>2026-04-06T15:05:44.155Z</time></trkpt><trkpt lat="43.3911243" lon="11.2473476"><ele>217.0</ele><time>2026-04-06T15:05:45.156Z</time></trkpt><trkpt lat="43.3910081" lon="11.2476692"><ele>217.0</ele><time>2026-04-06T15:05:46.142Z</time></trkpt><trkpt lat="43.3909043" lon="11.2479904"><ele>217.0</ele><time>2026-04-06T15:05:47.137Z</time></trkpt><trkpt lat="43.3908066" lon="11.2483194"><ele>219.0</ele><time>2026-04-06T15:05:48.137Z</time></trkpt><trkpt lat="43.3907332" lon="11.2486684"><ele>221.0</ele><time>2026-04-06T15:05:49.154Z</time></trkpt><trkpt lat="43.3906745" lon="11.2490198"><ele>222.5</ele><time>2026-04-06T15:05:50.158Z</time></trkpt><trkpt lat="43.3906248" lon="11.2493673"><ele>224.0</ele><time>2026-04-06T15:05:51.155Z</time></trkpt><trkpt lat="43.3905824" lon="11.2497239"><ele>226.0</ele><time>2026-04-06T15:05:52.157Z</time></trkpt><trkpt lat="43.3905495" lon="11.250083"><ele>228.0</ele><time>2026-04-06T15:05:53.151Z</time></trkpt><trkpt lat="43.3905268" lon="11.2504482"><ele>225.5</ele><time>2026-04-06T15:05:54.159Z</time></trkpt><trkpt lat="43.390503" lon="11.2508104"><ele>223.0</ele><time>2026-04-06T15:05:55.154Z</time></trkpt><trkpt lat="43.3904726" lon="11.2511723"><ele>224.0</ele><time>2026-04-06T15:05:56.137Z</time></trkpt><trkpt lat="43.3904457" lon="11.2515339"><ele>225.0</ele><time>2026-04-06T15:05:57.139Z</time></trkpt><trkpt lat="43.3904221" lon="11.2518999"><ele>225.0</ele><time>2026-04-06T15:05:58.15Z</time></trkpt><trkpt lat="43.3903982" lon="11.2522637"><ele>225.0</ele><time>2026-04-06T15:05:59.155Z</time></trkpt><trkpt lat="43.3903808" lon="11.2526254"><ele>224.5</ele><time>2026-04-06T15:06:00.142Z</time></trkpt><trkpt lat="43.3903616" lon="11.2529803"><ele>224.0</ele><time>2026-04-06T15:06:01.15Z</time></trkpt><trkpt lat="43.3903401" lon="11.2533311"><ele>224.0</ele><time>2026-04-06T15:06:02.158Z</time></trkpt><trkpt lat="43.3903172" lon="11.2536915"><ele>224.0</ele><time>2026-04-06T15:06:03.161Z</time></trkpt><trkpt lat="43.3902908" lon="11.2540411"><ele>222.5</ele><time>2026-04-06T15:06:04.15Z</time></trkpt><trkpt lat="43.3902671" lon="11.2543894"><ele>221.0</ele><time>2026-04-06T15:06:05.153Z</time></trkpt><trkpt lat="43.3902412" lon="11.2547371"><ele>221.0</ele><time>2026-04-06T15:06:06.155Z</time></trkpt><trkpt lat="43.3902135" lon="11.2550833"><ele>221.0</ele><time>2026-04-06T15:06:07.154Z</time></trkpt><trkpt lat="43.3901874" lon="11.2554282"><ele>221.5</ele><time>2026-04-06T15:06:08.148Z</time></trkpt><trkpt lat="43.3901566" lon="11.2557781"><ele>222.0</ele><time>2026-04-06T15:06:09.159Z</time></trkpt><trkpt lat="43.3901268" lon="11.2561294"><ele>222.5</ele><time>2026-04-06T15:06:10.153Z</time></trkpt><trkpt lat="43.3900955" lon="11.2564882"><ele>223.0</ele><time>2026-04-06T15:06:11.152Z</time></trkpt><trkpt lat="43.3900663" lon="11.256843"><ele>223.0</ele><time>2026-04-06T15:06:12.147Z</time></trkpt><trkpt lat="43.3900359" lon="11.2571921"><ele>223.0</ele><time>2026-04-06T15:06:13.142Z</time></trkpt><trkpt lat="43.3900088" lon="11.2575461"><ele>226.0</ele><time>2026-04-06T15:06:14.145Z</time></trkpt><trkpt lat="43.3899825" lon="11.2579065"><ele>229.0</ele><time>2026-04-06T15:06:15.151Z</time></trkpt><trkpt lat="43.389952" lon="11.2582646"><ele>231.0</ele><time>2026-04-06T15:06:16.145Z</time></trkpt><trkpt lat="43.3899311" lon="11.258621"><ele>233.0</ele><time>2026-04-06T15:06:17.145Z</time></trkpt><trkpt lat="43.3899026" lon="11.2589775"><ele>235.0</ele><time>2026-04-06T15:06:18.154Z</time></trkpt><trkpt lat="43.3898807" lon="11.2593384"><ele>237.0</ele><time>2026-04-06T15:06:19.14Z</time></trkpt><trkpt lat="43.3898573" lon="11.2596969"><ele>237.5</ele><time>2026-04-06T15:06:20.15Z</time></trkpt><trkpt lat="43.3898308" lon="11.2600481"><ele>238.0</ele><time>2026-04-06T15:06:21.15Z</time></trkpt><trkpt lat="43.3898052" lon="11.2604103"><ele>238.0</ele><time>2026-04-06T15:06:22.152Z</time></trkpt><trkpt lat="43.3897799" lon="11.2607676"><ele>238.0</ele><time>2026-04-06T15:06:23.145Z</time></trkpt><trkpt lat="43.3897602" lon="11.2611304"><ele>235.5</ele><time>2026-04-06T15:06:24.149Z</time></trkpt><trkpt lat="43.389744" lon="11.2614934"><ele>233.0</ele><time>2026-04-06T15:06:25.14Z</time></trkpt><trkpt lat="43.3897262" lon="11.2618601"><ele>233.0</ele><time>2026-04-06T15:06:26.146Z</time></trkpt><trkpt lat="43.3897068" lon="11.2622189"><ele>233.0</ele><time>2026-04-06T15:06:27.149Z</time></trkpt><trkpt lat="43.389674" lon="11.2625844"><ele>230.0</ele><time>2026-04-06T15:06:28.151Z</time></trkpt><trkpt lat="43.3896439" lon="11.2629463"><ele>227.0</ele><time>2026-04-06T15:06:29.151Z</time></trkpt><trkpt lat="43.3896129" lon="11.2633066"><ele>227.0</ele><time>2026-04-06T15:06:30.146Z</time></trkpt><trkpt lat="43.3895743" lon="11.2636591"><ele>227.0</ele><time>2026-04-06T15:06:31.153Z</time></trkpt><trkpt lat="43.3895414" lon="11.2640198"><ele>227.0</ele><time>2026-04-06T15:06:32.142Z</time></trkpt><trkpt lat="43.3895095" lon="11.2643783"><ele>227.0</ele><time>2026-04-06T15:06:33.139Z</time></trkpt><trkpt lat="43.3894847" lon="11.2647411"><ele>226.0</ele><time>2026-04-06T15:06:34.144Z</time></trkpt><trkpt lat="43.3894624" lon="11.2651038"><ele>225.0</ele><time>2026-04-06T15:06:35.137Z</time></trkpt><trkpt lat="43.3894376" lon="11.2654735"><ele>224.5</ele><time>2026-04-06T15:06:36.14Z</time></trkpt><trkpt lat="43.3894115" lon="11.2658418"><ele>224.0</ele><time>2026-04-06T15:06:37.149Z</time></trkpt><trkpt lat="43.3893855" lon="11.2662022"><ele>223.5</ele><time>2026-04-06T15:06:38.137Z</time></trkpt><trkpt lat="43.3893578" lon="11.2665678"><ele>223.0</ele><time>2026-04-06T15:06:39.151Z</time></trkpt><trkpt lat="43.389325" lon="11.2669326"><ele>222.0</ele><time>2026-04-06T15:06:40.149Z</time></trkpt><trkpt lat="43.3892875" lon="11.2672976"><ele>221.0</ele><time>2026-04-06T15:06:41.145Z</time></trkpt><trkpt lat="43.3892381" lon="11.2676628"><ele>221.0</ele><time>2026-04-06T15:06:42.147Z</time></trkpt><trkpt lat="43.3891748" lon="11.2680238"><ele>221.0</ele><time>2026-04-06T15:06:43.16Z</time></trkpt><trkpt lat="43.3890988" lon="11.2683904"><ele>221.0</ele><time>2026-04-06T15:06:44.159Z</time></trkpt><trkpt lat="43.3890057" lon="11.2687532"><ele>221.0</ele><time>2026-04-06T15:06:45.148Z</time></trkpt><trkpt lat="43.3889058" lon="11.269106"><ele>221.5</ele><time>2026-04-06T15:06:46.152Z</time></trkpt><trkpt lat="43.3887985" lon="11.2694606"><ele>222.0</ele><time>2026-04-06T15:06:47.141Z</time></trkpt><trkpt lat="43.3886839" lon="11.2698048"><ele>222.0</ele><time>2026-04-06T15:06:48.153Z</time></trkpt><trkpt lat="43.3885411" lon="11.2701327"><ele>222.0</ele><time>2026-04-06T15:06:49.151Z</time></trkpt><trkpt lat="43.3883889" lon="11.270449"><ele>225.0</ele><time>2026-04-06T15:06:50.152Z</time></trkpt><trkpt lat="43.3882296" lon="11.2707581"><ele>228.0</ele><time>2026-04-06T15:06:51.157Z</time></trkpt><trkpt lat="43.3880587" lon="11.2710574"><ele>225.5</ele><time>2026-04-06T15:06:52.145Z</time></trkpt><trkpt lat="43.387878" lon="11.2713369"><ele>223.0</ele><time>2026-04-06T15:06:53.147Z</time></trkpt><trkpt lat="43.387687" lon="11.2716083"><ele>223.0</ele><time>2026-04-06T15:06:54.146Z</time></trkpt><trkpt lat="43.3874895" lon="11.2718623"><ele>223.0</ele><time>2026-04-06T15:06:55.146Z</time></trkpt><trkpt lat="43.387291" lon="11.2721041"><ele>223.5</ele><time>2026-04-06T15:06:56.148Z</time></trkpt><trkpt lat="43.3870836" lon="11.2723402"><ele>224.0</ele><time>2026-04-06T15:06:57.148Z</time></trkpt><trkpt lat="43.3868738" lon="11.2725646"><ele>224.0</ele><time>2026-04-06T15:06:58.155Z</time></trkpt><trkpt lat="43.3866615" lon="11.2727717"><ele>224.0</ele><time>2026-04-06T15:06:59.159Z</time></trkpt><trkpt lat="43.3864421" lon="11.272961"><ele>223.5</ele><time>2026-04-06T15:07:00.158Z</time></trkpt><trkpt lat="43.3862118" lon="11.2731354"><ele>223.0</ele><time>2026-04-06T15:07:01.15Z</time></trkpt><trkpt lat="43.3859759" lon="11.27329"><ele>223.0</ele><time>2026-04-06T15:07:02.158Z</time></trkpt><trkpt lat="43.3857402" lon="11.2734478"><ele>223.0</ele><time>2026-04-06T15:07:03.156Z</time></trkpt><trkpt lat="43.3855032" lon="11.2736041"><ele>223.5</ele><time>2026-04-06T15:07:04.165Z</time></trkpt><trkpt lat="43.3852746" lon="11.2737625"><ele>224.0</ele><time>2026-04-06T15:07:05.152Z</time></trkpt><trkpt lat="43.3850485" lon="11.2739313"><ele>225.5</ele><time>2026-04-06T15:07:06.153Z</time></trkpt><trkpt lat="43.3848225" lon="11.2741126"><ele>227.0</ele><time>2026-04-06T15:07:07.153Z</time></trkpt><trkpt lat="43.3846064" lon="11.2743079"><ele>227.0</ele><time>2026-04-06T15:07:08.161Z</time></trkpt><trkpt lat="43.384401" lon="11.2745151"><ele>227.0</ele><time>2026-04-06T15:07:09.155Z</time></trkpt><trkpt lat="43.3841999" lon="11.2747306"><ele>227.5</ele><time>2026-04-06T15:07:10.144Z</time></trkpt><trkpt lat="43.3840085" lon="11.2749601"><ele>228.0</ele><time>2026-04-06T15:07:11.158Z</time></trkpt><trkpt lat="43.383817" lon="11.2751921"><ele>228.0</ele><time>2026-04-06T15:07:12.157Z</time></trkpt><trkpt lat="43.3836262" lon="11.2754366"><ele>228.0</ele><time>2026-04-06T15:07:13.145Z</time></trkpt><trkpt lat="43.3834476" lon="11.2757072"><ele>230.5</ele><time>2026-04-06T15:07:14.15Z</time></trkpt><trkpt lat="43.3832783" lon="11.275974"><ele>233.0</ele><time>2026-04-06T15:07:15.153Z</time></trkpt><trkpt lat="43.3831166" lon="11.2762661"><ele>232.5</ele><time>2026-04-06T15:07:16.148Z</time></trkpt><trkpt lat="43.3829575" lon="11.2765566"><ele>232.0</ele><time>2026-04-06T15:07:17.148Z</time></trkpt><trkpt lat="43.3827977" lon="11.2768572"><ele>232.0</ele><time>2026-04-06T15:07:18.155Z</time></trkpt><trkpt lat="43.3826475" lon="11.2771616"><ele>232.0</ele><time>2026-04-06T15:07:19.144Z</time></trkpt><trkpt lat="43.3825051" lon="11.2774719"><ele>234.5</ele><time>2026-04-06T15:07:20.161Z</time></trkpt><trkpt lat="43.3823623" lon="11.2777798"><ele>237.0</ele><time>2026-04-06T15:07:21.148Z</time></trkpt><trkpt lat="43.3822167" lon="11.2780823"><ele>235.5</ele><time>2026-04-06T15:07:22.157Z</time></trkpt><trkpt lat="43.3820701" lon="11.2783933"><ele>234.0</ele><time>2026-04-06T15:07:23.148Z</time></trkpt><trkpt lat="43.3819239" lon="11.2786967"><ele>239.0</ele><time>2026-04-06T15:07:24.15Z</time></trkpt><trkpt lat="43.38178" lon="11.2789988"><ele>244.0</ele><time>2026-04-06T15:07:25.155Z</time></trkpt><trkpt lat="43.3816332" lon="11.2793015"><ele>244.0</ele><time>2026-04-06T15:07:26.148Z</time></trkpt><trkpt lat="43.3814839" lon="11.2796065"><ele>244.0</ele><time>2026-04-06T15:07:27.144Z</time></trkpt><trkpt lat="43.3813379" lon="11.2799076"><ele>238.5</ele><time>2026-04-06T15:07:28.15Z</time></trkpt><trkpt lat="43.3811944" lon="11.2802128"><ele>233.0</ele><time>2026-04-06T15:07:29.15Z</time></trkpt><trkpt lat="43.3810473" lon="11.2805188"><ele>235.0</ele><time>2026-04-06T15:07:30.144Z</time></trkpt><trkpt lat="43.380902" lon="11.2808198"><ele>237.0</ele><time>2026-04-06T15:07:31.153Z</time></trkpt><trkpt lat="43.3807599" lon="11.2811202"><ele>237.0</ele><time>2026-04-06T15:07:32.163Z</time></trkpt><trkpt lat="43.3806169" lon="11.2814151"><ele>237.0</ele><time>2026-04-06T15:07:33.148Z</time></trkpt><trkpt lat="43.3804748" lon="11.2817113"><ele>236.0</ele><time>2026-04-06T15:07:34.155Z</time></trkpt><trkpt lat="43.3803314" lon="11.2820005"><ele>235.0</ele><time>2026-04-06T15:07:35.151Z</time></trkpt><trkpt lat="43.3801893" lon="11.2822843"><ele>238.5</ele><time>2026-04-06T15:07:36.151Z</time></trkpt><trkpt lat="43.3800491" lon="11.2825697"><ele>242.0</ele><time>2026-04-06T15:07:37.159Z</time></trkpt><trkpt lat="43.3799062" lon="11.2828603"><ele>240.5</ele><time>2026-04-06T15:07:38.148Z</time></trkpt><trkpt lat="43.3797629" lon="11.2831506"><ele>239.0</ele><time>2026-04-06T15:07:39.156Z</time></trkpt><trkpt lat="43.3796195" lon="11.2834372"><ele>239.0</ele><time>2026-04-06T15:07:40.151Z</time></trkpt><trkpt lat="43.3794686" lon="11.2837047"><ele>239.0</ele><time>2026-04-06T15:07:41.163Z</time></trkpt><trkpt lat="43.3792977" lon="11.283968"><ele>242.5</ele><time>2026-04-06T15:07:42.152Z</time></trkpt><trkpt lat="43.3791053" lon="11.284203"><ele>246.0</ele><time>2026-04-06T15:07:43.154Z</time></trkpt><trkpt lat="43.3789082" lon="11.2844245"><ele>243.5</ele><time>2026-04-06T15:07:44.155Z</time></trkpt><trkpt lat="43.3787039" lon="11.2846365"><ele>241.0</ele><time>2026-04-06T15:07:45.149Z</time></trkpt><trkpt lat="43.3784895" lon="11.2848292"><ele>241.0</ele><time>2026-04-06T15:07:46.154Z</time></trkpt><trkpt lat="43.3782678" lon="11.2850088"><ele>241.0</ele><time>2026-04-06T15:07:47.156Z</time></trkpt><trkpt lat="43.3780347" lon="11.2851602"><ele>238.5</ele><time>2026-04-06T15:07:48.157Z</time></trkpt><trkpt lat="43.3777947" lon="11.285288"><ele>236.0</ele><time>2026-04-06T15:07:49.146Z</time></trkpt><trkpt lat="43.3775502" lon="11.2853944"><ele>236.0</ele><time>2026-04-06T15:07:50.151Z</time></trkpt><trkpt lat="43.3773013" lon="11.2854846"><ele>236.0</ele><time>2026-04-06T15:07:51.155Z</time></trkpt><trkpt lat="43.3770463" lon="11.2855699"><ele>244.5</ele><time>2026-04-06T15:07:52.14Z</time></trkpt><trkpt lat="43.3767962" lon="11.2856414"><ele>253.0</ele><time>2026-04-06T15:07:53.138Z</time></trkpt><trkpt lat="43.3765456" lon="11.2857126"><ele>252.0</ele><time>2026-04-06T15:07:54.144Z</time></trkpt><trkpt lat="43.3762955" lon="11.285782"><ele>251.0</ele><time>2026-04-06T15:07:55.142Z</time></trkpt><trkpt lat="43.376048" lon="11.2858612"><ele>251.0</ele><time>2026-04-06T15:07:56.143Z</time></trkpt><trkpt lat="43.3758009" lon="11.2859429"><ele>251.0</ele><time>2026-04-06T15:07:57.15Z</time></trkpt><trkpt lat="43.3755569" lon="11.2860284"><ele>250.5</ele><time>2026-04-06T15:07:58.162Z</time></trkpt><trkpt lat="43.3753171" lon="11.2861048"><ele>250.0</ele><time>2026-04-06T15:07:59.155Z</time></trkpt><trkpt lat="43.375078" lon="11.2861793"><ele>250.0</ele><time>2026-04-06T15:08:00.15Z</time></trkpt><trkpt lat="43.3748483" lon="11.2862503"><ele>250.0</ele><time>2026-04-06T15:08:01.146Z</time></trkpt><trkpt lat="43.3746196" lon="11.2863168"><ele>248.0</ele><time>2026-04-06T15:08:02.149Z</time></trkpt><trkpt lat="43.3743936" lon="11.2863921"><ele>246.0</ele><time>2026-04-06T15:08:03.143Z</time></trkpt><trkpt lat="43.3741592" lon="11.2864794"><ele>250.0</ele><time>2026-04-06T15:08:04.144Z</time></trkpt><trkpt lat="43.3739266" lon="11.28656"><ele>254.0</ele><time>2026-04-06T15:08:05.149Z</time></trkpt><trkpt lat="43.3736939" lon="11.286634"><ele>254.0</ele><time>2026-04-06T15:08:06.143Z</time></trkpt><trkpt lat="43.3734632" lon="11.2867106"><ele>254.0</ele><time>2026-04-06T15:08:07.142Z</time></trkpt><trkpt lat="43.3732304" lon="11.2867836"><ele>252.5</ele><time>2026-04-06T15:08:08.143Z</time></trkpt><trkpt lat="43.372998" lon="11.2868503"><ele>251.0</ele><time>2026-04-06T15:08:09.141Z</time></trkpt><trkpt lat="43.3727641" lon="11.2869236"><ele>251.0</ele><time>2026-04-06T15:08:10.144Z</time></trkpt><trkpt lat="43.3725294" lon="11.2869963"><ele>251.0</ele><time>2026-04-06T15:08:11.151Z</time></trkpt><trkpt lat="43.3722896" lon="11.2870753"><ele>249.5</ele><time>2026-04-06T15:08:12.148Z</time></trkpt><trkpt lat="43.3720549" lon="11.287164"><ele>248.0</ele><time>2026-04-06T15:08:13.161Z</time></trkpt><trkpt lat="43.3718275" lon="11.2872652"><ele>256.5</ele><time>2026-04-06T15:08:14.148Z</time></trkpt><trkpt lat="43.3715997" lon="11.2873836"><ele>265.0</ele><time>2026-04-06T15:08:15.15Z</time></trkpt><trkpt lat="43.3713807" lon="11.2875103"><ele>262.0</ele><time>2026-04-06T15:08:16.144Z</time></trkpt><trkpt lat="43.3711818" lon="11.2876526"><ele>259.0</ele><time>2026-04-06T15:08:17.142Z</time></trkpt><trkpt lat="43.3709936" lon="11.2877995"><ele>256.0</ele><time>2026-04-06T15:08:18.145Z</time></trkpt><trkpt lat="43.3708082" lon="11.2879558"><ele>257.5</ele><time>2026-04-06T15:08:19.162Z</time></trkpt><trkpt lat="43.3706118" lon="11.2881213"><ele>259.0</ele><time>2026-04-06T15:08:20.148Z</time></trkpt><trkpt lat="43.3704209" lon="11.2882996"><ele>259.0</ele><time>2026-04-06T15:08:21.149Z</time></trkpt><trkpt lat="43.3702345" lon="11.2884973"><ele>259.0</ele><time>2026-04-06T15:08:22.156Z</time></trkpt><trkpt lat="43.3700533" lon="11.2886979"><ele>259.0</ele><time>2026-04-06T15:08:23.15Z</time></trkpt><trkpt lat="43.36987" lon="11.2889193"><ele>259.0</ele><time>2026-04-06T15:08:24.153Z</time></trkpt><trkpt lat="43.3696923" lon="11.2891514"><ele>259.5</ele><time>2026-04-06T15:08:25.155Z</time></trkpt><trkpt lat="43.3695188" lon="11.2893992"><ele>260.0</ele><time>2026-04-06T15:08:26.153Z</time></trkpt><trkpt lat="43.3693419" lon="11.2896682"><ele>262.0</ele><time>2026-04-06T15:08:27.139Z</time></trkpt><trkpt lat="43.3691756" lon="11.2899421"><ele>264.0</ele><time>2026-04-06T15:08:28.157Z</time></trkpt><trkpt lat="43.3690217" lon="11.2902343"><ele>264.0</ele><time>2026-04-06T15:08:29.143Z</time></trkpt><trkpt lat="43.368875" lon="11.2905324"><ele>264.0</ele><time>2026-04-06T15:08:30.14Z</time></trkpt><trkpt lat="43.3687369" lon="11.2908398"><ele>264.0</ele><time>2026-04-06T15:08:31.152Z</time></trkpt><trkpt lat="43.3686033" lon="11.2911613"><ele>264.0</ele><time>2026-04-06T15:08:32.139Z</time></trkpt><trkpt lat="43.368477" lon="11.291493"><ele>264.0</ele><time>2026-04-06T15:08:33.15Z</time></trkpt><trkpt lat="43.3683589" lon="11.2918334"><ele>264.0</ele><time>2026-04-06T15:08:34.139Z</time></trkpt><trkpt lat="43.3682578" lon="11.2921872"><ele>269.0</ele><time>2026-04-06T15:08:35.141Z</time></trkpt><trkpt lat="43.3681783" lon="11.2925486"><ele>274.0</ele><time>2026-04-06T15:08:36.137Z</time></trkpt><trkpt lat="43.3681081" lon="11.2929195"><ele>273.5</ele><time>2026-04-06T15:08:37.146Z</time></trkpt><trkpt lat="43.368052" lon="11.2932961"><ele>273.0</ele><time>2026-04-06T15:08:38.148Z</time></trkpt><trkpt lat="43.368" lon="11.293671"><ele>273.5</ele><time>2026-04-06T15:08:39.158Z</time></trkpt><trkpt lat="43.3679454" lon="11.2940551"><ele>274.0</ele><time>2026-04-06T15:08:40.15Z</time></trkpt><trkpt lat="43.3678891" lon="11.2944282"><ele>271.5</ele><time>2026-04-06T15:08:41.147Z</time></trkpt><trkpt lat="43.3678241" lon="11.2948045"><ele>269.0</ele><time>2026-04-06T15:08:42.15Z</time></trkpt><trkpt lat="43.3677625" lon="11.2951806"><ele>269.0</ele><time>2026-04-06T15:08:43.145Z</time></trkpt><trkpt lat="43.3676961" lon="11.2955595"><ele>269.0</ele><time>2026-04-06T15:08:44.157Z</time></trkpt><trkpt lat="43.3676377" lon="11.2959388"><ele>269.0</ele><time>2026-04-06T15:08:45.154Z</time></trkpt><trkpt lat="43.3675768" lon="11.2963138"><ele>269.0</ele><time>2026-04-06T15:08:46.143Z</time></trkpt><trkpt lat="43.3675088" lon="11.296688"><ele>269.0</ele><time>2026-04-06T15:08:47.139Z</time></trkpt><trkpt lat="43.3674441" lon="11.2970631"><ele>269.0</ele><time>2026-04-06T15:08:48.139Z</time></trkpt><trkpt lat="43.3673787" lon="11.2974379"><ele>271.0</ele><time>2026-04-06T15:08:49.164Z</time></trkpt><trkpt lat="43.3673093" lon="11.2978032"><ele>273.0</ele><time>2026-04-06T15:08:50.153Z</time></trkpt><trkpt lat="43.3672186" lon="11.2981635"><ele>275.0</ele><time>2026-04-06T15:08:51.161Z</time></trkpt><trkpt lat="43.3671092" lon="11.2985085"><ele>277.0</ele><time>2026-04-06T15:08:52.148Z</time></trkpt><trkpt lat="43.3669849" lon="11.2988426"><ele>281.5</ele><time>2026-04-06T15:08:53.151Z</time></trkpt><trkpt lat="43.3668529" lon="11.2991631"><ele>286.0</ele><time>2026-04-06T15:08:54.147Z</time></trkpt><trkpt lat="43.3667066" lon="11.2994728"><ele>290.5</ele><time>2026-04-06T15:08:55.156Z</time></trkpt><trkpt lat="43.3665576" lon="11.2997714"><ele>295.0</ele><time>2026-04-06T15:08:56.138Z</time></trkpt><trkpt lat="43.366408" lon="11.3000736"><ele>291.5</ele><time>2026-04-06T15:08:57.151Z</time></trkpt><trkpt lat="43.3662566" lon="11.3003662"><ele>288.0</ele><time>2026-04-06T15:08:58.143Z</time></trkpt><trkpt lat="43.3661036" lon="11.300651"><ele>288.0</ele><time>2026-04-06T15:08:59.147Z</time></trkpt><trkpt lat="43.36594" lon="11.3009311"><ele>288.0</ele><time>2026-04-06T15:09:00.148Z</time></trkpt><trkpt lat="43.365773" lon="11.3011997"><ele>289.5</ele><time>2026-04-06T15:09:01.154Z</time></trkpt><trkpt lat="43.3655949" lon="11.3014566"><ele>291.0</ele><time>2026-04-06T15:09:02.138Z</time></trkpt><trkpt lat="43.3654049" lon="11.3017059"><ele>287.0</ele><time>2026-04-06T15:09:03.148Z</time></trkpt><trkpt lat="43.3652072" lon="11.3019417"><ele>283.0</ele><time>2026-04-06T15:09:04.154Z</time></trkpt><trkpt lat="43.3649954" lon="11.3021582"><ele>285.5</ele><time>2026-04-06T15:09:05.164Z</time></trkpt><trkpt lat="43.364781" lon="11.3023537"><ele>288.0</ele><time>2026-04-06T15:09:06.138Z</time></trkpt><trkpt lat="43.3645577" lon="11.3025423"><ele>289.0</ele><time>2026-04-06T15:09:07.148Z</time></trkpt><trkpt lat="43.3643356" lon="11.3027266"><ele>290.0</ele><time>2026-04-06T15:09:08.152Z</time></trkpt><trkpt lat="43.3641044" lon="11.3028889"><ele>290.0</ele><time>2026-04-06T15:09:09.146Z</time></trkpt><trkpt lat="43.363864" lon="11.3030416"><ele>290.0</ele><time>2026-04-06T15:09:10.152Z</time></trkpt><trkpt lat="43.3636218" lon="11.303181"><ele>291.5</ele><time>2026-04-06T15:09:11.134Z</time></trkpt><trkpt lat="43.3633718" lon="11.3033015"><ele>293.0</ele><time>2026-04-06T15:09:12.149Z</time></trkpt><trkpt lat="43.3631144" lon="11.3034"><ele>288.5</ele><time>2026-04-06T15:09:13.157Z</time></trkpt><trkpt lat="43.3628564" lon="11.3034856"><ele>284.0</ele><time>2026-04-06T15:09:14.155Z</time></trkpt><trkpt lat="43.3625989" lon="11.3035625"><ele>284.0</ele><time>2026-04-06T15:09:15.146Z</time></trkpt><trkpt lat="43.3623371" lon="11.3036276"><ele>284.0</ele><time>2026-04-06T15:09:16.154Z</time></trkpt><trkpt lat="43.3620803" lon="11.3036864"><ele>282.5</ele><time>2026-04-06T15:09:17.146Z</time></trkpt><trkpt lat="43.3618202" lon="11.3037422"><ele>281.0</ele><time>2026-04-06T15:09:18.162Z</time></trkpt><trkpt lat="43.3615627" lon="11.3037957"><ele>280.0</ele><time>2026-04-06T15:09:19.155Z</time></trkpt><trkpt lat="43.3613041" lon="11.3038507"><ele>279.0</ele><time>2026-04-06T15:09:20.148Z</time></trkpt><trkpt lat="43.3610469" lon="11.3039141"><ele>285.5</ele><time>2026-04-06T15:09:21.161Z</time></trkpt><trkpt lat="43.360792" lon="11.3039765"><ele>292.0</ele><time>2026-04-06T15:09:22.15Z</time></trkpt><trkpt lat="43.3605382" lon="11.3040415"><ele>290.0</ele><time>2026-04-06T15:09:23.143Z</time></trkpt><trkpt lat="43.3602824" lon="11.3041037"><ele>288.0</ele><time>2026-04-06T15:09:24.147Z</time></trkpt><trkpt lat="43.3600276" lon="11.3041618"><ele>288.0</ele><time>2026-04-06T15:09:25.136Z</time></trkpt><trkpt lat="43.3597663" lon="11.3042196"><ele>288.0</ele><time>2026-04-06T15:09:26.144Z</time></trkpt><trkpt lat="43.3595061" lon="11.3042751"><ele>288.0</ele><time>2026-04-06T15:09:27.145Z</time></trkpt><trkpt lat="43.3592481" lon="11.3043365"><ele>288.0</ele><time>2026-04-06T15:09:28.14Z</time></trkpt><trkpt lat="43.35899" lon="11.3044001"><ele>287.5</ele><time>2026-04-06T15:09:29.141Z</time></trkpt><trkpt lat="43.3587343" lon="11.3044708"><ele>287.0</ele><time>2026-04-06T15:09:30.14Z</time></trkpt><trkpt lat="43.3584797" lon="11.3045361"><ele>287.0</ele><time>2026-04-06T15:09:31.147Z</time></trkpt><trkpt lat="43.3582226" lon="11.3045969"><ele>287.0</ele><time>2026-04-06T15:09:32.14Z</time></trkpt><trkpt lat="43.3579617" lon="11.3046635"><ele>287.5</ele><time>2026-04-06T15:09:33.161Z</time></trkpt><trkpt lat="43.3576995" lon="11.3047234"><ele>288.0</ele><time>2026-04-06T15:09:34.142Z</time></trkpt><trkpt lat="43.3574412" lon="11.3047827"><ele>295.0</ele><time>2026-04-06T15:09:35.14Z</time></trkpt><trkpt lat="43.3571855" lon="11.3048363"><ele>302.0</ele><time>2026-04-06T15:09:36.143Z</time></trkpt><trkpt lat="43.3569303" lon="11.3048731"><ele>302.0</ele><time>2026-04-06T15:09:37.143Z</time></trkpt><trkpt lat="43.3566773" lon="11.3049075"><ele>302.0</ele><time>2026-04-06T15:09:38.142Z</time></trkpt><trkpt lat="43.3564267" lon="11.304925"><ele>300.5</ele><time>2026-04-06T15:09:39.144Z</time></trkpt><trkpt lat="43.356175" lon="11.3049291"><ele>299.0</ele><time>2026-04-06T15:09:40.163Z</time></trkpt><trkpt lat="43.3559227" lon="11.3049199"><ele>299.0</ele><time>2026-04-06T15:09:41.143Z</time></trkpt><trkpt lat="43.3556709" lon="11.3048931"><ele>299.0</ele><time>2026-04-06T15:09:42.161Z</time></trkpt><trkpt lat="43.3554182" lon="11.304849"><ele>298.0</ele><time>2026-04-06T15:09:43.152Z</time></trkpt><trkpt lat="43.3551716" lon="11.3047921"><ele>297.0</ele><time>2026-04-06T15:09:44.152Z</time></trkpt><trkpt lat="43.3549189" lon="11.3047265"><ele>293.5</ele><time>2026-04-06T15:09:45.163Z</time></trkpt><trkpt lat="43.354667" lon="11.3046436"><ele>290.0</ele><time>2026-04-06T15:09:46.14Z</time></trkpt><trkpt lat="43.3544122" lon="11.3045506"><ele>290.0</ele><time>2026-04-06T15:09:47.152Z</time></trkpt><trkpt lat="43.3541634" lon="11.3044456"><ele>290.0</ele><time>2026-04-06T15:09:48.151Z</time></trkpt><trkpt lat="43.3539155" lon="11.3043208"><ele>292.0</ele><time>2026-04-06T15:09:49.154Z</time></trkpt><trkpt lat="43.3536727" lon="11.3041909"><ele>294.0</ele><time>2026-04-06T15:09:50.157Z</time></trkpt><trkpt lat="43.3534316" lon="11.3040482"><ele>296.5</ele><time>2026-04-06T15:09:51.148Z</time></trkpt><trkpt lat="43.3531882" lon="11.30391"><ele>299.0</ele><time>2026-04-06T15:09:52.151Z</time></trkpt><trkpt lat="43.3529378" lon="11.3037703"><ele>299.0</ele><time>2026-04-06T15:09:53.159Z</time></trkpt><trkpt lat="43.3526968" lon="11.3036264"><ele>299.0</ele><time>2026-04-06T15:09:54.152Z</time></trkpt><trkpt lat="43.3524563" lon="11.3034847"><ele>299.0</ele><time>2026-04-06T15:09:55.163Z</time></trkpt><trkpt lat="43.3522161" lon="11.3033494"><ele>299.0</ele><time>2026-04-06T15:09:56.151Z</time></trkpt><trkpt lat="43.3519795" lon="11.3032107"><ele>302.0</ele><time>2026-04-06T15:09:57.155Z</time></trkpt><trkpt lat="43.3517463" lon="11.3030693"><ele>305.0</ele><time>2026-04-06T15:09:58.156Z</time></trkpt><trkpt lat="43.3515093" lon="11.3029373"><ele>308.0</ele><time>2026-04-06T15:09:59.15Z</time></trkpt><trkpt lat="43.3512817" lon="11.3028005"><ele>311.0</ele><time>2026-04-06T15:10:00.151Z</time></trkpt><trkpt lat="43.3510469" lon="11.3026692"><ele>311.0</ele><time>2026-04-06T15:10:01.144Z</time></trkpt><trkpt lat="43.3508162" lon="11.3025354"><ele>311.0</ele><time>2026-04-06T15:10:02.157Z</time></trkpt><trkpt lat="43.3505853" lon="11.3024059"><ele>313.0</ele><time>2026-04-06T15:10:03.152Z</time></trkpt><trkpt lat="43.3503559" lon="11.3022794"><ele>315.0</ele><time>2026-04-06T15:10:04.144Z</time></trkpt><trkpt lat="43.3501253" lon="11.3021499"><ele>317.0</ele><time>2026-04-06T15:10:05.143Z</time></trkpt><trkpt lat="43.3498955" lon="11.3020165"><ele>319.0</ele><time>2026-04-06T15:10:06.142Z</time></trkpt><trkpt lat="43.3496687" lon="11.3018847"><ele>315.0</ele><time>2026-04-06T15:10:07.151Z</time></trkpt><trkpt lat="43.3494404" lon="11.3017592"><ele>311.0</ele><time>2026-04-06T15:10:08.151Z</time></trkpt><trkpt lat="43.3492097" lon="11.3016236"><ele>311.0</ele><time>2026-04-06T15:10:09.149Z</time></trkpt><trkpt lat="43.3489815" lon="11.3014844"><ele>311.0</ele><time>2026-04-06T15:10:10.143Z</time></trkpt><trkpt lat="43.3487536" lon="11.3013463"><ele>318.5</ele><time>2026-04-06T15:10:11.143Z</time></trkpt><trkpt lat="43.3485259" lon="11.3012083"><ele>326.0</ele><time>2026-04-06T15:10:12.163Z</time></trkpt><trkpt lat="43.3482985" lon="11.3010784"><ele>326.0</ele><time>2026-04-06T15:10:13.148Z</time></trkpt><trkpt lat="43.3480689" lon="11.3009513"><ele>326.0</ele><time>2026-04-06T15:10:14.141Z</time></trkpt><trkpt lat="43.3478406" lon="11.3008212"><ele>325.0</ele><time>2026-04-06T15:10:15.148Z</time></trkpt><trkpt lat="43.3476162" lon="11.3006907"><ele>324.0</ele><time>2026-04-06T15:10:16.151Z</time></trkpt><trkpt lat="43.3473973" lon="11.3005435"><ele>326.5</ele><time>2026-04-06T15:10:17.152Z</time></trkpt><trkpt lat="43.347188" lon="11.3003852"><ele>329.0</ele><time>2026-04-06T15:10:18.146Z</time></trkpt><trkpt lat="43.3469791" lon="11.3002257"><ele>329.0</ele><time>2026-04-06T15:10:19.15Z</time></trkpt><trkpt lat="43.3467759" lon="11.300055"><ele>329.0</ele><time>2026-04-06T15:10:20.145Z</time></trkpt><trkpt lat="43.3465748" lon="11.2998745"><ele>334.5</ele><time>2026-04-06T15:10:21.147Z</time></trkpt><trkpt lat="43.3463843" lon="11.2996851"><ele>340.0</ele><time>2026-04-06T15:10:22.146Z</time></trkpt><trkpt lat="43.3461949" lon="11.2994971"><ele>342.0</ele><time>2026-04-06T15:10:23.143Z</time></trkpt><trkpt lat="43.3460059" lon="11.2993147"><ele>344.0</ele><time>2026-04-06T15:10:24.133Z</time></trkpt><trkpt lat="43.3426913" lon="11.2960695"><ele>337.5</ele><time>2026-04-06T15:10:39.138Z</time></trkpt><trkpt lat="43.3424792" lon="11.2958592"><ele>331.0</ele><time>2026-04-06T15:10:40.143Z</time></trkpt><trkpt lat="43.3422644" lon="11.2956581"><ele>335.5</ele><time>2026-04-06T15:10:41.132Z</time></trkpt><trkpt lat="43.3420337" lon="11.2954836"><ele>340.0</ele><time>2026-04-06T15:10:42.14Z</time></trkpt><trkpt lat="43.3418021" lon="11.2953145"><ele>340.0</ele><time>2026-04-06T15:10:43.148Z</time></trkpt><trkpt lat="43.3415695" lon="11.2951601"><ele>340.0</ele><time>2026-04-06T15:10:44.136Z</time></trkpt><trkpt lat="43.3413344" lon="11.2950158"><ele>340.0</ele><time>2026-04-06T15:10:45.147Z</time></trkpt><trkpt lat="43.3410936" lon="11.2948534"><ele>340.0</ele><time>2026-04-06T15:10:46.136Z</time></trkpt><trkpt lat="43.3408526" lon="11.2947048"><ele>344.0</ele><time>2026-04-06T15:10:47.132Z</time></trkpt><trkpt lat="43.3406078" lon="11.2945605"><ele>348.0</ele><time>2026-04-06T15:10:48.131Z</time></trkpt><trkpt lat="43.3392482" lon="11.293782"><ele>334.5</ele><time>2026-04-06T15:10:54.144Z</time></trkpt><trkpt lat="43.339005" lon="11.2936649"><ele>321.0</ele><time>2026-04-06T15:10:55.138Z</time></trkpt><trkpt lat="43.3387892" lon="11.2935376"><ele>319.0</ele><time>2026-04-06T15:10:56.138Z</time></trkpt><trkpt lat="43.3385887" lon="11.2934123"><ele>317.0</ele><time>2026-04-06T15:10:57.141Z</time></trkpt><trkpt lat="43.3383712" lon="11.2932872"><ele>317.0</ele><time>2026-04-06T15:10:58.149Z</time></trkpt><trkpt lat="43.3381495" lon="11.2931545"><ele>317.0</ele><time>2026-04-06T15:10:59.135Z</time></trkpt><trkpt lat="43.337917" lon="11.2930278"><ele>311.0</ele><time>2026-04-06T15:11:00.135Z</time></trkpt><trkpt lat="43.3376857" lon="11.2928966"><ele>305.0</ele><time>2026-04-06T15:11:01.136Z</time></trkpt><trkpt lat="43.3374489" lon="11.2927672"><ele>304.0</ele><time>2026-04-06T15:11:02.131Z</time></trkpt><trkpt lat="43.3372134" lon="11.2926374"><ele>303.0</ele><time>2026-04-06T15:11:03.151Z</time></trkpt><trkpt lat="43.3369762" lon="11.2925082"><ele>303.0</ele><time>2026-04-06T15:11:04.134Z</time></trkpt><trkpt lat="43.3367376" lon="11.2923737"><ele>303.0</ele><time>2026-04-06T15:11:05.151Z</time></trkpt><trkpt lat="43.3364963" lon="11.2922393"><ele>301.5</ele><time>2026-04-06T15:11:06.141Z</time></trkpt><trkpt lat="43.3362499" lon="11.292103"><ele>300.0</ele><time>2026-04-06T15:11:07.145Z</time></trkpt><trkpt lat="43.3360056" lon="11.2919649"><ele>300.0</ele><time>2026-04-06T15:11:08.148Z</time></trkpt><trkpt lat="43.3357559" lon="11.2918391"><ele>300.0</ele><time>2026-04-06T15:11:09.142Z</time></trkpt><trkpt lat="43.3355059" lon="11.2917218"><ele>299.0</ele><time>2026-04-06T15:11:10.146Z</time></trkpt><trkpt lat="43.3352506" lon="11.2916124"><ele>298.0</ele><time>2026-04-06T15:11:11.156Z</time></trkpt><trkpt lat="43.3349931" lon="11.2915198"><ele>298.0</ele><time>2026-04-06T15:11:12.146Z</time></trkpt><trkpt lat="43.3347339" lon="11.2914402"><ele>298.0</ele><time>2026-04-06T15:11:13.149Z</time></trkpt><trkpt lat="43.3344674" lon="11.2913761"><ele>291.0</ele><time>2026-04-06T15:11:14.158Z</time></trkpt><trkpt lat="43.3341947" lon="11.2913322"><ele>284.0</ele><time>2026-04-06T15:11:15.146Z</time></trkpt><trkpt lat="43.3339251" lon="11.2913022"><ele>281.5</ele><time>2026-04-06T15:11:16.151Z</time></trkpt><trkpt lat="43.3336491" lon="11.2912836"><ele>279.0</ele><time>2026-04-06T15:11:17.148Z</time></trkpt><trkpt lat="43.3333766" lon="11.2912879"><ele>279.0</ele><time>2026-04-06T15:11:18.143Z</time></trkpt><trkpt lat="43.3331078" lon="11.2913089"><ele>279.0</ele><time>2026-04-06T15:11:19.149Z</time></trkpt><trkpt lat="43.3328351" lon="11.2913468"><ele>277.0</ele><time>2026-04-06T15:11:20.135Z</time></trkpt><trkpt lat="43.3325646" lon="11.2913917"><ele>275.0</ele><time>2026-04-06T15:11:21.146Z</time></trkpt><trkpt lat="43.3322977" lon="11.2914673"><ele>274.5</ele><time>2026-04-06T15:11:22.142Z</time></trkpt><trkpt lat="43.3320363" lon="11.2915602"><ele>274.0</ele><time>2026-04-06T15:11:23.15Z</time></trkpt><trkpt lat="43.3317771" lon="11.2916697"><ele>274.0</ele><time>2026-04-06T15:11:24.146Z</time></trkpt><trkpt lat="43.3315241" lon="11.2917831"><ele>274.0</ele><time>2026-04-06T15:11:25.147Z</time></trkpt><trkpt lat="43.3312778" lon="11.2919099"><ele>271.0</ele><time>2026-04-06T15:11:26.154Z</time></trkpt><trkpt lat="43.3310378" lon="11.2920573"><ele>268.0</ele><time>2026-04-06T15:11:27.143Z</time></trkpt><trkpt lat="43.3307951" lon="11.2922159"><ele>268.0</ele><time>2026-04-06T15:11:28.154Z</time></trkpt><trkpt lat="43.3305572" lon="11.2923832"><ele>268.0</ele><time>2026-04-06T15:11:29.151Z</time></trkpt><trkpt lat="43.3303176" lon="11.2925658"><ele>268.0</ele><time>2026-04-06T15:11:30.146Z</time></trkpt><trkpt lat="43.3300884" lon="11.2927719"><ele>268.0</ele><time>2026-04-06T15:11:31.148Z</time></trkpt><trkpt lat="43.3298557" lon="11.292994"><ele>268.5</ele><time>2026-04-06T15:11:32.136Z</time></trkpt><trkpt lat="43.3296245" lon="11.2932163"><ele>269.0</ele><time>2026-04-06T15:11:33.147Z</time></trkpt><trkpt lat="43.3293868" lon="11.2934349"><ele>269.0</ele><time>2026-04-06T15:11:34.147Z</time></trkpt><trkpt lat="43.3291563" lon="11.2936524"><ele>269.0</ele><time>2026-04-06T15:11:35.142Z</time></trkpt><trkpt lat="43.3289229" lon="11.2938583"><ele>267.5</ele><time>2026-04-06T15:11:36.18Z</time></trkpt><trkpt lat="43.3286928" lon="11.2940578"><ele>266.0</ele><time>2026-04-06T15:11:37.146Z</time></trkpt><trkpt lat="43.3284669" lon="11.2942576"><ele>266.0</ele><time>2026-04-06T15:11:38.146Z</time></trkpt><trkpt lat="43.3282368" lon="11.2944519"><ele>266.0</ele><time>2026-04-06T15:11:39.146Z</time></trkpt><trkpt lat="43.3280083" lon="11.2946432"><ele>266.5</ele><time>2026-04-06T15:11:40.16Z</time></trkpt><trkpt lat="43.3277804" lon="11.2948354"><ele>267.0</ele><time>2026-04-06T15:11:41.157Z</time></trkpt><trkpt lat="43.3275547" lon="11.2950275"><ele>267.0</ele><time>2026-04-06T15:11:42.142Z</time></trkpt><trkpt lat="43.3273301" lon="11.2952303"><ele>267.0</ele><time>2026-04-06T15:11:43.145Z</time></trkpt><trkpt lat="43.3271005" lon="11.2954242"><ele>265.5</ele><time>2026-04-06T15:11:44.148Z</time></trkpt><trkpt lat="43.3268755" lon="11.2956159"><ele>264.0</ele><time>2026-04-06T15:11:45.145Z</time></trkpt><trkpt lat="43.3266458" lon="11.2958037"><ele>264.0</ele><time>2026-04-06T15:11:46.136Z</time></trkpt><trkpt lat="43.3264104" lon="11.2959814"><ele>264.0</ele><time>2026-04-06T15:11:47.138Z</time></trkpt><trkpt lat="43.3261728" lon="11.296148"><ele>264.0</ele><time>2026-04-06T15:11:48.148Z</time></trkpt><trkpt lat="43.3259345" lon="11.2963189"><ele>264.0</ele><time>2026-04-06T15:11:49.15Z</time></trkpt><trkpt lat="43.325695" lon="11.296487"><ele>262.0</ele><time>2026-04-06T15:11:50.141Z</time></trkpt><trkpt lat="43.3254559" lon="11.2966599"><ele>260.0</ele><time>2026-04-06T15:11:51.15Z</time></trkpt><trkpt lat="43.3252174" lon="11.2968379"><ele>260.0</ele><time>2026-04-06T15:11:52.146Z</time></trkpt><trkpt lat="43.32498" lon="11.2970138"><ele>260.0</ele><time>2026-04-06T15:11:53.151Z</time></trkpt><trkpt lat="43.3247382" lon="11.2971808"><ele>261.0</ele><time>2026-04-06T15:11:54.148Z</time></trkpt><trkpt lat="43.3244996" lon="11.2973573"><ele>262.0</ele><time>2026-04-06T15:11:55.146Z</time></trkpt><trkpt lat="43.3242578" lon="11.2975335"><ele>262.0</ele><time>2026-04-06T15:11:56.141Z</time></trkpt><trkpt lat="43.3240173" lon="11.2977038"><ele>262.0</ele><time>2026-04-06T15:11:57.144Z</time></trkpt><trkpt lat="43.3237751" lon="11.297872"><ele>262.5</ele><time>2026-04-06T15:11:58.143Z</time></trkpt><trkpt lat="43.3235354" lon="11.2980398"><ele>263.0</ele><time>2026-04-06T15:11:59.15Z</time></trkpt><trkpt lat="43.3233006" lon="11.2982069"><ele>260.0</ele><time>2026-04-06T15:12:00.15Z</time></trkpt><trkpt lat="43.3230624" lon="11.2983679"><ele>257.0</ele><time>2026-04-06T15:12:01.151Z</time></trkpt><trkpt lat="43.3228256" lon="11.2985282"><ele>257.0</ele><time>2026-04-06T15:12:02.149Z</time></trkpt><trkpt lat="43.3225854" lon="11.2986853"><ele>257.0</ele><time>2026-04-06T15:12:03.151Z</time></trkpt><trkpt lat="43.3223492" lon="11.2988431"><ele>259.0</ele><time>2026-04-06T15:12:04.153Z</time></trkpt><trkpt lat="43.3221095" lon="11.299009"><ele>261.0</ele><time>2026-04-06T15:12:05.153Z</time></trkpt><trkpt lat="43.3218766" lon="11.2991786"><ele>261.0</ele><time>2026-04-06T15:12:06.153Z</time></trkpt><trkpt lat="43.3216416" lon="11.2993464"><ele>261.0</ele><time>2026-04-06T15:12:07.15Z</time></trkpt><trkpt lat="43.3214112" lon="11.2995148"><ele>259.0</ele><time>2026-04-06T15:12:08.139Z</time></trkpt><trkpt lat="43.3211804" lon="11.2996774"><ele>257.0</ele><time>2026-04-06T15:12:09.149Z</time></trkpt><trkpt lat="43.3209489" lon="11.2998334"><ele>257.0</ele><time>2026-04-06T15:12:10.147Z</time></trkpt><trkpt lat="43.3207134" lon="11.2999892"><ele>257.0</ele><time>2026-04-06T15:12:11.151Z</time></trkpt><trkpt lat="43.3204846" lon="11.3001512"><ele>257.0</ele><time>2026-04-06T15:12:12.156Z</time></trkpt><trkpt lat="43.320256" lon="11.3003155"><ele>257.0</ele><time>2026-04-06T15:12:13.14Z</time></trkpt><trkpt lat="43.32003" lon="11.3004873"><ele>257.5</ele><time>2026-04-06T15:12:14.158Z</time></trkpt><trkpt lat="43.3198011" lon="11.300661"><ele>258.0</ele><time>2026-04-06T15:12:15.144Z</time></trkpt><trkpt lat="43.3195711" lon="11.3008323"><ele>258.0</ele><time>2026-04-06T15:12:16.138Z</time></trkpt><trkpt lat="43.3193409" lon="11.3009982"><ele>258.0</ele><time>2026-04-06T15:12:17.137Z</time></trkpt><trkpt lat="43.3191097" lon="11.3011607"><ele>260.5</ele><time>2026-04-06T15:12:18.144Z</time></trkpt><trkpt lat="43.3188826" lon="11.3013221"><ele>263.0</ele><time>2026-04-06T15:12:19.156Z</time></trkpt><trkpt lat="43.3186545" lon="11.3014815"><ele>257.0</ele><time>2026-04-06T15:12:20.144Z</time></trkpt><trkpt lat="43.3184362" lon="11.3016418"><ele>251.0</ele><time>2026-04-06T15:12:21.15Z</time></trkpt><trkpt lat="43.3182221" lon="11.3017999"><ele>252.5</ele><time>2026-04-06T15:12:22.143Z</time></trkpt><trkpt lat="43.318002" lon="11.301981"><ele>254.0</ele><time>2026-04-06T15:12:23.148Z</time></trkpt><trkpt lat="43.3177857" lon="11.3021544"><ele>251.5</ele><time>2026-04-06T15:12:24.165Z</time></trkpt><trkpt lat="43.3175789" lon="11.3023532"><ele>249.0</ele><time>2026-04-06T15:12:25.149Z</time></trkpt><trkpt lat="43.3173814" lon="11.3025564"><ele>253.5</ele><time>2026-04-06T15:12:26.141Z</time></trkpt><trkpt lat="43.3171802" lon="11.3027737"><ele>258.0</ele><time>2026-04-06T15:12:27.15Z</time></trkpt><trkpt lat="43.3169805" lon="11.3029994"><ele>253.5</ele><time>2026-04-06T15:12:28.141Z</time></trkpt><trkpt lat="43.3167834" lon="11.303243"><ele>249.0</ele><time>2026-04-06T15:12:29.162Z</time></trkpt><trkpt lat="43.3165915" lon="11.3034894"><ele>250.5</ele><time>2026-04-06T15:12:30.145Z</time></trkpt><trkpt lat="43.3164007" lon="11.3037399"><ele>252.0</ele><time>2026-04-06T15:12:31.143Z</time></trkpt><trkpt lat="43.3162184" lon="11.3039978"><ele>252.0</ele><time>2026-04-06T15:12:32.152Z</time></trkpt><trkpt lat="43.3160428" lon="11.3042663"><ele>252.0</ele><time>2026-04-06T15:12:33.165Z</time></trkpt><trkpt lat="43.3158783" lon="11.3045424"><ele>249.0</ele><time>2026-04-06T15:12:34.136Z</time></trkpt><trkpt lat="43.3157248" lon="11.3048227"><ele>246.0</ele><time>2026-04-06T15:12:35.147Z</time></trkpt><trkpt lat="43.3155803" lon="11.3051064"><ele>248.5</ele><time>2026-04-06T15:12:36.146Z</time></trkpt><trkpt lat="43.3154357" lon="11.3053871"><ele>251.0</ele><time>2026-04-06T15:12:37.147Z</time></trkpt><trkpt lat="43.3152843" lon="11.3056762"><ele>251.0</ele><time>2026-04-06T15:12:38.148Z</time></trkpt><trkpt lat="43.3151295" lon="11.3059607"><ele>251.0</ele><time>2026-04-06T15:12:39.156Z</time></trkpt><trkpt lat="43.3149736" lon="11.3062543"><ele>249.5</ele><time>2026-04-06T15:12:40.143Z</time></trkpt><trkpt lat="43.314821" lon="11.3065433"><ele>248.0</ele><time>2026-04-06T15:12:41.15Z</time></trkpt><trkpt lat="43.314666" lon="11.3068302"><ele>246.5</ele><time>2026-04-06T15:12:42.142Z</time></trkpt><trkpt lat="43.3145085" lon="11.3071226"><ele>245.0</ele><time>2026-04-06T15:12:43.164Z</time></trkpt><trkpt lat="43.314353" lon="11.3074052"><ele>245.0</ele><time>2026-04-06T15:12:44.155Z</time></trkpt><trkpt lat="43.3141975" lon="11.3076763"><ele>245.0</ele><time>2026-04-06T15:12:45.137Z</time></trkpt><trkpt lat="43.3140427" lon="11.3079466"><ele>243.0</ele><time>2026-04-06T15:12:46.146Z</time></trkpt><trkpt lat="43.3138888" lon="11.3082049"><ele>241.0</ele><time>2026-04-06T15:12:47.137Z</time></trkpt><trkpt lat="43.3137304" lon="11.3084665"><ele>241.0</ele><time>2026-04-06T15:12:48.141Z</time></trkpt><trkpt lat="43.3135744" lon="11.3087165"><ele>241.0</ele><time>2026-04-06T15:12:49.147Z</time></trkpt><trkpt lat="43.313417" lon="11.3089586"><ele>242.0</ele><time>2026-04-06T15:12:50.144Z</time></trkpt><trkpt lat="43.3132518" lon="11.3091992"><ele>243.0</ele><time>2026-04-06T15:12:51.15Z</time></trkpt><trkpt lat="43.3130754" lon="11.3094363"><ele>241.0</ele><time>2026-04-06T15:12:52.139Z</time></trkpt><trkpt lat="43.3128938" lon="11.3096634"><ele>239.0</ele><time>2026-04-06T15:12:53.145Z</time></trkpt><trkpt lat="43.3127068" lon="11.3098902"><ele>239.0</ele><time>2026-04-06T15:12:54.149Z</time></trkpt><trkpt lat="43.3125211" lon="11.3101095"><ele>239.0</ele><time>2026-04-06T15:12:55.154Z</time></trkpt><trkpt lat="43.3123319" lon="11.3103345"><ele>239.5</ele><time>2026-04-06T15:12:56.148Z</time></trkpt><trkpt lat="43.3121391" lon="11.3105609"><ele>240.0</ele><time>2026-04-06T15:12:57.151Z</time></trkpt><trkpt lat="43.3119448" lon="11.3107804"><ele>240.0</ele><time>2026-04-06T15:12:58.139Z</time></trkpt><trkpt lat="43.3117489" lon="11.3109835"><ele>240.0</ele><time>2026-04-06T15:12:59.147Z</time></trkpt><trkpt lat="43.3115558" lon="11.3111767"><ele>240.0</ele><time>2026-04-06T15:13:00.144Z</time></trkpt><trkpt lat="43.3113647" lon="11.3113534"><ele>240.0</ele><time>2026-04-06T15:13:01.145Z</time></trkpt><trkpt lat="43.3111824" lon="11.3115165"><ele>240.0</ele><time>2026-04-06T15:13:02.141Z</time></trkpt><trkpt lat="43.311015" lon="11.3116572"><ele>239.66666666666669</ele><time>2026-04-06T15:13:03.148Z</time></trkpt><trkpt lat="43.3108575" lon="11.3117843"><ele>239.33333333333334</ele><time>2026-04-06T15:13:04.143Z</time></trkpt><trkpt lat="43.3107164" lon="11.3118888"><ele>239.0</ele><time>2026-04-06T15:13:05.159Z</time></trkpt><trkpt lat="43.3105973" lon="11.3119633"><ele>238.66666666666669</ele><time>2026-04-06T15:13:06.15Z</time></trkpt><trkpt lat="43.3104996" lon="11.3120297"><ele>238.33333333333334</ele><time>2026-04-06T15:13:07.155Z</time></trkpt><trkpt lat="43.3104099" lon="11.3120645"><ele>238.0</ele><time>2026-04-06T15:13:08.158Z</time></trkpt><trkpt lat="43.3103301" lon="11.3120662"><ele>237.66666666666669</ele><time>2026-04-06T15:13:09.152Z</time></trkpt><trkpt lat="43.3102638" lon="11.3120361"><ele>237.33333333333334</ele><time>2026-04-06T15:13:10.146Z</time></trkpt><trkpt lat="43.3101722" lon="11.3120001"><ele>237.0</ele><time>2026-04-06T15:13:12.151Z</time></trkpt><trkpt lat="43.3101201" lon="11.312058"><ele>237.0</ele><time>2026-04-06T15:13:14.148Z</time></trkpt><trkpt lat="43.3100559" lon="11.3120879"><ele>237.0</ele><time>2026-04-06T15:13:24.145Z</time></trkpt><trkpt lat="43.3099889" lon="11.3121835"><ele>237.0</ele><time>2026-04-06T15:17:18.147Z</time></trkpt><trkpt lat="43.3099498" lon="11.3122702"><ele>237.0</ele><time>2026-04-06T15:17:19.151Z</time></trkpt><trkpt lat="43.3099235" lon="11.3123798"><ele>237.0</ele><time>2026-04-06T15:17:20.146Z</time></trkpt><trkpt lat="43.3098947" lon="11.3124721"><ele>237.0</ele><time>2026-04-06T15:17:21.142Z</time></trkpt><trkpt lat="43.3098566" lon="11.3125549"><ele>236.8</ele><time>2026-04-06T15:17:22.143Z</time></trkpt><trkpt lat="43.309799" lon="11.3126349"><ele>236.6</ele><time>2026-04-06T15:17:23.169Z</time></trkpt><trkpt lat="43.3097258" lon="11.3127119"><ele>236.40000000000003</ele><time>2026-04-06T15:17:24.147Z</time></trkpt><trkpt lat="43.3096439" lon="11.3127925"><ele>236.20000000000002</ele><time>2026-04-06T15:17:25.14Z</time></trkpt><trkpt lat="43.3095682" lon="11.3128583"><ele>236.0</ele><time>2026-04-06T15:17:26.14Z</time></trkpt><trkpt lat="43.3094881" lon="11.3129332"><ele>236.0</ele><time>2026-04-06T15:17:27.149Z</time></trkpt><trkpt lat="43.3094117" lon="11.3130075"><ele>236.00000000000003</ele><time>2026-04-06T15:17:28.149Z</time></trkpt><trkpt lat="43.3093322" lon="11.3130822"><ele>236.00000000000003</ele><time>2026-04-06T15:17:29.145Z</time></trkpt><trkpt lat="43.3092501" lon="11.3131718"><ele>236.0</ele><time>2026-04-06T15:17:30.15Z</time></trkpt><trkpt lat="43.3091563" lon="11.3132762"><ele>236.0</ele><time>2026-04-06T15:17:31.147Z</time></trkpt><trkpt lat="43.3090406" lon="11.3133913"><ele>235.66666666666669</ele><time>2026-04-06T15:17:32.151Z</time></trkpt><trkpt lat="43.3089168" lon="11.3135044"><ele>235.33333333333331</ele><time>2026-04-06T15:17:33.148Z</time></trkpt><trkpt lat="43.3087634" lon="11.3136381"><ele>235.0</ele><time>2026-04-06T15:17:34.136Z</time></trkpt><trkpt lat="43.3085997" lon="11.3137773"><ele>234.66666666666666</ele><time>2026-04-06T15:17:35.139Z</time></trkpt><trkpt lat="43.3084444" lon="11.3139038"><ele>234.33333333333331</ele><time>2026-04-06T15:17:36.139Z</time></trkpt><trkpt lat="43.3083009" lon="11.3140256"><ele>234.0</ele><time>2026-04-06T15:17:37.151Z</time></trkpt><trkpt lat="43.3081657" lon="11.3141313"><ele>233.5</ele><time>2026-04-06T15:17:38.144Z</time></trkpt><trkpt lat="43.3080422" lon="11.3142232"><ele>233.0</ele><time>2026-04-06T15:17:39.154Z</time></trkpt><trkpt lat="43.3079196" lon="11.3143202"><ele>232.5</ele><time>2026-04-06T15:17:40.137Z</time></trkpt><trkpt lat="43.3078067" lon="11.3144062"><ele>232.0</ele><time>2026-04-06T15:17:41.146Z</time></trkpt><trkpt lat="43.3077002" lon="11.3144747"><ele>232.0</ele><time>2026-04-06T15:17:42.145Z</time></trkpt><trkpt lat="43.3075971" lon="11.3145011"><ele>232.0</ele><time>2026-04-06T15:17:43.144Z</time></trkpt><trkpt lat="43.307489" lon="11.3144823"><ele>232.0</ele><time>2026-04-06T15:17:44.139Z</time></trkpt><trkpt lat="43.3073976" lon="11.3144295"><ele>232.0</ele><time>2026-04-06T15:17:45.149Z</time></trkpt><trkpt lat="43.3073202" lon="11.3143578"><ele>232.0</ele><time>2026-04-06T15:17:46.145Z</time></trkpt><trkpt lat="43.3072568" lon="11.314277"><ele>234.16666666666666</ele><time>2026-04-06T15:17:47.146Z</time></trkpt><trkpt lat="43.3072162" lon="11.3142069"><ele>236.33333333333331</ele><time>2026-04-06T15:17:48.144Z</time></trkpt><trkpt lat="43.3071656" lon="11.3141274"><ele>238.5</ele><time>2026-04-06T15:17:50.149Z</time></trkpt><trkpt lat="43.3071009" lon="11.3141048"><ele>240.66666666666669</ele><time>2026-04-06T15:17:53.146Z</time></trkpt><trkpt lat="43.3070418" lon="11.3141569"><ele>242.83333333333334</ele><time>2026-04-06T15:17:55.146Z</time></trkpt><trkpt lat="43.3069459" lon="11.3142939"><ele>245.0</ele><time>2026-04-06T15:17:57.141Z</time></trkpt><trkpt lat="43.3068862" lon="11.3143951"><ele>245.0</ele><time>2026-04-06T15:17:58.147Z</time></trkpt><trkpt lat="43.3068216" lon="11.3145029"><ele>245.0</ele><time>2026-04-06T15:17:59.146Z</time></trkpt><trkpt lat="43.3067408" lon="11.3146256"><ele>245.0</ele><time>2026-04-06T15:18:00.139Z</time></trkpt><trkpt lat="43.3066589" lon="11.3147629"><ele>245.0</ele><time>2026-04-06T15:18:01.148Z</time></trkpt><trkpt lat="43.3065863" lon="11.3148918"><ele>247.0</ele><time>2026-04-06T15:18:02.138Z</time></trkpt><trkpt lat="43.3065194" lon="11.3150318"><ele>249.0</ele><time>2026-04-06T15:18:03.145Z</time></trkpt><trkpt lat="43.3064496" lon="11.3151785"><ele>251.0</ele><time>2026-04-06T15:18:04.15Z</time></trkpt><trkpt lat="43.3063824" lon="11.3153244"><ele>253.0</ele><time>2026-04-06T15:18:05.14Z</time></trkpt><trkpt lat="43.3063158" lon="11.31547"><ele>251.5</ele><time>2026-04-06T15:18:06.142Z</time></trkpt><trkpt lat="43.3062287" lon="11.3156125"><ele>250.0</ele><time>2026-04-06T15:18:07.139Z</time></trkpt><trkpt lat="43.3061281" lon="11.3157427"><ele>248.5</ele><time>2026-04-06T15:18:08.143Z</time></trkpt><trkpt lat="43.3060097" lon="11.3158687"><ele>247.0</ele><time>2026-04-06T15:18:09.146Z</time></trkpt><trkpt lat="43.305893" lon="11.3159842"><ele>247.0</ele><time>2026-04-06T15:18:10.138Z</time></trkpt><trkpt lat="43.3057709" lon="11.3160936"><ele>247.0</ele><time>2026-04-06T15:18:11.143Z</time></trkpt><trkpt lat="43.3056484" lon="11.3161988"><ele>247.0</ele><time>2026-04-06T15:18:12.142Z</time></trkpt><trkpt lat="43.305524" lon="11.3163032"><ele>247.0</ele><time>2026-04-06T15:18:13.138Z</time></trkpt><trkpt lat="43.3054077" lon="11.3163997"><ele>245.0</ele><time>2026-04-06T15:18:14.138Z</time></trkpt><trkpt lat="43.3052978" lon="11.3164874"><ele>243.0</ele><time>2026-04-06T15:18:15.14Z</time></trkpt><trkpt lat="43.3051894" lon="11.3165574"><ele>241.0</ele><time>2026-04-06T15:18:16.134Z</time></trkpt><trkpt lat="43.3050827" lon="11.3166097"><ele>239.0</ele><time>2026-04-06T15:18:17.132Z</time></trkpt><trkpt lat="43.304977" lon="11.3166324"><ele>239.0</ele><time>2026-04-06T15:18:18.136Z</time></trkpt><trkpt lat="43.3048675" lon="11.3166183"><ele>238.99999999999997</ele><time>2026-04-06T15:18:19.138Z</time></trkpt><trkpt lat="43.304775" lon="11.3165722"><ele>238.99999999999997</ele><time>2026-04-06T15:18:20.134Z</time></trkpt><trkpt lat="43.3046877" lon="11.316455"><ele>239.0</ele><time>2026-04-06T15:18:21.136Z</time></trkpt><trkpt lat="43.3046075" lon="11.3163423"><ele>239.0</ele><time>2026-04-06T15:18:22.146Z</time></trkpt><trkpt lat="43.304527" lon="11.3162204"><ele>239.75</ele><time>2026-04-06T15:18:23.142Z</time></trkpt><trkpt lat="43.3044617" lon="11.3160823"><ele>240.5</ele><time>2026-04-06T15:18:24.132Z</time></trkpt><trkpt lat="43.3044145" lon="11.3158938"><ele>241.25</ele><time>2026-04-06T15:18:25.145Z</time></trkpt><trkpt lat="43.3043599" lon="11.3156824"><ele>242.0</ele><time>2026-04-06T15:18:26.136Z</time></trkpt><trkpt lat="43.3043129" lon="11.315465"><ele>244.33333333333334</ele><time>2026-04-06T15:18:27.145Z</time></trkpt><trkpt lat="43.3042704" lon="11.3152524"><ele>246.66666666666669</ele><time>2026-04-06T15:18:28.126Z</time></trkpt><trkpt lat="43.30422" lon="11.3150369"><ele>249.0</ele><time>2026-04-06T15:18:29.139Z</time></trkpt><trkpt lat="43.3041694" lon="11.3148252"><ele>251.66666666666669</ele><time>2026-04-06T15:18:30.139Z</time></trkpt><trkpt lat="43.304119" lon="11.314611"><ele>254.33333333333334</ele><time>2026-04-06T15:18:31.142Z</time></trkpt><trkpt lat="43.3040626" lon="11.3143942"><ele>257.0</ele><time>2026-04-06T15:18:32.153Z</time></trkpt><trkpt lat="43.3040026" lon="11.3141791"><ele>257.0</ele><time>2026-04-06T15:18:33.136Z</time></trkpt><trkpt lat="43.3039418" lon="11.3139535"><ele>257.0</ele><time>2026-04-06T15:18:34.144Z</time></trkpt><trkpt lat="43.3038805" lon="11.3137361"><ele>257.0</ele><time>2026-04-06T15:18:35.136Z</time></trkpt><trkpt lat="43.3038237" lon="11.3135124"><ele>257.0</ele><time>2026-04-06T15:18:36.144Z</time></trkpt><trkpt lat="43.3037646" lon="11.3132912"><ele>257.0</ele><time>2026-04-06T15:18:37.135Z</time></trkpt><trkpt lat="43.303705" lon="11.3130775"><ele>257.0</ele><time>2026-04-06T15:18:38.148Z</time></trkpt><trkpt lat="43.3036469" lon="11.3128723"><ele>257.0</ele><time>2026-04-06T15:18:39.162Z</time></trkpt><trkpt lat="43.3035887" lon="11.3126707"><ele>257.0</ele><time>2026-04-06T15:18:40.159Z</time></trkpt><trkpt lat="43.3035365" lon="11.3124672"><ele>257.0</ele><time>2026-04-06T15:18:41.136Z</time></trkpt><trkpt lat="43.3034834" lon="11.3122666"><ele>259.25</ele><time>2026-04-06T15:18:42.154Z</time></trkpt><trkpt lat="43.3034294" lon="11.3120708"><ele>261.5</ele><time>2026-04-06T15:18:43.15Z</time></trkpt><trkpt lat="43.3033735" lon="11.3118775"><ele>263.75</ele><time>2026-04-06T15:18:44.149Z</time></trkpt><trkpt lat="43.3033036" lon="11.311707"><ele>266.0</ele><time>2026-04-06T15:18:45.143Z</time></trkpt><trkpt lat="43.3032033" lon="11.3115495"><ele>266.0</ele><time>2026-04-06T15:18:46.137Z</time></trkpt><trkpt lat="43.3030859" lon="11.3114214"><ele>266.0</ele><time>2026-04-06T15:18:47.161Z</time></trkpt><trkpt lat="43.3029489" lon="11.3113181"><ele>266.0</ele><time>2026-04-06T15:18:48.145Z</time></trkpt><trkpt lat="43.3028114" lon="11.3112448"><ele>266.25</ele><time>2026-04-06T15:18:49.156Z</time></trkpt><trkpt lat="43.3026674" lon="11.3112058"><ele>266.5</ele><time>2026-04-06T15:18:50.143Z</time></trkpt><trkpt lat="43.3025262" lon="11.3112065"><ele>266.75</ele><time>2026-04-06T15:18:51.145Z</time></trkpt><trkpt lat="43.3023794" lon="11.311244"><ele>267.0</ele><time>2026-04-06T15:18:52.147Z</time></trkpt><trkpt lat="43.302244" lon="11.311293"><ele>268.25</ele><time>2026-04-06T15:18:53.154Z</time></trkpt><trkpt lat="43.3021175" lon="11.3113504"><ele>269.5</ele><time>2026-04-06T15:18:54.144Z</time></trkpt><trkpt lat="43.3019873" lon="11.3114223"><ele>270.75</ele><time>2026-04-06T15:18:55.153Z</time></trkpt><trkpt lat="43.3018749" lon="11.3114839"><ele>272.0</ele><time>2026-04-06T15:18:56.144Z</time></trkpt><trkpt lat="43.3017706" lon="11.3115391"><ele>272.25</ele><time>2026-04-06T15:18:57.144Z</time></trkpt><trkpt lat="43.3016639" lon="11.3115752"><ele>272.5</ele><time>2026-04-06T15:18:58.161Z</time></trkpt><trkpt lat="43.3015414" lon="11.3116108"><ele>272.75</ele><time>2026-04-06T15:18:59.141Z</time></trkpt><trkpt lat="43.3014027" lon="11.3115997"><ele>273.0</ele><time>2026-04-06T15:19:00.139Z</time></trkpt><trkpt lat="43.3012707" lon="11.3114892"><ele>270.3333333333333</ele><time>2026-04-06T15:19:01.148Z</time></trkpt><trkpt lat="43.3011482" lon="11.3113406"><ele>267.66666666666663</ele><time>2026-04-06T15:19:02.137Z</time></trkpt><trkpt lat="43.3010378" lon="11.3111505"><ele>265.0</ele><time>2026-04-06T15:19:03.159Z</time></trkpt><trkpt lat="43.3009386" lon="11.3109583"><ele>265.0</ele><time>2026-04-06T15:19:04.137Z</time></trkpt><trkpt lat="43.3008368" lon="11.3107567"><ele>265.0</ele><time>2026-04-06T15:19:05.139Z</time></trkpt><trkpt lat="43.3007399" lon="11.3105648"><ele>265.0</ele><time>2026-04-06T15:19:06.133Z</time></trkpt><trkpt lat="43.3006372" lon="11.3103596"><ele>262.3333333333333</ele><time>2026-04-06T15:19:07.145Z</time></trkpt><trkpt lat="43.3005365" lon="11.3101497"><ele>259.6666666666667</ele><time>2026-04-06T15:19:08.14Z</time></trkpt><trkpt lat="43.300435" lon="11.3099345"><ele>257.0</ele><time>2026-04-06T15:19:09.156Z</time></trkpt><trkpt lat="43.3003351" lon="11.3097326"><ele>257.0</ele><time>2026-04-06T15:19:10.148Z</time></trkpt><trkpt lat="43.3002278" lon="11.3095378"><ele>257.0</ele><time>2026-04-06T15:19:11.151Z</time></trkpt><trkpt lat="43.3001226" lon="11.3093533"><ele>257.0</ele><time>2026-04-06T15:19:12.144Z</time></trkpt><trkpt lat="43.3000105" lon="11.3091877"><ele>257.0</ele><time>2026-04-06T15:19:13.151Z</time></trkpt><trkpt lat="43.2998855" lon="11.3090491"><ele>257.0</ele><time>2026-04-06T15:19:14.143Z</time></trkpt><trkpt lat="43.2997384" lon="11.3089393"><ele>257.0</ele><time>2026-04-06T15:19:15.157Z</time></trkpt><trkpt lat="43.2995724" lon="11.3088729"><ele>253.0</ele><time>2026-04-06T15:19:16.157Z</time></trkpt><trkpt lat="43.299408" lon="11.3088302"><ele>249.0</ele><time>2026-04-06T15:19:17.152Z</time></trkpt><trkpt lat="43.2992411" lon="11.3088289"><ele>245.0</ele><time>2026-04-06T15:19:18.151Z</time></trkpt><trkpt lat="43.2990672" lon="11.3088314"><ele>243.66666666666669</ele><time>2026-04-06T15:19:19.146Z</time></trkpt><trkpt lat="43.2988933" lon="11.3088463"><ele>242.33333333333331</ele><time>2026-04-06T15:19:20.147Z</time></trkpt><trkpt lat="43.2987217" lon="11.3088568"><ele>241.0</ele><time>2026-04-06T15:19:21.143Z</time></trkpt><trkpt lat="43.2985493" lon="11.308864"><ele>241.0</ele><time>2026-04-06T15:19:22.149Z</time></trkpt><trkpt lat="43.2983762" lon="11.308869"><ele>241.0</ele><time>2026-04-06T15:19:23.14Z</time></trkpt><trkpt lat="43.2982054" lon="11.3088671"><ele>241.0</ele><time>2026-04-06T15:19:24.152Z</time></trkpt><trkpt lat="43.2980404" lon="11.3088664"><ele>241.0</ele><time>2026-04-06T15:19:25.139Z</time></trkpt><trkpt lat="43.297881" lon="11.3088687"><ele>241.0</ele><time>2026-04-06T15:19:26.143Z</time></trkpt><trkpt lat="43.2977202" lon="11.3088729"><ele>241.0</ele><time>2026-04-06T15:19:27.152Z</time></trkpt><trkpt lat="43.2975695" lon="11.3088832"><ele>241.0</ele><time>2026-04-06T15:19:28.158Z</time></trkpt><trkpt lat="43.2974245" lon="11.3088946"><ele>241.0</ele><time>2026-04-06T15:19:29.142Z</time></trkpt><trkpt lat="43.2972963" lon="11.3089093"><ele>241.0</ele><time>2026-04-06T15:19:30.154Z</time></trkpt><trkpt lat="43.2971805" lon="11.3089021"><ele>241.0</ele><time>2026-04-06T15:19:31.142Z</time></trkpt><trkpt lat="43.2970826" lon="11.3088615"><ele>241.0</ele><time>2026-04-06T15:19:32.144Z</time></trkpt><trkpt lat="43.2969838" lon="11.3088002"><ele>241.0</ele><time>2026-04-06T15:19:33.145Z</time></trkpt><trkpt lat="43.2968801" lon="11.3087756"><ele>241.0</ele><time>2026-04-06T15:19:34.149Z</time></trkpt><trkpt lat="43.2967673" lon="11.3087675"><ele>241.0</ele><time>2026-04-06T15:19:35.141Z</time></trkpt><trkpt lat="43.2966392" lon="11.3087561"><ele>241.0</ele><time>2026-04-06T15:19:36.146Z</time></trkpt><trkpt lat="43.296495" lon="11.3086996"><ele>241.0</ele><time>2026-04-06T15:19:37.149Z</time></trkpt><trkpt lat="43.2963552" lon="11.308651"><ele>241.0</ele><time>2026-04-06T15:19:38.135Z</time></trkpt><trkpt lat="43.2962259" lon="11.3086109"><ele>241.0</ele><time>2026-04-06T15:19:39.152Z</time></trkpt><trkpt lat="43.2960892" lon="11.3085775"><ele>240.75</ele><time>2026-04-06T15:19:40.139Z</time></trkpt><trkpt lat="43.2959458" lon="11.3085422"><ele>240.5</ele><time>2026-04-06T15:19:41.147Z</time></trkpt><trkpt lat="43.2958096" lon="11.3085126"><ele>240.25</ele><time>2026-04-06T15:19:42.152Z</time></trkpt><trkpt lat="43.2956832" lon="11.3084771"><ele>240.0</ele><time>2026-04-06T15:19:43.149Z</time></trkpt><trkpt lat="43.2955526" lon="11.3084418"><ele>239.75</ele><time>2026-04-06T15:19:44.138Z</time></trkpt><trkpt lat="43.2954239" lon="11.3084029"><ele>239.5</ele><time>2026-04-06T15:19:45.151Z</time></trkpt><trkpt lat="43.2952988" lon="11.3083533"><ele>239.25</ele><time>2026-04-06T15:19:46.137Z</time></trkpt><trkpt lat="43.2951757" lon="11.3083007"><ele>239.0</ele><time>2026-04-06T15:19:47.15Z</time></trkpt><trkpt lat="43.2950418" lon="11.308235"><ele>239.0</ele><time>2026-04-06T15:19:48.139Z</time></trkpt><trkpt lat="43.2949039" lon="11.3081524"><ele>239.0</ele><time>2026-04-06T15:19:49.147Z</time></trkpt><trkpt lat="43.2947705" lon="11.3080423"><ele>239.0</ele><time>2026-04-06T15:19:50.135Z</time></trkpt><trkpt lat="43.2946423" lon="11.3079141"><ele>238.5</ele><time>2026-04-06T15:19:51.138Z</time></trkpt><trkpt lat="43.2945262" lon="11.3077931"><ele>238.0</ele><time>2026-04-06T15:19:52.146Z</time></trkpt><trkpt lat="43.2944133" lon="11.3076851"><ele>237.5</ele><time>2026-04-06T15:19:53.144Z</time></trkpt><trkpt lat="43.2943093" lon="11.3075834"><ele>237.0</ele><time>2026-04-06T15:19:54.151Z</time></trkpt><trkpt lat="43.2942115" lon="11.3074928"><ele>237.0</ele><time>2026-04-06T15:19:55.147Z</time></trkpt><trkpt lat="43.2941141" lon="11.3074075"><ele>237.0</ele><time>2026-04-06T15:19:56.153Z</time></trkpt><trkpt lat="43.2940258" lon="11.3073272"><ele>237.0</ele><time>2026-04-06T15:19:57.144Z</time></trkpt><trkpt lat="43.293946" lon="11.3072445"><ele>237.0</ele><time>2026-04-06T15:19:58.134Z</time></trkpt><trkpt lat="43.2938653" lon="11.3071785"><ele>237.0</ele><time>2026-04-06T15:19:59.148Z</time></trkpt><trkpt lat="43.2937923" lon="11.3071061"><ele>237.6</ele><time>2026-04-06T15:20:00.143Z</time></trkpt><trkpt lat="43.2937264" lon="11.3070398"><ele>238.2</ele><time>2026-04-06T15:20:01.141Z</time></trkpt><trkpt lat="43.2936473" lon="11.3069703"><ele>238.8</ele><time>2026-04-06T15:20:02.13Z</time></trkpt><trkpt lat="43.2935497" lon="11.3068941"><ele>239.4</ele><time>2026-04-06T15:20:03.139Z</time></trkpt><trkpt lat="43.2934458" lon="11.3068198"><ele>240.0</ele><time>2026-04-06T15:20:04.144Z</time></trkpt><trkpt lat="43.2933405" lon="11.3067585"><ele>240.0</ele><time>2026-04-06T15:20:05.143Z</time></trkpt><trkpt lat="43.2932306" lon="11.3067267"><ele>240.0</ele><time>2026-04-06T15:20:06.143Z</time></trkpt><trkpt lat="43.2931009" lon="11.3067416"><ele>240.0</ele><time>2026-04-06T15:20:07.137Z</time></trkpt><trkpt lat="43.2929863" lon="11.306787"><ele>240.0</ele><time>2026-04-06T15:20:08.139Z</time></trkpt><trkpt lat="43.2928727" lon="11.3068706"><ele>241.25</ele><time>2026-04-06T15:20:09.137Z</time></trkpt><trkpt lat="43.2927712" lon="11.3069544"><ele>242.5</ele><time>2026-04-06T15:20:10.144Z</time></trkpt><trkpt lat="43.2926749" lon="11.3070479"><ele>243.75</ele><time>2026-04-06T15:20:11.137Z</time></trkpt><trkpt lat="43.2925805" lon="11.3071514"><ele>245.0</ele><time>2026-04-06T15:20:12.148Z</time></trkpt><trkpt lat="43.2924889" lon="11.3072649"><ele>245.0</ele><time>2026-04-06T15:20:13.136Z</time></trkpt><trkpt lat="43.2923937" lon="11.3073744"><ele>245.0</ele><time>2026-04-06T15:20:14.134Z</time></trkpt><trkpt lat="43.2922956" lon="11.3074686"><ele>245.0</ele><time>2026-04-06T15:20:15.159Z</time></trkpt><trkpt lat="43.2922047" lon="11.3075549"><ele>245.0</ele><time>2026-04-06T15:20:16.141Z</time></trkpt><trkpt lat="43.2920946" lon="11.3075949"><ele>248.2</ele><time>2026-04-06T15:20:17.151Z</time></trkpt><trkpt lat="43.2919943" lon="11.3075563"><ele>251.4</ele><time>2026-04-06T15:20:18.155Z</time></trkpt><trkpt lat="43.2919206" lon="11.3074435"><ele>254.60000000000002</ele><time>2026-04-06T15:20:19.14Z</time></trkpt><trkpt lat="43.2919108" lon="11.3072863"><ele>257.8</ele><time>2026-04-06T15:20:20.15Z</time></trkpt><trkpt lat="43.2919427" lon="11.3071345"><ele>261.0</ele><time>2026-04-06T15:20:21.143Z</time></trkpt><trkpt lat="43.2919872" lon="11.3070093"><ele>261.8</ele><time>2026-04-06T15:20:22.14Z</time></trkpt><trkpt lat="43.2920478" lon="11.3069021"><ele>262.6</ele><time>2026-04-06T15:20:23.141Z</time></trkpt><trkpt lat="43.2921219" lon="11.3068071"><ele>263.4</ele><time>2026-04-06T15:20:24.141Z</time></trkpt><trkpt lat="43.2921928" lon="11.3067255"><ele>264.2</ele><time>2026-04-06T15:20:25.139Z</time></trkpt><trkpt lat="43.292263" lon="11.3066489"><ele>265.0</ele><time>2026-04-06T15:20:26.153Z</time></trkpt><trkpt lat="43.2923292" lon="11.3065853"><ele>263.8</ele><time>2026-04-06T15:20:27.139Z</time></trkpt><trkpt lat="43.2923876" lon="11.3064883"><ele>262.6</ele><time>2026-04-06T15:20:28.147Z</time></trkpt><trkpt lat="43.292437" lon="11.3063751"><ele>261.4</ele><time>2026-04-06T15:20:29.143Z</time></trkpt><trkpt lat="43.2924505" lon="11.3062555"><ele>260.2</ele><time>2026-04-06T15:20:30.147Z</time></trkpt><trkpt lat="43.2924063" lon="11.3061469"><ele>259.0</ele><time>2026-04-06T15:20:31.141Z</time></trkpt><trkpt lat="43.2923411" lon="11.3060481"><ele>259.0</ele><time>2026-04-06T15:20:32.15Z</time></trkpt><trkpt lat="43.292265" lon="11.3059563"><ele>259.0</ele><time>2026-04-06T15:20:33.15Z</time></trkpt><trkpt lat="43.2921866" lon="11.3058762"><ele>259.0</ele><time>2026-04-06T15:20:34.144Z</time></trkpt><trkpt lat="43.2921182" lon="11.3057991"><ele>259.0</ele><time>2026-04-06T15:20:35.146Z</time></trkpt><trkpt lat="43.2920473" lon="11.3057092"><ele>259.0</ele><time>2026-04-06T15:20:36.136Z</time></trkpt><trkpt lat="43.2919949" lon="11.3056098"><ele>260.8333333333333</ele><time>2026-04-06T15:20:37.139Z</time></trkpt><trkpt lat="43.2919487" lon="11.3055009"><ele>262.66666666666663</ele><time>2026-04-06T15:20:38.137Z</time></trkpt><trkpt lat="43.2919139" lon="11.3053782"><ele>264.5</ele><time>2026-04-06T15:20:39.141Z</time></trkpt><trkpt lat="43.2918827" lon="11.3052666"><ele>266.3333333333333</ele><time>2026-04-06T15:20:40.139Z</time></trkpt><trkpt lat="43.2918515" lon="11.3051562"><ele>268.1666666666667</ele><time>2026-04-06T15:20:41.145Z</time></trkpt><trkpt lat="43.2918295" lon="11.305044"><ele>270.0</ele><time>2026-04-06T15:20:42.139Z</time></trkpt><trkpt lat="43.2918235" lon="11.3049299"><ele>270.0</ele><time>2026-04-06T15:20:43.144Z</time></trkpt><trkpt lat="43.291839" lon="11.3048035"><ele>270.0</ele><time>2026-04-06T15:20:44.135Z</time></trkpt><trkpt lat="43.2918579" lon="11.304688"><ele>272.0</ele><time>2026-04-06T15:20:45.149Z</time></trkpt><trkpt lat="43.2918784" lon="11.3045873"><ele>272.0</ele><time>2026-04-06T15:20:46.148Z</time></trkpt><trkpt lat="43.2918926" lon="11.3044975"><ele>272.0</ele><time>2026-04-06T15:20:47.133Z</time></trkpt><trkpt lat="43.2919243" lon="11.3043516"><ele>272.0</ele><time>2026-04-06T15:20:49.135Z</time></trkpt></trkseg></trk></gpx>